<?xml version="1.0" encoding="UTF-8" standalone="no" ?>
<gpx xmlns="http://www.topografix.com/GPX/1/1" xmlns:xsi="http://www.w3.org/2001/XMLSchema-instance" xsi:schemaLocation="http://www.topografix.com/GPX/1/1 http://www.topografix.com/GPX/1/1/gpx.xsd" version="1.1" creator="VisuGPX - https://www.visugpx.com">
  <metadata>
    <name>2017-03-15 Bike ride-Amberieux en Dombes O via Monthieux</name>
    <desc><![CDATA[2017-03-15 Bike ride-Amberieux en Dombes O via Monthieux]]></desc>
  </metadata>
  <wpt lat="45.92481" lon="4.73714">
    <ele>174</ele>
    <name><![CDATA[2017-03-15 10:30 (Start)]]></name>
  </wpt>
  <wpt lat="45.92464" lon="4.73713">
    <ele>174</ele>
    <name><![CDATA[2017-03-15 10:30 (End)]]></name>
    <desc><![CDATA[Created by Google My Tracks on Android  Name: 2017-03-15 10:30 Activity type: biking Description: - Total distance: 46.75 km (29.0 mi) Total time: 2:22:34 Moving time: 2:16:48 Average speed: 19.67 km/h (12.2 mi/h) Average moving speed: 20.50 km/h (12.7 mi/h) Max speed: 45.46 km/h (28.2 mi/h) Average pace: 3:03 min/km (4:55 min/mi) Average moving pace: 2:56 min/km (4:43 min/mi) Fastest pace: 1:19 min/km (2:07 min/mi) Max elevation: 307 m (1006 ft) Min elevation: 164 m (538 ft) Elevation gain: 649 m (2131 ft) Max grade: 10 % Min grade: -10 % Recorded: 15/03/2017 10:30]]></desc>
  </wpt>
  <trk>
    <name><![CDATA[2017-03-15 10:30]]></name>
    <trkseg>
      <trkpt lat="45.92481" lon="4.73714">
        <ele>174</ele>
        <time>2017-03-15T09:30:22.392Z</time>
      </trkpt>
      <trkpt lat="45.92475" lon="4.73706">
        <ele>174</ele>
        <time>2017-03-15T09:31:15Z</time>
      </trkpt>
      <trkpt lat="45.92475" lon="4.73704">
        <ele>174</ele>
        <time>2017-03-15T09:31:16Z</time>
      </trkpt>
      <trkpt lat="45.92475" lon="4.73693">
        <ele>174</ele>
        <time>2017-03-15T09:31:20Z</time>
      </trkpt>
      <trkpt lat="45.92475" lon="4.7369">
        <ele>174</ele>
        <time>2017-03-15T09:31:21Z</time>
      </trkpt>
      <trkpt lat="45.92477" lon="4.7368">
        <ele>174</ele>
        <time>2017-03-15T09:31:25Z</time>
      </trkpt>
      <trkpt lat="45.92478" lon="4.73677">
        <ele>175</ele>
        <time>2017-03-15T09:31:26Z</time>
      </trkpt>
      <trkpt lat="45.9248" lon="4.73666">
        <ele>174</ele>
        <time>2017-03-15T09:31:30Z</time>
      </trkpt>
      <trkpt lat="45.92482" lon="4.73662">
        <ele>174</ele>
        <time>2017-03-15T09:31:31Z</time>
      </trkpt>
      <trkpt lat="45.92482" lon="4.73654">
        <ele>174</ele>
        <time>2017-03-15T09:31:33Z</time>
      </trkpt>
      <trkpt lat="45.92484" lon="4.73649">
        <ele>174</ele>
        <time>2017-03-15T09:31:34Z</time>
      </trkpt>
      <trkpt lat="45.92488" lon="4.73642">
        <ele>174</ele>
        <time>2017-03-15T09:31:36Z</time>
      </trkpt>
      <trkpt lat="45.92492" lon="4.7364">
        <ele>174</ele>
        <time>2017-03-15T09:31:37Z</time>
      </trkpt>
      <trkpt lat="45.925" lon="4.73638">
        <ele>174</ele>
        <time>2017-03-15T09:31:39Z</time>
      </trkpt>
      <trkpt lat="45.92503" lon="4.73638">
        <ele>174</ele>
        <time>2017-03-15T09:31:40Z</time>
      </trkpt>
      <trkpt lat="45.92512" lon="4.73637">
        <ele>174</ele>
        <time>2017-03-15T09:31:42Z</time>
      </trkpt>
      <trkpt lat="45.92515" lon="4.73637">
        <ele>173</ele>
        <time>2017-03-15T09:31:43Z</time>
      </trkpt>
      <trkpt lat="45.9252" lon="4.73637">
        <ele>173</ele>
        <time>2017-03-15T09:31:44Z</time>
      </trkpt>
      <trkpt lat="45.92525" lon="4.73637">
        <ele>173</ele>
        <time>2017-03-15T09:31:45Z</time>
      </trkpt>
      <trkpt lat="45.92529" lon="4.73636">
        <ele>173</ele>
        <time>2017-03-15T09:31:46Z</time>
      </trkpt>
      <trkpt lat="45.92535" lon="4.73635">
        <ele>173</ele>
        <time>2017-03-15T09:31:47Z</time>
      </trkpt>
      <trkpt lat="45.9254" lon="4.73635">
        <ele>173</ele>
        <time>2017-03-15T09:31:48Z</time>
      </trkpt>
      <trkpt lat="45.92545" lon="4.73634">
        <ele>173</ele>
        <time>2017-03-15T09:31:49Z</time>
      </trkpt>
      <trkpt lat="45.92549" lon="4.73633">
        <ele>173</ele>
        <time>2017-03-15T09:31:50Z</time>
      </trkpt>
      <trkpt lat="45.92554" lon="4.73632">
        <ele>173</ele>
        <time>2017-03-15T09:31:51Z</time>
      </trkpt>
      <trkpt lat="45.92559" lon="4.7363">
        <ele>173</ele>
        <time>2017-03-15T09:31:52Z</time>
      </trkpt>
      <trkpt lat="45.92565" lon="4.73628">
        <ele>173</ele>
        <time>2017-03-15T09:31:53Z</time>
      </trkpt>
      <trkpt lat="45.92569" lon="4.73628">
        <ele>173</ele>
        <time>2017-03-15T09:31:54Z</time>
      </trkpt>
      <trkpt lat="45.92574" lon="4.73627">
        <ele>173</ele>
        <time>2017-03-15T09:31:55Z</time>
      </trkpt>
      <trkpt lat="45.92579" lon="4.73625">
        <ele>173</ele>
        <time>2017-03-15T09:31:56Z</time>
      </trkpt>
      <trkpt lat="45.92584" lon="4.73624">
        <ele>172</ele>
        <time>2017-03-15T09:31:57Z</time>
      </trkpt>
      <trkpt lat="45.92589" lon="4.73622">
        <ele>173</ele>
        <time>2017-03-15T09:31:58Z</time>
      </trkpt>
      <trkpt lat="45.92594" lon="4.73621">
        <ele>173</ele>
        <time>2017-03-15T09:31:59Z</time>
      </trkpt>
      <trkpt lat="45.92599" lon="4.7362">
        <ele>173</ele>
        <time>2017-03-15T09:32:00Z</time>
      </trkpt>
      <trkpt lat="45.92603" lon="4.73619">
        <ele>173</ele>
        <time>2017-03-15T09:32:01Z</time>
      </trkpt>
      <trkpt lat="45.92608" lon="4.73618">
        <ele>173</ele>
        <time>2017-03-15T09:32:02Z</time>
      </trkpt>
      <trkpt lat="45.92614" lon="4.73618">
        <ele>173</ele>
        <time>2017-03-15T09:32:03Z</time>
      </trkpt>
      <trkpt lat="45.92619" lon="4.73618">
        <ele>173</ele>
        <time>2017-03-15T09:32:04Z</time>
      </trkpt>
      <trkpt lat="45.92624" lon="4.73619">
        <ele>173</ele>
        <time>2017-03-15T09:32:05Z</time>
      </trkpt>
      <trkpt lat="45.92628" lon="4.73624">
        <ele>173</ele>
        <time>2017-03-15T09:32:06Z</time>
      </trkpt>
      <trkpt lat="45.9263" lon="4.7363">
        <ele>173</ele>
        <time>2017-03-15T09:32:07Z</time>
      </trkpt>
      <trkpt lat="45.92632" lon="4.73637">
        <ele>173</ele>
        <time>2017-03-15T09:32:08Z</time>
      </trkpt>
      <trkpt lat="45.92635" lon="4.73643">
        <ele>173</ele>
        <time>2017-03-15T09:32:09Z</time>
      </trkpt>
      <trkpt lat="45.92637" lon="4.73649">
        <ele>173</ele>
        <time>2017-03-15T09:32:10Z</time>
      </trkpt>
      <trkpt lat="45.9264" lon="4.73655">
        <ele>173</ele>
        <time>2017-03-15T09:32:11Z</time>
      </trkpt>
      <trkpt lat="45.92643" lon="4.73661">
        <ele>173</ele>
        <time>2017-03-15T09:32:12Z</time>
      </trkpt>
      <trkpt lat="45.92648" lon="4.73666">
        <ele>173</ele>
        <time>2017-03-15T09:32:13Z</time>
      </trkpt>
      <trkpt lat="45.9265" lon="4.73672">
        <ele>173</ele>
        <time>2017-03-15T09:32:14Z</time>
      </trkpt>
      <trkpt lat="45.92654" lon="4.73678">
        <ele>173</ele>
        <time>2017-03-15T09:32:15Z</time>
      </trkpt>
      <trkpt lat="45.92659" lon="4.73682">
        <ele>173</ele>
        <time>2017-03-15T09:32:16Z</time>
      </trkpt>
      <trkpt lat="45.92664" lon="4.73686">
        <ele>173</ele>
        <time>2017-03-15T09:32:17Z</time>
      </trkpt>
      <trkpt lat="45.92669" lon="4.7369">
        <ele>174</ele>
        <time>2017-03-15T09:32:18Z</time>
      </trkpt>
      <trkpt lat="45.92674" lon="4.73693">
        <ele>174</ele>
        <time>2017-03-15T09:32:19Z</time>
      </trkpt>
      <trkpt lat="45.92679" lon="4.73696">
        <ele>173</ele>
        <time>2017-03-15T09:32:20Z</time>
      </trkpt>
      <trkpt lat="45.92685" lon="4.73699">
        <ele>173</ele>
        <time>2017-03-15T09:32:21Z</time>
      </trkpt>
      <trkpt lat="45.9269" lon="4.73701">
        <ele>173</ele>
        <time>2017-03-15T09:32:22Z</time>
      </trkpt>
      <trkpt lat="45.92696" lon="4.73703">
        <ele>173</ele>
        <time>2017-03-15T09:32:23Z</time>
      </trkpt>
      <trkpt lat="45.92702" lon="4.73704">
        <ele>173</ele>
        <time>2017-03-15T09:32:24Z</time>
      </trkpt>
      <trkpt lat="45.92708" lon="4.73705">
        <ele>173</ele>
        <time>2017-03-15T09:32:25Z</time>
      </trkpt>
      <trkpt lat="45.92714" lon="4.73706">
        <ele>173</ele>
        <time>2017-03-15T09:32:26Z</time>
      </trkpt>
      <trkpt lat="45.92721" lon="4.73707">
        <ele>173</ele>
        <time>2017-03-15T09:32:27Z</time>
      </trkpt>
      <trkpt lat="45.92726" lon="4.73708">
        <ele>173</ele>
        <time>2017-03-15T09:32:28Z</time>
      </trkpt>
      <trkpt lat="45.92731" lon="4.7371">
        <ele>173</ele>
        <time>2017-03-15T09:32:29Z</time>
      </trkpt>
      <trkpt lat="45.92737" lon="4.73711">
        <ele>173</ele>
        <time>2017-03-15T09:32:30Z</time>
      </trkpt>
      <trkpt lat="45.92743" lon="4.73712">
        <ele>173</ele>
        <time>2017-03-15T09:32:31Z</time>
      </trkpt>
      <trkpt lat="45.92749" lon="4.73713">
        <ele>173</ele>
        <time>2017-03-15T09:32:32Z</time>
      </trkpt>
      <trkpt lat="45.92754" lon="4.73715">
        <ele>172</ele>
        <time>2017-03-15T09:32:33Z</time>
      </trkpt>
      <trkpt lat="45.9276" lon="4.73715">
        <ele>172</ele>
        <time>2017-03-15T09:32:34Z</time>
      </trkpt>
      <trkpt lat="45.92765" lon="4.73716">
        <ele>172</ele>
        <time>2017-03-15T09:32:35Z</time>
      </trkpt>
      <trkpt lat="45.92771" lon="4.73717">
        <ele>172</ele>
        <time>2017-03-15T09:32:36Z</time>
      </trkpt>
      <trkpt lat="45.92774" lon="4.73719">
        <ele>172</ele>
        <time>2017-03-15T09:32:37Z</time>
      </trkpt>
      <trkpt lat="45.92783" lon="4.73721">
        <ele>172</ele>
        <time>2017-03-15T09:32:39Z</time>
      </trkpt>
      <trkpt lat="45.92786" lon="4.73721">
        <ele>172</ele>
        <time>2017-03-15T09:32:40Z</time>
      </trkpt>
      <trkpt lat="45.92794" lon="4.73716">
        <ele>172</ele>
        <time>2017-03-15T09:32:42Z</time>
      </trkpt>
      <trkpt lat="45.92796" lon="4.73712">
        <ele>172</ele>
        <time>2017-03-15T09:32:43Z</time>
      </trkpt>
      <trkpt lat="45.928" lon="4.73702">
        <ele>172</ele>
        <time>2017-03-15T09:32:45Z</time>
      </trkpt>
      <trkpt lat="45.92802" lon="4.73696">
        <ele>172</ele>
        <time>2017-03-15T09:32:46Z</time>
      </trkpt>
      <trkpt lat="45.92801" lon="4.7369">
        <ele>172</ele>
        <time>2017-03-15T09:32:47Z</time>
      </trkpt>
      <trkpt lat="45.92801" lon="4.73683">
        <ele>172</ele>
        <time>2017-03-15T09:32:48Z</time>
      </trkpt>
      <trkpt lat="45.92803" lon="4.73676">
        <ele>172</ele>
        <time>2017-03-15T09:32:49Z</time>
      </trkpt>
      <trkpt lat="45.92805" lon="4.7367">
        <ele>172</ele>
        <time>2017-03-15T09:32:50Z</time>
      </trkpt>
      <trkpt lat="45.92807" lon="4.73664">
        <ele>171</ele>
        <time>2017-03-15T09:32:51Z</time>
      </trkpt>
      <trkpt lat="45.92809" lon="4.73658">
        <ele>171</ele>
        <time>2017-03-15T09:32:52Z</time>
      </trkpt>
      <trkpt lat="45.92811" lon="4.73646">
        <ele>172</ele>
        <time>2017-03-15T09:32:54Z</time>
      </trkpt>
      <trkpt lat="45.92814" lon="4.73641">
        <ele>172</ele>
        <time>2017-03-15T09:32:55Z</time>
      </trkpt>
      <trkpt lat="45.92819" lon="4.73633">
        <ele>172</ele>
        <time>2017-03-15T09:32:57Z</time>
      </trkpt>
      <trkpt lat="45.92821" lon="4.7363">
        <ele>172</ele>
        <time>2017-03-15T09:32:58Z</time>
      </trkpt>
      <trkpt lat="45.92823" lon="4.73619">
        <ele>172</ele>
        <time>2017-03-15T09:33:01Z</time>
      </trkpt>
      <trkpt lat="45.92824" lon="4.73614">
        <ele>171</ele>
        <time>2017-03-15T09:33:02Z</time>
      </trkpt>
      <trkpt lat="45.92822" lon="4.73602">
        <ele>171</ele>
        <time>2017-03-15T09:33:04Z</time>
      </trkpt>
      <trkpt lat="45.92822" lon="4.73595">
        <ele>171</ele>
        <time>2017-03-15T09:33:05Z</time>
      </trkpt>
      <trkpt lat="45.92823" lon="4.73587">
        <ele>171</ele>
        <time>2017-03-15T09:33:06Z</time>
      </trkpt>
      <trkpt lat="45.92822" lon="4.73579">
        <ele>171</ele>
        <time>2017-03-15T09:33:07Z</time>
      </trkpt>
      <trkpt lat="45.92823" lon="4.73572">
        <ele>171</ele>
        <time>2017-03-15T09:33:08Z</time>
      </trkpt>
      <trkpt lat="45.92823" lon="4.73564">
        <ele>171</ele>
        <time>2017-03-15T09:33:09Z</time>
      </trkpt>
      <trkpt lat="45.92823" lon="4.73556">
        <ele>171</ele>
        <time>2017-03-15T09:33:10Z</time>
      </trkpt>
      <trkpt lat="45.92822" lon="4.73547">
        <ele>171</ele>
        <time>2017-03-15T09:33:11Z</time>
      </trkpt>
      <trkpt lat="45.92822" lon="4.73539">
        <ele>172</ele>
        <time>2017-03-15T09:33:12Z</time>
      </trkpt>
      <trkpt lat="45.92823" lon="4.73531">
        <ele>172</ele>
        <time>2017-03-15T09:33:13Z</time>
      </trkpt>
      <trkpt lat="45.92824" lon="4.73524">
        <ele>172</ele>
        <time>2017-03-15T09:33:14Z</time>
      </trkpt>
      <trkpt lat="45.92825" lon="4.73516">
        <ele>172</ele>
        <time>2017-03-15T09:33:15Z</time>
      </trkpt>
      <trkpt lat="45.92826" lon="4.73508">
        <ele>172</ele>
        <time>2017-03-15T09:33:16Z</time>
      </trkpt>
      <trkpt lat="45.92827" lon="4.735">
        <ele>172</ele>
        <time>2017-03-15T09:33:17Z</time>
      </trkpt>
      <trkpt lat="45.92828" lon="4.73492">
        <ele>172</ele>
        <time>2017-03-15T09:33:18Z</time>
      </trkpt>
      <trkpt lat="45.92829" lon="4.73483">
        <ele>172</ele>
        <time>2017-03-15T09:33:19Z</time>
      </trkpt>
      <trkpt lat="45.9283" lon="4.73475">
        <ele>172</ele>
        <time>2017-03-15T09:33:20Z</time>
      </trkpt>
      <trkpt lat="45.9283" lon="4.73466">
        <ele>172</ele>
        <time>2017-03-15T09:33:21Z</time>
      </trkpt>
      <trkpt lat="45.92832" lon="4.73458">
        <ele>172</ele>
        <time>2017-03-15T09:33:22Z</time>
      </trkpt>
      <trkpt lat="45.92832" lon="4.7345">
        <ele>172</ele>
        <time>2017-03-15T09:33:23Z</time>
      </trkpt>
      <trkpt lat="45.92833" lon="4.73442">
        <ele>172</ele>
        <time>2017-03-15T09:33:24Z</time>
      </trkpt>
      <trkpt lat="45.92834" lon="4.73433">
        <ele>172</ele>
        <time>2017-03-15T09:33:25Z</time>
      </trkpt>
      <trkpt lat="45.92835" lon="4.73425">
        <ele>172</ele>
        <time>2017-03-15T09:33:26Z</time>
      </trkpt>
      <trkpt lat="45.92836" lon="4.73417">
        <ele>172</ele>
        <time>2017-03-15T09:33:27Z</time>
      </trkpt>
      <trkpt lat="45.92837" lon="4.73409">
        <ele>172</ele>
        <time>2017-03-15T09:33:28Z</time>
      </trkpt>
      <trkpt lat="45.92839" lon="4.73401">
        <ele>172</ele>
        <time>2017-03-15T09:33:29Z</time>
      </trkpt>
      <trkpt lat="45.9284" lon="4.73393">
        <ele>172</ele>
        <time>2017-03-15T09:33:30Z</time>
      </trkpt>
      <trkpt lat="45.92841" lon="4.73384">
        <ele>172</ele>
        <time>2017-03-15T09:33:31Z</time>
      </trkpt>
      <trkpt lat="45.92842" lon="4.73376">
        <ele>172</ele>
        <time>2017-03-15T09:33:32Z</time>
      </trkpt>
      <trkpt lat="45.92843" lon="4.73368">
        <ele>171</ele>
        <time>2017-03-15T09:33:33Z</time>
      </trkpt>
      <trkpt lat="45.92844" lon="4.73359">
        <ele>171</ele>
        <time>2017-03-15T09:33:34Z</time>
      </trkpt>
      <trkpt lat="45.92845" lon="4.73351">
        <ele>171</ele>
        <time>2017-03-15T09:33:35Z</time>
      </trkpt>
      <trkpt lat="45.92846" lon="4.73343">
        <ele>171</ele>
        <time>2017-03-15T09:33:36Z</time>
      </trkpt>
      <trkpt lat="45.92847" lon="4.73334">
        <ele>171</ele>
        <time>2017-03-15T09:33:37Z</time>
      </trkpt>
      <trkpt lat="45.92848" lon="4.73326">
        <ele>171</ele>
        <time>2017-03-15T09:33:38Z</time>
      </trkpt>
      <trkpt lat="45.92849" lon="4.73318">
        <ele>171</ele>
        <time>2017-03-15T09:33:39Z</time>
      </trkpt>
      <trkpt lat="45.92849" lon="4.73309">
        <ele>171</ele>
        <time>2017-03-15T09:33:40Z</time>
      </trkpt>
      <trkpt lat="45.92851" lon="4.733">
        <ele>171</ele>
        <time>2017-03-15T09:33:41Z</time>
      </trkpt>
      <trkpt lat="45.92852" lon="4.73292">
        <ele>171</ele>
        <time>2017-03-15T09:33:42Z</time>
      </trkpt>
      <trkpt lat="45.92853" lon="4.73284">
        <ele>171</ele>
        <time>2017-03-15T09:33:43Z</time>
      </trkpt>
      <trkpt lat="45.92854" lon="4.73276">
        <ele>171</ele>
        <time>2017-03-15T09:33:44Z</time>
      </trkpt>
      <trkpt lat="45.92855" lon="4.73267">
        <ele>171</ele>
        <time>2017-03-15T09:33:45Z</time>
      </trkpt>
      <trkpt lat="45.92857" lon="4.73259">
        <ele>171</ele>
        <time>2017-03-15T09:33:46Z</time>
      </trkpt>
      <trkpt lat="45.92858" lon="4.73251">
        <ele>171</ele>
        <time>2017-03-15T09:33:47Z</time>
      </trkpt>
      <trkpt lat="45.9286" lon="4.73242">
        <ele>171</ele>
        <time>2017-03-15T09:33:48Z</time>
      </trkpt>
      <trkpt lat="45.92861" lon="4.73234">
        <ele>171</ele>
        <time>2017-03-15T09:33:49Z</time>
      </trkpt>
      <trkpt lat="45.92862" lon="4.73225">
        <ele>171</ele>
        <time>2017-03-15T09:33:50Z</time>
      </trkpt>
      <trkpt lat="45.92862" lon="4.73217">
        <ele>171</ele>
        <time>2017-03-15T09:33:51Z</time>
      </trkpt>
      <trkpt lat="45.92863" lon="4.73208">
        <ele>171</ele>
        <time>2017-03-15T09:33:52Z</time>
      </trkpt>
      <trkpt lat="45.92864" lon="4.732">
        <ele>171</ele>
        <time>2017-03-15T09:33:53Z</time>
      </trkpt>
      <trkpt lat="45.92865" lon="4.73191">
        <ele>171</ele>
        <time>2017-03-15T09:33:54Z</time>
      </trkpt>
      <trkpt lat="45.92866" lon="4.73182">
        <ele>171</ele>
        <time>2017-03-15T09:33:55Z</time>
      </trkpt>
      <trkpt lat="45.92867" lon="4.73174">
        <ele>171</ele>
        <time>2017-03-15T09:33:56Z</time>
      </trkpt>
      <trkpt lat="45.92869" lon="4.73165">
        <ele>171</ele>
        <time>2017-03-15T09:33:57Z</time>
      </trkpt>
      <trkpt lat="45.9287" lon="4.73157">
        <ele>171</ele>
        <time>2017-03-15T09:33:58Z</time>
      </trkpt>
      <trkpt lat="45.92871" lon="4.73149">
        <ele>171</ele>
        <time>2017-03-15T09:33:59Z</time>
      </trkpt>
      <trkpt lat="45.92873" lon="4.7314">
        <ele>171</ele>
        <time>2017-03-15T09:34:00Z</time>
      </trkpt>
      <trkpt lat="45.92875" lon="4.73131">
        <ele>171</ele>
        <time>2017-03-15T09:34:01Z</time>
      </trkpt>
      <trkpt lat="45.92876" lon="4.73123">
        <ele>172</ele>
        <time>2017-03-15T09:34:02Z</time>
      </trkpt>
      <trkpt lat="45.92878" lon="4.73114">
        <ele>172</ele>
        <time>2017-03-15T09:34:03Z</time>
      </trkpt>
      <trkpt lat="45.9288" lon="4.73106">
        <ele>172</ele>
        <time>2017-03-15T09:34:04Z</time>
      </trkpt>
      <trkpt lat="45.92882" lon="4.73098">
        <ele>172</ele>
        <time>2017-03-15T09:34:05Z</time>
      </trkpt>
      <trkpt lat="45.92885" lon="4.7309">
        <ele>172</ele>
        <time>2017-03-15T09:34:06Z</time>
      </trkpt>
      <trkpt lat="45.92888" lon="4.73082">
        <ele>172</ele>
        <time>2017-03-15T09:34:07Z</time>
      </trkpt>
      <trkpt lat="45.9289" lon="4.73075">
        <ele>172</ele>
        <time>2017-03-15T09:34:08Z</time>
      </trkpt>
      <trkpt lat="45.92894" lon="4.73068">
        <ele>172</ele>
        <time>2017-03-15T09:34:09Z</time>
      </trkpt>
      <trkpt lat="45.92897" lon="4.73061">
        <ele>172</ele>
        <time>2017-03-15T09:34:10Z</time>
      </trkpt>
      <trkpt lat="45.92901" lon="4.73054">
        <ele>172</ele>
        <time>2017-03-15T09:34:11Z</time>
      </trkpt>
      <trkpt lat="45.92904" lon="4.73048">
        <ele>172</ele>
        <time>2017-03-15T09:34:12Z</time>
      </trkpt>
      <trkpt lat="45.92908" lon="4.73041">
        <ele>172</ele>
        <time>2017-03-15T09:34:13Z</time>
      </trkpt>
      <trkpt lat="45.92912" lon="4.73035">
        <ele>172</ele>
        <time>2017-03-15T09:34:14Z</time>
      </trkpt>
      <trkpt lat="45.92916" lon="4.73029">
        <ele>172</ele>
        <time>2017-03-15T09:34:15Z</time>
      </trkpt>
      <trkpt lat="45.9292" lon="4.73023">
        <ele>172</ele>
        <time>2017-03-15T09:34:16Z</time>
      </trkpt>
      <trkpt lat="45.92925" lon="4.73018">
        <ele>172</ele>
        <time>2017-03-15T09:34:17Z</time>
      </trkpt>
      <trkpt lat="45.9293" lon="4.73013">
        <ele>171</ele>
        <time>2017-03-15T09:34:18Z</time>
      </trkpt>
      <trkpt lat="45.92934" lon="4.73007">
        <ele>171</ele>
        <time>2017-03-15T09:34:19Z</time>
      </trkpt>
      <trkpt lat="45.92939" lon="4.73002">
        <ele>171</ele>
        <time>2017-03-15T09:34:20Z</time>
      </trkpt>
      <trkpt lat="45.92944" lon="4.72996">
        <ele>171</ele>
        <time>2017-03-15T09:34:21Z</time>
      </trkpt>
      <trkpt lat="45.92949" lon="4.72991">
        <ele>171</ele>
        <time>2017-03-15T09:34:22Z</time>
      </trkpt>
      <trkpt lat="45.92953" lon="4.72985">
        <ele>171</ele>
        <time>2017-03-15T09:34:23Z</time>
      </trkpt>
      <trkpt lat="45.92958" lon="4.7298">
        <ele>171</ele>
        <time>2017-03-15T09:34:24Z</time>
      </trkpt>
      <trkpt lat="45.92963" lon="4.72974">
        <ele>171</ele>
        <time>2017-03-15T09:34:25Z</time>
      </trkpt>
      <trkpt lat="45.92967" lon="4.72968">
        <ele>171</ele>
        <time>2017-03-15T09:34:26Z</time>
      </trkpt>
      <trkpt lat="45.92972" lon="4.72963">
        <ele>171</ele>
        <time>2017-03-15T09:34:27Z</time>
      </trkpt>
      <trkpt lat="45.92977" lon="4.72957">
        <ele>171</ele>
        <time>2017-03-15T09:34:28Z</time>
      </trkpt>
      <trkpt lat="45.92981" lon="4.72951">
        <ele>171</ele>
        <time>2017-03-15T09:34:29Z</time>
      </trkpt>
      <trkpt lat="45.92986" lon="4.72945">
        <ele>171</ele>
        <time>2017-03-15T09:34:30Z</time>
      </trkpt>
      <trkpt lat="45.92991" lon="4.72939">
        <ele>171</ele>
        <time>2017-03-15T09:34:31Z</time>
      </trkpt>
      <trkpt lat="45.92996" lon="4.72933">
        <ele>171</ele>
        <time>2017-03-15T09:34:32Z</time>
      </trkpt>
      <trkpt lat="45.93" lon="4.72927">
        <ele>170</ele>
        <time>2017-03-15T09:34:33Z</time>
      </trkpt>
      <trkpt lat="45.93005" lon="4.72922">
        <ele>171</ele>
        <time>2017-03-15T09:34:34Z</time>
      </trkpt>
      <trkpt lat="45.9301" lon="4.72916">
        <ele>171</ele>
        <time>2017-03-15T09:34:35Z</time>
      </trkpt>
      <trkpt lat="45.93016" lon="4.72911">
        <ele>171</ele>
        <time>2017-03-15T09:34:36Z</time>
      </trkpt>
      <trkpt lat="45.9302" lon="4.72905">
        <ele>172</ele>
        <time>2017-03-15T09:34:37Z</time>
      </trkpt>
      <trkpt lat="45.93025" lon="4.72899">
        <ele>172</ele>
        <time>2017-03-15T09:34:38Z</time>
      </trkpt>
      <trkpt lat="45.93029" lon="4.72894">
        <ele>172</ele>
        <time>2017-03-15T09:34:39Z</time>
      </trkpt>
      <trkpt lat="45.93034" lon="4.72888">
        <ele>172</ele>
        <time>2017-03-15T09:34:40Z</time>
      </trkpt>
      <trkpt lat="45.93039" lon="4.72883">
        <ele>172</ele>
        <time>2017-03-15T09:34:41Z</time>
      </trkpt>
      <trkpt lat="45.93044" lon="4.72877">
        <ele>172</ele>
        <time>2017-03-15T09:34:42Z</time>
      </trkpt>
      <trkpt lat="45.93049" lon="4.72871">
        <ele>172</ele>
        <time>2017-03-15T09:34:43Z</time>
      </trkpt>
      <trkpt lat="45.93053" lon="4.72866">
        <ele>172</ele>
        <time>2017-03-15T09:34:44Z</time>
      </trkpt>
      <trkpt lat="45.93058" lon="4.7286">
        <ele>172</ele>
        <time>2017-03-15T09:34:45Z</time>
      </trkpt>
      <trkpt lat="45.93063" lon="4.72854">
        <ele>172</ele>
        <time>2017-03-15T09:34:46Z</time>
      </trkpt>
      <trkpt lat="45.93067" lon="4.72848">
        <ele>172</ele>
        <time>2017-03-15T09:34:47Z</time>
      </trkpt>
      <trkpt lat="45.93072" lon="4.72842">
        <ele>173</ele>
        <time>2017-03-15T09:34:48Z</time>
      </trkpt>
      <trkpt lat="45.93077" lon="4.72837">
        <ele>173</ele>
        <time>2017-03-15T09:34:49Z</time>
      </trkpt>
      <trkpt lat="45.93082" lon="4.72832">
        <ele>173</ele>
        <time>2017-03-15T09:34:50Z</time>
      </trkpt>
      <trkpt lat="45.93087" lon="4.72828">
        <ele>173</ele>
        <time>2017-03-15T09:34:51Z</time>
      </trkpt>
      <trkpt lat="45.93092" lon="4.72825">
        <ele>172</ele>
        <time>2017-03-15T09:34:52Z</time>
      </trkpt>
      <trkpt lat="45.93097" lon="4.72819">
        <ele>172</ele>
        <time>2017-03-15T09:34:53Z</time>
      </trkpt>
      <trkpt lat="45.931" lon="4.72813">
        <ele>172</ele>
        <time>2017-03-15T09:34:54Z</time>
      </trkpt>
      <trkpt lat="45.93105" lon="4.72808">
        <ele>171</ele>
        <time>2017-03-15T09:34:55Z</time>
      </trkpt>
      <trkpt lat="45.9311" lon="4.72802">
        <ele>171</ele>
        <time>2017-03-15T09:34:56Z</time>
      </trkpt>
      <trkpt lat="45.93115" lon="4.72797">
        <ele>171</ele>
        <time>2017-03-15T09:34:57Z</time>
      </trkpt>
      <trkpt lat="45.9312" lon="4.72791">
        <ele>171</ele>
        <time>2017-03-15T09:34:58Z</time>
      </trkpt>
      <trkpt lat="45.93124" lon="4.72786">
        <ele>171</ele>
        <time>2017-03-15T09:34:59Z</time>
      </trkpt>
      <trkpt lat="45.93129" lon="4.72781">
        <ele>171</ele>
        <time>2017-03-15T09:35:00Z</time>
      </trkpt>
      <trkpt lat="45.93134" lon="4.72775">
        <ele>171</ele>
        <time>2017-03-15T09:35:01Z</time>
      </trkpt>
      <trkpt lat="45.93139" lon="4.7277">
        <ele>171</ele>
        <time>2017-03-15T09:35:02Z</time>
      </trkpt>
      <trkpt lat="45.93144" lon="4.72764">
        <ele>171</ele>
        <time>2017-03-15T09:35:03Z</time>
      </trkpt>
      <trkpt lat="45.93149" lon="4.72758">
        <ele>170</ele>
        <time>2017-03-15T09:35:04Z</time>
      </trkpt>
      <trkpt lat="45.93154" lon="4.72752">
        <ele>170</ele>
        <time>2017-03-15T09:35:05Z</time>
      </trkpt>
      <trkpt lat="45.93158" lon="4.72747">
        <ele>170</ele>
        <time>2017-03-15T09:35:06Z</time>
      </trkpt>
      <trkpt lat="45.93162" lon="4.72741">
        <ele>170</ele>
        <time>2017-03-15T09:35:07Z</time>
      </trkpt>
      <trkpt lat="45.93166" lon="4.72735">
        <ele>170</ele>
        <time>2017-03-15T09:35:08Z</time>
      </trkpt>
      <trkpt lat="45.9317" lon="4.72729">
        <ele>170</ele>
        <time>2017-03-15T09:35:09Z</time>
      </trkpt>
      <trkpt lat="45.93175" lon="4.72723">
        <ele>170</ele>
        <time>2017-03-15T09:35:10Z</time>
      </trkpt>
      <trkpt lat="45.93179" lon="4.72717">
        <ele>169</ele>
        <time>2017-03-15T09:35:11Z</time>
      </trkpt>
      <trkpt lat="45.93183" lon="4.72711">
        <ele>169</ele>
        <time>2017-03-15T09:35:12Z</time>
      </trkpt>
      <trkpt lat="45.93188" lon="4.72705">
        <ele>169</ele>
        <time>2017-03-15T09:35:13Z</time>
      </trkpt>
      <trkpt lat="45.93192" lon="4.727">
        <ele>169</ele>
        <time>2017-03-15T09:35:14Z</time>
      </trkpt>
      <trkpt lat="45.93196" lon="4.72695">
        <ele>169</ele>
        <time>2017-03-15T09:35:15Z</time>
      </trkpt>
      <trkpt lat="45.93201" lon="4.72689">
        <ele>169</ele>
        <time>2017-03-15T09:35:16Z</time>
      </trkpt>
      <trkpt lat="45.93206" lon="4.72684">
        <ele>169</ele>
        <time>2017-03-15T09:35:17Z</time>
      </trkpt>
      <trkpt lat="45.93211" lon="4.72678">
        <ele>169</ele>
        <time>2017-03-15T09:35:18Z</time>
      </trkpt>
      <trkpt lat="45.93215" lon="4.72673">
        <ele>169</ele>
        <time>2017-03-15T09:35:19Z</time>
      </trkpt>
      <trkpt lat="45.9322" lon="4.72668">
        <ele>169</ele>
        <time>2017-03-15T09:35:20Z</time>
      </trkpt>
      <trkpt lat="45.93225" lon="4.72663">
        <ele>170</ele>
        <time>2017-03-15T09:35:21Z</time>
      </trkpt>
      <trkpt lat="45.9323" lon="4.72657">
        <ele>170</ele>
        <time>2017-03-15T09:35:22Z</time>
      </trkpt>
      <trkpt lat="45.93235" lon="4.72651">
        <ele>170</ele>
        <time>2017-03-15T09:35:23Z</time>
      </trkpt>
      <trkpt lat="45.9324" lon="4.72645">
        <ele>170</ele>
        <time>2017-03-15T09:35:24Z</time>
      </trkpt>
      <trkpt lat="45.93244" lon="4.7264">
        <ele>170</ele>
        <time>2017-03-15T09:35:25Z</time>
      </trkpt>
      <trkpt lat="45.93249" lon="4.72634">
        <ele>170</ele>
        <time>2017-03-15T09:35:26Z</time>
      </trkpt>
      <trkpt lat="45.93254" lon="4.72628">
        <ele>170</ele>
        <time>2017-03-15T09:35:27Z</time>
      </trkpt>
      <trkpt lat="45.93258" lon="4.72623">
        <ele>170</ele>
        <time>2017-03-15T09:35:28Z</time>
      </trkpt>
      <trkpt lat="45.93263" lon="4.72617">
        <ele>170</ele>
        <time>2017-03-15T09:35:29Z</time>
      </trkpt>
      <trkpt lat="45.93268" lon="4.72612">
        <ele>170</ele>
        <time>2017-03-15T09:35:30Z</time>
      </trkpt>
      <trkpt lat="45.93272" lon="4.72607">
        <ele>170</ele>
        <time>2017-03-15T09:35:31Z</time>
      </trkpt>
      <trkpt lat="45.93277" lon="4.72601">
        <ele>170</ele>
        <time>2017-03-15T09:35:32Z</time>
      </trkpt>
      <trkpt lat="45.93282" lon="4.72596">
        <ele>170</ele>
        <time>2017-03-15T09:35:33Z</time>
      </trkpt>
      <trkpt lat="45.93286" lon="4.72591">
        <ele>170</ele>
        <time>2017-03-15T09:35:34Z</time>
      </trkpt>
      <trkpt lat="45.93291" lon="4.72585">
        <ele>170</ele>
        <time>2017-03-15T09:35:35Z</time>
      </trkpt>
      <trkpt lat="45.93295" lon="4.7258">
        <ele>171</ele>
        <time>2017-03-15T09:35:36Z</time>
      </trkpt>
      <trkpt lat="45.933" lon="4.72574">
        <ele>171</ele>
        <time>2017-03-15T09:35:37Z</time>
      </trkpt>
      <trkpt lat="45.93305" lon="4.7257">
        <ele>171</ele>
        <time>2017-03-15T09:35:38Z</time>
      </trkpt>
      <trkpt lat="45.9331" lon="4.72564">
        <ele>171</ele>
        <time>2017-03-15T09:35:39Z</time>
      </trkpt>
      <trkpt lat="45.93315" lon="4.72558">
        <ele>171</ele>
        <time>2017-03-15T09:35:40Z</time>
      </trkpt>
      <trkpt lat="45.9332" lon="4.72552">
        <ele>172</ele>
        <time>2017-03-15T09:35:41Z</time>
      </trkpt>
      <trkpt lat="45.93325" lon="4.72547">
        <ele>172</ele>
        <time>2017-03-15T09:35:42Z</time>
      </trkpt>
      <trkpt lat="45.93329" lon="4.72541">
        <ele>172</ele>
        <time>2017-03-15T09:35:43Z</time>
      </trkpt>
      <trkpt lat="45.93334" lon="4.72535">
        <ele>172</ele>
        <time>2017-03-15T09:35:44Z</time>
      </trkpt>
      <trkpt lat="45.93338" lon="4.72529">
        <ele>172</ele>
        <time>2017-03-15T09:35:45Z</time>
      </trkpt>
      <trkpt lat="45.93343" lon="4.72523">
        <ele>172</ele>
        <time>2017-03-15T09:35:46Z</time>
      </trkpt>
      <trkpt lat="45.93348" lon="4.72517">
        <ele>172</ele>
        <time>2017-03-15T09:35:47Z</time>
      </trkpt>
      <trkpt lat="45.93353" lon="4.72512">
        <ele>172</ele>
        <time>2017-03-15T09:35:48Z</time>
      </trkpt>
      <trkpt lat="45.93357" lon="4.72506">
        <ele>172</ele>
        <time>2017-03-15T09:35:49Z</time>
      </trkpt>
      <trkpt lat="45.93362" lon="4.72501">
        <ele>172</ele>
        <time>2017-03-15T09:35:50Z</time>
      </trkpt>
      <trkpt lat="45.93367" lon="4.72496">
        <ele>173</ele>
        <time>2017-03-15T09:35:51Z</time>
      </trkpt>
      <trkpt lat="45.93371" lon="4.72491">
        <ele>173</ele>
        <time>2017-03-15T09:35:52Z</time>
      </trkpt>
      <trkpt lat="45.93376" lon="4.72486">
        <ele>173</ele>
        <time>2017-03-15T09:35:53Z</time>
      </trkpt>
      <trkpt lat="45.9338" lon="4.72481">
        <ele>173</ele>
        <time>2017-03-15T09:35:54Z</time>
      </trkpt>
      <trkpt lat="45.93385" lon="4.72476">
        <ele>173</ele>
        <time>2017-03-15T09:35:55Z</time>
      </trkpt>
      <trkpt lat="45.93389" lon="4.7247">
        <ele>173</ele>
        <time>2017-03-15T09:35:56Z</time>
      </trkpt>
      <trkpt lat="45.93393" lon="4.72464">
        <ele>173</ele>
        <time>2017-03-15T09:35:57Z</time>
      </trkpt>
      <trkpt lat="45.93397" lon="4.72455">
        <ele>173</ele>
        <time>2017-03-15T09:35:59Z</time>
      </trkpt>
      <trkpt lat="45.93399" lon="4.72453">
        <ele>173</ele>
        <time>2017-03-15T09:36:00Z</time>
      </trkpt>
      <trkpt lat="45.93402" lon="4.72442">
        <ele>173</ele>
        <time>2017-03-15T09:36:05Z</time>
      </trkpt>
      <trkpt lat="45.93403" lon="4.72439">
        <ele>173</ele>
        <time>2017-03-15T09:36:06Z</time>
      </trkpt>
      <trkpt lat="45.93408" lon="4.72428">
        <ele>174</ele>
        <time>2017-03-15T09:36:09Z</time>
      </trkpt>
      <trkpt lat="45.9341" lon="4.72424">
        <ele>174</ele>
        <time>2017-03-15T09:36:10Z</time>
      </trkpt>
      <trkpt lat="45.93417" lon="4.72418">
        <ele>174</ele>
        <time>2017-03-15T09:36:12Z</time>
      </trkpt>
      <trkpt lat="45.93421" lon="4.72416">
        <ele>174</ele>
        <time>2017-03-15T09:36:13Z</time>
      </trkpt>
      <trkpt lat="45.93425" lon="4.72413">
        <ele>174</ele>
        <time>2017-03-15T09:36:14Z</time>
      </trkpt>
      <trkpt lat="45.9343" lon="4.72411">
        <ele>174</ele>
        <time>2017-03-15T09:36:15Z</time>
      </trkpt>
      <trkpt lat="45.93435" lon="4.72408">
        <ele>174</ele>
        <time>2017-03-15T09:36:16Z</time>
      </trkpt>
      <trkpt lat="45.9344" lon="4.72405">
        <ele>173</ele>
        <time>2017-03-15T09:36:17Z</time>
      </trkpt>
      <trkpt lat="45.93445" lon="4.72402">
        <ele>173</ele>
        <time>2017-03-15T09:36:18Z</time>
      </trkpt>
      <trkpt lat="45.9345" lon="4.72398">
        <ele>173</ele>
        <time>2017-03-15T09:36:19Z</time>
      </trkpt>
      <trkpt lat="45.93455" lon="4.72394">
        <ele>173</ele>
        <time>2017-03-15T09:36:20Z</time>
      </trkpt>
      <trkpt lat="45.93459" lon="4.72389">
        <ele>173</ele>
        <time>2017-03-15T09:36:21Z</time>
      </trkpt>
      <trkpt lat="45.93464" lon="4.72384">
        <ele>173</ele>
        <time>2017-03-15T09:36:22Z</time>
      </trkpt>
      <trkpt lat="45.93468" lon="4.72378">
        <ele>173</ele>
        <time>2017-03-15T09:36:23Z</time>
      </trkpt>
      <trkpt lat="45.93472" lon="4.72372">
        <ele>173</ele>
        <time>2017-03-15T09:36:24Z</time>
      </trkpt>
      <trkpt lat="45.93476" lon="4.72366">
        <ele>173</ele>
        <time>2017-03-15T09:36:25Z</time>
      </trkpt>
      <trkpt lat="45.93481" lon="4.72361">
        <ele>173</ele>
        <time>2017-03-15T09:36:26Z</time>
      </trkpt>
      <trkpt lat="45.93485" lon="4.72356">
        <ele>173</ele>
        <time>2017-03-15T09:36:27Z</time>
      </trkpt>
      <trkpt lat="45.9349" lon="4.72351">
        <ele>173</ele>
        <time>2017-03-15T09:36:28Z</time>
      </trkpt>
      <trkpt lat="45.93493" lon="4.72345">
        <ele>173</ele>
        <time>2017-03-15T09:36:29Z</time>
      </trkpt>
      <trkpt lat="45.93497" lon="4.72339">
        <ele>173</ele>
        <time>2017-03-15T09:36:30Z</time>
      </trkpt>
      <trkpt lat="45.93501" lon="4.72333">
        <ele>173</ele>
        <time>2017-03-15T09:36:31Z</time>
      </trkpt>
      <trkpt lat="45.93505" lon="4.72327">
        <ele>173</ele>
        <time>2017-03-15T09:36:32Z</time>
      </trkpt>
      <trkpt lat="45.93509" lon="4.72321">
        <ele>173</ele>
        <time>2017-03-15T09:36:33Z</time>
      </trkpt>
      <trkpt lat="45.93513" lon="4.72315">
        <ele>173</ele>
        <time>2017-03-15T09:36:34Z</time>
      </trkpt>
      <trkpt lat="45.93517" lon="4.72308">
        <ele>173</ele>
        <time>2017-03-15T09:36:35Z</time>
      </trkpt>
      <trkpt lat="45.9352" lon="4.72302">
        <ele>172</ele>
        <time>2017-03-15T09:36:36Z</time>
      </trkpt>
      <trkpt lat="45.93523" lon="4.72295">
        <ele>172</ele>
        <time>2017-03-15T09:36:37Z</time>
      </trkpt>
      <trkpt lat="45.93526" lon="4.72289">
        <ele>172</ele>
        <time>2017-03-15T09:36:38Z</time>
      </trkpt>
      <trkpt lat="45.93529" lon="4.72282">
        <ele>172</ele>
        <time>2017-03-15T09:36:39Z</time>
      </trkpt>
      <trkpt lat="45.93531" lon="4.72275">
        <ele>172</ele>
        <time>2017-03-15T09:36:40Z</time>
      </trkpt>
      <trkpt lat="45.93534" lon="4.72269">
        <ele>172</ele>
        <time>2017-03-15T09:36:41Z</time>
      </trkpt>
      <trkpt lat="45.93537" lon="4.72262">
        <ele>172</ele>
        <time>2017-03-15T09:36:42Z</time>
      </trkpt>
      <trkpt lat="45.9354" lon="4.72255">
        <ele>172</ele>
        <time>2017-03-15T09:36:43Z</time>
      </trkpt>
      <trkpt lat="45.93543" lon="4.72249">
        <ele>172</ele>
        <time>2017-03-15T09:36:44Z</time>
      </trkpt>
      <trkpt lat="45.93546" lon="4.72242">
        <ele>172</ele>
        <time>2017-03-15T09:36:45Z</time>
      </trkpt>
      <trkpt lat="45.93549" lon="4.72235">
        <ele>172</ele>
        <time>2017-03-15T09:36:46Z</time>
      </trkpt>
      <trkpt lat="45.93552" lon="4.72229">
        <ele>172</ele>
        <time>2017-03-15T09:36:47Z</time>
      </trkpt>
      <trkpt lat="45.93559" lon="4.72223">
        <ele>173</ele>
        <time>2017-03-15T09:36:49Z</time>
      </trkpt>
      <trkpt lat="45.93563" lon="4.72223">
        <ele>173</ele>
        <time>2017-03-15T09:36:50Z</time>
      </trkpt>
      <trkpt lat="45.93572" lon="4.72226">
        <ele>173</ele>
        <time>2017-03-15T09:36:52Z</time>
      </trkpt>
      <trkpt lat="45.93575" lon="4.72228">
        <ele>173</ele>
        <time>2017-03-15T09:36:53Z</time>
      </trkpt>
      <trkpt lat="45.93579" lon="4.72232">
        <ele>173</ele>
        <time>2017-03-15T09:36:54Z</time>
      </trkpt>
      <trkpt lat="45.93583" lon="4.72236">
        <ele>173</ele>
        <time>2017-03-15T09:36:55Z</time>
      </trkpt>
      <trkpt lat="45.93586" lon="4.72241">
        <ele>173</ele>
        <time>2017-03-15T09:36:56Z</time>
      </trkpt>
      <trkpt lat="45.93591" lon="4.72245">
        <ele>173</ele>
        <time>2017-03-15T09:36:57Z</time>
      </trkpt>
      <trkpt lat="45.93595" lon="4.7225">
        <ele>173</ele>
        <time>2017-03-15T09:36:58Z</time>
      </trkpt>
      <trkpt lat="45.93599" lon="4.72254">
        <ele>173</ele>
        <time>2017-03-15T09:36:59Z</time>
      </trkpt>
      <trkpt lat="45.93603" lon="4.72258">
        <ele>173</ele>
        <time>2017-03-15T09:37:00Z</time>
      </trkpt>
      <trkpt lat="45.93608" lon="4.72263">
        <ele>173</ele>
        <time>2017-03-15T09:37:01Z</time>
      </trkpt>
      <trkpt lat="45.93613" lon="4.72267">
        <ele>172</ele>
        <time>2017-03-15T09:37:02Z</time>
      </trkpt>
      <trkpt lat="45.93617" lon="4.72271">
        <ele>172</ele>
        <time>2017-03-15T09:37:03Z</time>
      </trkpt>
      <trkpt lat="45.93621" lon="4.72275">
        <ele>172</ele>
        <time>2017-03-15T09:37:04Z</time>
      </trkpt>
      <trkpt lat="45.93626" lon="4.72279">
        <ele>172</ele>
        <time>2017-03-15T09:37:05Z</time>
      </trkpt>
      <trkpt lat="45.9363" lon="4.72283">
        <ele>172</ele>
        <time>2017-03-15T09:37:06Z</time>
      </trkpt>
      <trkpt lat="45.93634" lon="4.72287">
        <ele>172</ele>
        <time>2017-03-15T09:37:07Z</time>
      </trkpt>
      <trkpt lat="45.93639" lon="4.72291">
        <ele>172</ele>
        <time>2017-03-15T09:37:08Z</time>
      </trkpt>
      <trkpt lat="45.93643" lon="4.72296">
        <ele>172</ele>
        <time>2017-03-15T09:37:09Z</time>
      </trkpt>
      <trkpt lat="45.93648" lon="4.723">
        <ele>172</ele>
        <time>2017-03-15T09:37:10Z</time>
      </trkpt>
      <trkpt lat="45.93654" lon="4.72304">
        <ele>172</ele>
        <time>2017-03-15T09:37:11Z</time>
      </trkpt>
      <trkpt lat="45.93659" lon="4.72308">
        <ele>172</ele>
        <time>2017-03-15T09:37:12Z</time>
      </trkpt>
      <trkpt lat="45.93664" lon="4.72312">
        <ele>172</ele>
        <time>2017-03-15T09:37:13Z</time>
      </trkpt>
      <trkpt lat="45.93668" lon="4.72316">
        <ele>171</ele>
        <time>2017-03-15T09:37:14Z</time>
      </trkpt>
      <trkpt lat="45.93673" lon="4.72319">
        <ele>171</ele>
        <time>2017-03-15T09:37:15Z</time>
      </trkpt>
      <trkpt lat="45.93677" lon="4.72323">
        <ele>171</ele>
        <time>2017-03-15T09:37:16Z</time>
      </trkpt>
      <trkpt lat="45.93681" lon="4.72326">
        <ele>171</ele>
        <time>2017-03-15T09:37:17Z</time>
      </trkpt>
      <trkpt lat="45.93684" lon="4.72331">
        <ele>171</ele>
        <time>2017-03-15T09:37:18Z</time>
      </trkpt>
      <trkpt lat="45.93688" lon="4.72335">
        <ele>171</ele>
        <time>2017-03-15T09:37:19Z</time>
      </trkpt>
      <trkpt lat="45.93691" lon="4.7234">
        <ele>171</ele>
        <time>2017-03-15T09:37:20Z</time>
      </trkpt>
      <trkpt lat="45.93694" lon="4.72344">
        <ele>171</ele>
        <time>2017-03-15T09:37:21Z</time>
      </trkpt>
      <trkpt lat="45.93698" lon="4.72347">
        <ele>171</ele>
        <time>2017-03-15T09:37:22Z</time>
      </trkpt>
      <trkpt lat="45.93703" lon="4.7235">
        <ele>171</ele>
        <time>2017-03-15T09:37:23Z</time>
      </trkpt>
      <trkpt lat="45.93711" lon="4.72355">
        <ele>172</ele>
        <time>2017-03-15T09:37:25Z</time>
      </trkpt>
      <trkpt lat="45.93715" lon="4.72356">
        <ele>172</ele>
        <time>2017-03-15T09:37:26Z</time>
      </trkpt>
      <trkpt lat="45.93722" lon="4.72354">
        <ele>172</ele>
        <time>2017-03-15T09:37:28Z</time>
      </trkpt>
      <trkpt lat="45.93725" lon="4.72349">
        <ele>172</ele>
        <time>2017-03-15T09:37:29Z</time>
      </trkpt>
      <trkpt lat="45.93727" lon="4.72344">
        <ele>172</ele>
        <time>2017-03-15T09:37:30Z</time>
      </trkpt>
      <trkpt lat="45.9373" lon="4.72338">
        <ele>172</ele>
        <time>2017-03-15T09:37:31Z</time>
      </trkpt>
      <trkpt lat="45.93733" lon="4.72332">
        <ele>172</ele>
        <time>2017-03-15T09:37:32Z</time>
      </trkpt>
      <trkpt lat="45.93737" lon="4.72326">
        <ele>172</ele>
        <time>2017-03-15T09:37:33Z</time>
      </trkpt>
      <trkpt lat="45.9374" lon="4.7232">
        <ele>172</ele>
        <time>2017-03-15T09:37:34Z</time>
      </trkpt>
      <trkpt lat="45.93744" lon="4.72313">
        <ele>172</ele>
        <time>2017-03-15T09:37:35Z</time>
      </trkpt>
      <trkpt lat="45.93747" lon="4.72307">
        <ele>172</ele>
        <time>2017-03-15T09:37:36Z</time>
      </trkpt>
      <trkpt lat="45.93751" lon="4.72301">
        <ele>172</ele>
        <time>2017-03-15T09:37:37Z</time>
      </trkpt>
      <trkpt lat="45.93755" lon="4.72295">
        <ele>172</ele>
        <time>2017-03-15T09:37:38Z</time>
      </trkpt>
      <trkpt lat="45.93758" lon="4.72289">
        <ele>172</ele>
        <time>2017-03-15T09:37:39Z</time>
      </trkpt>
      <trkpt lat="45.93762" lon="4.72282">
        <ele>172</ele>
        <time>2017-03-15T09:37:40Z</time>
      </trkpt>
      <trkpt lat="45.93765" lon="4.72276">
        <ele>172</ele>
        <time>2017-03-15T09:37:41Z</time>
      </trkpt>
      <trkpt lat="45.93769" lon="4.7227">
        <ele>172</ele>
        <time>2017-03-15T09:37:42Z</time>
      </trkpt>
      <trkpt lat="45.93773" lon="4.72265">
        <ele>172</ele>
        <time>2017-03-15T09:37:43Z</time>
      </trkpt>
      <trkpt lat="45.93777" lon="4.72259">
        <ele>172</ele>
        <time>2017-03-15T09:37:44Z</time>
      </trkpt>
      <trkpt lat="45.9378" lon="4.72253">
        <ele>172</ele>
        <time>2017-03-15T09:37:45Z</time>
      </trkpt>
      <trkpt lat="45.93784" lon="4.72247">
        <ele>172</ele>
        <time>2017-03-15T09:37:46Z</time>
      </trkpt>
      <trkpt lat="45.93788" lon="4.72241">
        <ele>172</ele>
        <time>2017-03-15T09:37:47Z</time>
      </trkpt>
      <trkpt lat="45.93791" lon="4.72235">
        <ele>172</ele>
        <time>2017-03-15T09:37:48Z</time>
      </trkpt>
      <trkpt lat="45.93795" lon="4.72229">
        <ele>172</ele>
        <time>2017-03-15T09:37:49Z</time>
      </trkpt>
      <trkpt lat="45.93798" lon="4.72223">
        <ele>172</ele>
        <time>2017-03-15T09:37:50Z</time>
      </trkpt>
      <trkpt lat="45.93802" lon="4.72217">
        <ele>172</ele>
        <time>2017-03-15T09:37:51Z</time>
      </trkpt>
      <trkpt lat="45.93805" lon="4.72211">
        <ele>172</ele>
        <time>2017-03-15T09:37:52Z</time>
      </trkpt>
      <trkpt lat="45.93808" lon="4.72205">
        <ele>172</ele>
        <time>2017-03-15T09:37:53Z</time>
      </trkpt>
      <trkpt lat="45.93811" lon="4.72197">
        <ele>172</ele>
        <time>2017-03-15T09:37:54Z</time>
      </trkpt>
      <trkpt lat="45.93813" lon="4.72189">
        <ele>172</ele>
        <time>2017-03-15T09:37:55Z</time>
      </trkpt>
      <trkpt lat="45.93816" lon="4.72181">
        <ele>172</ele>
        <time>2017-03-15T09:37:56Z</time>
      </trkpt>
      <trkpt lat="45.93821" lon="4.72175">
        <ele>172</ele>
        <time>2017-03-15T09:37:57Z</time>
      </trkpt>
      <trkpt lat="45.93825" lon="4.72171">
        <ele>171</ele>
        <time>2017-03-15T09:37:58Z</time>
      </trkpt>
      <trkpt lat="45.93829" lon="4.72167">
        <ele>171</ele>
        <time>2017-03-15T09:37:59Z</time>
      </trkpt>
      <trkpt lat="45.93833" lon="4.72158">
        <ele>172</ele>
        <time>2017-03-15T09:38:01Z</time>
      </trkpt>
      <trkpt lat="45.93835" lon="4.72155">
        <ele>171</ele>
        <time>2017-03-15T09:38:02Z</time>
      </trkpt>
      <trkpt lat="45.93841" lon="4.72149">
        <ele>171</ele>
        <time>2017-03-15T09:38:06Z</time>
      </trkpt>
      <trkpt lat="45.93842" lon="4.72146">
        <ele>171</ele>
        <time>2017-03-15T09:38:07Z</time>
      </trkpt>
      <trkpt lat="45.93846" lon="4.7214">
        <ele>172</ele>
        <time>2017-03-15T09:38:09Z</time>
      </trkpt>
      <trkpt lat="45.93848" lon="4.72135">
        <ele>172</ele>
        <time>2017-03-15T09:38:10Z</time>
      </trkpt>
      <trkpt lat="45.93853" lon="4.72125">
        <ele>172</ele>
        <time>2017-03-15T09:38:12Z</time>
      </trkpt>
      <trkpt lat="45.93856" lon="4.7212">
        <ele>172</ele>
        <time>2017-03-15T09:38:13Z</time>
      </trkpt>
      <trkpt lat="45.93859" lon="4.72115">
        <ele>172</ele>
        <time>2017-03-15T09:38:14Z</time>
      </trkpt>
      <trkpt lat="45.93863" lon="4.7211">
        <ele>172</ele>
        <time>2017-03-15T09:38:15Z</time>
      </trkpt>
      <trkpt lat="45.93866" lon="4.72105">
        <ele>172</ele>
        <time>2017-03-15T09:38:16Z</time>
      </trkpt>
      <trkpt lat="45.9387" lon="4.721">
        <ele>172</ele>
        <time>2017-03-15T09:38:17Z</time>
      </trkpt>
      <trkpt lat="45.93873" lon="4.72096">
        <ele>172</ele>
        <time>2017-03-15T09:38:18Z</time>
      </trkpt>
      <trkpt lat="45.93877" lon="4.72092">
        <ele>172</ele>
        <time>2017-03-15T09:38:19Z</time>
      </trkpt>
      <trkpt lat="45.93883" lon="4.72083">
        <ele>172</ele>
        <time>2017-03-15T09:38:21Z</time>
      </trkpt>
      <trkpt lat="45.93887" lon="4.72079">
        <ele>172</ele>
        <time>2017-03-15T09:38:22Z</time>
      </trkpt>
      <trkpt lat="45.93891" lon="4.72075">
        <ele>172</ele>
        <time>2017-03-15T09:38:23Z</time>
      </trkpt>
      <trkpt lat="45.93895" lon="4.72071">
        <ele>172</ele>
        <time>2017-03-15T09:38:24Z</time>
      </trkpt>
      <trkpt lat="45.93902" lon="4.72063">
        <ele>172</ele>
        <time>2017-03-15T09:38:26Z</time>
      </trkpt>
      <trkpt lat="45.93906" lon="4.7206">
        <ele>172</ele>
        <time>2017-03-15T09:38:27Z</time>
      </trkpt>
      <trkpt lat="45.9391" lon="4.72056">
        <ele>172</ele>
        <time>2017-03-15T09:38:28Z</time>
      </trkpt>
      <trkpt lat="45.93915" lon="4.72051">
        <ele>172</ele>
        <time>2017-03-15T09:38:29Z</time>
      </trkpt>
      <trkpt lat="45.93919" lon="4.72047">
        <ele>172</ele>
        <time>2017-03-15T09:38:30Z</time>
      </trkpt>
      <trkpt lat="45.93924" lon="4.72043">
        <ele>172</ele>
        <time>2017-03-15T09:38:31Z</time>
      </trkpt>
      <trkpt lat="45.93929" lon="4.72038">
        <ele>172</ele>
        <time>2017-03-15T09:38:32Z</time>
      </trkpt>
      <trkpt lat="45.93933" lon="4.72032">
        <ele>172</ele>
        <time>2017-03-15T09:38:33Z</time>
      </trkpt>
      <trkpt lat="45.93936" lon="4.72027">
        <ele>172</ele>
        <time>2017-03-15T09:38:34Z</time>
      </trkpt>
      <trkpt lat="45.9394" lon="4.72022">
        <ele>172</ele>
        <time>2017-03-15T09:38:35Z</time>
      </trkpt>
      <trkpt lat="45.93945" lon="4.72017">
        <ele>172</ele>
        <time>2017-03-15T09:38:36Z</time>
      </trkpt>
      <trkpt lat="45.93949" lon="4.72013">
        <ele>172</ele>
        <time>2017-03-15T09:38:37Z</time>
      </trkpt>
      <trkpt lat="45.93954" lon="4.7201">
        <ele>172</ele>
        <time>2017-03-15T09:38:38Z</time>
      </trkpt>
      <trkpt lat="45.93959" lon="4.72006">
        <ele>172</ele>
        <time>2017-03-15T09:38:39Z</time>
      </trkpt>
      <trkpt lat="45.93964" lon="4.72002">
        <ele>172</ele>
        <time>2017-03-15T09:38:40Z</time>
      </trkpt>
      <trkpt lat="45.93968" lon="4.71998">
        <ele>173</ele>
        <time>2017-03-15T09:38:41Z</time>
      </trkpt>
      <trkpt lat="45.93972" lon="4.71993">
        <ele>173</ele>
        <time>2017-03-15T09:38:42Z</time>
      </trkpt>
      <trkpt lat="45.93976" lon="4.71988">
        <ele>173</ele>
        <time>2017-03-15T09:38:43Z</time>
      </trkpt>
      <trkpt lat="45.9398" lon="4.71982">
        <ele>173</ele>
        <time>2017-03-15T09:38:44Z</time>
      </trkpt>
      <trkpt lat="45.93984" lon="4.71978">
        <ele>173</ele>
        <time>2017-03-15T09:38:45Z</time>
      </trkpt>
      <trkpt lat="45.93989" lon="4.71976">
        <ele>173</ele>
        <time>2017-03-15T09:38:46Z</time>
      </trkpt>
      <trkpt lat="45.93993" lon="4.71975">
        <ele>173</ele>
        <time>2017-03-15T09:38:47Z</time>
      </trkpt>
      <trkpt lat="45.93998" lon="4.71976">
        <ele>173</ele>
        <time>2017-03-15T09:38:48Z</time>
      </trkpt>
      <trkpt lat="45.94002" lon="4.71978">
        <ele>174</ele>
        <time>2017-03-15T09:38:49Z</time>
      </trkpt>
      <trkpt lat="45.94009" lon="4.71986">
        <ele>174</ele>
        <time>2017-03-15T09:38:51Z</time>
      </trkpt>
      <trkpt lat="45.94012" lon="4.7199">
        <ele>174</ele>
        <time>2017-03-15T09:38:52Z</time>
      </trkpt>
      <trkpt lat="45.94015" lon="4.71996">
        <ele>174</ele>
        <time>2017-03-15T09:38:53Z</time>
      </trkpt>
      <trkpt lat="45.94019" lon="4.72001">
        <ele>173</ele>
        <time>2017-03-15T09:38:54Z</time>
      </trkpt>
      <trkpt lat="45.94022" lon="4.72006">
        <ele>173</ele>
        <time>2017-03-15T09:38:55Z</time>
      </trkpt>
      <trkpt lat="45.94026" lon="4.72011">
        <ele>173</ele>
        <time>2017-03-15T09:38:56Z</time>
      </trkpt>
      <trkpt lat="45.94029" lon="4.72016">
        <ele>173</ele>
        <time>2017-03-15T09:38:57Z</time>
      </trkpt>
      <trkpt lat="45.94033" lon="4.7202">
        <ele>173</ele>
        <time>2017-03-15T09:38:58Z</time>
      </trkpt>
      <trkpt lat="45.9404" lon="4.72028">
        <ele>173</ele>
        <time>2017-03-15T09:39:00Z</time>
      </trkpt>
      <trkpt lat="45.94043" lon="4.72031">
        <ele>173</ele>
        <time>2017-03-15T09:39:01Z</time>
      </trkpt>
      <trkpt lat="45.94051" lon="4.72033">
        <ele>173</ele>
        <time>2017-03-15T09:39:03Z</time>
      </trkpt>
      <trkpt lat="45.94054" lon="4.72032">
        <ele>173</ele>
        <time>2017-03-15T09:39:04Z</time>
      </trkpt>
      <trkpt lat="45.94059" lon="4.72029">
        <ele>174</ele>
        <time>2017-03-15T09:39:05Z</time>
      </trkpt>
      <trkpt lat="45.94063" lon="4.72025">
        <ele>174</ele>
        <time>2017-03-15T09:39:06Z</time>
      </trkpt>
      <trkpt lat="45.94067" lon="4.7202">
        <ele>174</ele>
        <time>2017-03-15T09:39:07Z</time>
      </trkpt>
      <trkpt lat="45.94071" lon="4.72015">
        <ele>174</ele>
        <time>2017-03-15T09:39:08Z</time>
      </trkpt>
      <trkpt lat="45.94076" lon="4.7201">
        <ele>174</ele>
        <time>2017-03-15T09:39:09Z</time>
      </trkpt>
      <trkpt lat="45.9408" lon="4.72006">
        <ele>175</ele>
        <time>2017-03-15T09:39:10Z</time>
      </trkpt>
      <trkpt lat="45.94084" lon="4.72001">
        <ele>175</ele>
        <time>2017-03-15T09:39:11Z</time>
      </trkpt>
      <trkpt lat="45.94089" lon="4.71997">
        <ele>175</ele>
        <time>2017-03-15T09:39:12Z</time>
      </trkpt>
      <trkpt lat="45.94093" lon="4.71992">
        <ele>175</ele>
        <time>2017-03-15T09:39:13Z</time>
      </trkpt>
      <trkpt lat="45.94097" lon="4.71987">
        <ele>174</ele>
        <time>2017-03-15T09:39:14Z</time>
      </trkpt>
      <trkpt lat="45.94101" lon="4.71982">
        <ele>174</ele>
        <time>2017-03-15T09:39:15Z</time>
      </trkpt>
      <trkpt lat="45.94105" lon="4.71977">
        <ele>174</ele>
        <time>2017-03-15T09:39:16Z</time>
      </trkpt>
      <trkpt lat="45.9411" lon="4.71973">
        <ele>174</ele>
        <time>2017-03-15T09:39:17Z</time>
      </trkpt>
      <trkpt lat="45.94114" lon="4.7197">
        <ele>174</ele>
        <time>2017-03-15T09:39:18Z</time>
      </trkpt>
      <trkpt lat="45.94118" lon="4.71967">
        <ele>174</ele>
        <time>2017-03-15T09:39:19Z</time>
      </trkpt>
      <trkpt lat="45.94122" lon="4.71965">
        <ele>174</ele>
        <time>2017-03-15T09:39:20Z</time>
      </trkpt>
      <trkpt lat="45.94127" lon="4.71964">
        <ele>174</ele>
        <time>2017-03-15T09:39:21Z</time>
      </trkpt>
      <trkpt lat="45.94132" lon="4.71965">
        <ele>174</ele>
        <time>2017-03-15T09:39:22Z</time>
      </trkpt>
      <trkpt lat="45.94137" lon="4.71967">
        <ele>174</ele>
        <time>2017-03-15T09:39:23Z</time>
      </trkpt>
      <trkpt lat="45.94141" lon="4.7197">
        <ele>174</ele>
        <time>2017-03-15T09:39:24Z</time>
      </trkpt>
      <trkpt lat="45.94147" lon="4.71979">
        <ele>173</ele>
        <time>2017-03-15T09:39:26Z</time>
      </trkpt>
      <trkpt lat="45.9415" lon="4.71984">
        <ele>173</ele>
        <time>2017-03-15T09:39:27Z</time>
      </trkpt>
      <trkpt lat="45.94154" lon="4.71994">
        <ele>173</ele>
        <time>2017-03-15T09:39:29Z</time>
      </trkpt>
      <trkpt lat="45.94156" lon="4.71999">
        <ele>173</ele>
        <time>2017-03-15T09:39:30Z</time>
      </trkpt>
      <trkpt lat="45.9416" lon="4.72009">
        <ele>173</ele>
        <time>2017-03-15T09:39:32Z</time>
      </trkpt>
      <trkpt lat="45.94163" lon="4.72013">
        <ele>173</ele>
        <time>2017-03-15T09:39:33Z</time>
      </trkpt>
      <trkpt lat="45.94167" lon="4.72022">
        <ele>173</ele>
        <time>2017-03-15T09:39:35Z</time>
      </trkpt>
      <trkpt lat="45.94169" lon="4.72027">
        <ele>173</ele>
        <time>2017-03-15T09:39:36Z</time>
      </trkpt>
      <trkpt lat="45.94173" lon="4.72036">
        <ele>173</ele>
        <time>2017-03-15T09:39:38Z</time>
      </trkpt>
      <trkpt lat="45.94175" lon="4.7204">
        <ele>173</ele>
        <time>2017-03-15T09:39:39Z</time>
      </trkpt>
      <trkpt lat="45.94179" lon="4.72049">
        <ele>173</ele>
        <time>2017-03-15T09:39:41Z</time>
      </trkpt>
      <trkpt lat="45.94181" lon="4.72054">
        <ele>173</ele>
        <time>2017-03-15T09:39:42Z</time>
      </trkpt>
      <trkpt lat="45.94185" lon="4.72064">
        <ele>173</ele>
        <time>2017-03-15T09:39:44Z</time>
      </trkpt>
      <trkpt lat="45.94188" lon="4.72069">
        <ele>173</ele>
        <time>2017-03-15T09:39:45Z</time>
      </trkpt>
      <trkpt lat="45.94192" lon="4.72078">
        <ele>173</ele>
        <time>2017-03-15T09:39:47Z</time>
      </trkpt>
      <trkpt lat="45.94194" lon="4.72084">
        <ele>172</ele>
        <time>2017-03-15T09:39:48Z</time>
      </trkpt>
      <trkpt lat="45.94197" lon="4.72089">
        <ele>172</ele>
        <time>2017-03-15T09:39:49Z</time>
      </trkpt>
      <trkpt lat="45.942" lon="4.72096">
        <ele>173</ele>
        <time>2017-03-15T09:39:50Z</time>
      </trkpt>
      <trkpt lat="45.94203" lon="4.72102">
        <ele>173</ele>
        <time>2017-03-15T09:39:51Z</time>
      </trkpt>
      <trkpt lat="45.94206" lon="4.72108">
        <ele>173</ele>
        <time>2017-03-15T09:39:52Z</time>
      </trkpt>
      <trkpt lat="45.94209" lon="4.72115">
        <ele>173</ele>
        <time>2017-03-15T09:39:53Z</time>
      </trkpt>
      <trkpt lat="45.94212" lon="4.72123">
        <ele>173</ele>
        <time>2017-03-15T09:39:54Z</time>
      </trkpt>
      <trkpt lat="45.94216" lon="4.72131">
        <ele>173</ele>
        <time>2017-03-15T09:39:55Z</time>
      </trkpt>
      <trkpt lat="45.9422" lon="4.7214">
        <ele>173</ele>
        <time>2017-03-15T09:39:56Z</time>
      </trkpt>
      <trkpt lat="45.94223" lon="4.72149">
        <ele>173</ele>
        <time>2017-03-15T09:39:57Z</time>
      </trkpt>
      <trkpt lat="45.94227" lon="4.72158">
        <ele>173</ele>
        <time>2017-03-15T09:39:58Z</time>
      </trkpt>
      <trkpt lat="45.94232" lon="4.72168">
        <ele>172</ele>
        <time>2017-03-15T09:39:59Z</time>
      </trkpt>
      <trkpt lat="45.94236" lon="4.72177">
        <ele>172</ele>
        <time>2017-03-15T09:40:00Z</time>
      </trkpt>
      <trkpt lat="45.9424" lon="4.72187">
        <ele>172</ele>
        <time>2017-03-15T09:40:01Z</time>
      </trkpt>
      <trkpt lat="45.94245" lon="4.72197">
        <ele>172</ele>
        <time>2017-03-15T09:40:02Z</time>
      </trkpt>
      <trkpt lat="45.94249" lon="4.72206">
        <ele>172</ele>
        <time>2017-03-15T09:40:03Z</time>
      </trkpt>
      <trkpt lat="45.94253" lon="4.72216">
        <ele>172</ele>
        <time>2017-03-15T09:40:04Z</time>
      </trkpt>
      <trkpt lat="45.94257" lon="4.72225">
        <ele>172</ele>
        <time>2017-03-15T09:40:05Z</time>
      </trkpt>
      <trkpt lat="45.94261" lon="4.72234">
        <ele>171</ele>
        <time>2017-03-15T09:40:06Z</time>
      </trkpt>
      <trkpt lat="45.94266" lon="4.72243">
        <ele>171</ele>
        <time>2017-03-15T09:40:07Z</time>
      </trkpt>
      <trkpt lat="45.94269" lon="4.72251">
        <ele>171</ele>
        <time>2017-03-15T09:40:08Z</time>
      </trkpt>
      <trkpt lat="45.94273" lon="4.7226">
        <ele>171</ele>
        <time>2017-03-15T09:40:09Z</time>
      </trkpt>
      <trkpt lat="45.94277" lon="4.72268">
        <ele>171</ele>
        <time>2017-03-15T09:40:10Z</time>
      </trkpt>
      <trkpt lat="45.9428" lon="4.72275">
        <ele>171</ele>
        <time>2017-03-15T09:40:11Z</time>
      </trkpt>
      <trkpt lat="45.94283" lon="4.72283">
        <ele>171</ele>
        <time>2017-03-15T09:40:12Z</time>
      </trkpt>
      <trkpt lat="45.94287" lon="4.7229">
        <ele>171</ele>
        <time>2017-03-15T09:40:13Z</time>
      </trkpt>
      <trkpt lat="45.9429" lon="4.72297">
        <ele>171</ele>
        <time>2017-03-15T09:40:14Z</time>
      </trkpt>
      <trkpt lat="45.94293" lon="4.72305">
        <ele>171</ele>
        <time>2017-03-15T09:40:15Z</time>
      </trkpt>
      <trkpt lat="45.94296" lon="4.72312">
        <ele>171</ele>
        <time>2017-03-15T09:40:16Z</time>
      </trkpt>
      <trkpt lat="45.943" lon="4.7232">
        <ele>171</ele>
        <time>2017-03-15T09:40:17Z</time>
      </trkpt>
      <trkpt lat="45.94304" lon="4.72327">
        <ele>171</ele>
        <time>2017-03-15T09:40:18Z</time>
      </trkpt>
      <trkpt lat="45.94307" lon="4.72335">
        <ele>172</ele>
        <time>2017-03-15T09:40:19Z</time>
      </trkpt>
      <trkpt lat="45.9431" lon="4.72342">
        <ele>172</ele>
        <time>2017-03-15T09:40:20Z</time>
      </trkpt>
      <trkpt lat="45.94312" lon="4.72349">
        <ele>172</ele>
        <time>2017-03-15T09:40:21Z</time>
      </trkpt>
      <trkpt lat="45.94314" lon="4.72356">
        <ele>172</ele>
        <time>2017-03-15T09:40:22Z</time>
      </trkpt>
      <trkpt lat="45.94317" lon="4.72363">
        <ele>172</ele>
        <time>2017-03-15T09:40:23Z</time>
      </trkpt>
      <trkpt lat="45.9432" lon="4.7237">
        <ele>172</ele>
        <time>2017-03-15T09:40:24Z</time>
      </trkpt>
      <trkpt lat="45.94324" lon="4.72376">
        <ele>172</ele>
        <time>2017-03-15T09:40:25Z</time>
      </trkpt>
      <trkpt lat="45.94327" lon="4.72383">
        <ele>172</ele>
        <time>2017-03-15T09:40:26Z</time>
      </trkpt>
      <trkpt lat="45.9433" lon="4.7239">
        <ele>172</ele>
        <time>2017-03-15T09:40:27Z</time>
      </trkpt>
      <trkpt lat="45.94332" lon="4.72397">
        <ele>172</ele>
        <time>2017-03-15T09:40:28Z</time>
      </trkpt>
      <trkpt lat="45.94335" lon="4.72403">
        <ele>173</ele>
        <time>2017-03-15T09:40:29Z</time>
      </trkpt>
      <trkpt lat="45.94338" lon="4.7241">
        <ele>173</ele>
        <time>2017-03-15T09:40:30Z</time>
      </trkpt>
      <trkpt lat="45.94341" lon="4.72416">
        <ele>173</ele>
        <time>2017-03-15T09:40:31Z</time>
      </trkpt>
      <trkpt lat="45.94344" lon="4.72423">
        <ele>173</ele>
        <time>2017-03-15T09:40:32Z</time>
      </trkpt>
      <trkpt lat="45.94347" lon="4.72429">
        <ele>173</ele>
        <time>2017-03-15T09:40:33Z</time>
      </trkpt>
      <trkpt lat="45.9435" lon="4.72436">
        <ele>173</ele>
        <time>2017-03-15T09:40:34Z</time>
      </trkpt>
      <trkpt lat="45.94352" lon="4.72442">
        <ele>173</ele>
        <time>2017-03-15T09:40:35Z</time>
      </trkpt>
      <trkpt lat="45.94356" lon="4.72448">
        <ele>173</ele>
        <time>2017-03-15T09:40:36Z</time>
      </trkpt>
      <trkpt lat="45.94359" lon="4.72455">
        <ele>173</ele>
        <time>2017-03-15T09:40:37Z</time>
      </trkpt>
      <trkpt lat="45.94361" lon="4.72462">
        <ele>173</ele>
        <time>2017-03-15T09:40:38Z</time>
      </trkpt>
      <trkpt lat="45.94364" lon="4.72469">
        <ele>173</ele>
        <time>2017-03-15T09:40:39Z</time>
      </trkpt>
      <trkpt lat="45.94367" lon="4.72476">
        <ele>173</ele>
        <time>2017-03-15T09:40:40Z</time>
      </trkpt>
      <trkpt lat="45.94369" lon="4.72483">
        <ele>173</ele>
        <time>2017-03-15T09:40:41Z</time>
      </trkpt>
      <trkpt lat="45.94372" lon="4.7249">
        <ele>173</ele>
        <time>2017-03-15T09:40:42Z</time>
      </trkpt>
      <trkpt lat="45.94375" lon="4.72497">
        <ele>173</ele>
        <time>2017-03-15T09:40:43Z</time>
      </trkpt>
      <trkpt lat="45.94377" lon="4.72504">
        <ele>174</ele>
        <time>2017-03-15T09:40:44Z</time>
      </trkpt>
      <trkpt lat="45.94379" lon="4.72512">
        <ele>174</ele>
        <time>2017-03-15T09:40:45Z</time>
      </trkpt>
      <trkpt lat="45.94381" lon="4.7252">
        <ele>174</ele>
        <time>2017-03-15T09:40:46Z</time>
      </trkpt>
      <trkpt lat="45.94383" lon="4.72528">
        <ele>174</ele>
        <time>2017-03-15T09:40:47Z</time>
      </trkpt>
      <trkpt lat="45.94384" lon="4.72536">
        <ele>174</ele>
        <time>2017-03-15T09:40:48Z</time>
      </trkpt>
      <trkpt lat="45.94387" lon="4.72544">
        <ele>173</ele>
        <time>2017-03-15T09:40:49Z</time>
      </trkpt>
      <trkpt lat="45.94389" lon="4.7255">
        <ele>173</ele>
        <time>2017-03-15T09:40:50Z</time>
      </trkpt>
      <trkpt lat="45.9439" lon="4.72558">
        <ele>173</ele>
        <time>2017-03-15T09:40:51Z</time>
      </trkpt>
      <trkpt lat="45.94389" lon="4.72564">
        <ele>173</ele>
        <time>2017-03-15T09:40:52Z</time>
      </trkpt>
      <trkpt lat="45.94389" lon="4.72571">
        <ele>173</ele>
        <time>2017-03-15T09:40:53Z</time>
      </trkpt>
      <trkpt lat="45.94389" lon="4.72579">
        <ele>173</ele>
        <time>2017-03-15T09:40:54Z</time>
      </trkpt>
      <trkpt lat="45.9439" lon="4.72586">
        <ele>173</ele>
        <time>2017-03-15T09:40:55Z</time>
      </trkpt>
      <trkpt lat="45.9439" lon="4.72594">
        <ele>173</ele>
        <time>2017-03-15T09:40:56Z</time>
      </trkpt>
      <trkpt lat="45.9439" lon="4.72601">
        <ele>173</ele>
        <time>2017-03-15T09:40:57Z</time>
      </trkpt>
      <trkpt lat="45.94391" lon="4.72609">
        <ele>173</ele>
        <time>2017-03-15T09:40:58Z</time>
      </trkpt>
      <trkpt lat="45.94393" lon="4.72617">
        <ele>173</ele>
        <time>2017-03-15T09:40:59Z</time>
      </trkpt>
      <trkpt lat="45.94394" lon="4.72624">
        <ele>173</ele>
        <time>2017-03-15T09:41:00Z</time>
      </trkpt>
      <trkpt lat="45.94395" lon="4.72632">
        <ele>174</ele>
        <time>2017-03-15T09:41:01Z</time>
      </trkpt>
      <trkpt lat="45.94396" lon="4.72639">
        <ele>174</ele>
        <time>2017-03-15T09:41:02Z</time>
      </trkpt>
      <trkpt lat="45.94397" lon="4.72647">
        <ele>174</ele>
        <time>2017-03-15T09:41:03Z</time>
      </trkpt>
      <trkpt lat="45.94398" lon="4.72654">
        <ele>174</ele>
        <time>2017-03-15T09:41:04Z</time>
      </trkpt>
      <trkpt lat="45.94398" lon="4.72662">
        <ele>174</ele>
        <time>2017-03-15T09:41:05Z</time>
      </trkpt>
      <trkpt lat="45.94399" lon="4.72669">
        <ele>173</ele>
        <time>2017-03-15T09:41:06Z</time>
      </trkpt>
      <trkpt lat="45.944" lon="4.72677">
        <ele>173</ele>
        <time>2017-03-15T09:41:07Z</time>
      </trkpt>
      <trkpt lat="45.94401" lon="4.72684">
        <ele>173</ele>
        <time>2017-03-15T09:41:08Z</time>
      </trkpt>
      <trkpt lat="45.94402" lon="4.72691">
        <ele>173</ele>
        <time>2017-03-15T09:41:09Z</time>
      </trkpt>
      <trkpt lat="45.94402" lon="4.72699">
        <ele>172</ele>
        <time>2017-03-15T09:41:10Z</time>
      </trkpt>
      <trkpt lat="45.94404" lon="4.72707">
        <ele>172</ele>
        <time>2017-03-15T09:41:11Z</time>
      </trkpt>
      <trkpt lat="45.94405" lon="4.72714">
        <ele>172</ele>
        <time>2017-03-15T09:41:12Z</time>
      </trkpt>
      <trkpt lat="45.94405" lon="4.72722">
        <ele>172</ele>
        <time>2017-03-15T09:41:13Z</time>
      </trkpt>
      <trkpt lat="45.94406" lon="4.72729">
        <ele>172</ele>
        <time>2017-03-15T09:41:14Z</time>
      </trkpt>
      <trkpt lat="45.94407" lon="4.72737">
        <ele>171</ele>
        <time>2017-03-15T09:41:15Z</time>
      </trkpt>
      <trkpt lat="45.94408" lon="4.72744">
        <ele>171</ele>
        <time>2017-03-15T09:41:16Z</time>
      </trkpt>
      <trkpt lat="45.9441" lon="4.72751">
        <ele>170</ele>
        <time>2017-03-15T09:41:17Z</time>
      </trkpt>
      <trkpt lat="45.94411" lon="4.72758">
        <ele>170</ele>
        <time>2017-03-15T09:41:18Z</time>
      </trkpt>
      <trkpt lat="45.94412" lon="4.72765">
        <ele>170</ele>
        <time>2017-03-15T09:41:19Z</time>
      </trkpt>
      <trkpt lat="45.94413" lon="4.72772">
        <ele>169</ele>
        <time>2017-03-15T09:41:20Z</time>
      </trkpt>
      <trkpt lat="45.94415" lon="4.72779">
        <ele>169</ele>
        <time>2017-03-15T09:41:21Z</time>
      </trkpt>
      <trkpt lat="45.94416" lon="4.72785">
        <ele>169</ele>
        <time>2017-03-15T09:41:22Z</time>
      </trkpt>
      <trkpt lat="45.94418" lon="4.72792">
        <ele>168</ele>
        <time>2017-03-15T09:41:23Z</time>
      </trkpt>
      <trkpt lat="45.94419" lon="4.72799">
        <ele>167</ele>
        <time>2017-03-15T09:41:24Z</time>
      </trkpt>
      <trkpt lat="45.9442" lon="4.72806">
        <ele>167</ele>
        <time>2017-03-15T09:41:25Z</time>
      </trkpt>
      <trkpt lat="45.94421" lon="4.72813">
        <ele>167</ele>
        <time>2017-03-15T09:41:26Z</time>
      </trkpt>
      <trkpt lat="45.94422" lon="4.7282">
        <ele>167</ele>
        <time>2017-03-15T09:41:27Z</time>
      </trkpt>
      <trkpt lat="45.94423" lon="4.72827">
        <ele>166</ele>
        <time>2017-03-15T09:41:28Z</time>
      </trkpt>
      <trkpt lat="45.94424" lon="4.72834">
        <ele>166</ele>
        <time>2017-03-15T09:41:29Z</time>
      </trkpt>
      <trkpt lat="45.94425" lon="4.7284">
        <ele>166</ele>
        <time>2017-03-15T09:41:30Z</time>
      </trkpt>
      <trkpt lat="45.94426" lon="4.72853">
        <ele>166</ele>
        <time>2017-03-15T09:41:32Z</time>
      </trkpt>
      <trkpt lat="45.94427" lon="4.72859">
        <ele>166</ele>
        <time>2017-03-15T09:41:33Z</time>
      </trkpt>
      <trkpt lat="45.94429" lon="4.72871">
        <ele>166</ele>
        <time>2017-03-15T09:41:35Z</time>
      </trkpt>
      <trkpt lat="45.9443" lon="4.72877">
        <ele>166</ele>
        <time>2017-03-15T09:41:36Z</time>
      </trkpt>
      <trkpt lat="45.94431" lon="4.72889">
        <ele>166</ele>
        <time>2017-03-15T09:41:38Z</time>
      </trkpt>
      <trkpt lat="45.94432" lon="4.72895">
        <ele>166</ele>
        <time>2017-03-15T09:41:39Z</time>
      </trkpt>
      <trkpt lat="45.94434" lon="4.72907">
        <ele>166</ele>
        <time>2017-03-15T09:41:41Z</time>
      </trkpt>
      <trkpt lat="45.94435" lon="4.72913">
        <ele>166</ele>
        <time>2017-03-15T09:41:42Z</time>
      </trkpt>
      <trkpt lat="45.94436" lon="4.7292">
        <ele>167</ele>
        <time>2017-03-15T09:41:43Z</time>
      </trkpt>
      <trkpt lat="45.94437" lon="4.72926">
        <ele>167</ele>
        <time>2017-03-15T09:41:44Z</time>
      </trkpt>
      <trkpt lat="45.94438" lon="4.72934">
        <ele>167</ele>
        <time>2017-03-15T09:41:45Z</time>
      </trkpt>
      <trkpt lat="45.94439" lon="4.72941">
        <ele>167</ele>
        <time>2017-03-15T09:41:46Z</time>
      </trkpt>
      <trkpt lat="45.94441" lon="4.72949">
        <ele>167</ele>
        <time>2017-03-15T09:41:47Z</time>
      </trkpt>
      <trkpt lat="45.94442" lon="4.72957">
        <ele>167</ele>
        <time>2017-03-15T09:41:48Z</time>
      </trkpt>
      <trkpt lat="45.94444" lon="4.72965">
        <ele>167</ele>
        <time>2017-03-15T09:41:49Z</time>
      </trkpt>
      <trkpt lat="45.94445" lon="4.72974">
        <ele>167</ele>
        <time>2017-03-15T09:41:50Z</time>
      </trkpt>
      <trkpt lat="45.94446" lon="4.72983">
        <ele>167</ele>
        <time>2017-03-15T09:41:51Z</time>
      </trkpt>
      <trkpt lat="45.94447" lon="4.72992">
        <ele>167</ele>
        <time>2017-03-15T09:41:52Z</time>
      </trkpt>
      <trkpt lat="45.94448" lon="4.73001">
        <ele>169</ele>
        <time>2017-03-15T09:41:53Z</time>
      </trkpt>
      <trkpt lat="45.94449" lon="4.73011">
        <ele>169</ele>
        <time>2017-03-15T09:41:54Z</time>
      </trkpt>
      <trkpt lat="45.94451" lon="4.7302">
        <ele>169</ele>
        <time>2017-03-15T09:41:55Z</time>
      </trkpt>
      <trkpt lat="45.94452" lon="4.73031">
        <ele>169</ele>
        <time>2017-03-15T09:41:56Z</time>
      </trkpt>
      <trkpt lat="45.94453" lon="4.73041">
        <ele>169</ele>
        <time>2017-03-15T09:41:57Z</time>
      </trkpt>
      <trkpt lat="45.94455" lon="4.73051">
        <ele>170</ele>
        <time>2017-03-15T09:41:58Z</time>
      </trkpt>
      <trkpt lat="45.94456" lon="4.73062">
        <ele>170</ele>
        <time>2017-03-15T09:41:59Z</time>
      </trkpt>
      <trkpt lat="45.94458" lon="4.73073">
        <ele>170</ele>
        <time>2017-03-15T09:42:00Z</time>
      </trkpt>
      <trkpt lat="45.94459" lon="4.73083">
        <ele>170</ele>
        <time>2017-03-15T09:42:01Z</time>
      </trkpt>
      <trkpt lat="45.9446" lon="4.73094">
        <ele>171</ele>
        <time>2017-03-15T09:42:02Z</time>
      </trkpt>
      <trkpt lat="45.94462" lon="4.73103">
        <ele>172</ele>
        <time>2017-03-15T09:42:03Z</time>
      </trkpt>
      <trkpt lat="45.94462" lon="4.73112">
        <ele>172</ele>
        <time>2017-03-15T09:42:04Z</time>
      </trkpt>
      <trkpt lat="45.94464" lon="4.73122">
        <ele>172</ele>
        <time>2017-03-15T09:42:05Z</time>
      </trkpt>
      <trkpt lat="45.94466" lon="4.73131">
        <ele>172</ele>
        <time>2017-03-15T09:42:06Z</time>
      </trkpt>
      <trkpt lat="45.94467" lon="4.73139">
        <ele>172</ele>
        <time>2017-03-15T09:42:07Z</time>
      </trkpt>
      <trkpt lat="45.94468" lon="4.73148">
        <ele>172</ele>
        <time>2017-03-15T09:42:08Z</time>
      </trkpt>
      <trkpt lat="45.94469" lon="4.73156">
        <ele>172</ele>
        <time>2017-03-15T09:42:09Z</time>
      </trkpt>
      <trkpt lat="45.9447" lon="4.73164">
        <ele>172</ele>
        <time>2017-03-15T09:42:10Z</time>
      </trkpt>
      <trkpt lat="45.94471" lon="4.73172">
        <ele>174</ele>
        <time>2017-03-15T09:42:11Z</time>
      </trkpt>
      <trkpt lat="45.94472" lon="4.7318">
        <ele>174</ele>
        <time>2017-03-15T09:42:12Z</time>
      </trkpt>
      <trkpt lat="45.94473" lon="4.73188">
        <ele>174</ele>
        <time>2017-03-15T09:42:13Z</time>
      </trkpt>
      <trkpt lat="45.94474" lon="4.73196">
        <ele>174</ele>
        <time>2017-03-15T09:42:14Z</time>
      </trkpt>
      <trkpt lat="45.94475" lon="4.73203">
        <ele>175</ele>
        <time>2017-03-15T09:42:15Z</time>
      </trkpt>
      <trkpt lat="45.94476" lon="4.73211">
        <ele>175</ele>
        <time>2017-03-15T09:42:16Z</time>
      </trkpt>
      <trkpt lat="45.94477" lon="4.73217">
        <ele>175</ele>
        <time>2017-03-15T09:42:17Z</time>
      </trkpt>
      <trkpt lat="45.94478" lon="4.73224">
        <ele>175</ele>
        <time>2017-03-15T09:42:18Z</time>
      </trkpt>
      <trkpt lat="45.94479" lon="4.73231">
        <ele>175</ele>
        <time>2017-03-15T09:42:19Z</time>
      </trkpt>
      <trkpt lat="45.9448" lon="4.73239">
        <ele>175</ele>
        <time>2017-03-15T09:42:20Z</time>
      </trkpt>
      <trkpt lat="45.94481" lon="4.73245">
        <ele>175</ele>
        <time>2017-03-15T09:42:21Z</time>
      </trkpt>
      <trkpt lat="45.94482" lon="4.73252">
        <ele>176</ele>
        <time>2017-03-15T09:42:22Z</time>
      </trkpt>
      <trkpt lat="45.94482" lon="4.73258">
        <ele>176</ele>
        <time>2017-03-15T09:42:23Z</time>
      </trkpt>
      <trkpt lat="45.94483" lon="4.73265">
        <ele>177</ele>
        <time>2017-03-15T09:42:24Z</time>
      </trkpt>
      <trkpt lat="45.94484" lon="4.73272">
        <ele>177</ele>
        <time>2017-03-15T09:42:25Z</time>
      </trkpt>
      <trkpt lat="45.94486" lon="4.73278">
        <ele>177</ele>
        <time>2017-03-15T09:42:26Z</time>
      </trkpt>
      <trkpt lat="45.94487" lon="4.73285">
        <ele>177</ele>
        <time>2017-03-15T09:42:27Z</time>
      </trkpt>
      <trkpt lat="45.94487" lon="4.73291">
        <ele>177</ele>
        <time>2017-03-15T09:42:28Z</time>
      </trkpt>
      <trkpt lat="45.94488" lon="4.73298">
        <ele>177</ele>
        <time>2017-03-15T09:42:29Z</time>
      </trkpt>
      <trkpt lat="45.94489" lon="4.73304">
        <ele>177</ele>
        <time>2017-03-15T09:42:30Z</time>
      </trkpt>
      <trkpt lat="45.9449" lon="4.73311">
        <ele>177</ele>
        <time>2017-03-15T09:42:31Z</time>
      </trkpt>
      <trkpt lat="45.9449" lon="4.73317">
        <ele>177</ele>
        <time>2017-03-15T09:42:32Z</time>
      </trkpt>
      <trkpt lat="45.94491" lon="4.73324">
        <ele>177</ele>
        <time>2017-03-15T09:42:33Z</time>
      </trkpt>
      <trkpt lat="45.94491" lon="4.73331">
        <ele>177</ele>
        <time>2017-03-15T09:42:34Z</time>
      </trkpt>
      <trkpt lat="45.94491" lon="4.73338">
        <ele>178</ele>
        <time>2017-03-15T09:42:35Z</time>
      </trkpt>
      <trkpt lat="45.94492" lon="4.73345">
        <ele>178</ele>
        <time>2017-03-15T09:42:36Z</time>
      </trkpt>
      <trkpt lat="45.94493" lon="4.73351">
        <ele>178</ele>
        <time>2017-03-15T09:42:37Z</time>
      </trkpt>
      <trkpt lat="45.94494" lon="4.73358">
        <ele>178</ele>
        <time>2017-03-15T09:42:38Z</time>
      </trkpt>
      <trkpt lat="45.94494" lon="4.73365">
        <ele>179</ele>
        <time>2017-03-15T09:42:39Z</time>
      </trkpt>
      <trkpt lat="45.94495" lon="4.73371">
        <ele>179</ele>
        <time>2017-03-15T09:42:40Z</time>
      </trkpt>
      <trkpt lat="45.94496" lon="4.73378">
        <ele>179</ele>
        <time>2017-03-15T09:42:41Z</time>
      </trkpt>
      <trkpt lat="45.94496" lon="4.73384">
        <ele>179</ele>
        <time>2017-03-15T09:42:42Z</time>
      </trkpt>
      <trkpt lat="45.94497" lon="4.73396">
        <ele>179</ele>
        <time>2017-03-15T09:42:44Z</time>
      </trkpt>
      <trkpt lat="45.94497" lon="4.73402">
        <ele>180</ele>
        <time>2017-03-15T09:42:45Z</time>
      </trkpt>
      <trkpt lat="45.94497" lon="4.73414">
        <ele>180</ele>
        <time>2017-03-15T09:42:47Z</time>
      </trkpt>
      <trkpt lat="45.94496" lon="4.73421">
        <ele>180</ele>
        <time>2017-03-15T09:42:48Z</time>
      </trkpt>
      <trkpt lat="45.94496" lon="4.73433">
        <ele>181</ele>
        <time>2017-03-15T09:42:50Z</time>
      </trkpt>
      <trkpt lat="45.94495" lon="4.7344">
        <ele>181</ele>
        <time>2017-03-15T09:42:51Z</time>
      </trkpt>
      <trkpt lat="45.94495" lon="4.73446">
        <ele>181</ele>
        <time>2017-03-15T09:42:52Z</time>
      </trkpt>
      <trkpt lat="45.94496" lon="4.73453">
        <ele>182</ele>
        <time>2017-03-15T09:42:53Z</time>
      </trkpt>
      <trkpt lat="45.94496" lon="4.73466">
        <ele>182</ele>
        <time>2017-03-15T09:42:55Z</time>
      </trkpt>
      <trkpt lat="45.94496" lon="4.73471">
        <ele>182</ele>
        <time>2017-03-15T09:42:56Z</time>
      </trkpt>
      <trkpt lat="45.94495" lon="4.73484">
        <ele>182</ele>
        <time>2017-03-15T09:42:58Z</time>
      </trkpt>
      <trkpt lat="45.94495" lon="4.7349">
        <ele>183</ele>
        <time>2017-03-15T09:42:59Z</time>
      </trkpt>
      <trkpt lat="45.94495" lon="4.73497">
        <ele>183</ele>
        <time>2017-03-15T09:43:00Z</time>
      </trkpt>
      <trkpt lat="45.94495" lon="4.73504">
        <ele>183</ele>
        <time>2017-03-15T09:43:01Z</time>
      </trkpt>
      <trkpt lat="45.94495" lon="4.73511">
        <ele>184</ele>
        <time>2017-03-15T09:43:02Z</time>
      </trkpt>
      <trkpt lat="45.94495" lon="4.73517">
        <ele>184</ele>
        <time>2017-03-15T09:43:03Z</time>
      </trkpt>
      <trkpt lat="45.94494" lon="4.73524">
        <ele>184</ele>
        <time>2017-03-15T09:43:04Z</time>
      </trkpt>
      <trkpt lat="45.94494" lon="4.73531">
        <ele>184</ele>
        <time>2017-03-15T09:43:05Z</time>
      </trkpt>
      <trkpt lat="45.94494" lon="4.73537">
        <ele>184</ele>
        <time>2017-03-15T09:43:06Z</time>
      </trkpt>
      <trkpt lat="45.94493" lon="4.73544">
        <ele>185</ele>
        <time>2017-03-15T09:43:07Z</time>
      </trkpt>
      <trkpt lat="45.94493" lon="4.7355">
        <ele>185</ele>
        <time>2017-03-15T09:43:08Z</time>
      </trkpt>
      <trkpt lat="45.94493" lon="4.73557">
        <ele>185</ele>
        <time>2017-03-15T09:43:09Z</time>
      </trkpt>
      <trkpt lat="45.94493" lon="4.73569">
        <ele>185</ele>
        <time>2017-03-15T09:43:11Z</time>
      </trkpt>
      <trkpt lat="45.94493" lon="4.73576">
        <ele>185</ele>
        <time>2017-03-15T09:43:12Z</time>
      </trkpt>
      <trkpt lat="45.94493" lon="4.73583">
        <ele>185</ele>
        <time>2017-03-15T09:43:13Z</time>
      </trkpt>
      <trkpt lat="45.94492" lon="4.7359">
        <ele>185</ele>
        <time>2017-03-15T09:43:14Z</time>
      </trkpt>
      <trkpt lat="45.94491" lon="4.73596">
        <ele>185</ele>
        <time>2017-03-15T09:43:15Z</time>
      </trkpt>
      <trkpt lat="45.94491" lon="4.73603">
        <ele>186</ele>
        <time>2017-03-15T09:43:16Z</time>
      </trkpt>
      <trkpt lat="45.9449" lon="4.7361">
        <ele>186</ele>
        <time>2017-03-15T09:43:17Z</time>
      </trkpt>
      <trkpt lat="45.9449" lon="4.73617">
        <ele>186</ele>
        <time>2017-03-15T09:43:18Z</time>
      </trkpt>
      <trkpt lat="45.94489" lon="4.73624">
        <ele>186</ele>
        <time>2017-03-15T09:43:19Z</time>
      </trkpt>
      <trkpt lat="45.94488" lon="4.73631">
        <ele>186</ele>
        <time>2017-03-15T09:43:20Z</time>
      </trkpt>
      <trkpt lat="45.94488" lon="4.73638">
        <ele>186</ele>
        <time>2017-03-15T09:43:21Z</time>
      </trkpt>
      <trkpt lat="45.94487" lon="4.73645">
        <ele>186</ele>
        <time>2017-03-15T09:43:22Z</time>
      </trkpt>
      <trkpt lat="45.94486" lon="4.73652">
        <ele>186</ele>
        <time>2017-03-15T09:43:23Z</time>
      </trkpt>
      <trkpt lat="45.94485" lon="4.73659">
        <ele>186</ele>
        <time>2017-03-15T09:43:24Z</time>
      </trkpt>
      <trkpt lat="45.94485" lon="4.73666">
        <ele>185</ele>
        <time>2017-03-15T09:43:25Z</time>
      </trkpt>
      <trkpt lat="45.94484" lon="4.73673">
        <ele>186</ele>
        <time>2017-03-15T09:43:26Z</time>
      </trkpt>
      <trkpt lat="45.94483" lon="4.7368">
        <ele>186</ele>
        <time>2017-03-15T09:43:27Z</time>
      </trkpt>
      <trkpt lat="45.94482" lon="4.73687">
        <ele>186</ele>
        <time>2017-03-15T09:43:28Z</time>
      </trkpt>
      <trkpt lat="45.94481" lon="4.73694">
        <ele>186</ele>
        <time>2017-03-15T09:43:29Z</time>
      </trkpt>
      <trkpt lat="45.9448" lon="4.737">
        <ele>186</ele>
        <time>2017-03-15T09:43:30Z</time>
      </trkpt>
      <trkpt lat="45.94478" lon="4.73707">
        <ele>186</ele>
        <time>2017-03-15T09:43:31Z</time>
      </trkpt>
      <trkpt lat="45.94477" lon="4.73714">
        <ele>186</ele>
        <time>2017-03-15T09:43:32Z</time>
      </trkpt>
      <trkpt lat="45.94477" lon="4.73721">
        <ele>186</ele>
        <time>2017-03-15T09:43:33Z</time>
      </trkpt>
      <trkpt lat="45.94476" lon="4.73728">
        <ele>186</ele>
        <time>2017-03-15T09:43:34Z</time>
      </trkpt>
      <trkpt lat="45.94474" lon="4.73741">
        <ele>186</ele>
        <time>2017-03-15T09:43:36Z</time>
      </trkpt>
      <trkpt lat="45.94473" lon="4.73746">
        <ele>186</ele>
        <time>2017-03-15T09:43:37Z</time>
      </trkpt>
      <trkpt lat="45.94472" lon="4.73758">
        <ele>186</ele>
        <time>2017-03-15T09:43:39Z</time>
      </trkpt>
      <trkpt lat="45.94473" lon="4.73764">
        <ele>186</ele>
        <time>2017-03-15T09:43:40Z</time>
      </trkpt>
      <trkpt lat="45.94477" lon="4.73769">
        <ele>186</ele>
        <time>2017-03-15T09:43:41Z</time>
      </trkpt>
      <trkpt lat="45.94481" lon="4.73773">
        <ele>186</ele>
        <time>2017-03-15T09:43:42Z</time>
      </trkpt>
      <trkpt lat="45.94485" lon="4.73777">
        <ele>186</ele>
        <time>2017-03-15T09:43:43Z</time>
      </trkpt>
      <trkpt lat="45.94489" lon="4.7378">
        <ele>186</ele>
        <time>2017-03-15T09:43:44Z</time>
      </trkpt>
      <trkpt lat="45.94494" lon="4.73783">
        <ele>186</ele>
        <time>2017-03-15T09:43:45Z</time>
      </trkpt>
      <trkpt lat="45.94498" lon="4.73787">
        <ele>186</ele>
        <time>2017-03-15T09:43:46Z</time>
      </trkpt>
      <trkpt lat="45.94503" lon="4.7379">
        <ele>186</ele>
        <time>2017-03-15T09:43:47Z</time>
      </trkpt>
      <trkpt lat="45.94507" lon="4.73794">
        <ele>186</ele>
        <time>2017-03-15T09:43:48Z</time>
      </trkpt>
      <trkpt lat="45.94512" lon="4.73797">
        <ele>186</ele>
        <time>2017-03-15T09:43:49Z</time>
      </trkpt>
      <trkpt lat="45.94516" lon="4.73801">
        <ele>186</ele>
        <time>2017-03-15T09:43:50Z</time>
      </trkpt>
      <trkpt lat="45.94519" lon="4.73806">
        <ele>186</ele>
        <time>2017-03-15T09:43:51Z</time>
      </trkpt>
      <trkpt lat="45.94523" lon="4.7381">
        <ele>186</ele>
        <time>2017-03-15T09:43:52Z</time>
      </trkpt>
      <trkpt lat="45.94528" lon="4.73814">
        <ele>186</ele>
        <time>2017-03-15T09:43:53Z</time>
      </trkpt>
      <trkpt lat="45.94531" lon="4.7382">
        <ele>186</ele>
        <time>2017-03-15T09:43:54Z</time>
      </trkpt>
      <trkpt lat="45.94535" lon="4.73824">
        <ele>186</ele>
        <time>2017-03-15T09:43:55Z</time>
      </trkpt>
      <trkpt lat="45.94539" lon="4.73828">
        <ele>186</ele>
        <time>2017-03-15T09:43:56Z</time>
      </trkpt>
      <trkpt lat="45.94543" lon="4.73832">
        <ele>186</ele>
        <time>2017-03-15T09:43:57Z</time>
      </trkpt>
      <trkpt lat="45.94547" lon="4.73836">
        <ele>186</ele>
        <time>2017-03-15T09:43:58Z</time>
      </trkpt>
      <trkpt lat="45.94551" lon="4.7384">
        <ele>186</ele>
        <time>2017-03-15T09:43:59Z</time>
      </trkpt>
      <trkpt lat="45.94555" lon="4.73844">
        <ele>186</ele>
        <time>2017-03-15T09:44:00Z</time>
      </trkpt>
      <trkpt lat="45.94559" lon="4.73848">
        <ele>186</ele>
        <time>2017-03-15T09:44:01Z</time>
      </trkpt>
      <trkpt lat="45.94563" lon="4.73852">
        <ele>186</ele>
        <time>2017-03-15T09:44:02Z</time>
      </trkpt>
      <trkpt lat="45.94567" lon="4.73856">
        <ele>186</ele>
        <time>2017-03-15T09:44:03Z</time>
      </trkpt>
      <trkpt lat="45.94571" lon="4.7386">
        <ele>186</ele>
        <time>2017-03-15T09:44:04Z</time>
      </trkpt>
      <trkpt lat="45.94575" lon="4.73864">
        <ele>186</ele>
        <time>2017-03-15T09:44:05Z</time>
      </trkpt>
      <trkpt lat="45.94579" lon="4.73867">
        <ele>186</ele>
        <time>2017-03-15T09:44:06Z</time>
      </trkpt>
      <trkpt lat="45.94582" lon="4.73871">
        <ele>186</ele>
        <time>2017-03-15T09:44:07Z</time>
      </trkpt>
      <trkpt lat="45.94586" lon="4.73875">
        <ele>187</ele>
        <time>2017-03-15T09:44:08Z</time>
      </trkpt>
      <trkpt lat="45.9459" lon="4.73879">
        <ele>187</ele>
        <time>2017-03-15T09:44:09Z</time>
      </trkpt>
      <trkpt lat="45.94593" lon="4.73883">
        <ele>187</ele>
        <time>2017-03-15T09:44:10Z</time>
      </trkpt>
      <trkpt lat="45.94597" lon="4.73887">
        <ele>187</ele>
        <time>2017-03-15T09:44:11Z</time>
      </trkpt>
      <trkpt lat="45.946" lon="4.73891">
        <ele>187</ele>
        <time>2017-03-15T09:44:12Z</time>
      </trkpt>
      <trkpt lat="45.94607" lon="4.73899">
        <ele>187</ele>
        <time>2017-03-15T09:44:14Z</time>
      </trkpt>
      <trkpt lat="45.9461" lon="4.73904">
        <ele>187</ele>
        <time>2017-03-15T09:44:15Z</time>
      </trkpt>
      <trkpt lat="45.94614" lon="4.73908">
        <ele>187</ele>
        <time>2017-03-15T09:44:16Z</time>
      </trkpt>
      <trkpt lat="45.94617" lon="4.73912">
        <ele>187</ele>
        <time>2017-03-15T09:44:17Z</time>
      </trkpt>
      <trkpt lat="45.9462" lon="4.73916">
        <ele>187</ele>
        <time>2017-03-15T09:44:18Z</time>
      </trkpt>
      <trkpt lat="45.94624" lon="4.7392">
        <ele>187</ele>
        <time>2017-03-15T09:44:19Z</time>
      </trkpt>
      <trkpt lat="45.94628" lon="4.73925">
        <ele>187</ele>
        <time>2017-03-15T09:44:20Z</time>
      </trkpt>
      <trkpt lat="45.94631" lon="4.73929">
        <ele>187</ele>
        <time>2017-03-15T09:44:21Z</time>
      </trkpt>
      <trkpt lat="45.94635" lon="4.73934">
        <ele>187</ele>
        <time>2017-03-15T09:44:22Z</time>
      </trkpt>
      <trkpt lat="45.94638" lon="4.73939">
        <ele>187</ele>
        <time>2017-03-15T09:44:23Z</time>
      </trkpt>
      <trkpt lat="45.94642" lon="4.73943">
        <ele>187</ele>
        <time>2017-03-15T09:44:24Z</time>
      </trkpt>
      <trkpt lat="45.94645" lon="4.73948">
        <ele>187</ele>
        <time>2017-03-15T09:44:25Z</time>
      </trkpt>
      <trkpt lat="45.94651" lon="4.73957">
        <ele>187</ele>
        <time>2017-03-15T09:44:27Z</time>
      </trkpt>
      <trkpt lat="45.94654" lon="4.73961">
        <ele>187</ele>
        <time>2017-03-15T09:44:28Z</time>
      </trkpt>
      <trkpt lat="45.94658" lon="4.73966">
        <ele>187</ele>
        <time>2017-03-15T09:44:29Z</time>
      </trkpt>
      <trkpt lat="45.94661" lon="4.73971">
        <ele>187</ele>
        <time>2017-03-15T09:44:30Z</time>
      </trkpt>
      <trkpt lat="45.94665" lon="4.73975">
        <ele>187</ele>
        <time>2017-03-15T09:44:31Z</time>
      </trkpt>
      <trkpt lat="45.94668" lon="4.7398">
        <ele>187</ele>
        <time>2017-03-15T09:44:32Z</time>
      </trkpt>
      <trkpt lat="45.94672" lon="4.73984">
        <ele>187</ele>
        <time>2017-03-15T09:44:33Z</time>
      </trkpt>
      <trkpt lat="45.94675" lon="4.73989">
        <ele>187</ele>
        <time>2017-03-15T09:44:34Z</time>
      </trkpt>
      <trkpt lat="45.94678" lon="4.73993">
        <ele>187</ele>
        <time>2017-03-15T09:44:35Z</time>
      </trkpt>
      <trkpt lat="45.94682" lon="4.73997">
        <ele>187</ele>
        <time>2017-03-15T09:44:36Z</time>
      </trkpt>
      <trkpt lat="45.94685" lon="4.74001">
        <ele>187</ele>
        <time>2017-03-15T09:44:37Z</time>
      </trkpt>
      <trkpt lat="45.94689" lon="4.74006">
        <ele>187</ele>
        <time>2017-03-15T09:44:38Z</time>
      </trkpt>
      <trkpt lat="45.94692" lon="4.74011">
        <ele>187</ele>
        <time>2017-03-15T09:44:39Z</time>
      </trkpt>
      <trkpt lat="45.94696" lon="4.74015">
        <ele>187</ele>
        <time>2017-03-15T09:44:40Z</time>
      </trkpt>
      <trkpt lat="45.94699" lon="4.74019">
        <ele>187</ele>
        <time>2017-03-15T09:44:41Z</time>
      </trkpt>
      <trkpt lat="45.94703" lon="4.74024">
        <ele>187</ele>
        <time>2017-03-15T09:44:42Z</time>
      </trkpt>
      <trkpt lat="45.94706" lon="4.74028">
        <ele>187</ele>
        <time>2017-03-15T09:44:43Z</time>
      </trkpt>
      <trkpt lat="45.94709" lon="4.74032">
        <ele>187</ele>
        <time>2017-03-15T09:44:44Z</time>
      </trkpt>
      <trkpt lat="45.94712" lon="4.74037">
        <ele>187</ele>
        <time>2017-03-15T09:44:45Z</time>
      </trkpt>
      <trkpt lat="45.94716" lon="4.74041">
        <ele>187</ele>
        <time>2017-03-15T09:44:46Z</time>
      </trkpt>
      <trkpt lat="45.94719" lon="4.74046">
        <ele>187</ele>
        <time>2017-03-15T09:44:47Z</time>
      </trkpt>
      <trkpt lat="45.94723" lon="4.74051">
        <ele>187</ele>
        <time>2017-03-15T09:44:48Z</time>
      </trkpt>
      <trkpt lat="45.94726" lon="4.74055">
        <ele>188</ele>
        <time>2017-03-15T09:44:49Z</time>
      </trkpt>
      <trkpt lat="45.9473" lon="4.7406">
        <ele>188</ele>
        <time>2017-03-15T09:44:50Z</time>
      </trkpt>
      <trkpt lat="45.94733" lon="4.74064">
        <ele>188</ele>
        <time>2017-03-15T09:44:51Z</time>
      </trkpt>
      <trkpt lat="45.94737" lon="4.74068">
        <ele>188</ele>
        <time>2017-03-15T09:44:52Z</time>
      </trkpt>
      <trkpt lat="45.9474" lon="4.74073">
        <ele>188</ele>
        <time>2017-03-15T09:44:53Z</time>
      </trkpt>
      <trkpt lat="45.94744" lon="4.74078">
        <ele>188</ele>
        <time>2017-03-15T09:44:54Z</time>
      </trkpt>
      <trkpt lat="45.94748" lon="4.74082">
        <ele>189</ele>
        <time>2017-03-15T09:44:55Z</time>
      </trkpt>
      <trkpt lat="45.9475" lon="4.74087">
        <ele>189</ele>
        <time>2017-03-15T09:44:56Z</time>
      </trkpt>
      <trkpt lat="45.94757" lon="4.74095">
        <ele>189</ele>
        <time>2017-03-15T09:44:58Z</time>
      </trkpt>
      <trkpt lat="45.9476" lon="4.74099">
        <ele>189</ele>
        <time>2017-03-15T09:44:59Z</time>
      </trkpt>
      <trkpt lat="45.94766" lon="4.74109">
        <ele>189</ele>
        <time>2017-03-15T09:45:01Z</time>
      </trkpt>
      <trkpt lat="45.94769" lon="4.74114">
        <ele>189</ele>
        <time>2017-03-15T09:45:02Z</time>
      </trkpt>
      <trkpt lat="45.94772" lon="4.74119">
        <ele>189</ele>
        <time>2017-03-15T09:45:03Z</time>
      </trkpt>
      <trkpt lat="45.94776" lon="4.74124">
        <ele>189</ele>
        <time>2017-03-15T09:45:04Z</time>
      </trkpt>
      <trkpt lat="45.94779" lon="4.74128">
        <ele>189</ele>
        <time>2017-03-15T09:45:05Z</time>
      </trkpt>
      <trkpt lat="45.94782" lon="4.74133">
        <ele>189</ele>
        <time>2017-03-15T09:45:06Z</time>
      </trkpt>
      <trkpt lat="45.94785" lon="4.74138">
        <ele>189</ele>
        <time>2017-03-15T09:45:07Z</time>
      </trkpt>
      <trkpt lat="45.94789" lon="4.74143">
        <ele>189</ele>
        <time>2017-03-15T09:45:08Z</time>
      </trkpt>
      <trkpt lat="45.94792" lon="4.74148">
        <ele>189</ele>
        <time>2017-03-15T09:45:09Z</time>
      </trkpt>
      <trkpt lat="45.94795" lon="4.74153">
        <ele>189</ele>
        <time>2017-03-15T09:45:10Z</time>
      </trkpt>
      <trkpt lat="45.94799" lon="4.74157">
        <ele>189</ele>
        <time>2017-03-15T09:45:11Z</time>
      </trkpt>
      <trkpt lat="45.94802" lon="4.74162">
        <ele>189</ele>
        <time>2017-03-15T09:45:12Z</time>
      </trkpt>
      <trkpt lat="45.94805" lon="4.74167">
        <ele>189</ele>
        <time>2017-03-15T09:45:13Z</time>
      </trkpt>
      <trkpt lat="45.94808" lon="4.74173">
        <ele>189</ele>
        <time>2017-03-15T09:45:14Z</time>
      </trkpt>
      <trkpt lat="45.94811" lon="4.74178">
        <ele>189</ele>
        <time>2017-03-15T09:45:15Z</time>
      </trkpt>
      <trkpt lat="45.94814" lon="4.74184">
        <ele>189</ele>
        <time>2017-03-15T09:45:16Z</time>
      </trkpt>
      <trkpt lat="45.94817" lon="4.74189">
        <ele>189</ele>
        <time>2017-03-15T09:45:17Z</time>
      </trkpt>
      <trkpt lat="45.9482" lon="4.74195">
        <ele>189</ele>
        <time>2017-03-15T09:45:18Z</time>
      </trkpt>
      <trkpt lat="45.94823" lon="4.74201">
        <ele>189</ele>
        <time>2017-03-15T09:45:19Z</time>
      </trkpt>
      <trkpt lat="45.94826" lon="4.74207">
        <ele>189</ele>
        <time>2017-03-15T09:45:20Z</time>
      </trkpt>
      <trkpt lat="45.9483" lon="4.74213">
        <ele>189</ele>
        <time>2017-03-15T09:45:21Z</time>
      </trkpt>
      <trkpt lat="45.94833" lon="4.74219">
        <ele>189</ele>
        <time>2017-03-15T09:45:22Z</time>
      </trkpt>
      <trkpt lat="45.94836" lon="4.74225">
        <ele>190</ele>
        <time>2017-03-15T09:45:23Z</time>
      </trkpt>
      <trkpt lat="45.94838" lon="4.74231">
        <ele>190</ele>
        <time>2017-03-15T09:45:24Z</time>
      </trkpt>
      <trkpt lat="45.94841" lon="4.74236">
        <ele>190</ele>
        <time>2017-03-15T09:45:25Z</time>
      </trkpt>
      <trkpt lat="45.94844" lon="4.74241">
        <ele>190</ele>
        <time>2017-03-15T09:45:26Z</time>
      </trkpt>
      <trkpt lat="45.94848" lon="4.74251">
        <ele>190</ele>
        <time>2017-03-15T09:45:28Z</time>
      </trkpt>
      <trkpt lat="45.9485" lon="4.74256">
        <ele>190</ele>
        <time>2017-03-15T09:45:29Z</time>
      </trkpt>
      <trkpt lat="45.94855" lon="4.74266">
        <ele>190</ele>
        <time>2017-03-15T09:45:31Z</time>
      </trkpt>
      <trkpt lat="45.94858" lon="4.74271">
        <ele>190</ele>
        <time>2017-03-15T09:45:32Z</time>
      </trkpt>
      <trkpt lat="45.94861" lon="4.74276">
        <ele>190</ele>
        <time>2017-03-15T09:45:33Z</time>
      </trkpt>
      <trkpt lat="45.94863" lon="4.74281">
        <ele>191</ele>
        <time>2017-03-15T09:45:34Z</time>
      </trkpt>
      <trkpt lat="45.94866" lon="4.74287">
        <ele>191</ele>
        <time>2017-03-15T09:45:35Z</time>
      </trkpt>
      <trkpt lat="45.94869" lon="4.74292">
        <ele>191</ele>
        <time>2017-03-15T09:45:36Z</time>
      </trkpt>
      <trkpt lat="45.94872" lon="4.74298">
        <ele>191</ele>
        <time>2017-03-15T09:45:37Z</time>
      </trkpt>
      <trkpt lat="45.94875" lon="4.74303">
        <ele>191</ele>
        <time>2017-03-15T09:45:38Z</time>
      </trkpt>
      <trkpt lat="45.94878" lon="4.74309">
        <ele>191</ele>
        <time>2017-03-15T09:45:39Z</time>
      </trkpt>
      <trkpt lat="45.94881" lon="4.74314">
        <ele>191</ele>
        <time>2017-03-15T09:45:40Z</time>
      </trkpt>
      <trkpt lat="45.94884" lon="4.7432">
        <ele>191</ele>
        <time>2017-03-15T09:45:41Z</time>
      </trkpt>
      <trkpt lat="45.94886" lon="4.74326">
        <ele>191</ele>
        <time>2017-03-15T09:45:42Z</time>
      </trkpt>
      <trkpt lat="45.94889" lon="4.74332">
        <ele>191</ele>
        <time>2017-03-15T09:45:43Z</time>
      </trkpt>
      <trkpt lat="45.94893" lon="4.74338">
        <ele>191</ele>
        <time>2017-03-15T09:45:44Z</time>
      </trkpt>
      <trkpt lat="45.94896" lon="4.74344">
        <ele>191</ele>
        <time>2017-03-15T09:45:45Z</time>
      </trkpt>
      <trkpt lat="45.94899" lon="4.7435">
        <ele>191</ele>
        <time>2017-03-15T09:45:46Z</time>
      </trkpt>
      <trkpt lat="45.94902" lon="4.74356">
        <ele>191</ele>
        <time>2017-03-15T09:45:47Z</time>
      </trkpt>
      <trkpt lat="45.94905" lon="4.74362">
        <ele>191</ele>
        <time>2017-03-15T09:45:48Z</time>
      </trkpt>
      <trkpt lat="45.94908" lon="4.74367">
        <ele>191</ele>
        <time>2017-03-15T09:45:49Z</time>
      </trkpt>
      <trkpt lat="45.94911" lon="4.74373">
        <ele>191</ele>
        <time>2017-03-15T09:45:50Z</time>
      </trkpt>
      <trkpt lat="45.94914" lon="4.74379">
        <ele>191</ele>
        <time>2017-03-15T09:45:51Z</time>
      </trkpt>
      <trkpt lat="45.94917" lon="4.74385">
        <ele>192</ele>
        <time>2017-03-15T09:45:52Z</time>
      </trkpt>
      <trkpt lat="45.9492" lon="4.74391">
        <ele>192</ele>
        <time>2017-03-15T09:45:53Z</time>
      </trkpt>
      <trkpt lat="45.94923" lon="4.74396">
        <ele>192</ele>
        <time>2017-03-15T09:45:54Z</time>
      </trkpt>
      <trkpt lat="45.94926" lon="4.74402">
        <ele>192</ele>
        <time>2017-03-15T09:45:55Z</time>
      </trkpt>
      <trkpt lat="45.94929" lon="4.74407">
        <ele>192</ele>
        <time>2017-03-15T09:45:56Z</time>
      </trkpt>
      <trkpt lat="45.94931" lon="4.74413">
        <ele>192</ele>
        <time>2017-03-15T09:45:57Z</time>
      </trkpt>
      <trkpt lat="45.94934" lon="4.74419">
        <ele>192</ele>
        <time>2017-03-15T09:45:58Z</time>
      </trkpt>
      <trkpt lat="45.94937" lon="4.74424">
        <ele>192</ele>
        <time>2017-03-15T09:45:59Z</time>
      </trkpt>
      <trkpt lat="45.9494" lon="4.7443">
        <ele>192</ele>
        <time>2017-03-15T09:46:00Z</time>
      </trkpt>
      <trkpt lat="45.94943" lon="4.74435">
        <ele>192</ele>
        <time>2017-03-15T09:46:01Z</time>
      </trkpt>
      <trkpt lat="45.94945" lon="4.74441">
        <ele>192</ele>
        <time>2017-03-15T09:46:02Z</time>
      </trkpt>
      <trkpt lat="45.94948" lon="4.74447">
        <ele>192</ele>
        <time>2017-03-15T09:46:03Z</time>
      </trkpt>
      <trkpt lat="45.94951" lon="4.74453">
        <ele>192</ele>
        <time>2017-03-15T09:46:04Z</time>
      </trkpt>
      <trkpt lat="45.94953" lon="4.74458">
        <ele>192</ele>
        <time>2017-03-15T09:46:05Z</time>
      </trkpt>
      <trkpt lat="45.94956" lon="4.74464">
        <ele>193</ele>
        <time>2017-03-15T09:46:06Z</time>
      </trkpt>
      <trkpt lat="45.94959" lon="4.74469">
        <ele>193</ele>
        <time>2017-03-15T09:46:07Z</time>
      </trkpt>
      <trkpt lat="45.94961" lon="4.74475">
        <ele>193</ele>
        <time>2017-03-15T09:46:08Z</time>
      </trkpt>
      <trkpt lat="45.94964" lon="4.7448">
        <ele>193</ele>
        <time>2017-03-15T09:46:09Z</time>
      </trkpt>
      <trkpt lat="45.94967" lon="4.74486">
        <ele>193</ele>
        <time>2017-03-15T09:46:10Z</time>
      </trkpt>
      <trkpt lat="45.9497" lon="4.74491">
        <ele>193</ele>
        <time>2017-03-15T09:46:11Z</time>
      </trkpt>
      <trkpt lat="45.94973" lon="4.74497">
        <ele>193</ele>
        <time>2017-03-15T09:46:12Z</time>
      </trkpt>
      <trkpt lat="45.94976" lon="4.74503">
        <ele>193</ele>
        <time>2017-03-15T09:46:13Z</time>
      </trkpt>
      <trkpt lat="45.94979" lon="4.74509">
        <ele>193</ele>
        <time>2017-03-15T09:46:14Z</time>
      </trkpt>
      <trkpt lat="45.94982" lon="4.74514">
        <ele>193</ele>
        <time>2017-03-15T09:46:15Z</time>
      </trkpt>
      <trkpt lat="45.94985" lon="4.7452">
        <ele>193</ele>
        <time>2017-03-15T09:46:16Z</time>
      </trkpt>
      <trkpt lat="45.94988" lon="4.74526">
        <ele>193</ele>
        <time>2017-03-15T09:46:17Z</time>
      </trkpt>
      <trkpt lat="45.9499" lon="4.74531">
        <ele>193</ele>
        <time>2017-03-15T09:46:18Z</time>
      </trkpt>
      <trkpt lat="45.94993" lon="4.74537">
        <ele>193</ele>
        <time>2017-03-15T09:46:19Z</time>
      </trkpt>
      <trkpt lat="45.94996" lon="4.74542">
        <ele>193</ele>
        <time>2017-03-15T09:46:20Z</time>
      </trkpt>
      <trkpt lat="45.94999" lon="4.74548">
        <ele>193</ele>
        <time>2017-03-15T09:46:21Z</time>
      </trkpt>
      <trkpt lat="45.95002" lon="4.74554">
        <ele>194</ele>
        <time>2017-03-15T09:46:22Z</time>
      </trkpt>
      <trkpt lat="45.95005" lon="4.7456">
        <ele>194</ele>
        <time>2017-03-15T09:46:23Z</time>
      </trkpt>
      <trkpt lat="45.95008" lon="4.74565">
        <ele>194</ele>
        <time>2017-03-15T09:46:24Z</time>
      </trkpt>
      <trkpt lat="45.95011" lon="4.74571">
        <ele>194</ele>
        <time>2017-03-15T09:46:25Z</time>
      </trkpt>
      <trkpt lat="45.95015" lon="4.74576">
        <ele>194</ele>
        <time>2017-03-15T09:46:26Z</time>
      </trkpt>
      <trkpt lat="45.95018" lon="4.74582">
        <ele>194</ele>
        <time>2017-03-15T09:46:27Z</time>
      </trkpt>
      <trkpt lat="45.95021" lon="4.74587">
        <ele>194</ele>
        <time>2017-03-15T09:46:28Z</time>
      </trkpt>
      <trkpt lat="45.95023" lon="4.74593">
        <ele>194</ele>
        <time>2017-03-15T09:46:29Z</time>
      </trkpt>
      <trkpt lat="45.95026" lon="4.74599">
        <ele>194</ele>
        <time>2017-03-15T09:46:30Z</time>
      </trkpt>
      <trkpt lat="45.95029" lon="4.74604">
        <ele>194</ele>
        <time>2017-03-15T09:46:31Z</time>
      </trkpt>
      <trkpt lat="45.95032" lon="4.7461">
        <ele>194</ele>
        <time>2017-03-15T09:46:32Z</time>
      </trkpt>
      <trkpt lat="45.95035" lon="4.74616">
        <ele>194</ele>
        <time>2017-03-15T09:46:33Z</time>
      </trkpt>
      <trkpt lat="45.95038" lon="4.74622">
        <ele>194</ele>
        <time>2017-03-15T09:46:34Z</time>
      </trkpt>
      <trkpt lat="45.95042" lon="4.74628">
        <ele>194</ele>
        <time>2017-03-15T09:46:35Z</time>
      </trkpt>
      <trkpt lat="45.95045" lon="4.74634">
        <ele>194</ele>
        <time>2017-03-15T09:46:36Z</time>
      </trkpt>
      <trkpt lat="45.95048" lon="4.7464">
        <ele>194</ele>
        <time>2017-03-15T09:46:37Z</time>
      </trkpt>
      <trkpt lat="45.95052" lon="4.74646">
        <ele>194</ele>
        <time>2017-03-15T09:46:38Z</time>
      </trkpt>
      <trkpt lat="45.95055" lon="4.74652">
        <ele>194</ele>
        <time>2017-03-15T09:46:39Z</time>
      </trkpt>
      <trkpt lat="45.95059" lon="4.74658">
        <ele>194</ele>
        <time>2017-03-15T09:46:40Z</time>
      </trkpt>
      <trkpt lat="45.95062" lon="4.74663">
        <ele>195</ele>
        <time>2017-03-15T09:46:41Z</time>
      </trkpt>
      <trkpt lat="45.95065" lon="4.74669">
        <ele>194</ele>
        <time>2017-03-15T09:46:42Z</time>
      </trkpt>
      <trkpt lat="45.95069" lon="4.74675">
        <ele>194</ele>
        <time>2017-03-15T09:46:43Z</time>
      </trkpt>
      <trkpt lat="45.95072" lon="4.74681">
        <ele>194</ele>
        <time>2017-03-15T09:46:44Z</time>
      </trkpt>
      <trkpt lat="45.95075" lon="4.74686">
        <ele>194</ele>
        <time>2017-03-15T09:46:45Z</time>
      </trkpt>
      <trkpt lat="45.95078" lon="4.74692">
        <ele>194</ele>
        <time>2017-03-15T09:46:46Z</time>
      </trkpt>
      <trkpt lat="45.95082" lon="4.74697">
        <ele>194</ele>
        <time>2017-03-15T09:46:47Z</time>
      </trkpt>
      <trkpt lat="45.95085" lon="4.74703">
        <ele>194</ele>
        <time>2017-03-15T09:46:48Z</time>
      </trkpt>
      <trkpt lat="45.95088" lon="4.74709">
        <ele>194</ele>
        <time>2017-03-15T09:46:49Z</time>
      </trkpt>
      <trkpt lat="45.95091" lon="4.74714">
        <ele>194</ele>
        <time>2017-03-15T09:46:50Z</time>
      </trkpt>
      <trkpt lat="45.95094" lon="4.7472">
        <ele>194</ele>
        <time>2017-03-15T09:46:51Z</time>
      </trkpt>
      <trkpt lat="45.95098" lon="4.74726">
        <ele>194</ele>
        <time>2017-03-15T09:46:52Z</time>
      </trkpt>
      <trkpt lat="45.95101" lon="4.74731">
        <ele>194</ele>
        <time>2017-03-15T09:46:53Z</time>
      </trkpt>
      <trkpt lat="45.95104" lon="4.74737">
        <ele>194</ele>
        <time>2017-03-15T09:46:54Z</time>
      </trkpt>
      <trkpt lat="45.95108" lon="4.74742">
        <ele>194</ele>
        <time>2017-03-15T09:46:55Z</time>
      </trkpt>
      <trkpt lat="45.95111" lon="4.74747">
        <ele>194</ele>
        <time>2017-03-15T09:46:56Z</time>
      </trkpt>
      <trkpt lat="45.95115" lon="4.74752">
        <ele>194</ele>
        <time>2017-03-15T09:46:57Z</time>
      </trkpt>
      <trkpt lat="45.95118" lon="4.74758">
        <ele>194</ele>
        <time>2017-03-15T09:46:58Z</time>
      </trkpt>
      <trkpt lat="45.95121" lon="4.74764">
        <ele>194</ele>
        <time>2017-03-15T09:46:59Z</time>
      </trkpt>
      <trkpt lat="45.95124" lon="4.7477">
        <ele>194</ele>
        <time>2017-03-15T09:47:00Z</time>
      </trkpt>
      <trkpt lat="45.95128" lon="4.74776">
        <ele>194</ele>
        <time>2017-03-15T09:47:01Z</time>
      </trkpt>
      <trkpt lat="45.95131" lon="4.74781">
        <ele>194</ele>
        <time>2017-03-15T09:47:02Z</time>
      </trkpt>
      <trkpt lat="45.95134" lon="4.74786">
        <ele>194</ele>
        <time>2017-03-15T09:47:03Z</time>
      </trkpt>
      <trkpt lat="45.95138" lon="4.74791">
        <ele>194</ele>
        <time>2017-03-15T09:47:04Z</time>
      </trkpt>
      <trkpt lat="45.95142" lon="4.74796">
        <ele>194</ele>
        <time>2017-03-15T09:47:05Z</time>
      </trkpt>
      <trkpt lat="45.95145" lon="4.74802">
        <ele>194</ele>
        <time>2017-03-15T09:47:06Z</time>
      </trkpt>
      <trkpt lat="45.95148" lon="4.74808">
        <ele>194</ele>
        <time>2017-03-15T09:47:07Z</time>
      </trkpt>
      <trkpt lat="45.95151" lon="4.74813">
        <ele>194</ele>
        <time>2017-03-15T09:47:08Z</time>
      </trkpt>
      <trkpt lat="45.95155" lon="4.74819">
        <ele>194</ele>
        <time>2017-03-15T09:47:09Z</time>
      </trkpt>
      <trkpt lat="45.95158" lon="4.74824">
        <ele>194</ele>
        <time>2017-03-15T09:47:10Z</time>
      </trkpt>
      <trkpt lat="45.95162" lon="4.7483">
        <ele>194</ele>
        <time>2017-03-15T09:47:11Z</time>
      </trkpt>
      <trkpt lat="45.95166" lon="4.74836">
        <ele>194</ele>
        <time>2017-03-15T09:47:12Z</time>
      </trkpt>
      <trkpt lat="45.95169" lon="4.74841">
        <ele>194</ele>
        <time>2017-03-15T09:47:13Z</time>
      </trkpt>
      <trkpt lat="45.95173" lon="4.74847">
        <ele>194</ele>
        <time>2017-03-15T09:47:14Z</time>
      </trkpt>
      <trkpt lat="45.95176" lon="4.74853">
        <ele>194</ele>
        <time>2017-03-15T09:47:15Z</time>
      </trkpt>
      <trkpt lat="45.9518" lon="4.74859">
        <ele>194</ele>
        <time>2017-03-15T09:47:16Z</time>
      </trkpt>
      <trkpt lat="45.95184" lon="4.74864">
        <ele>194</ele>
        <time>2017-03-15T09:47:17Z</time>
      </trkpt>
      <trkpt lat="45.95187" lon="4.7487">
        <ele>194</ele>
        <time>2017-03-15T09:47:18Z</time>
      </trkpt>
      <trkpt lat="45.95191" lon="4.74875">
        <ele>194</ele>
        <time>2017-03-15T09:47:19Z</time>
      </trkpt>
      <trkpt lat="45.95194" lon="4.74881">
        <ele>194</ele>
        <time>2017-03-15T09:47:20Z</time>
      </trkpt>
      <trkpt lat="45.95198" lon="4.74887">
        <ele>194</ele>
        <time>2017-03-15T09:47:21Z</time>
      </trkpt>
      <trkpt lat="45.95201" lon="4.74892">
        <ele>194</ele>
        <time>2017-03-15T09:47:22Z</time>
      </trkpt>
      <trkpt lat="45.95205" lon="4.74898">
        <ele>194</ele>
        <time>2017-03-15T09:47:23Z</time>
      </trkpt>
      <trkpt lat="45.95208" lon="4.74903">
        <ele>194</ele>
        <time>2017-03-15T09:47:24Z</time>
      </trkpt>
      <trkpt lat="45.95212" lon="4.74909">
        <ele>193</ele>
        <time>2017-03-15T09:47:25Z</time>
      </trkpt>
      <trkpt lat="45.95216" lon="4.74915">
        <ele>193</ele>
        <time>2017-03-15T09:47:26Z</time>
      </trkpt>
      <trkpt lat="45.95219" lon="4.7492">
        <ele>192</ele>
        <time>2017-03-15T09:47:27Z</time>
      </trkpt>
      <trkpt lat="45.95222" lon="4.74925">
        <ele>192</ele>
        <time>2017-03-15T09:47:28Z</time>
      </trkpt>
      <trkpt lat="45.95226" lon="4.7493">
        <ele>192</ele>
        <time>2017-03-15T09:47:29Z</time>
      </trkpt>
      <trkpt lat="45.9523" lon="4.74935">
        <ele>192</ele>
        <time>2017-03-15T09:47:30Z</time>
      </trkpt>
      <trkpt lat="45.95233" lon="4.74941">
        <ele>192</ele>
        <time>2017-03-15T09:47:31Z</time>
      </trkpt>
      <trkpt lat="45.95236" lon="4.74947">
        <ele>192</ele>
        <time>2017-03-15T09:47:32Z</time>
      </trkpt>
      <trkpt lat="45.9524" lon="4.74953">
        <ele>192</ele>
        <time>2017-03-15T09:47:33Z</time>
      </trkpt>
      <trkpt lat="45.95243" lon="4.74959">
        <ele>191</ele>
        <time>2017-03-15T09:47:34Z</time>
      </trkpt>
      <trkpt lat="45.95247" lon="4.74965">
        <ele>191</ele>
        <time>2017-03-15T09:47:35Z</time>
      </trkpt>
      <trkpt lat="45.9525" lon="4.74972">
        <ele>192</ele>
        <time>2017-03-15T09:47:36Z</time>
      </trkpt>
      <trkpt lat="45.95254" lon="4.74977">
        <ele>192</ele>
        <time>2017-03-15T09:47:37Z</time>
      </trkpt>
      <trkpt lat="45.95258" lon="4.74983">
        <ele>192</ele>
        <time>2017-03-15T09:47:38Z</time>
      </trkpt>
      <trkpt lat="45.95262" lon="4.74989">
        <ele>192</ele>
        <time>2017-03-15T09:47:39Z</time>
      </trkpt>
      <trkpt lat="45.95266" lon="4.74995">
        <ele>192</ele>
        <time>2017-03-15T09:47:40Z</time>
      </trkpt>
      <trkpt lat="45.9527" lon="4.75001">
        <ele>191</ele>
        <time>2017-03-15T09:47:41Z</time>
      </trkpt>
      <trkpt lat="45.95274" lon="4.75008">
        <ele>191</ele>
        <time>2017-03-15T09:47:42Z</time>
      </trkpt>
      <trkpt lat="45.95278" lon="4.75014">
        <ele>191</ele>
        <time>2017-03-15T09:47:43Z</time>
      </trkpt>
      <trkpt lat="45.95282" lon="4.7502">
        <ele>191</ele>
        <time>2017-03-15T09:47:44Z</time>
      </trkpt>
      <trkpt lat="45.95286" lon="4.75026">
        <ele>191</ele>
        <time>2017-03-15T09:47:45Z</time>
      </trkpt>
      <trkpt lat="45.9529" lon="4.75032">
        <ele>191</ele>
        <time>2017-03-15T09:47:46Z</time>
      </trkpt>
      <trkpt lat="45.95293" lon="4.75038">
        <ele>191</ele>
        <time>2017-03-15T09:47:47Z</time>
      </trkpt>
      <trkpt lat="45.95297" lon="4.75044">
        <ele>191</ele>
        <time>2017-03-15T09:47:48Z</time>
      </trkpt>
      <trkpt lat="45.95301" lon="4.75049">
        <ele>191</ele>
        <time>2017-03-15T09:47:49Z</time>
      </trkpt>
      <trkpt lat="45.95305" lon="4.75055">
        <ele>191</ele>
        <time>2017-03-15T09:47:50Z</time>
      </trkpt>
      <trkpt lat="45.95309" lon="4.75061">
        <ele>192</ele>
        <time>2017-03-15T09:47:51Z</time>
      </trkpt>
      <trkpt lat="45.95313" lon="4.75067">
        <ele>192</ele>
        <time>2017-03-15T09:47:52Z</time>
      </trkpt>
      <trkpt lat="45.95317" lon="4.75073">
        <ele>192</ele>
        <time>2017-03-15T09:47:53Z</time>
      </trkpt>
      <trkpt lat="45.95321" lon="4.75079">
        <ele>192</ele>
        <time>2017-03-15T09:47:54Z</time>
      </trkpt>
      <trkpt lat="45.95324" lon="4.75086">
        <ele>191</ele>
        <time>2017-03-15T09:47:55Z</time>
      </trkpt>
      <trkpt lat="45.95328" lon="4.75092">
        <ele>191</ele>
        <time>2017-03-15T09:47:56Z</time>
      </trkpt>
      <trkpt lat="45.95332" lon="4.75098">
        <ele>191</ele>
        <time>2017-03-15T09:47:57Z</time>
      </trkpt>
      <trkpt lat="45.95336" lon="4.75105">
        <ele>192</ele>
        <time>2017-03-15T09:47:58Z</time>
      </trkpt>
      <trkpt lat="45.9534" lon="4.75111">
        <ele>192</ele>
        <time>2017-03-15T09:47:59Z</time>
      </trkpt>
      <trkpt lat="45.95344" lon="4.75117">
        <ele>191</ele>
        <time>2017-03-15T09:48:00Z</time>
      </trkpt>
      <trkpt lat="45.95349" lon="4.75123">
        <ele>191</ele>
        <time>2017-03-15T09:48:01Z</time>
      </trkpt>
      <trkpt lat="45.95352" lon="4.7513">
        <ele>191</ele>
        <time>2017-03-15T09:48:02Z</time>
      </trkpt>
      <trkpt lat="45.95356" lon="4.75137">
        <ele>191</ele>
        <time>2017-03-15T09:48:03Z</time>
      </trkpt>
      <trkpt lat="45.9536" lon="4.75143">
        <ele>191</ele>
        <time>2017-03-15T09:48:04Z</time>
      </trkpt>
      <trkpt lat="45.95364" lon="4.7515">
        <ele>191</ele>
        <time>2017-03-15T09:48:05Z</time>
      </trkpt>
      <trkpt lat="45.95369" lon="4.75157">
        <ele>191</ele>
        <time>2017-03-15T09:48:06Z</time>
      </trkpt>
      <trkpt lat="45.95373" lon="4.75163">
        <ele>191</ele>
        <time>2017-03-15T09:48:07Z</time>
      </trkpt>
      <trkpt lat="45.95377" lon="4.7517">
        <ele>189</ele>
        <time>2017-03-15T09:48:08Z</time>
      </trkpt>
      <trkpt lat="45.95381" lon="4.75176">
        <ele>189</ele>
        <time>2017-03-15T09:48:09Z</time>
      </trkpt>
      <trkpt lat="45.95385" lon="4.75182">
        <ele>189</ele>
        <time>2017-03-15T09:48:10Z</time>
      </trkpt>
      <trkpt lat="45.95388" lon="4.75188">
        <ele>189</ele>
        <time>2017-03-15T09:48:11Z</time>
      </trkpt>
      <trkpt lat="45.95392" lon="4.75195">
        <ele>189</ele>
        <time>2017-03-15T09:48:12Z</time>
      </trkpt>
      <trkpt lat="45.95396" lon="4.75201">
        <ele>189</ele>
        <time>2017-03-15T09:48:13Z</time>
      </trkpt>
      <trkpt lat="45.95399" lon="4.75207">
        <ele>189</ele>
        <time>2017-03-15T09:48:14Z</time>
      </trkpt>
      <trkpt lat="45.95403" lon="4.75213">
        <ele>189</ele>
        <time>2017-03-15T09:48:15Z</time>
      </trkpt>
      <trkpt lat="45.95406" lon="4.7522">
        <ele>188</ele>
        <time>2017-03-15T09:48:16Z</time>
      </trkpt>
      <trkpt lat="45.9541" lon="4.75226">
        <ele>189</ele>
        <time>2017-03-15T09:48:17Z</time>
      </trkpt>
      <trkpt lat="45.95414" lon="4.75233">
        <ele>189</ele>
        <time>2017-03-15T09:48:18Z</time>
      </trkpt>
      <trkpt lat="45.95418" lon="4.7524">
        <ele>190</ele>
        <time>2017-03-15T09:48:19Z</time>
      </trkpt>
      <trkpt lat="45.95422" lon="4.75248">
        <ele>190</ele>
        <time>2017-03-15T09:48:20Z</time>
      </trkpt>
      <trkpt lat="45.95425" lon="4.75255">
        <ele>189</ele>
        <time>2017-03-15T09:48:21Z</time>
      </trkpt>
      <trkpt lat="45.95429" lon="4.75262">
        <ele>189</ele>
        <time>2017-03-15T09:48:22Z</time>
      </trkpt>
      <trkpt lat="45.95433" lon="4.7527">
        <ele>189</ele>
        <time>2017-03-15T09:48:23Z</time>
      </trkpt>
      <trkpt lat="45.95437" lon="4.75277">
        <ele>188</ele>
        <time>2017-03-15T09:48:24Z</time>
      </trkpt>
      <trkpt lat="45.95441" lon="4.75284">
        <ele>188</ele>
        <time>2017-03-15T09:48:25Z</time>
      </trkpt>
      <trkpt lat="45.95445" lon="4.75292">
        <ele>188</ele>
        <time>2017-03-15T09:48:26Z</time>
      </trkpt>
      <trkpt lat="45.95449" lon="4.75299">
        <ele>188</ele>
        <time>2017-03-15T09:48:27Z</time>
      </trkpt>
      <trkpt lat="45.95454" lon="4.75307">
        <ele>188</ele>
        <time>2017-03-15T09:48:28Z</time>
      </trkpt>
      <trkpt lat="45.95458" lon="4.75314">
        <ele>188</ele>
        <time>2017-03-15T09:48:29Z</time>
      </trkpt>
      <trkpt lat="45.95462" lon="4.75322">
        <ele>188</ele>
        <time>2017-03-15T09:48:30Z</time>
      </trkpt>
      <trkpt lat="45.95466" lon="4.75329">
        <ele>188</ele>
        <time>2017-03-15T09:48:31Z</time>
      </trkpt>
      <trkpt lat="45.9547" lon="4.75337">
        <ele>186</ele>
        <time>2017-03-15T09:48:32Z</time>
      </trkpt>
      <trkpt lat="45.95475" lon="4.75345">
        <ele>186</ele>
        <time>2017-03-15T09:48:33Z</time>
      </trkpt>
      <trkpt lat="45.95479" lon="4.75353">
        <ele>186</ele>
        <time>2017-03-15T09:48:34Z</time>
      </trkpt>
      <trkpt lat="45.95483" lon="4.7536">
        <ele>186</ele>
        <time>2017-03-15T09:48:35Z</time>
      </trkpt>
      <trkpt lat="45.95487" lon="4.75368">
        <ele>185</ele>
        <time>2017-03-15T09:48:36Z</time>
      </trkpt>
      <trkpt lat="45.9549" lon="4.75376">
        <ele>185</ele>
        <time>2017-03-15T09:48:37Z</time>
      </trkpt>
      <trkpt lat="45.95494" lon="4.75384">
        <ele>185</ele>
        <time>2017-03-15T09:48:38Z</time>
      </trkpt>
      <trkpt lat="45.95497" lon="4.75392">
        <ele>185</ele>
        <time>2017-03-15T09:48:39Z</time>
      </trkpt>
      <trkpt lat="45.955" lon="4.75401">
        <ele>185</ele>
        <time>2017-03-15T09:48:40Z</time>
      </trkpt>
      <trkpt lat="45.95502" lon="4.75409">
        <ele>186</ele>
        <time>2017-03-15T09:48:41Z</time>
      </trkpt>
      <trkpt lat="45.95504" lon="4.75418">
        <ele>185</ele>
        <time>2017-03-15T09:48:42Z</time>
      </trkpt>
      <trkpt lat="45.95506" lon="4.75428">
        <ele>186</ele>
        <time>2017-03-15T09:48:43Z</time>
      </trkpt>
      <trkpt lat="45.95507" lon="4.75437">
        <ele>186</ele>
        <time>2017-03-15T09:48:44Z</time>
      </trkpt>
      <trkpt lat="45.95508" lon="4.75447">
        <ele>186</ele>
        <time>2017-03-15T09:48:45Z</time>
      </trkpt>
      <trkpt lat="45.95508" lon="4.75457">
        <ele>186</ele>
        <time>2017-03-15T09:48:46Z</time>
      </trkpt>
      <trkpt lat="45.95507" lon="4.75466">
        <ele>186</ele>
        <time>2017-03-15T09:48:47Z</time>
      </trkpt>
      <trkpt lat="45.95507" lon="4.75476">
        <ele>186</ele>
        <time>2017-03-15T09:48:48Z</time>
      </trkpt>
      <trkpt lat="45.95508" lon="4.75485">
        <ele>186</ele>
        <time>2017-03-15T09:48:49Z</time>
      </trkpt>
      <trkpt lat="45.9551" lon="4.75493">
        <ele>185</ele>
        <time>2017-03-15T09:48:50Z</time>
      </trkpt>
      <trkpt lat="45.95514" lon="4.75499">
        <ele>186</ele>
        <time>2017-03-15T09:48:51Z</time>
      </trkpt>
      <trkpt lat="45.9552" lon="4.75503">
        <ele>185</ele>
        <time>2017-03-15T09:48:52Z</time>
      </trkpt>
      <trkpt lat="45.95525" lon="4.75506">
        <ele>185</ele>
        <time>2017-03-15T09:48:53Z</time>
      </trkpt>
      <trkpt lat="45.9553" lon="4.7551">
        <ele>185</ele>
        <time>2017-03-15T09:48:54Z</time>
      </trkpt>
      <trkpt lat="45.95535" lon="4.75515">
        <ele>186</ele>
        <time>2017-03-15T09:48:55Z</time>
      </trkpt>
      <trkpt lat="45.9554" lon="4.7552">
        <ele>186</ele>
        <time>2017-03-15T09:48:56Z</time>
      </trkpt>
      <trkpt lat="45.95545" lon="4.75525">
        <ele>186</ele>
        <time>2017-03-15T09:48:57Z</time>
      </trkpt>
      <trkpt lat="45.95551" lon="4.75531">
        <ele>186</ele>
        <time>2017-03-15T09:48:58Z</time>
      </trkpt>
      <trkpt lat="45.95556" lon="4.75535">
        <ele>186</ele>
        <time>2017-03-15T09:48:59Z</time>
      </trkpt>
      <trkpt lat="45.95561" lon="4.7554">
        <ele>186</ele>
        <time>2017-03-15T09:49:00Z</time>
      </trkpt>
      <trkpt lat="45.95566" lon="4.75544">
        <ele>186</ele>
        <time>2017-03-15T09:49:01Z</time>
      </trkpt>
      <trkpt lat="45.9557" lon="4.75549">
        <ele>186</ele>
        <time>2017-03-15T09:49:02Z</time>
      </trkpt>
      <trkpt lat="45.95575" lon="4.75554">
        <ele>186</ele>
        <time>2017-03-15T09:49:03Z</time>
      </trkpt>
      <trkpt lat="45.95579" lon="4.75558">
        <ele>186</ele>
        <time>2017-03-15T09:49:04Z</time>
      </trkpt>
      <trkpt lat="45.95583" lon="4.75563">
        <ele>186</ele>
        <time>2017-03-15T09:49:05Z</time>
      </trkpt>
      <trkpt lat="45.95586" lon="4.75569">
        <ele>188</ele>
        <time>2017-03-15T09:49:06Z</time>
      </trkpt>
      <trkpt lat="45.9559" lon="4.75575">
        <ele>187</ele>
        <time>2017-03-15T09:49:07Z</time>
      </trkpt>
      <trkpt lat="45.95593" lon="4.75581">
        <ele>187</ele>
        <time>2017-03-15T09:49:08Z</time>
      </trkpt>
      <trkpt lat="45.95596" lon="4.75587">
        <ele>187</ele>
        <time>2017-03-15T09:49:09Z</time>
      </trkpt>
      <trkpt lat="45.95599" lon="4.75593">
        <ele>187</ele>
        <time>2017-03-15T09:49:10Z</time>
      </trkpt>
      <trkpt lat="45.95602" lon="4.756">
        <ele>187</ele>
        <time>2017-03-15T09:49:11Z</time>
      </trkpt>
      <trkpt lat="45.95604" lon="4.75607">
        <ele>187</ele>
        <time>2017-03-15T09:49:12Z</time>
      </trkpt>
      <trkpt lat="45.95606" lon="4.75614">
        <ele>188</ele>
        <time>2017-03-15T09:49:13Z</time>
      </trkpt>
      <trkpt lat="45.95608" lon="4.75621">
        <ele>188</ele>
        <time>2017-03-15T09:49:14Z</time>
      </trkpt>
      <trkpt lat="45.9561" lon="4.75629">
        <ele>188</ele>
        <time>2017-03-15T09:49:15Z</time>
      </trkpt>
      <trkpt lat="45.95612" lon="4.75636">
        <ele>188</ele>
        <time>2017-03-15T09:49:16Z</time>
      </trkpt>
      <trkpt lat="45.95613" lon="4.75643">
        <ele>188</ele>
        <time>2017-03-15T09:49:17Z</time>
      </trkpt>
      <trkpt lat="45.95615" lon="4.75651">
        <ele>188</ele>
        <time>2017-03-15T09:49:18Z</time>
      </trkpt>
      <trkpt lat="45.95616" lon="4.75658">
        <ele>188</ele>
        <time>2017-03-15T09:49:19Z</time>
      </trkpt>
      <trkpt lat="45.95617" lon="4.75666">
        <ele>188</ele>
        <time>2017-03-15T09:49:20Z</time>
      </trkpt>
      <trkpt lat="45.95618" lon="4.75673">
        <ele>187</ele>
        <time>2017-03-15T09:49:21Z</time>
      </trkpt>
      <trkpt lat="45.9562" lon="4.75681">
        <ele>187</ele>
        <time>2017-03-15T09:49:22Z</time>
      </trkpt>
      <trkpt lat="45.95621" lon="4.75689">
        <ele>187</ele>
        <time>2017-03-15T09:49:23Z</time>
      </trkpt>
      <trkpt lat="45.95622" lon="4.75696">
        <ele>187</ele>
        <time>2017-03-15T09:49:24Z</time>
      </trkpt>
      <trkpt lat="45.95623" lon="4.75704">
        <ele>187</ele>
        <time>2017-03-15T09:49:25Z</time>
      </trkpt>
      <trkpt lat="45.95624" lon="4.75711">
        <ele>187</ele>
        <time>2017-03-15T09:49:26Z</time>
      </trkpt>
      <trkpt lat="45.95625" lon="4.75719">
        <ele>187</ele>
        <time>2017-03-15T09:49:27Z</time>
      </trkpt>
      <trkpt lat="45.95626" lon="4.75726">
        <ele>187</ele>
        <time>2017-03-15T09:49:28Z</time>
      </trkpt>
      <trkpt lat="45.95627" lon="4.75733">
        <ele>187</ele>
        <time>2017-03-15T09:49:29Z</time>
      </trkpt>
      <trkpt lat="45.95628" lon="4.7574">
        <ele>187</ele>
        <time>2017-03-15T09:49:30Z</time>
      </trkpt>
      <trkpt lat="45.95629" lon="4.75747">
        <ele>187</ele>
        <time>2017-03-15T09:49:31Z</time>
      </trkpt>
      <trkpt lat="45.9563" lon="4.75755">
        <ele>186</ele>
        <time>2017-03-15T09:49:32Z</time>
      </trkpt>
      <trkpt lat="45.95631" lon="4.75762">
        <ele>186</ele>
        <time>2017-03-15T09:49:33Z</time>
      </trkpt>
      <trkpt lat="45.95632" lon="4.7577">
        <ele>185</ele>
        <time>2017-03-15T09:49:34Z</time>
      </trkpt>
      <trkpt lat="45.95633" lon="4.75778">
        <ele>185</ele>
        <time>2017-03-15T09:49:35Z</time>
      </trkpt>
      <trkpt lat="45.95634" lon="4.75786">
        <ele>185</ele>
        <time>2017-03-15T09:49:36Z</time>
      </trkpt>
      <trkpt lat="45.95635" lon="4.75794">
        <ele>185</ele>
        <time>2017-03-15T09:49:37Z</time>
      </trkpt>
      <trkpt lat="45.95637" lon="4.75802">
        <ele>185</ele>
        <time>2017-03-15T09:49:38Z</time>
      </trkpt>
      <trkpt lat="45.95638" lon="4.7581">
        <ele>185</ele>
        <time>2017-03-15T09:49:39Z</time>
      </trkpt>
      <trkpt lat="45.9564" lon="4.75818">
        <ele>185</ele>
        <time>2017-03-15T09:49:40Z</time>
      </trkpt>
      <trkpt lat="45.95642" lon="4.75826">
        <ele>185</ele>
        <time>2017-03-15T09:49:41Z</time>
      </trkpt>
      <trkpt lat="45.95644" lon="4.75833">
        <ele>185</ele>
        <time>2017-03-15T09:49:42Z</time>
      </trkpt>
      <trkpt lat="45.95646" lon="4.75841">
        <ele>184</ele>
        <time>2017-03-15T09:49:43Z</time>
      </trkpt>
      <trkpt lat="45.95648" lon="4.75848">
        <ele>184</ele>
        <time>2017-03-15T09:49:44Z</time>
      </trkpt>
      <trkpt lat="45.9565" lon="4.75856">
        <ele>184</ele>
        <time>2017-03-15T09:49:45Z</time>
      </trkpt>
      <trkpt lat="45.95652" lon="4.75864">
        <ele>184</ele>
        <time>2017-03-15T09:49:46Z</time>
      </trkpt>
      <trkpt lat="45.95655" lon="4.75872">
        <ele>184</ele>
        <time>2017-03-15T09:49:47Z</time>
      </trkpt>
      <trkpt lat="45.95658" lon="4.7588">
        <ele>184</ele>
        <time>2017-03-15T09:49:48Z</time>
      </trkpt>
      <trkpt lat="45.95661" lon="4.75887">
        <ele>184</ele>
        <time>2017-03-15T09:49:49Z</time>
      </trkpt>
      <trkpt lat="45.95664" lon="4.75895">
        <ele>184</ele>
        <time>2017-03-15T09:49:50Z</time>
      </trkpt>
      <trkpt lat="45.95667" lon="4.75903">
        <ele>184</ele>
        <time>2017-03-15T09:49:51Z</time>
      </trkpt>
      <trkpt lat="45.9567" lon="4.75911">
        <ele>185</ele>
        <time>2017-03-15T09:49:52Z</time>
      </trkpt>
      <trkpt lat="45.95673" lon="4.75919">
        <ele>184</ele>
        <time>2017-03-15T09:49:53Z</time>
      </trkpt>
      <trkpt lat="45.95676" lon="4.75927">
        <ele>185</ele>
        <time>2017-03-15T09:49:54Z</time>
      </trkpt>
      <trkpt lat="45.9568" lon="4.75935">
        <ele>185</ele>
        <time>2017-03-15T09:49:55Z</time>
      </trkpt>
      <trkpt lat="45.95683" lon="4.75942">
        <ele>185</ele>
        <time>2017-03-15T09:49:56Z</time>
      </trkpt>
      <trkpt lat="45.95687" lon="4.75949">
        <ele>185</ele>
        <time>2017-03-15T09:49:57Z</time>
      </trkpt>
      <trkpt lat="45.9569" lon="4.75956">
        <ele>185</ele>
        <time>2017-03-15T09:49:58Z</time>
      </trkpt>
      <trkpt lat="45.95693" lon="4.75963">
        <ele>185</ele>
        <time>2017-03-15T09:49:59Z</time>
      </trkpt>
      <trkpt lat="45.95695" lon="4.75969">
        <ele>185</ele>
        <time>2017-03-15T09:50:00Z</time>
      </trkpt>
      <trkpt lat="45.95698" lon="4.75976">
        <ele>185</ele>
        <time>2017-03-15T09:50:01Z</time>
      </trkpt>
      <trkpt lat="45.95701" lon="4.75982">
        <ele>185</ele>
        <time>2017-03-15T09:50:02Z</time>
      </trkpt>
      <trkpt lat="45.95704" lon="4.75989">
        <ele>185</ele>
        <time>2017-03-15T09:50:03Z</time>
      </trkpt>
      <trkpt lat="45.95707" lon="4.75995">
        <ele>185</ele>
        <time>2017-03-15T09:50:04Z</time>
      </trkpt>
      <trkpt lat="45.9571" lon="4.76002">
        <ele>184</ele>
        <time>2017-03-15T09:50:05Z</time>
      </trkpt>
      <trkpt lat="45.95713" lon="4.76008">
        <ele>184</ele>
        <time>2017-03-15T09:50:06Z</time>
      </trkpt>
      <trkpt lat="45.95716" lon="4.76014">
        <ele>184</ele>
        <time>2017-03-15T09:50:07Z</time>
      </trkpt>
      <trkpt lat="45.95719" lon="4.76021">
        <ele>184</ele>
        <time>2017-03-15T09:50:08Z</time>
      </trkpt>
      <trkpt lat="45.95722" lon="4.76028">
        <ele>184</ele>
        <time>2017-03-15T09:50:09Z</time>
      </trkpt>
      <trkpt lat="45.95725" lon="4.76034">
        <ele>184</ele>
        <time>2017-03-15T09:50:10Z</time>
      </trkpt>
      <trkpt lat="45.95728" lon="4.76041">
        <ele>184</ele>
        <time>2017-03-15T09:50:11Z</time>
      </trkpt>
      <trkpt lat="45.95731" lon="4.76048">
        <ele>184</ele>
        <time>2017-03-15T09:50:12Z</time>
      </trkpt>
      <trkpt lat="45.95734" lon="4.76055">
        <ele>184</ele>
        <time>2017-03-15T09:50:13Z</time>
      </trkpt>
      <trkpt lat="45.95737" lon="4.76062">
        <ele>184</ele>
        <time>2017-03-15T09:50:14Z</time>
      </trkpt>
      <trkpt lat="45.9574" lon="4.76069">
        <ele>185</ele>
        <time>2017-03-15T09:50:15Z</time>
      </trkpt>
      <trkpt lat="45.95743" lon="4.76076">
        <ele>185</ele>
        <time>2017-03-15T09:50:16Z</time>
      </trkpt>
      <trkpt lat="45.95745" lon="4.76082">
        <ele>185</ele>
        <time>2017-03-15T09:50:17Z</time>
      </trkpt>
      <trkpt lat="45.95748" lon="4.76088">
        <ele>185</ele>
        <time>2017-03-15T09:50:18Z</time>
      </trkpt>
      <trkpt lat="45.9575" lon="4.76095">
        <ele>185</ele>
        <time>2017-03-15T09:50:19Z</time>
      </trkpt>
      <trkpt lat="45.95752" lon="4.76101">
        <ele>186</ele>
        <time>2017-03-15T09:50:20Z</time>
      </trkpt>
      <trkpt lat="45.95753" lon="4.76108">
        <ele>186</ele>
        <time>2017-03-15T09:50:21Z</time>
      </trkpt>
      <trkpt lat="45.95754" lon="4.76115">
        <ele>186</ele>
        <time>2017-03-15T09:50:22Z</time>
      </trkpt>
      <trkpt lat="45.95755" lon="4.76122">
        <ele>186</ele>
        <time>2017-03-15T09:50:23Z</time>
      </trkpt>
      <trkpt lat="45.95756" lon="4.76129">
        <ele>186</ele>
        <time>2017-03-15T09:50:24Z</time>
      </trkpt>
      <trkpt lat="45.95757" lon="4.76137">
        <ele>186</ele>
        <time>2017-03-15T09:50:25Z</time>
      </trkpt>
      <trkpt lat="45.95758" lon="4.76144">
        <ele>186</ele>
        <time>2017-03-15T09:50:26Z</time>
      </trkpt>
      <trkpt lat="45.95759" lon="4.76152">
        <ele>186</ele>
        <time>2017-03-15T09:50:27Z</time>
      </trkpt>
      <trkpt lat="45.95759" lon="4.76159">
        <ele>186</ele>
        <time>2017-03-15T09:50:28Z</time>
      </trkpt>
      <trkpt lat="45.9576" lon="4.76167">
        <ele>185</ele>
        <time>2017-03-15T09:50:29Z</time>
      </trkpt>
      <trkpt lat="45.9576" lon="4.76175">
        <ele>185</ele>
        <time>2017-03-15T09:50:30Z</time>
      </trkpt>
      <trkpt lat="45.9576" lon="4.76182">
        <ele>186</ele>
        <time>2017-03-15T09:50:31Z</time>
      </trkpt>
      <trkpt lat="45.9576" lon="4.7619">
        <ele>186</ele>
        <time>2017-03-15T09:50:32Z</time>
      </trkpt>
      <trkpt lat="45.95761" lon="4.76197">
        <ele>186</ele>
        <time>2017-03-15T09:50:33Z</time>
      </trkpt>
      <trkpt lat="45.95761" lon="4.76204">
        <ele>186</ele>
        <time>2017-03-15T09:50:34Z</time>
      </trkpt>
      <trkpt lat="45.95761" lon="4.76212">
        <ele>186</ele>
        <time>2017-03-15T09:50:35Z</time>
      </trkpt>
      <trkpt lat="45.95761" lon="4.76219">
        <ele>186</ele>
        <time>2017-03-15T09:50:36Z</time>
      </trkpt>
      <trkpt lat="45.95762" lon="4.76227">
        <ele>186</ele>
        <time>2017-03-15T09:50:37Z</time>
      </trkpt>
      <trkpt lat="45.95763" lon="4.76234">
        <ele>186</ele>
        <time>2017-03-15T09:50:38Z</time>
      </trkpt>
      <trkpt lat="45.95763" lon="4.76242">
        <ele>185</ele>
        <time>2017-03-15T09:50:39Z</time>
      </trkpt>
      <trkpt lat="45.95763" lon="4.76249">
        <ele>185</ele>
        <time>2017-03-15T09:50:40Z</time>
      </trkpt>
      <trkpt lat="45.95763" lon="4.76256">
        <ele>185</ele>
        <time>2017-03-15T09:50:41Z</time>
      </trkpt>
      <trkpt lat="45.95763" lon="4.76263">
        <ele>185</ele>
        <time>2017-03-15T09:50:42Z</time>
      </trkpt>
      <trkpt lat="45.95763" lon="4.7627">
        <ele>185</ele>
        <time>2017-03-15T09:50:43Z</time>
      </trkpt>
      <trkpt lat="45.95764" lon="4.76278">
        <ele>186</ele>
        <time>2017-03-15T09:50:44Z</time>
      </trkpt>
      <trkpt lat="45.95764" lon="4.76285">
        <ele>186</ele>
        <time>2017-03-15T09:50:45Z</time>
      </trkpt>
      <trkpt lat="45.95764" lon="4.76292">
        <ele>186</ele>
        <time>2017-03-15T09:50:46Z</time>
      </trkpt>
      <trkpt lat="45.95765" lon="4.76299">
        <ele>186</ele>
        <time>2017-03-15T09:50:47Z</time>
      </trkpt>
      <trkpt lat="45.95765" lon="4.76306">
        <ele>185</ele>
        <time>2017-03-15T09:50:48Z</time>
      </trkpt>
      <trkpt lat="45.95766" lon="4.76314">
        <ele>185</ele>
        <time>2017-03-15T09:50:49Z</time>
      </trkpt>
      <trkpt lat="45.95766" lon="4.76321">
        <ele>185</ele>
        <time>2017-03-15T09:50:50Z</time>
      </trkpt>
      <trkpt lat="45.95766" lon="4.76329">
        <ele>185</ele>
        <time>2017-03-15T09:50:51Z</time>
      </trkpt>
      <trkpt lat="45.95767" lon="4.76337">
        <ele>185</ele>
        <time>2017-03-15T09:50:52Z</time>
      </trkpt>
      <trkpt lat="45.95767" lon="4.76344">
        <ele>186</ele>
        <time>2017-03-15T09:50:53Z</time>
      </trkpt>
      <trkpt lat="45.95768" lon="4.76352">
        <ele>186</ele>
        <time>2017-03-15T09:50:54Z</time>
      </trkpt>
      <trkpt lat="45.95768" lon="4.76359">
        <ele>186</ele>
        <time>2017-03-15T09:50:55Z</time>
      </trkpt>
      <trkpt lat="45.95768" lon="4.76367">
        <ele>186</ele>
        <time>2017-03-15T09:50:56Z</time>
      </trkpt>
      <trkpt lat="45.95769" lon="4.76374">
        <ele>186</ele>
        <time>2017-03-15T09:50:57Z</time>
      </trkpt>
      <trkpt lat="45.95769" lon="4.76381">
        <ele>186</ele>
        <time>2017-03-15T09:50:58Z</time>
      </trkpt>
      <trkpt lat="45.9577" lon="4.76389">
        <ele>186</ele>
        <time>2017-03-15T09:50:59Z</time>
      </trkpt>
      <trkpt lat="45.95771" lon="4.76397">
        <ele>186</ele>
        <time>2017-03-15T09:51:00Z</time>
      </trkpt>
      <trkpt lat="45.95772" lon="4.76404">
        <ele>186</ele>
        <time>2017-03-15T09:51:01Z</time>
      </trkpt>
      <trkpt lat="45.95772" lon="4.76412">
        <ele>186</ele>
        <time>2017-03-15T09:51:02Z</time>
      </trkpt>
      <trkpt lat="45.95773" lon="4.76419">
        <ele>186</ele>
        <time>2017-03-15T09:51:03Z</time>
      </trkpt>
      <trkpt lat="45.95774" lon="4.76427">
        <ele>186</ele>
        <time>2017-03-15T09:51:04Z</time>
      </trkpt>
      <trkpt lat="45.95775" lon="4.76435">
        <ele>186</ele>
        <time>2017-03-15T09:51:05Z</time>
      </trkpt>
      <trkpt lat="45.95776" lon="4.76442">
        <ele>186</ele>
        <time>2017-03-15T09:51:06Z</time>
      </trkpt>
      <trkpt lat="45.95777" lon="4.7645">
        <ele>186</ele>
        <time>2017-03-15T09:51:07Z</time>
      </trkpt>
      <trkpt lat="45.95779" lon="4.76458">
        <ele>186</ele>
        <time>2017-03-15T09:51:08Z</time>
      </trkpt>
      <trkpt lat="45.95781" lon="4.76465">
        <ele>186</ele>
        <time>2017-03-15T09:51:09Z</time>
      </trkpt>
      <trkpt lat="45.95782" lon="4.76473">
        <ele>186</ele>
        <time>2017-03-15T09:51:10Z</time>
      </trkpt>
      <trkpt lat="45.95783" lon="4.76481">
        <ele>186</ele>
        <time>2017-03-15T09:51:11Z</time>
      </trkpt>
      <trkpt lat="45.95785" lon="4.76489">
        <ele>186</ele>
        <time>2017-03-15T09:51:12Z</time>
      </trkpt>
      <trkpt lat="45.95786" lon="4.76497">
        <ele>186</ele>
        <time>2017-03-15T09:51:13Z</time>
      </trkpt>
      <trkpt lat="45.95787" lon="4.76505">
        <ele>187</ele>
        <time>2017-03-15T09:51:14Z</time>
      </trkpt>
      <trkpt lat="45.95788" lon="4.76513">
        <ele>187</ele>
        <time>2017-03-15T09:51:15Z</time>
      </trkpt>
      <trkpt lat="45.9579" lon="4.7652">
        <ele>187</ele>
        <time>2017-03-15T09:51:16Z</time>
      </trkpt>
      <trkpt lat="45.95791" lon="4.76528">
        <ele>187</ele>
        <time>2017-03-15T09:51:17Z</time>
      </trkpt>
      <trkpt lat="45.95792" lon="4.76536">
        <ele>187</ele>
        <time>2017-03-15T09:51:18Z</time>
      </trkpt>
      <trkpt lat="45.95793" lon="4.76544">
        <ele>187</ele>
        <time>2017-03-15T09:51:19Z</time>
      </trkpt>
      <trkpt lat="45.95794" lon="4.76552">
        <ele>187</ele>
        <time>2017-03-15T09:51:20Z</time>
      </trkpt>
      <trkpt lat="45.95795" lon="4.76559">
        <ele>187</ele>
        <time>2017-03-15T09:51:21Z</time>
      </trkpt>
      <trkpt lat="45.95796" lon="4.76566">
        <ele>187</ele>
        <time>2017-03-15T09:51:22Z</time>
      </trkpt>
      <trkpt lat="45.95797" lon="4.76573">
        <ele>187</ele>
        <time>2017-03-15T09:51:23Z</time>
      </trkpt>
      <trkpt lat="45.95798" lon="4.7658">
        <ele>187</ele>
        <time>2017-03-15T09:51:24Z</time>
      </trkpt>
      <trkpt lat="45.95799" lon="4.76588">
        <ele>187</ele>
        <time>2017-03-15T09:51:25Z</time>
      </trkpt>
      <trkpt lat="45.958" lon="4.76595">
        <ele>187</ele>
        <time>2017-03-15T09:51:26Z</time>
      </trkpt>
      <trkpt lat="45.95801" lon="4.76602">
        <ele>187</ele>
        <time>2017-03-15T09:51:27Z</time>
      </trkpt>
      <trkpt lat="45.95802" lon="4.76609">
        <ele>188</ele>
        <time>2017-03-15T09:51:28Z</time>
      </trkpt>
      <trkpt lat="45.95803" lon="4.76617">
        <ele>188</ele>
        <time>2017-03-15T09:51:29Z</time>
      </trkpt>
      <trkpt lat="45.95804" lon="4.76624">
        <ele>188</ele>
        <time>2017-03-15T09:51:30Z</time>
      </trkpt>
      <trkpt lat="45.95804" lon="4.76632">
        <ele>188</ele>
        <time>2017-03-15T09:51:31Z</time>
      </trkpt>
      <trkpt lat="45.95805" lon="4.76639">
        <ele>188</ele>
        <time>2017-03-15T09:51:32Z</time>
      </trkpt>
      <trkpt lat="45.95806" lon="4.76646">
        <ele>188</ele>
        <time>2017-03-15T09:51:33Z</time>
      </trkpt>
      <trkpt lat="45.95807" lon="4.76653">
        <ele>188</ele>
        <time>2017-03-15T09:51:34Z</time>
      </trkpt>
      <trkpt lat="45.95808" lon="4.7666">
        <ele>188</ele>
        <time>2017-03-15T09:51:35Z</time>
      </trkpt>
      <trkpt lat="45.95809" lon="4.76667">
        <ele>189</ele>
        <time>2017-03-15T09:51:36Z</time>
      </trkpt>
      <trkpt lat="45.9581" lon="4.76675">
        <ele>189</ele>
        <time>2017-03-15T09:51:37Z</time>
      </trkpt>
      <trkpt lat="45.95812" lon="4.76682">
        <ele>189</ele>
        <time>2017-03-15T09:51:38Z</time>
      </trkpt>
      <trkpt lat="45.95813" lon="4.76689">
        <ele>189</ele>
        <time>2017-03-15T09:51:39Z</time>
      </trkpt>
      <trkpt lat="45.95814" lon="4.76697">
        <ele>189</ele>
        <time>2017-03-15T09:51:40Z</time>
      </trkpt>
      <trkpt lat="45.95815" lon="4.76704">
        <ele>189</ele>
        <time>2017-03-15T09:51:41Z</time>
      </trkpt>
      <trkpt lat="45.95817" lon="4.76711">
        <ele>189</ele>
        <time>2017-03-15T09:51:42Z</time>
      </trkpt>
      <trkpt lat="45.95818" lon="4.76718">
        <ele>189</ele>
        <time>2017-03-15T09:51:43Z</time>
      </trkpt>
      <trkpt lat="45.95819" lon="4.76726">
        <ele>190</ele>
        <time>2017-03-15T09:51:44Z</time>
      </trkpt>
      <trkpt lat="45.95819" lon="4.76733">
        <ele>190</ele>
        <time>2017-03-15T09:51:45Z</time>
      </trkpt>
      <trkpt lat="45.9582" lon="4.7674">
        <ele>190</ele>
        <time>2017-03-15T09:51:46Z</time>
      </trkpt>
      <trkpt lat="45.95821" lon="4.76746">
        <ele>190</ele>
        <time>2017-03-15T09:51:47Z</time>
      </trkpt>
      <trkpt lat="45.95822" lon="4.76753">
        <ele>191</ele>
        <time>2017-03-15T09:51:48Z</time>
      </trkpt>
      <trkpt lat="45.95823" lon="4.76759">
        <ele>190</ele>
        <time>2017-03-15T09:51:49Z</time>
      </trkpt>
      <trkpt lat="45.95824" lon="4.76766">
        <ele>190</ele>
        <time>2017-03-15T09:51:50Z</time>
      </trkpt>
      <trkpt lat="45.95825" lon="4.76773">
        <ele>190</ele>
        <time>2017-03-15T09:51:51Z</time>
      </trkpt>
      <trkpt lat="45.95826" lon="4.7678">
        <ele>190</ele>
        <time>2017-03-15T09:51:52Z</time>
      </trkpt>
      <trkpt lat="45.95827" lon="4.76787">
        <ele>190</ele>
        <time>2017-03-15T09:51:53Z</time>
      </trkpt>
      <trkpt lat="45.95827" lon="4.76795">
        <ele>190</ele>
        <time>2017-03-15T09:51:54Z</time>
      </trkpt>
      <trkpt lat="45.95828" lon="4.76803">
        <ele>190</ele>
        <time>2017-03-15T09:51:55Z</time>
      </trkpt>
      <trkpt lat="45.95827" lon="4.76811">
        <ele>190</ele>
        <time>2017-03-15T09:51:56Z</time>
      </trkpt>
      <trkpt lat="45.95826" lon="4.76818">
        <ele>190</ele>
        <time>2017-03-15T09:51:57Z</time>
      </trkpt>
      <trkpt lat="45.95825" lon="4.76825">
        <ele>190</ele>
        <time>2017-03-15T09:51:58Z</time>
      </trkpt>
      <trkpt lat="45.95824" lon="4.76833">
        <ele>190</ele>
        <time>2017-03-15T09:51:59Z</time>
      </trkpt>
      <trkpt lat="45.95822" lon="4.7684">
        <ele>190</ele>
        <time>2017-03-15T09:52:00Z</time>
      </trkpt>
      <trkpt lat="45.95821" lon="4.76848">
        <ele>190</ele>
        <time>2017-03-15T09:52:01Z</time>
      </trkpt>
      <trkpt lat="45.95819" lon="4.76856">
        <ele>189</ele>
        <time>2017-03-15T09:52:02Z</time>
      </trkpt>
      <trkpt lat="45.95817" lon="4.76863">
        <ele>189</ele>
        <time>2017-03-15T09:52:03Z</time>
      </trkpt>
      <trkpt lat="45.95815" lon="4.76871">
        <ele>189</ele>
        <time>2017-03-15T09:52:04Z</time>
      </trkpt>
      <trkpt lat="45.95814" lon="4.76878">
        <ele>189</ele>
        <time>2017-03-15T09:52:05Z</time>
      </trkpt>
      <trkpt lat="45.95813" lon="4.76885">
        <ele>189</ele>
        <time>2017-03-15T09:52:06Z</time>
      </trkpt>
      <trkpt lat="45.95811" lon="4.76892">
        <ele>189</ele>
        <time>2017-03-15T09:52:07Z</time>
      </trkpt>
      <trkpt lat="45.9581" lon="4.76899">
        <ele>189</ele>
        <time>2017-03-15T09:52:08Z</time>
      </trkpt>
      <trkpt lat="45.95808" lon="4.76905">
        <ele>189</ele>
        <time>2017-03-15T09:52:09Z</time>
      </trkpt>
      <trkpt lat="45.95807" lon="4.76912">
        <ele>189</ele>
        <time>2017-03-15T09:52:10Z</time>
      </trkpt>
      <trkpt lat="45.95805" lon="4.76919">
        <ele>189</ele>
        <time>2017-03-15T09:52:11Z</time>
      </trkpt>
      <trkpt lat="45.95804" lon="4.76926">
        <ele>189</ele>
        <time>2017-03-15T09:52:12Z</time>
      </trkpt>
      <trkpt lat="45.95803" lon="4.76932">
        <ele>189</ele>
        <time>2017-03-15T09:52:13Z</time>
      </trkpt>
      <trkpt lat="45.95802" lon="4.76939">
        <ele>189</ele>
        <time>2017-03-15T09:52:14Z</time>
      </trkpt>
      <trkpt lat="45.958" lon="4.76947">
        <ele>189</ele>
        <time>2017-03-15T09:52:15Z</time>
      </trkpt>
      <trkpt lat="45.95799" lon="4.76954">
        <ele>189</ele>
        <time>2017-03-15T09:52:16Z</time>
      </trkpt>
      <trkpt lat="45.95798" lon="4.76961">
        <ele>189</ele>
        <time>2017-03-15T09:52:17Z</time>
      </trkpt>
      <trkpt lat="45.95797" lon="4.76968">
        <ele>189</ele>
        <time>2017-03-15T09:52:18Z</time>
      </trkpt>
      <trkpt lat="45.95797" lon="4.76976">
        <ele>189</ele>
        <time>2017-03-15T09:52:19Z</time>
      </trkpt>
      <trkpt lat="45.95796" lon="4.76984">
        <ele>189</ele>
        <time>2017-03-15T09:52:20Z</time>
      </trkpt>
      <trkpt lat="45.95796" lon="4.76992">
        <ele>189</ele>
        <time>2017-03-15T09:52:21Z</time>
      </trkpt>
      <trkpt lat="45.95797" lon="4.76999">
        <ele>189</ele>
        <time>2017-03-15T09:52:22Z</time>
      </trkpt>
      <trkpt lat="45.95798" lon="4.77007">
        <ele>190</ele>
        <time>2017-03-15T09:52:23Z</time>
      </trkpt>
      <trkpt lat="45.958" lon="4.77014">
        <ele>190</ele>
        <time>2017-03-15T09:52:24Z</time>
      </trkpt>
      <trkpt lat="45.95802" lon="4.77022">
        <ele>190</ele>
        <time>2017-03-15T09:52:25Z</time>
      </trkpt>
      <trkpt lat="45.95805" lon="4.77029">
        <ele>190</ele>
        <time>2017-03-15T09:52:26Z</time>
      </trkpt>
      <trkpt lat="45.95809" lon="4.77036">
        <ele>190</ele>
        <time>2017-03-15T09:52:27Z</time>
      </trkpt>
      <trkpt lat="45.95812" lon="4.77044">
        <ele>190</ele>
        <time>2017-03-15T09:52:28Z</time>
      </trkpt>
      <trkpt lat="45.95816" lon="4.77051">
        <ele>190</ele>
        <time>2017-03-15T09:52:29Z</time>
      </trkpt>
      <trkpt lat="45.95819" lon="4.77058">
        <ele>190</ele>
        <time>2017-03-15T09:52:30Z</time>
      </trkpt>
      <trkpt lat="45.95821" lon="4.77064">
        <ele>191</ele>
        <time>2017-03-15T09:52:31Z</time>
      </trkpt>
      <trkpt lat="45.95824" lon="4.77071">
        <ele>191</ele>
        <time>2017-03-15T09:52:32Z</time>
      </trkpt>
      <trkpt lat="45.95826" lon="4.77077">
        <ele>191</ele>
        <time>2017-03-15T09:52:33Z</time>
      </trkpt>
      <trkpt lat="45.95828" lon="4.77084">
        <ele>191</ele>
        <time>2017-03-15T09:52:34Z</time>
      </trkpt>
      <trkpt lat="45.95831" lon="4.77091">
        <ele>191</ele>
        <time>2017-03-15T09:52:35Z</time>
      </trkpt>
      <trkpt lat="45.95833" lon="4.77097">
        <ele>191</ele>
        <time>2017-03-15T09:52:36Z</time>
      </trkpt>
      <trkpt lat="45.95836" lon="4.77104">
        <ele>193</ele>
        <time>2017-03-15T09:52:37Z</time>
      </trkpt>
      <trkpt lat="45.95838" lon="4.7711">
        <ele>193</ele>
        <time>2017-03-15T09:52:38Z</time>
      </trkpt>
      <trkpt lat="45.9584" lon="4.77116">
        <ele>193</ele>
        <time>2017-03-15T09:52:39Z</time>
      </trkpt>
      <trkpt lat="45.95842" lon="4.77122">
        <ele>193</ele>
        <time>2017-03-15T09:52:40Z</time>
      </trkpt>
      <trkpt lat="45.95842" lon="4.77128">
        <ele>193</ele>
        <time>2017-03-15T09:52:41Z</time>
      </trkpt>
      <trkpt lat="45.95843" lon="4.77135">
        <ele>193</ele>
        <time>2017-03-15T09:52:42Z</time>
      </trkpt>
      <trkpt lat="45.95845" lon="4.77141">
        <ele>192</ele>
        <time>2017-03-15T09:52:43Z</time>
      </trkpt>
      <trkpt lat="45.95847" lon="4.77148">
        <ele>192</ele>
        <time>2017-03-15T09:52:44Z</time>
      </trkpt>
      <trkpt lat="45.95849" lon="4.77154">
        <ele>192</ele>
        <time>2017-03-15T09:52:45Z</time>
      </trkpt>
      <trkpt lat="45.9585" lon="4.7716">
        <ele>192</ele>
        <time>2017-03-15T09:52:46Z</time>
      </trkpt>
      <trkpt lat="45.95852" lon="4.77167">
        <ele>192</ele>
        <time>2017-03-15T09:52:47Z</time>
      </trkpt>
      <trkpt lat="45.95854" lon="4.77173">
        <ele>192</ele>
        <time>2017-03-15T09:52:48Z</time>
      </trkpt>
      <trkpt lat="45.95856" lon="4.7718">
        <ele>192</ele>
        <time>2017-03-15T09:52:49Z</time>
      </trkpt>
      <trkpt lat="45.95858" lon="4.77187">
        <ele>192</ele>
        <time>2017-03-15T09:52:50Z</time>
      </trkpt>
      <trkpt lat="45.95861" lon="4.77194">
        <ele>192</ele>
        <time>2017-03-15T09:52:51Z</time>
      </trkpt>
      <trkpt lat="45.95862" lon="4.77201">
        <ele>192</ele>
        <time>2017-03-15T09:52:52Z</time>
      </trkpt>
      <trkpt lat="45.95864" lon="4.77208">
        <ele>193</ele>
        <time>2017-03-15T09:52:53Z</time>
      </trkpt>
      <trkpt lat="45.95866" lon="4.77215">
        <ele>193</ele>
        <time>2017-03-15T09:52:54Z</time>
      </trkpt>
      <trkpt lat="45.95867" lon="4.77223">
        <ele>193</ele>
        <time>2017-03-15T09:52:55Z</time>
      </trkpt>
      <trkpt lat="45.95869" lon="4.7723">
        <ele>193</ele>
        <time>2017-03-15T09:52:56Z</time>
      </trkpt>
      <trkpt lat="45.95871" lon="4.77237">
        <ele>193</ele>
        <time>2017-03-15T09:52:57Z</time>
      </trkpt>
      <trkpt lat="45.95873" lon="4.77243">
        <ele>193</ele>
        <time>2017-03-15T09:52:58Z</time>
      </trkpt>
      <trkpt lat="45.95874" lon="4.7725">
        <ele>193</ele>
        <time>2017-03-15T09:52:59Z</time>
      </trkpt>
      <trkpt lat="45.95876" lon="4.77257">
        <ele>193</ele>
        <time>2017-03-15T09:53:00Z</time>
      </trkpt>
      <trkpt lat="45.95877" lon="4.77264">
        <ele>193</ele>
        <time>2017-03-15T09:53:01Z</time>
      </trkpt>
      <trkpt lat="45.95878" lon="4.77271">
        <ele>193</ele>
        <time>2017-03-15T09:53:02Z</time>
      </trkpt>
      <trkpt lat="45.9588" lon="4.77277">
        <ele>193</ele>
        <time>2017-03-15T09:53:03Z</time>
      </trkpt>
      <trkpt lat="45.95881" lon="4.77284">
        <ele>193</ele>
        <time>2017-03-15T09:53:04Z</time>
      </trkpt>
      <trkpt lat="45.95883" lon="4.7729">
        <ele>193</ele>
        <time>2017-03-15T09:53:05Z</time>
      </trkpt>
      <trkpt lat="45.95884" lon="4.77297">
        <ele>193</ele>
        <time>2017-03-15T09:53:06Z</time>
      </trkpt>
      <trkpt lat="45.95886" lon="4.77303">
        <ele>193</ele>
        <time>2017-03-15T09:53:07Z</time>
      </trkpt>
      <trkpt lat="45.95888" lon="4.77309">
        <ele>193</ele>
        <time>2017-03-15T09:53:08Z</time>
      </trkpt>
      <trkpt lat="45.9589" lon="4.77316">
        <ele>193</ele>
        <time>2017-03-15T09:53:09Z</time>
      </trkpt>
      <trkpt lat="45.95892" lon="4.77322">
        <ele>193</ele>
        <time>2017-03-15T09:53:10Z</time>
      </trkpt>
      <trkpt lat="45.95895" lon="4.77328">
        <ele>193</ele>
        <time>2017-03-15T09:53:11Z</time>
      </trkpt>
      <trkpt lat="45.95897" lon="4.77334">
        <ele>193</ele>
        <time>2017-03-15T09:53:12Z</time>
      </trkpt>
      <trkpt lat="45.95899" lon="4.77341">
        <ele>193</ele>
        <time>2017-03-15T09:53:13Z</time>
      </trkpt>
      <trkpt lat="45.959" lon="4.77347">
        <ele>193</ele>
        <time>2017-03-15T09:53:14Z</time>
      </trkpt>
      <trkpt lat="45.95902" lon="4.77353">
        <ele>193</ele>
        <time>2017-03-15T09:53:15Z</time>
      </trkpt>
      <trkpt lat="45.95904" lon="4.77359">
        <ele>193</ele>
        <time>2017-03-15T09:53:16Z</time>
      </trkpt>
      <trkpt lat="45.95908" lon="4.7737">
        <ele>193</ele>
        <time>2017-03-15T09:53:18Z</time>
      </trkpt>
      <trkpt lat="45.9591" lon="4.77376">
        <ele>193</ele>
        <time>2017-03-15T09:53:19Z</time>
      </trkpt>
      <trkpt lat="45.95912" lon="4.77382">
        <ele>193</ele>
        <time>2017-03-15T09:53:20Z</time>
      </trkpt>
      <trkpt lat="45.95914" lon="4.77388">
        <ele>193</ele>
        <time>2017-03-15T09:53:21Z</time>
      </trkpt>
      <trkpt lat="45.95916" lon="4.77395">
        <ele>193</ele>
        <time>2017-03-15T09:53:22Z</time>
      </trkpt>
      <trkpt lat="45.95919" lon="4.77401">
        <ele>195</ele>
        <time>2017-03-15T09:53:23Z</time>
      </trkpt>
      <trkpt lat="45.95921" lon="4.77408">
        <ele>195</ele>
        <time>2017-03-15T09:53:24Z</time>
      </trkpt>
      <trkpt lat="45.95924" lon="4.77413">
        <ele>195</ele>
        <time>2017-03-15T09:53:25Z</time>
      </trkpt>
      <trkpt lat="45.95926" lon="4.77419">
        <ele>195</ele>
        <time>2017-03-15T09:53:26Z</time>
      </trkpt>
      <trkpt lat="45.95928" lon="4.77426">
        <ele>195</ele>
        <time>2017-03-15T09:53:27Z</time>
      </trkpt>
      <trkpt lat="45.9593" lon="4.77432">
        <ele>195</ele>
        <time>2017-03-15T09:53:28Z</time>
      </trkpt>
      <trkpt lat="45.95933" lon="4.77438">
        <ele>195</ele>
        <time>2017-03-15T09:53:29Z</time>
      </trkpt>
      <trkpt lat="45.95935" lon="4.77444">
        <ele>195</ele>
        <time>2017-03-15T09:53:30Z</time>
      </trkpt>
      <trkpt lat="45.95938" lon="4.7745">
        <ele>195</ele>
        <time>2017-03-15T09:53:31Z</time>
      </trkpt>
      <trkpt lat="45.9594" lon="4.77456">
        <ele>195</ele>
        <time>2017-03-15T09:53:32Z</time>
      </trkpt>
      <trkpt lat="45.95941" lon="4.77462">
        <ele>195</ele>
        <time>2017-03-15T09:53:33Z</time>
      </trkpt>
      <trkpt lat="45.95943" lon="4.77469">
        <ele>195</ele>
        <time>2017-03-15T09:53:34Z</time>
      </trkpt>
      <trkpt lat="45.95945" lon="4.77475">
        <ele>195</ele>
        <time>2017-03-15T09:53:35Z</time>
      </trkpt>
      <trkpt lat="45.95947" lon="4.7748">
        <ele>195</ele>
        <time>2017-03-15T09:53:36Z</time>
      </trkpt>
      <trkpt lat="45.95949" lon="4.77486">
        <ele>195</ele>
        <time>2017-03-15T09:53:37Z</time>
      </trkpt>
      <trkpt lat="45.95953" lon="4.77497">
        <ele>196</ele>
        <time>2017-03-15T09:53:39Z</time>
      </trkpt>
      <trkpt lat="45.95955" lon="4.77503">
        <ele>195</ele>
        <time>2017-03-15T09:53:40Z</time>
      </trkpt>
      <trkpt lat="45.9596" lon="4.77514">
        <ele>195</ele>
        <time>2017-03-15T09:53:42Z</time>
      </trkpt>
      <trkpt lat="45.95962" lon="4.77519">
        <ele>195</ele>
        <time>2017-03-15T09:53:43Z</time>
      </trkpt>
      <trkpt lat="45.95966" lon="4.7753">
        <ele>195</ele>
        <time>2017-03-15T09:53:45Z</time>
      </trkpt>
      <trkpt lat="45.95968" lon="4.77535">
        <ele>195</ele>
        <time>2017-03-15T09:53:46Z</time>
      </trkpt>
      <trkpt lat="45.95972" lon="4.77543">
        <ele>195</ele>
        <time>2017-03-15T09:53:48Z</time>
      </trkpt>
      <trkpt lat="45.95974" lon="4.77548">
        <ele>195</ele>
        <time>2017-03-15T09:53:49Z</time>
      </trkpt>
      <trkpt lat="45.95979" lon="4.77557">
        <ele>195</ele>
        <time>2017-03-15T09:53:51Z</time>
      </trkpt>
      <trkpt lat="45.95982" lon="4.77563">
        <ele>196</ele>
        <time>2017-03-15T09:53:52Z</time>
      </trkpt>
      <trkpt lat="45.95984" lon="4.77568">
        <ele>196</ele>
        <time>2017-03-15T09:53:53Z</time>
      </trkpt>
      <trkpt lat="45.95987" lon="4.77574">
        <ele>196</ele>
        <time>2017-03-15T09:53:54Z</time>
      </trkpt>
      <trkpt lat="45.9599" lon="4.77581">
        <ele>196</ele>
        <time>2017-03-15T09:53:55Z</time>
      </trkpt>
      <trkpt lat="45.95993" lon="4.77587">
        <ele>196</ele>
        <time>2017-03-15T09:53:56Z</time>
      </trkpt>
      <trkpt lat="45.95996" lon="4.77593">
        <ele>196</ele>
        <time>2017-03-15T09:53:57Z</time>
      </trkpt>
      <trkpt lat="45.95999" lon="4.77598">
        <ele>195</ele>
        <time>2017-03-15T09:53:58Z</time>
      </trkpt>
      <trkpt lat="45.96003" lon="4.77602">
        <ele>198</ele>
        <time>2017-03-15T09:53:59Z</time>
      </trkpt>
      <trkpt lat="45.96006" lon="4.77607">
        <ele>198</ele>
        <time>2017-03-15T09:54:00Z</time>
      </trkpt>
      <trkpt lat="45.96013" lon="4.77615">
        <ele>199</ele>
        <time>2017-03-15T09:54:02Z</time>
      </trkpt>
      <trkpt lat="45.96016" lon="4.77618">
        <ele>199</ele>
        <time>2017-03-15T09:54:03Z</time>
      </trkpt>
      <trkpt lat="45.96023" lon="4.77626">
        <ele>199</ele>
        <time>2017-03-15T09:54:05Z</time>
      </trkpt>
      <trkpt lat="45.96026" lon="4.7763">
        <ele>199</ele>
        <time>2017-03-15T09:54:06Z</time>
      </trkpt>
      <trkpt lat="45.96033" lon="4.77637">
        <ele>199</ele>
        <time>2017-03-15T09:54:08Z</time>
      </trkpt>
      <trkpt lat="45.96036" lon="4.7764">
        <ele>199</ele>
        <time>2017-03-15T09:54:09Z</time>
      </trkpt>
      <trkpt lat="45.96042" lon="4.77648">
        <ele>199</ele>
        <time>2017-03-15T09:54:11Z</time>
      </trkpt>
      <trkpt lat="45.96045" lon="4.77652">
        <ele>199</ele>
        <time>2017-03-15T09:54:12Z</time>
      </trkpt>
      <trkpt lat="45.96049" lon="4.77657">
        <ele>200</ele>
        <time>2017-03-15T09:54:13Z</time>
      </trkpt>
      <trkpt lat="45.96052" lon="4.77661">
        <ele>200</ele>
        <time>2017-03-15T09:54:14Z</time>
      </trkpt>
      <trkpt lat="45.96058" lon="4.7767">
        <ele>198</ele>
        <time>2017-03-15T09:54:16Z</time>
      </trkpt>
      <trkpt lat="45.96061" lon="4.77674">
        <ele>198</ele>
        <time>2017-03-15T09:54:17Z</time>
      </trkpt>
      <trkpt lat="45.96065" lon="4.77678">
        <ele>198</ele>
        <time>2017-03-15T09:54:18Z</time>
      </trkpt>
      <trkpt lat="45.96068" lon="4.77683">
        <ele>198</ele>
        <time>2017-03-15T09:54:19Z</time>
      </trkpt>
      <trkpt lat="45.96071" lon="4.77687">
        <ele>198</ele>
        <time>2017-03-15T09:54:20Z</time>
      </trkpt>
      <trkpt lat="45.96074" lon="4.77692">
        <ele>197</ele>
        <time>2017-03-15T09:54:21Z</time>
      </trkpt>
      <trkpt lat="45.96078" lon="4.77697">
        <ele>197</ele>
        <time>2017-03-15T09:54:22Z</time>
      </trkpt>
      <trkpt lat="45.96081" lon="4.77702">
        <ele>197</ele>
        <time>2017-03-15T09:54:23Z</time>
      </trkpt>
      <trkpt lat="45.96084" lon="4.77707">
        <ele>200</ele>
        <time>2017-03-15T09:54:24Z</time>
      </trkpt>
      <trkpt lat="45.96087" lon="4.77712">
        <ele>200</ele>
        <time>2017-03-15T09:54:25Z</time>
      </trkpt>
      <trkpt lat="45.9609" lon="4.77717">
        <ele>199</ele>
        <time>2017-03-15T09:54:26Z</time>
      </trkpt>
      <trkpt lat="45.96092" lon="4.77722">
        <ele>199</ele>
        <time>2017-03-15T09:54:27Z</time>
      </trkpt>
      <trkpt lat="45.96095" lon="4.77727">
        <ele>199</ele>
        <time>2017-03-15T09:54:28Z</time>
      </trkpt>
      <trkpt lat="45.96098" lon="4.77732">
        <ele>199</ele>
        <time>2017-03-15T09:54:29Z</time>
      </trkpt>
      <trkpt lat="45.96104" lon="4.77741">
        <ele>198</ele>
        <time>2017-03-15T09:54:31Z</time>
      </trkpt>
      <trkpt lat="45.96107" lon="4.77745">
        <ele>199</ele>
        <time>2017-03-15T09:54:32Z</time>
      </trkpt>
      <trkpt lat="45.96112" lon="4.77754">
        <ele>197</ele>
        <time>2017-03-15T09:54:34Z</time>
      </trkpt>
      <trkpt lat="45.96115" lon="4.77758">
        <ele>197</ele>
        <time>2017-03-15T09:54:35Z</time>
      </trkpt>
      <trkpt lat="45.9612" lon="4.77768">
        <ele>197</ele>
        <time>2017-03-15T09:54:37Z</time>
      </trkpt>
      <trkpt lat="45.96123" lon="4.77773">
        <ele>197</ele>
        <time>2017-03-15T09:54:38Z</time>
      </trkpt>
      <trkpt lat="45.96128" lon="4.77783">
        <ele>198</ele>
        <time>2017-03-15T09:54:40Z</time>
      </trkpt>
      <trkpt lat="45.96131" lon="4.77788">
        <ele>198</ele>
        <time>2017-03-15T09:54:41Z</time>
      </trkpt>
      <trkpt lat="45.96137" lon="4.77797">
        <ele>198</ele>
        <time>2017-03-15T09:54:43Z</time>
      </trkpt>
      <trkpt lat="45.9614" lon="4.77802">
        <ele>198</ele>
        <time>2017-03-15T09:54:44Z</time>
      </trkpt>
      <trkpt lat="45.96145" lon="4.77811">
        <ele>198</ele>
        <time>2017-03-15T09:54:46Z</time>
      </trkpt>
      <trkpt lat="45.96148" lon="4.77816">
        <ele>198</ele>
        <time>2017-03-15T09:54:47Z</time>
      </trkpt>
      <trkpt lat="45.96151" lon="4.77821">
        <ele>198</ele>
        <time>2017-03-15T09:54:48Z</time>
      </trkpt>
      <trkpt lat="45.96154" lon="4.77826">
        <ele>198</ele>
        <time>2017-03-15T09:54:49Z</time>
      </trkpt>
      <trkpt lat="45.96156" lon="4.77831">
        <ele>198</ele>
        <time>2017-03-15T09:54:50Z</time>
      </trkpt>
      <trkpt lat="45.96159" lon="4.77836">
        <ele>198</ele>
        <time>2017-03-15T09:54:51Z</time>
      </trkpt>
      <trkpt lat="45.96162" lon="4.77841">
        <ele>197</ele>
        <time>2017-03-15T09:54:52Z</time>
      </trkpt>
      <trkpt lat="45.96166" lon="4.77846">
        <ele>197</ele>
        <time>2017-03-15T09:54:53Z</time>
      </trkpt>
      <trkpt lat="45.96169" lon="4.77852">
        <ele>201</ele>
        <time>2017-03-15T09:54:54Z</time>
      </trkpt>
      <trkpt lat="45.96171" lon="4.77857">
        <ele>201</ele>
        <time>2017-03-15T09:54:55Z</time>
      </trkpt>
      <trkpt lat="45.96174" lon="4.77863">
        <ele>201</ele>
        <time>2017-03-15T09:54:56Z</time>
      </trkpt>
      <trkpt lat="45.96177" lon="4.77867">
        <ele>201</ele>
        <time>2017-03-15T09:54:57Z</time>
      </trkpt>
      <trkpt lat="45.9618" lon="4.77872">
        <ele>201</ele>
        <time>2017-03-15T09:54:58Z</time>
      </trkpt>
      <trkpt lat="45.96184" lon="4.77877">
        <ele>201</ele>
        <time>2017-03-15T09:54:59Z</time>
      </trkpt>
      <trkpt lat="45.9619" lon="4.77887">
        <ele>201</ele>
        <time>2017-03-15T09:55:01Z</time>
      </trkpt>
      <trkpt lat="45.96192" lon="4.77891">
        <ele>201</ele>
        <time>2017-03-15T09:55:02Z</time>
      </trkpt>
      <trkpt lat="45.96198" lon="4.77901">
        <ele>201</ele>
        <time>2017-03-15T09:55:04Z</time>
      </trkpt>
      <trkpt lat="45.96201" lon="4.77906">
        <ele>201</ele>
        <time>2017-03-15T09:55:05Z</time>
      </trkpt>
      <trkpt lat="45.96204" lon="4.77911">
        <ele>202</ele>
        <time>2017-03-15T09:55:06Z</time>
      </trkpt>
      <trkpt lat="45.96207" lon="4.77916">
        <ele>202</ele>
        <time>2017-03-15T09:55:07Z</time>
      </trkpt>
      <trkpt lat="45.9621" lon="4.77921">
        <ele>199</ele>
        <time>2017-03-15T09:55:08Z</time>
      </trkpt>
      <trkpt lat="45.96214" lon="4.77926">
        <ele>199</ele>
        <time>2017-03-15T09:55:09Z</time>
      </trkpt>
      <trkpt lat="45.96217" lon="4.77931">
        <ele>200</ele>
        <time>2017-03-15T09:55:10Z</time>
      </trkpt>
      <trkpt lat="45.96221" lon="4.77936">
        <ele>200</ele>
        <time>2017-03-15T09:55:11Z</time>
      </trkpt>
      <trkpt lat="45.96224" lon="4.7794">
        <ele>200</ele>
        <time>2017-03-15T09:55:12Z</time>
      </trkpt>
      <trkpt lat="45.96228" lon="4.77945">
        <ele>200</ele>
        <time>2017-03-15T09:55:13Z</time>
      </trkpt>
      <trkpt lat="45.96232" lon="4.7795">
        <ele>200</ele>
        <time>2017-03-15T09:55:14Z</time>
      </trkpt>
      <trkpt lat="45.96236" lon="4.77954">
        <ele>199</ele>
        <time>2017-03-15T09:55:15Z</time>
      </trkpt>
      <trkpt lat="45.96243" lon="4.77962">
        <ele>199</ele>
        <time>2017-03-15T09:55:17Z</time>
      </trkpt>
      <trkpt lat="45.96247" lon="4.77966">
        <ele>199</ele>
        <time>2017-03-15T09:55:18Z</time>
      </trkpt>
      <trkpt lat="45.9625" lon="4.77969">
        <ele>198</ele>
        <time>2017-03-15T09:55:19Z</time>
      </trkpt>
      <trkpt lat="45.96254" lon="4.77973">
        <ele>203</ele>
        <time>2017-03-15T09:55:20Z</time>
      </trkpt>
      <trkpt lat="45.96258" lon="4.77977">
        <ele>202</ele>
        <time>2017-03-15T09:55:21Z</time>
      </trkpt>
      <trkpt lat="45.96262" lon="4.7798">
        <ele>202</ele>
        <time>2017-03-15T09:55:22Z</time>
      </trkpt>
      <trkpt lat="45.96266" lon="4.77984">
        <ele>202</ele>
        <time>2017-03-15T09:55:23Z</time>
      </trkpt>
      <trkpt lat="45.9627" lon="4.77988">
        <ele>202</ele>
        <time>2017-03-15T09:55:24Z</time>
      </trkpt>
      <trkpt lat="45.96274" lon="4.77991">
        <ele>202</ele>
        <time>2017-03-15T09:55:25Z</time>
      </trkpt>
      <trkpt lat="45.96278" lon="4.77995">
        <ele>203</ele>
        <time>2017-03-15T09:55:26Z</time>
      </trkpt>
      <trkpt lat="45.96282" lon="4.77999">
        <ele>203</ele>
        <time>2017-03-15T09:55:27Z</time>
      </trkpt>
      <trkpt lat="45.96286" lon="4.78003">
        <ele>199</ele>
        <time>2017-03-15T09:55:28Z</time>
      </trkpt>
      <trkpt lat="45.96291" lon="4.78008">
        <ele>199</ele>
        <time>2017-03-15T09:55:29Z</time>
      </trkpt>
      <trkpt lat="45.96295" lon="4.78013">
        <ele>199</ele>
        <time>2017-03-15T09:55:30Z</time>
      </trkpt>
      <trkpt lat="45.963" lon="4.78017">
        <ele>199</ele>
        <time>2017-03-15T09:55:31Z</time>
      </trkpt>
      <trkpt lat="45.96303" lon="4.78022">
        <ele>199</ele>
        <time>2017-03-15T09:55:32Z</time>
      </trkpt>
      <trkpt lat="45.96307" lon="4.78027">
        <ele>200</ele>
        <time>2017-03-15T09:55:33Z</time>
      </trkpt>
      <trkpt lat="45.96312" lon="4.78032">
        <ele>199</ele>
        <time>2017-03-15T09:55:34Z</time>
      </trkpt>
      <trkpt lat="45.96316" lon="4.78037">
        <ele>199</ele>
        <time>2017-03-15T09:55:35Z</time>
      </trkpt>
      <trkpt lat="45.96321" lon="4.78042">
        <ele>199</ele>
        <time>2017-03-15T09:55:36Z</time>
      </trkpt>
      <trkpt lat="45.96325" lon="4.78047">
        <ele>199</ele>
        <time>2017-03-15T09:55:37Z</time>
      </trkpt>
      <trkpt lat="45.96329" lon="4.78052">
        <ele>199</ele>
        <time>2017-03-15T09:55:38Z</time>
      </trkpt>
      <trkpt lat="45.96333" lon="4.78057">
        <ele>199</ele>
        <time>2017-03-15T09:55:39Z</time>
      </trkpt>
      <trkpt lat="45.96338" lon="4.78061">
        <ele>202</ele>
        <time>2017-03-15T09:55:40Z</time>
      </trkpt>
      <trkpt lat="45.96342" lon="4.78066">
        <ele>201</ele>
        <time>2017-03-15T09:55:41Z</time>
      </trkpt>
      <trkpt lat="45.96346" lon="4.7807">
        <ele>201</ele>
        <time>2017-03-15T09:55:42Z</time>
      </trkpt>
      <trkpt lat="45.96351" lon="4.78074">
        <ele>201</ele>
        <time>2017-03-15T09:55:43Z</time>
      </trkpt>
      <trkpt lat="45.96355" lon="4.78078">
        <ele>202</ele>
        <time>2017-03-15T09:55:44Z</time>
      </trkpt>
      <trkpt lat="45.96359" lon="4.78083">
        <ele>202</ele>
        <time>2017-03-15T09:55:45Z</time>
      </trkpt>
      <trkpt lat="45.96362" lon="4.78087">
        <ele>199</ele>
        <time>2017-03-15T09:55:46Z</time>
      </trkpt>
      <trkpt lat="45.96366" lon="4.78091">
        <ele>199</ele>
        <time>2017-03-15T09:55:47Z</time>
      </trkpt>
      <trkpt lat="45.9637" lon="4.78095">
        <ele>199</ele>
        <time>2017-03-15T09:55:48Z</time>
      </trkpt>
      <trkpt lat="45.96375" lon="4.78099">
        <ele>200</ele>
        <time>2017-03-15T09:55:49Z</time>
      </trkpt>
      <trkpt lat="45.96379" lon="4.78103">
        <ele>200</ele>
        <time>2017-03-15T09:55:50Z</time>
      </trkpt>
      <trkpt lat="45.96383" lon="4.78106">
        <ele>200</ele>
        <time>2017-03-15T09:55:51Z</time>
      </trkpt>
      <trkpt lat="45.96387" lon="4.7811">
        <ele>200</ele>
        <time>2017-03-15T09:55:52Z</time>
      </trkpt>
      <trkpt lat="45.96391" lon="4.78114">
        <ele>200</ele>
        <time>2017-03-15T09:55:53Z</time>
      </trkpt>
      <trkpt lat="45.96394" lon="4.78118">
        <ele>200</ele>
        <time>2017-03-15T09:55:54Z</time>
      </trkpt>
      <trkpt lat="45.96398" lon="4.78121">
        <ele>200</ele>
        <time>2017-03-15T09:55:55Z</time>
      </trkpt>
      <trkpt lat="45.96402" lon="4.78125">
        <ele>200</ele>
        <time>2017-03-15T09:55:56Z</time>
      </trkpt>
      <trkpt lat="45.96406" lon="4.78129">
        <ele>199</ele>
        <time>2017-03-15T09:55:57Z</time>
      </trkpt>
      <trkpt lat="45.9641" lon="4.78132">
        <ele>199</ele>
        <time>2017-03-15T09:55:58Z</time>
      </trkpt>
      <trkpt lat="45.96414" lon="4.78136">
        <ele>199</ele>
        <time>2017-03-15T09:55:59Z</time>
      </trkpt>
      <trkpt lat="45.96418" lon="4.7814">
        <ele>203</ele>
        <time>2017-03-15T09:56:00Z</time>
      </trkpt>
      <trkpt lat="45.96422" lon="4.78144">
        <ele>203</ele>
        <time>2017-03-15T09:56:01Z</time>
      </trkpt>
      <trkpt lat="45.96426" lon="4.78148">
        <ele>202</ele>
        <time>2017-03-15T09:56:02Z</time>
      </trkpt>
      <trkpt lat="45.9643" lon="4.78152">
        <ele>202</ele>
        <time>2017-03-15T09:56:03Z</time>
      </trkpt>
      <trkpt lat="45.96434" lon="4.78156">
        <ele>202</ele>
        <time>2017-03-15T09:56:04Z</time>
      </trkpt>
      <trkpt lat="45.96438" lon="4.7816">
        <ele>202</ele>
        <time>2017-03-15T09:56:05Z</time>
      </trkpt>
      <trkpt lat="45.96442" lon="4.78164">
        <ele>203</ele>
        <time>2017-03-15T09:56:06Z</time>
      </trkpt>
      <trkpt lat="45.96446" lon="4.78168">
        <ele>199</ele>
        <time>2017-03-15T09:56:07Z</time>
      </trkpt>
      <trkpt lat="45.96451" lon="4.78172">
        <ele>199</ele>
        <time>2017-03-15T09:56:08Z</time>
      </trkpt>
      <trkpt lat="45.96455" lon="4.78176">
        <ele>200</ele>
        <time>2017-03-15T09:56:09Z</time>
      </trkpt>
      <trkpt lat="45.9646" lon="4.78179">
        <ele>200</ele>
        <time>2017-03-15T09:56:10Z</time>
      </trkpt>
      <trkpt lat="45.96464" lon="4.78183">
        <ele>200</ele>
        <time>2017-03-15T09:56:11Z</time>
      </trkpt>
      <trkpt lat="45.96469" lon="4.78186">
        <ele>200</ele>
        <time>2017-03-15T09:56:12Z</time>
      </trkpt>
      <trkpt lat="45.96474" lon="4.78189">
        <ele>200</ele>
        <time>2017-03-15T09:56:13Z</time>
      </trkpt>
      <trkpt lat="45.96479" lon="4.78192">
        <ele>200</ele>
        <time>2017-03-15T09:56:14Z</time>
      </trkpt>
      <trkpt lat="45.96483" lon="4.78195">
        <ele>200</ele>
        <time>2017-03-15T09:56:15Z</time>
      </trkpt>
      <trkpt lat="45.96487" lon="4.78198">
        <ele>200</ele>
        <time>2017-03-15T09:56:16Z</time>
      </trkpt>
      <trkpt lat="45.96495" lon="4.78203">
        <ele>200</ele>
        <time>2017-03-15T09:56:18Z</time>
      </trkpt>
      <trkpt lat="45.96499" lon="4.78208">
        <ele>200</ele>
        <time>2017-03-15T09:56:19Z</time>
      </trkpt>
      <trkpt lat="45.96503" lon="4.78213">
        <ele>205</ele>
        <time>2017-03-15T09:56:20Z</time>
      </trkpt>
      <trkpt lat="45.96507" lon="4.78218">
        <ele>204</ele>
        <time>2017-03-15T09:56:21Z</time>
      </trkpt>
      <trkpt lat="45.96511" lon="4.78223">
        <ele>204</ele>
        <time>2017-03-15T09:56:22Z</time>
      </trkpt>
      <trkpt lat="45.96514" lon="4.78228">
        <ele>204</ele>
        <time>2017-03-15T09:56:23Z</time>
      </trkpt>
      <trkpt lat="45.96517" lon="4.78233">
        <ele>203</ele>
        <time>2017-03-15T09:56:24Z</time>
      </trkpt>
      <trkpt lat="45.96519" lon="4.78239">
        <ele>203</ele>
        <time>2017-03-15T09:56:25Z</time>
      </trkpt>
      <trkpt lat="45.96522" lon="4.78244">
        <ele>203</ele>
        <time>2017-03-15T09:56:26Z</time>
      </trkpt>
      <trkpt lat="45.96526" lon="4.7825">
        <ele>203</ele>
        <time>2017-03-15T09:56:27Z</time>
      </trkpt>
      <trkpt lat="45.96529" lon="4.78255">
        <ele>200</ele>
        <time>2017-03-15T09:56:28Z</time>
      </trkpt>
      <trkpt lat="45.96533" lon="4.78259">
        <ele>200</ele>
        <time>2017-03-15T09:56:29Z</time>
      </trkpt>
      <trkpt lat="45.96536" lon="4.78264">
        <ele>200</ele>
        <time>2017-03-15T09:56:30Z</time>
      </trkpt>
      <trkpt lat="45.9654" lon="4.78269">
        <ele>200</ele>
        <time>2017-03-15T09:56:31Z</time>
      </trkpt>
      <trkpt lat="45.96543" lon="4.78274">
        <ele>200</ele>
        <time>2017-03-15T09:56:32Z</time>
      </trkpt>
      <trkpt lat="45.96547" lon="4.78278">
        <ele>200</ele>
        <time>2017-03-15T09:56:33Z</time>
      </trkpt>
      <trkpt lat="45.96551" lon="4.78284">
        <ele>200</ele>
        <time>2017-03-15T09:56:34Z</time>
      </trkpt>
      <trkpt lat="45.96554" lon="4.78289">
        <ele>200</ele>
        <time>2017-03-15T09:56:35Z</time>
      </trkpt>
      <trkpt lat="45.96558" lon="4.78294">
        <ele>200</ele>
        <time>2017-03-15T09:56:36Z</time>
      </trkpt>
      <trkpt lat="45.96562" lon="4.78298">
        <ele>200</ele>
        <time>2017-03-15T09:56:37Z</time>
      </trkpt>
      <trkpt lat="45.96565" lon="4.78303">
        <ele>200</ele>
        <time>2017-03-15T09:56:38Z</time>
      </trkpt>
      <trkpt lat="45.96569" lon="4.78306">
        <ele>200</ele>
        <time>2017-03-15T09:56:39Z</time>
      </trkpt>
      <trkpt lat="45.96573" lon="4.7831">
        <ele>199</ele>
        <time>2017-03-15T09:56:40Z</time>
      </trkpt>
      <trkpt lat="45.96577" lon="4.78313">
        <ele>199</ele>
        <time>2017-03-15T09:56:41Z</time>
      </trkpt>
      <trkpt lat="45.96581" lon="4.78317">
        <ele>199</ele>
        <time>2017-03-15T09:56:42Z</time>
      </trkpt>
      <trkpt lat="45.96584" lon="4.78321">
        <ele>201</ele>
        <time>2017-03-15T09:56:43Z</time>
      </trkpt>
      <trkpt lat="45.96588" lon="4.78324">
        <ele>201</ele>
        <time>2017-03-15T09:56:44Z</time>
      </trkpt>
      <trkpt lat="45.96592" lon="4.78328">
        <ele>201</ele>
        <time>2017-03-15T09:56:45Z</time>
      </trkpt>
      <trkpt lat="45.96595" lon="4.78332">
        <ele>201</ele>
        <time>2017-03-15T09:56:46Z</time>
      </trkpt>
      <trkpt lat="45.966" lon="4.78336">
        <ele>200</ele>
        <time>2017-03-15T09:56:47Z</time>
      </trkpt>
      <trkpt lat="45.96604" lon="4.7834">
        <ele>200</ele>
        <time>2017-03-15T09:56:48Z</time>
      </trkpt>
      <trkpt lat="45.96608" lon="4.78344">
        <ele>200</ele>
        <time>2017-03-15T09:56:49Z</time>
      </trkpt>
      <trkpt lat="45.96613" lon="4.78348">
        <ele>200</ele>
        <time>2017-03-15T09:56:50Z</time>
      </trkpt>
      <trkpt lat="45.96616" lon="4.78352">
        <ele>201</ele>
        <time>2017-03-15T09:56:51Z</time>
      </trkpt>
      <trkpt lat="45.96623" lon="4.78358">
        <ele>201</ele>
        <time>2017-03-15T09:56:53Z</time>
      </trkpt>
      <trkpt lat="45.96627" lon="4.78361">
        <ele>201</ele>
        <time>2017-03-15T09:56:54Z</time>
      </trkpt>
      <trkpt lat="45.96634" lon="4.78368">
        <ele>201</ele>
        <time>2017-03-15T09:56:56Z</time>
      </trkpt>
      <trkpt lat="45.96637" lon="4.78371">
        <ele>201</ele>
        <time>2017-03-15T09:56:57Z</time>
      </trkpt>
      <trkpt lat="45.96645" lon="4.78377">
        <ele>201</ele>
        <time>2017-03-15T09:56:59Z</time>
      </trkpt>
      <trkpt lat="45.96648" lon="4.78381">
        <ele>201</ele>
        <time>2017-03-15T09:57:00Z</time>
      </trkpt>
      <trkpt lat="45.96655" lon="4.78388">
        <ele>201</ele>
        <time>2017-03-15T09:57:02Z</time>
      </trkpt>
      <trkpt lat="45.96659" lon="4.78392">
        <ele>201</ele>
        <time>2017-03-15T09:57:03Z</time>
      </trkpt>
      <trkpt lat="45.96663" lon="4.78396">
        <ele>201</ele>
        <time>2017-03-15T09:57:04Z</time>
      </trkpt>
      <trkpt lat="45.96667" lon="4.78399">
        <ele>201</ele>
        <time>2017-03-15T09:57:05Z</time>
      </trkpt>
      <trkpt lat="45.96671" lon="4.78403">
        <ele>203</ele>
        <time>2017-03-15T09:57:06Z</time>
      </trkpt>
      <trkpt lat="45.96674" lon="4.78407">
        <ele>203</ele>
        <time>2017-03-15T09:57:07Z</time>
      </trkpt>
      <trkpt lat="45.96681" lon="4.78413">
        <ele>204</ele>
        <time>2017-03-15T09:57:09Z</time>
      </trkpt>
      <trkpt lat="45.96685" lon="4.78416">
        <ele>204</ele>
        <time>2017-03-15T09:57:10Z</time>
      </trkpt>
      <trkpt lat="45.96691" lon="4.78423">
        <ele>202</ele>
        <time>2017-03-15T09:57:12Z</time>
      </trkpt>
      <trkpt lat="45.96694" lon="4.78426">
        <ele>202</ele>
        <time>2017-03-15T09:57:13Z</time>
      </trkpt>
      <trkpt lat="45.967" lon="4.78434">
        <ele>203</ele>
        <time>2017-03-15T09:57:15Z</time>
      </trkpt>
      <trkpt lat="45.96704" lon="4.78439">
        <ele>203</ele>
        <time>2017-03-15T09:57:16Z</time>
      </trkpt>
      <trkpt lat="45.96707" lon="4.78443">
        <ele>203</ele>
        <time>2017-03-15T09:57:17Z</time>
      </trkpt>
      <trkpt lat="45.96711" lon="4.78448">
        <ele>203</ele>
        <time>2017-03-15T09:57:18Z</time>
      </trkpt>
      <trkpt lat="45.96715" lon="4.78452">
        <ele>203</ele>
        <time>2017-03-15T09:57:19Z</time>
      </trkpt>
      <trkpt lat="45.96719" lon="4.78455">
        <ele>203</ele>
        <time>2017-03-15T09:57:20Z</time>
      </trkpt>
      <trkpt lat="45.96724" lon="4.78459">
        <ele>203</ele>
        <time>2017-03-15T09:57:21Z</time>
      </trkpt>
      <trkpt lat="45.96728" lon="4.78463">
        <ele>203</ele>
        <time>2017-03-15T09:57:22Z</time>
      </trkpt>
      <trkpt lat="45.96732" lon="4.78467">
        <ele>203</ele>
        <time>2017-03-15T09:57:23Z</time>
      </trkpt>
      <trkpt lat="45.96736" lon="4.78471">
        <ele>203</ele>
        <time>2017-03-15T09:57:24Z</time>
      </trkpt>
      <trkpt lat="45.96741" lon="4.78474">
        <ele>203</ele>
        <time>2017-03-15T09:57:25Z</time>
      </trkpt>
      <trkpt lat="45.96745" lon="4.78477">
        <ele>203</ele>
        <time>2017-03-15T09:57:26Z</time>
      </trkpt>
      <trkpt lat="45.96749" lon="4.7848">
        <ele>203</ele>
        <time>2017-03-15T09:57:27Z</time>
      </trkpt>
      <trkpt lat="45.96754" lon="4.78484">
        <ele>205</ele>
        <time>2017-03-15T09:57:28Z</time>
      </trkpt>
      <trkpt lat="45.96758" lon="4.78489">
        <ele>204</ele>
        <time>2017-03-15T09:57:29Z</time>
      </trkpt>
      <trkpt lat="45.96761" lon="4.78494">
        <ele>204</ele>
        <time>2017-03-15T09:57:30Z</time>
      </trkpt>
      <trkpt lat="45.96765" lon="4.785">
        <ele>204</ele>
        <time>2017-03-15T09:57:31Z</time>
      </trkpt>
      <trkpt lat="45.96768" lon="4.78506">
        <ele>203</ele>
        <time>2017-03-15T09:57:32Z</time>
      </trkpt>
      <trkpt lat="45.96772" lon="4.78511">
        <ele>203</ele>
        <time>2017-03-15T09:57:33Z</time>
      </trkpt>
      <trkpt lat="45.96775" lon="4.78516">
        <ele>203</ele>
        <time>2017-03-15T09:57:34Z</time>
      </trkpt>
      <trkpt lat="45.96779" lon="4.7852">
        <ele>203</ele>
        <time>2017-03-15T09:57:35Z</time>
      </trkpt>
      <trkpt lat="45.96782" lon="4.78525">
        <ele>203</ele>
        <time>2017-03-15T09:57:36Z</time>
      </trkpt>
      <trkpt lat="45.96785" lon="4.7853">
        <ele>203</ele>
        <time>2017-03-15T09:57:37Z</time>
      </trkpt>
      <trkpt lat="45.96788" lon="4.78535">
        <ele>203</ele>
        <time>2017-03-15T09:57:38Z</time>
      </trkpt>
      <trkpt lat="45.96794" lon="4.78543">
        <ele>203</ele>
        <time>2017-03-15T09:57:40Z</time>
      </trkpt>
      <trkpt lat="45.96798" lon="4.78548">
        <ele>203</ele>
        <time>2017-03-15T09:57:41Z</time>
      </trkpt>
      <trkpt lat="45.96801" lon="4.78553">
        <ele>203</ele>
        <time>2017-03-15T09:57:42Z</time>
      </trkpt>
      <trkpt lat="45.96804" lon="4.78559">
        <ele>203</ele>
        <time>2017-03-15T09:57:43Z</time>
      </trkpt>
      <trkpt lat="45.96807" lon="4.78564">
        <ele>203</ele>
        <time>2017-03-15T09:57:44Z</time>
      </trkpt>
      <trkpt lat="45.9681" lon="4.78569">
        <ele>203</ele>
        <time>2017-03-15T09:57:45Z</time>
      </trkpt>
      <trkpt lat="45.96816" lon="4.78578">
        <ele>203</ele>
        <time>2017-03-15T09:57:47Z</time>
      </trkpt>
      <trkpt lat="45.96818" lon="4.78583">
        <ele>203</ele>
        <time>2017-03-15T09:57:48Z</time>
      </trkpt>
      <trkpt lat="45.96823" lon="4.78593">
        <ele>202</ele>
        <time>2017-03-15T09:57:50Z</time>
      </trkpt>
      <trkpt lat="45.96825" lon="4.78598">
        <ele>202</ele>
        <time>2017-03-15T09:57:51Z</time>
      </trkpt>
      <trkpt lat="45.96827" lon="4.78603">
        <ele>202</ele>
        <time>2017-03-15T09:57:52Z</time>
      </trkpt>
      <trkpt lat="45.96829" lon="4.78609">
        <ele>202</ele>
        <time>2017-03-15T09:57:53Z</time>
      </trkpt>
      <trkpt lat="45.96831" lon="4.78615">
        <ele>202</ele>
        <time>2017-03-15T09:57:54Z</time>
      </trkpt>
      <trkpt lat="45.96834" lon="4.78622">
        <ele>203</ele>
        <time>2017-03-15T09:57:55Z</time>
      </trkpt>
      <trkpt lat="45.96836" lon="4.78627">
        <ele>203</ele>
        <time>2017-03-15T09:57:56Z</time>
      </trkpt>
      <trkpt lat="45.96839" lon="4.78633">
        <ele>203</ele>
        <time>2017-03-15T09:57:57Z</time>
      </trkpt>
      <trkpt lat="45.96841" lon="4.78639">
        <ele>203</ele>
        <time>2017-03-15T09:57:58Z</time>
      </trkpt>
      <trkpt lat="45.96844" lon="4.78645">
        <ele>203</ele>
        <time>2017-03-15T09:57:59Z</time>
      </trkpt>
      <trkpt lat="45.96846" lon="4.7865">
        <ele>203</ele>
        <time>2017-03-15T09:58:00Z</time>
      </trkpt>
      <trkpt lat="45.96849" lon="4.78655">
        <ele>203</ele>
        <time>2017-03-15T09:58:01Z</time>
      </trkpt>
      <trkpt lat="45.96851" lon="4.78661">
        <ele>203</ele>
        <time>2017-03-15T09:58:02Z</time>
      </trkpt>
      <trkpt lat="45.96853" lon="4.78667">
        <ele>202</ele>
        <time>2017-03-15T09:58:03Z</time>
      </trkpt>
      <trkpt lat="45.96856" lon="4.78673">
        <ele>202</ele>
        <time>2017-03-15T09:58:04Z</time>
      </trkpt>
      <trkpt lat="45.96859" lon="4.78679">
        <ele>202</ele>
        <time>2017-03-15T09:58:05Z</time>
      </trkpt>
      <trkpt lat="45.96862" lon="4.78684">
        <ele>202</ele>
        <time>2017-03-15T09:58:06Z</time>
      </trkpt>
      <trkpt lat="45.96864" lon="4.7869">
        <ele>202</ele>
        <time>2017-03-15T09:58:07Z</time>
      </trkpt>
      <trkpt lat="45.96869" lon="4.787">
        <ele>202</ele>
        <time>2017-03-15T09:58:09Z</time>
      </trkpt>
      <trkpt lat="45.96871" lon="4.78705">
        <ele>202</ele>
        <time>2017-03-15T09:58:10Z</time>
      </trkpt>
      <trkpt lat="45.96875" lon="4.78716">
        <ele>202</ele>
        <time>2017-03-15T09:58:12Z</time>
      </trkpt>
      <trkpt lat="45.96878" lon="4.78721">
        <ele>202</ele>
        <time>2017-03-15T09:58:13Z</time>
      </trkpt>
      <trkpt lat="45.9688" lon="4.78727">
        <ele>202</ele>
        <time>2017-03-15T09:58:14Z</time>
      </trkpt>
      <trkpt lat="45.96883" lon="4.78733">
        <ele>202</ele>
        <time>2017-03-15T09:58:15Z</time>
      </trkpt>
      <trkpt lat="45.96886" lon="4.78738">
        <ele>202</ele>
        <time>2017-03-15T09:58:16Z</time>
      </trkpt>
      <trkpt lat="45.96888" lon="4.78744">
        <ele>202</ele>
        <time>2017-03-15T09:58:17Z</time>
      </trkpt>
      <trkpt lat="45.96891" lon="4.78749">
        <ele>202</ele>
        <time>2017-03-15T09:58:18Z</time>
      </trkpt>
      <trkpt lat="45.96894" lon="4.78754">
        <ele>201</ele>
        <time>2017-03-15T09:58:19Z</time>
      </trkpt>
      <trkpt lat="45.96897" lon="4.7876">
        <ele>201</ele>
        <time>2017-03-15T09:58:20Z</time>
      </trkpt>
      <trkpt lat="45.96899" lon="4.78766">
        <ele>201</ele>
        <time>2017-03-15T09:58:21Z</time>
      </trkpt>
      <trkpt lat="45.96902" lon="4.78771">
        <ele>201</ele>
        <time>2017-03-15T09:58:22Z</time>
      </trkpt>
      <trkpt lat="45.96904" lon="4.78778">
        <ele>201</ele>
        <time>2017-03-15T09:58:23Z</time>
      </trkpt>
      <trkpt lat="45.96907" lon="4.78783">
        <ele>201</ele>
        <time>2017-03-15T09:58:24Z</time>
      </trkpt>
      <trkpt lat="45.9691" lon="4.78789">
        <ele>201</ele>
        <time>2017-03-15T09:58:25Z</time>
      </trkpt>
      <trkpt lat="45.96913" lon="4.78795">
        <ele>201</ele>
        <time>2017-03-15T09:58:26Z</time>
      </trkpt>
      <trkpt lat="45.96916" lon="4.788">
        <ele>201</ele>
        <time>2017-03-15T09:58:27Z</time>
      </trkpt>
      <trkpt lat="45.96919" lon="4.78806">
        <ele>203</ele>
        <time>2017-03-15T09:58:28Z</time>
      </trkpt>
      <trkpt lat="45.96922" lon="4.78812">
        <ele>202</ele>
        <time>2017-03-15T09:58:29Z</time>
      </trkpt>
      <trkpt lat="45.96926" lon="4.78817">
        <ele>202</ele>
        <time>2017-03-15T09:58:30Z</time>
      </trkpt>
      <trkpt lat="45.96929" lon="4.78822">
        <ele>202</ele>
        <time>2017-03-15T09:58:31Z</time>
      </trkpt>
      <trkpt lat="45.96933" lon="4.78827">
        <ele>202</ele>
        <time>2017-03-15T09:58:32Z</time>
      </trkpt>
      <trkpt lat="45.96936" lon="4.78831">
        <ele>202</ele>
        <time>2017-03-15T09:58:33Z</time>
      </trkpt>
      <trkpt lat="45.9694" lon="4.78836">
        <ele>202</ele>
        <time>2017-03-15T09:58:34Z</time>
      </trkpt>
      <trkpt lat="45.96943" lon="4.78841">
        <ele>202</ele>
        <time>2017-03-15T09:58:35Z</time>
      </trkpt>
      <trkpt lat="45.96947" lon="4.78845">
        <ele>202</ele>
        <time>2017-03-15T09:58:36Z</time>
      </trkpt>
      <trkpt lat="45.96951" lon="4.7885">
        <ele>202</ele>
        <time>2017-03-15T09:58:37Z</time>
      </trkpt>
      <trkpt lat="45.96954" lon="4.78854">
        <ele>203</ele>
        <time>2017-03-15T09:58:38Z</time>
      </trkpt>
      <trkpt lat="45.96958" lon="4.78858">
        <ele>203</ele>
        <time>2017-03-15T09:58:39Z</time>
      </trkpt>
      <trkpt lat="45.96962" lon="4.78862">
        <ele>203</ele>
        <time>2017-03-15T09:58:40Z</time>
      </trkpt>
      <trkpt lat="45.96965" lon="4.78866">
        <ele>203</ele>
        <time>2017-03-15T09:58:41Z</time>
      </trkpt>
      <trkpt lat="45.96972" lon="4.78874">
        <ele>203</ele>
        <time>2017-03-15T09:58:43Z</time>
      </trkpt>
      <trkpt lat="45.96976" lon="4.78878">
        <ele>203</ele>
        <time>2017-03-15T09:58:44Z</time>
      </trkpt>
      <trkpt lat="45.96983" lon="4.78886">
        <ele>203</ele>
        <time>2017-03-15T09:58:46Z</time>
      </trkpt>
      <trkpt lat="45.96986" lon="4.7889">
        <ele>203</ele>
        <time>2017-03-15T09:58:47Z</time>
      </trkpt>
      <trkpt lat="45.96989" lon="4.78895">
        <ele>203</ele>
        <time>2017-03-15T09:58:48Z</time>
      </trkpt>
      <trkpt lat="45.96993" lon="4.78899">
        <ele>203</ele>
        <time>2017-03-15T09:58:49Z</time>
      </trkpt>
      <trkpt lat="45.97" lon="4.78908">
        <ele>204</ele>
        <time>2017-03-15T09:58:51Z</time>
      </trkpt>
      <trkpt lat="45.97003" lon="4.78912">
        <ele>205</ele>
        <time>2017-03-15T09:58:52Z</time>
      </trkpt>
      <trkpt lat="45.97006" lon="4.78916">
        <ele>205</ele>
        <time>2017-03-15T09:58:53Z</time>
      </trkpt>
      <trkpt lat="45.9701" lon="4.78921">
        <ele>204</ele>
        <time>2017-03-15T09:58:54Z</time>
      </trkpt>
      <trkpt lat="45.97016" lon="4.7893">
        <ele>205</ele>
        <time>2017-03-15T09:58:56Z</time>
      </trkpt>
      <trkpt lat="45.97019" lon="4.78934">
        <ele>205</ele>
        <time>2017-03-15T09:58:57Z</time>
      </trkpt>
      <trkpt lat="45.97024" lon="4.78943">
        <ele>205</ele>
        <time>2017-03-15T09:58:59Z</time>
      </trkpt>
      <trkpt lat="45.97027" lon="4.78948">
        <ele>205</ele>
        <time>2017-03-15T09:59:00Z</time>
      </trkpt>
      <trkpt lat="45.97033" lon="4.78957">
        <ele>205</ele>
        <time>2017-03-15T09:59:02Z</time>
      </trkpt>
      <trkpt lat="45.97035" lon="4.78962">
        <ele>205</ele>
        <time>2017-03-15T09:59:03Z</time>
      </trkpt>
      <trkpt lat="45.9704" lon="4.78973">
        <ele>205</ele>
        <time>2017-03-15T09:59:05Z</time>
      </trkpt>
      <trkpt lat="45.97043" lon="4.78977">
        <ele>205</ele>
        <time>2017-03-15T09:59:06Z</time>
      </trkpt>
      <trkpt lat="45.97047" lon="4.78987">
        <ele>205</ele>
        <time>2017-03-15T09:59:08Z</time>
      </trkpt>
      <trkpt lat="45.97049" lon="4.78992">
        <ele>205</ele>
        <time>2017-03-15T09:59:09Z</time>
      </trkpt>
      <trkpt lat="45.97053" lon="4.79003">
        <ele>203</ele>
        <time>2017-03-15T09:59:11Z</time>
      </trkpt>
      <trkpt lat="45.97055" lon="4.79008">
        <ele>203</ele>
        <time>2017-03-15T09:59:12Z</time>
      </trkpt>
      <trkpt lat="45.97057" lon="4.79014">
        <ele>203</ele>
        <time>2017-03-15T09:59:13Z</time>
      </trkpt>
      <trkpt lat="45.97059" lon="4.7902">
        <ele>203</ele>
        <time>2017-03-15T09:59:14Z</time>
      </trkpt>
      <trkpt lat="45.97061" lon="4.79027">
        <ele>203</ele>
        <time>2017-03-15T09:59:15Z</time>
      </trkpt>
      <trkpt lat="45.97062" lon="4.79033">
        <ele>203</ele>
        <time>2017-03-15T09:59:16Z</time>
      </trkpt>
      <trkpt lat="45.97065" lon="4.7904">
        <ele>203</ele>
        <time>2017-03-15T09:59:17Z</time>
      </trkpt>
      <trkpt lat="45.97066" lon="4.79047">
        <ele>203</ele>
        <time>2017-03-15T09:59:18Z</time>
      </trkpt>
      <trkpt lat="45.97067" lon="4.79053">
        <ele>203</ele>
        <time>2017-03-15T09:59:19Z</time>
      </trkpt>
      <trkpt lat="45.97069" lon="4.7906">
        <ele>203</ele>
        <time>2017-03-15T09:59:20Z</time>
      </trkpt>
      <trkpt lat="45.9707" lon="4.79067">
        <ele>203</ele>
        <time>2017-03-15T09:59:21Z</time>
      </trkpt>
      <trkpt lat="45.97072" lon="4.79074">
        <ele>204</ele>
        <time>2017-03-15T09:59:22Z</time>
      </trkpt>
      <trkpt lat="45.97073" lon="4.7908">
        <ele>204</ele>
        <time>2017-03-15T09:59:23Z</time>
      </trkpt>
      <trkpt lat="45.97075" lon="4.79086">
        <ele>204</ele>
        <time>2017-03-15T09:59:24Z</time>
      </trkpt>
      <trkpt lat="45.97076" lon="4.79094">
        <ele>204</ele>
        <time>2017-03-15T09:59:25Z</time>
      </trkpt>
      <trkpt lat="45.97078" lon="4.791">
        <ele>204</ele>
        <time>2017-03-15T09:59:26Z</time>
      </trkpt>
      <trkpt lat="45.9708" lon="4.79107">
        <ele>204</ele>
        <time>2017-03-15T09:59:27Z</time>
      </trkpt>
      <trkpt lat="45.97082" lon="4.79113">
        <ele>204</ele>
        <time>2017-03-15T09:59:28Z</time>
      </trkpt>
      <trkpt lat="45.97085" lon="4.79119">
        <ele>206</ele>
        <time>2017-03-15T09:59:29Z</time>
      </trkpt>
      <trkpt lat="45.97088" lon="4.79125">
        <ele>206</ele>
        <time>2017-03-15T09:59:30Z</time>
      </trkpt>
      <trkpt lat="45.97091" lon="4.79131">
        <ele>206</ele>
        <time>2017-03-15T09:59:31Z</time>
      </trkpt>
      <trkpt lat="45.97094" lon="4.79137">
        <ele>206</ele>
        <time>2017-03-15T09:59:32Z</time>
      </trkpt>
      <trkpt lat="45.97097" lon="4.79142">
        <ele>206</ele>
        <time>2017-03-15T09:59:33Z</time>
      </trkpt>
      <trkpt lat="45.971" lon="4.79148">
        <ele>206</ele>
        <time>2017-03-15T09:59:34Z</time>
      </trkpt>
      <trkpt lat="45.97103" lon="4.79153">
        <ele>206</ele>
        <time>2017-03-15T09:59:35Z</time>
      </trkpt>
      <trkpt lat="45.97106" lon="4.79158">
        <ele>206</ele>
        <time>2017-03-15T09:59:36Z</time>
      </trkpt>
      <trkpt lat="45.97109" lon="4.79164">
        <ele>206</ele>
        <time>2017-03-15T09:59:37Z</time>
      </trkpt>
      <trkpt lat="45.97112" lon="4.7917">
        <ele>205</ele>
        <time>2017-03-15T09:59:38Z</time>
      </trkpt>
      <trkpt lat="45.97115" lon="4.79175">
        <ele>206</ele>
        <time>2017-03-15T09:59:39Z</time>
      </trkpt>
      <trkpt lat="45.97117" lon="4.79181">
        <ele>206</ele>
        <time>2017-03-15T09:59:40Z</time>
      </trkpt>
      <trkpt lat="45.9712" lon="4.79187">
        <ele>206</ele>
        <time>2017-03-15T09:59:41Z</time>
      </trkpt>
      <trkpt lat="45.97122" lon="4.79193">
        <ele>206</ele>
        <time>2017-03-15T09:59:42Z</time>
      </trkpt>
      <trkpt lat="45.97126" lon="4.79204">
        <ele>206</ele>
        <time>2017-03-15T09:59:44Z</time>
      </trkpt>
      <trkpt lat="45.97128" lon="4.79209">
        <ele>206</ele>
        <time>2017-03-15T09:59:45Z</time>
      </trkpt>
      <trkpt lat="45.97133" lon="4.7922">
        <ele>205</ele>
        <time>2017-03-15T09:59:47Z</time>
      </trkpt>
      <trkpt lat="45.97135" lon="4.79226">
        <ele>205</ele>
        <time>2017-03-15T09:59:48Z</time>
      </trkpt>
      <trkpt lat="45.97137" lon="4.79231">
        <ele>205</ele>
        <time>2017-03-15T09:59:49Z</time>
      </trkpt>
      <trkpt lat="45.9714" lon="4.79237">
        <ele>205</ele>
        <time>2017-03-15T09:59:50Z</time>
      </trkpt>
      <trkpt lat="45.97144" lon="4.79248">
        <ele>205</ele>
        <time>2017-03-15T09:59:52Z</time>
      </trkpt>
      <trkpt lat="45.97147" lon="4.79253">
        <ele>204</ele>
        <time>2017-03-15T09:59:53Z</time>
      </trkpt>
      <trkpt lat="45.97151" lon="4.79264">
        <ele>204</ele>
        <time>2017-03-15T09:59:55Z</time>
      </trkpt>
      <trkpt lat="45.97153" lon="4.7927">
        <ele>204</ele>
        <time>2017-03-15T09:59:56Z</time>
      </trkpt>
      <trkpt lat="45.97155" lon="4.79276">
        <ele>204</ele>
        <time>2017-03-15T09:59:57Z</time>
      </trkpt>
      <trkpt lat="45.97157" lon="4.79282">
        <ele>204</ele>
        <time>2017-03-15T09:59:58Z</time>
      </trkpt>
      <trkpt lat="45.97159" lon="4.79288">
        <ele>204</ele>
        <time>2017-03-15T09:59:59Z</time>
      </trkpt>
      <trkpt lat="45.97161" lon="4.79294">
        <ele>204</ele>
        <time>2017-03-15T10:00:00Z</time>
      </trkpt>
      <trkpt lat="45.97163" lon="4.793">
        <ele>204</ele>
        <time>2017-03-15T10:00:01Z</time>
      </trkpt>
      <trkpt lat="45.97166" lon="4.79305">
        <ele>204</ele>
        <time>2017-03-15T10:00:02Z</time>
      </trkpt>
      <trkpt lat="45.9717" lon="4.79316">
        <ele>207</ele>
        <time>2017-03-15T10:00:04Z</time>
      </trkpt>
      <trkpt lat="45.97172" lon="4.79321">
        <ele>206</ele>
        <time>2017-03-15T10:00:05Z</time>
      </trkpt>
      <trkpt lat="45.97178" lon="4.79331">
        <ele>206</ele>
        <time>2017-03-15T10:00:07Z</time>
      </trkpt>
      <trkpt lat="45.9718" lon="4.79336">
        <ele>206</ele>
        <time>2017-03-15T10:00:08Z</time>
      </trkpt>
      <trkpt lat="45.97185" lon="4.79347">
        <ele>207</ele>
        <time>2017-03-15T10:00:10Z</time>
      </trkpt>
      <trkpt lat="45.97187" lon="4.79352">
        <ele>207</ele>
        <time>2017-03-15T10:00:11Z</time>
      </trkpt>
      <trkpt lat="45.9719" lon="4.79358">
        <ele>207</ele>
        <time>2017-03-15T10:00:12Z</time>
      </trkpt>
      <trkpt lat="45.97192" lon="4.79364">
        <ele>207</ele>
        <time>2017-03-15T10:00:13Z</time>
      </trkpt>
      <trkpt lat="45.97197" lon="4.79374">
        <ele>207</ele>
        <time>2017-03-15T10:00:15Z</time>
      </trkpt>
      <trkpt lat="45.97199" lon="4.7938">
        <ele>207</ele>
        <time>2017-03-15T10:00:16Z</time>
      </trkpt>
      <trkpt lat="45.97204" lon="4.79391">
        <ele>208</ele>
        <time>2017-03-15T10:00:18Z</time>
      </trkpt>
      <trkpt lat="45.97206" lon="4.79396">
        <ele>208</ele>
        <time>2017-03-15T10:00:19Z</time>
      </trkpt>
      <trkpt lat="45.9721" lon="4.79407">
        <ele>208</ele>
        <time>2017-03-15T10:00:21Z</time>
      </trkpt>
      <trkpt lat="45.97213" lon="4.79412">
        <ele>208</ele>
        <time>2017-03-15T10:00:22Z</time>
      </trkpt>
      <trkpt lat="45.97217" lon="4.79422">
        <ele>208</ele>
        <time>2017-03-15T10:00:24Z</time>
      </trkpt>
      <trkpt lat="45.97219" lon="4.79427">
        <ele>208</ele>
        <time>2017-03-15T10:00:25Z</time>
      </trkpt>
      <trkpt lat="45.97222" lon="4.79433">
        <ele>209</ele>
        <time>2017-03-15T10:00:26Z</time>
      </trkpt>
      <trkpt lat="45.97224" lon="4.79439">
        <ele>209</ele>
        <time>2017-03-15T10:00:27Z</time>
      </trkpt>
      <trkpt lat="45.97227" lon="4.79446">
        <ele>209</ele>
        <time>2017-03-15T10:00:28Z</time>
      </trkpt>
      <trkpt lat="45.97229" lon="4.79452">
        <ele>209</ele>
        <time>2017-03-15T10:00:29Z</time>
      </trkpt>
      <trkpt lat="45.97234" lon="4.79462">
        <ele>209</ele>
        <time>2017-03-15T10:00:31Z</time>
      </trkpt>
      <trkpt lat="45.97235" lon="4.79468">
        <ele>209</ele>
        <time>2017-03-15T10:00:32Z</time>
      </trkpt>
      <trkpt lat="45.97238" lon="4.79479">
        <ele>209</ele>
        <time>2017-03-15T10:00:34Z</time>
      </trkpt>
      <trkpt lat="45.97239" lon="4.79485">
        <ele>210</ele>
        <time>2017-03-15T10:00:35Z</time>
      </trkpt>
      <trkpt lat="45.97241" lon="4.79496">
        <ele>210</ele>
        <time>2017-03-15T10:00:37Z</time>
      </trkpt>
      <trkpt lat="45.97242" lon="4.79502">
        <ele>210</ele>
        <time>2017-03-15T10:00:38Z</time>
      </trkpt>
      <trkpt lat="45.97244" lon="4.79514">
        <ele>210</ele>
        <time>2017-03-15T10:00:40Z</time>
      </trkpt>
      <trkpt lat="45.97245" lon="4.79519">
        <ele>210</ele>
        <time>2017-03-15T10:00:41Z</time>
      </trkpt>
      <trkpt lat="45.97246" lon="4.79531">
        <ele>210</ele>
        <time>2017-03-15T10:00:43Z</time>
      </trkpt>
      <trkpt lat="45.97247" lon="4.79536">
        <ele>210</ele>
        <time>2017-03-15T10:00:44Z</time>
      </trkpt>
      <trkpt lat="45.97249" lon="4.79547">
        <ele>210</ele>
        <time>2017-03-15T10:00:46Z</time>
      </trkpt>
      <trkpt lat="45.9725" lon="4.79554">
        <ele>213</ele>
        <time>2017-03-15T10:00:47Z</time>
      </trkpt>
      <trkpt lat="45.97253" lon="4.79565">
        <ele>213</ele>
        <time>2017-03-15T10:00:49Z</time>
      </trkpt>
      <trkpt lat="45.97253" lon="4.79572">
        <ele>212</ele>
        <time>2017-03-15T10:00:50Z</time>
      </trkpt>
      <trkpt lat="45.97253" lon="4.79585">
        <ele>211</ele>
        <time>2017-03-15T10:00:52Z</time>
      </trkpt>
      <trkpt lat="45.97253" lon="4.79591">
        <ele>211</ele>
        <time>2017-03-15T10:00:53Z</time>
      </trkpt>
      <trkpt lat="45.97252" lon="4.79597">
        <ele>212</ele>
        <time>2017-03-15T10:00:54Z</time>
      </trkpt>
      <trkpt lat="45.97252" lon="4.79604">
        <ele>212</ele>
        <time>2017-03-15T10:00:55Z</time>
      </trkpt>
      <trkpt lat="45.97253" lon="4.79612">
        <ele>213</ele>
        <time>2017-03-15T10:00:56Z</time>
      </trkpt>
      <trkpt lat="45.97253" lon="4.7962">
        <ele>213</ele>
        <time>2017-03-15T10:00:57Z</time>
      </trkpt>
      <trkpt lat="45.97254" lon="4.79628">
        <ele>213</ele>
        <time>2017-03-15T10:00:58Z</time>
      </trkpt>
      <trkpt lat="45.97254" lon="4.79635">
        <ele>213</ele>
        <time>2017-03-15T10:00:59Z</time>
      </trkpt>
      <trkpt lat="45.97255" lon="4.79642">
        <ele>212</ele>
        <time>2017-03-15T10:01:00Z</time>
      </trkpt>
      <trkpt lat="45.97253" lon="4.79649">
        <ele>211</ele>
        <time>2017-03-15T10:01:01Z</time>
      </trkpt>
      <trkpt lat="45.97251" lon="4.79656">
        <ele>210</ele>
        <time>2017-03-15T10:01:02Z</time>
      </trkpt>
      <trkpt lat="45.9725" lon="4.79662">
        <ele>208</ele>
        <time>2017-03-15T10:01:03Z</time>
      </trkpt>
      <trkpt lat="45.97249" lon="4.79669">
        <ele>208</ele>
        <time>2017-03-15T10:01:04Z</time>
      </trkpt>
      <trkpt lat="45.97248" lon="4.79675">
        <ele>208</ele>
        <time>2017-03-15T10:01:05Z</time>
      </trkpt>
      <trkpt lat="45.97246" lon="4.79688">
        <ele>208</ele>
        <time>2017-03-15T10:01:07Z</time>
      </trkpt>
      <trkpt lat="45.97245" lon="4.79694">
        <ele>208</ele>
        <time>2017-03-15T10:01:08Z</time>
      </trkpt>
      <trkpt lat="45.97242" lon="4.79706">
        <ele>208</ele>
        <time>2017-03-15T10:01:10Z</time>
      </trkpt>
      <trkpt lat="45.97241" lon="4.79712">
        <ele>209</ele>
        <time>2017-03-15T10:01:11Z</time>
      </trkpt>
      <trkpt lat="45.9724" lon="4.79719">
        <ele>209</ele>
        <time>2017-03-15T10:01:12Z</time>
      </trkpt>
      <trkpt lat="45.97239" lon="4.79725">
        <ele>209</ele>
        <time>2017-03-15T10:01:13Z</time>
      </trkpt>
      <trkpt lat="45.97238" lon="4.79732">
        <ele>209</ele>
        <time>2017-03-15T10:01:14Z</time>
      </trkpt>
      <trkpt lat="45.97238" lon="4.79739">
        <ele>209</ele>
        <time>2017-03-15T10:01:15Z</time>
      </trkpt>
      <trkpt lat="45.97237" lon="4.79746">
        <ele>209</ele>
        <time>2017-03-15T10:01:16Z</time>
      </trkpt>
      <trkpt lat="45.97237" lon="4.79752">
        <ele>209</ele>
        <time>2017-03-15T10:01:17Z</time>
      </trkpt>
      <trkpt lat="45.97237" lon="4.79759">
        <ele>209</ele>
        <time>2017-03-15T10:01:18Z</time>
      </trkpt>
      <trkpt lat="45.97237" lon="4.79765">
        <ele>209</ele>
        <time>2017-03-15T10:01:19Z</time>
      </trkpt>
      <trkpt lat="45.97235" lon="4.79777">
        <ele>210</ele>
        <time>2017-03-15T10:01:21Z</time>
      </trkpt>
      <trkpt lat="45.97235" lon="4.79785">
        <ele>210</ele>
        <time>2017-03-15T10:01:22Z</time>
      </trkpt>
      <trkpt lat="45.97235" lon="4.79792">
        <ele>210</ele>
        <time>2017-03-15T10:01:23Z</time>
      </trkpt>
      <trkpt lat="45.97235" lon="4.79799">
        <ele>210</ele>
        <time>2017-03-15T10:01:24Z</time>
      </trkpt>
      <trkpt lat="45.97235" lon="4.79806">
        <ele>210</ele>
        <time>2017-03-15T10:01:25Z</time>
      </trkpt>
      <trkpt lat="45.97234" lon="4.79813">
        <ele>210</ele>
        <time>2017-03-15T10:01:26Z</time>
      </trkpt>
      <trkpt lat="45.97234" lon="4.7982">
        <ele>211</ele>
        <time>2017-03-15T10:01:27Z</time>
      </trkpt>
      <trkpt lat="45.97234" lon="4.79826">
        <ele>211</ele>
        <time>2017-03-15T10:01:28Z</time>
      </trkpt>
      <trkpt lat="45.97233" lon="4.79839">
        <ele>211</ele>
        <time>2017-03-15T10:01:30Z</time>
      </trkpt>
      <trkpt lat="45.97233" lon="4.79845">
        <ele>211</ele>
        <time>2017-03-15T10:01:31Z</time>
      </trkpt>
      <trkpt lat="45.97234" lon="4.79851">
        <ele>211</ele>
        <time>2017-03-15T10:01:32Z</time>
      </trkpt>
      <trkpt lat="45.97236" lon="4.79858">
        <ele>211</ele>
        <time>2017-03-15T10:01:33Z</time>
      </trkpt>
      <trkpt lat="45.9724" lon="4.79869">
        <ele>211</ele>
        <time>2017-03-15T10:01:35Z</time>
      </trkpt>
      <trkpt lat="45.97242" lon="4.79874">
        <ele>211</ele>
        <time>2017-03-15T10:01:36Z</time>
      </trkpt>
      <trkpt lat="45.97246" lon="4.79883">
        <ele>211</ele>
        <time>2017-03-15T10:01:38Z</time>
      </trkpt>
      <trkpt lat="45.97247" lon="4.79888">
        <ele>211</ele>
        <time>2017-03-15T10:01:39Z</time>
      </trkpt>
      <trkpt lat="45.9725" lon="4.799">
        <ele>213</ele>
        <time>2017-03-15T10:01:42Z</time>
      </trkpt>
      <trkpt lat="45.97251" lon="4.79903">
        <ele>213</ele>
        <time>2017-03-15T10:01:43Z</time>
      </trkpt>
      <trkpt lat="45.97253" lon="4.79912">
        <ele>212</ele>
        <time>2017-03-15T10:01:46Z</time>
      </trkpt>
      <trkpt lat="45.97256" lon="4.79915">
        <ele>212</ele>
        <time>2017-03-15T10:01:47Z</time>
      </trkpt>
      <trkpt lat="45.97263" lon="4.79916">
        <ele>213</ele>
        <time>2017-03-15T10:01:49Z</time>
      </trkpt>
      <trkpt lat="45.97267" lon="4.79915">
        <ele>213</ele>
        <time>2017-03-15T10:01:50Z</time>
      </trkpt>
      <trkpt lat="45.97275" lon="4.79915">
        <ele>213</ele>
        <time>2017-03-15T10:01:52Z</time>
      </trkpt>
      <trkpt lat="45.97279" lon="4.79915">
        <ele>213</ele>
        <time>2017-03-15T10:01:53Z</time>
      </trkpt>
      <trkpt lat="45.97287" lon="4.79915">
        <ele>213</ele>
        <time>2017-03-15T10:01:55Z</time>
      </trkpt>
      <trkpt lat="45.97291" lon="4.79914">
        <ele>213</ele>
        <time>2017-03-15T10:01:56Z</time>
      </trkpt>
      <trkpt lat="45.97299" lon="4.79913">
        <ele>213</ele>
        <time>2017-03-15T10:01:58Z</time>
      </trkpt>
      <trkpt lat="45.97303" lon="4.79914">
        <ele>213</ele>
        <time>2017-03-15T10:01:59Z</time>
      </trkpt>
      <trkpt lat="45.97311" lon="4.79913">
        <ele>213</ele>
        <time>2017-03-15T10:02:01Z</time>
      </trkpt>
      <trkpt lat="45.97316" lon="4.79912">
        <ele>213</ele>
        <time>2017-03-15T10:02:02Z</time>
      </trkpt>
      <trkpt lat="45.97324" lon="4.7991">
        <ele>213</ele>
        <time>2017-03-15T10:02:04Z</time>
      </trkpt>
      <trkpt lat="45.97328" lon="4.79909">
        <ele>213</ele>
        <time>2017-03-15T10:02:05Z</time>
      </trkpt>
      <trkpt lat="45.97337" lon="4.79908">
        <ele>214</ele>
        <time>2017-03-15T10:02:07Z</time>
      </trkpt>
      <trkpt lat="45.97341" lon="4.79907">
        <ele>215</ele>
        <time>2017-03-15T10:02:08Z</time>
      </trkpt>
      <trkpt lat="45.97349" lon="4.79905">
        <ele>216</ele>
        <time>2017-03-15T10:02:10Z</time>
      </trkpt>
      <trkpt lat="45.97353" lon="4.79904">
        <ele>216</ele>
        <time>2017-03-15T10:02:11Z</time>
      </trkpt>
      <trkpt lat="45.9736" lon="4.79902">
        <ele>216</ele>
        <time>2017-03-15T10:02:13Z</time>
      </trkpt>
      <trkpt lat="45.97364" lon="4.79902">
        <ele>216</ele>
        <time>2017-03-15T10:02:14Z</time>
      </trkpt>
      <trkpt lat="45.97372" lon="4.799">
        <ele>217</ele>
        <time>2017-03-15T10:02:16Z</time>
      </trkpt>
      <trkpt lat="45.97375" lon="4.79899">
        <ele>217</ele>
        <time>2017-03-15T10:02:17Z</time>
      </trkpt>
      <trkpt lat="45.97381" lon="4.79897">
        <ele>217</ele>
        <time>2017-03-15T10:02:19Z</time>
      </trkpt>
      <trkpt lat="45.97385" lon="4.79897">
        <ele>217</ele>
        <time>2017-03-15T10:02:20Z</time>
      </trkpt>
      <trkpt lat="45.97392" lon="4.79896">
        <ele>217</ele>
        <time>2017-03-15T10:02:22Z</time>
      </trkpt>
      <trkpt lat="45.97396" lon="4.79896">
        <ele>217</ele>
        <time>2017-03-15T10:02:23Z</time>
      </trkpt>
      <trkpt lat="45.97405" lon="4.79896">
        <ele>217</ele>
        <time>2017-03-15T10:02:25Z</time>
      </trkpt>
      <trkpt lat="45.97408" lon="4.79896">
        <ele>217</ele>
        <time>2017-03-15T10:02:26Z</time>
      </trkpt>
      <trkpt lat="45.97416" lon="4.79895">
        <ele>217</ele>
        <time>2017-03-15T10:02:28Z</time>
      </trkpt>
      <trkpt lat="45.97419" lon="4.79895">
        <ele>219</ele>
        <time>2017-03-15T10:02:29Z</time>
      </trkpt>
      <trkpt lat="45.97427" lon="4.79896">
        <ele>219</ele>
        <time>2017-03-15T10:02:31Z</time>
      </trkpt>
      <trkpt lat="45.97431" lon="4.79894">
        <ele>220</ele>
        <time>2017-03-15T10:02:32Z</time>
      </trkpt>
      <trkpt lat="45.97439" lon="4.79893">
        <ele>220</ele>
        <time>2017-03-15T10:02:34Z</time>
      </trkpt>
      <trkpt lat="45.97443" lon="4.79893">
        <ele>220</ele>
        <time>2017-03-15T10:02:35Z</time>
      </trkpt>
      <trkpt lat="45.97451" lon="4.79893">
        <ele>220</ele>
        <time>2017-03-15T10:02:37Z</time>
      </trkpt>
      <trkpt lat="45.97455" lon="4.79893">
        <ele>220</ele>
        <time>2017-03-15T10:02:38Z</time>
      </trkpt>
      <trkpt lat="45.97463" lon="4.79894">
        <ele>221</ele>
        <time>2017-03-15T10:02:40Z</time>
      </trkpt>
      <trkpt lat="45.97467" lon="4.79893">
        <ele>221</ele>
        <time>2017-03-15T10:02:41Z</time>
      </trkpt>
      <trkpt lat="45.97474" lon="4.79893">
        <ele>221</ele>
        <time>2017-03-15T10:02:43Z</time>
      </trkpt>
      <trkpt lat="45.97478" lon="4.79893">
        <ele>221</ele>
        <time>2017-03-15T10:02:44Z</time>
      </trkpt>
      <trkpt lat="45.97484" lon="4.79893">
        <ele>221</ele>
        <time>2017-03-15T10:02:46Z</time>
      </trkpt>
      <trkpt lat="45.97488" lon="4.79892">
        <ele>221</ele>
        <time>2017-03-15T10:02:47Z</time>
      </trkpt>
      <trkpt lat="45.97495" lon="4.79891">
        <ele>221</ele>
        <time>2017-03-15T10:02:49Z</time>
      </trkpt>
      <trkpt lat="45.97498" lon="4.7989">
        <ele>221</ele>
        <time>2017-03-15T10:02:50Z</time>
      </trkpt>
      <trkpt lat="45.97505" lon="4.79889">
        <ele>221</ele>
        <time>2017-03-15T10:02:52Z</time>
      </trkpt>
      <trkpt lat="45.97509" lon="4.79889">
        <ele>221</ele>
        <time>2017-03-15T10:02:53Z</time>
      </trkpt>
      <trkpt lat="45.97516" lon="4.79889">
        <ele>221</ele>
        <time>2017-03-15T10:02:55Z</time>
      </trkpt>
      <trkpt lat="45.9752" lon="4.79888">
        <ele>221</ele>
        <time>2017-03-15T10:02:56Z</time>
      </trkpt>
      <trkpt lat="45.97527" lon="4.79887">
        <ele>221</ele>
        <time>2017-03-15T10:02:58Z</time>
      </trkpt>
      <trkpt lat="45.97531" lon="4.79887">
        <ele>221</ele>
        <time>2017-03-15T10:02:59Z</time>
      </trkpt>
      <trkpt lat="45.97538" lon="4.79885">
        <ele>221</ele>
        <time>2017-03-15T10:03:01Z</time>
      </trkpt>
      <trkpt lat="45.97541" lon="4.79885">
        <ele>221</ele>
        <time>2017-03-15T10:03:02Z</time>
      </trkpt>
      <trkpt lat="45.97548" lon="4.79884">
        <ele>221</ele>
        <time>2017-03-15T10:03:04Z</time>
      </trkpt>
      <trkpt lat="45.97552" lon="4.79883">
        <ele>221</ele>
        <time>2017-03-15T10:03:05Z</time>
      </trkpt>
      <trkpt lat="45.97558" lon="4.79882">
        <ele>221</ele>
        <time>2017-03-15T10:03:07Z</time>
      </trkpt>
      <trkpt lat="45.97562" lon="4.79881">
        <ele>221</ele>
        <time>2017-03-15T10:03:08Z</time>
      </trkpt>
      <trkpt lat="45.97568" lon="4.79879">
        <ele>221</ele>
        <time>2017-03-15T10:03:10Z</time>
      </trkpt>
      <trkpt lat="45.97572" lon="4.79878">
        <ele>221</ele>
        <time>2017-03-15T10:03:11Z</time>
      </trkpt>
      <trkpt lat="45.97578" lon="4.79876">
        <ele>221</ele>
        <time>2017-03-15T10:03:13Z</time>
      </trkpt>
      <trkpt lat="45.97582" lon="4.79875">
        <ele>221</ele>
        <time>2017-03-15T10:03:14Z</time>
      </trkpt>
      <trkpt lat="45.97588" lon="4.79872">
        <ele>221</ele>
        <time>2017-03-15T10:03:16Z</time>
      </trkpt>
      <trkpt lat="45.97592" lon="4.79871">
        <ele>221</ele>
        <time>2017-03-15T10:03:17Z</time>
      </trkpt>
      <trkpt lat="45.97598" lon="4.79868">
        <ele>221</ele>
        <time>2017-03-15T10:03:19Z</time>
      </trkpt>
      <trkpt lat="45.97602" lon="4.79867">
        <ele>221</ele>
        <time>2017-03-15T10:03:20Z</time>
      </trkpt>
      <trkpt lat="45.97609" lon="4.79865">
        <ele>221</ele>
        <time>2017-03-15T10:03:22Z</time>
      </trkpt>
      <trkpt lat="45.97613" lon="4.79864">
        <ele>221</ele>
        <time>2017-03-15T10:03:23Z</time>
      </trkpt>
      <trkpt lat="45.9762" lon="4.79861">
        <ele>221</ele>
        <time>2017-03-15T10:03:25Z</time>
      </trkpt>
      <trkpt lat="45.97624" lon="4.7986">
        <ele>221</ele>
        <time>2017-03-15T10:03:26Z</time>
      </trkpt>
      <trkpt lat="45.97631" lon="4.79856">
        <ele>221</ele>
        <time>2017-03-15T10:03:28Z</time>
      </trkpt>
      <trkpt lat="45.97635" lon="4.79855">
        <ele>221</ele>
        <time>2017-03-15T10:03:29Z</time>
      </trkpt>
      <trkpt lat="45.97643" lon="4.79852">
        <ele>221</ele>
        <time>2017-03-15T10:03:31Z</time>
      </trkpt>
      <trkpt lat="45.97646" lon="4.7985">
        <ele>221</ele>
        <time>2017-03-15T10:03:32Z</time>
      </trkpt>
      <trkpt lat="45.97653" lon="4.79847">
        <ele>221</ele>
        <time>2017-03-15T10:03:34Z</time>
      </trkpt>
      <trkpt lat="45.97657" lon="4.79846">
        <ele>221</ele>
        <time>2017-03-15T10:03:35Z</time>
      </trkpt>
      <trkpt lat="45.97664" lon="4.79843">
        <ele>221</ele>
        <time>2017-03-15T10:03:37Z</time>
      </trkpt>
      <trkpt lat="45.97668" lon="4.79841">
        <ele>221</ele>
        <time>2017-03-15T10:03:38Z</time>
      </trkpt>
      <trkpt lat="45.97675" lon="4.79838">
        <ele>221</ele>
        <time>2017-03-15T10:03:40Z</time>
      </trkpt>
      <trkpt lat="45.97679" lon="4.79837">
        <ele>221</ele>
        <time>2017-03-15T10:03:41Z</time>
      </trkpt>
      <trkpt lat="45.97687" lon="4.79835">
        <ele>221</ele>
        <time>2017-03-15T10:03:43Z</time>
      </trkpt>
      <trkpt lat="45.97691" lon="4.79834">
        <ele>221</ele>
        <time>2017-03-15T10:03:44Z</time>
      </trkpt>
      <trkpt lat="45.97698" lon="4.79833">
        <ele>223</ele>
        <time>2017-03-15T10:03:46Z</time>
      </trkpt>
      <trkpt lat="45.97702" lon="4.79832">
        <ele>223</ele>
        <time>2017-03-15T10:03:47Z</time>
      </trkpt>
      <trkpt lat="45.9771" lon="4.7983">
        <ele>223</ele>
        <time>2017-03-15T10:03:49Z</time>
      </trkpt>
      <trkpt lat="45.97714" lon="4.79829">
        <ele>223</ele>
        <time>2017-03-15T10:03:50Z</time>
      </trkpt>
      <trkpt lat="45.97722" lon="4.79828">
        <ele>223</ele>
        <time>2017-03-15T10:03:52Z</time>
      </trkpt>
      <trkpt lat="45.97726" lon="4.79828">
        <ele>223</ele>
        <time>2017-03-15T10:03:53Z</time>
      </trkpt>
      <trkpt lat="45.97734" lon="4.79826">
        <ele>223</ele>
        <time>2017-03-15T10:03:55Z</time>
      </trkpt>
      <trkpt lat="45.97738" lon="4.79825">
        <ele>223</ele>
        <time>2017-03-15T10:03:56Z</time>
      </trkpt>
      <trkpt lat="45.97747" lon="4.79824">
        <ele>222</ele>
        <time>2017-03-15T10:03:58Z</time>
      </trkpt>
      <trkpt lat="45.97751" lon="4.79823">
        <ele>222</ele>
        <time>2017-03-15T10:03:59Z</time>
      </trkpt>
      <trkpt lat="45.9776" lon="4.79822">
        <ele>223</ele>
        <time>2017-03-15T10:04:01Z</time>
      </trkpt>
      <trkpt lat="45.97764" lon="4.79822">
        <ele>223</ele>
        <time>2017-03-15T10:04:02Z</time>
      </trkpt>
      <trkpt lat="45.97773" lon="4.79821">
        <ele>223</ele>
        <time>2017-03-15T10:04:04Z</time>
      </trkpt>
      <trkpt lat="45.97777" lon="4.7982">
        <ele>223</ele>
        <time>2017-03-15T10:04:05Z</time>
      </trkpt>
      <trkpt lat="45.97781" lon="4.79819">
        <ele>223</ele>
        <time>2017-03-15T10:04:06Z</time>
      </trkpt>
      <trkpt lat="45.97786" lon="4.79818">
        <ele>223</ele>
        <time>2017-03-15T10:04:07Z</time>
      </trkpt>
      <trkpt lat="45.9779" lon="4.79817">
        <ele>223</ele>
        <time>2017-03-15T10:04:08Z</time>
      </trkpt>
      <trkpt lat="45.97795" lon="4.79816">
        <ele>223</ele>
        <time>2017-03-15T10:04:09Z</time>
      </trkpt>
      <trkpt lat="45.97803" lon="4.79815">
        <ele>223</ele>
        <time>2017-03-15T10:04:11Z</time>
      </trkpt>
      <trkpt lat="45.97807" lon="4.79814">
        <ele>223</ele>
        <time>2017-03-15T10:04:12Z</time>
      </trkpt>
      <trkpt lat="45.97815" lon="4.79813">
        <ele>223</ele>
        <time>2017-03-15T10:04:14Z</time>
      </trkpt>
      <trkpt lat="45.97819" lon="4.79812">
        <ele>223</ele>
        <time>2017-03-15T10:04:15Z</time>
      </trkpt>
      <trkpt lat="45.97827" lon="4.79811">
        <ele>223</ele>
        <time>2017-03-15T10:04:17Z</time>
      </trkpt>
      <trkpt lat="45.97831" lon="4.7981">
        <ele>223</ele>
        <time>2017-03-15T10:04:18Z</time>
      </trkpt>
      <trkpt lat="45.97838" lon="4.79809">
        <ele>224</ele>
        <time>2017-03-15T10:04:20Z</time>
      </trkpt>
      <trkpt lat="45.97842" lon="4.79808">
        <ele>224</ele>
        <time>2017-03-15T10:04:21Z</time>
      </trkpt>
      <trkpt lat="45.97851" lon="4.79806">
        <ele>224</ele>
        <time>2017-03-15T10:04:23Z</time>
      </trkpt>
      <trkpt lat="45.97855" lon="4.79805">
        <ele>224</ele>
        <time>2017-03-15T10:04:24Z</time>
      </trkpt>
      <trkpt lat="45.97863" lon="4.79804">
        <ele>224</ele>
        <time>2017-03-15T10:04:26Z</time>
      </trkpt>
      <trkpt lat="45.97867" lon="4.79803">
        <ele>224</ele>
        <time>2017-03-15T10:04:27Z</time>
      </trkpt>
      <trkpt lat="45.97872" lon="4.79802">
        <ele>224</ele>
        <time>2017-03-15T10:04:28Z</time>
      </trkpt>
      <trkpt lat="45.97876" lon="4.79802">
        <ele>224</ele>
        <time>2017-03-15T10:04:29Z</time>
      </trkpt>
      <trkpt lat="45.97885" lon="4.798">
        <ele>224</ele>
        <time>2017-03-15T10:04:31Z</time>
      </trkpt>
      <trkpt lat="45.97889" lon="4.79799">
        <ele>224</ele>
        <time>2017-03-15T10:04:32Z</time>
      </trkpt>
      <trkpt lat="45.97894" lon="4.79799">
        <ele>224</ele>
        <time>2017-03-15T10:04:33Z</time>
      </trkpt>
      <trkpt lat="45.97899" lon="4.79799">
        <ele>224</ele>
        <time>2017-03-15T10:04:34Z</time>
      </trkpt>
      <trkpt lat="45.97904" lon="4.79799">
        <ele>224</ele>
        <time>2017-03-15T10:04:35Z</time>
      </trkpt>
      <trkpt lat="45.97909" lon="4.79798">
        <ele>224</ele>
        <time>2017-03-15T10:04:36Z</time>
      </trkpt>
      <trkpt lat="45.97918" lon="4.79796">
        <ele>224</ele>
        <time>2017-03-15T10:04:38Z</time>
      </trkpt>
      <trkpt lat="45.97922" lon="4.79795">
        <ele>224</ele>
        <time>2017-03-15T10:04:39Z</time>
      </trkpt>
      <trkpt lat="45.97931" lon="4.79792">
        <ele>224</ele>
        <time>2017-03-15T10:04:41Z</time>
      </trkpt>
      <trkpt lat="45.97935" lon="4.79792">
        <ele>224</ele>
        <time>2017-03-15T10:04:42Z</time>
      </trkpt>
      <trkpt lat="45.97943" lon="4.79791">
        <ele>224</ele>
        <time>2017-03-15T10:04:44Z</time>
      </trkpt>
      <trkpt lat="45.97947" lon="4.7979">
        <ele>224</ele>
        <time>2017-03-15T10:04:45Z</time>
      </trkpt>
      <trkpt lat="45.97956" lon="4.79789">
        <ele>224</ele>
        <time>2017-03-15T10:04:47Z</time>
      </trkpt>
      <trkpt lat="45.9796" lon="4.79788">
        <ele>224</ele>
        <time>2017-03-15T10:04:48Z</time>
      </trkpt>
      <trkpt lat="45.97968" lon="4.79788">
        <ele>224</ele>
        <time>2017-03-15T10:04:50Z</time>
      </trkpt>
      <trkpt lat="45.97972" lon="4.79788">
        <ele>224</ele>
        <time>2017-03-15T10:04:51Z</time>
      </trkpt>
      <trkpt lat="45.97981" lon="4.79787">
        <ele>224</ele>
        <time>2017-03-15T10:04:53Z</time>
      </trkpt>
      <trkpt lat="45.97985" lon="4.79786">
        <ele>224</ele>
        <time>2017-03-15T10:04:54Z</time>
      </trkpt>
      <trkpt lat="45.97994" lon="4.79784">
        <ele>224</ele>
        <time>2017-03-15T10:04:56Z</time>
      </trkpt>
      <trkpt lat="45.97998" lon="4.79784">
        <ele>224</ele>
        <time>2017-03-15T10:04:57Z</time>
      </trkpt>
      <trkpt lat="45.98006" lon="4.79783">
        <ele>223</ele>
        <time>2017-03-15T10:04:59Z</time>
      </trkpt>
      <trkpt lat="45.98011" lon="4.79782">
        <ele>223</ele>
        <time>2017-03-15T10:05:00Z</time>
      </trkpt>
      <trkpt lat="45.9802" lon="4.7978">
        <ele>223</ele>
        <time>2017-03-15T10:05:02Z</time>
      </trkpt>
      <trkpt lat="45.98024" lon="4.7978">
        <ele>223</ele>
        <time>2017-03-15T10:05:03Z</time>
      </trkpt>
      <trkpt lat="45.98032" lon="4.79779">
        <ele>223</ele>
        <time>2017-03-15T10:05:05Z</time>
      </trkpt>
      <trkpt lat="45.98037" lon="4.79779">
        <ele>223</ele>
        <time>2017-03-15T10:05:06Z</time>
      </trkpt>
      <trkpt lat="45.98041" lon="4.79777">
        <ele>223</ele>
        <time>2017-03-15T10:05:07Z</time>
      </trkpt>
      <trkpt lat="45.98046" lon="4.79777">
        <ele>223</ele>
        <time>2017-03-15T10:05:08Z</time>
      </trkpt>
      <trkpt lat="45.98055" lon="4.79775">
        <ele>223</ele>
        <time>2017-03-15T10:05:10Z</time>
      </trkpt>
      <trkpt lat="45.98059" lon="4.79775">
        <ele>223</ele>
        <time>2017-03-15T10:05:11Z</time>
      </trkpt>
      <trkpt lat="45.98067" lon="4.79773">
        <ele>223</ele>
        <time>2017-03-15T10:05:13Z</time>
      </trkpt>
      <trkpt lat="45.98071" lon="4.79772">
        <ele>223</ele>
        <time>2017-03-15T10:05:14Z</time>
      </trkpt>
      <trkpt lat="45.9808" lon="4.79771">
        <ele>223</ele>
        <time>2017-03-15T10:05:16Z</time>
      </trkpt>
      <trkpt lat="45.98084" lon="4.7977">
        <ele>223</ele>
        <time>2017-03-15T10:05:17Z</time>
      </trkpt>
      <trkpt lat="45.98092" lon="4.79769">
        <ele>223</ele>
        <time>2017-03-15T10:05:19Z</time>
      </trkpt>
      <trkpt lat="45.98096" lon="4.79768">
        <ele>223</ele>
        <time>2017-03-15T10:05:20Z</time>
      </trkpt>
      <trkpt lat="45.98104" lon="4.79766">
        <ele>224</ele>
        <time>2017-03-15T10:05:22Z</time>
      </trkpt>
      <trkpt lat="45.98109" lon="4.79766">
        <ele>224</ele>
        <time>2017-03-15T10:05:23Z</time>
      </trkpt>
      <trkpt lat="45.98117" lon="4.79765">
        <ele>224</ele>
        <time>2017-03-15T10:05:25Z</time>
      </trkpt>
      <trkpt lat="45.98121" lon="4.79765">
        <ele>224</ele>
        <time>2017-03-15T10:05:26Z</time>
      </trkpt>
      <trkpt lat="45.98129" lon="4.79764">
        <ele>224</ele>
        <time>2017-03-15T10:05:28Z</time>
      </trkpt>
      <trkpt lat="45.98133" lon="4.79764">
        <ele>224</ele>
        <time>2017-03-15T10:05:29Z</time>
      </trkpt>
      <trkpt lat="45.98141" lon="4.79763">
        <ele>224</ele>
        <time>2017-03-15T10:05:31Z</time>
      </trkpt>
      <trkpt lat="45.98145" lon="4.79763">
        <ele>225</ele>
        <time>2017-03-15T10:05:32Z</time>
      </trkpt>
      <trkpt lat="45.98152" lon="4.79763">
        <ele>225</ele>
        <time>2017-03-15T10:05:34Z</time>
      </trkpt>
      <trkpt lat="45.98156" lon="4.79764">
        <ele>225</ele>
        <time>2017-03-15T10:05:35Z</time>
      </trkpt>
      <trkpt lat="45.98162" lon="4.79768">
        <ele>225</ele>
        <time>2017-03-15T10:05:37Z</time>
      </trkpt>
      <trkpt lat="45.98165" lon="4.79771">
        <ele>225</ele>
        <time>2017-03-15T10:05:38Z</time>
      </trkpt>
      <trkpt lat="45.98171" lon="4.79778">
        <ele>226</ele>
        <time>2017-03-15T10:05:40Z</time>
      </trkpt>
      <trkpt lat="45.98173" lon="4.79782">
        <ele>226</ele>
        <time>2017-03-15T10:05:41Z</time>
      </trkpt>
      <trkpt lat="45.98176" lon="4.79792">
        <ele>226</ele>
        <time>2017-03-15T10:05:43Z</time>
      </trkpt>
      <trkpt lat="45.98178" lon="4.79796">
        <ele>226</ele>
        <time>2017-03-15T10:05:44Z</time>
      </trkpt>
      <trkpt lat="45.98181" lon="4.79807">
        <ele>225</ele>
        <time>2017-03-15T10:05:46Z</time>
      </trkpt>
      <trkpt lat="45.98183" lon="4.79812">
        <ele>225</ele>
        <time>2017-03-15T10:05:47Z</time>
      </trkpt>
      <trkpt lat="45.98186" lon="4.79818">
        <ele>225</ele>
        <time>2017-03-15T10:05:48Z</time>
      </trkpt>
      <trkpt lat="45.98188" lon="4.79824">
        <ele>225</ele>
        <time>2017-03-15T10:05:49Z</time>
      </trkpt>
      <trkpt lat="45.9819" lon="4.79831">
        <ele>225</ele>
        <time>2017-03-15T10:05:50Z</time>
      </trkpt>
      <trkpt lat="45.98192" lon="4.79838">
        <ele>225</ele>
        <time>2017-03-15T10:05:51Z</time>
      </trkpt>
      <trkpt lat="45.98195" lon="4.79846">
        <ele>225</ele>
        <time>2017-03-15T10:05:52Z</time>
      </trkpt>
      <trkpt lat="45.98197" lon="4.79853">
        <ele>225</ele>
        <time>2017-03-15T10:05:53Z</time>
      </trkpt>
      <trkpt lat="45.982" lon="4.79861">
        <ele>225</ele>
        <time>2017-03-15T10:05:54Z</time>
      </trkpt>
      <trkpt lat="45.98202" lon="4.79869">
        <ele>225</ele>
        <time>2017-03-15T10:05:55Z</time>
      </trkpt>
      <trkpt lat="45.98205" lon="4.79876">
        <ele>225</ele>
        <time>2017-03-15T10:05:56Z</time>
      </trkpt>
      <trkpt lat="45.98208" lon="4.79883">
        <ele>225</ele>
        <time>2017-03-15T10:05:57Z</time>
      </trkpt>
      <trkpt lat="45.98211" lon="4.7989">
        <ele>225</ele>
        <time>2017-03-15T10:05:58Z</time>
      </trkpt>
      <trkpt lat="45.98213" lon="4.79897">
        <ele>225</ele>
        <time>2017-03-15T10:05:59Z</time>
      </trkpt>
      <trkpt lat="45.98216" lon="4.79904">
        <ele>225</ele>
        <time>2017-03-15T10:06:00Z</time>
      </trkpt>
      <trkpt lat="45.98218" lon="4.79911">
        <ele>225</ele>
        <time>2017-03-15T10:06:01Z</time>
      </trkpt>
      <trkpt lat="45.98221" lon="4.79918">
        <ele>225</ele>
        <time>2017-03-15T10:06:02Z</time>
      </trkpt>
      <trkpt lat="45.98223" lon="4.79925">
        <ele>225</ele>
        <time>2017-03-15T10:06:03Z</time>
      </trkpt>
      <trkpt lat="45.98225" lon="4.79931">
        <ele>225</ele>
        <time>2017-03-15T10:06:04Z</time>
      </trkpt>
      <trkpt lat="45.98227" lon="4.79937">
        <ele>225</ele>
        <time>2017-03-15T10:06:05Z</time>
      </trkpt>
      <trkpt lat="45.9823" lon="4.79943">
        <ele>225</ele>
        <time>2017-03-15T10:06:06Z</time>
      </trkpt>
      <trkpt lat="45.98232" lon="4.7995">
        <ele>225</ele>
        <time>2017-03-15T10:06:07Z</time>
      </trkpt>
      <trkpt lat="45.98234" lon="4.79956">
        <ele>225</ele>
        <time>2017-03-15T10:06:08Z</time>
      </trkpt>
      <trkpt lat="45.98237" lon="4.79962">
        <ele>225</ele>
        <time>2017-03-15T10:06:09Z</time>
      </trkpt>
      <trkpt lat="45.98239" lon="4.79969">
        <ele>225</ele>
        <time>2017-03-15T10:06:10Z</time>
      </trkpt>
      <trkpt lat="45.98241" lon="4.79975">
        <ele>225</ele>
        <time>2017-03-15T10:06:11Z</time>
      </trkpt>
      <trkpt lat="45.98243" lon="4.79982">
        <ele>225</ele>
        <time>2017-03-15T10:06:12Z</time>
      </trkpt>
      <trkpt lat="45.98246" lon="4.79989">
        <ele>226</ele>
        <time>2017-03-15T10:06:13Z</time>
      </trkpt>
      <trkpt lat="45.98248" lon="4.79996">
        <ele>226</ele>
        <time>2017-03-15T10:06:14Z</time>
      </trkpt>
      <trkpt lat="45.9825" lon="4.80002">
        <ele>226</ele>
        <time>2017-03-15T10:06:15Z</time>
      </trkpt>
      <trkpt lat="45.98253" lon="4.80009">
        <ele>227</ele>
        <time>2017-03-15T10:06:16Z</time>
      </trkpt>
      <trkpt lat="45.98255" lon="4.80016">
        <ele>228</ele>
        <time>2017-03-15T10:06:17Z</time>
      </trkpt>
      <trkpt lat="45.98258" lon="4.80023">
        <ele>228</ele>
        <time>2017-03-15T10:06:18Z</time>
      </trkpt>
      <trkpt lat="45.9826" lon="4.8003">
        <ele>228</ele>
        <time>2017-03-15T10:06:19Z</time>
      </trkpt>
      <trkpt lat="45.98262" lon="4.80037">
        <ele>228</ele>
        <time>2017-03-15T10:06:20Z</time>
      </trkpt>
      <trkpt lat="45.98265" lon="4.80044">
        <ele>228</ele>
        <time>2017-03-15T10:06:21Z</time>
      </trkpt>
      <trkpt lat="45.98268" lon="4.80051">
        <ele>229</ele>
        <time>2017-03-15T10:06:22Z</time>
      </trkpt>
      <trkpt lat="45.9827" lon="4.80057">
        <ele>228</ele>
        <time>2017-03-15T10:06:23Z</time>
      </trkpt>
      <trkpt lat="45.98273" lon="4.80064">
        <ele>228</ele>
        <time>2017-03-15T10:06:24Z</time>
      </trkpt>
      <trkpt lat="45.98276" lon="4.80071">
        <ele>228</ele>
        <time>2017-03-15T10:06:25Z</time>
      </trkpt>
      <trkpt lat="45.98278" lon="4.80078">
        <ele>229</ele>
        <time>2017-03-15T10:06:26Z</time>
      </trkpt>
      <trkpt lat="45.98281" lon="4.80085">
        <ele>228</ele>
        <time>2017-03-15T10:06:27Z</time>
      </trkpt>
      <trkpt lat="45.98283" lon="4.80091">
        <ele>228</ele>
        <time>2017-03-15T10:06:28Z</time>
      </trkpt>
      <trkpt lat="45.98285" lon="4.80097">
        <ele>228</ele>
        <time>2017-03-15T10:06:29Z</time>
      </trkpt>
      <trkpt lat="45.98288" lon="4.80103">
        <ele>228</ele>
        <time>2017-03-15T10:06:30Z</time>
      </trkpt>
      <trkpt lat="45.9829" lon="4.80108">
        <ele>228</ele>
        <time>2017-03-15T10:06:31Z</time>
      </trkpt>
      <trkpt lat="45.98292" lon="4.80114">
        <ele>228</ele>
        <time>2017-03-15T10:06:32Z</time>
      </trkpt>
      <trkpt lat="45.98294" lon="4.80121">
        <ele>228</ele>
        <time>2017-03-15T10:06:33Z</time>
      </trkpt>
      <trkpt lat="45.98296" lon="4.80127">
        <ele>228</ele>
        <time>2017-03-15T10:06:34Z</time>
      </trkpt>
      <trkpt lat="45.98298" lon="4.80133">
        <ele>228</ele>
        <time>2017-03-15T10:06:35Z</time>
      </trkpt>
      <trkpt lat="45.983" lon="4.80139">
        <ele>228</ele>
        <time>2017-03-15T10:06:36Z</time>
      </trkpt>
      <trkpt lat="45.98303" lon="4.80145">
        <ele>228</ele>
        <time>2017-03-15T10:06:37Z</time>
      </trkpt>
      <trkpt lat="45.98305" lon="4.80152">
        <ele>228</ele>
        <time>2017-03-15T10:06:38Z</time>
      </trkpt>
      <trkpt lat="45.98307" lon="4.80158">
        <ele>228</ele>
        <time>2017-03-15T10:06:39Z</time>
      </trkpt>
      <trkpt lat="45.98309" lon="4.80165">
        <ele>228</ele>
        <time>2017-03-15T10:06:40Z</time>
      </trkpt>
      <trkpt lat="45.98311" lon="4.80171">
        <ele>227</ele>
        <time>2017-03-15T10:06:41Z</time>
      </trkpt>
      <trkpt lat="45.98313" lon="4.80177">
        <ele>227</ele>
        <time>2017-03-15T10:06:42Z</time>
      </trkpt>
      <trkpt lat="45.98316" lon="4.80183">
        <ele>227</ele>
        <time>2017-03-15T10:06:43Z</time>
      </trkpt>
      <trkpt lat="45.98318" lon="4.80189">
        <ele>227</ele>
        <time>2017-03-15T10:06:44Z</time>
      </trkpt>
      <trkpt lat="45.9832" lon="4.80196">
        <ele>227</ele>
        <time>2017-03-15T10:06:45Z</time>
      </trkpt>
      <trkpt lat="45.98324" lon="4.80207">
        <ele>227</ele>
        <time>2017-03-15T10:06:47Z</time>
      </trkpt>
      <trkpt lat="45.98325" lon="4.80213">
        <ele>227</ele>
        <time>2017-03-15T10:06:48Z</time>
      </trkpt>
      <trkpt lat="45.98327" lon="4.80226">
        <ele>228</ele>
        <time>2017-03-15T10:06:50Z</time>
      </trkpt>
      <trkpt lat="45.98326" lon="4.80232">
        <ele>228</ele>
        <time>2017-03-15T10:06:51Z</time>
      </trkpt>
      <trkpt lat="45.98324" lon="4.80238">
        <ele>228</ele>
        <time>2017-03-15T10:06:52Z</time>
      </trkpt>
      <trkpt lat="45.98321" lon="4.80244">
        <ele>228</ele>
        <time>2017-03-15T10:06:53Z</time>
      </trkpt>
      <trkpt lat="45.98319" lon="4.80251">
        <ele>228</ele>
        <time>2017-03-15T10:06:54Z</time>
      </trkpt>
      <trkpt lat="45.98318" lon="4.80258">
        <ele>227</ele>
        <time>2017-03-15T10:06:55Z</time>
      </trkpt>
      <trkpt lat="45.98317" lon="4.80265">
        <ele>227</ele>
        <time>2017-03-15T10:06:56Z</time>
      </trkpt>
      <trkpt lat="45.98315" lon="4.80272">
        <ele>227</ele>
        <time>2017-03-15T10:06:57Z</time>
      </trkpt>
      <trkpt lat="45.98314" lon="4.8028">
        <ele>226</ele>
        <time>2017-03-15T10:06:58Z</time>
      </trkpt>
      <trkpt lat="45.98312" lon="4.80289">
        <ele>226</ele>
        <time>2017-03-15T10:06:59Z</time>
      </trkpt>
      <trkpt lat="45.98311" lon="4.80297">
        <ele>226</ele>
        <time>2017-03-15T10:07:00Z</time>
      </trkpt>
      <trkpt lat="45.98309" lon="4.80305">
        <ele>226</ele>
        <time>2017-03-15T10:07:01Z</time>
      </trkpt>
      <trkpt lat="45.98307" lon="4.80313">
        <ele>226</ele>
        <time>2017-03-15T10:07:02Z</time>
      </trkpt>
      <trkpt lat="45.98305" lon="4.80321">
        <ele>226</ele>
        <time>2017-03-15T10:07:03Z</time>
      </trkpt>
      <trkpt lat="45.98303" lon="4.8033">
        <ele>226</ele>
        <time>2017-03-15T10:07:04Z</time>
      </trkpt>
      <trkpt lat="45.98301" lon="4.80338">
        <ele>225</ele>
        <time>2017-03-15T10:07:05Z</time>
      </trkpt>
      <trkpt lat="45.983" lon="4.80346">
        <ele>225</ele>
        <time>2017-03-15T10:07:06Z</time>
      </trkpt>
      <trkpt lat="45.98298" lon="4.80355">
        <ele>225</ele>
        <time>2017-03-15T10:07:07Z</time>
      </trkpt>
      <trkpt lat="45.98296" lon="4.80364">
        <ele>225</ele>
        <time>2017-03-15T10:07:08Z</time>
      </trkpt>
      <trkpt lat="45.98293" lon="4.80374">
        <ele>224</ele>
        <time>2017-03-15T10:07:09Z</time>
      </trkpt>
      <trkpt lat="45.98291" lon="4.80382">
        <ele>224</ele>
        <time>2017-03-15T10:07:10Z</time>
      </trkpt>
      <trkpt lat="45.98289" lon="4.80392">
        <ele>224</ele>
        <time>2017-03-15T10:07:11Z</time>
      </trkpt>
      <trkpt lat="45.98287" lon="4.804">
        <ele>224</ele>
        <time>2017-03-15T10:07:12Z</time>
      </trkpt>
      <trkpt lat="45.98286" lon="4.80409">
        <ele>224</ele>
        <time>2017-03-15T10:07:13Z</time>
      </trkpt>
      <trkpt lat="45.98284" lon="4.80418">
        <ele>223</ele>
        <time>2017-03-15T10:07:14Z</time>
      </trkpt>
      <trkpt lat="45.98282" lon="4.80427">
        <ele>223</ele>
        <time>2017-03-15T10:07:15Z</time>
      </trkpt>
      <trkpt lat="45.9828" lon="4.80436">
        <ele>223</ele>
        <time>2017-03-15T10:07:16Z</time>
      </trkpt>
      <trkpt lat="45.98278" lon="4.80444">
        <ele>223</ele>
        <time>2017-03-15T10:07:17Z</time>
      </trkpt>
      <trkpt lat="45.98276" lon="4.80453">
        <ele>223</ele>
        <time>2017-03-15T10:07:18Z</time>
      </trkpt>
      <trkpt lat="45.98274" lon="4.80461">
        <ele>223</ele>
        <time>2017-03-15T10:07:19Z</time>
      </trkpt>
      <trkpt lat="45.98272" lon="4.8047">
        <ele>223</ele>
        <time>2017-03-15T10:07:20Z</time>
      </trkpt>
      <trkpt lat="45.9827" lon="4.80478">
        <ele>223</ele>
        <time>2017-03-15T10:07:21Z</time>
      </trkpt>
      <trkpt lat="45.98267" lon="4.80487">
        <ele>223</ele>
        <time>2017-03-15T10:07:22Z</time>
      </trkpt>
      <trkpt lat="45.98264" lon="4.80495">
        <ele>223</ele>
        <time>2017-03-15T10:07:23Z</time>
      </trkpt>
      <trkpt lat="45.98262" lon="4.80504">
        <ele>223</ele>
        <time>2017-03-15T10:07:24Z</time>
      </trkpt>
      <trkpt lat="45.9826" lon="4.80512">
        <ele>223</ele>
        <time>2017-03-15T10:07:25Z</time>
      </trkpt>
      <trkpt lat="45.98258" lon="4.8052">
        <ele>223</ele>
        <time>2017-03-15T10:07:26Z</time>
      </trkpt>
      <trkpt lat="45.98255" lon="4.80528">
        <ele>223</ele>
        <time>2017-03-15T10:07:27Z</time>
      </trkpt>
      <trkpt lat="45.98253" lon="4.80536">
        <ele>224</ele>
        <time>2017-03-15T10:07:28Z</time>
      </trkpt>
      <trkpt lat="45.9825" lon="4.80543">
        <ele>224</ele>
        <time>2017-03-15T10:07:29Z</time>
      </trkpt>
      <trkpt lat="45.98248" lon="4.80551">
        <ele>223</ele>
        <time>2017-03-15T10:07:30Z</time>
      </trkpt>
      <trkpt lat="45.98246" lon="4.80558">
        <ele>223</ele>
        <time>2017-03-15T10:07:31Z</time>
      </trkpt>
      <trkpt lat="45.98242" lon="4.80565">
        <ele>223</ele>
        <time>2017-03-15T10:07:32Z</time>
      </trkpt>
      <trkpt lat="45.98239" lon="4.80572">
        <ele>224</ele>
        <time>2017-03-15T10:07:33Z</time>
      </trkpt>
      <trkpt lat="45.98237" lon="4.8058">
        <ele>224</ele>
        <time>2017-03-15T10:07:34Z</time>
      </trkpt>
      <trkpt lat="45.98234" lon="4.80588">
        <ele>224</ele>
        <time>2017-03-15T10:07:35Z</time>
      </trkpt>
      <trkpt lat="45.98232" lon="4.80595">
        <ele>224</ele>
        <time>2017-03-15T10:07:36Z</time>
      </trkpt>
      <trkpt lat="45.9823" lon="4.80603">
        <ele>224</ele>
        <time>2017-03-15T10:07:37Z</time>
      </trkpt>
      <trkpt lat="45.98229" lon="4.80611">
        <ele>224</ele>
        <time>2017-03-15T10:07:38Z</time>
      </trkpt>
      <trkpt lat="45.98227" lon="4.80618">
        <ele>224</ele>
        <time>2017-03-15T10:07:39Z</time>
      </trkpt>
      <trkpt lat="45.98225" lon="4.80625">
        <ele>224</ele>
        <time>2017-03-15T10:07:40Z</time>
      </trkpt>
      <trkpt lat="45.98224" lon="4.80632">
        <ele>224</ele>
        <time>2017-03-15T10:07:41Z</time>
      </trkpt>
      <trkpt lat="45.98223" lon="4.8064">
        <ele>224</ele>
        <time>2017-03-15T10:07:42Z</time>
      </trkpt>
      <trkpt lat="45.98221" lon="4.80647">
        <ele>224</ele>
        <time>2017-03-15T10:07:43Z</time>
      </trkpt>
      <trkpt lat="45.98217" lon="4.80659">
        <ele>224</ele>
        <time>2017-03-15T10:07:45Z</time>
      </trkpt>
      <trkpt lat="45.98215" lon="4.80663">
        <ele>224</ele>
        <time>2017-03-15T10:07:46Z</time>
      </trkpt>
      <trkpt lat="45.98208" lon="4.8067">
        <ele>224</ele>
        <time>2017-03-15T10:07:48Z</time>
      </trkpt>
      <trkpt lat="45.98204" lon="4.80672">
        <ele>224</ele>
        <time>2017-03-15T10:07:49Z</time>
      </trkpt>
      <trkpt lat="45.98199" lon="4.80674">
        <ele>225</ele>
        <time>2017-03-15T10:07:50Z</time>
      </trkpt>
      <trkpt lat="45.98194" lon="4.80676">
        <ele>225</ele>
        <time>2017-03-15T10:07:51Z</time>
      </trkpt>
      <trkpt lat="45.9819" lon="4.80678">
        <ele>225</ele>
        <time>2017-03-15T10:07:52Z</time>
      </trkpt>
      <trkpt lat="45.98186" lon="4.80679">
        <ele>225</ele>
        <time>2017-03-15T10:07:53Z</time>
      </trkpt>
      <trkpt lat="45.98181" lon="4.80682">
        <ele>225</ele>
        <time>2017-03-15T10:07:54Z</time>
      </trkpt>
      <trkpt lat="45.98177" lon="4.80683">
        <ele>225</ele>
        <time>2017-03-15T10:07:55Z</time>
      </trkpt>
      <trkpt lat="45.98168" lon="4.80684">
        <ele>225</ele>
        <time>2017-03-15T10:07:57Z</time>
      </trkpt>
      <trkpt lat="45.98163" lon="4.80685">
        <ele>227</ele>
        <time>2017-03-15T10:07:58Z</time>
      </trkpt>
      <trkpt lat="45.98154" lon="4.80686">
        <ele>227</ele>
        <time>2017-03-15T10:08:00Z</time>
      </trkpt>
      <trkpt lat="45.9815" lon="4.80687">
        <ele>227</ele>
        <time>2017-03-15T10:08:01Z</time>
      </trkpt>
      <trkpt lat="45.98142" lon="4.80686">
        <ele>228</ele>
        <time>2017-03-15T10:08:03Z</time>
      </trkpt>
      <trkpt lat="45.98137" lon="4.80687">
        <ele>228</ele>
        <time>2017-03-15T10:08:04Z</time>
      </trkpt>
      <trkpt lat="45.9813" lon="4.80687">
        <ele>228</ele>
        <time>2017-03-15T10:08:06Z</time>
      </trkpt>
      <trkpt lat="45.98126" lon="4.80687">
        <ele>228</ele>
        <time>2017-03-15T10:08:07Z</time>
      </trkpt>
      <trkpt lat="45.98118" lon="4.80687">
        <ele>228</ele>
        <time>2017-03-15T10:08:09Z</time>
      </trkpt>
      <trkpt lat="45.98114" lon="4.80687">
        <ele>228</ele>
        <time>2017-03-15T10:08:10Z</time>
      </trkpt>
      <trkpt lat="45.98107" lon="4.80686">
        <ele>228</ele>
        <time>2017-03-15T10:08:12Z</time>
      </trkpt>
      <trkpt lat="45.98102" lon="4.80686">
        <ele>228</ele>
        <time>2017-03-15T10:08:13Z</time>
      </trkpt>
      <trkpt lat="45.98094" lon="4.80686">
        <ele>228</ele>
        <time>2017-03-15T10:08:15Z</time>
      </trkpt>
      <trkpt lat="45.98091" lon="4.80687">
        <ele>228</ele>
        <time>2017-03-15T10:08:16Z</time>
      </trkpt>
      <trkpt lat="45.98082" lon="4.80687">
        <ele>229</ele>
        <time>2017-03-15T10:08:18Z</time>
      </trkpt>
      <trkpt lat="45.98078" lon="4.80688">
        <ele>229</ele>
        <time>2017-03-15T10:08:19Z</time>
      </trkpt>
      <trkpt lat="45.9807" lon="4.80689">
        <ele>230</ele>
        <time>2017-03-15T10:08:21Z</time>
      </trkpt>
      <trkpt lat="45.98066" lon="4.80689">
        <ele>230</ele>
        <time>2017-03-15T10:08:22Z</time>
      </trkpt>
      <trkpt lat="45.98059" lon="4.8069">
        <ele>230</ele>
        <time>2017-03-15T10:08:24Z</time>
      </trkpt>
      <trkpt lat="45.98056" lon="4.80691">
        <ele>230</ele>
        <time>2017-03-15T10:08:25Z</time>
      </trkpt>
      <trkpt lat="45.98049" lon="4.80692">
        <ele>230</ele>
        <time>2017-03-15T10:08:27Z</time>
      </trkpt>
      <trkpt lat="45.98046" lon="4.80692">
        <ele>230</ele>
        <time>2017-03-15T10:08:28Z</time>
      </trkpt>
      <trkpt lat="45.98038" lon="4.80694">
        <ele>230</ele>
        <time>2017-03-15T10:08:31Z</time>
      </trkpt>
      <trkpt lat="45.98035" lon="4.80696">
        <ele>230</ele>
        <time>2017-03-15T10:08:32Z</time>
      </trkpt>
      <trkpt lat="45.98029" lon="4.80706">
        <ele>231</ele>
        <time>2017-03-15T10:08:35Z</time>
      </trkpt>
      <trkpt lat="45.98029" lon="4.8071">
        <ele>231</ele>
        <time>2017-03-15T10:08:36Z</time>
      </trkpt>
      <trkpt lat="45.98031" lon="4.80721">
        <ele>231</ele>
        <time>2017-03-15T10:08:39Z</time>
      </trkpt>
      <trkpt lat="45.98032" lon="4.80724">
        <ele>231</ele>
        <time>2017-03-15T10:08:40Z</time>
      </trkpt>
      <trkpt lat="45.98034" lon="4.80736">
        <ele>231</ele>
        <time>2017-03-15T10:08:43Z</time>
      </trkpt>
      <trkpt lat="45.98033" lon="4.8074">
        <ele>231</ele>
        <time>2017-03-15T10:08:44Z</time>
      </trkpt>
      <trkpt lat="45.98034" lon="4.8075">
        <ele>233</ele>
        <time>2017-03-15T10:08:47Z</time>
      </trkpt>
      <trkpt lat="45.98035" lon="4.80753">
        <ele>233</ele>
        <time>2017-03-15T10:08:48Z</time>
      </trkpt>
      <trkpt lat="45.98037" lon="4.80765">
        <ele>233</ele>
        <time>2017-03-15T10:08:51Z</time>
      </trkpt>
      <trkpt lat="45.98038" lon="4.80769">
        <ele>233</ele>
        <time>2017-03-15T10:08:52Z</time>
      </trkpt>
      <trkpt lat="45.98041" lon="4.8078">
        <ele>233</ele>
        <time>2017-03-15T10:08:55Z</time>
      </trkpt>
      <trkpt lat="45.98042" lon="4.80785">
        <ele>233</ele>
        <time>2017-03-15T10:08:56Z</time>
      </trkpt>
      <trkpt lat="45.98045" lon="4.80796">
        <ele>234</ele>
        <time>2017-03-15T10:08:59Z</time>
      </trkpt>
      <trkpt lat="45.98046" lon="4.808">
        <ele>234</ele>
        <time>2017-03-15T10:09:00Z</time>
      </trkpt>
      <trkpt lat="45.98049" lon="4.80812">
        <ele>234</ele>
        <time>2017-03-15T10:09:03Z</time>
      </trkpt>
      <trkpt lat="45.9805" lon="4.80815">
        <ele>234</ele>
        <time>2017-03-15T10:09:04Z</time>
      </trkpt>
      <trkpt lat="45.98051" lon="4.80826">
        <ele>234</ele>
        <time>2017-03-15T10:09:07Z</time>
      </trkpt>
      <trkpt lat="45.98052" lon="4.8083">
        <ele>234</ele>
        <time>2017-03-15T10:09:08Z</time>
      </trkpt>
      <trkpt lat="45.98056" lon="4.80841">
        <ele>236</ele>
        <time>2017-03-15T10:09:11Z</time>
      </trkpt>
      <trkpt lat="45.98057" lon="4.80844">
        <ele>236</ele>
        <time>2017-03-15T10:09:12Z</time>
      </trkpt>
      <trkpt lat="45.98061" lon="4.80854">
        <ele>236</ele>
        <time>2017-03-15T10:09:15Z</time>
      </trkpt>
      <trkpt lat="45.98062" lon="4.80858">
        <ele>236</ele>
        <time>2017-03-15T10:09:16Z</time>
      </trkpt>
      <trkpt lat="45.98063" lon="4.8087">
        <ele>237</ele>
        <time>2017-03-15T10:09:19Z</time>
      </trkpt>
      <trkpt lat="45.98064" lon="4.80874">
        <ele>237</ele>
        <time>2017-03-15T10:09:20Z</time>
      </trkpt>
      <trkpt lat="45.98065" lon="4.80883">
        <ele>237</ele>
        <time>2017-03-15T10:09:23Z</time>
      </trkpt>
      <trkpt lat="45.98066" lon="4.80887">
        <ele>237</ele>
        <time>2017-03-15T10:09:24Z</time>
      </trkpt>
      <trkpt lat="45.98068" lon="4.80897">
        <ele>238</ele>
        <time>2017-03-15T10:09:27Z</time>
      </trkpt>
      <trkpt lat="45.98069" lon="4.809">
        <ele>238</ele>
        <time>2017-03-15T10:09:28Z</time>
      </trkpt>
      <trkpt lat="45.98071" lon="4.8091">
        <ele>238</ele>
        <time>2017-03-15T10:09:31Z</time>
      </trkpt>
      <trkpt lat="45.98072" lon="4.80914">
        <ele>238</ele>
        <time>2017-03-15T10:09:32Z</time>
      </trkpt>
      <trkpt lat="45.98075" lon="4.80924">
        <ele>240</ele>
        <time>2017-03-15T10:09:35Z</time>
      </trkpt>
      <trkpt lat="45.98076" lon="4.80927">
        <ele>240</ele>
        <time>2017-03-15T10:09:36Z</time>
      </trkpt>
      <trkpt lat="45.9808" lon="4.80937">
        <ele>240</ele>
        <time>2017-03-15T10:09:39Z</time>
      </trkpt>
      <trkpt lat="45.98081" lon="4.80941">
        <ele>240</ele>
        <time>2017-03-15T10:09:40Z</time>
      </trkpt>
      <trkpt lat="45.98084" lon="4.80951">
        <ele>238</ele>
        <time>2017-03-15T10:09:43Z</time>
      </trkpt>
      <trkpt lat="45.98085" lon="4.80954">
        <ele>239</ele>
        <time>2017-03-15T10:09:44Z</time>
      </trkpt>
      <trkpt lat="45.98086" lon="4.80964">
        <ele>239</ele>
        <time>2017-03-15T10:09:47Z</time>
      </trkpt>
      <trkpt lat="45.98087" lon="4.80968">
        <ele>239</ele>
        <time>2017-03-15T10:09:48Z</time>
      </trkpt>
      <trkpt lat="45.98093" lon="4.80978">
        <ele>239</ele>
        <time>2017-03-15T10:09:51Z</time>
      </trkpt>
      <trkpt lat="45.98094" lon="4.80981">
        <ele>240</ele>
        <time>2017-03-15T10:09:52Z</time>
      </trkpt>
      <trkpt lat="45.98096" lon="4.80992">
        <ele>240</ele>
        <time>2017-03-15T10:09:55Z</time>
      </trkpt>
      <trkpt lat="45.98098" lon="4.80996">
        <ele>240</ele>
        <time>2017-03-15T10:09:56Z</time>
      </trkpt>
      <trkpt lat="45.981" lon="4.81004">
        <ele>242</ele>
        <time>2017-03-15T10:09:58Z</time>
      </trkpt>
      <trkpt lat="45.98102" lon="4.81009">
        <ele>242</ele>
        <time>2017-03-15T10:09:59Z</time>
      </trkpt>
      <trkpt lat="45.98104" lon="4.81019">
        <ele>242</ele>
        <time>2017-03-15T10:10:01Z</time>
      </trkpt>
      <trkpt lat="45.98106" lon="4.81024">
        <ele>242</ele>
        <time>2017-03-15T10:10:02Z</time>
      </trkpt>
      <trkpt lat="45.9811" lon="4.81035">
        <ele>242</ele>
        <time>2017-03-15T10:10:04Z</time>
      </trkpt>
      <trkpt lat="45.98112" lon="4.8104">
        <ele>242</ele>
        <time>2017-03-15T10:10:05Z</time>
      </trkpt>
      <trkpt lat="45.98116" lon="4.8105">
        <ele>243</ele>
        <time>2017-03-15T10:10:07Z</time>
      </trkpt>
      <trkpt lat="45.98118" lon="4.81056">
        <ele>243</ele>
        <time>2017-03-15T10:10:08Z</time>
      </trkpt>
      <trkpt lat="45.98121" lon="4.81066">
        <ele>243</ele>
        <time>2017-03-15T10:10:10Z</time>
      </trkpt>
      <trkpt lat="45.98123" lon="4.81071">
        <ele>243</ele>
        <time>2017-03-15T10:10:11Z</time>
      </trkpt>
      <trkpt lat="45.98126" lon="4.81081">
        <ele>243</ele>
        <time>2017-03-15T10:10:13Z</time>
      </trkpt>
      <trkpt lat="45.98128" lon="4.81086">
        <ele>245</ele>
        <time>2017-03-15T10:10:14Z</time>
      </trkpt>
      <trkpt lat="45.98132" lon="4.81096">
        <ele>245</ele>
        <time>2017-03-15T10:10:16Z</time>
      </trkpt>
      <trkpt lat="45.98134" lon="4.81101">
        <ele>245</ele>
        <time>2017-03-15T10:10:17Z</time>
      </trkpt>
      <trkpt lat="45.98138" lon="4.81111">
        <ele>245</ele>
        <time>2017-03-15T10:10:19Z</time>
      </trkpt>
      <trkpt lat="45.9814" lon="4.81116">
        <ele>245</ele>
        <time>2017-03-15T10:10:20Z</time>
      </trkpt>
      <trkpt lat="45.98144" lon="4.81126">
        <ele>245</ele>
        <time>2017-03-15T10:10:22Z</time>
      </trkpt>
      <trkpt lat="45.98146" lon="4.81131">
        <ele>245</ele>
        <time>2017-03-15T10:10:23Z</time>
      </trkpt>
      <trkpt lat="45.9815" lon="4.81141">
        <ele>245</ele>
        <time>2017-03-15T10:10:25Z</time>
      </trkpt>
      <trkpt lat="45.98152" lon="4.81145">
        <ele>245</ele>
        <time>2017-03-15T10:10:26Z</time>
      </trkpt>
      <trkpt lat="45.98155" lon="4.81154">
        <ele>245</ele>
        <time>2017-03-15T10:10:28Z</time>
      </trkpt>
      <trkpt lat="45.98157" lon="4.81159">
        <ele>245</ele>
        <time>2017-03-15T10:10:29Z</time>
      </trkpt>
      <trkpt lat="45.9816" lon="4.81169">
        <ele>245</ele>
        <time>2017-03-15T10:10:31Z</time>
      </trkpt>
      <trkpt lat="45.98161" lon="4.81174">
        <ele>246</ele>
        <time>2017-03-15T10:10:32Z</time>
      </trkpt>
      <trkpt lat="45.98163" lon="4.81184">
        <ele>246</ele>
        <time>2017-03-15T10:10:34Z</time>
      </trkpt>
      <trkpt lat="45.98164" lon="4.81189">
        <ele>246</ele>
        <time>2017-03-15T10:10:35Z</time>
      </trkpt>
      <trkpt lat="45.98165" lon="4.81199">
        <ele>246</ele>
        <time>2017-03-15T10:10:37Z</time>
      </trkpt>
      <trkpt lat="45.98166" lon="4.81204">
        <ele>247</ele>
        <time>2017-03-15T10:10:38Z</time>
      </trkpt>
      <trkpt lat="45.98167" lon="4.81214">
        <ele>246</ele>
        <time>2017-03-15T10:10:40Z</time>
      </trkpt>
      <trkpt lat="45.98168" lon="4.81219">
        <ele>246</ele>
        <time>2017-03-15T10:10:41Z</time>
      </trkpt>
      <trkpt lat="45.98169" lon="4.8123">
        <ele>246</ele>
        <time>2017-03-15T10:10:43Z</time>
      </trkpt>
      <trkpt lat="45.98169" lon="4.81235">
        <ele>247</ele>
        <time>2017-03-15T10:10:44Z</time>
      </trkpt>
      <trkpt lat="45.98168" lon="4.81244">
        <ele>247</ele>
        <time>2017-03-15T10:10:46Z</time>
      </trkpt>
      <trkpt lat="45.98169" lon="4.81249">
        <ele>248</ele>
        <time>2017-03-15T10:10:47Z</time>
      </trkpt>
      <trkpt lat="45.98171" lon="4.8126">
        <ele>247</ele>
        <time>2017-03-15T10:10:49Z</time>
      </trkpt>
      <trkpt lat="45.98172" lon="4.81266">
        <ele>247</ele>
        <time>2017-03-15T10:10:50Z</time>
      </trkpt>
      <trkpt lat="45.98175" lon="4.81278">
        <ele>247</ele>
        <time>2017-03-15T10:10:52Z</time>
      </trkpt>
      <trkpt lat="45.98177" lon="4.81283">
        <ele>247</ele>
        <time>2017-03-15T10:10:53Z</time>
      </trkpt>
      <trkpt lat="45.98179" lon="4.81293">
        <ele>247</ele>
        <time>2017-03-15T10:10:55Z</time>
      </trkpt>
      <trkpt lat="45.9818" lon="4.81299">
        <ele>247</ele>
        <time>2017-03-15T10:10:56Z</time>
      </trkpt>
      <trkpt lat="45.98183" lon="4.81311">
        <ele>247</ele>
        <time>2017-03-15T10:10:58Z</time>
      </trkpt>
      <trkpt lat="45.98184" lon="4.81316">
        <ele>247</ele>
        <time>2017-03-15T10:10:59Z</time>
      </trkpt>
      <trkpt lat="45.98186" lon="4.81328">
        <ele>247</ele>
        <time>2017-03-15T10:11:01Z</time>
      </trkpt>
      <trkpt lat="45.98188" lon="4.81333">
        <ele>247</ele>
        <time>2017-03-15T10:11:02Z</time>
      </trkpt>
      <trkpt lat="45.98191" lon="4.81345">
        <ele>248</ele>
        <time>2017-03-15T10:11:04Z</time>
      </trkpt>
      <trkpt lat="45.98192" lon="4.8135">
        <ele>248</ele>
        <time>2017-03-15T10:11:05Z</time>
      </trkpt>
      <trkpt lat="45.98195" lon="4.81361">
        <ele>248</ele>
        <time>2017-03-15T10:11:07Z</time>
      </trkpt>
      <trkpt lat="45.98196" lon="4.81366">
        <ele>248</ele>
        <time>2017-03-15T10:11:08Z</time>
      </trkpt>
      <trkpt lat="45.982" lon="4.81377">
        <ele>248</ele>
        <time>2017-03-15T10:11:10Z</time>
      </trkpt>
      <trkpt lat="45.98201" lon="4.81382">
        <ele>248</ele>
        <time>2017-03-15T10:11:11Z</time>
      </trkpt>
      <trkpt lat="45.98204" lon="4.81392">
        <ele>248</ele>
        <time>2017-03-15T10:11:13Z</time>
      </trkpt>
      <trkpt lat="45.98205" lon="4.81398">
        <ele>248</ele>
        <time>2017-03-15T10:11:14Z</time>
      </trkpt>
      <trkpt lat="45.98209" lon="4.81408">
        <ele>248</ele>
        <time>2017-03-15T10:11:16Z</time>
      </trkpt>
      <trkpt lat="45.98211" lon="4.81413">
        <ele>248</ele>
        <time>2017-03-15T10:11:17Z</time>
      </trkpt>
      <trkpt lat="45.98215" lon="4.81423">
        <ele>249</ele>
        <time>2017-03-15T10:11:19Z</time>
      </trkpt>
      <trkpt lat="45.98216" lon="4.81428">
        <ele>249</ele>
        <time>2017-03-15T10:11:20Z</time>
      </trkpt>
      <trkpt lat="45.98219" lon="4.81438">
        <ele>249</ele>
        <time>2017-03-15T10:11:22Z</time>
      </trkpt>
      <trkpt lat="45.98221" lon="4.81443">
        <ele>249</ele>
        <time>2017-03-15T10:11:23Z</time>
      </trkpt>
      <trkpt lat="45.98224" lon="4.81454">
        <ele>249</ele>
        <time>2017-03-15T10:11:25Z</time>
      </trkpt>
      <trkpt lat="45.98226" lon="4.8146">
        <ele>249</ele>
        <time>2017-03-15T10:11:26Z</time>
      </trkpt>
      <trkpt lat="45.9823" lon="4.8147">
        <ele>249</ele>
        <time>2017-03-15T10:11:28Z</time>
      </trkpt>
      <trkpt lat="45.98232" lon="4.81476">
        <ele>249</ele>
        <time>2017-03-15T10:11:29Z</time>
      </trkpt>
      <trkpt lat="45.98236" lon="4.81487">
        <ele>249</ele>
        <time>2017-03-15T10:11:31Z</time>
      </trkpt>
      <trkpt lat="45.98237" lon="4.81493">
        <ele>249</ele>
        <time>2017-03-15T10:11:32Z</time>
      </trkpt>
      <trkpt lat="45.98239" lon="4.81499">
        <ele>249</ele>
        <time>2017-03-15T10:11:33Z</time>
      </trkpt>
      <trkpt lat="45.98242" lon="4.81506">
        <ele>249</ele>
        <time>2017-03-15T10:11:34Z</time>
      </trkpt>
      <trkpt lat="45.98244" lon="4.81512">
        <ele>249</ele>
        <time>2017-03-15T10:11:35Z</time>
      </trkpt>
      <trkpt lat="45.98246" lon="4.81519">
        <ele>249</ele>
        <time>2017-03-15T10:11:36Z</time>
      </trkpt>
      <trkpt lat="45.98248" lon="4.81526">
        <ele>249</ele>
        <time>2017-03-15T10:11:37Z</time>
      </trkpt>
      <trkpt lat="45.9825" lon="4.81532">
        <ele>249</ele>
        <time>2017-03-15T10:11:38Z</time>
      </trkpt>
      <trkpt lat="45.98252" lon="4.81539">
        <ele>247</ele>
        <time>2017-03-15T10:11:39Z</time>
      </trkpt>
      <trkpt lat="45.98254" lon="4.81546">
        <ele>247</ele>
        <time>2017-03-15T10:11:40Z</time>
      </trkpt>
      <trkpt lat="45.98256" lon="4.81552">
        <ele>247</ele>
        <time>2017-03-15T10:11:41Z</time>
      </trkpt>
      <trkpt lat="45.98258" lon="4.81559">
        <ele>247</ele>
        <time>2017-03-15T10:11:42Z</time>
      </trkpt>
      <trkpt lat="45.98261" lon="4.81565">
        <ele>247</ele>
        <time>2017-03-15T10:11:43Z</time>
      </trkpt>
      <trkpt lat="45.98263" lon="4.81571">
        <ele>247</ele>
        <time>2017-03-15T10:11:44Z</time>
      </trkpt>
      <trkpt lat="45.98265" lon="4.81577">
        <ele>247</ele>
        <time>2017-03-15T10:11:45Z</time>
      </trkpt>
      <trkpt lat="45.98268" lon="4.81584">
        <ele>247</ele>
        <time>2017-03-15T10:11:46Z</time>
      </trkpt>
      <trkpt lat="45.9827" lon="4.8159">
        <ele>247</ele>
        <time>2017-03-15T10:11:47Z</time>
      </trkpt>
      <trkpt lat="45.98272" lon="4.81597">
        <ele>247</ele>
        <time>2017-03-15T10:11:48Z</time>
      </trkpt>
      <trkpt lat="45.98275" lon="4.81604">
        <ele>247</ele>
        <time>2017-03-15T10:11:49Z</time>
      </trkpt>
      <trkpt lat="45.98278" lon="4.8161">
        <ele>247</ele>
        <time>2017-03-15T10:11:50Z</time>
      </trkpt>
      <trkpt lat="45.98281" lon="4.81616">
        <ele>247</ele>
        <time>2017-03-15T10:11:51Z</time>
      </trkpt>
      <trkpt lat="45.98285" lon="4.81622">
        <ele>247</ele>
        <time>2017-03-15T10:11:52Z</time>
      </trkpt>
      <trkpt lat="45.98289" lon="4.81628">
        <ele>247</ele>
        <time>2017-03-15T10:11:53Z</time>
      </trkpt>
      <trkpt lat="45.98293" lon="4.81632">
        <ele>247</ele>
        <time>2017-03-15T10:11:54Z</time>
      </trkpt>
      <trkpt lat="45.98297" lon="4.81637">
        <ele>247</ele>
        <time>2017-03-15T10:11:55Z</time>
      </trkpt>
      <trkpt lat="45.98301" lon="4.81641">
        <ele>246</ele>
        <time>2017-03-15T10:11:56Z</time>
      </trkpt>
      <trkpt lat="45.98305" lon="4.81645">
        <ele>246</ele>
        <time>2017-03-15T10:11:57Z</time>
      </trkpt>
      <trkpt lat="45.98309" lon="4.81649">
        <ele>246</ele>
        <time>2017-03-15T10:11:58Z</time>
      </trkpt>
      <trkpt lat="45.98313" lon="4.81653">
        <ele>246</ele>
        <time>2017-03-15T10:11:59Z</time>
      </trkpt>
      <trkpt lat="45.98317" lon="4.81657">
        <ele>246</ele>
        <time>2017-03-15T10:12:00Z</time>
      </trkpt>
      <trkpt lat="45.98322" lon="4.81661">
        <ele>246</ele>
        <time>2017-03-15T10:12:01Z</time>
      </trkpt>
      <trkpt lat="45.98326" lon="4.81664">
        <ele>246</ele>
        <time>2017-03-15T10:12:02Z</time>
      </trkpt>
      <trkpt lat="45.98331" lon="4.81667">
        <ele>246</ele>
        <time>2017-03-15T10:12:03Z</time>
      </trkpt>
      <trkpt lat="45.98336" lon="4.8167">
        <ele>246</ele>
        <time>2017-03-15T10:12:04Z</time>
      </trkpt>
      <trkpt lat="45.9834" lon="4.81672">
        <ele>245</ele>
        <time>2017-03-15T10:12:05Z</time>
      </trkpt>
      <trkpt lat="45.98346" lon="4.81674">
        <ele>245</ele>
        <time>2017-03-15T10:12:06Z</time>
      </trkpt>
      <trkpt lat="45.98351" lon="4.81674">
        <ele>245</ele>
        <time>2017-03-15T10:12:07Z</time>
      </trkpt>
      <trkpt lat="45.98357" lon="4.81675">
        <ele>245</ele>
        <time>2017-03-15T10:12:08Z</time>
      </trkpt>
      <trkpt lat="45.98362" lon="4.81675">
        <ele>244</ele>
        <time>2017-03-15T10:12:09Z</time>
      </trkpt>
      <trkpt lat="45.98367" lon="4.81675">
        <ele>244</ele>
        <time>2017-03-15T10:12:10Z</time>
      </trkpt>
      <trkpt lat="45.98372" lon="4.81674">
        <ele>244</ele>
        <time>2017-03-15T10:12:11Z</time>
      </trkpt>
      <trkpt lat="45.98377" lon="4.81674">
        <ele>244</ele>
        <time>2017-03-15T10:12:12Z</time>
      </trkpt>
      <trkpt lat="45.98383" lon="4.81673">
        <ele>243</ele>
        <time>2017-03-15T10:12:13Z</time>
      </trkpt>
      <trkpt lat="45.98388" lon="4.81672">
        <ele>243</ele>
        <time>2017-03-15T10:12:14Z</time>
      </trkpt>
      <trkpt lat="45.98393" lon="4.81672">
        <ele>243</ele>
        <time>2017-03-15T10:12:15Z</time>
      </trkpt>
      <trkpt lat="45.98398" lon="4.81671">
        <ele>243</ele>
        <time>2017-03-15T10:12:16Z</time>
      </trkpt>
      <trkpt lat="45.98403" lon="4.8167">
        <ele>242</ele>
        <time>2017-03-15T10:12:17Z</time>
      </trkpt>
      <trkpt lat="45.98407" lon="4.81669">
        <ele>242</ele>
        <time>2017-03-15T10:12:18Z</time>
      </trkpt>
      <trkpt lat="45.98412" lon="4.81668">
        <ele>242</ele>
        <time>2017-03-15T10:12:19Z</time>
      </trkpt>
      <trkpt lat="45.98417" lon="4.81668">
        <ele>241</ele>
        <time>2017-03-15T10:12:20Z</time>
      </trkpt>
      <trkpt lat="45.98422" lon="4.81668">
        <ele>241</ele>
        <time>2017-03-15T10:12:21Z</time>
      </trkpt>
      <trkpt lat="45.98427" lon="4.81669">
        <ele>240</ele>
        <time>2017-03-15T10:12:22Z</time>
      </trkpt>
      <trkpt lat="45.98432" lon="4.81671">
        <ele>240</ele>
        <time>2017-03-15T10:12:23Z</time>
      </trkpt>
      <trkpt lat="45.98436" lon="4.81674">
        <ele>240</ele>
        <time>2017-03-15T10:12:24Z</time>
      </trkpt>
      <trkpt lat="45.98441" lon="4.81677">
        <ele>240</ele>
        <time>2017-03-15T10:12:25Z</time>
      </trkpt>
      <trkpt lat="45.98445" lon="4.81682">
        <ele>239</ele>
        <time>2017-03-15T10:12:26Z</time>
      </trkpt>
      <trkpt lat="45.98448" lon="4.81687">
        <ele>239</ele>
        <time>2017-03-15T10:12:27Z</time>
      </trkpt>
      <trkpt lat="45.98451" lon="4.81693">
        <ele>239</ele>
        <time>2017-03-15T10:12:28Z</time>
      </trkpt>
      <trkpt lat="45.98454" lon="4.81699">
        <ele>239</ele>
        <time>2017-03-15T10:12:29Z</time>
      </trkpt>
      <trkpt lat="45.98457" lon="4.81705">
        <ele>239</ele>
        <time>2017-03-15T10:12:30Z</time>
      </trkpt>
      <trkpt lat="45.98461" lon="4.81712">
        <ele>239</ele>
        <time>2017-03-15T10:12:31Z</time>
      </trkpt>
      <trkpt lat="45.98465" lon="4.81718">
        <ele>239</ele>
        <time>2017-03-15T10:12:32Z</time>
      </trkpt>
      <trkpt lat="45.9847" lon="4.81724">
        <ele>239</ele>
        <time>2017-03-15T10:12:33Z</time>
      </trkpt>
      <trkpt lat="45.98475" lon="4.8173">
        <ele>239</ele>
        <time>2017-03-15T10:12:34Z</time>
      </trkpt>
      <trkpt lat="45.98481" lon="4.81736">
        <ele>238</ele>
        <time>2017-03-15T10:12:35Z</time>
      </trkpt>
      <trkpt lat="45.98487" lon="4.81741">
        <ele>238</ele>
        <time>2017-03-15T10:12:36Z</time>
      </trkpt>
      <trkpt lat="45.98493" lon="4.81747">
        <ele>238</ele>
        <time>2017-03-15T10:12:37Z</time>
      </trkpt>
      <trkpt lat="45.98499" lon="4.81754">
        <ele>238</ele>
        <time>2017-03-15T10:12:38Z</time>
      </trkpt>
      <trkpt lat="45.98505" lon="4.81761">
        <ele>237</ele>
        <time>2017-03-15T10:12:39Z</time>
      </trkpt>
      <trkpt lat="45.98511" lon="4.81769">
        <ele>237</ele>
        <time>2017-03-15T10:12:40Z</time>
      </trkpt>
      <trkpt lat="45.98516" lon="4.81776">
        <ele>238</ele>
        <time>2017-03-15T10:12:41Z</time>
      </trkpt>
      <trkpt lat="45.98522" lon="4.81784">
        <ele>238</ele>
        <time>2017-03-15T10:12:42Z</time>
      </trkpt>
      <trkpt lat="45.98528" lon="4.81792">
        <ele>238</ele>
        <time>2017-03-15T10:12:43Z</time>
      </trkpt>
      <trkpt lat="45.98533" lon="4.818">
        <ele>238</ele>
        <time>2017-03-15T10:12:44Z</time>
      </trkpt>
      <trkpt lat="45.9854" lon="4.81806">
        <ele>238</ele>
        <time>2017-03-15T10:12:45Z</time>
      </trkpt>
      <trkpt lat="45.98546" lon="4.81809">
        <ele>238</ele>
        <time>2017-03-15T10:12:46Z</time>
      </trkpt>
      <trkpt lat="45.98553" lon="4.81808">
        <ele>238</ele>
        <time>2017-03-15T10:12:47Z</time>
      </trkpt>
      <trkpt lat="45.98559" lon="4.81805">
        <ele>238</ele>
        <time>2017-03-15T10:12:48Z</time>
      </trkpt>
      <trkpt lat="45.98564" lon="4.81799">
        <ele>238</ele>
        <time>2017-03-15T10:12:49Z</time>
      </trkpt>
      <trkpt lat="45.98568" lon="4.81792">
        <ele>238</ele>
        <time>2017-03-15T10:12:50Z</time>
      </trkpt>
      <trkpt lat="45.98572" lon="4.81786">
        <ele>238</ele>
        <time>2017-03-15T10:12:51Z</time>
      </trkpt>
      <trkpt lat="45.98576" lon="4.8178">
        <ele>238</ele>
        <time>2017-03-15T10:12:52Z</time>
      </trkpt>
      <trkpt lat="45.9858" lon="4.81774">
        <ele>237</ele>
        <time>2017-03-15T10:12:53Z</time>
      </trkpt>
      <trkpt lat="45.98584" lon="4.81771">
        <ele>238</ele>
        <time>2017-03-15T10:12:54Z</time>
      </trkpt>
      <trkpt lat="45.98589" lon="4.81768">
        <ele>238</ele>
        <time>2017-03-15T10:12:55Z</time>
      </trkpt>
      <trkpt lat="45.98594" lon="4.81766">
        <ele>238</ele>
        <time>2017-03-15T10:12:56Z</time>
      </trkpt>
      <trkpt lat="45.98599" lon="4.81765">
        <ele>238</ele>
        <time>2017-03-15T10:12:57Z</time>
      </trkpt>
      <trkpt lat="45.98603" lon="4.81764">
        <ele>238</ele>
        <time>2017-03-15T10:12:58Z</time>
      </trkpt>
      <trkpt lat="45.98608" lon="4.81763">
        <ele>238</ele>
        <time>2017-03-15T10:12:59Z</time>
      </trkpt>
      <trkpt lat="45.98612" lon="4.81762">
        <ele>238</ele>
        <time>2017-03-15T10:13:00Z</time>
      </trkpt>
      <trkpt lat="45.98617" lon="4.81761">
        <ele>238</ele>
        <time>2017-03-15T10:13:01Z</time>
      </trkpt>
      <trkpt lat="45.98622" lon="4.8176">
        <ele>238</ele>
        <time>2017-03-15T10:13:02Z</time>
      </trkpt>
      <trkpt lat="45.98627" lon="4.81758">
        <ele>238</ele>
        <time>2017-03-15T10:13:03Z</time>
      </trkpt>
      <trkpt lat="45.98632" lon="4.81757">
        <ele>238</ele>
        <time>2017-03-15T10:13:04Z</time>
      </trkpt>
      <trkpt lat="45.98638" lon="4.81756">
        <ele>238</ele>
        <time>2017-03-15T10:13:05Z</time>
      </trkpt>
      <trkpt lat="45.98642" lon="4.81754">
        <ele>238</ele>
        <time>2017-03-15T10:13:06Z</time>
      </trkpt>
      <trkpt lat="45.98647" lon="4.81753">
        <ele>238</ele>
        <time>2017-03-15T10:13:07Z</time>
      </trkpt>
      <trkpt lat="45.98651" lon="4.81752">
        <ele>238</ele>
        <time>2017-03-15T10:13:08Z</time>
      </trkpt>
      <trkpt lat="45.98656" lon="4.81752">
        <ele>238</ele>
        <time>2017-03-15T10:13:09Z</time>
      </trkpt>
      <trkpt lat="45.9866" lon="4.81751">
        <ele>238</ele>
        <time>2017-03-15T10:13:10Z</time>
      </trkpt>
      <trkpt lat="45.98669" lon="4.8175">
        <ele>238</ele>
        <time>2017-03-15T10:13:12Z</time>
      </trkpt>
      <trkpt lat="45.98673" lon="4.81749">
        <ele>238</ele>
        <time>2017-03-15T10:13:13Z</time>
      </trkpt>
      <trkpt lat="45.98678" lon="4.81748">
        <ele>238</ele>
        <time>2017-03-15T10:13:14Z</time>
      </trkpt>
      <trkpt lat="45.98683" lon="4.81746">
        <ele>238</ele>
        <time>2017-03-15T10:13:15Z</time>
      </trkpt>
      <trkpt lat="45.98691" lon="4.81743">
        <ele>238</ele>
        <time>2017-03-15T10:13:17Z</time>
      </trkpt>
      <trkpt lat="45.98696" lon="4.81743">
        <ele>239</ele>
        <time>2017-03-15T10:13:18Z</time>
      </trkpt>
      <trkpt lat="45.98704" lon="4.81741">
        <ele>239</ele>
        <time>2017-03-15T10:13:20Z</time>
      </trkpt>
      <trkpt lat="45.98709" lon="4.81741">
        <ele>239</ele>
        <time>2017-03-15T10:13:21Z</time>
      </trkpt>
      <trkpt lat="45.98714" lon="4.8174">
        <ele>239</ele>
        <time>2017-03-15T10:13:22Z</time>
      </trkpt>
      <trkpt lat="45.98719" lon="4.8174">
        <ele>239</ele>
        <time>2017-03-15T10:13:23Z</time>
      </trkpt>
      <trkpt lat="45.98724" lon="4.81741">
        <ele>239</ele>
        <time>2017-03-15T10:13:24Z</time>
      </trkpt>
      <trkpt lat="45.98729" lon="4.81744">
        <ele>240</ele>
        <time>2017-03-15T10:13:25Z</time>
      </trkpt>
      <trkpt lat="45.98734" lon="4.81747">
        <ele>240</ele>
        <time>2017-03-15T10:13:26Z</time>
      </trkpt>
      <trkpt lat="45.98737" lon="4.81751">
        <ele>240</ele>
        <time>2017-03-15T10:13:27Z</time>
      </trkpt>
      <trkpt lat="45.98742" lon="4.81761">
        <ele>240</ele>
        <time>2017-03-15T10:13:29Z</time>
      </trkpt>
      <trkpt lat="45.98744" lon="4.81767">
        <ele>240</ele>
        <time>2017-03-15T10:13:30Z</time>
      </trkpt>
      <trkpt lat="45.98746" lon="4.81772">
        <ele>240</ele>
        <time>2017-03-15T10:13:31Z</time>
      </trkpt>
      <trkpt lat="45.98749" lon="4.81779">
        <ele>240</ele>
        <time>2017-03-15T10:13:32Z</time>
      </trkpt>
      <trkpt lat="45.98752" lon="4.81786">
        <ele>241</ele>
        <time>2017-03-15T10:13:33Z</time>
      </trkpt>
      <trkpt lat="45.98755" lon="4.81792">
        <ele>240</ele>
        <time>2017-03-15T10:13:34Z</time>
      </trkpt>
      <trkpt lat="45.98758" lon="4.81799">
        <ele>240</ele>
        <time>2017-03-15T10:13:35Z</time>
      </trkpt>
      <trkpt lat="45.9876" lon="4.81805">
        <ele>240</ele>
        <time>2017-03-15T10:13:36Z</time>
      </trkpt>
      <trkpt lat="45.98764" lon="4.81812">
        <ele>240</ele>
        <time>2017-03-15T10:13:37Z</time>
      </trkpt>
      <trkpt lat="45.98767" lon="4.81818">
        <ele>240</ele>
        <time>2017-03-15T10:13:38Z</time>
      </trkpt>
      <trkpt lat="45.9877" lon="4.81825">
        <ele>240</ele>
        <time>2017-03-15T10:13:39Z</time>
      </trkpt>
      <trkpt lat="45.98773" lon="4.81831">
        <ele>240</ele>
        <time>2017-03-15T10:13:40Z</time>
      </trkpt>
      <trkpt lat="45.98776" lon="4.81838">
        <ele>239</ele>
        <time>2017-03-15T10:13:41Z</time>
      </trkpt>
      <trkpt lat="45.9878" lon="4.81845">
        <ele>239</ele>
        <time>2017-03-15T10:13:42Z</time>
      </trkpt>
      <trkpt lat="45.98783" lon="4.81853">
        <ele>239</ele>
        <time>2017-03-15T10:13:43Z</time>
      </trkpt>
      <trkpt lat="45.98786" lon="4.8186">
        <ele>239</ele>
        <time>2017-03-15T10:13:44Z</time>
      </trkpt>
      <trkpt lat="45.98788" lon="4.81868">
        <ele>239</ele>
        <time>2017-03-15T10:13:45Z</time>
      </trkpt>
      <trkpt lat="45.98792" lon="4.81875">
        <ele>239</ele>
        <time>2017-03-15T10:13:46Z</time>
      </trkpt>
      <trkpt lat="45.98795" lon="4.81883">
        <ele>239</ele>
        <time>2017-03-15T10:13:47Z</time>
      </trkpt>
      <trkpt lat="45.98798" lon="4.81891">
        <ele>239</ele>
        <time>2017-03-15T10:13:48Z</time>
      </trkpt>
      <trkpt lat="45.988" lon="4.819">
        <ele>239</ele>
        <time>2017-03-15T10:13:49Z</time>
      </trkpt>
      <trkpt lat="45.98802" lon="4.81908">
        <ele>239</ele>
        <time>2017-03-15T10:13:50Z</time>
      </trkpt>
      <trkpt lat="45.98804" lon="4.81916">
        <ele>239</ele>
        <time>2017-03-15T10:13:51Z</time>
      </trkpt>
      <trkpt lat="45.98805" lon="4.81924">
        <ele>239</ele>
        <time>2017-03-15T10:13:52Z</time>
      </trkpt>
      <trkpt lat="45.98806" lon="4.81932">
        <ele>239</ele>
        <time>2017-03-15T10:13:53Z</time>
      </trkpt>
      <trkpt lat="45.98808" lon="4.81939">
        <ele>239</ele>
        <time>2017-03-15T10:13:54Z</time>
      </trkpt>
      <trkpt lat="45.98809" lon="4.81946">
        <ele>239</ele>
        <time>2017-03-15T10:13:55Z</time>
      </trkpt>
      <trkpt lat="45.98811" lon="4.81952">
        <ele>239</ele>
        <time>2017-03-15T10:13:56Z</time>
      </trkpt>
      <trkpt lat="45.98812" lon="4.81959">
        <ele>239</ele>
        <time>2017-03-15T10:13:57Z</time>
      </trkpt>
      <trkpt lat="45.98813" lon="4.81967">
        <ele>239</ele>
        <time>2017-03-15T10:13:58Z</time>
      </trkpt>
      <trkpt lat="45.98814" lon="4.81975">
        <ele>239</ele>
        <time>2017-03-15T10:13:59Z</time>
      </trkpt>
      <trkpt lat="45.98815" lon="4.81983">
        <ele>239</ele>
        <time>2017-03-15T10:14:00Z</time>
      </trkpt>
      <trkpt lat="45.98816" lon="4.81991">
        <ele>238</ele>
        <time>2017-03-15T10:14:01Z</time>
      </trkpt>
      <trkpt lat="45.98817" lon="4.81998">
        <ele>238</ele>
        <time>2017-03-15T10:14:02Z</time>
      </trkpt>
      <trkpt lat="45.98819" lon="4.82005">
        <ele>238</ele>
        <time>2017-03-15T10:14:03Z</time>
      </trkpt>
      <trkpt lat="45.9882" lon="4.82013">
        <ele>238</ele>
        <time>2017-03-15T10:14:04Z</time>
      </trkpt>
      <trkpt lat="45.98821" lon="4.8202">
        <ele>238</ele>
        <time>2017-03-15T10:14:05Z</time>
      </trkpt>
      <trkpt lat="45.98822" lon="4.82026">
        <ele>238</ele>
        <time>2017-03-15T10:14:06Z</time>
      </trkpt>
      <trkpt lat="45.98824" lon="4.82039">
        <ele>238</ele>
        <time>2017-03-15T10:14:08Z</time>
      </trkpt>
      <trkpt lat="45.98825" lon="4.82045">
        <ele>238</ele>
        <time>2017-03-15T10:14:09Z</time>
      </trkpt>
      <trkpt lat="45.98826" lon="4.82057">
        <ele>237</ele>
        <time>2017-03-15T10:14:11Z</time>
      </trkpt>
      <trkpt lat="45.98827" lon="4.82064">
        <ele>237</ele>
        <time>2017-03-15T10:14:12Z</time>
      </trkpt>
      <trkpt lat="45.98829" lon="4.82071">
        <ele>237</ele>
        <time>2017-03-15T10:14:13Z</time>
      </trkpt>
      <trkpt lat="45.9883" lon="4.82078">
        <ele>237</ele>
        <time>2017-03-15T10:14:14Z</time>
      </trkpt>
      <trkpt lat="45.98831" lon="4.82085">
        <ele>236</ele>
        <time>2017-03-15T10:14:15Z</time>
      </trkpt>
      <trkpt lat="45.98832" lon="4.82092">
        <ele>237</ele>
        <time>2017-03-15T10:14:16Z</time>
      </trkpt>
      <trkpt lat="45.98833" lon="4.821">
        <ele>237</ele>
        <time>2017-03-15T10:14:17Z</time>
      </trkpt>
      <trkpt lat="45.98835" lon="4.82107">
        <ele>236</ele>
        <time>2017-03-15T10:14:18Z</time>
      </trkpt>
      <trkpt lat="45.98836" lon="4.82115">
        <ele>236</ele>
        <time>2017-03-15T10:14:19Z</time>
      </trkpt>
      <trkpt lat="45.98838" lon="4.82123">
        <ele>236</ele>
        <time>2017-03-15T10:14:20Z</time>
      </trkpt>
      <trkpt lat="45.98839" lon="4.8213">
        <ele>236</ele>
        <time>2017-03-15T10:14:21Z</time>
      </trkpt>
      <trkpt lat="45.98841" lon="4.82138">
        <ele>236</ele>
        <time>2017-03-15T10:14:22Z</time>
      </trkpt>
      <trkpt lat="45.98844" lon="4.82145">
        <ele>236</ele>
        <time>2017-03-15T10:14:23Z</time>
      </trkpt>
      <trkpt lat="45.98846" lon="4.82152">
        <ele>236</ele>
        <time>2017-03-15T10:14:24Z</time>
      </trkpt>
      <trkpt lat="45.98847" lon="4.82158">
        <ele>236</ele>
        <time>2017-03-15T10:14:25Z</time>
      </trkpt>
      <trkpt lat="45.98849" lon="4.82165">
        <ele>236</ele>
        <time>2017-03-15T10:14:26Z</time>
      </trkpt>
      <trkpt lat="45.98852" lon="4.82172">
        <ele>236</ele>
        <time>2017-03-15T10:14:27Z</time>
      </trkpt>
      <trkpt lat="45.98854" lon="4.82179">
        <ele>236</ele>
        <time>2017-03-15T10:14:28Z</time>
      </trkpt>
      <trkpt lat="45.98856" lon="4.82186">
        <ele>236</ele>
        <time>2017-03-15T10:14:29Z</time>
      </trkpt>
      <trkpt lat="45.98858" lon="4.82193">
        <ele>236</ele>
        <time>2017-03-15T10:14:30Z</time>
      </trkpt>
      <trkpt lat="45.98861" lon="4.82199">
        <ele>236</ele>
        <time>2017-03-15T10:14:31Z</time>
      </trkpt>
      <trkpt lat="45.98863" lon="4.82206">
        <ele>236</ele>
        <time>2017-03-15T10:14:32Z</time>
      </trkpt>
      <trkpt lat="45.98866" lon="4.82212">
        <ele>236</ele>
        <time>2017-03-15T10:14:33Z</time>
      </trkpt>
      <trkpt lat="45.98868" lon="4.82218">
        <ele>236</ele>
        <time>2017-03-15T10:14:34Z</time>
      </trkpt>
      <trkpt lat="45.98871" lon="4.82224">
        <ele>236</ele>
        <time>2017-03-15T10:14:35Z</time>
      </trkpt>
      <trkpt lat="45.98873" lon="4.8223">
        <ele>236</ele>
        <time>2017-03-15T10:14:36Z</time>
      </trkpt>
      <trkpt lat="45.98876" lon="4.82236">
        <ele>236</ele>
        <time>2017-03-15T10:14:37Z</time>
      </trkpt>
      <trkpt lat="45.98878" lon="4.82242">
        <ele>236</ele>
        <time>2017-03-15T10:14:38Z</time>
      </trkpt>
      <trkpt lat="45.98881" lon="4.82248">
        <ele>236</ele>
        <time>2017-03-15T10:14:39Z</time>
      </trkpt>
      <trkpt lat="45.98884" lon="4.82255">
        <ele>236</ele>
        <time>2017-03-15T10:14:40Z</time>
      </trkpt>
      <trkpt lat="45.98887" lon="4.8226">
        <ele>236</ele>
        <time>2017-03-15T10:14:41Z</time>
      </trkpt>
      <trkpt lat="45.9889" lon="4.82266">
        <ele>236</ele>
        <time>2017-03-15T10:14:42Z</time>
      </trkpt>
      <trkpt lat="45.98894" lon="4.82272">
        <ele>236</ele>
        <time>2017-03-15T10:14:43Z</time>
      </trkpt>
      <trkpt lat="45.98897" lon="4.82277">
        <ele>236</ele>
        <time>2017-03-15T10:14:44Z</time>
      </trkpt>
      <trkpt lat="45.98901" lon="4.82283">
        <ele>236</ele>
        <time>2017-03-15T10:14:45Z</time>
      </trkpt>
      <trkpt lat="45.98905" lon="4.82288">
        <ele>236</ele>
        <time>2017-03-15T10:14:46Z</time>
      </trkpt>
      <trkpt lat="45.98909" lon="4.82293">
        <ele>236</ele>
        <time>2017-03-15T10:14:47Z</time>
      </trkpt>
      <trkpt lat="45.98913" lon="4.82297">
        <ele>237</ele>
        <time>2017-03-15T10:14:48Z</time>
      </trkpt>
      <trkpt lat="45.98918" lon="4.82302">
        <ele>234</ele>
        <time>2017-03-15T10:14:49Z</time>
      </trkpt>
      <trkpt lat="45.98922" lon="4.82306">
        <ele>234</ele>
        <time>2017-03-15T10:14:50Z</time>
      </trkpt>
      <trkpt lat="45.98926" lon="4.82311">
        <ele>235</ele>
        <time>2017-03-15T10:14:51Z</time>
      </trkpt>
      <trkpt lat="45.98931" lon="4.82316">
        <ele>235</ele>
        <time>2017-03-15T10:14:52Z</time>
      </trkpt>
      <trkpt lat="45.98935" lon="4.82321">
        <ele>235</ele>
        <time>2017-03-15T10:14:53Z</time>
      </trkpt>
      <trkpt lat="45.98939" lon="4.82326">
        <ele>235</ele>
        <time>2017-03-15T10:14:54Z</time>
      </trkpt>
      <trkpt lat="45.98943" lon="4.82331">
        <ele>234</ele>
        <time>2017-03-15T10:14:55Z</time>
      </trkpt>
      <trkpt lat="45.98946" lon="4.82336">
        <ele>235</ele>
        <time>2017-03-15T10:14:56Z</time>
      </trkpt>
      <trkpt lat="45.9895" lon="4.82342">
        <ele>235</ele>
        <time>2017-03-15T10:14:57Z</time>
      </trkpt>
      <trkpt lat="45.98953" lon="4.82348">
        <ele>235</ele>
        <time>2017-03-15T10:14:58Z</time>
      </trkpt>
      <trkpt lat="45.98955" lon="4.82354">
        <ele>235</ele>
        <time>2017-03-15T10:14:59Z</time>
      </trkpt>
      <trkpt lat="45.98957" lon="4.82361">
        <ele>235</ele>
        <time>2017-03-15T10:15:00Z</time>
      </trkpt>
      <trkpt lat="45.98959" lon="4.82367">
        <ele>235</ele>
        <time>2017-03-15T10:15:01Z</time>
      </trkpt>
      <trkpt lat="45.98961" lon="4.82373">
        <ele>235</ele>
        <time>2017-03-15T10:15:02Z</time>
      </trkpt>
      <trkpt lat="45.98962" lon="4.82379">
        <ele>235</ele>
        <time>2017-03-15T10:15:03Z</time>
      </trkpt>
      <trkpt lat="45.98964" lon="4.82386">
        <ele>235</ele>
        <time>2017-03-15T10:15:04Z</time>
      </trkpt>
      <trkpt lat="45.98966" lon="4.82393">
        <ele>235</ele>
        <time>2017-03-15T10:15:05Z</time>
      </trkpt>
      <trkpt lat="45.98968" lon="4.824">
        <ele>235</ele>
        <time>2017-03-15T10:15:06Z</time>
      </trkpt>
      <trkpt lat="45.9897" lon="4.82408">
        <ele>235</ele>
        <time>2017-03-15T10:15:07Z</time>
      </trkpt>
      <trkpt lat="45.98972" lon="4.82416">
        <ele>235</ele>
        <time>2017-03-15T10:15:08Z</time>
      </trkpt>
      <trkpt lat="45.98973" lon="4.82424">
        <ele>236</ele>
        <time>2017-03-15T10:15:09Z</time>
      </trkpt>
      <trkpt lat="45.98975" lon="4.82431">
        <ele>236</ele>
        <time>2017-03-15T10:15:10Z</time>
      </trkpt>
      <trkpt lat="45.98977" lon="4.82438">
        <ele>236</ele>
        <time>2017-03-15T10:15:11Z</time>
      </trkpt>
      <trkpt lat="45.98979" lon="4.82445">
        <ele>236</ele>
        <time>2017-03-15T10:15:12Z</time>
      </trkpt>
      <trkpt lat="45.98981" lon="4.82452">
        <ele>236</ele>
        <time>2017-03-15T10:15:13Z</time>
      </trkpt>
      <trkpt lat="45.98983" lon="4.82459">
        <ele>236</ele>
        <time>2017-03-15T10:15:14Z</time>
      </trkpt>
      <trkpt lat="45.98985" lon="4.82465">
        <ele>236</ele>
        <time>2017-03-15T10:15:15Z</time>
      </trkpt>
      <trkpt lat="45.98987" lon="4.82471">
        <ele>236</ele>
        <time>2017-03-15T10:15:16Z</time>
      </trkpt>
      <trkpt lat="45.98989" lon="4.82477">
        <ele>236</ele>
        <time>2017-03-15T10:15:17Z</time>
      </trkpt>
      <trkpt lat="45.9899" lon="4.82483">
        <ele>236</ele>
        <time>2017-03-15T10:15:18Z</time>
      </trkpt>
      <trkpt lat="45.98993" lon="4.82489">
        <ele>236</ele>
        <time>2017-03-15T10:15:19Z</time>
      </trkpt>
      <trkpt lat="45.98995" lon="4.82495">
        <ele>235</ele>
        <time>2017-03-15T10:15:20Z</time>
      </trkpt>
      <trkpt lat="45.98998" lon="4.82501">
        <ele>235</ele>
        <time>2017-03-15T10:15:21Z</time>
      </trkpt>
      <trkpt lat="45.99" lon="4.82507">
        <ele>235</ele>
        <time>2017-03-15T10:15:22Z</time>
      </trkpt>
      <trkpt lat="45.99003" lon="4.82513">
        <ele>235</ele>
        <time>2017-03-15T10:15:23Z</time>
      </trkpt>
      <trkpt lat="45.99006" lon="4.82519">
        <ele>235</ele>
        <time>2017-03-15T10:15:24Z</time>
      </trkpt>
      <trkpt lat="45.99009" lon="4.82527">
        <ele>235</ele>
        <time>2017-03-15T10:15:25Z</time>
      </trkpt>
      <trkpt lat="45.99013" lon="4.82533">
        <ele>235</ele>
        <time>2017-03-15T10:15:26Z</time>
      </trkpt>
      <trkpt lat="45.99017" lon="4.82539">
        <ele>235</ele>
        <time>2017-03-15T10:15:27Z</time>
      </trkpt>
      <trkpt lat="45.99021" lon="4.82544">
        <ele>235</ele>
        <time>2017-03-15T10:15:28Z</time>
      </trkpt>
      <trkpt lat="45.99026" lon="4.82549">
        <ele>235</ele>
        <time>2017-03-15T10:15:29Z</time>
      </trkpt>
      <trkpt lat="45.9903" lon="4.82554">
        <ele>235</ele>
        <time>2017-03-15T10:15:30Z</time>
      </trkpt>
      <trkpt lat="45.99034" lon="4.82558">
        <ele>235</ele>
        <time>2017-03-15T10:15:31Z</time>
      </trkpt>
      <trkpt lat="45.99039" lon="4.82561">
        <ele>235</ele>
        <time>2017-03-15T10:15:32Z</time>
      </trkpt>
      <trkpt lat="45.99043" lon="4.82564">
        <ele>235</ele>
        <time>2017-03-15T10:15:33Z</time>
      </trkpt>
      <trkpt lat="45.99048" lon="4.82566">
        <ele>235</ele>
        <time>2017-03-15T10:15:34Z</time>
      </trkpt>
      <trkpt lat="45.99053" lon="4.82568">
        <ele>235</ele>
        <time>2017-03-15T10:15:35Z</time>
      </trkpt>
      <trkpt lat="45.99057" lon="4.82569">
        <ele>235</ele>
        <time>2017-03-15T10:15:36Z</time>
      </trkpt>
      <trkpt lat="45.99066" lon="4.82572">
        <ele>235</ele>
        <time>2017-03-15T10:15:38Z</time>
      </trkpt>
      <trkpt lat="45.99069" lon="4.82575">
        <ele>235</ele>
        <time>2017-03-15T10:15:39Z</time>
      </trkpt>
      <trkpt lat="45.99074" lon="4.82582">
        <ele>235</ele>
        <time>2017-03-15T10:15:41Z</time>
      </trkpt>
      <trkpt lat="45.99074" lon="4.82587">
        <ele>235</ele>
        <time>2017-03-15T10:15:42Z</time>
      </trkpt>
      <trkpt lat="45.99072" lon="4.82595">
        <ele>235</ele>
        <time>2017-03-15T10:15:44Z</time>
      </trkpt>
      <trkpt lat="45.99069" lon="4.82599">
        <ele>235</ele>
        <time>2017-03-15T10:15:45Z</time>
      </trkpt>
      <trkpt lat="45.99064" lon="4.82606">
        <ele>236</ele>
        <time>2017-03-15T10:15:47Z</time>
      </trkpt>
      <trkpt lat="45.99061" lon="4.82611">
        <ele>236</ele>
        <time>2017-03-15T10:15:48Z</time>
      </trkpt>
      <trkpt lat="45.99057" lon="4.8262">
        <ele>236</ele>
        <time>2017-03-15T10:15:50Z</time>
      </trkpt>
      <trkpt lat="45.99055" lon="4.82625">
        <ele>236</ele>
        <time>2017-03-15T10:15:51Z</time>
      </trkpt>
      <trkpt lat="45.99051" lon="4.82634">
        <ele>236</ele>
        <time>2017-03-15T10:15:53Z</time>
      </trkpt>
      <trkpt lat="45.99049" lon="4.82639">
        <ele>236</ele>
        <time>2017-03-15T10:15:54Z</time>
      </trkpt>
      <trkpt lat="45.99046" lon="4.82647">
        <ele>236</ele>
        <time>2017-03-15T10:15:56Z</time>
      </trkpt>
      <trkpt lat="45.99044" lon="4.82651">
        <ele>236</ele>
        <time>2017-03-15T10:15:57Z</time>
      </trkpt>
      <trkpt lat="45.99041" lon="4.8266">
        <ele>236</ele>
        <time>2017-03-15T10:15:59Z</time>
      </trkpt>
      <trkpt lat="45.99039" lon="4.82664">
        <ele>236</ele>
        <time>2017-03-15T10:16:00Z</time>
      </trkpt>
      <trkpt lat="45.99035" lon="4.82672">
        <ele>238</ele>
        <time>2017-03-15T10:16:02Z</time>
      </trkpt>
      <trkpt lat="45.99033" lon="4.82676">
        <ele>238</ele>
        <time>2017-03-15T10:16:03Z</time>
      </trkpt>
      <trkpt lat="45.99029" lon="4.82684">
        <ele>238</ele>
        <time>2017-03-15T10:16:05Z</time>
      </trkpt>
      <trkpt lat="45.99027" lon="4.82688">
        <ele>238</ele>
        <time>2017-03-15T10:16:06Z</time>
      </trkpt>
      <trkpt lat="45.99022" lon="4.82696">
        <ele>238</ele>
        <time>2017-03-15T10:16:08Z</time>
      </trkpt>
      <trkpt lat="45.9902" lon="4.82699">
        <ele>238</ele>
        <time>2017-03-15T10:16:09Z</time>
      </trkpt>
      <trkpt lat="45.99016" lon="4.82707">
        <ele>239</ele>
        <time>2017-03-15T10:16:11Z</time>
      </trkpt>
      <trkpt lat="45.99015" lon="4.82711">
        <ele>239</ele>
        <time>2017-03-15T10:16:12Z</time>
      </trkpt>
      <trkpt lat="45.99012" lon="4.82719">
        <ele>239</ele>
        <time>2017-03-15T10:16:14Z</time>
      </trkpt>
      <trkpt lat="45.9901" lon="4.82723">
        <ele>239</ele>
        <time>2017-03-15T10:16:15Z</time>
      </trkpt>
      <trkpt lat="45.99007" lon="4.82731">
        <ele>239</ele>
        <time>2017-03-15T10:16:17Z</time>
      </trkpt>
      <trkpt lat="45.99005" lon="4.82734">
        <ele>240</ele>
        <time>2017-03-15T10:16:18Z</time>
      </trkpt>
      <trkpt lat="45.99001" lon="4.82745">
        <ele>240</ele>
        <time>2017-03-15T10:16:21Z</time>
      </trkpt>
      <trkpt lat="45.99" lon="4.82748">
        <ele>241</ele>
        <time>2017-03-15T10:16:22Z</time>
      </trkpt>
      <trkpt lat="45.98997" lon="4.82759">
        <ele>243</ele>
        <time>2017-03-15T10:16:25Z</time>
      </trkpt>
      <trkpt lat="45.98996" lon="4.82762">
        <ele>244</ele>
        <time>2017-03-15T10:16:26Z</time>
      </trkpt>
      <trkpt lat="45.98992" lon="4.82772">
        <ele>246</ele>
        <time>2017-03-15T10:16:29Z</time>
      </trkpt>
      <trkpt lat="45.9899" lon="4.82776">
        <ele>246</ele>
        <time>2017-03-15T10:16:30Z</time>
      </trkpt>
      <trkpt lat="45.98985" lon="4.82785">
        <ele>247</ele>
        <time>2017-03-15T10:16:33Z</time>
      </trkpt>
      <trkpt lat="45.98983" lon="4.82788">
        <ele>247</ele>
        <time>2017-03-15T10:16:34Z</time>
      </trkpt>
      <trkpt lat="45.9898" lon="4.82797">
        <ele>248</ele>
        <time>2017-03-15T10:16:37Z</time>
      </trkpt>
      <trkpt lat="45.98978" lon="4.828">
        <ele>248</ele>
        <time>2017-03-15T10:16:38Z</time>
      </trkpt>
      <trkpt lat="45.98973" lon="4.82809">
        <ele>248</ele>
        <time>2017-03-15T10:16:41Z</time>
      </trkpt>
      <trkpt lat="45.98971" lon="4.82813">
        <ele>249</ele>
        <time>2017-03-15T10:16:42Z</time>
      </trkpt>
      <trkpt lat="45.98967" lon="4.82823">
        <ele>249</ele>
        <time>2017-03-15T10:16:45Z</time>
      </trkpt>
      <trkpt lat="45.98967" lon="4.82827">
        <ele>249</ele>
        <time>2017-03-15T10:16:46Z</time>
      </trkpt>
      <trkpt lat="45.98963" lon="4.82837">
        <ele>252</ele>
        <time>2017-03-15T10:16:49Z</time>
      </trkpt>
      <trkpt lat="45.98962" lon="4.8284">
        <ele>252</ele>
        <time>2017-03-15T10:16:50Z</time>
      </trkpt>
      <trkpt lat="45.98957" lon="4.8285">
        <ele>252</ele>
        <time>2017-03-15T10:16:53Z</time>
      </trkpt>
      <trkpt lat="45.98955" lon="4.82854">
        <ele>252</ele>
        <time>2017-03-15T10:16:54Z</time>
      </trkpt>
      <trkpt lat="45.98951" lon="4.82864">
        <ele>253</ele>
        <time>2017-03-15T10:16:57Z</time>
      </trkpt>
      <trkpt lat="45.9895" lon="4.82867">
        <ele>253</ele>
        <time>2017-03-15T10:16:58Z</time>
      </trkpt>
      <trkpt lat="45.98946" lon="4.82875">
        <ele>253</ele>
        <time>2017-03-15T10:17:01Z</time>
      </trkpt>
      <trkpt lat="45.98944" lon="4.82878">
        <ele>253</ele>
        <time>2017-03-15T10:17:02Z</time>
      </trkpt>
      <trkpt lat="45.9894" lon="4.82888">
        <ele>253</ele>
        <time>2017-03-15T10:17:05Z</time>
      </trkpt>
      <trkpt lat="45.98939" lon="4.82892">
        <ele>253</ele>
        <time>2017-03-15T10:17:06Z</time>
      </trkpt>
      <trkpt lat="45.98933" lon="4.82901">
        <ele>254</ele>
        <time>2017-03-15T10:17:09Z</time>
      </trkpt>
      <trkpt lat="45.98932" lon="4.82904">
        <ele>254</ele>
        <time>2017-03-15T10:17:10Z</time>
      </trkpt>
      <trkpt lat="45.98927" lon="4.82911">
        <ele>254</ele>
        <time>2017-03-15T10:17:13Z</time>
      </trkpt>
      <trkpt lat="45.98926" lon="4.82914">
        <ele>254</ele>
        <time>2017-03-15T10:17:14Z</time>
      </trkpt>
      <trkpt lat="45.98923" lon="4.82923">
        <ele>255</ele>
        <time>2017-03-15T10:17:17Z</time>
      </trkpt>
      <trkpt lat="45.98921" lon="4.82926">
        <ele>255</ele>
        <time>2017-03-15T10:17:18Z</time>
      </trkpt>
      <trkpt lat="45.98917" lon="4.82934">
        <ele>255</ele>
        <time>2017-03-15T10:17:21Z</time>
      </trkpt>
      <trkpt lat="45.98916" lon="4.82937">
        <ele>258</ele>
        <time>2017-03-15T10:17:22Z</time>
      </trkpt>
      <trkpt lat="45.98911" lon="4.82947">
        <ele>258</ele>
        <time>2017-03-15T10:17:25Z</time>
      </trkpt>
      <trkpt lat="45.9891" lon="4.82951">
        <ele>258</ele>
        <time>2017-03-15T10:17:26Z</time>
      </trkpt>
      <trkpt lat="45.98906" lon="4.82959">
        <ele>259</ele>
        <time>2017-03-15T10:17:29Z</time>
      </trkpt>
      <trkpt lat="45.98904" lon="4.82962">
        <ele>259</ele>
        <time>2017-03-15T10:17:30Z</time>
      </trkpt>
      <trkpt lat="45.98899" lon="4.82969">
        <ele>259</ele>
        <time>2017-03-15T10:17:33Z</time>
      </trkpt>
      <trkpt lat="45.98897" lon="4.82971">
        <ele>259</ele>
        <time>2017-03-15T10:17:34Z</time>
      </trkpt>
      <trkpt lat="45.9889" lon="4.82976">
        <ele>259</ele>
        <time>2017-03-15T10:17:37Z</time>
      </trkpt>
      <trkpt lat="45.98887" lon="4.82978">
        <ele>259</ele>
        <time>2017-03-15T10:17:38Z</time>
      </trkpt>
      <trkpt lat="45.98882" lon="4.82984">
        <ele>259</ele>
        <time>2017-03-15T10:17:41Z</time>
      </trkpt>
      <trkpt lat="45.9888" lon="4.82986">
        <ele>260</ele>
        <time>2017-03-15T10:17:42Z</time>
      </trkpt>
      <trkpt lat="45.98873" lon="4.82991">
        <ele>260</ele>
        <time>2017-03-15T10:17:45Z</time>
      </trkpt>
      <trkpt lat="45.98871" lon="4.82992">
        <ele>260</ele>
        <time>2017-03-15T10:17:46Z</time>
      </trkpt>
      <trkpt lat="45.98865" lon="4.82997">
        <ele>260</ele>
        <time>2017-03-15T10:17:49Z</time>
      </trkpt>
      <trkpt lat="45.98862" lon="4.82998">
        <ele>261</ele>
        <time>2017-03-15T10:17:50Z</time>
      </trkpt>
      <trkpt lat="45.98856" lon="4.83003">
        <ele>261</ele>
        <time>2017-03-15T10:17:53Z</time>
      </trkpt>
      <trkpt lat="45.98854" lon="4.83004">
        <ele>261</ele>
        <time>2017-03-15T10:17:54Z</time>
      </trkpt>
      <trkpt lat="45.98847" lon="4.83012">
        <ele>261</ele>
        <time>2017-03-15T10:17:58Z</time>
      </trkpt>
      <trkpt lat="45.98845" lon="4.83014">
        <ele>261</ele>
        <time>2017-03-15T10:17:59Z</time>
      </trkpt>
      <trkpt lat="45.98838" lon="4.83019">
        <ele>261</ele>
        <time>2017-03-15T10:18:02Z</time>
      </trkpt>
      <trkpt lat="45.98836" lon="4.83021">
        <ele>261</ele>
        <time>2017-03-15T10:18:03Z</time>
      </trkpt>
      <trkpt lat="45.9883" lon="4.83026">
        <ele>264</ele>
        <time>2017-03-15T10:18:06Z</time>
      </trkpt>
      <trkpt lat="45.98827" lon="4.83027">
        <ele>264</ele>
        <time>2017-03-15T10:18:07Z</time>
      </trkpt>
      <trkpt lat="45.9882" lon="4.83031">
        <ele>264</ele>
        <time>2017-03-15T10:18:10Z</time>
      </trkpt>
      <trkpt lat="45.98818" lon="4.83033">
        <ele>264</ele>
        <time>2017-03-15T10:18:11Z</time>
      </trkpt>
      <trkpt lat="45.9881" lon="4.83038">
        <ele>264</ele>
        <time>2017-03-15T10:18:14Z</time>
      </trkpt>
      <trkpt lat="45.98807" lon="4.8304">
        <ele>264</ele>
        <time>2017-03-15T10:18:15Z</time>
      </trkpt>
      <trkpt lat="45.988" lon="4.83045">
        <ele>264</ele>
        <time>2017-03-15T10:18:18Z</time>
      </trkpt>
      <trkpt lat="45.98797" lon="4.83047">
        <ele>265</ele>
        <time>2017-03-15T10:18:19Z</time>
      </trkpt>
      <trkpt lat="45.9879" lon="4.83054">
        <ele>265</ele>
        <time>2017-03-15T10:18:22Z</time>
      </trkpt>
      <trkpt lat="45.98787" lon="4.83056">
        <ele>265</ele>
        <time>2017-03-15T10:18:23Z</time>
      </trkpt>
      <trkpt lat="45.98781" lon="4.83061">
        <ele>265</ele>
        <time>2017-03-15T10:18:25Z</time>
      </trkpt>
      <trkpt lat="45.98779" lon="4.83063">
        <ele>265</ele>
        <time>2017-03-15T10:18:26Z</time>
      </trkpt>
      <trkpt lat="45.98774" lon="4.83068">
        <ele>265</ele>
        <time>2017-03-15T10:18:28Z</time>
      </trkpt>
      <trkpt lat="45.98771" lon="4.8307">
        <ele>265</ele>
        <time>2017-03-15T10:18:29Z</time>
      </trkpt>
      <trkpt lat="45.98766" lon="4.83075">
        <ele>266</ele>
        <time>2017-03-15T10:18:31Z</time>
      </trkpt>
      <trkpt lat="45.98764" lon="4.83078">
        <ele>266</ele>
        <time>2017-03-15T10:18:32Z</time>
      </trkpt>
      <trkpt lat="45.98758" lon="4.83082">
        <ele>266</ele>
        <time>2017-03-15T10:18:34Z</time>
      </trkpt>
      <trkpt lat="45.98755" lon="4.83085">
        <ele>266</ele>
        <time>2017-03-15T10:18:35Z</time>
      </trkpt>
      <trkpt lat="45.98749" lon="4.8309">
        <ele>267</ele>
        <time>2017-03-15T10:18:37Z</time>
      </trkpt>
      <trkpt lat="45.98746" lon="4.83092">
        <ele>267</ele>
        <time>2017-03-15T10:18:38Z</time>
      </trkpt>
      <trkpt lat="45.9874" lon="4.83097">
        <ele>267</ele>
        <time>2017-03-15T10:18:40Z</time>
      </trkpt>
      <trkpt lat="45.98737" lon="4.831">
        <ele>267</ele>
        <time>2017-03-15T10:18:41Z</time>
      </trkpt>
      <trkpt lat="45.98731" lon="4.83105">
        <ele>267</ele>
        <time>2017-03-15T10:18:43Z</time>
      </trkpt>
      <trkpt lat="45.98728" lon="4.83107">
        <ele>267</ele>
        <time>2017-03-15T10:18:44Z</time>
      </trkpt>
      <trkpt lat="45.98722" lon="4.83111">
        <ele>267</ele>
        <time>2017-03-15T10:18:46Z</time>
      </trkpt>
      <trkpt lat="45.98718" lon="4.83114">
        <ele>267</ele>
        <time>2017-03-15T10:18:47Z</time>
      </trkpt>
      <trkpt lat="45.98712" lon="4.8312">
        <ele>267</ele>
        <time>2017-03-15T10:18:49Z</time>
      </trkpt>
      <trkpt lat="45.98709" lon="4.83123">
        <ele>267</ele>
        <time>2017-03-15T10:18:50Z</time>
      </trkpt>
      <trkpt lat="45.98703" lon="4.83128">
        <ele>267</ele>
        <time>2017-03-15T10:18:52Z</time>
      </trkpt>
      <trkpt lat="45.987" lon="4.8313">
        <ele>266</ele>
        <time>2017-03-15T10:18:53Z</time>
      </trkpt>
      <trkpt lat="45.98694" lon="4.83135">
        <ele>266</ele>
        <time>2017-03-15T10:18:55Z</time>
      </trkpt>
      <trkpt lat="45.9869" lon="4.83137">
        <ele>266</ele>
        <time>2017-03-15T10:18:56Z</time>
      </trkpt>
      <trkpt lat="45.98684" lon="4.83142">
        <ele>266</ele>
        <time>2017-03-15T10:18:58Z</time>
      </trkpt>
      <trkpt lat="45.9868" lon="4.83145">
        <ele>266</ele>
        <time>2017-03-15T10:18:59Z</time>
      </trkpt>
      <trkpt lat="45.98673" lon="4.83151">
        <ele>266</ele>
        <time>2017-03-15T10:19:01Z</time>
      </trkpt>
      <trkpt lat="45.9867" lon="4.83153">
        <ele>266</ele>
        <time>2017-03-15T10:19:02Z</time>
      </trkpt>
      <trkpt lat="45.98663" lon="4.83159">
        <ele>267</ele>
        <time>2017-03-15T10:19:04Z</time>
      </trkpt>
      <trkpt lat="45.98659" lon="4.83162">
        <ele>267</ele>
        <time>2017-03-15T10:19:05Z</time>
      </trkpt>
      <trkpt lat="45.98652" lon="4.83168">
        <ele>267</ele>
        <time>2017-03-15T10:19:07Z</time>
      </trkpt>
      <trkpt lat="45.98648" lon="4.83171">
        <ele>267</ele>
        <time>2017-03-15T10:19:08Z</time>
      </trkpt>
      <trkpt lat="45.98641" lon="4.83177">
        <ele>267</ele>
        <time>2017-03-15T10:19:10Z</time>
      </trkpt>
      <trkpt lat="45.98638" lon="4.8318">
        <ele>267</ele>
        <time>2017-03-15T10:19:11Z</time>
      </trkpt>
      <trkpt lat="45.98631" lon="4.83187">
        <ele>267</ele>
        <time>2017-03-15T10:19:13Z</time>
      </trkpt>
      <trkpt lat="45.98628" lon="4.83191">
        <ele>267</ele>
        <time>2017-03-15T10:19:14Z</time>
      </trkpt>
      <trkpt lat="45.98621" lon="4.83198">
        <ele>267</ele>
        <time>2017-03-15T10:19:16Z</time>
      </trkpt>
      <trkpt lat="45.98618" lon="4.83202">
        <ele>267</ele>
        <time>2017-03-15T10:19:17Z</time>
      </trkpt>
      <trkpt lat="45.98614" lon="4.83207">
        <ele>267</ele>
        <time>2017-03-15T10:19:18Z</time>
      </trkpt>
      <trkpt lat="45.98611" lon="4.83211">
        <ele>267</ele>
        <time>2017-03-15T10:19:19Z</time>
      </trkpt>
      <trkpt lat="45.98604" lon="4.83219">
        <ele>267</ele>
        <time>2017-03-15T10:19:21Z</time>
      </trkpt>
      <trkpt lat="45.98601" lon="4.83223">
        <ele>267</ele>
        <time>2017-03-15T10:19:22Z</time>
      </trkpt>
      <trkpt lat="45.98596" lon="4.83231">
        <ele>268</ele>
        <time>2017-03-15T10:19:24Z</time>
      </trkpt>
      <trkpt lat="45.98593" lon="4.83235">
        <ele>268</ele>
        <time>2017-03-15T10:19:25Z</time>
      </trkpt>
      <trkpt lat="45.98589" lon="4.8324">
        <ele>268</ele>
        <time>2017-03-15T10:19:26Z</time>
      </trkpt>
      <trkpt lat="45.98586" lon="4.83244">
        <ele>268</ele>
        <time>2017-03-15T10:19:27Z</time>
      </trkpt>
      <trkpt lat="45.98582" lon="4.83249">
        <ele>268</ele>
        <time>2017-03-15T10:19:28Z</time>
      </trkpt>
      <trkpt lat="45.98579" lon="4.83254">
        <ele>268</ele>
        <time>2017-03-15T10:19:29Z</time>
      </trkpt>
      <trkpt lat="45.98575" lon="4.83259">
        <ele>268</ele>
        <time>2017-03-15T10:19:30Z</time>
      </trkpt>
      <trkpt lat="45.98572" lon="4.83263">
        <ele>269</ele>
        <time>2017-03-15T10:19:31Z</time>
      </trkpt>
      <trkpt lat="45.98565" lon="4.83271">
        <ele>269</ele>
        <time>2017-03-15T10:19:33Z</time>
      </trkpt>
      <trkpt lat="45.98562" lon="4.83276">
        <ele>269</ele>
        <time>2017-03-15T10:19:34Z</time>
      </trkpt>
      <trkpt lat="45.98556" lon="4.83284">
        <ele>269</ele>
        <time>2017-03-15T10:19:36Z</time>
      </trkpt>
      <trkpt lat="45.98553" lon="4.83288">
        <ele>269</ele>
        <time>2017-03-15T10:19:37Z</time>
      </trkpt>
      <trkpt lat="45.98549" lon="4.83293">
        <ele>269</ele>
        <time>2017-03-15T10:19:38Z</time>
      </trkpt>
      <trkpt lat="45.98546" lon="4.83297">
        <ele>269</ele>
        <time>2017-03-15T10:19:39Z</time>
      </trkpt>
      <trkpt lat="45.98542" lon="4.83301">
        <ele>269</ele>
        <time>2017-03-15T10:19:40Z</time>
      </trkpt>
      <trkpt lat="45.98539" lon="4.83306">
        <ele>269</ele>
        <time>2017-03-15T10:19:41Z</time>
      </trkpt>
      <trkpt lat="45.98536" lon="4.8331">
        <ele>269</ele>
        <time>2017-03-15T10:19:42Z</time>
      </trkpt>
      <trkpt lat="45.98532" lon="4.83315">
        <ele>269</ele>
        <time>2017-03-15T10:19:43Z</time>
      </trkpt>
      <trkpt lat="45.98529" lon="4.8332">
        <ele>269</ele>
        <time>2017-03-15T10:19:44Z</time>
      </trkpt>
      <trkpt lat="45.98526" lon="4.83324">
        <ele>270</ele>
        <time>2017-03-15T10:19:45Z</time>
      </trkpt>
      <trkpt lat="45.98522" lon="4.83329">
        <ele>270</ele>
        <time>2017-03-15T10:19:46Z</time>
      </trkpt>
      <trkpt lat="45.98519" lon="4.83333">
        <ele>270</ele>
        <time>2017-03-15T10:19:47Z</time>
      </trkpt>
      <trkpt lat="45.98515" lon="4.83338">
        <ele>270</ele>
        <time>2017-03-15T10:19:48Z</time>
      </trkpt>
      <trkpt lat="45.98511" lon="4.83343">
        <ele>270</ele>
        <time>2017-03-15T10:19:49Z</time>
      </trkpt>
      <trkpt lat="45.98507" lon="4.83348">
        <ele>270</ele>
        <time>2017-03-15T10:19:50Z</time>
      </trkpt>
      <trkpt lat="45.98504" lon="4.83353">
        <ele>270</ele>
        <time>2017-03-15T10:19:51Z</time>
      </trkpt>
      <trkpt lat="45.985" lon="4.83359">
        <ele>270</ele>
        <time>2017-03-15T10:19:52Z</time>
      </trkpt>
      <trkpt lat="45.98496" lon="4.83364">
        <ele>270</ele>
        <time>2017-03-15T10:19:53Z</time>
      </trkpt>
      <trkpt lat="45.98492" lon="4.83369">
        <ele>270</ele>
        <time>2017-03-15T10:19:54Z</time>
      </trkpt>
      <trkpt lat="45.98488" lon="4.83375">
        <ele>270</ele>
        <time>2017-03-15T10:19:55Z</time>
      </trkpt>
      <trkpt lat="45.98484" lon="4.8338">
        <ele>269</ele>
        <time>2017-03-15T10:19:56Z</time>
      </trkpt>
      <trkpt lat="45.9848" lon="4.83386">
        <ele>269</ele>
        <time>2017-03-15T10:19:57Z</time>
      </trkpt>
      <trkpt lat="45.98476" lon="4.83392">
        <ele>269</ele>
        <time>2017-03-15T10:19:58Z</time>
      </trkpt>
      <trkpt lat="45.98472" lon="4.83397">
        <ele>269</ele>
        <time>2017-03-15T10:19:59Z</time>
      </trkpt>
      <trkpt lat="45.98468" lon="4.83403">
        <ele>269</ele>
        <time>2017-03-15T10:20:00Z</time>
      </trkpt>
      <trkpt lat="45.98464" lon="4.83408">
        <ele>269</ele>
        <time>2017-03-15T10:20:01Z</time>
      </trkpt>
      <trkpt lat="45.9846" lon="4.83414">
        <ele>269</ele>
        <time>2017-03-15T10:20:02Z</time>
      </trkpt>
      <trkpt lat="45.98456" lon="4.83419">
        <ele>269</ele>
        <time>2017-03-15T10:20:03Z</time>
      </trkpt>
      <trkpt lat="45.98452" lon="4.83425">
        <ele>269</ele>
        <time>2017-03-15T10:20:04Z</time>
      </trkpt>
      <trkpt lat="45.98449" lon="4.8343">
        <ele>268</ele>
        <time>2017-03-15T10:20:05Z</time>
      </trkpt>
      <trkpt lat="45.98445" lon="4.83436">
        <ele>268</ele>
        <time>2017-03-15T10:20:06Z</time>
      </trkpt>
      <trkpt lat="45.98442" lon="4.83441">
        <ele>268</ele>
        <time>2017-03-15T10:20:07Z</time>
      </trkpt>
      <trkpt lat="45.98436" lon="4.83446">
        <ele>268</ele>
        <time>2017-03-15T10:20:08Z</time>
      </trkpt>
      <trkpt lat="45.98431" lon="4.83451">
        <ele>268</ele>
        <time>2017-03-15T10:20:09Z</time>
      </trkpt>
      <trkpt lat="45.98427" lon="4.83456">
        <ele>268</ele>
        <time>2017-03-15T10:20:10Z</time>
      </trkpt>
      <trkpt lat="45.98424" lon="4.83461">
        <ele>268</ele>
        <time>2017-03-15T10:20:11Z</time>
      </trkpt>
      <trkpt lat="45.98417" lon="4.8347">
        <ele>268</ele>
        <time>2017-03-15T10:20:13Z</time>
      </trkpt>
      <trkpt lat="45.98414" lon="4.83474">
        <ele>269</ele>
        <time>2017-03-15T10:20:14Z</time>
      </trkpt>
      <trkpt lat="45.98408" lon="4.83483">
        <ele>269</ele>
        <time>2017-03-15T10:20:16Z</time>
      </trkpt>
      <trkpt lat="45.98405" lon="4.83487">
        <ele>269</ele>
        <time>2017-03-15T10:20:17Z</time>
      </trkpt>
      <trkpt lat="45.98399" lon="4.83495">
        <ele>269</ele>
        <time>2017-03-15T10:20:19Z</time>
      </trkpt>
      <trkpt lat="45.98396" lon="4.83499">
        <ele>269</ele>
        <time>2017-03-15T10:20:20Z</time>
      </trkpt>
      <trkpt lat="45.9839" lon="4.83507">
        <ele>269</ele>
        <time>2017-03-15T10:20:22Z</time>
      </trkpt>
      <trkpt lat="45.98386" lon="4.83512">
        <ele>269</ele>
        <time>2017-03-15T10:20:23Z</time>
      </trkpt>
      <trkpt lat="45.98383" lon="4.83518">
        <ele>269</ele>
        <time>2017-03-15T10:20:24Z</time>
      </trkpt>
      <trkpt lat="45.98379" lon="4.83523">
        <ele>269</ele>
        <time>2017-03-15T10:20:25Z</time>
      </trkpt>
      <trkpt lat="45.98375" lon="4.83529">
        <ele>269</ele>
        <time>2017-03-15T10:20:26Z</time>
      </trkpt>
      <trkpt lat="45.98372" lon="4.83534">
        <ele>269</ele>
        <time>2017-03-15T10:20:27Z</time>
      </trkpt>
      <trkpt lat="45.98368" lon="4.83539">
        <ele>269</ele>
        <time>2017-03-15T10:20:28Z</time>
      </trkpt>
      <trkpt lat="45.98364" lon="4.83544">
        <ele>269</ele>
        <time>2017-03-15T10:20:29Z</time>
      </trkpt>
      <trkpt lat="45.9836" lon="4.83549">
        <ele>269</ele>
        <time>2017-03-15T10:20:30Z</time>
      </trkpt>
      <trkpt lat="45.98357" lon="4.83554">
        <ele>269</ele>
        <time>2017-03-15T10:20:31Z</time>
      </trkpt>
      <trkpt lat="45.98353" lon="4.83559">
        <ele>269</ele>
        <time>2017-03-15T10:20:32Z</time>
      </trkpt>
      <trkpt lat="45.98349" lon="4.83564">
        <ele>269</ele>
        <time>2017-03-15T10:20:33Z</time>
      </trkpt>
      <trkpt lat="45.98345" lon="4.83569">
        <ele>269</ele>
        <time>2017-03-15T10:20:34Z</time>
      </trkpt>
      <trkpt lat="45.98341" lon="4.83575">
        <ele>270</ele>
        <time>2017-03-15T10:20:35Z</time>
      </trkpt>
      <trkpt lat="45.98337" lon="4.83581">
        <ele>270</ele>
        <time>2017-03-15T10:20:36Z</time>
      </trkpt>
      <trkpt lat="45.98333" lon="4.83586">
        <ele>270</ele>
        <time>2017-03-15T10:20:37Z</time>
      </trkpt>
      <trkpt lat="45.98329" lon="4.83591">
        <ele>270</ele>
        <time>2017-03-15T10:20:38Z</time>
      </trkpt>
      <trkpt lat="45.98326" lon="4.83595">
        <ele>271</ele>
        <time>2017-03-15T10:20:39Z</time>
      </trkpt>
      <trkpt lat="45.98323" lon="4.836">
        <ele>271</ele>
        <time>2017-03-15T10:20:40Z</time>
      </trkpt>
      <trkpt lat="45.9832" lon="4.83605">
        <ele>271</ele>
        <time>2017-03-15T10:20:41Z</time>
      </trkpt>
      <trkpt lat="45.98316" lon="4.8361">
        <ele>271</ele>
        <time>2017-03-15T10:20:42Z</time>
      </trkpt>
      <trkpt lat="45.98313" lon="4.83615">
        <ele>271</ele>
        <time>2017-03-15T10:20:43Z</time>
      </trkpt>
      <trkpt lat="45.9831" lon="4.8362">
        <ele>271</ele>
        <time>2017-03-15T10:20:44Z</time>
      </trkpt>
      <trkpt lat="45.98307" lon="4.83625">
        <ele>271</ele>
        <time>2017-03-15T10:20:45Z</time>
      </trkpt>
      <trkpt lat="45.98305" lon="4.83631">
        <ele>271</ele>
        <time>2017-03-15T10:20:46Z</time>
      </trkpt>
      <trkpt lat="45.98302" lon="4.83636">
        <ele>271</ele>
        <time>2017-03-15T10:20:47Z</time>
      </trkpt>
      <trkpt lat="45.98299" lon="4.83642">
        <ele>271</ele>
        <time>2017-03-15T10:20:48Z</time>
      </trkpt>
      <trkpt lat="45.98296" lon="4.83649">
        <ele>271</ele>
        <time>2017-03-15T10:20:49Z</time>
      </trkpt>
      <trkpt lat="45.98293" lon="4.83655">
        <ele>271</ele>
        <time>2017-03-15T10:20:50Z</time>
      </trkpt>
      <trkpt lat="45.98291" lon="4.83662">
        <ele>272</ele>
        <time>2017-03-15T10:20:51Z</time>
      </trkpt>
      <trkpt lat="45.98288" lon="4.83668">
        <ele>272</ele>
        <time>2017-03-15T10:20:52Z</time>
      </trkpt>
      <trkpt lat="45.98286" lon="4.83675">
        <ele>272</ele>
        <time>2017-03-15T10:20:53Z</time>
      </trkpt>
      <trkpt lat="45.98284" lon="4.83682">
        <ele>272</ele>
        <time>2017-03-15T10:20:54Z</time>
      </trkpt>
      <trkpt lat="45.98282" lon="4.83688">
        <ele>272</ele>
        <time>2017-03-15T10:20:55Z</time>
      </trkpt>
      <trkpt lat="45.9828" lon="4.83694">
        <ele>272</ele>
        <time>2017-03-15T10:20:56Z</time>
      </trkpt>
      <trkpt lat="45.98278" lon="4.837">
        <ele>272</ele>
        <time>2017-03-15T10:20:57Z</time>
      </trkpt>
      <trkpt lat="45.98275" lon="4.83706">
        <ele>272</ele>
        <time>2017-03-15T10:20:58Z</time>
      </trkpt>
      <trkpt lat="45.98273" lon="4.83712">
        <ele>272</ele>
        <time>2017-03-15T10:20:59Z</time>
      </trkpt>
      <trkpt lat="45.98271" lon="4.83719">
        <ele>272</ele>
        <time>2017-03-15T10:21:00Z</time>
      </trkpt>
      <trkpt lat="45.98268" lon="4.83725">
        <ele>272</ele>
        <time>2017-03-15T10:21:01Z</time>
      </trkpt>
      <trkpt lat="45.98266" lon="4.83733">
        <ele>272</ele>
        <time>2017-03-15T10:21:02Z</time>
      </trkpt>
      <trkpt lat="45.98263" lon="4.8374">
        <ele>272</ele>
        <time>2017-03-15T10:21:03Z</time>
      </trkpt>
      <trkpt lat="45.9826" lon="4.83747">
        <ele>272</ele>
        <time>2017-03-15T10:21:04Z</time>
      </trkpt>
      <trkpt lat="45.98258" lon="4.83754">
        <ele>272</ele>
        <time>2017-03-15T10:21:05Z</time>
      </trkpt>
      <trkpt lat="45.98255" lon="4.83762">
        <ele>272</ele>
        <time>2017-03-15T10:21:06Z</time>
      </trkpt>
      <trkpt lat="45.98252" lon="4.8377">
        <ele>272</ele>
        <time>2017-03-15T10:21:07Z</time>
      </trkpt>
      <trkpt lat="45.98249" lon="4.83778">
        <ele>272</ele>
        <time>2017-03-15T10:21:08Z</time>
      </trkpt>
      <trkpt lat="45.98246" lon="4.83786">
        <ele>272</ele>
        <time>2017-03-15T10:21:09Z</time>
      </trkpt>
      <trkpt lat="45.98244" lon="4.83794">
        <ele>272</ele>
        <time>2017-03-15T10:21:10Z</time>
      </trkpt>
      <trkpt lat="45.98242" lon="4.83801">
        <ele>272</ele>
        <time>2017-03-15T10:21:11Z</time>
      </trkpt>
      <trkpt lat="45.9824" lon="4.83808">
        <ele>272</ele>
        <time>2017-03-15T10:21:12Z</time>
      </trkpt>
      <trkpt lat="45.98237" lon="4.83815">
        <ele>272</ele>
        <time>2017-03-15T10:21:13Z</time>
      </trkpt>
      <trkpt lat="45.98235" lon="4.83821">
        <ele>272</ele>
        <time>2017-03-15T10:21:14Z</time>
      </trkpt>
      <trkpt lat="45.98233" lon="4.83828">
        <ele>272</ele>
        <time>2017-03-15T10:21:15Z</time>
      </trkpt>
      <trkpt lat="45.9823" lon="4.83834">
        <ele>272</ele>
        <time>2017-03-15T10:21:16Z</time>
      </trkpt>
      <trkpt lat="45.98228" lon="4.83841">
        <ele>272</ele>
        <time>2017-03-15T10:21:17Z</time>
      </trkpt>
      <trkpt lat="45.98226" lon="4.83847">
        <ele>272</ele>
        <time>2017-03-15T10:21:18Z</time>
      </trkpt>
      <trkpt lat="45.98224" lon="4.83854">
        <ele>272</ele>
        <time>2017-03-15T10:21:19Z</time>
      </trkpt>
      <trkpt lat="45.98222" lon="4.8386">
        <ele>272</ele>
        <time>2017-03-15T10:21:20Z</time>
      </trkpt>
      <trkpt lat="45.98219" lon="4.83867">
        <ele>272</ele>
        <time>2017-03-15T10:21:21Z</time>
      </trkpt>
      <trkpt lat="45.98217" lon="4.83874">
        <ele>272</ele>
        <time>2017-03-15T10:21:22Z</time>
      </trkpt>
      <trkpt lat="45.98215" lon="4.83881">
        <ele>272</ele>
        <time>2017-03-15T10:21:23Z</time>
      </trkpt>
      <trkpt lat="45.98212" lon="4.83888">
        <ele>273</ele>
        <time>2017-03-15T10:21:24Z</time>
      </trkpt>
      <trkpt lat="45.9821" lon="4.83894">
        <ele>273</ele>
        <time>2017-03-15T10:21:25Z</time>
      </trkpt>
      <trkpt lat="45.98207" lon="4.83902">
        <ele>273</ele>
        <time>2017-03-15T10:21:26Z</time>
      </trkpt>
      <trkpt lat="45.98205" lon="4.83909">
        <ele>273</ele>
        <time>2017-03-15T10:21:27Z</time>
      </trkpt>
      <trkpt lat="45.98203" lon="4.83916">
        <ele>273</ele>
        <time>2017-03-15T10:21:28Z</time>
      </trkpt>
      <trkpt lat="45.982" lon="4.83922">
        <ele>273</ele>
        <time>2017-03-15T10:21:29Z</time>
      </trkpt>
      <trkpt lat="45.98198" lon="4.83929">
        <ele>273</ele>
        <time>2017-03-15T10:21:30Z</time>
      </trkpt>
      <trkpt lat="45.98196" lon="4.83936">
        <ele>273</ele>
        <time>2017-03-15T10:21:31Z</time>
      </trkpt>
      <trkpt lat="45.98193" lon="4.83942">
        <ele>273</ele>
        <time>2017-03-15T10:21:32Z</time>
      </trkpt>
      <trkpt lat="45.98191" lon="4.83948">
        <ele>273</ele>
        <time>2017-03-15T10:21:33Z</time>
      </trkpt>
      <trkpt lat="45.98189" lon="4.83955">
        <ele>273</ele>
        <time>2017-03-15T10:21:34Z</time>
      </trkpt>
      <trkpt lat="45.98186" lon="4.83961">
        <ele>273</ele>
        <time>2017-03-15T10:21:35Z</time>
      </trkpt>
      <trkpt lat="45.98184" lon="4.83968">
        <ele>273</ele>
        <time>2017-03-15T10:21:36Z</time>
      </trkpt>
      <trkpt lat="45.98181" lon="4.83975">
        <ele>273</ele>
        <time>2017-03-15T10:21:37Z</time>
      </trkpt>
      <trkpt lat="45.98179" lon="4.83982">
        <ele>273</ele>
        <time>2017-03-15T10:21:38Z</time>
      </trkpt>
      <trkpt lat="45.98176" lon="4.83989">
        <ele>273</ele>
        <time>2017-03-15T10:21:39Z</time>
      </trkpt>
      <trkpt lat="45.98172" lon="4.83997">
        <ele>273</ele>
        <time>2017-03-15T10:21:40Z</time>
      </trkpt>
      <trkpt lat="45.98169" lon="4.84004">
        <ele>273</ele>
        <time>2017-03-15T10:21:41Z</time>
      </trkpt>
      <trkpt lat="45.98165" lon="4.84011">
        <ele>273</ele>
        <time>2017-03-15T10:21:42Z</time>
      </trkpt>
      <trkpt lat="45.98162" lon="4.84018">
        <ele>273</ele>
        <time>2017-03-15T10:21:43Z</time>
      </trkpt>
      <trkpt lat="45.98159" lon="4.84025">
        <ele>273</ele>
        <time>2017-03-15T10:21:44Z</time>
      </trkpt>
      <trkpt lat="45.98155" lon="4.84031">
        <ele>273</ele>
        <time>2017-03-15T10:21:45Z</time>
      </trkpt>
      <trkpt lat="45.98152" lon="4.84037">
        <ele>273</ele>
        <time>2017-03-15T10:21:46Z</time>
      </trkpt>
      <trkpt lat="45.98148" lon="4.84043">
        <ele>273</ele>
        <time>2017-03-15T10:21:47Z</time>
      </trkpt>
      <trkpt lat="45.98145" lon="4.84048">
        <ele>273</ele>
        <time>2017-03-15T10:21:48Z</time>
      </trkpt>
      <trkpt lat="45.98141" lon="4.84053">
        <ele>273</ele>
        <time>2017-03-15T10:21:49Z</time>
      </trkpt>
      <trkpt lat="45.98137" lon="4.84058">
        <ele>273</ele>
        <time>2017-03-15T10:21:50Z</time>
      </trkpt>
      <trkpt lat="45.98133" lon="4.84063">
        <ele>273</ele>
        <time>2017-03-15T10:21:51Z</time>
      </trkpt>
      <trkpt lat="45.9813" lon="4.84067">
        <ele>273</ele>
        <time>2017-03-15T10:21:52Z</time>
      </trkpt>
      <trkpt lat="45.98126" lon="4.84072">
        <ele>273</ele>
        <time>2017-03-15T10:21:53Z</time>
      </trkpt>
      <trkpt lat="45.98122" lon="4.84076">
        <ele>273</ele>
        <time>2017-03-15T10:21:54Z</time>
      </trkpt>
      <trkpt lat="45.98118" lon="4.84081">
        <ele>273</ele>
        <time>2017-03-15T10:21:55Z</time>
      </trkpt>
      <trkpt lat="45.98113" lon="4.84085">
        <ele>273</ele>
        <time>2017-03-15T10:21:56Z</time>
      </trkpt>
      <trkpt lat="45.98109" lon="4.8409">
        <ele>273</ele>
        <time>2017-03-15T10:21:57Z</time>
      </trkpt>
      <trkpt lat="45.98105" lon="4.84094">
        <ele>273</ele>
        <time>2017-03-15T10:21:58Z</time>
      </trkpt>
      <trkpt lat="45.981" lon="4.84098">
        <ele>273</ele>
        <time>2017-03-15T10:21:59Z</time>
      </trkpt>
      <trkpt lat="45.98096" lon="4.84102">
        <ele>273</ele>
        <time>2017-03-15T10:22:00Z</time>
      </trkpt>
      <trkpt lat="45.98092" lon="4.84106">
        <ele>273</ele>
        <time>2017-03-15T10:22:01Z</time>
      </trkpt>
      <trkpt lat="45.98087" lon="4.84111">
        <ele>273</ele>
        <time>2017-03-15T10:22:02Z</time>
      </trkpt>
      <trkpt lat="45.98083" lon="4.84115">
        <ele>273</ele>
        <time>2017-03-15T10:22:03Z</time>
      </trkpt>
      <trkpt lat="45.98079" lon="4.84119">
        <ele>273</ele>
        <time>2017-03-15T10:22:04Z</time>
      </trkpt>
      <trkpt lat="45.98075" lon="4.84123">
        <ele>273</ele>
        <time>2017-03-15T10:22:05Z</time>
      </trkpt>
      <trkpt lat="45.98071" lon="4.84127">
        <ele>273</ele>
        <time>2017-03-15T10:22:06Z</time>
      </trkpt>
      <trkpt lat="45.98068" lon="4.8413">
        <ele>273</ele>
        <time>2017-03-15T10:22:07Z</time>
      </trkpt>
      <trkpt lat="45.98064" lon="4.84134">
        <ele>273</ele>
        <time>2017-03-15T10:22:08Z</time>
      </trkpt>
      <trkpt lat="45.9806" lon="4.84138">
        <ele>273</ele>
        <time>2017-03-15T10:22:09Z</time>
      </trkpt>
      <trkpt lat="45.98055" lon="4.84142">
        <ele>273</ele>
        <time>2017-03-15T10:22:10Z</time>
      </trkpt>
      <trkpt lat="45.98051" lon="4.84146">
        <ele>273</ele>
        <time>2017-03-15T10:22:11Z</time>
      </trkpt>
      <trkpt lat="45.98047" lon="4.8415">
        <ele>273</ele>
        <time>2017-03-15T10:22:12Z</time>
      </trkpt>
      <trkpt lat="45.98043" lon="4.84154">
        <ele>273</ele>
        <time>2017-03-15T10:22:13Z</time>
      </trkpt>
      <trkpt lat="45.98038" lon="4.84158">
        <ele>273</ele>
        <time>2017-03-15T10:22:14Z</time>
      </trkpt>
      <trkpt lat="45.98034" lon="4.84162">
        <ele>273</ele>
        <time>2017-03-15T10:22:15Z</time>
      </trkpt>
      <trkpt lat="45.9803" lon="4.84166">
        <ele>273</ele>
        <time>2017-03-15T10:22:16Z</time>
      </trkpt>
      <trkpt lat="45.98026" lon="4.84169">
        <ele>274</ele>
        <time>2017-03-15T10:22:17Z</time>
      </trkpt>
      <trkpt lat="45.98022" lon="4.84173">
        <ele>274</ele>
        <time>2017-03-15T10:22:18Z</time>
      </trkpt>
      <trkpt lat="45.98018" lon="4.84176">
        <ele>274</ele>
        <time>2017-03-15T10:22:19Z</time>
      </trkpt>
      <trkpt lat="45.98011" lon="4.84184">
        <ele>274</ele>
        <time>2017-03-15T10:22:21Z</time>
      </trkpt>
      <trkpt lat="45.98008" lon="4.84187">
        <ele>274</ele>
        <time>2017-03-15T10:22:22Z</time>
      </trkpt>
      <trkpt lat="45.98001" lon="4.84193">
        <ele>274</ele>
        <time>2017-03-15T10:22:24Z</time>
      </trkpt>
      <trkpt lat="45.97997" lon="4.84196">
        <ele>274</ele>
        <time>2017-03-15T10:22:25Z</time>
      </trkpt>
      <trkpt lat="45.97991" lon="4.84203">
        <ele>274</ele>
        <time>2017-03-15T10:22:27Z</time>
      </trkpt>
      <trkpt lat="45.97987" lon="4.84206">
        <ele>274</ele>
        <time>2017-03-15T10:22:28Z</time>
      </trkpt>
      <trkpt lat="45.9798" lon="4.84213">
        <ele>274</ele>
        <time>2017-03-15T10:22:30Z</time>
      </trkpt>
      <trkpt lat="45.97976" lon="4.84216">
        <ele>274</ele>
        <time>2017-03-15T10:22:31Z</time>
      </trkpt>
      <trkpt lat="45.97972" lon="4.8422">
        <ele>274</ele>
        <time>2017-03-15T10:22:32Z</time>
      </trkpt>
      <trkpt lat="45.97968" lon="4.84224">
        <ele>274</ele>
        <time>2017-03-15T10:22:33Z</time>
      </trkpt>
      <trkpt lat="45.97964" lon="4.84227">
        <ele>274</ele>
        <time>2017-03-15T10:22:34Z</time>
      </trkpt>
      <trkpt lat="45.9796" lon="4.84231">
        <ele>274</ele>
        <time>2017-03-15T10:22:35Z</time>
      </trkpt>
      <trkpt lat="45.97956" lon="4.84235">
        <ele>275</ele>
        <time>2017-03-15T10:22:36Z</time>
      </trkpt>
      <trkpt lat="45.97952" lon="4.84239">
        <ele>275</ele>
        <time>2017-03-15T10:22:37Z</time>
      </trkpt>
      <trkpt lat="45.97948" lon="4.84243">
        <ele>275</ele>
        <time>2017-03-15T10:22:38Z</time>
      </trkpt>
      <trkpt lat="45.97943" lon="4.84247">
        <ele>275</ele>
        <time>2017-03-15T10:22:39Z</time>
      </trkpt>
      <trkpt lat="45.97939" lon="4.84251">
        <ele>275</ele>
        <time>2017-03-15T10:22:40Z</time>
      </trkpt>
      <trkpt lat="45.97934" lon="4.84256">
        <ele>275</ele>
        <time>2017-03-15T10:22:41Z</time>
      </trkpt>
      <trkpt lat="45.9793" lon="4.8426">
        <ele>275</ele>
        <time>2017-03-15T10:22:42Z</time>
      </trkpt>
      <trkpt lat="45.97927" lon="4.84265">
        <ele>275</ele>
        <time>2017-03-15T10:22:43Z</time>
      </trkpt>
      <trkpt lat="45.97924" lon="4.8427">
        <ele>275</ele>
        <time>2017-03-15T10:22:44Z</time>
      </trkpt>
      <trkpt lat="45.97921" lon="4.84276">
        <ele>275</ele>
        <time>2017-03-15T10:22:45Z</time>
      </trkpt>
      <trkpt lat="45.9792" lon="4.84282">
        <ele>275</ele>
        <time>2017-03-15T10:22:46Z</time>
      </trkpt>
      <trkpt lat="45.97919" lon="4.84288">
        <ele>275</ele>
        <time>2017-03-15T10:22:47Z</time>
      </trkpt>
      <trkpt lat="45.97919" lon="4.84295">
        <ele>275</ele>
        <time>2017-03-15T10:22:48Z</time>
      </trkpt>
      <trkpt lat="45.9792" lon="4.84302">
        <ele>275</ele>
        <time>2017-03-15T10:22:49Z</time>
      </trkpt>
      <trkpt lat="45.97921" lon="4.8431">
        <ele>275</ele>
        <time>2017-03-15T10:22:50Z</time>
      </trkpt>
      <trkpt lat="45.97922" lon="4.84317">
        <ele>275</ele>
        <time>2017-03-15T10:22:51Z</time>
      </trkpt>
      <trkpt lat="45.97924" lon="4.84324">
        <ele>275</ele>
        <time>2017-03-15T10:22:52Z</time>
      </trkpt>
      <trkpt lat="45.97925" lon="4.84331">
        <ele>275</ele>
        <time>2017-03-15T10:22:53Z</time>
      </trkpt>
      <trkpt lat="45.97926" lon="4.84338">
        <ele>275</ele>
        <time>2017-03-15T10:22:54Z</time>
      </trkpt>
      <trkpt lat="45.97928" lon="4.84345">
        <ele>275</ele>
        <time>2017-03-15T10:22:55Z</time>
      </trkpt>
      <trkpt lat="45.97929" lon="4.84351">
        <ele>275</ele>
        <time>2017-03-15T10:22:56Z</time>
      </trkpt>
      <trkpt lat="45.9793" lon="4.84358">
        <ele>275</ele>
        <time>2017-03-15T10:22:57Z</time>
      </trkpt>
      <trkpt lat="45.97933" lon="4.8437">
        <ele>275</ele>
        <time>2017-03-15T10:22:59Z</time>
      </trkpt>
      <trkpt lat="45.97934" lon="4.84377">
        <ele>275</ele>
        <time>2017-03-15T10:23:00Z</time>
      </trkpt>
      <trkpt lat="45.97935" lon="4.84383">
        <ele>275</ele>
        <time>2017-03-15T10:23:01Z</time>
      </trkpt>
      <trkpt lat="45.97936" lon="4.84389">
        <ele>275</ele>
        <time>2017-03-15T10:23:02Z</time>
      </trkpt>
      <trkpt lat="45.97937" lon="4.84396">
        <ele>275</ele>
        <time>2017-03-15T10:23:03Z</time>
      </trkpt>
      <trkpt lat="45.97939" lon="4.84403">
        <ele>275</ele>
        <time>2017-03-15T10:23:04Z</time>
      </trkpt>
      <trkpt lat="45.9794" lon="4.84409">
        <ele>275</ele>
        <time>2017-03-15T10:23:05Z</time>
      </trkpt>
      <trkpt lat="45.97941" lon="4.84416">
        <ele>275</ele>
        <time>2017-03-15T10:23:06Z</time>
      </trkpt>
      <trkpt lat="45.97942" lon="4.84423">
        <ele>275</ele>
        <time>2017-03-15T10:23:07Z</time>
      </trkpt>
      <trkpt lat="45.97943" lon="4.8443">
        <ele>275</ele>
        <time>2017-03-15T10:23:08Z</time>
      </trkpt>
      <trkpt lat="45.97944" lon="4.84437">
        <ele>275</ele>
        <time>2017-03-15T10:23:09Z</time>
      </trkpt>
      <trkpt lat="45.97946" lon="4.84443">
        <ele>275</ele>
        <time>2017-03-15T10:23:10Z</time>
      </trkpt>
      <trkpt lat="45.97947" lon="4.8445">
        <ele>275</ele>
        <time>2017-03-15T10:23:11Z</time>
      </trkpt>
      <trkpt lat="45.97948" lon="4.84457">
        <ele>275</ele>
        <time>2017-03-15T10:23:12Z</time>
      </trkpt>
      <trkpt lat="45.97948" lon="4.84463">
        <ele>275</ele>
        <time>2017-03-15T10:23:13Z</time>
      </trkpt>
      <trkpt lat="45.9795" lon="4.8447">
        <ele>275</ele>
        <time>2017-03-15T10:23:14Z</time>
      </trkpt>
      <trkpt lat="45.97951" lon="4.84476">
        <ele>275</ele>
        <time>2017-03-15T10:23:15Z</time>
      </trkpt>
      <trkpt lat="45.97952" lon="4.84483">
        <ele>275</ele>
        <time>2017-03-15T10:23:16Z</time>
      </trkpt>
      <trkpt lat="45.97953" lon="4.84489">
        <ele>275</ele>
        <time>2017-03-15T10:23:17Z</time>
      </trkpt>
      <trkpt lat="45.97954" lon="4.84496">
        <ele>275</ele>
        <time>2017-03-15T10:23:18Z</time>
      </trkpt>
      <trkpt lat="45.97955" lon="4.84503">
        <ele>275</ele>
        <time>2017-03-15T10:23:19Z</time>
      </trkpt>
      <trkpt lat="45.97957" lon="4.8451">
        <ele>275</ele>
        <time>2017-03-15T10:23:20Z</time>
      </trkpt>
      <trkpt lat="45.97958" lon="4.84517">
        <ele>275</ele>
        <time>2017-03-15T10:23:21Z</time>
      </trkpt>
      <trkpt lat="45.97959" lon="4.84524">
        <ele>275</ele>
        <time>2017-03-15T10:23:22Z</time>
      </trkpt>
      <trkpt lat="45.9796" lon="4.84531">
        <ele>275</ele>
        <time>2017-03-15T10:23:23Z</time>
      </trkpt>
      <trkpt lat="45.97961" lon="4.84538">
        <ele>275</ele>
        <time>2017-03-15T10:23:24Z</time>
      </trkpt>
      <trkpt lat="45.97962" lon="4.84545">
        <ele>275</ele>
        <time>2017-03-15T10:23:25Z</time>
      </trkpt>
      <trkpt lat="45.97964" lon="4.84552">
        <ele>275</ele>
        <time>2017-03-15T10:23:26Z</time>
      </trkpt>
      <trkpt lat="45.97965" lon="4.84559">
        <ele>275</ele>
        <time>2017-03-15T10:23:27Z</time>
      </trkpt>
      <trkpt lat="45.97966" lon="4.84566">
        <ele>275</ele>
        <time>2017-03-15T10:23:28Z</time>
      </trkpt>
      <trkpt lat="45.97968" lon="4.84579">
        <ele>275</ele>
        <time>2017-03-15T10:23:30Z</time>
      </trkpt>
      <trkpt lat="45.97969" lon="4.84585">
        <ele>275</ele>
        <time>2017-03-15T10:23:31Z</time>
      </trkpt>
      <trkpt lat="45.9797" lon="4.84597">
        <ele>275</ele>
        <time>2017-03-15T10:23:33Z</time>
      </trkpt>
      <trkpt lat="45.97971" lon="4.84603">
        <ele>275</ele>
        <time>2017-03-15T10:23:34Z</time>
      </trkpt>
      <trkpt lat="45.97972" lon="4.84609">
        <ele>275</ele>
        <time>2017-03-15T10:23:35Z</time>
      </trkpt>
      <trkpt lat="45.97973" lon="4.84616">
        <ele>275</ele>
        <time>2017-03-15T10:23:36Z</time>
      </trkpt>
      <trkpt lat="45.97974" lon="4.84623">
        <ele>275</ele>
        <time>2017-03-15T10:23:37Z</time>
      </trkpt>
      <trkpt lat="45.97975" lon="4.8463">
        <ele>275</ele>
        <time>2017-03-15T10:23:38Z</time>
      </trkpt>
      <trkpt lat="45.97976" lon="4.84636">
        <ele>275</ele>
        <time>2017-03-15T10:23:39Z</time>
      </trkpt>
      <trkpt lat="45.97977" lon="4.84643">
        <ele>275</ele>
        <time>2017-03-15T10:23:40Z</time>
      </trkpt>
      <trkpt lat="45.97979" lon="4.8465">
        <ele>275</ele>
        <time>2017-03-15T10:23:41Z</time>
      </trkpt>
      <trkpt lat="45.9798" lon="4.84657">
        <ele>275</ele>
        <time>2017-03-15T10:23:42Z</time>
      </trkpt>
      <trkpt lat="45.97981" lon="4.84664">
        <ele>274</ele>
        <time>2017-03-15T10:23:43Z</time>
      </trkpt>
      <trkpt lat="45.97981" lon="4.84671">
        <ele>275</ele>
        <time>2017-03-15T10:23:44Z</time>
      </trkpt>
      <trkpt lat="45.97982" lon="4.84677">
        <ele>275</ele>
        <time>2017-03-15T10:23:45Z</time>
      </trkpt>
      <trkpt lat="45.97983" lon="4.84684">
        <ele>275</ele>
        <time>2017-03-15T10:23:46Z</time>
      </trkpt>
      <trkpt lat="45.97984" lon="4.84691">
        <ele>275</ele>
        <time>2017-03-15T10:23:47Z</time>
      </trkpt>
      <trkpt lat="45.97985" lon="4.84697">
        <ele>275</ele>
        <time>2017-03-15T10:23:48Z</time>
      </trkpt>
      <trkpt lat="45.97987" lon="4.84709">
        <ele>275</ele>
        <time>2017-03-15T10:23:50Z</time>
      </trkpt>
      <trkpt lat="45.97987" lon="4.84716">
        <ele>275</ele>
        <time>2017-03-15T10:23:51Z</time>
      </trkpt>
      <trkpt lat="45.97987" lon="4.84727">
        <ele>275</ele>
        <time>2017-03-15T10:23:53Z</time>
      </trkpt>
      <trkpt lat="45.97988" lon="4.84733">
        <ele>275</ele>
        <time>2017-03-15T10:23:54Z</time>
      </trkpt>
      <trkpt lat="45.97988" lon="4.84745">
        <ele>275</ele>
        <time>2017-03-15T10:23:56Z</time>
      </trkpt>
      <trkpt lat="45.97989" lon="4.84752">
        <ele>275</ele>
        <time>2017-03-15T10:23:57Z</time>
      </trkpt>
      <trkpt lat="45.97989" lon="4.84758">
        <ele>275</ele>
        <time>2017-03-15T10:23:58Z</time>
      </trkpt>
      <trkpt lat="45.97989" lon="4.84765">
        <ele>275</ele>
        <time>2017-03-15T10:23:59Z</time>
      </trkpt>
      <trkpt lat="45.9799" lon="4.84777">
        <ele>274</ele>
        <time>2017-03-15T10:24:01Z</time>
      </trkpt>
      <trkpt lat="45.9799" lon="4.84784">
        <ele>274</ele>
        <time>2017-03-15T10:24:02Z</time>
      </trkpt>
      <trkpt lat="45.97992" lon="4.84796">
        <ele>274</ele>
        <time>2017-03-15T10:24:04Z</time>
      </trkpt>
      <trkpt lat="45.97993" lon="4.84802">
        <ele>274</ele>
        <time>2017-03-15T10:24:05Z</time>
      </trkpt>
      <trkpt lat="45.97994" lon="4.84814">
        <ele>273</ele>
        <time>2017-03-15T10:24:07Z</time>
      </trkpt>
      <trkpt lat="45.97995" lon="4.84821">
        <ele>273</ele>
        <time>2017-03-15T10:24:08Z</time>
      </trkpt>
      <trkpt lat="45.97997" lon="4.84833">
        <ele>272</ele>
        <time>2017-03-15T10:24:10Z</time>
      </trkpt>
      <trkpt lat="45.97997" lon="4.84839">
        <ele>272</ele>
        <time>2017-03-15T10:24:11Z</time>
      </trkpt>
      <trkpt lat="45.97999" lon="4.84851">
        <ele>272</ele>
        <time>2017-03-15T10:24:13Z</time>
      </trkpt>
      <trkpt lat="45.97999" lon="4.84858">
        <ele>272</ele>
        <time>2017-03-15T10:24:14Z</time>
      </trkpt>
      <trkpt lat="45.98" lon="4.84865">
        <ele>272</ele>
        <time>2017-03-15T10:24:15Z</time>
      </trkpt>
      <trkpt lat="45.98002" lon="4.84874">
        <ele>272</ele>
        <time>2017-03-15T10:24:16Z</time>
      </trkpt>
      <trkpt lat="45.98003" lon="4.84881">
        <ele>272</ele>
        <time>2017-03-15T10:24:17Z</time>
      </trkpt>
      <trkpt lat="45.98003" lon="4.84889">
        <ele>272</ele>
        <time>2017-03-15T10:24:18Z</time>
      </trkpt>
      <trkpt lat="45.98004" lon="4.84895">
        <ele>272</ele>
        <time>2017-03-15T10:24:19Z</time>
      </trkpt>
      <trkpt lat="45.98005" lon="4.84902">
        <ele>272</ele>
        <time>2017-03-15T10:24:20Z</time>
      </trkpt>
      <trkpt lat="45.98007" lon="4.84909">
        <ele>272</ele>
        <time>2017-03-15T10:24:21Z</time>
      </trkpt>
      <trkpt lat="45.98008" lon="4.84915">
        <ele>272</ele>
        <time>2017-03-15T10:24:22Z</time>
      </trkpt>
      <trkpt lat="45.98008" lon="4.84922">
        <ele>272</ele>
        <time>2017-03-15T10:24:23Z</time>
      </trkpt>
      <trkpt lat="45.98008" lon="4.84929">
        <ele>272</ele>
        <time>2017-03-15T10:24:24Z</time>
      </trkpt>
      <trkpt lat="45.98009" lon="4.84936">
        <ele>272</ele>
        <time>2017-03-15T10:24:25Z</time>
      </trkpt>
      <trkpt lat="45.9801" lon="4.84944">
        <ele>272</ele>
        <time>2017-03-15T10:24:26Z</time>
      </trkpt>
      <trkpt lat="45.9801" lon="4.84951">
        <ele>272</ele>
        <time>2017-03-15T10:24:27Z</time>
      </trkpt>
      <trkpt lat="45.98011" lon="4.84958">
        <ele>272</ele>
        <time>2017-03-15T10:24:28Z</time>
      </trkpt>
      <trkpt lat="45.98012" lon="4.84965">
        <ele>272</ele>
        <time>2017-03-15T10:24:29Z</time>
      </trkpt>
      <trkpt lat="45.98012" lon="4.84972">
        <ele>272</ele>
        <time>2017-03-15T10:24:30Z</time>
      </trkpt>
      <trkpt lat="45.98012" lon="4.84979">
        <ele>272</ele>
        <time>2017-03-15T10:24:31Z</time>
      </trkpt>
      <trkpt lat="45.98013" lon="4.84986">
        <ele>272</ele>
        <time>2017-03-15T10:24:32Z</time>
      </trkpt>
      <trkpt lat="45.98014" lon="4.84994">
        <ele>272</ele>
        <time>2017-03-15T10:24:33Z</time>
      </trkpt>
      <trkpt lat="45.98015" lon="4.85001">
        <ele>272</ele>
        <time>2017-03-15T10:24:34Z</time>
      </trkpt>
      <trkpt lat="45.98015" lon="4.85008">
        <ele>272</ele>
        <time>2017-03-15T10:24:35Z</time>
      </trkpt>
      <trkpt lat="45.98015" lon="4.85015">
        <ele>273</ele>
        <time>2017-03-15T10:24:36Z</time>
      </trkpt>
      <trkpt lat="45.98016" lon="4.85023">
        <ele>273</ele>
        <time>2017-03-15T10:24:37Z</time>
      </trkpt>
      <trkpt lat="45.98016" lon="4.8503">
        <ele>273</ele>
        <time>2017-03-15T10:24:38Z</time>
      </trkpt>
      <trkpt lat="45.98016" lon="4.85037">
        <ele>273</ele>
        <time>2017-03-15T10:24:39Z</time>
      </trkpt>
      <trkpt lat="45.98016" lon="4.85044">
        <ele>273</ele>
        <time>2017-03-15T10:24:40Z</time>
      </trkpt>
      <trkpt lat="45.98016" lon="4.8505">
        <ele>273</ele>
        <time>2017-03-15T10:24:41Z</time>
      </trkpt>
      <trkpt lat="45.98016" lon="4.85057">
        <ele>273</ele>
        <time>2017-03-15T10:24:42Z</time>
      </trkpt>
      <trkpt lat="45.98015" lon="4.85064">
        <ele>273</ele>
        <time>2017-03-15T10:24:43Z</time>
      </trkpt>
      <trkpt lat="45.98015" lon="4.85071">
        <ele>273</ele>
        <time>2017-03-15T10:24:44Z</time>
      </trkpt>
      <trkpt lat="45.98015" lon="4.85079">
        <ele>273</ele>
        <time>2017-03-15T10:24:45Z</time>
      </trkpt>
      <trkpt lat="45.98016" lon="4.85086">
        <ele>274</ele>
        <time>2017-03-15T10:24:46Z</time>
      </trkpt>
      <trkpt lat="45.98017" lon="4.85094">
        <ele>274</ele>
        <time>2017-03-15T10:24:47Z</time>
      </trkpt>
      <trkpt lat="45.98019" lon="4.85101">
        <ele>274</ele>
        <time>2017-03-15T10:24:48Z</time>
      </trkpt>
      <trkpt lat="45.9802" lon="4.85108">
        <ele>274</ele>
        <time>2017-03-15T10:24:49Z</time>
      </trkpt>
      <trkpt lat="45.98022" lon="4.85113">
        <ele>274</ele>
        <time>2017-03-15T10:24:50Z</time>
      </trkpt>
      <trkpt lat="45.98025" lon="4.85125">
        <ele>274</ele>
        <time>2017-03-15T10:24:52Z</time>
      </trkpt>
      <trkpt lat="45.98027" lon="4.85131">
        <ele>274</ele>
        <time>2017-03-15T10:24:53Z</time>
      </trkpt>
      <trkpt lat="45.98029" lon="4.85141">
        <ele>275</ele>
        <time>2017-03-15T10:24:55Z</time>
      </trkpt>
      <trkpt lat="45.98031" lon="4.85146">
        <ele>275</ele>
        <time>2017-03-15T10:24:56Z</time>
      </trkpt>
      <trkpt lat="45.98034" lon="4.85157">
        <ele>275</ele>
        <time>2017-03-15T10:24:58Z</time>
      </trkpt>
      <trkpt lat="45.98036" lon="4.85162">
        <ele>275</ele>
        <time>2017-03-15T10:24:59Z</time>
      </trkpt>
      <trkpt lat="45.98039" lon="4.85173">
        <ele>275</ele>
        <time>2017-03-15T10:25:01Z</time>
      </trkpt>
      <trkpt lat="45.98041" lon="4.85177">
        <ele>276</ele>
        <time>2017-03-15T10:25:02Z</time>
      </trkpt>
      <trkpt lat="45.98043" lon="4.85187">
        <ele>276</ele>
        <time>2017-03-15T10:25:04Z</time>
      </trkpt>
      <trkpt lat="45.98044" lon="4.85191">
        <ele>276</ele>
        <time>2017-03-15T10:25:05Z</time>
      </trkpt>
      <trkpt lat="45.98047" lon="4.85201">
        <ele>276</ele>
        <time>2017-03-15T10:25:08Z</time>
      </trkpt>
      <trkpt lat="45.98048" lon="4.85203">
        <ele>276</ele>
        <time>2017-03-15T10:25:09Z</time>
      </trkpt>
      <trkpt lat="45.98048" lon="4.85205">
        <ele>276</ele>
        <time>2017-03-15T10:25:15Z</time>
      </trkpt>
      <trkpt lat="45.98048" lon="4.85206">
        <ele>276</ele>
        <time>2017-03-15T10:25:16Z</time>
      </trkpt>
      <trkpt lat="45.98051" lon="4.85215">
        <ele>276</ele>
        <time>2017-03-15T10:25:20Z</time>
      </trkpt>
      <trkpt lat="45.98052" lon="4.85218">
        <ele>276</ele>
        <time>2017-03-15T10:25:21Z</time>
      </trkpt>
      <trkpt lat="45.98057" lon="4.85228">
        <ele>276</ele>
        <time>2017-03-15T10:25:25Z</time>
      </trkpt>
      <trkpt lat="45.98059" lon="4.85232">
        <ele>276</ele>
        <time>2017-03-15T10:25:26Z</time>
      </trkpt>
      <trkpt lat="45.98063" lon="4.85243">
        <ele>276</ele>
        <time>2017-03-15T10:25:28Z</time>
      </trkpt>
      <trkpt lat="45.98066" lon="4.85248">
        <ele>276</ele>
        <time>2017-03-15T10:25:29Z</time>
      </trkpt>
      <trkpt lat="45.98069" lon="4.85254">
        <ele>276</ele>
        <time>2017-03-15T10:25:30Z</time>
      </trkpt>
      <trkpt lat="45.98072" lon="4.8526">
        <ele>276</ele>
        <time>2017-03-15T10:25:31Z</time>
      </trkpt>
      <trkpt lat="45.98075" lon="4.85266">
        <ele>276</ele>
        <time>2017-03-15T10:25:32Z</time>
      </trkpt>
      <trkpt lat="45.98078" lon="4.85271">
        <ele>276</ele>
        <time>2017-03-15T10:25:33Z</time>
      </trkpt>
      <trkpt lat="45.98081" lon="4.85277">
        <ele>276</ele>
        <time>2017-03-15T10:25:34Z</time>
      </trkpt>
      <trkpt lat="45.98084" lon="4.85282">
        <ele>276</ele>
        <time>2017-03-15T10:25:35Z</time>
      </trkpt>
      <trkpt lat="45.98087" lon="4.85288">
        <ele>276</ele>
        <time>2017-03-15T10:25:36Z</time>
      </trkpt>
      <trkpt lat="45.9809" lon="4.85294">
        <ele>276</ele>
        <time>2017-03-15T10:25:37Z</time>
      </trkpt>
      <trkpt lat="45.98093" lon="4.853">
        <ele>276</ele>
        <time>2017-03-15T10:25:38Z</time>
      </trkpt>
      <trkpt lat="45.98096" lon="4.85306">
        <ele>276</ele>
        <time>2017-03-15T10:25:39Z</time>
      </trkpt>
      <trkpt lat="45.98098" lon="4.85312">
        <ele>276</ele>
        <time>2017-03-15T10:25:40Z</time>
      </trkpt>
      <trkpt lat="45.98101" lon="4.85318">
        <ele>276</ele>
        <time>2017-03-15T10:25:41Z</time>
      </trkpt>
      <trkpt lat="45.98103" lon="4.85324">
        <ele>276</ele>
        <time>2017-03-15T10:25:42Z</time>
      </trkpt>
      <trkpt lat="45.98105" lon="4.8533">
        <ele>276</ele>
        <time>2017-03-15T10:25:43Z</time>
      </trkpt>
      <trkpt lat="45.98108" lon="4.85337">
        <ele>276</ele>
        <time>2017-03-15T10:25:44Z</time>
      </trkpt>
      <trkpt lat="45.98111" lon="4.85344">
        <ele>276</ele>
        <time>2017-03-15T10:25:45Z</time>
      </trkpt>
      <trkpt lat="45.98113" lon="4.8535">
        <ele>276</ele>
        <time>2017-03-15T10:25:46Z</time>
      </trkpt>
      <trkpt lat="45.98116" lon="4.85357">
        <ele>276</ele>
        <time>2017-03-15T10:25:47Z</time>
      </trkpt>
      <trkpt lat="45.98119" lon="4.85363">
        <ele>276</ele>
        <time>2017-03-15T10:25:48Z</time>
      </trkpt>
      <trkpt lat="45.98122" lon="4.8537">
        <ele>276</ele>
        <time>2017-03-15T10:25:49Z</time>
      </trkpt>
      <trkpt lat="45.98124" lon="4.85376">
        <ele>276</ele>
        <time>2017-03-15T10:25:50Z</time>
      </trkpt>
      <trkpt lat="45.98126" lon="4.85382">
        <ele>276</ele>
        <time>2017-03-15T10:25:51Z</time>
      </trkpt>
      <trkpt lat="45.98129" lon="4.85387">
        <ele>276</ele>
        <time>2017-03-15T10:25:52Z</time>
      </trkpt>
      <trkpt lat="45.98131" lon="4.85393">
        <ele>276</ele>
        <time>2017-03-15T10:25:53Z</time>
      </trkpt>
      <trkpt lat="45.98134" lon="4.85399">
        <ele>276</ele>
        <time>2017-03-15T10:25:54Z</time>
      </trkpt>
      <trkpt lat="45.98137" lon="4.85404">
        <ele>276</ele>
        <time>2017-03-15T10:25:55Z</time>
      </trkpt>
      <trkpt lat="45.98141" lon="4.85415">
        <ele>276</ele>
        <time>2017-03-15T10:25:57Z</time>
      </trkpt>
      <trkpt lat="45.98143" lon="4.8542">
        <ele>276</ele>
        <time>2017-03-15T10:25:58Z</time>
      </trkpt>
      <trkpt lat="45.98146" lon="4.85431">
        <ele>276</ele>
        <time>2017-03-15T10:26:00Z</time>
      </trkpt>
      <trkpt lat="45.98148" lon="4.85436">
        <ele>276</ele>
        <time>2017-03-15T10:26:01Z</time>
      </trkpt>
      <trkpt lat="45.98152" lon="4.85447">
        <ele>276</ele>
        <time>2017-03-15T10:26:03Z</time>
      </trkpt>
      <trkpt lat="45.98155" lon="4.85453">
        <ele>276</ele>
        <time>2017-03-15T10:26:04Z</time>
      </trkpt>
      <trkpt lat="45.98157" lon="4.8546">
        <ele>275</ele>
        <time>2017-03-15T10:26:05Z</time>
      </trkpt>
      <trkpt lat="45.98159" lon="4.85466">
        <ele>275</ele>
        <time>2017-03-15T10:26:06Z</time>
      </trkpt>
      <trkpt lat="45.98162" lon="4.85473">
        <ele>275</ele>
        <time>2017-03-15T10:26:07Z</time>
      </trkpt>
      <trkpt lat="45.98164" lon="4.85479">
        <ele>275</ele>
        <time>2017-03-15T10:26:08Z</time>
      </trkpt>
      <trkpt lat="45.98167" lon="4.85486">
        <ele>275</ele>
        <time>2017-03-15T10:26:09Z</time>
      </trkpt>
      <trkpt lat="45.98169" lon="4.85492">
        <ele>275</ele>
        <time>2017-03-15T10:26:10Z</time>
      </trkpt>
      <trkpt lat="45.98172" lon="4.85499">
        <ele>275</ele>
        <time>2017-03-15T10:26:11Z</time>
      </trkpt>
      <trkpt lat="45.98174" lon="4.85505">
        <ele>275</ele>
        <time>2017-03-15T10:26:12Z</time>
      </trkpt>
      <trkpt lat="45.98177" lon="4.85512">
        <ele>275</ele>
        <time>2017-03-15T10:26:13Z</time>
      </trkpt>
      <trkpt lat="45.98179" lon="4.85518">
        <ele>275</ele>
        <time>2017-03-15T10:26:14Z</time>
      </trkpt>
      <trkpt lat="45.98182" lon="4.85524">
        <ele>276</ele>
        <time>2017-03-15T10:26:15Z</time>
      </trkpt>
      <trkpt lat="45.98185" lon="4.85531">
        <ele>276</ele>
        <time>2017-03-15T10:26:16Z</time>
      </trkpt>
      <trkpt lat="45.98187" lon="4.85537">
        <ele>276</ele>
        <time>2017-03-15T10:26:17Z</time>
      </trkpt>
      <trkpt lat="45.9819" lon="4.85543">
        <ele>276</ele>
        <time>2017-03-15T10:26:18Z</time>
      </trkpt>
      <trkpt lat="45.98192" lon="4.8555">
        <ele>276</ele>
        <time>2017-03-15T10:26:19Z</time>
      </trkpt>
      <trkpt lat="45.98195" lon="4.85556">
        <ele>276</ele>
        <time>2017-03-15T10:26:20Z</time>
      </trkpt>
      <trkpt lat="45.98199" lon="4.85563">
        <ele>276</ele>
        <time>2017-03-15T10:26:21Z</time>
      </trkpt>
      <trkpt lat="45.98201" lon="4.85569">
        <ele>276</ele>
        <time>2017-03-15T10:26:22Z</time>
      </trkpt>
      <trkpt lat="45.98204" lon="4.85576">
        <ele>276</ele>
        <time>2017-03-15T10:26:23Z</time>
      </trkpt>
      <trkpt lat="45.98207" lon="4.85582">
        <ele>276</ele>
        <time>2017-03-15T10:26:24Z</time>
      </trkpt>
      <trkpt lat="45.9821" lon="4.85588">
        <ele>277</ele>
        <time>2017-03-15T10:26:25Z</time>
      </trkpt>
      <trkpt lat="45.98213" lon="4.85594">
        <ele>277</ele>
        <time>2017-03-15T10:26:26Z</time>
      </trkpt>
      <trkpt lat="45.98215" lon="4.856">
        <ele>277</ele>
        <time>2017-03-15T10:26:27Z</time>
      </trkpt>
      <trkpt lat="45.98218" lon="4.85606">
        <ele>277</ele>
        <time>2017-03-15T10:26:28Z</time>
      </trkpt>
      <trkpt lat="45.98222" lon="4.85617">
        <ele>277</ele>
        <time>2017-03-15T10:26:30Z</time>
      </trkpt>
      <trkpt lat="45.98224" lon="4.85622">
        <ele>277</ele>
        <time>2017-03-15T10:26:31Z</time>
      </trkpt>
      <trkpt lat="45.98226" lon="4.85627">
        <ele>277</ele>
        <time>2017-03-15T10:26:32Z</time>
      </trkpt>
      <trkpt lat="45.98228" lon="4.85633">
        <ele>277</ele>
        <time>2017-03-15T10:26:33Z</time>
      </trkpt>
      <trkpt lat="45.9823" lon="4.8564">
        <ele>277</ele>
        <time>2017-03-15T10:26:34Z</time>
      </trkpt>
      <trkpt lat="45.98233" lon="4.85646">
        <ele>277</ele>
        <time>2017-03-15T10:26:35Z</time>
      </trkpt>
      <trkpt lat="45.98235" lon="4.85652">
        <ele>276</ele>
        <time>2017-03-15T10:26:36Z</time>
      </trkpt>
      <trkpt lat="45.98237" lon="4.85658">
        <ele>276</ele>
        <time>2017-03-15T10:26:37Z</time>
      </trkpt>
      <trkpt lat="45.98239" lon="4.85664">
        <ele>276</ele>
        <time>2017-03-15T10:26:38Z</time>
      </trkpt>
      <trkpt lat="45.98242" lon="4.8567">
        <ele>276</ele>
        <time>2017-03-15T10:26:39Z</time>
      </trkpt>
      <trkpt lat="45.98244" lon="4.85676">
        <ele>276</ele>
        <time>2017-03-15T10:26:40Z</time>
      </trkpt>
      <trkpt lat="45.98246" lon="4.85682">
        <ele>276</ele>
        <time>2017-03-15T10:26:41Z</time>
      </trkpt>
      <trkpt lat="45.98248" lon="4.85688">
        <ele>276</ele>
        <time>2017-03-15T10:26:42Z</time>
      </trkpt>
      <trkpt lat="45.98251" lon="4.85693">
        <ele>275</ele>
        <time>2017-03-15T10:26:43Z</time>
      </trkpt>
      <trkpt lat="45.98254" lon="4.85699">
        <ele>275</ele>
        <time>2017-03-15T10:26:44Z</time>
      </trkpt>
      <trkpt lat="45.98256" lon="4.85705">
        <ele>275</ele>
        <time>2017-03-15T10:26:45Z</time>
      </trkpt>
      <trkpt lat="45.98259" lon="4.85711">
        <ele>275</ele>
        <time>2017-03-15T10:26:46Z</time>
      </trkpt>
      <trkpt lat="45.98261" lon="4.85717">
        <ele>275</ele>
        <time>2017-03-15T10:26:47Z</time>
      </trkpt>
      <trkpt lat="45.98263" lon="4.85723">
        <ele>275</ele>
        <time>2017-03-15T10:26:48Z</time>
      </trkpt>
      <trkpt lat="45.98266" lon="4.85729">
        <ele>275</ele>
        <time>2017-03-15T10:26:49Z</time>
      </trkpt>
      <trkpt lat="45.98268" lon="4.85736">
        <ele>275</ele>
        <time>2017-03-15T10:26:50Z</time>
      </trkpt>
      <trkpt lat="45.98271" lon="4.85742">
        <ele>275</ele>
        <time>2017-03-15T10:26:51Z</time>
      </trkpt>
      <trkpt lat="45.98273" lon="4.85748">
        <ele>274</ele>
        <time>2017-03-15T10:26:52Z</time>
      </trkpt>
      <trkpt lat="45.98275" lon="4.85754">
        <ele>275</ele>
        <time>2017-03-15T10:26:53Z</time>
      </trkpt>
      <trkpt lat="45.98277" lon="4.8576">
        <ele>275</ele>
        <time>2017-03-15T10:26:54Z</time>
      </trkpt>
      <trkpt lat="45.9828" lon="4.85766">
        <ele>275</ele>
        <time>2017-03-15T10:26:55Z</time>
      </trkpt>
      <trkpt lat="45.98282" lon="4.85772">
        <ele>275</ele>
        <time>2017-03-15T10:26:56Z</time>
      </trkpt>
      <trkpt lat="45.98285" lon="4.85778">
        <ele>275</ele>
        <time>2017-03-15T10:26:57Z</time>
      </trkpt>
      <trkpt lat="45.98289" lon="4.85789">
        <ele>275</ele>
        <time>2017-03-15T10:26:59Z</time>
      </trkpt>
      <trkpt lat="45.98292" lon="4.85795">
        <ele>275</ele>
        <time>2017-03-15T10:27:00Z</time>
      </trkpt>
      <trkpt lat="45.98296" lon="4.85806">
        <ele>275</ele>
        <time>2017-03-15T10:27:02Z</time>
      </trkpt>
      <trkpt lat="45.98299" lon="4.85811">
        <ele>275</ele>
        <time>2017-03-15T10:27:03Z</time>
      </trkpt>
      <trkpt lat="45.98301" lon="4.85817">
        <ele>275</ele>
        <time>2017-03-15T10:27:04Z</time>
      </trkpt>
      <trkpt lat="45.98304" lon="4.85823">
        <ele>275</ele>
        <time>2017-03-15T10:27:05Z</time>
      </trkpt>
      <trkpt lat="45.98308" lon="4.85834">
        <ele>276</ele>
        <time>2017-03-15T10:27:07Z</time>
      </trkpt>
      <trkpt lat="45.9831" lon="4.85839">
        <ele>276</ele>
        <time>2017-03-15T10:27:08Z</time>
      </trkpt>
      <trkpt lat="45.98313" lon="4.85846">
        <ele>276</ele>
        <time>2017-03-15T10:27:09Z</time>
      </trkpt>
      <trkpt lat="45.98315" lon="4.85852">
        <ele>276</ele>
        <time>2017-03-15T10:27:10Z</time>
      </trkpt>
      <trkpt lat="45.98319" lon="4.85863">
        <ele>276</ele>
        <time>2017-03-15T10:27:12Z</time>
      </trkpt>
      <trkpt lat="45.98321" lon="4.85868">
        <ele>276</ele>
        <time>2017-03-15T10:27:13Z</time>
      </trkpt>
      <trkpt lat="45.98323" lon="4.85874">
        <ele>276</ele>
        <time>2017-03-15T10:27:14Z</time>
      </trkpt>
      <trkpt lat="45.98325" lon="4.8588">
        <ele>276</ele>
        <time>2017-03-15T10:27:15Z</time>
      </trkpt>
      <trkpt lat="45.98329" lon="4.85891">
        <ele>276</ele>
        <time>2017-03-15T10:27:17Z</time>
      </trkpt>
      <trkpt lat="45.98331" lon="4.85896">
        <ele>276</ele>
        <time>2017-03-15T10:27:18Z</time>
      </trkpt>
      <trkpt lat="45.98335" lon="4.85907">
        <ele>276</ele>
        <time>2017-03-15T10:27:20Z</time>
      </trkpt>
      <trkpt lat="45.98338" lon="4.85914">
        <ele>276</ele>
        <time>2017-03-15T10:27:21Z</time>
      </trkpt>
      <trkpt lat="45.9834" lon="4.8592">
        <ele>276</ele>
        <time>2017-03-15T10:27:22Z</time>
      </trkpt>
      <trkpt lat="45.98343" lon="4.85928">
        <ele>276</ele>
        <time>2017-03-15T10:27:23Z</time>
      </trkpt>
      <trkpt lat="45.98346" lon="4.85935">
        <ele>276</ele>
        <time>2017-03-15T10:27:24Z</time>
      </trkpt>
      <trkpt lat="45.98349" lon="4.85942">
        <ele>276</ele>
        <time>2017-03-15T10:27:25Z</time>
      </trkpt>
      <trkpt lat="45.98351" lon="4.85948">
        <ele>276</ele>
        <time>2017-03-15T10:27:26Z</time>
      </trkpt>
      <trkpt lat="45.98354" lon="4.85955">
        <ele>276</ele>
        <time>2017-03-15T10:27:27Z</time>
      </trkpt>
      <trkpt lat="45.98356" lon="4.85961">
        <ele>276</ele>
        <time>2017-03-15T10:27:28Z</time>
      </trkpt>
      <trkpt lat="45.98358" lon="4.85967">
        <ele>276</ele>
        <time>2017-03-15T10:27:29Z</time>
      </trkpt>
      <trkpt lat="45.98362" lon="4.85977">
        <ele>276</ele>
        <time>2017-03-15T10:27:31Z</time>
      </trkpt>
      <trkpt lat="45.98364" lon="4.85982">
        <ele>276</ele>
        <time>2017-03-15T10:27:32Z</time>
      </trkpt>
      <trkpt lat="45.98368" lon="4.85993">
        <ele>277</ele>
        <time>2017-03-15T10:27:34Z</time>
      </trkpt>
      <trkpt lat="45.9837" lon="4.85998">
        <ele>277</ele>
        <time>2017-03-15T10:27:35Z</time>
      </trkpt>
      <trkpt lat="45.98373" lon="4.86004">
        <ele>277</ele>
        <time>2017-03-15T10:27:36Z</time>
      </trkpt>
      <trkpt lat="45.98376" lon="4.8601">
        <ele>277</ele>
        <time>2017-03-15T10:27:37Z</time>
      </trkpt>
      <trkpt lat="45.98379" lon="4.86016">
        <ele>277</ele>
        <time>2017-03-15T10:27:38Z</time>
      </trkpt>
      <trkpt lat="45.98382" lon="4.86022">
        <ele>277</ele>
        <time>2017-03-15T10:27:39Z</time>
      </trkpt>
      <trkpt lat="45.98385" lon="4.86028">
        <ele>277</ele>
        <time>2017-03-15T10:27:40Z</time>
      </trkpt>
      <trkpt lat="45.98387" lon="4.86034">
        <ele>277</ele>
        <time>2017-03-15T10:27:41Z</time>
      </trkpt>
      <trkpt lat="45.98389" lon="4.86041">
        <ele>277</ele>
        <time>2017-03-15T10:27:42Z</time>
      </trkpt>
      <trkpt lat="45.98391" lon="4.86047">
        <ele>277</ele>
        <time>2017-03-15T10:27:43Z</time>
      </trkpt>
      <trkpt lat="45.98392" lon="4.86053">
        <ele>277</ele>
        <time>2017-03-15T10:27:44Z</time>
      </trkpt>
      <trkpt lat="45.98394" lon="4.8606">
        <ele>277</ele>
        <time>2017-03-15T10:27:45Z</time>
      </trkpt>
      <trkpt lat="45.98396" lon="4.86066">
        <ele>277</ele>
        <time>2017-03-15T10:27:46Z</time>
      </trkpt>
      <trkpt lat="45.98398" lon="4.86073">
        <ele>277</ele>
        <time>2017-03-15T10:27:47Z</time>
      </trkpt>
      <trkpt lat="45.984" lon="4.86081">
        <ele>277</ele>
        <time>2017-03-15T10:27:48Z</time>
      </trkpt>
      <trkpt lat="45.98401" lon="4.86088">
        <ele>277</ele>
        <time>2017-03-15T10:27:49Z</time>
      </trkpt>
      <trkpt lat="45.98402" lon="4.86095">
        <ele>277</ele>
        <time>2017-03-15T10:27:50Z</time>
      </trkpt>
      <trkpt lat="45.98403" lon="4.86101">
        <ele>277</ele>
        <time>2017-03-15T10:27:51Z</time>
      </trkpt>
      <trkpt lat="45.98404" lon="4.86107">
        <ele>277</ele>
        <time>2017-03-15T10:27:52Z</time>
      </trkpt>
      <trkpt lat="45.98406" lon="4.86115">
        <ele>277</ele>
        <time>2017-03-15T10:27:53Z</time>
      </trkpt>
      <trkpt lat="45.98406" lon="4.86121">
        <ele>277</ele>
        <time>2017-03-15T10:27:54Z</time>
      </trkpt>
      <trkpt lat="45.98407" lon="4.86128">
        <ele>276</ele>
        <time>2017-03-15T10:27:55Z</time>
      </trkpt>
      <trkpt lat="45.98409" lon="4.86139">
        <ele>276</ele>
        <time>2017-03-15T10:27:57Z</time>
      </trkpt>
      <trkpt lat="45.9841" lon="4.86145">
        <ele>276</ele>
        <time>2017-03-15T10:27:58Z</time>
      </trkpt>
      <trkpt lat="45.98411" lon="4.86157">
        <ele>276</ele>
        <time>2017-03-15T10:28:00Z</time>
      </trkpt>
      <trkpt lat="45.98412" lon="4.86163">
        <ele>276</ele>
        <time>2017-03-15T10:28:01Z</time>
      </trkpt>
      <trkpt lat="45.98414" lon="4.86174">
        <ele>276</ele>
        <time>2017-03-15T10:28:03Z</time>
      </trkpt>
      <trkpt lat="45.98415" lon="4.8618">
        <ele>276</ele>
        <time>2017-03-15T10:28:04Z</time>
      </trkpt>
      <trkpt lat="45.98416" lon="4.8619">
        <ele>276</ele>
        <time>2017-03-15T10:28:06Z</time>
      </trkpt>
      <trkpt lat="45.98417" lon="4.86195">
        <ele>275</ele>
        <time>2017-03-15T10:28:07Z</time>
      </trkpt>
      <trkpt lat="45.98419" lon="4.86207">
        <ele>275</ele>
        <time>2017-03-15T10:28:09Z</time>
      </trkpt>
      <trkpt lat="45.9842" lon="4.86213">
        <ele>275</ele>
        <time>2017-03-15T10:28:10Z</time>
      </trkpt>
      <trkpt lat="45.98421" lon="4.8622">
        <ele>275</ele>
        <time>2017-03-15T10:28:11Z</time>
      </trkpt>
      <trkpt lat="45.98423" lon="4.86227">
        <ele>275</ele>
        <time>2017-03-15T10:28:12Z</time>
      </trkpt>
      <trkpt lat="45.98424" lon="4.86234">
        <ele>275</ele>
        <time>2017-03-15T10:28:13Z</time>
      </trkpt>
      <trkpt lat="45.98425" lon="4.86242">
        <ele>275</ele>
        <time>2017-03-15T10:28:14Z</time>
      </trkpt>
      <trkpt lat="45.98427" lon="4.8625">
        <ele>275</ele>
        <time>2017-03-15T10:28:15Z</time>
      </trkpt>
      <trkpt lat="45.98428" lon="4.86259">
        <ele>275</ele>
        <time>2017-03-15T10:28:16Z</time>
      </trkpt>
      <trkpt lat="45.9843" lon="4.86269">
        <ele>275</ele>
        <time>2017-03-15T10:28:17Z</time>
      </trkpt>
      <trkpt lat="45.98432" lon="4.86278">
        <ele>276</ele>
        <time>2017-03-15T10:28:18Z</time>
      </trkpt>
      <trkpt lat="45.98433" lon="4.86287">
        <ele>276</ele>
        <time>2017-03-15T10:28:19Z</time>
      </trkpt>
      <trkpt lat="45.98435" lon="4.86297">
        <ele>276</ele>
        <time>2017-03-15T10:28:20Z</time>
      </trkpt>
      <trkpt lat="45.98437" lon="4.86306">
        <ele>276</ele>
        <time>2017-03-15T10:28:21Z</time>
      </trkpt>
      <trkpt lat="45.98439" lon="4.86316">
        <ele>276</ele>
        <time>2017-03-15T10:28:22Z</time>
      </trkpt>
      <trkpt lat="45.98441" lon="4.86325">
        <ele>276</ele>
        <time>2017-03-15T10:28:23Z</time>
      </trkpt>
      <trkpt lat="45.98443" lon="4.86336">
        <ele>277</ele>
        <time>2017-03-15T10:28:24Z</time>
      </trkpt>
      <trkpt lat="45.98446" lon="4.86346">
        <ele>277</ele>
        <time>2017-03-15T10:28:25Z</time>
      </trkpt>
      <trkpt lat="45.98448" lon="4.86355">
        <ele>277</ele>
        <time>2017-03-15T10:28:26Z</time>
      </trkpt>
      <trkpt lat="45.98451" lon="4.86364">
        <ele>277</ele>
        <time>2017-03-15T10:28:27Z</time>
      </trkpt>
      <trkpt lat="45.98453" lon="4.86372">
        <ele>277</ele>
        <time>2017-03-15T10:28:28Z</time>
      </trkpt>
      <trkpt lat="45.98456" lon="4.8638">
        <ele>277</ele>
        <time>2017-03-15T10:28:29Z</time>
      </trkpt>
      <trkpt lat="45.9846" lon="4.86387">
        <ele>277</ele>
        <time>2017-03-15T10:28:30Z</time>
      </trkpt>
      <trkpt lat="45.98463" lon="4.86395">
        <ele>277</ele>
        <time>2017-03-15T10:28:31Z</time>
      </trkpt>
      <trkpt lat="45.98467" lon="4.86402">
        <ele>277</ele>
        <time>2017-03-15T10:28:32Z</time>
      </trkpt>
      <trkpt lat="45.9847" lon="4.86409">
        <ele>277</ele>
        <time>2017-03-15T10:28:33Z</time>
      </trkpt>
      <trkpt lat="45.98473" lon="4.86416">
        <ele>277</ele>
        <time>2017-03-15T10:28:34Z</time>
      </trkpt>
      <trkpt lat="45.98476" lon="4.86422">
        <ele>278</ele>
        <time>2017-03-15T10:28:35Z</time>
      </trkpt>
      <trkpt lat="45.98479" lon="4.8643">
        <ele>278</ele>
        <time>2017-03-15T10:28:36Z</time>
      </trkpt>
      <trkpt lat="45.98482" lon="4.86437">
        <ele>278</ele>
        <time>2017-03-15T10:28:37Z</time>
      </trkpt>
      <trkpt lat="45.98485" lon="4.86444">
        <ele>278</ele>
        <time>2017-03-15T10:28:38Z</time>
      </trkpt>
      <trkpt lat="45.98488" lon="4.86451">
        <ele>278</ele>
        <time>2017-03-15T10:28:39Z</time>
      </trkpt>
      <trkpt lat="45.98491" lon="4.86458">
        <ele>278</ele>
        <time>2017-03-15T10:28:40Z</time>
      </trkpt>
      <trkpt lat="45.98494" lon="4.86466">
        <ele>278</ele>
        <time>2017-03-15T10:28:41Z</time>
      </trkpt>
      <trkpt lat="45.98498" lon="4.86473">
        <ele>279</ele>
        <time>2017-03-15T10:28:42Z</time>
      </trkpt>
      <trkpt lat="45.98501" lon="4.86479">
        <ele>278</ele>
        <time>2017-03-15T10:28:43Z</time>
      </trkpt>
      <trkpt lat="45.98504" lon="4.86486">
        <ele>279</ele>
        <time>2017-03-15T10:28:44Z</time>
      </trkpt>
      <trkpt lat="45.98507" lon="4.86493">
        <ele>279</ele>
        <time>2017-03-15T10:28:45Z</time>
      </trkpt>
      <trkpt lat="45.9851" lon="4.865">
        <ele>279</ele>
        <time>2017-03-15T10:28:46Z</time>
      </trkpt>
      <trkpt lat="45.98513" lon="4.86507">
        <ele>279</ele>
        <time>2017-03-15T10:28:47Z</time>
      </trkpt>
      <trkpt lat="45.98516" lon="4.86514">
        <ele>279</ele>
        <time>2017-03-15T10:28:48Z</time>
      </trkpt>
      <trkpt lat="45.9852" lon="4.86521">
        <ele>279</ele>
        <time>2017-03-15T10:28:49Z</time>
      </trkpt>
      <trkpt lat="45.98524" lon="4.86529">
        <ele>279</ele>
        <time>2017-03-15T10:28:50Z</time>
      </trkpt>
      <trkpt lat="45.98528" lon="4.86536">
        <ele>279</ele>
        <time>2017-03-15T10:28:51Z</time>
      </trkpt>
      <trkpt lat="45.98531" lon="4.86543">
        <ele>279</ele>
        <time>2017-03-15T10:28:52Z</time>
      </trkpt>
      <trkpt lat="45.98535" lon="4.8655">
        <ele>279</ele>
        <time>2017-03-15T10:28:53Z</time>
      </trkpt>
      <trkpt lat="45.98538" lon="4.86557">
        <ele>279</ele>
        <time>2017-03-15T10:28:54Z</time>
      </trkpt>
      <trkpt lat="45.98541" lon="4.86564">
        <ele>278</ele>
        <time>2017-03-15T10:28:55Z</time>
      </trkpt>
      <trkpt lat="45.98544" lon="4.86572">
        <ele>278</ele>
        <time>2017-03-15T10:28:56Z</time>
      </trkpt>
      <trkpt lat="45.98546" lon="4.86578">
        <ele>278</ele>
        <time>2017-03-15T10:28:57Z</time>
      </trkpt>
      <trkpt lat="45.98548" lon="4.86585">
        <ele>278</ele>
        <time>2017-03-15T10:28:58Z</time>
      </trkpt>
      <trkpt lat="45.98551" lon="4.86592">
        <ele>278</ele>
        <time>2017-03-15T10:28:59Z</time>
      </trkpt>
      <trkpt lat="45.98552" lon="4.86599">
        <ele>278</ele>
        <time>2017-03-15T10:29:00Z</time>
      </trkpt>
      <trkpt lat="45.98554" lon="4.86607">
        <ele>278</ele>
        <time>2017-03-15T10:29:01Z</time>
      </trkpt>
      <trkpt lat="45.98555" lon="4.86614">
        <ele>278</ele>
        <time>2017-03-15T10:29:02Z</time>
      </trkpt>
      <trkpt lat="45.98557" lon="4.86622">
        <ele>278</ele>
        <time>2017-03-15T10:29:03Z</time>
      </trkpt>
      <trkpt lat="45.98558" lon="4.86629">
        <ele>278</ele>
        <time>2017-03-15T10:29:04Z</time>
      </trkpt>
      <trkpt lat="45.98559" lon="4.86637">
        <ele>278</ele>
        <time>2017-03-15T10:29:05Z</time>
      </trkpt>
      <trkpt lat="45.9856" lon="4.86646">
        <ele>277</ele>
        <time>2017-03-15T10:29:06Z</time>
      </trkpt>
      <trkpt lat="45.98561" lon="4.86654">
        <ele>277</ele>
        <time>2017-03-15T10:29:07Z</time>
      </trkpt>
      <trkpt lat="45.98562" lon="4.86663">
        <ele>277</ele>
        <time>2017-03-15T10:29:08Z</time>
      </trkpt>
      <trkpt lat="45.98563" lon="4.86672">
        <ele>277</ele>
        <time>2017-03-15T10:29:09Z</time>
      </trkpt>
      <trkpt lat="45.98564" lon="4.86681">
        <ele>277</ele>
        <time>2017-03-15T10:29:10Z</time>
      </trkpt>
      <trkpt lat="45.98565" lon="4.86689">
        <ele>277</ele>
        <time>2017-03-15T10:29:11Z</time>
      </trkpt>
      <trkpt lat="45.98566" lon="4.86697">
        <ele>277</ele>
        <time>2017-03-15T10:29:12Z</time>
      </trkpt>
      <trkpt lat="45.98566" lon="4.86705">
        <ele>277</ele>
        <time>2017-03-15T10:29:13Z</time>
      </trkpt>
      <trkpt lat="45.98567" lon="4.86713">
        <ele>277</ele>
        <time>2017-03-15T10:29:14Z</time>
      </trkpt>
      <trkpt lat="45.98568" lon="4.86721">
        <ele>277</ele>
        <time>2017-03-15T10:29:15Z</time>
      </trkpt>
      <trkpt lat="45.98569" lon="4.86728">
        <ele>277</ele>
        <time>2017-03-15T10:29:16Z</time>
      </trkpt>
      <trkpt lat="45.98569" lon="4.86735">
        <ele>277</ele>
        <time>2017-03-15T10:29:17Z</time>
      </trkpt>
      <trkpt lat="45.9857" lon="4.86742">
        <ele>277</ele>
        <time>2017-03-15T10:29:18Z</time>
      </trkpt>
      <trkpt lat="45.98571" lon="4.8675">
        <ele>277</ele>
        <time>2017-03-15T10:29:19Z</time>
      </trkpt>
      <trkpt lat="45.98573" lon="4.86757">
        <ele>277</ele>
        <time>2017-03-15T10:29:20Z</time>
      </trkpt>
      <trkpt lat="45.98574" lon="4.86764">
        <ele>277</ele>
        <time>2017-03-15T10:29:21Z</time>
      </trkpt>
      <trkpt lat="45.98575" lon="4.86772">
        <ele>277</ele>
        <time>2017-03-15T10:29:22Z</time>
      </trkpt>
      <trkpt lat="45.98577" lon="4.86779">
        <ele>277</ele>
        <time>2017-03-15T10:29:23Z</time>
      </trkpt>
      <trkpt lat="45.98578" lon="4.86787">
        <ele>277</ele>
        <time>2017-03-15T10:29:24Z</time>
      </trkpt>
      <trkpt lat="45.9858" lon="4.86794">
        <ele>277</ele>
        <time>2017-03-15T10:29:25Z</time>
      </trkpt>
      <trkpt lat="45.98581" lon="4.86803">
        <ele>277</ele>
        <time>2017-03-15T10:29:26Z</time>
      </trkpt>
      <trkpt lat="45.98583" lon="4.86811">
        <ele>277</ele>
        <time>2017-03-15T10:29:27Z</time>
      </trkpt>
      <trkpt lat="45.98584" lon="4.86819">
        <ele>276</ele>
        <time>2017-03-15T10:29:28Z</time>
      </trkpt>
      <trkpt lat="45.98586" lon="4.86827">
        <ele>277</ele>
        <time>2017-03-15T10:29:29Z</time>
      </trkpt>
      <trkpt lat="45.98586" lon="4.86833">
        <ele>277</ele>
        <time>2017-03-15T10:29:30Z</time>
      </trkpt>
      <trkpt lat="45.98586" lon="4.86841">
        <ele>277</ele>
        <time>2017-03-15T10:29:31Z</time>
      </trkpt>
      <trkpt lat="45.98586" lon="4.86849">
        <ele>277</ele>
        <time>2017-03-15T10:29:32Z</time>
      </trkpt>
      <trkpt lat="45.98585" lon="4.86857">
        <ele>277</ele>
        <time>2017-03-15T10:29:33Z</time>
      </trkpt>
      <trkpt lat="45.98585" lon="4.86865">
        <ele>277</ele>
        <time>2017-03-15T10:29:34Z</time>
      </trkpt>
      <trkpt lat="45.98585" lon="4.86873">
        <ele>277</ele>
        <time>2017-03-15T10:29:35Z</time>
      </trkpt>
      <trkpt lat="45.98585" lon="4.86881">
        <ele>277</ele>
        <time>2017-03-15T10:29:36Z</time>
      </trkpt>
      <trkpt lat="45.98585" lon="4.86889">
        <ele>278</ele>
        <time>2017-03-15T10:29:37Z</time>
      </trkpt>
      <trkpt lat="45.98584" lon="4.86897">
        <ele>278</ele>
        <time>2017-03-15T10:29:38Z</time>
      </trkpt>
      <trkpt lat="45.98584" lon="4.86906">
        <ele>278</ele>
        <time>2017-03-15T10:29:39Z</time>
      </trkpt>
      <trkpt lat="45.98583" lon="4.86915">
        <ele>279</ele>
        <time>2017-03-15T10:29:40Z</time>
      </trkpt>
      <trkpt lat="45.98583" lon="4.86924">
        <ele>280</ele>
        <time>2017-03-15T10:29:41Z</time>
      </trkpt>
      <trkpt lat="45.98582" lon="4.86932">
        <ele>280</ele>
        <time>2017-03-15T10:29:42Z</time>
      </trkpt>
      <trkpt lat="45.98582" lon="4.86941">
        <ele>281</ele>
        <time>2017-03-15T10:29:43Z</time>
      </trkpt>
      <trkpt lat="45.98582" lon="4.86949">
        <ele>281</ele>
        <time>2017-03-15T10:29:44Z</time>
      </trkpt>
      <trkpt lat="45.98582" lon="4.86958">
        <ele>281</ele>
        <time>2017-03-15T10:29:45Z</time>
      </trkpt>
      <trkpt lat="45.98583" lon="4.86966">
        <ele>281</ele>
        <time>2017-03-15T10:29:46Z</time>
      </trkpt>
      <trkpt lat="45.98583" lon="4.86975">
        <ele>281</ele>
        <time>2017-03-15T10:29:47Z</time>
      </trkpt>
      <trkpt lat="45.98584" lon="4.86983">
        <ele>279</ele>
        <time>2017-03-15T10:29:48Z</time>
      </trkpt>
      <trkpt lat="45.98585" lon="4.86991">
        <ele>279</ele>
        <time>2017-03-15T10:29:49Z</time>
      </trkpt>
      <trkpt lat="45.98587" lon="4.87">
        <ele>280</ele>
        <time>2017-03-15T10:29:50Z</time>
      </trkpt>
      <trkpt lat="45.98588" lon="4.87009">
        <ele>279</ele>
        <time>2017-03-15T10:29:51Z</time>
      </trkpt>
      <trkpt lat="45.9859" lon="4.87018">
        <ele>279</ele>
        <time>2017-03-15T10:29:52Z</time>
      </trkpt>
      <trkpt lat="45.98591" lon="4.87026">
        <ele>279</ele>
        <time>2017-03-15T10:29:53Z</time>
      </trkpt>
      <trkpt lat="45.98593" lon="4.87035">
        <ele>279</ele>
        <time>2017-03-15T10:29:54Z</time>
      </trkpt>
      <trkpt lat="45.98595" lon="4.87044">
        <ele>279</ele>
        <time>2017-03-15T10:29:55Z</time>
      </trkpt>
      <trkpt lat="45.98597" lon="4.87053">
        <ele>279</ele>
        <time>2017-03-15T10:29:56Z</time>
      </trkpt>
      <trkpt lat="45.986" lon="4.87062">
        <ele>279</ele>
        <time>2017-03-15T10:29:57Z</time>
      </trkpt>
      <trkpt lat="45.98601" lon="4.8707">
        <ele>279</ele>
        <time>2017-03-15T10:29:58Z</time>
      </trkpt>
      <trkpt lat="45.98603" lon="4.87079">
        <ele>279</ele>
        <time>2017-03-15T10:29:59Z</time>
      </trkpt>
      <trkpt lat="45.98604" lon="4.87088">
        <ele>279</ele>
        <time>2017-03-15T10:30:00Z</time>
      </trkpt>
      <trkpt lat="45.98605" lon="4.87098">
        <ele>279</ele>
        <time>2017-03-15T10:30:01Z</time>
      </trkpt>
      <trkpt lat="45.98606" lon="4.87107">
        <ele>279</ele>
        <time>2017-03-15T10:30:02Z</time>
      </trkpt>
      <trkpt lat="45.98607" lon="4.87116">
        <ele>279</ele>
        <time>2017-03-15T10:30:03Z</time>
      </trkpt>
      <trkpt lat="45.98608" lon="4.87126">
        <ele>279</ele>
        <time>2017-03-15T10:30:04Z</time>
      </trkpt>
      <trkpt lat="45.98608" lon="4.87136">
        <ele>278</ele>
        <time>2017-03-15T10:30:05Z</time>
      </trkpt>
      <trkpt lat="45.98608" lon="4.87145">
        <ele>278</ele>
        <time>2017-03-15T10:30:06Z</time>
      </trkpt>
      <trkpt lat="45.98607" lon="4.87154">
        <ele>278</ele>
        <time>2017-03-15T10:30:07Z</time>
      </trkpt>
      <trkpt lat="45.98606" lon="4.87162">
        <ele>278</ele>
        <time>2017-03-15T10:30:08Z</time>
      </trkpt>
      <trkpt lat="45.98605" lon="4.87171">
        <ele>277</ele>
        <time>2017-03-15T10:30:09Z</time>
      </trkpt>
      <trkpt lat="45.98605" lon="4.8718">
        <ele>277</ele>
        <time>2017-03-15T10:30:10Z</time>
      </trkpt>
      <trkpt lat="45.98603" lon="4.87189">
        <ele>277</ele>
        <time>2017-03-15T10:30:11Z</time>
      </trkpt>
      <trkpt lat="45.98602" lon="4.87197">
        <ele>277</ele>
        <time>2017-03-15T10:30:12Z</time>
      </trkpt>
      <trkpt lat="45.986" lon="4.87205">
        <ele>277</ele>
        <time>2017-03-15T10:30:13Z</time>
      </trkpt>
      <trkpt lat="45.98599" lon="4.87214">
        <ele>277</ele>
        <time>2017-03-15T10:30:14Z</time>
      </trkpt>
      <trkpt lat="45.98598" lon="4.87223">
        <ele>277</ele>
        <time>2017-03-15T10:30:15Z</time>
      </trkpt>
      <trkpt lat="45.98597" lon="4.87233">
        <ele>277</ele>
        <time>2017-03-15T10:30:16Z</time>
      </trkpt>
      <trkpt lat="45.98596" lon="4.87242">
        <ele>277</ele>
        <time>2017-03-15T10:30:17Z</time>
      </trkpt>
      <trkpt lat="45.98595" lon="4.87252">
        <ele>276</ele>
        <time>2017-03-15T10:30:18Z</time>
      </trkpt>
      <trkpt lat="45.98593" lon="4.87262">
        <ele>275</ele>
        <time>2017-03-15T10:30:19Z</time>
      </trkpt>
      <trkpt lat="45.98591" lon="4.87271">
        <ele>275</ele>
        <time>2017-03-15T10:30:20Z</time>
      </trkpt>
      <trkpt lat="45.98591" lon="4.87282">
        <ele>275</ele>
        <time>2017-03-15T10:30:21Z</time>
      </trkpt>
      <trkpt lat="45.98592" lon="4.87292">
        <ele>275</ele>
        <time>2017-03-15T10:30:22Z</time>
      </trkpt>
      <trkpt lat="45.98592" lon="4.87303">
        <ele>274</ele>
        <time>2017-03-15T10:30:23Z</time>
      </trkpt>
      <trkpt lat="45.98594" lon="4.87313">
        <ele>274</ele>
        <time>2017-03-15T10:30:24Z</time>
      </trkpt>
      <trkpt lat="45.98596" lon="4.87323">
        <ele>274</ele>
        <time>2017-03-15T10:30:25Z</time>
      </trkpt>
      <trkpt lat="45.98598" lon="4.87332">
        <ele>274</ele>
        <time>2017-03-15T10:30:26Z</time>
      </trkpt>
      <trkpt lat="45.98601" lon="4.87343">
        <ele>272</ele>
        <time>2017-03-15T10:30:27Z</time>
      </trkpt>
      <trkpt lat="45.98603" lon="4.87353">
        <ele>272</ele>
        <time>2017-03-15T10:30:28Z</time>
      </trkpt>
      <trkpt lat="45.98606" lon="4.87364">
        <ele>272</ele>
        <time>2017-03-15T10:30:29Z</time>
      </trkpt>
      <trkpt lat="45.98609" lon="4.87375">
        <ele>271</ele>
        <time>2017-03-15T10:30:30Z</time>
      </trkpt>
      <trkpt lat="45.98611" lon="4.87384">
        <ele>271</ele>
        <time>2017-03-15T10:30:31Z</time>
      </trkpt>
      <trkpt lat="45.98613" lon="4.87394">
        <ele>271</ele>
        <time>2017-03-15T10:30:32Z</time>
      </trkpt>
      <trkpt lat="45.98615" lon="4.87404">
        <ele>271</ele>
        <time>2017-03-15T10:30:33Z</time>
      </trkpt>
      <trkpt lat="45.98617" lon="4.87414">
        <ele>271</ele>
        <time>2017-03-15T10:30:34Z</time>
      </trkpt>
      <trkpt lat="45.9862" lon="4.87424">
        <ele>269</ele>
        <time>2017-03-15T10:30:35Z</time>
      </trkpt>
      <trkpt lat="45.98622" lon="4.87434">
        <ele>269</ele>
        <time>2017-03-15T10:30:36Z</time>
      </trkpt>
      <trkpt lat="45.98623" lon="4.87444">
        <ele>269</ele>
        <time>2017-03-15T10:30:37Z</time>
      </trkpt>
      <trkpt lat="45.98625" lon="4.87454">
        <ele>268</ele>
        <time>2017-03-15T10:30:38Z</time>
      </trkpt>
      <trkpt lat="45.98627" lon="4.87465">
        <ele>268</ele>
        <time>2017-03-15T10:30:39Z</time>
      </trkpt>
      <trkpt lat="45.98628" lon="4.87475">
        <ele>268</ele>
        <time>2017-03-15T10:30:40Z</time>
      </trkpt>
      <trkpt lat="45.9863" lon="4.87486">
        <ele>268</ele>
        <time>2017-03-15T10:30:41Z</time>
      </trkpt>
      <trkpt lat="45.98631" lon="4.87496">
        <ele>268</ele>
        <time>2017-03-15T10:30:42Z</time>
      </trkpt>
      <trkpt lat="45.98633" lon="4.87507">
        <ele>267</ele>
        <time>2017-03-15T10:30:43Z</time>
      </trkpt>
      <trkpt lat="45.98634" lon="4.87517">
        <ele>267</ele>
        <time>2017-03-15T10:30:44Z</time>
      </trkpt>
      <trkpt lat="45.98636" lon="4.87527">
        <ele>267</ele>
        <time>2017-03-15T10:30:45Z</time>
      </trkpt>
      <trkpt lat="45.98639" lon="4.87537">
        <ele>267</ele>
        <time>2017-03-15T10:30:46Z</time>
      </trkpt>
      <trkpt lat="45.98641" lon="4.87547">
        <ele>267</ele>
        <time>2017-03-15T10:30:47Z</time>
      </trkpt>
      <trkpt lat="45.98646" lon="4.87555">
        <ele>267</ele>
        <time>2017-03-15T10:30:48Z</time>
      </trkpt>
      <trkpt lat="45.98651" lon="4.87562">
        <ele>267</ele>
        <time>2017-03-15T10:30:49Z</time>
      </trkpt>
      <trkpt lat="45.98657" lon="4.87566">
        <ele>267</ele>
        <time>2017-03-15T10:30:50Z</time>
      </trkpt>
      <trkpt lat="45.98664" lon="4.87568">
        <ele>267</ele>
        <time>2017-03-15T10:30:51Z</time>
      </trkpt>
      <trkpt lat="45.98669" lon="4.87567">
        <ele>267</ele>
        <time>2017-03-15T10:30:52Z</time>
      </trkpt>
      <trkpt lat="45.98676" lon="4.87567">
        <ele>267</ele>
        <time>2017-03-15T10:30:53Z</time>
      </trkpt>
      <trkpt lat="45.98681" lon="4.87567">
        <ele>267</ele>
        <time>2017-03-15T10:30:54Z</time>
      </trkpt>
      <trkpt lat="45.98686" lon="4.87566">
        <ele>267</ele>
        <time>2017-03-15T10:30:55Z</time>
      </trkpt>
      <trkpt lat="45.98691" lon="4.87565">
        <ele>267</ele>
        <time>2017-03-15T10:30:56Z</time>
      </trkpt>
      <trkpt lat="45.98696" lon="4.87563">
        <ele>267</ele>
        <time>2017-03-15T10:30:57Z</time>
      </trkpt>
      <trkpt lat="45.98701" lon="4.87562">
        <ele>267</ele>
        <time>2017-03-15T10:30:58Z</time>
      </trkpt>
      <trkpt lat="45.98706" lon="4.87563">
        <ele>267</ele>
        <time>2017-03-15T10:30:59Z</time>
      </trkpt>
      <trkpt lat="45.98711" lon="4.87564">
        <ele>267</ele>
        <time>2017-03-15T10:31:00Z</time>
      </trkpt>
      <trkpt lat="45.98717" lon="4.87562">
        <ele>267</ele>
        <time>2017-03-15T10:31:01Z</time>
      </trkpt>
      <trkpt lat="45.98721" lon="4.87562">
        <ele>267</ele>
        <time>2017-03-15T10:31:02Z</time>
      </trkpt>
      <trkpt lat="45.98726" lon="4.87562">
        <ele>267</ele>
        <time>2017-03-15T10:31:03Z</time>
      </trkpt>
      <trkpt lat="45.98731" lon="4.87564">
        <ele>267</ele>
        <time>2017-03-15T10:31:04Z</time>
      </trkpt>
      <trkpt lat="45.98736" lon="4.87566">
        <ele>267</ele>
        <time>2017-03-15T10:31:05Z</time>
      </trkpt>
      <trkpt lat="45.98741" lon="4.87569">
        <ele>267</ele>
        <time>2017-03-15T10:31:06Z</time>
      </trkpt>
      <trkpt lat="45.98746" lon="4.87572">
        <ele>267</ele>
        <time>2017-03-15T10:31:07Z</time>
      </trkpt>
      <trkpt lat="45.98751" lon="4.87575">
        <ele>268</ele>
        <time>2017-03-15T10:31:08Z</time>
      </trkpt>
      <trkpt lat="45.98756" lon="4.87579">
        <ele>268</ele>
        <time>2017-03-15T10:31:09Z</time>
      </trkpt>
      <trkpt lat="45.98761" lon="4.87583">
        <ele>268</ele>
        <time>2017-03-15T10:31:10Z</time>
      </trkpt>
      <trkpt lat="45.98766" lon="4.87587">
        <ele>270</ele>
        <time>2017-03-15T10:31:11Z</time>
      </trkpt>
      <trkpt lat="45.98771" lon="4.87591">
        <ele>270</ele>
        <time>2017-03-15T10:31:12Z</time>
      </trkpt>
      <trkpt lat="45.98775" lon="4.87595">
        <ele>270</ele>
        <time>2017-03-15T10:31:13Z</time>
      </trkpt>
      <trkpt lat="45.98778" lon="4.876">
        <ele>271</ele>
        <time>2017-03-15T10:31:14Z</time>
      </trkpt>
      <trkpt lat="45.98782" lon="4.87604">
        <ele>271</ele>
        <time>2017-03-15T10:31:15Z</time>
      </trkpt>
      <trkpt lat="45.98786" lon="4.87608">
        <ele>271</ele>
        <time>2017-03-15T10:31:16Z</time>
      </trkpt>
      <trkpt lat="45.98793" lon="4.87616">
        <ele>271</ele>
        <time>2017-03-15T10:31:18Z</time>
      </trkpt>
      <trkpt lat="45.98796" lon="4.8762">
        <ele>271</ele>
        <time>2017-03-15T10:31:19Z</time>
      </trkpt>
      <trkpt lat="45.98799" lon="4.87626">
        <ele>271</ele>
        <time>2017-03-15T10:31:20Z</time>
      </trkpt>
      <trkpt lat="45.98802" lon="4.87631">
        <ele>271</ele>
        <time>2017-03-15T10:31:21Z</time>
      </trkpt>
      <trkpt lat="45.98806" lon="4.87642">
        <ele>272</ele>
        <time>2017-03-15T10:31:23Z</time>
      </trkpt>
      <trkpt lat="45.98807" lon="4.87648">
        <ele>272</ele>
        <time>2017-03-15T10:31:24Z</time>
      </trkpt>
      <trkpt lat="45.98809" lon="4.87653">
        <ele>272</ele>
        <time>2017-03-15T10:31:25Z</time>
      </trkpt>
      <trkpt lat="45.98811" lon="4.87659">
        <ele>272</ele>
        <time>2017-03-15T10:31:26Z</time>
      </trkpt>
      <trkpt lat="45.98813" lon="4.87666">
        <ele>272</ele>
        <time>2017-03-15T10:31:27Z</time>
      </trkpt>
      <trkpt lat="45.98814" lon="4.87672">
        <ele>273</ele>
        <time>2017-03-15T10:31:28Z</time>
      </trkpt>
      <trkpt lat="45.98817" lon="4.87678">
        <ele>273</ele>
        <time>2017-03-15T10:31:29Z</time>
      </trkpt>
      <trkpt lat="45.98821" lon="4.87684">
        <ele>273</ele>
        <time>2017-03-15T10:31:30Z</time>
      </trkpt>
      <trkpt lat="45.98824" lon="4.8769">
        <ele>273</ele>
        <time>2017-03-15T10:31:31Z</time>
      </trkpt>
      <trkpt lat="45.98827" lon="4.87696">
        <ele>273</ele>
        <time>2017-03-15T10:31:32Z</time>
      </trkpt>
      <trkpt lat="45.98828" lon="4.87702">
        <ele>273</ele>
        <time>2017-03-15T10:31:33Z</time>
      </trkpt>
      <trkpt lat="45.9883" lon="4.87709">
        <ele>273</ele>
        <time>2017-03-15T10:31:34Z</time>
      </trkpt>
      <trkpt lat="45.98831" lon="4.87715">
        <ele>274</ele>
        <time>2017-03-15T10:31:35Z</time>
      </trkpt>
      <trkpt lat="45.98833" lon="4.87722">
        <ele>274</ele>
        <time>2017-03-15T10:31:36Z</time>
      </trkpt>
      <trkpt lat="45.98835" lon="4.87734">
        <ele>273</ele>
        <time>2017-03-15T10:31:38Z</time>
      </trkpt>
      <trkpt lat="45.98836" lon="4.8774">
        <ele>273</ele>
        <time>2017-03-15T10:31:39Z</time>
      </trkpt>
      <trkpt lat="45.98838" lon="4.87746">
        <ele>273</ele>
        <time>2017-03-15T10:31:40Z</time>
      </trkpt>
      <trkpt lat="45.98839" lon="4.87752">
        <ele>273</ele>
        <time>2017-03-15T10:31:41Z</time>
      </trkpt>
      <trkpt lat="45.98841" lon="4.87759">
        <ele>273</ele>
        <time>2017-03-15T10:31:42Z</time>
      </trkpt>
      <trkpt lat="45.98842" lon="4.87765">
        <ele>273</ele>
        <time>2017-03-15T10:31:43Z</time>
      </trkpt>
      <trkpt lat="45.98844" lon="4.87771">
        <ele>273</ele>
        <time>2017-03-15T10:31:44Z</time>
      </trkpt>
      <trkpt lat="45.98846" lon="4.87778">
        <ele>273</ele>
        <time>2017-03-15T10:31:45Z</time>
      </trkpt>
      <trkpt lat="45.98847" lon="4.87784">
        <ele>273</ele>
        <time>2017-03-15T10:31:46Z</time>
      </trkpt>
      <trkpt lat="45.98849" lon="4.8779">
        <ele>273</ele>
        <time>2017-03-15T10:31:47Z</time>
      </trkpt>
      <trkpt lat="45.98852" lon="4.87801">
        <ele>273</ele>
        <time>2017-03-15T10:31:49Z</time>
      </trkpt>
      <trkpt lat="45.98854" lon="4.87807">
        <ele>273</ele>
        <time>2017-03-15T10:31:50Z</time>
      </trkpt>
      <trkpt lat="45.98858" lon="4.87818">
        <ele>273</ele>
        <time>2017-03-15T10:31:52Z</time>
      </trkpt>
      <trkpt lat="45.9886" lon="4.87824">
        <ele>273</ele>
        <time>2017-03-15T10:31:53Z</time>
      </trkpt>
      <trkpt lat="45.98862" lon="4.8783">
        <ele>273</ele>
        <time>2017-03-15T10:31:54Z</time>
      </trkpt>
      <trkpt lat="45.98865" lon="4.87835">
        <ele>273</ele>
        <time>2017-03-15T10:31:55Z</time>
      </trkpt>
      <trkpt lat="45.98868" lon="4.87841">
        <ele>273</ele>
        <time>2017-03-15T10:31:56Z</time>
      </trkpt>
      <trkpt lat="45.98871" lon="4.87847">
        <ele>273</ele>
        <time>2017-03-15T10:31:57Z</time>
      </trkpt>
      <trkpt lat="45.98874" lon="4.87853">
        <ele>273</ele>
        <time>2017-03-15T10:31:58Z</time>
      </trkpt>
      <trkpt lat="45.98877" lon="4.87858">
        <ele>272</ele>
        <time>2017-03-15T10:31:59Z</time>
      </trkpt>
      <trkpt lat="45.9888" lon="4.87863">
        <ele>272</ele>
        <time>2017-03-15T10:32:00Z</time>
      </trkpt>
      <trkpt lat="45.98883" lon="4.8787">
        <ele>272</ele>
        <time>2017-03-15T10:32:01Z</time>
      </trkpt>
      <trkpt lat="45.98889" lon="4.87879">
        <ele>272</ele>
        <time>2017-03-15T10:32:03Z</time>
      </trkpt>
      <trkpt lat="45.98893" lon="4.87884">
        <ele>272</ele>
        <time>2017-03-15T10:32:04Z</time>
      </trkpt>
      <trkpt lat="45.98896" lon="4.87889">
        <ele>272</ele>
        <time>2017-03-15T10:32:05Z</time>
      </trkpt>
      <trkpt lat="45.989" lon="4.87893">
        <ele>272</ele>
        <time>2017-03-15T10:32:06Z</time>
      </trkpt>
      <trkpt lat="45.98907" lon="4.87901">
        <ele>272</ele>
        <time>2017-03-15T10:32:08Z</time>
      </trkpt>
      <trkpt lat="45.9891" lon="4.87905">
        <ele>272</ele>
        <time>2017-03-15T10:32:09Z</time>
      </trkpt>
      <trkpt lat="45.98916" lon="4.87911">
        <ele>271</ele>
        <time>2017-03-15T10:32:11Z</time>
      </trkpt>
      <trkpt lat="45.98919" lon="4.87913">
        <ele>272</ele>
        <time>2017-03-15T10:32:12Z</time>
      </trkpt>
      <trkpt lat="45.98926" lon="4.87919">
        <ele>272</ele>
        <time>2017-03-15T10:32:14Z</time>
      </trkpt>
      <trkpt lat="45.98929" lon="4.87922">
        <ele>272</ele>
        <time>2017-03-15T10:32:15Z</time>
      </trkpt>
      <trkpt lat="45.98936" lon="4.87926">
        <ele>272</ele>
        <time>2017-03-15T10:32:17Z</time>
      </trkpt>
      <trkpt lat="45.98938" lon="4.87928">
        <ele>273</ele>
        <time>2017-03-15T10:32:18Z</time>
      </trkpt>
      <trkpt lat="45.98945" lon="4.87933">
        <ele>273</ele>
        <time>2017-03-15T10:32:20Z</time>
      </trkpt>
      <trkpt lat="45.98948" lon="4.87936">
        <ele>273</ele>
        <time>2017-03-15T10:32:21Z</time>
      </trkpt>
      <trkpt lat="45.98955" lon="4.87939">
        <ele>273</ele>
        <time>2017-03-15T10:32:23Z</time>
      </trkpt>
      <trkpt lat="45.98959" lon="4.87942">
        <ele>273</ele>
        <time>2017-03-15T10:32:24Z</time>
      </trkpt>
      <trkpt lat="45.98967" lon="4.87947">
        <ele>274</ele>
        <time>2017-03-15T10:32:26Z</time>
      </trkpt>
      <trkpt lat="45.9897" lon="4.87949">
        <ele>274</ele>
        <time>2017-03-15T10:32:27Z</time>
      </trkpt>
      <trkpt lat="45.98977" lon="4.87954">
        <ele>274</ele>
        <time>2017-03-15T10:32:29Z</time>
      </trkpt>
      <trkpt lat="45.9898" lon="4.87956">
        <ele>274</ele>
        <time>2017-03-15T10:32:30Z</time>
      </trkpt>
      <trkpt lat="45.98983" lon="4.87958">
        <ele>274</ele>
        <time>2017-03-15T10:32:31Z</time>
      </trkpt>
      <trkpt lat="45.98988" lon="4.87961">
        <ele>274</ele>
        <time>2017-03-15T10:32:32Z</time>
      </trkpt>
      <trkpt lat="45.98993" lon="4.87964">
        <ele>274</ele>
        <time>2017-03-15T10:32:33Z</time>
      </trkpt>
      <trkpt lat="45.98997" lon="4.87966">
        <ele>274</ele>
        <time>2017-03-15T10:32:34Z</time>
      </trkpt>
      <trkpt lat="45.99004" lon="4.87969">
        <ele>276</ele>
        <time>2017-03-15T10:32:36Z</time>
      </trkpt>
      <trkpt lat="45.99007" lon="4.8797">
        <ele>276</ele>
        <time>2017-03-15T10:32:37Z</time>
      </trkpt>
      <trkpt lat="45.99014" lon="4.87974">
        <ele>276</ele>
        <time>2017-03-15T10:32:39Z</time>
      </trkpt>
      <trkpt lat="45.99018" lon="4.87975">
        <ele>276</ele>
        <time>2017-03-15T10:32:40Z</time>
      </trkpt>
      <trkpt lat="45.99024" lon="4.87978">
        <ele>276</ele>
        <time>2017-03-15T10:32:42Z</time>
      </trkpt>
      <trkpt lat="45.99028" lon="4.8798">
        <ele>276</ele>
        <time>2017-03-15T10:32:43Z</time>
      </trkpt>
      <trkpt lat="45.99036" lon="4.87985">
        <ele>276</ele>
        <time>2017-03-15T10:32:45Z</time>
      </trkpt>
      <trkpt lat="45.9904" lon="4.87988">
        <ele>276</ele>
        <time>2017-03-15T10:32:46Z</time>
      </trkpt>
      <trkpt lat="45.99047" lon="4.87993">
        <ele>277</ele>
        <time>2017-03-15T10:32:48Z</time>
      </trkpt>
      <trkpt lat="45.99051" lon="4.87996">
        <ele>277</ele>
        <time>2017-03-15T10:32:49Z</time>
      </trkpt>
      <trkpt lat="45.99058" lon="4.88002">
        <ele>277</ele>
        <time>2017-03-15T10:32:51Z</time>
      </trkpt>
      <trkpt lat="45.99061" lon="4.88005">
        <ele>277</ele>
        <time>2017-03-15T10:32:52Z</time>
      </trkpt>
      <trkpt lat="45.99068" lon="4.88009">
        <ele>277</ele>
        <time>2017-03-15T10:32:54Z</time>
      </trkpt>
      <trkpt lat="45.99072" lon="4.88012">
        <ele>277</ele>
        <time>2017-03-15T10:32:55Z</time>
      </trkpt>
      <trkpt lat="45.99079" lon="4.88015">
        <ele>277</ele>
        <time>2017-03-15T10:32:57Z</time>
      </trkpt>
      <trkpt lat="45.99083" lon="4.88016">
        <ele>277</ele>
        <time>2017-03-15T10:32:58Z</time>
      </trkpt>
      <trkpt lat="45.99091" lon="4.88019">
        <ele>278</ele>
        <time>2017-03-15T10:33:00Z</time>
      </trkpt>
      <trkpt lat="45.99095" lon="4.88021">
        <ele>278</ele>
        <time>2017-03-15T10:33:01Z</time>
      </trkpt>
      <trkpt lat="45.99103" lon="4.88024">
        <ele>278</ele>
        <time>2017-03-15T10:33:03Z</time>
      </trkpt>
      <trkpt lat="45.99107" lon="4.88026">
        <ele>278</ele>
        <time>2017-03-15T10:33:04Z</time>
      </trkpt>
      <trkpt lat="45.99115" lon="4.8803">
        <ele>278</ele>
        <time>2017-03-15T10:33:06Z</time>
      </trkpt>
      <trkpt lat="45.99119" lon="4.88031">
        <ele>278</ele>
        <time>2017-03-15T10:33:07Z</time>
      </trkpt>
      <trkpt lat="45.99127" lon="4.88035">
        <ele>279</ele>
        <time>2017-03-15T10:33:09Z</time>
      </trkpt>
      <trkpt lat="45.9913" lon="4.88037">
        <ele>279</ele>
        <time>2017-03-15T10:33:10Z</time>
      </trkpt>
      <trkpt lat="45.99137" lon="4.8804">
        <ele>279</ele>
        <time>2017-03-15T10:33:12Z</time>
      </trkpt>
      <trkpt lat="45.99141" lon="4.88042">
        <ele>279</ele>
        <time>2017-03-15T10:33:13Z</time>
      </trkpt>
      <trkpt lat="45.99147" lon="4.88045">
        <ele>279</ele>
        <time>2017-03-15T10:33:15Z</time>
      </trkpt>
      <trkpt lat="45.99151" lon="4.88047">
        <ele>279</ele>
        <time>2017-03-15T10:33:16Z</time>
      </trkpt>
      <trkpt lat="45.99157" lon="4.88051">
        <ele>279</ele>
        <time>2017-03-15T10:33:18Z</time>
      </trkpt>
      <trkpt lat="45.9916" lon="4.88054">
        <ele>279</ele>
        <time>2017-03-15T10:33:19Z</time>
      </trkpt>
      <trkpt lat="45.99166" lon="4.88058">
        <ele>279</ele>
        <time>2017-03-15T10:33:21Z</time>
      </trkpt>
      <trkpt lat="45.99169" lon="4.88061">
        <ele>279</ele>
        <time>2017-03-15T10:33:22Z</time>
      </trkpt>
      <trkpt lat="45.99175" lon="4.88067">
        <ele>279</ele>
        <time>2017-03-15T10:33:24Z</time>
      </trkpt>
      <trkpt lat="45.99178" lon="4.8807">
        <ele>279</ele>
        <time>2017-03-15T10:33:25Z</time>
      </trkpt>
      <trkpt lat="45.99184" lon="4.88075">
        <ele>279</ele>
        <time>2017-03-15T10:33:27Z</time>
      </trkpt>
      <trkpt lat="45.99188" lon="4.88078">
        <ele>279</ele>
        <time>2017-03-15T10:33:28Z</time>
      </trkpt>
      <trkpt lat="45.99194" lon="4.88084">
        <ele>280</ele>
        <time>2017-03-15T10:33:30Z</time>
      </trkpt>
      <trkpt lat="45.99198" lon="4.88087">
        <ele>280</ele>
        <time>2017-03-15T10:33:31Z</time>
      </trkpt>
      <trkpt lat="45.99205" lon="4.88093">
        <ele>280</ele>
        <time>2017-03-15T10:33:33Z</time>
      </trkpt>
      <trkpt lat="45.99208" lon="4.88095">
        <ele>280</ele>
        <time>2017-03-15T10:33:34Z</time>
      </trkpt>
      <trkpt lat="45.99214" lon="4.88101">
        <ele>280</ele>
        <time>2017-03-15T10:33:36Z</time>
      </trkpt>
      <trkpt lat="45.99217" lon="4.88104">
        <ele>280</ele>
        <time>2017-03-15T10:33:37Z</time>
      </trkpt>
      <trkpt lat="45.99224" lon="4.88109">
        <ele>280</ele>
        <time>2017-03-15T10:33:39Z</time>
      </trkpt>
      <trkpt lat="45.99227" lon="4.88112">
        <ele>280</ele>
        <time>2017-03-15T10:33:40Z</time>
      </trkpt>
      <trkpt lat="45.99233" lon="4.88118">
        <ele>280</ele>
        <time>2017-03-15T10:33:42Z</time>
      </trkpt>
      <trkpt lat="45.99237" lon="4.88121">
        <ele>280</ele>
        <time>2017-03-15T10:33:43Z</time>
      </trkpt>
      <trkpt lat="45.99243" lon="4.88127">
        <ele>280</ele>
        <time>2017-03-15T10:33:45Z</time>
      </trkpt>
      <trkpt lat="45.99247" lon="4.8813">
        <ele>280</ele>
        <time>2017-03-15T10:33:46Z</time>
      </trkpt>
      <trkpt lat="45.99253" lon="4.88136">
        <ele>283</ele>
        <time>2017-03-15T10:33:48Z</time>
      </trkpt>
      <trkpt lat="45.99256" lon="4.88139">
        <ele>283</ele>
        <time>2017-03-15T10:33:49Z</time>
      </trkpt>
      <trkpt lat="45.99264" lon="4.88145">
        <ele>283</ele>
        <time>2017-03-15T10:33:51Z</time>
      </trkpt>
      <trkpt lat="45.99267" lon="4.88148">
        <ele>283</ele>
        <time>2017-03-15T10:33:52Z</time>
      </trkpt>
      <trkpt lat="45.99274" lon="4.88155">
        <ele>283</ele>
        <time>2017-03-15T10:33:54Z</time>
      </trkpt>
      <trkpt lat="45.99278" lon="4.88158">
        <ele>283</ele>
        <time>2017-03-15T10:33:55Z</time>
      </trkpt>
      <trkpt lat="45.99285" lon="4.88165">
        <ele>284</ele>
        <time>2017-03-15T10:33:57Z</time>
      </trkpt>
      <trkpt lat="45.99289" lon="4.88169">
        <ele>284</ele>
        <time>2017-03-15T10:33:58Z</time>
      </trkpt>
      <trkpt lat="45.99296" lon="4.88175">
        <ele>284</ele>
        <time>2017-03-15T10:34:00Z</time>
      </trkpt>
      <trkpt lat="45.993" lon="4.88178">
        <ele>284</ele>
        <time>2017-03-15T10:34:01Z</time>
      </trkpt>
      <trkpt lat="45.99304" lon="4.88181">
        <ele>285</ele>
        <time>2017-03-15T10:34:02Z</time>
      </trkpt>
      <trkpt lat="45.99308" lon="4.88185">
        <ele>285</ele>
        <time>2017-03-15T10:34:03Z</time>
      </trkpt>
      <trkpt lat="45.99315" lon="4.88192">
        <ele>285</ele>
        <time>2017-03-15T10:34:05Z</time>
      </trkpt>
      <trkpt lat="45.99318" lon="4.88195">
        <ele>285</ele>
        <time>2017-03-15T10:34:06Z</time>
      </trkpt>
      <trkpt lat="45.99325" lon="4.88202">
        <ele>285</ele>
        <time>2017-03-15T10:34:08Z</time>
      </trkpt>
      <trkpt lat="45.99328" lon="4.88206">
        <ele>285</ele>
        <time>2017-03-15T10:34:09Z</time>
      </trkpt>
      <trkpt lat="45.99335" lon="4.88213">
        <ele>287</ele>
        <time>2017-03-15T10:34:11Z</time>
      </trkpt>
      <trkpt lat="45.99339" lon="4.88217">
        <ele>287</ele>
        <time>2017-03-15T10:34:12Z</time>
      </trkpt>
      <trkpt lat="45.99343" lon="4.88221">
        <ele>287</ele>
        <time>2017-03-15T10:34:13Z</time>
      </trkpt>
      <trkpt lat="45.99347" lon="4.88225">
        <ele>287</ele>
        <time>2017-03-15T10:34:14Z</time>
      </trkpt>
      <trkpt lat="45.99351" lon="4.88229">
        <ele>287</ele>
        <time>2017-03-15T10:34:15Z</time>
      </trkpt>
      <trkpt lat="45.99355" lon="4.88232">
        <ele>287</ele>
        <time>2017-03-15T10:34:16Z</time>
      </trkpt>
      <trkpt lat="45.99362" lon="4.88239">
        <ele>287</ele>
        <time>2017-03-15T10:34:18Z</time>
      </trkpt>
      <trkpt lat="45.99365" lon="4.88243">
        <ele>287</ele>
        <time>2017-03-15T10:34:19Z</time>
      </trkpt>
      <trkpt lat="45.99371" lon="4.88252">
        <ele>285</ele>
        <time>2017-03-15T10:34:21Z</time>
      </trkpt>
      <trkpt lat="45.99374" lon="4.88257">
        <ele>285</ele>
        <time>2017-03-15T10:34:22Z</time>
      </trkpt>
      <trkpt lat="45.99378" lon="4.88266">
        <ele>285</ele>
        <time>2017-03-15T10:34:24Z</time>
      </trkpt>
      <trkpt lat="45.9938" lon="4.8827">
        <ele>284</ele>
        <time>2017-03-15T10:34:25Z</time>
      </trkpt>
      <trkpt lat="45.99384" lon="4.8828">
        <ele>284</ele>
        <time>2017-03-15T10:34:27Z</time>
      </trkpt>
      <trkpt lat="45.99386" lon="4.88285">
        <ele>284</ele>
        <time>2017-03-15T10:34:28Z</time>
      </trkpt>
      <trkpt lat="45.99391" lon="4.88296">
        <ele>284</ele>
        <time>2017-03-15T10:34:30Z</time>
      </trkpt>
      <trkpt lat="45.99393" lon="4.88301">
        <ele>284</ele>
        <time>2017-03-15T10:34:31Z</time>
      </trkpt>
      <trkpt lat="45.99397" lon="4.88312">
        <ele>283</ele>
        <time>2017-03-15T10:34:33Z</time>
      </trkpt>
      <trkpt lat="45.994" lon="4.88318">
        <ele>283</ele>
        <time>2017-03-15T10:34:34Z</time>
      </trkpt>
      <trkpt lat="45.99404" lon="4.88328">
        <ele>283</ele>
        <time>2017-03-15T10:34:36Z</time>
      </trkpt>
      <trkpt lat="45.99406" lon="4.88334">
        <ele>282</ele>
        <time>2017-03-15T10:34:37Z</time>
      </trkpt>
      <trkpt lat="45.99408" lon="4.88339">
        <ele>282</ele>
        <time>2017-03-15T10:34:38Z</time>
      </trkpt>
      <trkpt lat="45.99411" lon="4.88345">
        <ele>282</ele>
        <time>2017-03-15T10:34:39Z</time>
      </trkpt>
      <trkpt lat="45.99416" lon="4.88356">
        <ele>282</ele>
        <time>2017-03-15T10:34:41Z</time>
      </trkpt>
      <trkpt lat="45.99418" lon="4.88361">
        <ele>283</ele>
        <time>2017-03-15T10:34:42Z</time>
      </trkpt>
      <trkpt lat="45.99423" lon="4.88372">
        <ele>283</ele>
        <time>2017-03-15T10:34:44Z</time>
      </trkpt>
      <trkpt lat="45.99425" lon="4.88377">
        <ele>283</ele>
        <time>2017-03-15T10:34:45Z</time>
      </trkpt>
      <trkpt lat="45.9943" lon="4.88387">
        <ele>283</ele>
        <time>2017-03-15T10:34:47Z</time>
      </trkpt>
      <trkpt lat="45.99433" lon="4.88393">
        <ele>283</ele>
        <time>2017-03-15T10:34:48Z</time>
      </trkpt>
      <trkpt lat="45.99436" lon="4.88398">
        <ele>283</ele>
        <time>2017-03-15T10:34:49Z</time>
      </trkpt>
      <trkpt lat="45.99439" lon="4.88402">
        <ele>283</ele>
        <time>2017-03-15T10:34:50Z</time>
      </trkpt>
      <trkpt lat="45.99442" lon="4.88407">
        <ele>283</ele>
        <time>2017-03-15T10:34:51Z</time>
      </trkpt>
      <trkpt lat="45.99446" lon="4.88411">
        <ele>283</ele>
        <time>2017-03-15T10:34:52Z</time>
      </trkpt>
      <trkpt lat="45.99453" lon="4.88418">
        <ele>283</ele>
        <time>2017-03-15T10:34:54Z</time>
      </trkpt>
      <trkpt lat="45.99457" lon="4.88421">
        <ele>283</ele>
        <time>2017-03-15T10:34:55Z</time>
      </trkpt>
      <trkpt lat="45.99464" lon="4.88428">
        <ele>284</ele>
        <time>2017-03-15T10:34:57Z</time>
      </trkpt>
      <trkpt lat="45.99467" lon="4.88432">
        <ele>284</ele>
        <time>2017-03-15T10:34:58Z</time>
      </trkpt>
      <trkpt lat="45.99471" lon="4.88436">
        <ele>284</ele>
        <time>2017-03-15T10:34:59Z</time>
      </trkpt>
      <trkpt lat="45.99475" lon="4.88441">
        <ele>284</ele>
        <time>2017-03-15T10:35:00Z</time>
      </trkpt>
      <trkpt lat="45.99478" lon="4.88446">
        <ele>284</ele>
        <time>2017-03-15T10:35:01Z</time>
      </trkpt>
      <trkpt lat="45.99481" lon="4.88451">
        <ele>284</ele>
        <time>2017-03-15T10:35:02Z</time>
      </trkpt>
      <trkpt lat="45.99484" lon="4.88456">
        <ele>284</ele>
        <time>2017-03-15T10:35:03Z</time>
      </trkpt>
      <trkpt lat="45.99487" lon="4.88461">
        <ele>284</ele>
        <time>2017-03-15T10:35:04Z</time>
      </trkpt>
      <trkpt lat="45.9949" lon="4.88467">
        <ele>284</ele>
        <time>2017-03-15T10:35:05Z</time>
      </trkpt>
      <trkpt lat="45.99493" lon="4.88472">
        <ele>284</ele>
        <time>2017-03-15T10:35:06Z</time>
      </trkpt>
      <trkpt lat="45.99496" lon="4.88477">
        <ele>284</ele>
        <time>2017-03-15T10:35:07Z</time>
      </trkpt>
      <trkpt lat="45.99499" lon="4.88482">
        <ele>284</ele>
        <time>2017-03-15T10:35:08Z</time>
      </trkpt>
      <trkpt lat="45.99502" lon="4.88487">
        <ele>284</ele>
        <time>2017-03-15T10:35:09Z</time>
      </trkpt>
      <trkpt lat="45.99505" lon="4.88492">
        <ele>284</ele>
        <time>2017-03-15T10:35:10Z</time>
      </trkpt>
      <trkpt lat="45.99508" lon="4.88497">
        <ele>284</ele>
        <time>2017-03-15T10:35:11Z</time>
      </trkpt>
      <trkpt lat="45.99511" lon="4.88503">
        <ele>284</ele>
        <time>2017-03-15T10:35:12Z</time>
      </trkpt>
      <trkpt lat="45.99514" lon="4.88509">
        <ele>285</ele>
        <time>2017-03-15T10:35:13Z</time>
      </trkpt>
      <trkpt lat="45.99517" lon="4.88514">
        <ele>285</ele>
        <time>2017-03-15T10:35:14Z</time>
      </trkpt>
      <trkpt lat="45.99519" lon="4.8852">
        <ele>285</ele>
        <time>2017-03-15T10:35:15Z</time>
      </trkpt>
      <trkpt lat="45.99522" lon="4.88525">
        <ele>285</ele>
        <time>2017-03-15T10:35:16Z</time>
      </trkpt>
      <trkpt lat="45.99525" lon="4.8853">
        <ele>285</ele>
        <time>2017-03-15T10:35:17Z</time>
      </trkpt>
      <trkpt lat="45.99528" lon="4.88536">
        <ele>285</ele>
        <time>2017-03-15T10:35:18Z</time>
      </trkpt>
      <trkpt lat="45.9953" lon="4.88542">
        <ele>285</ele>
        <time>2017-03-15T10:35:19Z</time>
      </trkpt>
      <trkpt lat="45.99532" lon="4.88548">
        <ele>285</ele>
        <time>2017-03-15T10:35:20Z</time>
      </trkpt>
      <trkpt lat="45.99535" lon="4.88555">
        <ele>285</ele>
        <time>2017-03-15T10:35:21Z</time>
      </trkpt>
      <trkpt lat="45.99538" lon="4.88562">
        <ele>285</ele>
        <time>2017-03-15T10:35:22Z</time>
      </trkpt>
      <trkpt lat="45.9954" lon="4.88569">
        <ele>285</ele>
        <time>2017-03-15T10:35:23Z</time>
      </trkpt>
      <trkpt lat="45.99542" lon="4.88576">
        <ele>286</ele>
        <time>2017-03-15T10:35:24Z</time>
      </trkpt>
      <trkpt lat="45.99543" lon="4.88583">
        <ele>286</ele>
        <time>2017-03-15T10:35:25Z</time>
      </trkpt>
      <trkpt lat="45.99545" lon="4.8859">
        <ele>286</ele>
        <time>2017-03-15T10:35:26Z</time>
      </trkpt>
      <trkpt lat="45.99545" lon="4.88596">
        <ele>286</ele>
        <time>2017-03-15T10:35:27Z</time>
      </trkpt>
      <trkpt lat="45.99546" lon="4.88603">
        <ele>286</ele>
        <time>2017-03-15T10:35:28Z</time>
      </trkpt>
      <trkpt lat="45.99547" lon="4.8861">
        <ele>286</ele>
        <time>2017-03-15T10:35:29Z</time>
      </trkpt>
      <trkpt lat="45.99547" lon="4.88616">
        <ele>286</ele>
        <time>2017-03-15T10:35:30Z</time>
      </trkpt>
      <trkpt lat="45.99548" lon="4.88623">
        <ele>286</ele>
        <time>2017-03-15T10:35:31Z</time>
      </trkpt>
      <trkpt lat="45.99549" lon="4.8863">
        <ele>286</ele>
        <time>2017-03-15T10:35:32Z</time>
      </trkpt>
      <trkpt lat="45.9955" lon="4.88637">
        <ele>286</ele>
        <time>2017-03-15T10:35:33Z</time>
      </trkpt>
      <trkpt lat="45.9955" lon="4.88644">
        <ele>286</ele>
        <time>2017-03-15T10:35:34Z</time>
      </trkpt>
      <trkpt lat="45.99551" lon="4.8865">
        <ele>286</ele>
        <time>2017-03-15T10:35:35Z</time>
      </trkpt>
      <trkpt lat="45.99552" lon="4.88657">
        <ele>286</ele>
        <time>2017-03-15T10:35:36Z</time>
      </trkpt>
      <trkpt lat="45.99554" lon="4.88669">
        <ele>286</ele>
        <time>2017-03-15T10:35:38Z</time>
      </trkpt>
      <trkpt lat="45.99555" lon="4.88674">
        <ele>286</ele>
        <time>2017-03-15T10:35:39Z</time>
      </trkpt>
      <trkpt lat="45.99555" lon="4.88686">
        <ele>286</ele>
        <time>2017-03-15T10:35:41Z</time>
      </trkpt>
      <trkpt lat="45.99556" lon="4.88693">
        <ele>286</ele>
        <time>2017-03-15T10:35:42Z</time>
      </trkpt>
      <trkpt lat="45.99556" lon="4.88699">
        <ele>286</ele>
        <time>2017-03-15T10:35:43Z</time>
      </trkpt>
      <trkpt lat="45.99557" lon="4.88706">
        <ele>286</ele>
        <time>2017-03-15T10:35:44Z</time>
      </trkpt>
      <trkpt lat="45.99557" lon="4.88713">
        <ele>286</ele>
        <time>2017-03-15T10:35:45Z</time>
      </trkpt>
      <trkpt lat="45.99558" lon="4.88721">
        <ele>286</ele>
        <time>2017-03-15T10:35:46Z</time>
      </trkpt>
      <trkpt lat="45.99559" lon="4.88728">
        <ele>286</ele>
        <time>2017-03-15T10:35:47Z</time>
      </trkpt>
      <trkpt lat="45.99559" lon="4.88736">
        <ele>287</ele>
        <time>2017-03-15T10:35:48Z</time>
      </trkpt>
      <trkpt lat="45.9956" lon="4.88743">
        <ele>287</ele>
        <time>2017-03-15T10:35:49Z</time>
      </trkpt>
      <trkpt lat="45.99561" lon="4.88751">
        <ele>287</ele>
        <time>2017-03-15T10:35:50Z</time>
      </trkpt>
      <trkpt lat="45.99561" lon="4.88758">
        <ele>287</ele>
        <time>2017-03-15T10:35:51Z</time>
      </trkpt>
      <trkpt lat="45.99562" lon="4.88764">
        <ele>287</ele>
        <time>2017-03-15T10:35:52Z</time>
      </trkpt>
      <trkpt lat="45.99563" lon="4.88771">
        <ele>287</ele>
        <time>2017-03-15T10:35:53Z</time>
      </trkpt>
      <trkpt lat="45.99563" lon="4.88778">
        <ele>287</ele>
        <time>2017-03-15T10:35:54Z</time>
      </trkpt>
      <trkpt lat="45.99564" lon="4.8879">
        <ele>287</ele>
        <time>2017-03-15T10:35:56Z</time>
      </trkpt>
      <trkpt lat="45.99565" lon="4.88796">
        <ele>287</ele>
        <time>2017-03-15T10:35:57Z</time>
      </trkpt>
      <trkpt lat="45.99566" lon="4.88809">
        <ele>287</ele>
        <time>2017-03-15T10:35:59Z</time>
      </trkpt>
      <trkpt lat="45.99567" lon="4.88815">
        <ele>287</ele>
        <time>2017-03-15T10:36:00Z</time>
      </trkpt>
      <trkpt lat="45.99568" lon="4.88822">
        <ele>287</ele>
        <time>2017-03-15T10:36:01Z</time>
      </trkpt>
      <trkpt lat="45.99568" lon="4.88829">
        <ele>287</ele>
        <time>2017-03-15T10:36:02Z</time>
      </trkpt>
      <trkpt lat="45.99569" lon="4.88835">
        <ele>287</ele>
        <time>2017-03-15T10:36:03Z</time>
      </trkpt>
      <trkpt lat="45.9957" lon="4.88843">
        <ele>287</ele>
        <time>2017-03-15T10:36:04Z</time>
      </trkpt>
      <trkpt lat="45.9957" lon="4.8885">
        <ele>287</ele>
        <time>2017-03-15T10:36:05Z</time>
      </trkpt>
      <trkpt lat="45.9957" lon="4.88857">
        <ele>287</ele>
        <time>2017-03-15T10:36:06Z</time>
      </trkpt>
      <trkpt lat="45.99571" lon="4.88864">
        <ele>287</ele>
        <time>2017-03-15T10:36:07Z</time>
      </trkpt>
      <trkpt lat="45.99572" lon="4.88871">
        <ele>287</ele>
        <time>2017-03-15T10:36:08Z</time>
      </trkpt>
      <trkpt lat="45.99572" lon="4.88878">
        <ele>287</ele>
        <time>2017-03-15T10:36:09Z</time>
      </trkpt>
      <trkpt lat="45.99572" lon="4.88885">
        <ele>287</ele>
        <time>2017-03-15T10:36:10Z</time>
      </trkpt>
      <trkpt lat="45.99572" lon="4.88891">
        <ele>287</ele>
        <time>2017-03-15T10:36:11Z</time>
      </trkpt>
      <trkpt lat="45.99573" lon="4.88898">
        <ele>287</ele>
        <time>2017-03-15T10:36:12Z</time>
      </trkpt>
      <trkpt lat="45.99573" lon="4.88905">
        <ele>287</ele>
        <time>2017-03-15T10:36:13Z</time>
      </trkpt>
      <trkpt lat="45.99573" lon="4.88912">
        <ele>287</ele>
        <time>2017-03-15T10:36:14Z</time>
      </trkpt>
      <trkpt lat="45.99574" lon="4.8892">
        <ele>287</ele>
        <time>2017-03-15T10:36:15Z</time>
      </trkpt>
      <trkpt lat="45.99575" lon="4.88927">
        <ele>287</ele>
        <time>2017-03-15T10:36:16Z</time>
      </trkpt>
      <trkpt lat="45.99576" lon="4.88934">
        <ele>287</ele>
        <time>2017-03-15T10:36:17Z</time>
      </trkpt>
      <trkpt lat="45.99576" lon="4.88941">
        <ele>287</ele>
        <time>2017-03-15T10:36:18Z</time>
      </trkpt>
      <trkpt lat="45.99578" lon="4.88953">
        <ele>287</ele>
        <time>2017-03-15T10:36:20Z</time>
      </trkpt>
      <trkpt lat="45.99578" lon="4.88959">
        <ele>287</ele>
        <time>2017-03-15T10:36:21Z</time>
      </trkpt>
      <trkpt lat="45.99578" lon="4.88971">
        <ele>287</ele>
        <time>2017-03-15T10:36:23Z</time>
      </trkpt>
      <trkpt lat="45.99578" lon="4.88977">
        <ele>287</ele>
        <time>2017-03-15T10:36:24Z</time>
      </trkpt>
      <trkpt lat="45.99579" lon="4.88988">
        <ele>288</ele>
        <time>2017-03-15T10:36:26Z</time>
      </trkpt>
      <trkpt lat="45.99579" lon="4.88994">
        <ele>288</ele>
        <time>2017-03-15T10:36:27Z</time>
      </trkpt>
      <trkpt lat="45.99578" lon="4.89006">
        <ele>288</ele>
        <time>2017-03-15T10:36:29Z</time>
      </trkpt>
      <trkpt lat="45.99578" lon="4.89012">
        <ele>288</ele>
        <time>2017-03-15T10:36:30Z</time>
      </trkpt>
      <trkpt lat="45.99577" lon="4.89018">
        <ele>288</ele>
        <time>2017-03-15T10:36:31Z</time>
      </trkpt>
      <trkpt lat="45.99576" lon="4.89024">
        <ele>288</ele>
        <time>2017-03-15T10:36:32Z</time>
      </trkpt>
      <trkpt lat="45.99575" lon="4.89031">
        <ele>288</ele>
        <time>2017-03-15T10:36:33Z</time>
      </trkpt>
      <trkpt lat="45.99574" lon="4.89038">
        <ele>288</ele>
        <time>2017-03-15T10:36:34Z</time>
      </trkpt>
      <trkpt lat="45.99574" lon="4.89045">
        <ele>288</ele>
        <time>2017-03-15T10:36:35Z</time>
      </trkpt>
      <trkpt lat="45.99573" lon="4.89051">
        <ele>288</ele>
        <time>2017-03-15T10:36:36Z</time>
      </trkpt>
      <trkpt lat="45.99572" lon="4.89058">
        <ele>288</ele>
        <time>2017-03-15T10:36:37Z</time>
      </trkpt>
      <trkpt lat="45.99571" lon="4.89064">
        <ele>289</ele>
        <time>2017-03-15T10:36:38Z</time>
      </trkpt>
      <trkpt lat="45.99571" lon="4.89071">
        <ele>289</ele>
        <time>2017-03-15T10:36:39Z</time>
      </trkpt>
      <trkpt lat="45.99571" lon="4.89078">
        <ele>289</ele>
        <time>2017-03-15T10:36:40Z</time>
      </trkpt>
      <trkpt lat="45.99571" lon="4.89085">
        <ele>289</ele>
        <time>2017-03-15T10:36:41Z</time>
      </trkpt>
      <trkpt lat="45.99571" lon="4.89091">
        <ele>289</ele>
        <time>2017-03-15T10:36:42Z</time>
      </trkpt>
      <trkpt lat="45.99571" lon="4.89098">
        <ele>289</ele>
        <time>2017-03-15T10:36:43Z</time>
      </trkpt>
      <trkpt lat="45.99571" lon="4.89106">
        <ele>289</ele>
        <time>2017-03-15T10:36:44Z</time>
      </trkpt>
      <trkpt lat="45.99571" lon="4.89113">
        <ele>289</ele>
        <time>2017-03-15T10:36:45Z</time>
      </trkpt>
      <trkpt lat="45.99571" lon="4.8912">
        <ele>289</ele>
        <time>2017-03-15T10:36:46Z</time>
      </trkpt>
      <trkpt lat="45.99572" lon="4.89126">
        <ele>289</ele>
        <time>2017-03-15T10:36:47Z</time>
      </trkpt>
      <trkpt lat="45.99573" lon="4.89132">
        <ele>289</ele>
        <time>2017-03-15T10:36:48Z</time>
      </trkpt>
      <trkpt lat="45.99573" lon="4.89145">
        <ele>289</ele>
        <time>2017-03-15T10:36:50Z</time>
      </trkpt>
      <trkpt lat="45.99573" lon="4.89151">
        <ele>289</ele>
        <time>2017-03-15T10:36:51Z</time>
      </trkpt>
      <trkpt lat="45.99573" lon="4.89158">
        <ele>288</ele>
        <time>2017-03-15T10:36:52Z</time>
      </trkpt>
      <trkpt lat="45.99574" lon="4.89165">
        <ele>288</ele>
        <time>2017-03-15T10:36:53Z</time>
      </trkpt>
      <trkpt lat="45.99574" lon="4.89172">
        <ele>288</ele>
        <time>2017-03-15T10:36:54Z</time>
      </trkpt>
      <trkpt lat="45.99574" lon="4.89179">
        <ele>288</ele>
        <time>2017-03-15T10:36:55Z</time>
      </trkpt>
      <trkpt lat="45.99574" lon="4.89186">
        <ele>288</ele>
        <time>2017-03-15T10:36:56Z</time>
      </trkpt>
      <trkpt lat="45.99574" lon="4.89193">
        <ele>288</ele>
        <time>2017-03-15T10:36:57Z</time>
      </trkpt>
      <trkpt lat="45.99574" lon="4.89199">
        <ele>288</ele>
        <time>2017-03-15T10:36:58Z</time>
      </trkpt>
      <trkpt lat="45.99575" lon="4.89206">
        <ele>288</ele>
        <time>2017-03-15T10:36:59Z</time>
      </trkpt>
      <trkpt lat="45.99575" lon="4.89213">
        <ele>288</ele>
        <time>2017-03-15T10:37:00Z</time>
      </trkpt>
      <trkpt lat="45.99576" lon="4.89219">
        <ele>288</ele>
        <time>2017-03-15T10:37:01Z</time>
      </trkpt>
      <trkpt lat="45.99577" lon="4.89226">
        <ele>288</ele>
        <time>2017-03-15T10:37:02Z</time>
      </trkpt>
      <trkpt lat="45.99578" lon="4.89232">
        <ele>288</ele>
        <time>2017-03-15T10:37:03Z</time>
      </trkpt>
      <trkpt lat="45.99578" lon="4.89239">
        <ele>288</ele>
        <time>2017-03-15T10:37:04Z</time>
      </trkpt>
      <trkpt lat="45.99579" lon="4.89247">
        <ele>288</ele>
        <time>2017-03-15T10:37:05Z</time>
      </trkpt>
      <trkpt lat="45.99579" lon="4.89254">
        <ele>288</ele>
        <time>2017-03-15T10:37:06Z</time>
      </trkpt>
      <trkpt lat="45.9958" lon="4.89261">
        <ele>288</ele>
        <time>2017-03-15T10:37:07Z</time>
      </trkpt>
      <trkpt lat="45.99581" lon="4.89268">
        <ele>288</ele>
        <time>2017-03-15T10:37:08Z</time>
      </trkpt>
      <trkpt lat="45.99581" lon="4.89275">
        <ele>288</ele>
        <time>2017-03-15T10:37:09Z</time>
      </trkpt>
      <trkpt lat="45.99582" lon="4.89281">
        <ele>288</ele>
        <time>2017-03-15T10:37:10Z</time>
      </trkpt>
      <trkpt lat="45.99582" lon="4.89288">
        <ele>288</ele>
        <time>2017-03-15T10:37:11Z</time>
      </trkpt>
      <trkpt lat="45.99583" lon="4.89301">
        <ele>288</ele>
        <time>2017-03-15T10:37:13Z</time>
      </trkpt>
      <trkpt lat="45.99584" lon="4.89307">
        <ele>289</ele>
        <time>2017-03-15T10:37:14Z</time>
      </trkpt>
      <trkpt lat="45.99585" lon="4.89314">
        <ele>289</ele>
        <time>2017-03-15T10:37:15Z</time>
      </trkpt>
      <trkpt lat="45.99585" lon="4.89321">
        <ele>289</ele>
        <time>2017-03-15T10:37:16Z</time>
      </trkpt>
      <trkpt lat="45.99586" lon="4.89328">
        <ele>289</ele>
        <time>2017-03-15T10:37:17Z</time>
      </trkpt>
      <trkpt lat="45.99586" lon="4.89336">
        <ele>289</ele>
        <time>2017-03-15T10:37:18Z</time>
      </trkpt>
      <trkpt lat="45.99587" lon="4.89343">
        <ele>289</ele>
        <time>2017-03-15T10:37:19Z</time>
      </trkpt>
      <trkpt lat="45.99587" lon="4.89351">
        <ele>289</ele>
        <time>2017-03-15T10:37:20Z</time>
      </trkpt>
      <trkpt lat="45.99587" lon="4.89358">
        <ele>289</ele>
        <time>2017-03-15T10:37:21Z</time>
      </trkpt>
      <trkpt lat="45.99588" lon="4.89366">
        <ele>289</ele>
        <time>2017-03-15T10:37:22Z</time>
      </trkpt>
      <trkpt lat="45.99588" lon="4.89374">
        <ele>289</ele>
        <time>2017-03-15T10:37:23Z</time>
      </trkpt>
      <trkpt lat="45.99589" lon="4.89381">
        <ele>290</ele>
        <time>2017-03-15T10:37:24Z</time>
      </trkpt>
      <trkpt lat="45.99589" lon="4.89388">
        <ele>290</ele>
        <time>2017-03-15T10:37:25Z</time>
      </trkpt>
      <trkpt lat="45.99589" lon="4.89395">
        <ele>290</ele>
        <time>2017-03-15T10:37:26Z</time>
      </trkpt>
      <trkpt lat="45.9959" lon="4.89407">
        <ele>290</ele>
        <time>2017-03-15T10:37:28Z</time>
      </trkpt>
      <trkpt lat="45.9959" lon="4.89413">
        <ele>290</ele>
        <time>2017-03-15T10:37:29Z</time>
      </trkpt>
      <trkpt lat="45.99591" lon="4.8942">
        <ele>290</ele>
        <time>2017-03-15T10:37:30Z</time>
      </trkpt>
      <trkpt lat="45.99591" lon="4.89427">
        <ele>290</ele>
        <time>2017-03-15T10:37:31Z</time>
      </trkpt>
      <trkpt lat="45.99592" lon="4.89433">
        <ele>290</ele>
        <time>2017-03-15T10:37:32Z</time>
      </trkpt>
      <trkpt lat="45.99593" lon="4.8944">
        <ele>290</ele>
        <time>2017-03-15T10:37:33Z</time>
      </trkpt>
      <trkpt lat="45.99593" lon="4.89447">
        <ele>290</ele>
        <time>2017-03-15T10:37:34Z</time>
      </trkpt>
      <trkpt lat="45.99593" lon="4.89454">
        <ele>290</ele>
        <time>2017-03-15T10:37:35Z</time>
      </trkpt>
      <trkpt lat="45.99594" lon="4.89461">
        <ele>290</ele>
        <time>2017-03-15T10:37:36Z</time>
      </trkpt>
      <trkpt lat="45.99594" lon="4.89467">
        <ele>290</ele>
        <time>2017-03-15T10:37:37Z</time>
      </trkpt>
      <trkpt lat="45.99595" lon="4.89475">
        <ele>290</ele>
        <time>2017-03-15T10:37:38Z</time>
      </trkpt>
      <trkpt lat="45.99595" lon="4.89482">
        <ele>290</ele>
        <time>2017-03-15T10:37:39Z</time>
      </trkpt>
      <trkpt lat="45.99596" lon="4.89489">
        <ele>290</ele>
        <time>2017-03-15T10:37:40Z</time>
      </trkpt>
      <trkpt lat="45.99596" lon="4.89497">
        <ele>290</ele>
        <time>2017-03-15T10:37:41Z</time>
      </trkpt>
      <trkpt lat="45.99596" lon="4.89504">
        <ele>290</ele>
        <time>2017-03-15T10:37:42Z</time>
      </trkpt>
      <trkpt lat="45.99597" lon="4.89512">
        <ele>290</ele>
        <time>2017-03-15T10:37:43Z</time>
      </trkpt>
      <trkpt lat="45.99597" lon="4.89519">
        <ele>290</ele>
        <time>2017-03-15T10:37:44Z</time>
      </trkpt>
      <trkpt lat="45.99597" lon="4.89526">
        <ele>291</ele>
        <time>2017-03-15T10:37:45Z</time>
      </trkpt>
      <trkpt lat="45.99598" lon="4.89532">
        <ele>291</ele>
        <time>2017-03-15T10:37:46Z</time>
      </trkpt>
      <trkpt lat="45.99598" lon="4.89539">
        <ele>291</ele>
        <time>2017-03-15T10:37:47Z</time>
      </trkpt>
      <trkpt lat="45.996" lon="4.89551">
        <ele>291</ele>
        <time>2017-03-15T10:37:49Z</time>
      </trkpt>
      <trkpt lat="45.996" lon="4.89557">
        <ele>291</ele>
        <time>2017-03-15T10:37:50Z</time>
      </trkpt>
      <trkpt lat="45.996" lon="4.89563">
        <ele>291</ele>
        <time>2017-03-15T10:37:51Z</time>
      </trkpt>
      <trkpt lat="45.996" lon="4.8957">
        <ele>291</ele>
        <time>2017-03-15T10:37:52Z</time>
      </trkpt>
      <trkpt lat="45.99601" lon="4.89577">
        <ele>291</ele>
        <time>2017-03-15T10:37:53Z</time>
      </trkpt>
      <trkpt lat="45.99601" lon="4.89584">
        <ele>292</ele>
        <time>2017-03-15T10:37:54Z</time>
      </trkpt>
      <trkpt lat="45.99602" lon="4.89592">
        <ele>292</ele>
        <time>2017-03-15T10:37:55Z</time>
      </trkpt>
      <trkpt lat="45.99602" lon="4.89599">
        <ele>292</ele>
        <time>2017-03-15T10:37:56Z</time>
      </trkpt>
      <trkpt lat="45.99602" lon="4.89607">
        <ele>292</ele>
        <time>2017-03-15T10:37:57Z</time>
      </trkpt>
      <trkpt lat="45.99602" lon="4.89615">
        <ele>291</ele>
        <time>2017-03-15T10:37:58Z</time>
      </trkpt>
      <trkpt lat="45.99602" lon="4.89622">
        <ele>291</ele>
        <time>2017-03-15T10:37:59Z</time>
      </trkpt>
      <trkpt lat="45.99602" lon="4.8963">
        <ele>291</ele>
        <time>2017-03-15T10:38:00Z</time>
      </trkpt>
      <trkpt lat="45.99602" lon="4.89637">
        <ele>291</ele>
        <time>2017-03-15T10:38:01Z</time>
      </trkpt>
      <trkpt lat="45.99602" lon="4.89643">
        <ele>291</ele>
        <time>2017-03-15T10:38:02Z</time>
      </trkpt>
      <trkpt lat="45.99601" lon="4.89656">
        <ele>292</ele>
        <time>2017-03-15T10:38:04Z</time>
      </trkpt>
      <trkpt lat="45.99601" lon="4.89662">
        <ele>292</ele>
        <time>2017-03-15T10:38:05Z</time>
      </trkpt>
      <trkpt lat="45.996" lon="4.89668">
        <ele>292</ele>
        <time>2017-03-15T10:38:06Z</time>
      </trkpt>
      <trkpt lat="45.996" lon="4.89675">
        <ele>292</ele>
        <time>2017-03-15T10:38:07Z</time>
      </trkpt>
      <trkpt lat="45.996" lon="4.89682">
        <ele>292</ele>
        <time>2017-03-15T10:38:08Z</time>
      </trkpt>
      <trkpt lat="45.996" lon="4.89689">
        <ele>292</ele>
        <time>2017-03-15T10:38:09Z</time>
      </trkpt>
      <trkpt lat="45.996" lon="4.89697">
        <ele>292</ele>
        <time>2017-03-15T10:38:10Z</time>
      </trkpt>
      <trkpt lat="45.996" lon="4.89704">
        <ele>292</ele>
        <time>2017-03-15T10:38:11Z</time>
      </trkpt>
      <trkpt lat="45.996" lon="4.89711">
        <ele>292</ele>
        <time>2017-03-15T10:38:12Z</time>
      </trkpt>
      <trkpt lat="45.996" lon="4.89718">
        <ele>292</ele>
        <time>2017-03-15T10:38:13Z</time>
      </trkpt>
      <trkpt lat="45.99599" lon="4.89725">
        <ele>292</ele>
        <time>2017-03-15T10:38:14Z</time>
      </trkpt>
      <trkpt lat="45.99599" lon="4.89731">
        <ele>292</ele>
        <time>2017-03-15T10:38:15Z</time>
      </trkpt>
      <trkpt lat="45.99599" lon="4.89743">
        <ele>292</ele>
        <time>2017-03-15T10:38:17Z</time>
      </trkpt>
      <trkpt lat="45.99599" lon="4.89748">
        <ele>292</ele>
        <time>2017-03-15T10:38:18Z</time>
      </trkpt>
      <trkpt lat="45.99598" lon="4.8976">
        <ele>292</ele>
        <time>2017-03-15T10:38:20Z</time>
      </trkpt>
      <trkpt lat="45.99598" lon="4.89766">
        <ele>292</ele>
        <time>2017-03-15T10:38:21Z</time>
      </trkpt>
      <trkpt lat="45.99598" lon="4.89779">
        <ele>292</ele>
        <time>2017-03-15T10:38:23Z</time>
      </trkpt>
      <trkpt lat="45.99598" lon="4.89786">
        <ele>292</ele>
        <time>2017-03-15T10:38:24Z</time>
      </trkpt>
      <trkpt lat="45.99598" lon="4.89793">
        <ele>292</ele>
        <time>2017-03-15T10:38:25Z</time>
      </trkpt>
      <trkpt lat="45.99598" lon="4.898">
        <ele>292</ele>
        <time>2017-03-15T10:38:26Z</time>
      </trkpt>
      <trkpt lat="45.99598" lon="4.89807">
        <ele>292</ele>
        <time>2017-03-15T10:38:27Z</time>
      </trkpt>
      <trkpt lat="45.99598" lon="4.89814">
        <ele>292</ele>
        <time>2017-03-15T10:38:28Z</time>
      </trkpt>
      <trkpt lat="45.99597" lon="4.89822">
        <ele>293</ele>
        <time>2017-03-15T10:38:29Z</time>
      </trkpt>
      <trkpt lat="45.99597" lon="4.89829">
        <ele>293</ele>
        <time>2017-03-15T10:38:30Z</time>
      </trkpt>
      <trkpt lat="45.99597" lon="4.89837">
        <ele>293</ele>
        <time>2017-03-15T10:38:31Z</time>
      </trkpt>
      <trkpt lat="45.99597" lon="4.89844">
        <ele>293</ele>
        <time>2017-03-15T10:38:32Z</time>
      </trkpt>
      <trkpt lat="45.99598" lon="4.89851">
        <ele>293</ele>
        <time>2017-03-15T10:38:33Z</time>
      </trkpt>
      <trkpt lat="45.99597" lon="4.89858">
        <ele>293</ele>
        <time>2017-03-15T10:38:34Z</time>
      </trkpt>
      <trkpt lat="45.99597" lon="4.89865">
        <ele>293</ele>
        <time>2017-03-15T10:38:35Z</time>
      </trkpt>
      <trkpt lat="45.99597" lon="4.89872">
        <ele>293</ele>
        <time>2017-03-15T10:38:36Z</time>
      </trkpt>
      <trkpt lat="45.99597" lon="4.89884">
        <ele>292</ele>
        <time>2017-03-15T10:38:38Z</time>
      </trkpt>
      <trkpt lat="45.99597" lon="4.89891">
        <ele>292</ele>
        <time>2017-03-15T10:38:39Z</time>
      </trkpt>
      <trkpt lat="45.99598" lon="4.89903">
        <ele>292</ele>
        <time>2017-03-15T10:38:41Z</time>
      </trkpt>
      <trkpt lat="45.99598" lon="4.89909">
        <ele>292</ele>
        <time>2017-03-15T10:38:42Z</time>
      </trkpt>
      <trkpt lat="45.99598" lon="4.89921">
        <ele>293</ele>
        <time>2017-03-15T10:38:44Z</time>
      </trkpt>
      <trkpt lat="45.99598" lon="4.89927">
        <ele>293</ele>
        <time>2017-03-15T10:38:45Z</time>
      </trkpt>
      <trkpt lat="45.99598" lon="4.89933">
        <ele>293</ele>
        <time>2017-03-15T10:38:46Z</time>
      </trkpt>
      <trkpt lat="45.99598" lon="4.8994">
        <ele>293</ele>
        <time>2017-03-15T10:38:47Z</time>
      </trkpt>
      <trkpt lat="45.996" lon="4.89953">
        <ele>294</ele>
        <time>2017-03-15T10:38:49Z</time>
      </trkpt>
      <trkpt lat="45.99601" lon="4.89959">
        <ele>294</ele>
        <time>2017-03-15T10:38:50Z</time>
      </trkpt>
      <trkpt lat="45.99601" lon="4.89971">
        <ele>294</ele>
        <time>2017-03-15T10:38:52Z</time>
      </trkpt>
      <trkpt lat="45.99601" lon="4.89977">
        <ele>294</ele>
        <time>2017-03-15T10:38:53Z</time>
      </trkpt>
      <trkpt lat="45.99603" lon="4.89989">
        <ele>294</ele>
        <time>2017-03-15T10:38:55Z</time>
      </trkpt>
      <trkpt lat="45.99604" lon="4.89996">
        <ele>295</ele>
        <time>2017-03-15T10:38:56Z</time>
      </trkpt>
      <trkpt lat="45.99605" lon="4.90002">
        <ele>296</ele>
        <time>2017-03-15T10:38:57Z</time>
      </trkpt>
      <trkpt lat="45.99606" lon="4.90008">
        <ele>296</ele>
        <time>2017-03-15T10:38:58Z</time>
      </trkpt>
      <trkpt lat="45.99608" lon="4.90015">
        <ele>296</ele>
        <time>2017-03-15T10:38:59Z</time>
      </trkpt>
      <trkpt lat="45.99609" lon="4.90021">
        <ele>296</ele>
        <time>2017-03-15T10:39:00Z</time>
      </trkpt>
      <trkpt lat="45.99611" lon="4.90027">
        <ele>296</ele>
        <time>2017-03-15T10:39:01Z</time>
      </trkpt>
      <trkpt lat="45.99613" lon="4.90033">
        <ele>296</ele>
        <time>2017-03-15T10:39:02Z</time>
      </trkpt>
      <trkpt lat="45.99615" lon="4.9004">
        <ele>296</ele>
        <time>2017-03-15T10:39:03Z</time>
      </trkpt>
      <trkpt lat="45.99617" lon="4.90045">
        <ele>296</ele>
        <time>2017-03-15T10:39:04Z</time>
      </trkpt>
      <trkpt lat="45.99621" lon="4.90056">
        <ele>297</ele>
        <time>2017-03-15T10:39:06Z</time>
      </trkpt>
      <trkpt lat="45.99623" lon="4.9006">
        <ele>297</ele>
        <time>2017-03-15T10:39:07Z</time>
      </trkpt>
      <trkpt lat="45.99627" lon="4.90071">
        <ele>297</ele>
        <time>2017-03-15T10:39:09Z</time>
      </trkpt>
      <trkpt lat="45.99629" lon="4.90076">
        <ele>297</ele>
        <time>2017-03-15T10:39:10Z</time>
      </trkpt>
      <trkpt lat="45.99633" lon="4.90086">
        <ele>298</ele>
        <time>2017-03-15T10:39:12Z</time>
      </trkpt>
      <trkpt lat="45.99634" lon="4.90091">
        <ele>299</ele>
        <time>2017-03-15T10:39:13Z</time>
      </trkpt>
      <trkpt lat="45.99637" lon="4.90101">
        <ele>299</ele>
        <time>2017-03-15T10:39:15Z</time>
      </trkpt>
      <trkpt lat="45.99638" lon="4.90107">
        <ele>299</ele>
        <time>2017-03-15T10:39:16Z</time>
      </trkpt>
      <trkpt lat="45.9964" lon="4.90118">
        <ele>299</ele>
        <time>2017-03-15T10:39:18Z</time>
      </trkpt>
      <trkpt lat="45.99642" lon="4.90124">
        <ele>299</ele>
        <time>2017-03-15T10:39:19Z</time>
      </trkpt>
      <trkpt lat="45.99645" lon="4.90133">
        <ele>299</ele>
        <time>2017-03-15T10:39:21Z</time>
      </trkpt>
      <trkpt lat="45.99647" lon="4.90138">
        <ele>299</ele>
        <time>2017-03-15T10:39:22Z</time>
      </trkpt>
      <trkpt lat="45.9965" lon="4.90148">
        <ele>300</ele>
        <time>2017-03-15T10:39:24Z</time>
      </trkpt>
      <trkpt lat="45.99652" lon="4.90153">
        <ele>300</ele>
        <time>2017-03-15T10:39:25Z</time>
      </trkpt>
      <trkpt lat="45.99654" lon="4.90162">
        <ele>300</ele>
        <time>2017-03-15T10:39:27Z</time>
      </trkpt>
      <trkpt lat="45.99656" lon="4.90167">
        <ele>300</ele>
        <time>2017-03-15T10:39:28Z</time>
      </trkpt>
      <trkpt lat="45.99658" lon="4.90177">
        <ele>301</ele>
        <time>2017-03-15T10:39:30Z</time>
      </trkpt>
      <trkpt lat="45.9966" lon="4.90182">
        <ele>301</ele>
        <time>2017-03-15T10:39:31Z</time>
      </trkpt>
      <trkpt lat="45.99662" lon="4.90192">
        <ele>301</ele>
        <time>2017-03-15T10:39:33Z</time>
      </trkpt>
      <trkpt lat="45.99663" lon="4.90197">
        <ele>301</ele>
        <time>2017-03-15T10:39:34Z</time>
      </trkpt>
      <trkpt lat="45.99666" lon="4.90207">
        <ele>302</ele>
        <time>2017-03-15T10:39:36Z</time>
      </trkpt>
      <trkpt lat="45.99667" lon="4.90213">
        <ele>302</ele>
        <time>2017-03-15T10:39:37Z</time>
      </trkpt>
      <trkpt lat="45.99669" lon="4.90222">
        <ele>303</ele>
        <time>2017-03-15T10:39:39Z</time>
      </trkpt>
      <trkpt lat="45.9967" lon="4.90228">
        <ele>304</ele>
        <time>2017-03-15T10:39:40Z</time>
      </trkpt>
      <trkpt lat="45.99671" lon="4.90238">
        <ele>304</ele>
        <time>2017-03-15T10:39:42Z</time>
      </trkpt>
      <trkpt lat="45.99672" lon="4.90243">
        <ele>304</ele>
        <time>2017-03-15T10:39:43Z</time>
      </trkpt>
      <trkpt lat="45.99673" lon="4.90252">
        <ele>304</ele>
        <time>2017-03-15T10:39:45Z</time>
      </trkpt>
      <trkpt lat="45.99674" lon="4.90257">
        <ele>304</ele>
        <time>2017-03-15T10:39:46Z</time>
      </trkpt>
      <trkpt lat="45.99674" lon="4.90266">
        <ele>304</ele>
        <time>2017-03-15T10:39:48Z</time>
      </trkpt>
      <trkpt lat="45.99673" lon="4.90271">
        <ele>304</ele>
        <time>2017-03-15T10:39:49Z</time>
      </trkpt>
      <trkpt lat="45.99672" lon="4.9028">
        <ele>304</ele>
        <time>2017-03-15T10:39:51Z</time>
      </trkpt>
      <trkpt lat="45.99672" lon="4.90285">
        <ele>304</ele>
        <time>2017-03-15T10:39:52Z</time>
      </trkpt>
      <trkpt lat="45.99669" lon="4.90294">
        <ele>304</ele>
        <time>2017-03-15T10:39:54Z</time>
      </trkpt>
      <trkpt lat="45.99668" lon="4.90299">
        <ele>304</ele>
        <time>2017-03-15T10:39:55Z</time>
      </trkpt>
      <trkpt lat="45.99667" lon="4.90309">
        <ele>304</ele>
        <time>2017-03-15T10:39:57Z</time>
      </trkpt>
      <trkpt lat="45.99667" lon="4.90313">
        <ele>304</ele>
        <time>2017-03-15T10:39:58Z</time>
      </trkpt>
      <trkpt lat="45.99667" lon="4.90321">
        <ele>302</ele>
        <time>2017-03-15T10:40:07Z</time>
      </trkpt>
      <trkpt lat="45.99666" lon="4.90322">
        <ele>302</ele>
        <time>2017-03-15T10:40:08Z</time>
      </trkpt>
      <trkpt lat="45.99666" lon="4.90325">
        <ele>302</ele>
        <time>2017-03-15T10:40:09Z</time>
      </trkpt>
      <trkpt lat="45.99673" lon="4.90332">
        <ele>303</ele>
        <time>2017-03-15T10:40:14Z</time>
      </trkpt>
      <trkpt lat="45.99675" lon="4.90332">
        <ele>303</ele>
        <time>2017-03-15T10:40:15Z</time>
      </trkpt>
      <trkpt lat="45.99681" lon="4.90339">
        <ele>302</ele>
        <time>2017-03-15T10:40:18Z</time>
      </trkpt>
      <trkpt lat="45.99681" lon="4.90344">
        <ele>302</ele>
        <time>2017-03-15T10:40:19Z</time>
      </trkpt>
      <trkpt lat="45.99679" lon="4.90349">
        <ele>302</ele>
        <time>2017-03-15T10:40:20Z</time>
      </trkpt>
      <trkpt lat="45.99677" lon="4.90356">
        <ele>302</ele>
        <time>2017-03-15T10:40:21Z</time>
      </trkpt>
      <trkpt lat="45.99677" lon="4.90363">
        <ele>302</ele>
        <time>2017-03-15T10:40:22Z</time>
      </trkpt>
      <trkpt lat="45.99676" lon="4.90371">
        <ele>302</ele>
        <time>2017-03-15T10:40:23Z</time>
      </trkpt>
      <trkpt lat="45.99674" lon="4.9038">
        <ele>302</ele>
        <time>2017-03-15T10:40:24Z</time>
      </trkpt>
      <trkpt lat="45.99672" lon="4.90389">
        <ele>302</ele>
        <time>2017-03-15T10:40:25Z</time>
      </trkpt>
      <trkpt lat="45.99672" lon="4.90399">
        <ele>302</ele>
        <time>2017-03-15T10:40:26Z</time>
      </trkpt>
      <trkpt lat="45.9967" lon="4.90408">
        <ele>301</ele>
        <time>2017-03-15T10:40:27Z</time>
      </trkpt>
      <trkpt lat="45.99669" lon="4.90417">
        <ele>301</ele>
        <time>2017-03-15T10:40:28Z</time>
      </trkpt>
      <trkpt lat="45.99666" lon="4.90424">
        <ele>301</ele>
        <time>2017-03-15T10:40:29Z</time>
      </trkpt>
      <trkpt lat="45.99663" lon="4.9043">
        <ele>300</ele>
        <time>2017-03-15T10:40:30Z</time>
      </trkpt>
      <trkpt lat="45.99659" lon="4.90435">
        <ele>300</ele>
        <time>2017-03-15T10:40:31Z</time>
      </trkpt>
      <trkpt lat="45.99655" lon="4.90438">
        <ele>300</ele>
        <time>2017-03-15T10:40:32Z</time>
      </trkpt>
      <trkpt lat="45.9965" lon="4.90439">
        <ele>300</ele>
        <time>2017-03-15T10:40:33Z</time>
      </trkpt>
      <trkpt lat="45.99645" lon="4.90441">
        <ele>300</ele>
        <time>2017-03-15T10:40:34Z</time>
      </trkpt>
      <trkpt lat="45.9964" lon="4.90443">
        <ele>300</ele>
        <time>2017-03-15T10:40:35Z</time>
      </trkpt>
      <trkpt lat="45.99635" lon="4.90444">
        <ele>300</ele>
        <time>2017-03-15T10:40:36Z</time>
      </trkpt>
      <trkpt lat="45.9963" lon="4.90445">
        <ele>300</ele>
        <time>2017-03-15T10:40:37Z</time>
      </trkpt>
      <trkpt lat="45.99625" lon="4.90446">
        <ele>300</ele>
        <time>2017-03-15T10:40:38Z</time>
      </trkpt>
      <trkpt lat="45.9962" lon="4.90446">
        <ele>300</ele>
        <time>2017-03-15T10:40:39Z</time>
      </trkpt>
      <trkpt lat="45.99615" lon="4.90447">
        <ele>300</ele>
        <time>2017-03-15T10:40:40Z</time>
      </trkpt>
      <trkpt lat="45.99609" lon="4.90447">
        <ele>300</ele>
        <time>2017-03-15T10:40:41Z</time>
      </trkpt>
      <trkpt lat="45.99604" lon="4.90448">
        <ele>300</ele>
        <time>2017-03-15T10:40:42Z</time>
      </trkpt>
      <trkpt lat="45.99599" lon="4.90448">
        <ele>300</ele>
        <time>2017-03-15T10:40:43Z</time>
      </trkpt>
      <trkpt lat="45.99593" lon="4.90448">
        <ele>300</ele>
        <time>2017-03-15T10:40:44Z</time>
      </trkpt>
      <trkpt lat="45.99588" lon="4.9045">
        <ele>300</ele>
        <time>2017-03-15T10:40:45Z</time>
      </trkpt>
      <trkpt lat="45.99583" lon="4.90452">
        <ele>299</ele>
        <time>2017-03-15T10:40:46Z</time>
      </trkpt>
      <trkpt lat="45.99578" lon="4.90455">
        <ele>299</ele>
        <time>2017-03-15T10:40:47Z</time>
      </trkpt>
      <trkpt lat="45.99573" lon="4.9046">
        <ele>299</ele>
        <time>2017-03-15T10:40:48Z</time>
      </trkpt>
      <trkpt lat="45.9957" lon="4.90464">
        <ele>299</ele>
        <time>2017-03-15T10:40:49Z</time>
      </trkpt>
      <trkpt lat="45.99566" lon="4.90469">
        <ele>299</ele>
        <time>2017-03-15T10:40:50Z</time>
      </trkpt>
      <trkpt lat="45.99562" lon="4.90474">
        <ele>299</ele>
        <time>2017-03-15T10:40:51Z</time>
      </trkpt>
      <trkpt lat="45.99558" lon="4.9048">
        <ele>299</ele>
        <time>2017-03-15T10:40:52Z</time>
      </trkpt>
      <trkpt lat="45.99553" lon="4.90485">
        <ele>299</ele>
        <time>2017-03-15T10:40:53Z</time>
      </trkpt>
      <trkpt lat="45.99548" lon="4.90491">
        <ele>299</ele>
        <time>2017-03-15T10:40:54Z</time>
      </trkpt>
      <trkpt lat="45.99543" lon="4.90497">
        <ele>299</ele>
        <time>2017-03-15T10:40:55Z</time>
      </trkpt>
      <trkpt lat="45.99538" lon="4.90503">
        <ele>299</ele>
        <time>2017-03-15T10:40:56Z</time>
      </trkpt>
      <trkpt lat="45.99533" lon="4.90509">
        <ele>299</ele>
        <time>2017-03-15T10:40:57Z</time>
      </trkpt>
      <trkpt lat="45.99528" lon="4.90515">
        <ele>299</ele>
        <time>2017-03-15T10:40:58Z</time>
      </trkpt>
      <trkpt lat="45.99523" lon="4.90521">
        <ele>299</ele>
        <time>2017-03-15T10:40:59Z</time>
      </trkpt>
      <trkpt lat="45.99519" lon="4.90526">
        <ele>299</ele>
        <time>2017-03-15T10:41:00Z</time>
      </trkpt>
      <trkpt lat="45.99514" lon="4.90531">
        <ele>299</ele>
        <time>2017-03-15T10:41:01Z</time>
      </trkpt>
      <trkpt lat="45.99509" lon="4.90536">
        <ele>299</ele>
        <time>2017-03-15T10:41:02Z</time>
      </trkpt>
      <trkpt lat="45.99504" lon="4.90542">
        <ele>299</ele>
        <time>2017-03-15T10:41:03Z</time>
      </trkpt>
      <trkpt lat="45.99499" lon="4.90548">
        <ele>299</ele>
        <time>2017-03-15T10:41:04Z</time>
      </trkpt>
      <trkpt lat="45.99495" lon="4.90553">
        <ele>299</ele>
        <time>2017-03-15T10:41:05Z</time>
      </trkpt>
      <trkpt lat="45.9949" lon="4.90558">
        <ele>299</ele>
        <time>2017-03-15T10:41:06Z</time>
      </trkpt>
      <trkpt lat="45.99486" lon="4.90563">
        <ele>299</ele>
        <time>2017-03-15T10:41:07Z</time>
      </trkpt>
      <trkpt lat="45.99482" lon="4.90568">
        <ele>299</ele>
        <time>2017-03-15T10:41:08Z</time>
      </trkpt>
      <trkpt lat="45.99477" lon="4.90573">
        <ele>299</ele>
        <time>2017-03-15T10:41:09Z</time>
      </trkpt>
      <trkpt lat="45.99473" lon="4.90578">
        <ele>299</ele>
        <time>2017-03-15T10:41:10Z</time>
      </trkpt>
      <trkpt lat="45.99469" lon="4.90584">
        <ele>298</ele>
        <time>2017-03-15T10:41:11Z</time>
      </trkpt>
      <trkpt lat="45.99465" lon="4.90589">
        <ele>298</ele>
        <time>2017-03-15T10:41:12Z</time>
      </trkpt>
      <trkpt lat="45.99462" lon="4.90594">
        <ele>298</ele>
        <time>2017-03-15T10:41:13Z</time>
      </trkpt>
      <trkpt lat="45.99458" lon="4.90599">
        <ele>298</ele>
        <time>2017-03-15T10:41:14Z</time>
      </trkpt>
      <trkpt lat="45.99454" lon="4.90603">
        <ele>298</ele>
        <time>2017-03-15T10:41:15Z</time>
      </trkpt>
      <trkpt lat="45.9945" lon="4.90608">
        <ele>298</ele>
        <time>2017-03-15T10:41:16Z</time>
      </trkpt>
      <trkpt lat="45.99445" lon="4.90613">
        <ele>298</ele>
        <time>2017-03-15T10:41:17Z</time>
      </trkpt>
      <trkpt lat="45.9944" lon="4.90618">
        <ele>298</ele>
        <time>2017-03-15T10:41:18Z</time>
      </trkpt>
      <trkpt lat="45.99435" lon="4.90624">
        <ele>298</ele>
        <time>2017-03-15T10:41:19Z</time>
      </trkpt>
      <trkpt lat="45.9943" lon="4.90628">
        <ele>298</ele>
        <time>2017-03-15T10:41:20Z</time>
      </trkpt>
      <trkpt lat="45.99425" lon="4.90633">
        <ele>298</ele>
        <time>2017-03-15T10:41:21Z</time>
      </trkpt>
      <trkpt lat="45.9942" lon="4.9064">
        <ele>298</ele>
        <time>2017-03-15T10:41:22Z</time>
      </trkpt>
      <trkpt lat="45.99415" lon="4.90646">
        <ele>298</ele>
        <time>2017-03-15T10:41:23Z</time>
      </trkpt>
      <trkpt lat="45.99411" lon="4.90652">
        <ele>298</ele>
        <time>2017-03-15T10:41:24Z</time>
      </trkpt>
      <trkpt lat="45.99406" lon="4.90658">
        <ele>298</ele>
        <time>2017-03-15T10:41:25Z</time>
      </trkpt>
      <trkpt lat="45.99401" lon="4.90664">
        <ele>298</ele>
        <time>2017-03-15T10:41:26Z</time>
      </trkpt>
      <trkpt lat="45.99396" lon="4.9067">
        <ele>298</ele>
        <time>2017-03-15T10:41:27Z</time>
      </trkpt>
      <trkpt lat="45.99392" lon="4.90676">
        <ele>298</ele>
        <time>2017-03-15T10:41:28Z</time>
      </trkpt>
      <trkpt lat="45.99387" lon="4.90682">
        <ele>298</ele>
        <time>2017-03-15T10:41:29Z</time>
      </trkpt>
      <trkpt lat="45.99382" lon="4.90687">
        <ele>298</ele>
        <time>2017-03-15T10:41:30Z</time>
      </trkpt>
      <trkpt lat="45.99378" lon="4.90693">
        <ele>298</ele>
        <time>2017-03-15T10:41:31Z</time>
      </trkpt>
      <trkpt lat="45.99373" lon="4.907">
        <ele>299</ele>
        <time>2017-03-15T10:41:32Z</time>
      </trkpt>
      <trkpt lat="45.99368" lon="4.90706">
        <ele>299</ele>
        <time>2017-03-15T10:41:33Z</time>
      </trkpt>
      <trkpt lat="45.99363" lon="4.90712">
        <ele>299</ele>
        <time>2017-03-15T10:41:34Z</time>
      </trkpt>
      <trkpt lat="45.99359" lon="4.90717">
        <ele>299</ele>
        <time>2017-03-15T10:41:35Z</time>
      </trkpt>
      <trkpt lat="45.99354" lon="4.90723">
        <ele>299</ele>
        <time>2017-03-15T10:41:36Z</time>
      </trkpt>
      <trkpt lat="45.99349" lon="4.90729">
        <ele>299</ele>
        <time>2017-03-15T10:41:37Z</time>
      </trkpt>
      <trkpt lat="45.99344" lon="4.90735">
        <ele>299</ele>
        <time>2017-03-15T10:41:38Z</time>
      </trkpt>
      <trkpt lat="45.99339" lon="4.90741">
        <ele>299</ele>
        <time>2017-03-15T10:41:39Z</time>
      </trkpt>
      <trkpt lat="45.99334" lon="4.90747">
        <ele>300</ele>
        <time>2017-03-15T10:41:40Z</time>
      </trkpt>
      <trkpt lat="45.99329" lon="4.90754">
        <ele>300</ele>
        <time>2017-03-15T10:41:41Z</time>
      </trkpt>
      <trkpt lat="45.99325" lon="4.90759">
        <ele>300</ele>
        <time>2017-03-15T10:41:42Z</time>
      </trkpt>
      <trkpt lat="45.9932" lon="4.90765">
        <ele>300</ele>
        <time>2017-03-15T10:41:43Z</time>
      </trkpt>
      <trkpt lat="45.99315" lon="4.90771">
        <ele>300</ele>
        <time>2017-03-15T10:41:44Z</time>
      </trkpt>
      <trkpt lat="45.99311" lon="4.90776">
        <ele>300</ele>
        <time>2017-03-15T10:41:45Z</time>
      </trkpt>
      <trkpt lat="45.99307" lon="4.90781">
        <ele>300</ele>
        <time>2017-03-15T10:41:46Z</time>
      </trkpt>
      <trkpt lat="45.99303" lon="4.90785">
        <ele>300</ele>
        <time>2017-03-15T10:41:47Z</time>
      </trkpt>
      <trkpt lat="45.99299" lon="4.9079">
        <ele>300</ele>
        <time>2017-03-15T10:41:48Z</time>
      </trkpt>
      <trkpt lat="45.99295" lon="4.90794">
        <ele>300</ele>
        <time>2017-03-15T10:41:49Z</time>
      </trkpt>
      <trkpt lat="45.9929" lon="4.90799">
        <ele>300</ele>
        <time>2017-03-15T10:41:50Z</time>
      </trkpt>
      <trkpt lat="45.99286" lon="4.90804">
        <ele>300</ele>
        <time>2017-03-15T10:41:51Z</time>
      </trkpt>
      <trkpt lat="45.99282" lon="4.9081">
        <ele>300</ele>
        <time>2017-03-15T10:41:52Z</time>
      </trkpt>
      <trkpt lat="45.99277" lon="4.90816">
        <ele>300</ele>
        <time>2017-03-15T10:41:53Z</time>
      </trkpt>
      <trkpt lat="45.99272" lon="4.90823">
        <ele>300</ele>
        <time>2017-03-15T10:41:54Z</time>
      </trkpt>
      <trkpt lat="45.99266" lon="4.90829">
        <ele>300</ele>
        <time>2017-03-15T10:41:55Z</time>
      </trkpt>
      <trkpt lat="45.99261" lon="4.90835">
        <ele>300</ele>
        <time>2017-03-15T10:41:56Z</time>
      </trkpt>
      <trkpt lat="45.99256" lon="4.90842">
        <ele>300</ele>
        <time>2017-03-15T10:41:57Z</time>
      </trkpt>
      <trkpt lat="45.9925" lon="4.90848">
        <ele>300</ele>
        <time>2017-03-15T10:41:58Z</time>
      </trkpt>
      <trkpt lat="45.99245" lon="4.90854">
        <ele>300</ele>
        <time>2017-03-15T10:41:59Z</time>
      </trkpt>
      <trkpt lat="45.9924" lon="4.90861">
        <ele>300</ele>
        <time>2017-03-15T10:42:00Z</time>
      </trkpt>
      <trkpt lat="45.99235" lon="4.90867">
        <ele>300</ele>
        <time>2017-03-15T10:42:01Z</time>
      </trkpt>
      <trkpt lat="45.99229" lon="4.90874">
        <ele>300</ele>
        <time>2017-03-15T10:42:02Z</time>
      </trkpt>
      <trkpt lat="45.99224" lon="4.90881">
        <ele>299</ele>
        <time>2017-03-15T10:42:03Z</time>
      </trkpt>
      <trkpt lat="45.99219" lon="4.90887">
        <ele>299</ele>
        <time>2017-03-15T10:42:04Z</time>
      </trkpt>
      <trkpt lat="45.99214" lon="4.90894">
        <ele>299</ele>
        <time>2017-03-15T10:42:05Z</time>
      </trkpt>
      <trkpt lat="45.99209" lon="4.909">
        <ele>299</ele>
        <time>2017-03-15T10:42:06Z</time>
      </trkpt>
      <trkpt lat="45.99204" lon="4.90906">
        <ele>300</ele>
        <time>2017-03-15T10:42:07Z</time>
      </trkpt>
      <trkpt lat="45.99199" lon="4.90912">
        <ele>300</ele>
        <time>2017-03-15T10:42:08Z</time>
      </trkpt>
      <trkpt lat="45.99194" lon="4.90918">
        <ele>300</ele>
        <time>2017-03-15T10:42:09Z</time>
      </trkpt>
      <trkpt lat="45.99189" lon="4.90923">
        <ele>300</ele>
        <time>2017-03-15T10:42:10Z</time>
      </trkpt>
      <trkpt lat="45.99184" lon="4.90929">
        <ele>300</ele>
        <time>2017-03-15T10:42:11Z</time>
      </trkpt>
      <trkpt lat="45.99179" lon="4.90935">
        <ele>300</ele>
        <time>2017-03-15T10:42:12Z</time>
      </trkpt>
      <trkpt lat="45.99174" lon="4.90941">
        <ele>300</ele>
        <time>2017-03-15T10:42:13Z</time>
      </trkpt>
      <trkpt lat="45.99169" lon="4.90947">
        <ele>300</ele>
        <time>2017-03-15T10:42:14Z</time>
      </trkpt>
      <trkpt lat="45.99164" lon="4.90952">
        <ele>300</ele>
        <time>2017-03-15T10:42:15Z</time>
      </trkpt>
      <trkpt lat="45.99159" lon="4.90959">
        <ele>300</ele>
        <time>2017-03-15T10:42:16Z</time>
      </trkpt>
      <trkpt lat="45.99155" lon="4.90964">
        <ele>300</ele>
        <time>2017-03-15T10:42:17Z</time>
      </trkpt>
      <trkpt lat="45.9915" lon="4.9097">
        <ele>300</ele>
        <time>2017-03-15T10:42:18Z</time>
      </trkpt>
      <trkpt lat="45.99145" lon="4.90977">
        <ele>300</ele>
        <time>2017-03-15T10:42:19Z</time>
      </trkpt>
      <trkpt lat="45.99141" lon="4.90983">
        <ele>301</ele>
        <time>2017-03-15T10:42:20Z</time>
      </trkpt>
      <trkpt lat="45.99136" lon="4.90989">
        <ele>301</ele>
        <time>2017-03-15T10:42:21Z</time>
      </trkpt>
      <trkpt lat="45.99131" lon="4.90995">
        <ele>301</ele>
        <time>2017-03-15T10:42:22Z</time>
      </trkpt>
      <trkpt lat="45.99126" lon="4.91001">
        <ele>301</ele>
        <time>2017-03-15T10:42:23Z</time>
      </trkpt>
      <trkpt lat="45.99122" lon="4.91007">
        <ele>301</ele>
        <time>2017-03-15T10:42:24Z</time>
      </trkpt>
      <trkpt lat="45.99117" lon="4.91013">
        <ele>301</ele>
        <time>2017-03-15T10:42:25Z</time>
      </trkpt>
      <trkpt lat="45.99112" lon="4.91019">
        <ele>301</ele>
        <time>2017-03-15T10:42:26Z</time>
      </trkpt>
      <trkpt lat="45.99108" lon="4.91025">
        <ele>301</ele>
        <time>2017-03-15T10:42:27Z</time>
      </trkpt>
      <trkpt lat="45.99103" lon="4.91031">
        <ele>301</ele>
        <time>2017-03-15T10:42:28Z</time>
      </trkpt>
      <trkpt lat="45.99098" lon="4.91037">
        <ele>301</ele>
        <time>2017-03-15T10:42:29Z</time>
      </trkpt>
      <trkpt lat="45.99094" lon="4.91043">
        <ele>301</ele>
        <time>2017-03-15T10:42:30Z</time>
      </trkpt>
      <trkpt lat="45.99089" lon="4.91048">
        <ele>301</ele>
        <time>2017-03-15T10:42:31Z</time>
      </trkpt>
      <trkpt lat="45.99085" lon="4.91054">
        <ele>301</ele>
        <time>2017-03-15T10:42:32Z</time>
      </trkpt>
      <trkpt lat="45.9908" lon="4.9106">
        <ele>300</ele>
        <time>2017-03-15T10:42:33Z</time>
      </trkpt>
      <trkpt lat="45.99075" lon="4.91065">
        <ele>300</ele>
        <time>2017-03-15T10:42:34Z</time>
      </trkpt>
      <trkpt lat="45.99069" lon="4.91071">
        <ele>300</ele>
        <time>2017-03-15T10:42:35Z</time>
      </trkpt>
      <trkpt lat="45.99064" lon="4.91078">
        <ele>300</ele>
        <time>2017-03-15T10:42:36Z</time>
      </trkpt>
      <trkpt lat="45.99059" lon="4.91083">
        <ele>300</ele>
        <time>2017-03-15T10:42:37Z</time>
      </trkpt>
      <trkpt lat="45.99054" lon="4.91089">
        <ele>299</ele>
        <time>2017-03-15T10:42:38Z</time>
      </trkpt>
      <trkpt lat="45.9905" lon="4.91095">
        <ele>299</ele>
        <time>2017-03-15T10:42:39Z</time>
      </trkpt>
      <trkpt lat="45.99045" lon="4.91102">
        <ele>299</ele>
        <time>2017-03-15T10:42:40Z</time>
      </trkpt>
      <trkpt lat="45.99041" lon="4.91107">
        <ele>299</ele>
        <time>2017-03-15T10:42:41Z</time>
      </trkpt>
      <trkpt lat="45.99036" lon="4.91113">
        <ele>299</ele>
        <time>2017-03-15T10:42:42Z</time>
      </trkpt>
      <trkpt lat="45.99032" lon="4.91119">
        <ele>299</ele>
        <time>2017-03-15T10:42:43Z</time>
      </trkpt>
      <trkpt lat="45.99027" lon="4.91125">
        <ele>299</ele>
        <time>2017-03-15T10:42:44Z</time>
      </trkpt>
      <trkpt lat="45.99022" lon="4.9113">
        <ele>299</ele>
        <time>2017-03-15T10:42:45Z</time>
      </trkpt>
      <trkpt lat="45.99018" lon="4.91135">
        <ele>299</ele>
        <time>2017-03-15T10:42:46Z</time>
      </trkpt>
      <trkpt lat="45.99013" lon="4.91141">
        <ele>299</ele>
        <time>2017-03-15T10:42:47Z</time>
      </trkpt>
      <trkpt lat="45.99008" lon="4.91147">
        <ele>299</ele>
        <time>2017-03-15T10:42:48Z</time>
      </trkpt>
      <trkpt lat="45.99004" lon="4.91153">
        <ele>299</ele>
        <time>2017-03-15T10:42:49Z</time>
      </trkpt>
      <trkpt lat="45.98999" lon="4.91159">
        <ele>299</ele>
        <time>2017-03-15T10:42:50Z</time>
      </trkpt>
      <trkpt lat="45.98995" lon="4.91166">
        <ele>299</ele>
        <time>2017-03-15T10:42:51Z</time>
      </trkpt>
      <trkpt lat="45.9899" lon="4.91172">
        <ele>299</ele>
        <time>2017-03-15T10:42:52Z</time>
      </trkpt>
      <trkpt lat="45.98986" lon="4.91178">
        <ele>299</ele>
        <time>2017-03-15T10:42:53Z</time>
      </trkpt>
      <trkpt lat="45.98981" lon="4.91184">
        <ele>299</ele>
        <time>2017-03-15T10:42:54Z</time>
      </trkpt>
      <trkpt lat="45.98976" lon="4.9119">
        <ele>299</ele>
        <time>2017-03-15T10:42:55Z</time>
      </trkpt>
      <trkpt lat="45.98972" lon="4.91195">
        <ele>299</ele>
        <time>2017-03-15T10:42:56Z</time>
      </trkpt>
      <trkpt lat="45.98967" lon="4.91201">
        <ele>299</ele>
        <time>2017-03-15T10:42:57Z</time>
      </trkpt>
      <trkpt lat="45.98962" lon="4.91207">
        <ele>299</ele>
        <time>2017-03-15T10:42:58Z</time>
      </trkpt>
      <trkpt lat="45.98957" lon="4.91213">
        <ele>299</ele>
        <time>2017-03-15T10:42:59Z</time>
      </trkpt>
      <trkpt lat="45.98952" lon="4.91219">
        <ele>299</ele>
        <time>2017-03-15T10:43:00Z</time>
      </trkpt>
      <trkpt lat="45.98948" lon="4.91225">
        <ele>299</ele>
        <time>2017-03-15T10:43:01Z</time>
      </trkpt>
      <trkpt lat="45.98943" lon="4.9123">
        <ele>299</ele>
        <time>2017-03-15T10:43:02Z</time>
      </trkpt>
      <trkpt lat="45.98938" lon="4.91236">
        <ele>299</ele>
        <time>2017-03-15T10:43:03Z</time>
      </trkpt>
      <trkpt lat="45.98934" lon="4.91242">
        <ele>299</ele>
        <time>2017-03-15T10:43:04Z</time>
      </trkpt>
      <trkpt lat="45.9893" lon="4.91247">
        <ele>299</ele>
        <time>2017-03-15T10:43:05Z</time>
      </trkpt>
      <trkpt lat="45.98925" lon="4.91252">
        <ele>299</ele>
        <time>2017-03-15T10:43:06Z</time>
      </trkpt>
      <trkpt lat="45.98921" lon="4.91258">
        <ele>299</ele>
        <time>2017-03-15T10:43:07Z</time>
      </trkpt>
      <trkpt lat="45.98916" lon="4.91264">
        <ele>299</ele>
        <time>2017-03-15T10:43:08Z</time>
      </trkpt>
      <trkpt lat="45.98911" lon="4.9127">
        <ele>299</ele>
        <time>2017-03-15T10:43:09Z</time>
      </trkpt>
      <trkpt lat="45.98906" lon="4.91276">
        <ele>299</ele>
        <time>2017-03-15T10:43:10Z</time>
      </trkpt>
      <trkpt lat="45.98901" lon="4.91283">
        <ele>299</ele>
        <time>2017-03-15T10:43:11Z</time>
      </trkpt>
      <trkpt lat="45.98896" lon="4.91289">
        <ele>299</ele>
        <time>2017-03-15T10:43:12Z</time>
      </trkpt>
      <trkpt lat="45.98891" lon="4.91295">
        <ele>299</ele>
        <time>2017-03-15T10:43:13Z</time>
      </trkpt>
      <trkpt lat="45.98886" lon="4.913">
        <ele>299</ele>
        <time>2017-03-15T10:43:14Z</time>
      </trkpt>
      <trkpt lat="45.98881" lon="4.91306">
        <ele>299</ele>
        <time>2017-03-15T10:43:15Z</time>
      </trkpt>
      <trkpt lat="45.98877" lon="4.91312">
        <ele>299</ele>
        <time>2017-03-15T10:43:16Z</time>
      </trkpt>
      <trkpt lat="45.98872" lon="4.91318">
        <ele>298</ele>
        <time>2017-03-15T10:43:17Z</time>
      </trkpt>
      <trkpt lat="45.98867" lon="4.91324">
        <ele>298</ele>
        <time>2017-03-15T10:43:18Z</time>
      </trkpt>
      <trkpt lat="45.98862" lon="4.91329">
        <ele>298</ele>
        <time>2017-03-15T10:43:19Z</time>
      </trkpt>
      <trkpt lat="45.98857" lon="4.91335">
        <ele>298</ele>
        <time>2017-03-15T10:43:20Z</time>
      </trkpt>
      <trkpt lat="45.98852" lon="4.91341">
        <ele>298</ele>
        <time>2017-03-15T10:43:21Z</time>
      </trkpt>
      <trkpt lat="45.98848" lon="4.91347">
        <ele>298</ele>
        <time>2017-03-15T10:43:22Z</time>
      </trkpt>
      <trkpt lat="45.98843" lon="4.91353">
        <ele>298</ele>
        <time>2017-03-15T10:43:23Z</time>
      </trkpt>
      <trkpt lat="45.98839" lon="4.91358">
        <ele>298</ele>
        <time>2017-03-15T10:43:24Z</time>
      </trkpt>
      <trkpt lat="45.98834" lon="4.91364">
        <ele>298</ele>
        <time>2017-03-15T10:43:25Z</time>
      </trkpt>
      <trkpt lat="45.9883" lon="4.9137">
        <ele>298</ele>
        <time>2017-03-15T10:43:26Z</time>
      </trkpt>
      <trkpt lat="45.98825" lon="4.91375">
        <ele>298</ele>
        <time>2017-03-15T10:43:27Z</time>
      </trkpt>
      <trkpt lat="45.98821" lon="4.91381">
        <ele>299</ele>
        <time>2017-03-15T10:43:28Z</time>
      </trkpt>
      <trkpt lat="45.98816" lon="4.91386">
        <ele>299</ele>
        <time>2017-03-15T10:43:29Z</time>
      </trkpt>
      <trkpt lat="45.98811" lon="4.91391">
        <ele>299</ele>
        <time>2017-03-15T10:43:30Z</time>
      </trkpt>
      <trkpt lat="45.98807" lon="4.91397">
        <ele>299</ele>
        <time>2017-03-15T10:43:31Z</time>
      </trkpt>
      <trkpt lat="45.98802" lon="4.91403">
        <ele>299</ele>
        <time>2017-03-15T10:43:32Z</time>
      </trkpt>
      <trkpt lat="45.98798" lon="4.91409">
        <ele>299</ele>
        <time>2017-03-15T10:43:33Z</time>
      </trkpt>
      <trkpt lat="45.98793" lon="4.91415">
        <ele>299</ele>
        <time>2017-03-15T10:43:34Z</time>
      </trkpt>
      <trkpt lat="45.98788" lon="4.9142">
        <ele>298</ele>
        <time>2017-03-15T10:43:35Z</time>
      </trkpt>
      <trkpt lat="45.98783" lon="4.91427">
        <ele>298</ele>
        <time>2017-03-15T10:43:36Z</time>
      </trkpt>
      <trkpt lat="45.98778" lon="4.91433">
        <ele>298</ele>
        <time>2017-03-15T10:43:37Z</time>
      </trkpt>
      <trkpt lat="45.98773" lon="4.9144">
        <ele>298</ele>
        <time>2017-03-15T10:43:38Z</time>
      </trkpt>
      <trkpt lat="45.98768" lon="4.91446">
        <ele>298</ele>
        <time>2017-03-15T10:43:39Z</time>
      </trkpt>
      <trkpt lat="45.98762" lon="4.91453">
        <ele>298</ele>
        <time>2017-03-15T10:43:40Z</time>
      </trkpt>
      <trkpt lat="45.98757" lon="4.91459">
        <ele>298</ele>
        <time>2017-03-15T10:43:41Z</time>
      </trkpt>
      <trkpt lat="45.98752" lon="4.91466">
        <ele>298</ele>
        <time>2017-03-15T10:43:42Z</time>
      </trkpt>
      <trkpt lat="45.98747" lon="4.91472">
        <ele>299</ele>
        <time>2017-03-15T10:43:43Z</time>
      </trkpt>
      <trkpt lat="45.98742" lon="4.91478">
        <ele>299</ele>
        <time>2017-03-15T10:43:44Z</time>
      </trkpt>
      <trkpt lat="45.98737" lon="4.91483">
        <ele>299</ele>
        <time>2017-03-15T10:43:45Z</time>
      </trkpt>
      <trkpt lat="45.98732" lon="4.91488">
        <ele>299</ele>
        <time>2017-03-15T10:43:46Z</time>
      </trkpt>
      <trkpt lat="45.98727" lon="4.91495">
        <ele>299</ele>
        <time>2017-03-15T10:43:47Z</time>
      </trkpt>
      <trkpt lat="45.98722" lon="4.91501">
        <ele>299</ele>
        <time>2017-03-15T10:43:48Z</time>
      </trkpt>
      <trkpt lat="45.98717" lon="4.91507">
        <ele>299</ele>
        <time>2017-03-15T10:43:49Z</time>
      </trkpt>
      <trkpt lat="45.98712" lon="4.91513">
        <ele>299</ele>
        <time>2017-03-15T10:43:50Z</time>
      </trkpt>
      <trkpt lat="45.98707" lon="4.91518">
        <ele>299</ele>
        <time>2017-03-15T10:43:51Z</time>
      </trkpt>
      <trkpt lat="45.98702" lon="4.91523">
        <ele>299</ele>
        <time>2017-03-15T10:43:52Z</time>
      </trkpt>
      <trkpt lat="45.98697" lon="4.9153">
        <ele>299</ele>
        <time>2017-03-15T10:43:53Z</time>
      </trkpt>
      <trkpt lat="45.98692" lon="4.91536">
        <ele>299</ele>
        <time>2017-03-15T10:43:54Z</time>
      </trkpt>
      <trkpt lat="45.98687" lon="4.91543">
        <ele>299</ele>
        <time>2017-03-15T10:43:55Z</time>
      </trkpt>
      <trkpt lat="45.98682" lon="4.91549">
        <ele>299</ele>
        <time>2017-03-15T10:43:56Z</time>
      </trkpt>
      <trkpt lat="45.98677" lon="4.91555">
        <ele>299</ele>
        <time>2017-03-15T10:43:57Z</time>
      </trkpt>
      <trkpt lat="45.98671" lon="4.91561">
        <ele>299</ele>
        <time>2017-03-15T10:43:58Z</time>
      </trkpt>
      <trkpt lat="45.98665" lon="4.91568">
        <ele>299</ele>
        <time>2017-03-15T10:43:59Z</time>
      </trkpt>
      <trkpt lat="45.9866" lon="4.91574">
        <ele>299</ele>
        <time>2017-03-15T10:44:00Z</time>
      </trkpt>
      <trkpt lat="45.98654" lon="4.91581">
        <ele>299</ele>
        <time>2017-03-15T10:44:01Z</time>
      </trkpt>
      <trkpt lat="45.98649" lon="4.91587">
        <ele>299</ele>
        <time>2017-03-15T10:44:02Z</time>
      </trkpt>
      <trkpt lat="45.98644" lon="4.91594">
        <ele>299</ele>
        <time>2017-03-15T10:44:03Z</time>
      </trkpt>
      <trkpt lat="45.98639" lon="4.916">
        <ele>298</ele>
        <time>2017-03-15T10:44:04Z</time>
      </trkpt>
      <trkpt lat="45.98635" lon="4.91606">
        <ele>298</ele>
        <time>2017-03-15T10:44:05Z</time>
      </trkpt>
      <trkpt lat="45.9863" lon="4.91612">
        <ele>298</ele>
        <time>2017-03-15T10:44:06Z</time>
      </trkpt>
      <trkpt lat="45.98625" lon="4.91618">
        <ele>298</ele>
        <time>2017-03-15T10:44:07Z</time>
      </trkpt>
      <trkpt lat="45.9862" lon="4.91624">
        <ele>298</ele>
        <time>2017-03-15T10:44:08Z</time>
      </trkpt>
      <trkpt lat="45.98615" lon="4.91629">
        <ele>298</ele>
        <time>2017-03-15T10:44:09Z</time>
      </trkpt>
      <trkpt lat="45.9861" lon="4.91635">
        <ele>298</ele>
        <time>2017-03-15T10:44:10Z</time>
      </trkpt>
      <trkpt lat="45.98605" lon="4.9164">
        <ele>298</ele>
        <time>2017-03-15T10:44:11Z</time>
      </trkpt>
      <trkpt lat="45.986" lon="4.91646">
        <ele>298</ele>
        <time>2017-03-15T10:44:12Z</time>
      </trkpt>
      <trkpt lat="45.98595" lon="4.91653">
        <ele>298</ele>
        <time>2017-03-15T10:44:13Z</time>
      </trkpt>
      <trkpt lat="45.98589" lon="4.91659">
        <ele>298</ele>
        <time>2017-03-15T10:44:14Z</time>
      </trkpt>
      <trkpt lat="45.98584" lon="4.91666">
        <ele>298</ele>
        <time>2017-03-15T10:44:15Z</time>
      </trkpt>
      <trkpt lat="45.98579" lon="4.91672">
        <ele>298</ele>
        <time>2017-03-15T10:44:16Z</time>
      </trkpt>
      <trkpt lat="45.98574" lon="4.91679">
        <ele>298</ele>
        <time>2017-03-15T10:44:17Z</time>
      </trkpt>
      <trkpt lat="45.98569" lon="4.91685">
        <ele>298</ele>
        <time>2017-03-15T10:44:18Z</time>
      </trkpt>
      <trkpt lat="45.98564" lon="4.91692">
        <ele>298</ele>
        <time>2017-03-15T10:44:19Z</time>
      </trkpt>
      <trkpt lat="45.98559" lon="4.91698">
        <ele>298</ele>
        <time>2017-03-15T10:44:20Z</time>
      </trkpt>
      <trkpt lat="45.98554" lon="4.91705">
        <ele>298</ele>
        <time>2017-03-15T10:44:21Z</time>
      </trkpt>
      <trkpt lat="45.9855" lon="4.91712">
        <ele>298</ele>
        <time>2017-03-15T10:44:22Z</time>
      </trkpt>
      <trkpt lat="45.98545" lon="4.91718">
        <ele>298</ele>
        <time>2017-03-15T10:44:23Z</time>
      </trkpt>
      <trkpt lat="45.9854" lon="4.91724">
        <ele>297</ele>
        <time>2017-03-15T10:44:24Z</time>
      </trkpt>
      <trkpt lat="45.98536" lon="4.91729">
        <ele>297</ele>
        <time>2017-03-15T10:44:25Z</time>
      </trkpt>
      <trkpt lat="45.98532" lon="4.91734">
        <ele>297</ele>
        <time>2017-03-15T10:44:26Z</time>
      </trkpt>
      <trkpt lat="45.98527" lon="4.9174">
        <ele>297</ele>
        <time>2017-03-15T10:44:27Z</time>
      </trkpt>
      <trkpt lat="45.98523" lon="4.91745">
        <ele>297</ele>
        <time>2017-03-15T10:44:28Z</time>
      </trkpt>
      <trkpt lat="45.98519" lon="4.9175">
        <ele>297</ele>
        <time>2017-03-15T10:44:29Z</time>
      </trkpt>
      <trkpt lat="45.98514" lon="4.91756">
        <ele>297</ele>
        <time>2017-03-15T10:44:30Z</time>
      </trkpt>
      <trkpt lat="45.98509" lon="4.91762">
        <ele>297</ele>
        <time>2017-03-15T10:44:31Z</time>
      </trkpt>
      <trkpt lat="45.98505" lon="4.91768">
        <ele>297</ele>
        <time>2017-03-15T10:44:32Z</time>
      </trkpt>
      <trkpt lat="45.985" lon="4.91774">
        <ele>297</ele>
        <time>2017-03-15T10:44:33Z</time>
      </trkpt>
      <trkpt lat="45.98495" lon="4.9178">
        <ele>297</ele>
        <time>2017-03-15T10:44:34Z</time>
      </trkpt>
      <trkpt lat="45.9849" lon="4.91786">
        <ele>297</ele>
        <time>2017-03-15T10:44:35Z</time>
      </trkpt>
      <trkpt lat="45.98484" lon="4.91792">
        <ele>297</ele>
        <time>2017-03-15T10:44:36Z</time>
      </trkpt>
      <trkpt lat="45.98479" lon="4.91798">
        <ele>297</ele>
        <time>2017-03-15T10:44:37Z</time>
      </trkpt>
      <trkpt lat="45.98474" lon="4.91805">
        <ele>297</ele>
        <time>2017-03-15T10:44:38Z</time>
      </trkpt>
      <trkpt lat="45.9847" lon="4.91811">
        <ele>297</ele>
        <time>2017-03-15T10:44:39Z</time>
      </trkpt>
      <trkpt lat="45.98465" lon="4.91816">
        <ele>297</ele>
        <time>2017-03-15T10:44:40Z</time>
      </trkpt>
      <trkpt lat="45.9846" lon="4.91822">
        <ele>297</ele>
        <time>2017-03-15T10:44:41Z</time>
      </trkpt>
      <trkpt lat="45.98455" lon="4.91827">
        <ele>297</ele>
        <time>2017-03-15T10:44:42Z</time>
      </trkpt>
      <trkpt lat="45.98451" lon="4.91832">
        <ele>297</ele>
        <time>2017-03-15T10:44:43Z</time>
      </trkpt>
      <trkpt lat="45.98446" lon="4.91837">
        <ele>297</ele>
        <time>2017-03-15T10:44:44Z</time>
      </trkpt>
      <trkpt lat="45.98442" lon="4.91843">
        <ele>297</ele>
        <time>2017-03-15T10:44:45Z</time>
      </trkpt>
      <trkpt lat="45.98438" lon="4.91848">
        <ele>297</ele>
        <time>2017-03-15T10:44:46Z</time>
      </trkpt>
      <trkpt lat="45.98434" lon="4.91853">
        <ele>297</ele>
        <time>2017-03-15T10:44:47Z</time>
      </trkpt>
      <trkpt lat="45.9843" lon="4.91858">
        <ele>297</ele>
        <time>2017-03-15T10:44:48Z</time>
      </trkpt>
      <trkpt lat="45.98425" lon="4.91863">
        <ele>297</ele>
        <time>2017-03-15T10:44:49Z</time>
      </trkpt>
      <trkpt lat="45.98421" lon="4.91869">
        <ele>297</ele>
        <time>2017-03-15T10:44:50Z</time>
      </trkpt>
      <trkpt lat="45.98416" lon="4.91875">
        <ele>297</ele>
        <time>2017-03-15T10:44:51Z</time>
      </trkpt>
      <trkpt lat="45.98412" lon="4.9188">
        <ele>297</ele>
        <time>2017-03-15T10:44:52Z</time>
      </trkpt>
      <trkpt lat="45.98407" lon="4.91886">
        <ele>297</ele>
        <time>2017-03-15T10:44:53Z</time>
      </trkpt>
      <trkpt lat="45.98402" lon="4.91892">
        <ele>297</ele>
        <time>2017-03-15T10:44:54Z</time>
      </trkpt>
      <trkpt lat="45.98397" lon="4.91899">
        <ele>297</ele>
        <time>2017-03-15T10:44:55Z</time>
      </trkpt>
      <trkpt lat="45.98392" lon="4.91905">
        <ele>298</ele>
        <time>2017-03-15T10:44:56Z</time>
      </trkpt>
      <trkpt lat="45.98387" lon="4.91911">
        <ele>298</ele>
        <time>2017-03-15T10:44:57Z</time>
      </trkpt>
      <trkpt lat="45.98382" lon="4.91918">
        <ele>297</ele>
        <time>2017-03-15T10:44:58Z</time>
      </trkpt>
      <trkpt lat="45.98377" lon="4.91923">
        <ele>297</ele>
        <time>2017-03-15T10:44:59Z</time>
      </trkpt>
      <trkpt lat="45.98372" lon="4.91929">
        <ele>298</ele>
        <time>2017-03-15T10:45:00Z</time>
      </trkpt>
      <trkpt lat="45.98367" lon="4.91934">
        <ele>298</ele>
        <time>2017-03-15T10:45:01Z</time>
      </trkpt>
      <trkpt lat="45.98363" lon="4.9194">
        <ele>298</ele>
        <time>2017-03-15T10:45:02Z</time>
      </trkpt>
      <trkpt lat="45.98359" lon="4.91946">
        <ele>298</ele>
        <time>2017-03-15T10:45:03Z</time>
      </trkpt>
      <trkpt lat="45.98354" lon="4.91952">
        <ele>298</ele>
        <time>2017-03-15T10:45:04Z</time>
      </trkpt>
      <trkpt lat="45.9835" lon="4.91957">
        <ele>298</ele>
        <time>2017-03-15T10:45:05Z</time>
      </trkpt>
      <trkpt lat="45.98346" lon="4.91961">
        <ele>297</ele>
        <time>2017-03-15T10:45:06Z</time>
      </trkpt>
      <trkpt lat="45.98341" lon="4.91966">
        <ele>297</ele>
        <time>2017-03-15T10:45:07Z</time>
      </trkpt>
      <trkpt lat="45.98337" lon="4.91971">
        <ele>297</ele>
        <time>2017-03-15T10:45:08Z</time>
      </trkpt>
      <trkpt lat="45.98333" lon="4.91976">
        <ele>298</ele>
        <time>2017-03-15T10:45:09Z</time>
      </trkpt>
      <trkpt lat="45.98329" lon="4.91981">
        <ele>298</ele>
        <time>2017-03-15T10:45:10Z</time>
      </trkpt>
      <trkpt lat="45.98324" lon="4.91986">
        <ele>298</ele>
        <time>2017-03-15T10:45:11Z</time>
      </trkpt>
      <trkpt lat="45.9832" lon="4.91991">
        <ele>298</ele>
        <time>2017-03-15T10:45:12Z</time>
      </trkpt>
      <trkpt lat="45.98316" lon="4.91996">
        <ele>298</ele>
        <time>2017-03-15T10:45:13Z</time>
      </trkpt>
      <trkpt lat="45.98311" lon="4.92002">
        <ele>298</ele>
        <time>2017-03-15T10:45:14Z</time>
      </trkpt>
      <trkpt lat="45.98307" lon="4.92007">
        <ele>298</ele>
        <time>2017-03-15T10:45:15Z</time>
      </trkpt>
      <trkpt lat="45.98303" lon="4.92012">
        <ele>298</ele>
        <time>2017-03-15T10:45:16Z</time>
      </trkpt>
      <trkpt lat="45.98299" lon="4.92017">
        <ele>298</ele>
        <time>2017-03-15T10:45:17Z</time>
      </trkpt>
      <trkpt lat="45.98295" lon="4.92022">
        <ele>298</ele>
        <time>2017-03-15T10:45:18Z</time>
      </trkpt>
      <trkpt lat="45.98291" lon="4.92027">
        <ele>298</ele>
        <time>2017-03-15T10:45:19Z</time>
      </trkpt>
      <trkpt lat="45.98287" lon="4.92031">
        <ele>298</ele>
        <time>2017-03-15T10:45:20Z</time>
      </trkpt>
      <trkpt lat="45.98283" lon="4.92035">
        <ele>298</ele>
        <time>2017-03-15T10:45:21Z</time>
      </trkpt>
      <trkpt lat="45.98279" lon="4.92039">
        <ele>298</ele>
        <time>2017-03-15T10:45:22Z</time>
      </trkpt>
      <trkpt lat="45.98274" lon="4.92044">
        <ele>298</ele>
        <time>2017-03-15T10:45:23Z</time>
      </trkpt>
      <trkpt lat="45.98269" lon="4.92049">
        <ele>298</ele>
        <time>2017-03-15T10:45:24Z</time>
      </trkpt>
      <trkpt lat="45.98265" lon="4.92053">
        <ele>298</ele>
        <time>2017-03-15T10:45:25Z</time>
      </trkpt>
      <trkpt lat="45.9826" lon="4.92058">
        <ele>298</ele>
        <time>2017-03-15T10:45:26Z</time>
      </trkpt>
      <trkpt lat="45.98255" lon="4.92064">
        <ele>298</ele>
        <time>2017-03-15T10:45:27Z</time>
      </trkpt>
      <trkpt lat="45.98251" lon="4.92071">
        <ele>299</ele>
        <time>2017-03-15T10:45:28Z</time>
      </trkpt>
      <trkpt lat="45.98246" lon="4.92077">
        <ele>299</ele>
        <time>2017-03-15T10:45:29Z</time>
      </trkpt>
      <trkpt lat="45.98242" lon="4.92083">
        <ele>299</ele>
        <time>2017-03-15T10:45:30Z</time>
      </trkpt>
      <trkpt lat="45.98238" lon="4.92088">
        <ele>299</ele>
        <time>2017-03-15T10:45:31Z</time>
      </trkpt>
      <trkpt lat="45.98234" lon="4.92093">
        <ele>299</ele>
        <time>2017-03-15T10:45:32Z</time>
      </trkpt>
      <trkpt lat="45.9823" lon="4.92098">
        <ele>299</ele>
        <time>2017-03-15T10:45:33Z</time>
      </trkpt>
      <trkpt lat="45.98225" lon="4.92103">
        <ele>299</ele>
        <time>2017-03-15T10:45:34Z</time>
      </trkpt>
      <trkpt lat="45.98221" lon="4.92108">
        <ele>299</ele>
        <time>2017-03-15T10:45:35Z</time>
      </trkpt>
      <trkpt lat="45.98217" lon="4.92113">
        <ele>299</ele>
        <time>2017-03-15T10:45:36Z</time>
      </trkpt>
      <trkpt lat="45.98213" lon="4.92119">
        <ele>299</ele>
        <time>2017-03-15T10:45:37Z</time>
      </trkpt>
      <trkpt lat="45.98208" lon="4.92124">
        <ele>299</ele>
        <time>2017-03-15T10:45:38Z</time>
      </trkpt>
      <trkpt lat="45.98204" lon="4.92129">
        <ele>299</ele>
        <time>2017-03-15T10:45:39Z</time>
      </trkpt>
      <trkpt lat="45.982" lon="4.92132">
        <ele>299</ele>
        <time>2017-03-15T10:45:40Z</time>
      </trkpt>
      <trkpt lat="45.98195" lon="4.92137">
        <ele>299</ele>
        <time>2017-03-15T10:45:41Z</time>
      </trkpt>
      <trkpt lat="45.98191" lon="4.92141">
        <ele>299</ele>
        <time>2017-03-15T10:45:42Z</time>
      </trkpt>
      <trkpt lat="45.98187" lon="4.92145">
        <ele>299</ele>
        <time>2017-03-15T10:45:43Z</time>
      </trkpt>
      <trkpt lat="45.98183" lon="4.9215">
        <ele>299</ele>
        <time>2017-03-15T10:45:44Z</time>
      </trkpt>
      <trkpt lat="45.98178" lon="4.92155">
        <ele>299</ele>
        <time>2017-03-15T10:45:45Z</time>
      </trkpt>
      <trkpt lat="45.98174" lon="4.9216">
        <ele>299</ele>
        <time>2017-03-15T10:45:46Z</time>
      </trkpt>
      <trkpt lat="45.98169" lon="4.92166">
        <ele>299</ele>
        <time>2017-03-15T10:45:47Z</time>
      </trkpt>
      <trkpt lat="45.98164" lon="4.9217">
        <ele>299</ele>
        <time>2017-03-15T10:45:48Z</time>
      </trkpt>
      <trkpt lat="45.9816" lon="4.92176">
        <ele>299</ele>
        <time>2017-03-15T10:45:49Z</time>
      </trkpt>
      <trkpt lat="45.98155" lon="4.92181">
        <ele>299</ele>
        <time>2017-03-15T10:45:50Z</time>
      </trkpt>
      <trkpt lat="45.98152" lon="4.92186">
        <ele>299</ele>
        <time>2017-03-15T10:45:51Z</time>
      </trkpt>
      <trkpt lat="45.98148" lon="4.92191">
        <ele>299</ele>
        <time>2017-03-15T10:45:52Z</time>
      </trkpt>
      <trkpt lat="45.98144" lon="4.92196">
        <ele>299</ele>
        <time>2017-03-15T10:45:53Z</time>
      </trkpt>
      <trkpt lat="45.9814" lon="4.922">
        <ele>299</ele>
        <time>2017-03-15T10:45:54Z</time>
      </trkpt>
      <trkpt lat="45.98136" lon="4.92205">
        <ele>299</ele>
        <time>2017-03-15T10:45:55Z</time>
      </trkpt>
      <trkpt lat="45.98131" lon="4.9221">
        <ele>299</ele>
        <time>2017-03-15T10:45:56Z</time>
      </trkpt>
      <trkpt lat="45.98127" lon="4.92215">
        <ele>299</ele>
        <time>2017-03-15T10:45:57Z</time>
      </trkpt>
      <trkpt lat="45.98123" lon="4.92221">
        <ele>299</ele>
        <time>2017-03-15T10:45:58Z</time>
      </trkpt>
      <trkpt lat="45.98119" lon="4.92226">
        <ele>299</ele>
        <time>2017-03-15T10:45:59Z</time>
      </trkpt>
      <trkpt lat="45.98115" lon="4.92231">
        <ele>299</ele>
        <time>2017-03-15T10:46:00Z</time>
      </trkpt>
      <trkpt lat="45.98111" lon="4.92238">
        <ele>299</ele>
        <time>2017-03-15T10:46:01Z</time>
      </trkpt>
      <trkpt lat="45.98106" lon="4.92244">
        <ele>299</ele>
        <time>2017-03-15T10:46:02Z</time>
      </trkpt>
      <trkpt lat="45.98102" lon="4.92249">
        <ele>299</ele>
        <time>2017-03-15T10:46:03Z</time>
      </trkpt>
      <trkpt lat="45.98098" lon="4.92254">
        <ele>299</ele>
        <time>2017-03-15T10:46:04Z</time>
      </trkpt>
      <trkpt lat="45.98093" lon="4.9226">
        <ele>299</ele>
        <time>2017-03-15T10:46:05Z</time>
      </trkpt>
      <trkpt lat="45.9809" lon="4.92265">
        <ele>300</ele>
        <time>2017-03-15T10:46:06Z</time>
      </trkpt>
      <trkpt lat="45.98086" lon="4.9227">
        <ele>300</ele>
        <time>2017-03-15T10:46:07Z</time>
      </trkpt>
      <trkpt lat="45.98082" lon="4.92275">
        <ele>299</ele>
        <time>2017-03-15T10:46:08Z</time>
      </trkpt>
      <trkpt lat="45.98078" lon="4.92279">
        <ele>299</ele>
        <time>2017-03-15T10:46:09Z</time>
      </trkpt>
      <trkpt lat="45.98074" lon="4.92284">
        <ele>299</ele>
        <time>2017-03-15T10:46:10Z</time>
      </trkpt>
      <trkpt lat="45.9807" lon="4.92288">
        <ele>299</ele>
        <time>2017-03-15T10:46:11Z</time>
      </trkpt>
      <trkpt lat="45.98066" lon="4.92293">
        <ele>299</ele>
        <time>2017-03-15T10:46:12Z</time>
      </trkpt>
      <trkpt lat="45.98062" lon="4.92298">
        <ele>299</ele>
        <time>2017-03-15T10:46:13Z</time>
      </trkpt>
      <trkpt lat="45.98058" lon="4.92303">
        <ele>299</ele>
        <time>2017-03-15T10:46:14Z</time>
      </trkpt>
      <trkpt lat="45.98054" lon="4.92308">
        <ele>299</ele>
        <time>2017-03-15T10:46:15Z</time>
      </trkpt>
      <trkpt lat="45.9805" lon="4.92313">
        <ele>299</ele>
        <time>2017-03-15T10:46:16Z</time>
      </trkpt>
      <trkpt lat="45.98046" lon="4.92318">
        <ele>299</ele>
        <time>2017-03-15T10:46:17Z</time>
      </trkpt>
      <trkpt lat="45.98042" lon="4.92323">
        <ele>299</ele>
        <time>2017-03-15T10:46:18Z</time>
      </trkpt>
      <trkpt lat="45.98038" lon="4.92328">
        <ele>299</ele>
        <time>2017-03-15T10:46:19Z</time>
      </trkpt>
      <trkpt lat="45.98035" lon="4.92333">
        <ele>299</ele>
        <time>2017-03-15T10:46:20Z</time>
      </trkpt>
      <trkpt lat="45.98031" lon="4.92338">
        <ele>299</ele>
        <time>2017-03-15T10:46:21Z</time>
      </trkpt>
      <trkpt lat="45.98028" lon="4.92343">
        <ele>298</ele>
        <time>2017-03-15T10:46:22Z</time>
      </trkpt>
      <trkpt lat="45.98024" lon="4.92347">
        <ele>298</ele>
        <time>2017-03-15T10:46:23Z</time>
      </trkpt>
      <trkpt lat="45.9802" lon="4.92352">
        <ele>298</ele>
        <time>2017-03-15T10:46:24Z</time>
      </trkpt>
      <trkpt lat="45.98017" lon="4.92357">
        <ele>298</ele>
        <time>2017-03-15T10:46:25Z</time>
      </trkpt>
      <trkpt lat="45.98013" lon="4.92362">
        <ele>298</ele>
        <time>2017-03-15T10:46:26Z</time>
      </trkpt>
      <trkpt lat="45.98008" lon="4.92368">
        <ele>298</ele>
        <time>2017-03-15T10:46:27Z</time>
      </trkpt>
      <trkpt lat="45.98004" lon="4.92373">
        <ele>298</ele>
        <time>2017-03-15T10:46:28Z</time>
      </trkpt>
      <trkpt lat="45.97999" lon="4.92379">
        <ele>298</ele>
        <time>2017-03-15T10:46:29Z</time>
      </trkpt>
      <trkpt lat="45.97996" lon="4.92384">
        <ele>298</ele>
        <time>2017-03-15T10:46:30Z</time>
      </trkpt>
      <trkpt lat="45.97992" lon="4.9239">
        <ele>298</ele>
        <time>2017-03-15T10:46:31Z</time>
      </trkpt>
      <trkpt lat="45.97987" lon="4.92395">
        <ele>298</ele>
        <time>2017-03-15T10:46:32Z</time>
      </trkpt>
      <trkpt lat="45.97983" lon="4.92401">
        <ele>298</ele>
        <time>2017-03-15T10:46:33Z</time>
      </trkpt>
      <trkpt lat="45.97978" lon="4.92406">
        <ele>298</ele>
        <time>2017-03-15T10:46:34Z</time>
      </trkpt>
      <trkpt lat="45.97974" lon="4.92411">
        <ele>298</ele>
        <time>2017-03-15T10:46:35Z</time>
      </trkpt>
      <trkpt lat="45.97969" lon="4.92416">
        <ele>298</ele>
        <time>2017-03-15T10:46:36Z</time>
      </trkpt>
      <trkpt lat="45.97965" lon="4.92421">
        <ele>298</ele>
        <time>2017-03-15T10:46:37Z</time>
      </trkpt>
      <trkpt lat="45.97961" lon="4.92426">
        <ele>298</ele>
        <time>2017-03-15T10:46:38Z</time>
      </trkpt>
      <trkpt lat="45.97957" lon="4.9243">
        <ele>299</ele>
        <time>2017-03-15T10:46:39Z</time>
      </trkpt>
      <trkpt lat="45.97953" lon="4.92435">
        <ele>299</ele>
        <time>2017-03-15T10:46:40Z</time>
      </trkpt>
      <trkpt lat="45.97949" lon="4.9244">
        <ele>299</ele>
        <time>2017-03-15T10:46:41Z</time>
      </trkpt>
      <trkpt lat="45.97945" lon="4.92445">
        <ele>299</ele>
        <time>2017-03-15T10:46:42Z</time>
      </trkpt>
      <trkpt lat="45.97941" lon="4.92449">
        <ele>299</ele>
        <time>2017-03-15T10:46:43Z</time>
      </trkpt>
      <trkpt lat="45.97937" lon="4.92454">
        <ele>299</ele>
        <time>2017-03-15T10:46:44Z</time>
      </trkpt>
      <trkpt lat="45.97933" lon="4.92458">
        <ele>299</ele>
        <time>2017-03-15T10:46:45Z</time>
      </trkpt>
      <trkpt lat="45.97929" lon="4.92463">
        <ele>299</ele>
        <time>2017-03-15T10:46:46Z</time>
      </trkpt>
      <trkpt lat="45.97925" lon="4.92468">
        <ele>299</ele>
        <time>2017-03-15T10:46:47Z</time>
      </trkpt>
      <trkpt lat="45.97921" lon="4.92473">
        <ele>299</ele>
        <time>2017-03-15T10:46:48Z</time>
      </trkpt>
      <trkpt lat="45.97918" lon="4.92477">
        <ele>299</ele>
        <time>2017-03-15T10:46:49Z</time>
      </trkpt>
      <trkpt lat="45.97914" lon="4.92482">
        <ele>299</ele>
        <time>2017-03-15T10:46:50Z</time>
      </trkpt>
      <trkpt lat="45.9791" lon="4.92487">
        <ele>299</ele>
        <time>2017-03-15T10:46:51Z</time>
      </trkpt>
      <trkpt lat="45.97906" lon="4.92492">
        <ele>299</ele>
        <time>2017-03-15T10:46:52Z</time>
      </trkpt>
      <trkpt lat="45.97902" lon="4.92497">
        <ele>299</ele>
        <time>2017-03-15T10:46:53Z</time>
      </trkpt>
      <trkpt lat="45.97898" lon="4.92501">
        <ele>299</ele>
        <time>2017-03-15T10:46:54Z</time>
      </trkpt>
      <trkpt lat="45.97894" lon="4.92505">
        <ele>299</ele>
        <time>2017-03-15T10:46:55Z</time>
      </trkpt>
      <trkpt lat="45.9789" lon="4.92509">
        <ele>300</ele>
        <time>2017-03-15T10:46:56Z</time>
      </trkpt>
      <trkpt lat="45.97886" lon="4.92514">
        <ele>300</ele>
        <time>2017-03-15T10:46:57Z</time>
      </trkpt>
      <trkpt lat="45.97882" lon="4.92519">
        <ele>300</ele>
        <time>2017-03-15T10:46:58Z</time>
      </trkpt>
      <trkpt lat="45.97878" lon="4.92524">
        <ele>300</ele>
        <time>2017-03-15T10:46:59Z</time>
      </trkpt>
      <trkpt lat="45.97874" lon="4.92529">
        <ele>300</ele>
        <time>2017-03-15T10:47:00Z</time>
      </trkpt>
      <trkpt lat="45.97871" lon="4.92535">
        <ele>300</ele>
        <time>2017-03-15T10:47:01Z</time>
      </trkpt>
      <trkpt lat="45.97866" lon="4.9254">
        <ele>300</ele>
        <time>2017-03-15T10:47:02Z</time>
      </trkpt>
      <trkpt lat="45.97862" lon="4.92545">
        <ele>300</ele>
        <time>2017-03-15T10:47:03Z</time>
      </trkpt>
      <trkpt lat="45.97857" lon="4.92551">
        <ele>300</ele>
        <time>2017-03-15T10:47:04Z</time>
      </trkpt>
      <trkpt lat="45.97853" lon="4.92556">
        <ele>300</ele>
        <time>2017-03-15T10:47:05Z</time>
      </trkpt>
      <trkpt lat="45.97848" lon="4.92562">
        <ele>300</ele>
        <time>2017-03-15T10:47:06Z</time>
      </trkpt>
      <trkpt lat="45.97844" lon="4.92567">
        <ele>300</ele>
        <time>2017-03-15T10:47:07Z</time>
      </trkpt>
      <trkpt lat="45.97839" lon="4.92573">
        <ele>300</ele>
        <time>2017-03-15T10:47:08Z</time>
      </trkpt>
      <trkpt lat="45.97835" lon="4.92577">
        <ele>300</ele>
        <time>2017-03-15T10:47:09Z</time>
      </trkpt>
      <trkpt lat="45.97831" lon="4.92582">
        <ele>300</ele>
        <time>2017-03-15T10:47:10Z</time>
      </trkpt>
      <trkpt lat="45.97827" lon="4.92587">
        <ele>300</ele>
        <time>2017-03-15T10:47:11Z</time>
      </trkpt>
      <trkpt lat="45.97823" lon="4.92592">
        <ele>300</ele>
        <time>2017-03-15T10:47:12Z</time>
      </trkpt>
      <trkpt lat="45.97818" lon="4.92597">
        <ele>300</ele>
        <time>2017-03-15T10:47:13Z</time>
      </trkpt>
      <trkpt lat="45.97815" lon="4.92602">
        <ele>300</ele>
        <time>2017-03-15T10:47:14Z</time>
      </trkpt>
      <trkpt lat="45.97811" lon="4.92607">
        <ele>300</ele>
        <time>2017-03-15T10:47:15Z</time>
      </trkpt>
      <trkpt lat="45.97807" lon="4.92612">
        <ele>300</ele>
        <time>2017-03-15T10:47:16Z</time>
      </trkpt>
      <trkpt lat="45.97803" lon="4.92618">
        <ele>300</ele>
        <time>2017-03-15T10:47:17Z</time>
      </trkpt>
      <trkpt lat="45.97799" lon="4.92624">
        <ele>300</ele>
        <time>2017-03-15T10:47:18Z</time>
      </trkpt>
      <trkpt lat="45.97795" lon="4.9263">
        <ele>301</ele>
        <time>2017-03-15T10:47:19Z</time>
      </trkpt>
      <trkpt lat="45.97791" lon="4.92636">
        <ele>300</ele>
        <time>2017-03-15T10:47:20Z</time>
      </trkpt>
      <trkpt lat="45.97787" lon="4.92641">
        <ele>300</ele>
        <time>2017-03-15T10:47:21Z</time>
      </trkpt>
      <trkpt lat="45.97782" lon="4.92647">
        <ele>300</ele>
        <time>2017-03-15T10:47:22Z</time>
      </trkpt>
      <trkpt lat="45.97778" lon="4.92652">
        <ele>300</ele>
        <time>2017-03-15T10:47:23Z</time>
      </trkpt>
      <trkpt lat="45.97773" lon="4.92657">
        <ele>300</ele>
        <time>2017-03-15T10:47:24Z</time>
      </trkpt>
      <trkpt lat="45.97769" lon="4.92663">
        <ele>300</ele>
        <time>2017-03-15T10:47:25Z</time>
      </trkpt>
      <trkpt lat="45.97764" lon="4.92668">
        <ele>300</ele>
        <time>2017-03-15T10:47:26Z</time>
      </trkpt>
      <trkpt lat="45.9776" lon="4.92673">
        <ele>300</ele>
        <time>2017-03-15T10:47:27Z</time>
      </trkpt>
      <trkpt lat="45.97756" lon="4.92678">
        <ele>300</ele>
        <time>2017-03-15T10:47:28Z</time>
      </trkpt>
      <trkpt lat="45.97752" lon="4.92683">
        <ele>300</ele>
        <time>2017-03-15T10:47:29Z</time>
      </trkpt>
      <trkpt lat="45.97748" lon="4.92688">
        <ele>301</ele>
        <time>2017-03-15T10:47:30Z</time>
      </trkpt>
      <trkpt lat="45.97743" lon="4.92693">
        <ele>301</ele>
        <time>2017-03-15T10:47:31Z</time>
      </trkpt>
      <trkpt lat="45.97739" lon="4.92698">
        <ele>301</ele>
        <time>2017-03-15T10:47:32Z</time>
      </trkpt>
      <trkpt lat="45.97735" lon="4.92703">
        <ele>301</ele>
        <time>2017-03-15T10:47:33Z</time>
      </trkpt>
      <trkpt lat="45.97731" lon="4.92708">
        <ele>301</ele>
        <time>2017-03-15T10:47:34Z</time>
      </trkpt>
      <trkpt lat="45.97727" lon="4.92713">
        <ele>301</ele>
        <time>2017-03-15T10:47:35Z</time>
      </trkpt>
      <trkpt lat="45.97722" lon="4.92719">
        <ele>301</ele>
        <time>2017-03-15T10:47:36Z</time>
      </trkpt>
      <trkpt lat="45.97718" lon="4.92725">
        <ele>301</ele>
        <time>2017-03-15T10:47:37Z</time>
      </trkpt>
      <trkpt lat="45.97713" lon="4.9273">
        <ele>301</ele>
        <time>2017-03-15T10:47:38Z</time>
      </trkpt>
      <trkpt lat="45.97709" lon="4.92736">
        <ele>301</ele>
        <time>2017-03-15T10:47:39Z</time>
      </trkpt>
      <trkpt lat="45.97704" lon="4.92742">
        <ele>302</ele>
        <time>2017-03-15T10:47:40Z</time>
      </trkpt>
      <trkpt lat="45.97699" lon="4.92747">
        <ele>302</ele>
        <time>2017-03-15T10:47:41Z</time>
      </trkpt>
      <trkpt lat="45.97695" lon="4.92753">
        <ele>301</ele>
        <time>2017-03-15T10:47:42Z</time>
      </trkpt>
      <trkpt lat="45.9769" lon="4.92759">
        <ele>302</ele>
        <time>2017-03-15T10:47:43Z</time>
      </trkpt>
      <trkpt lat="45.97685" lon="4.92764">
        <ele>302</ele>
        <time>2017-03-15T10:47:44Z</time>
      </trkpt>
      <trkpt lat="45.97681" lon="4.92769">
        <ele>302</ele>
        <time>2017-03-15T10:47:45Z</time>
      </trkpt>
      <trkpt lat="45.97676" lon="4.92775">
        <ele>301</ele>
        <time>2017-03-15T10:47:46Z</time>
      </trkpt>
      <trkpt lat="45.97671" lon="4.92781">
        <ele>301</ele>
        <time>2017-03-15T10:47:47Z</time>
      </trkpt>
      <trkpt lat="45.97667" lon="4.92786">
        <ele>301</ele>
        <time>2017-03-15T10:47:48Z</time>
      </trkpt>
      <trkpt lat="45.97662" lon="4.92792">
        <ele>301</ele>
        <time>2017-03-15T10:47:49Z</time>
      </trkpt>
      <trkpt lat="45.97657" lon="4.92798">
        <ele>301</ele>
        <time>2017-03-15T10:47:50Z</time>
      </trkpt>
      <trkpt lat="45.97653" lon="4.92804">
        <ele>300</ele>
        <time>2017-03-15T10:47:51Z</time>
      </trkpt>
      <trkpt lat="45.97648" lon="4.92809">
        <ele>300</ele>
        <time>2017-03-15T10:47:52Z</time>
      </trkpt>
      <trkpt lat="45.97643" lon="4.92815">
        <ele>300</ele>
        <time>2017-03-15T10:47:53Z</time>
      </trkpt>
      <trkpt lat="45.97639" lon="4.92821">
        <ele>300</ele>
        <time>2017-03-15T10:47:54Z</time>
      </trkpt>
      <trkpt lat="45.97634" lon="4.92826">
        <ele>300</ele>
        <time>2017-03-15T10:47:55Z</time>
      </trkpt>
      <trkpt lat="45.97629" lon="4.92832">
        <ele>300</ele>
        <time>2017-03-15T10:47:56Z</time>
      </trkpt>
      <trkpt lat="45.97625" lon="4.92837">
        <ele>298</ele>
        <time>2017-03-15T10:47:57Z</time>
      </trkpt>
      <trkpt lat="45.97621" lon="4.92843">
        <ele>298</ele>
        <time>2017-03-15T10:47:58Z</time>
      </trkpt>
      <trkpt lat="45.97616" lon="4.92848">
        <ele>298</ele>
        <time>2017-03-15T10:47:59Z</time>
      </trkpt>
      <trkpt lat="45.97612" lon="4.92853">
        <ele>298</ele>
        <time>2017-03-15T10:48:00Z</time>
      </trkpt>
      <trkpt lat="45.97607" lon="4.92858">
        <ele>298</ele>
        <time>2017-03-15T10:48:01Z</time>
      </trkpt>
      <trkpt lat="45.97602" lon="4.92863">
        <ele>298</ele>
        <time>2017-03-15T10:48:02Z</time>
      </trkpt>
      <trkpt lat="45.97597" lon="4.92869">
        <ele>298</ele>
        <time>2017-03-15T10:48:03Z</time>
      </trkpt>
      <trkpt lat="45.97593" lon="4.92875">
        <ele>298</ele>
        <time>2017-03-15T10:48:04Z</time>
      </trkpt>
      <trkpt lat="45.97588" lon="4.92882">
        <ele>298</ele>
        <time>2017-03-15T10:48:05Z</time>
      </trkpt>
      <trkpt lat="45.97584" lon="4.92888">
        <ele>298</ele>
        <time>2017-03-15T10:48:06Z</time>
      </trkpt>
      <trkpt lat="45.97578" lon="4.92894">
        <ele>298</ele>
        <time>2017-03-15T10:48:07Z</time>
      </trkpt>
      <trkpt lat="45.97573" lon="4.929">
        <ele>298</ele>
        <time>2017-03-15T10:48:08Z</time>
      </trkpt>
      <trkpt lat="45.97569" lon="4.92907">
        <ele>298</ele>
        <time>2017-03-15T10:48:09Z</time>
      </trkpt>
      <trkpt lat="45.97564" lon="4.92913">
        <ele>298</ele>
        <time>2017-03-15T10:48:10Z</time>
      </trkpt>
      <trkpt lat="45.97558" lon="4.92918">
        <ele>298</ele>
        <time>2017-03-15T10:48:11Z</time>
      </trkpt>
      <trkpt lat="45.97553" lon="4.92924">
        <ele>298</ele>
        <time>2017-03-15T10:48:12Z</time>
      </trkpt>
      <trkpt lat="45.97549" lon="4.92929">
        <ele>299</ele>
        <time>2017-03-15T10:48:13Z</time>
      </trkpt>
      <trkpt lat="45.97544" lon="4.92935">
        <ele>299</ele>
        <time>2017-03-15T10:48:14Z</time>
      </trkpt>
      <trkpt lat="45.97539" lon="4.92941">
        <ele>299</ele>
        <time>2017-03-15T10:48:15Z</time>
      </trkpt>
      <trkpt lat="45.97535" lon="4.92947">
        <ele>299</ele>
        <time>2017-03-15T10:48:16Z</time>
      </trkpt>
      <trkpt lat="45.9753" lon="4.92953">
        <ele>299</ele>
        <time>2017-03-15T10:48:17Z</time>
      </trkpt>
      <trkpt lat="45.97525" lon="4.92958">
        <ele>299</ele>
        <time>2017-03-15T10:48:18Z</time>
      </trkpt>
      <trkpt lat="45.97521" lon="4.92964">
        <ele>299</ele>
        <time>2017-03-15T10:48:19Z</time>
      </trkpt>
      <trkpt lat="45.97516" lon="4.9297">
        <ele>299</ele>
        <time>2017-03-15T10:48:20Z</time>
      </trkpt>
      <trkpt lat="45.97512" lon="4.92975">
        <ele>299</ele>
        <time>2017-03-15T10:48:21Z</time>
      </trkpt>
      <trkpt lat="45.97508" lon="4.92981">
        <ele>299</ele>
        <time>2017-03-15T10:48:22Z</time>
      </trkpt>
      <trkpt lat="45.97503" lon="4.92986">
        <ele>299</ele>
        <time>2017-03-15T10:48:23Z</time>
      </trkpt>
      <trkpt lat="45.97499" lon="4.92991">
        <ele>299</ele>
        <time>2017-03-15T10:48:24Z</time>
      </trkpt>
      <trkpt lat="45.97495" lon="4.92996">
        <ele>299</ele>
        <time>2017-03-15T10:48:25Z</time>
      </trkpt>
      <trkpt lat="45.97491" lon="4.93001">
        <ele>299</ele>
        <time>2017-03-15T10:48:26Z</time>
      </trkpt>
      <trkpt lat="45.97486" lon="4.93007">
        <ele>299</ele>
        <time>2017-03-15T10:48:27Z</time>
      </trkpt>
      <trkpt lat="45.97482" lon="4.93012">
        <ele>299</ele>
        <time>2017-03-15T10:48:28Z</time>
      </trkpt>
      <trkpt lat="45.97477" lon="4.93018">
        <ele>299</ele>
        <time>2017-03-15T10:48:29Z</time>
      </trkpt>
      <trkpt lat="45.97473" lon="4.93024">
        <ele>299</ele>
        <time>2017-03-15T10:48:30Z</time>
      </trkpt>
      <trkpt lat="45.97467" lon="4.9303">
        <ele>299</ele>
        <time>2017-03-15T10:48:31Z</time>
      </trkpt>
      <trkpt lat="45.97463" lon="4.93035">
        <ele>299</ele>
        <time>2017-03-15T10:48:32Z</time>
      </trkpt>
      <trkpt lat="45.97458" lon="4.93041">
        <ele>299</ele>
        <time>2017-03-15T10:48:33Z</time>
      </trkpt>
      <trkpt lat="45.97454" lon="4.93047">
        <ele>299</ele>
        <time>2017-03-15T10:48:34Z</time>
      </trkpt>
      <trkpt lat="45.97449" lon="4.93054">
        <ele>299</ele>
        <time>2017-03-15T10:48:35Z</time>
      </trkpt>
      <trkpt lat="45.97444" lon="4.9306">
        <ele>299</ele>
        <time>2017-03-15T10:48:36Z</time>
      </trkpt>
      <trkpt lat="45.97439" lon="4.93065">
        <ele>299</ele>
        <time>2017-03-15T10:48:37Z</time>
      </trkpt>
      <trkpt lat="45.97434" lon="4.93071">
        <ele>299</ele>
        <time>2017-03-15T10:48:38Z</time>
      </trkpt>
      <trkpt lat="45.97429" lon="4.93076">
        <ele>299</ele>
        <time>2017-03-15T10:48:39Z</time>
      </trkpt>
      <trkpt lat="45.97425" lon="4.93082">
        <ele>299</ele>
        <time>2017-03-15T10:48:40Z</time>
      </trkpt>
      <trkpt lat="45.9742" lon="4.93088">
        <ele>299</ele>
        <time>2017-03-15T10:48:41Z</time>
      </trkpt>
      <trkpt lat="45.97416" lon="4.93094">
        <ele>299</ele>
        <time>2017-03-15T10:48:42Z</time>
      </trkpt>
      <trkpt lat="45.97411" lon="4.93099">
        <ele>299</ele>
        <time>2017-03-15T10:48:43Z</time>
      </trkpt>
      <trkpt lat="45.97407" lon="4.93105">
        <ele>300</ele>
        <time>2017-03-15T10:48:44Z</time>
      </trkpt>
      <trkpt lat="45.97402" lon="4.93111">
        <ele>300</ele>
        <time>2017-03-15T10:48:45Z</time>
      </trkpt>
      <trkpt lat="45.97398" lon="4.93116">
        <ele>300</ele>
        <time>2017-03-15T10:48:46Z</time>
      </trkpt>
      <trkpt lat="45.97393" lon="4.93122">
        <ele>300</ele>
        <time>2017-03-15T10:48:47Z</time>
      </trkpt>
      <trkpt lat="45.97389" lon="4.93127">
        <ele>300</ele>
        <time>2017-03-15T10:48:48Z</time>
      </trkpt>
      <trkpt lat="45.97384" lon="4.93132">
        <ele>300</ele>
        <time>2017-03-15T10:48:49Z</time>
      </trkpt>
      <trkpt lat="45.9738" lon="4.93137">
        <ele>300</ele>
        <time>2017-03-15T10:48:50Z</time>
      </trkpt>
      <trkpt lat="45.97376" lon="4.93142">
        <ele>300</ele>
        <time>2017-03-15T10:48:51Z</time>
      </trkpt>
      <trkpt lat="45.97372" lon="4.93147">
        <ele>300</ele>
        <time>2017-03-15T10:48:52Z</time>
      </trkpt>
      <trkpt lat="45.97369" lon="4.93151">
        <ele>300</ele>
        <time>2017-03-15T10:48:53Z</time>
      </trkpt>
      <trkpt lat="45.97365" lon="4.93156">
        <ele>300</ele>
        <time>2017-03-15T10:48:54Z</time>
      </trkpt>
      <trkpt lat="45.9736" lon="4.93161">
        <ele>300</ele>
        <time>2017-03-15T10:48:55Z</time>
      </trkpt>
      <trkpt lat="45.97356" lon="4.93166">
        <ele>300</ele>
        <time>2017-03-15T10:48:56Z</time>
      </trkpt>
      <trkpt lat="45.97351" lon="4.93171">
        <ele>301</ele>
        <time>2017-03-15T10:48:57Z</time>
      </trkpt>
      <trkpt lat="45.97347" lon="4.93177">
        <ele>301</ele>
        <time>2017-03-15T10:48:58Z</time>
      </trkpt>
      <trkpt lat="45.97342" lon="4.93184">
        <ele>301</ele>
        <time>2017-03-15T10:48:59Z</time>
      </trkpt>
      <trkpt lat="45.97338" lon="4.9319">
        <ele>301</ele>
        <time>2017-03-15T10:49:00Z</time>
      </trkpt>
      <trkpt lat="45.97333" lon="4.93196">
        <ele>301</ele>
        <time>2017-03-15T10:49:01Z</time>
      </trkpt>
      <trkpt lat="45.97328" lon="4.93202">
        <ele>301</ele>
        <time>2017-03-15T10:49:02Z</time>
      </trkpt>
      <trkpt lat="45.97323" lon="4.93207">
        <ele>301</ele>
        <time>2017-03-15T10:49:03Z</time>
      </trkpt>
      <trkpt lat="45.97318" lon="4.93213">
        <ele>302</ele>
        <time>2017-03-15T10:49:04Z</time>
      </trkpt>
      <trkpt lat="45.97313" lon="4.93217">
        <ele>302</ele>
        <time>2017-03-15T10:49:05Z</time>
      </trkpt>
      <trkpt lat="45.97308" lon="4.93222">
        <ele>302</ele>
        <time>2017-03-15T10:49:06Z</time>
      </trkpt>
      <trkpt lat="45.97303" lon="4.93227">
        <ele>302</ele>
        <time>2017-03-15T10:49:07Z</time>
      </trkpt>
      <trkpt lat="45.97299" lon="4.93232">
        <ele>301</ele>
        <time>2017-03-15T10:49:08Z</time>
      </trkpt>
      <trkpt lat="45.97295" lon="4.93237">
        <ele>301</ele>
        <time>2017-03-15T10:49:09Z</time>
      </trkpt>
      <trkpt lat="45.97291" lon="4.93242">
        <ele>301</ele>
        <time>2017-03-15T10:49:10Z</time>
      </trkpt>
      <trkpt lat="45.97287" lon="4.93247">
        <ele>301</ele>
        <time>2017-03-15T10:49:11Z</time>
      </trkpt>
      <trkpt lat="45.97283" lon="4.93252">
        <ele>302</ele>
        <time>2017-03-15T10:49:12Z</time>
      </trkpt>
      <trkpt lat="45.97278" lon="4.93257">
        <ele>302</ele>
        <time>2017-03-15T10:49:13Z</time>
      </trkpt>
      <trkpt lat="45.97274" lon="4.93262">
        <ele>302</ele>
        <time>2017-03-15T10:49:14Z</time>
      </trkpt>
      <trkpt lat="45.9727" lon="4.93267">
        <ele>302</ele>
        <time>2017-03-15T10:49:15Z</time>
      </trkpt>
      <trkpt lat="45.97266" lon="4.93272">
        <ele>302</ele>
        <time>2017-03-15T10:49:16Z</time>
      </trkpt>
      <trkpt lat="45.97262" lon="4.93277">
        <ele>302</ele>
        <time>2017-03-15T10:49:17Z</time>
      </trkpt>
      <trkpt lat="45.97257" lon="4.93282">
        <ele>302</ele>
        <time>2017-03-15T10:49:18Z</time>
      </trkpt>
      <trkpt lat="45.97253" lon="4.93287">
        <ele>302</ele>
        <time>2017-03-15T10:49:19Z</time>
      </trkpt>
      <trkpt lat="45.97249" lon="4.93292">
        <ele>300</ele>
        <time>2017-03-15T10:49:20Z</time>
      </trkpt>
      <trkpt lat="45.97245" lon="4.93297">
        <ele>300</ele>
        <time>2017-03-15T10:49:21Z</time>
      </trkpt>
      <trkpt lat="45.9724" lon="4.93302">
        <ele>300</ele>
        <time>2017-03-15T10:49:22Z</time>
      </trkpt>
      <trkpt lat="45.97236" lon="4.93307">
        <ele>300</ele>
        <time>2017-03-15T10:49:23Z</time>
      </trkpt>
      <trkpt lat="45.97232" lon="4.93313">
        <ele>300</ele>
        <time>2017-03-15T10:49:24Z</time>
      </trkpt>
      <trkpt lat="45.97228" lon="4.93318">
        <ele>300</ele>
        <time>2017-03-15T10:49:25Z</time>
      </trkpt>
      <trkpt lat="45.97223" lon="4.93323">
        <ele>300</ele>
        <time>2017-03-15T10:49:26Z</time>
      </trkpt>
      <trkpt lat="45.97219" lon="4.93329">
        <ele>300</ele>
        <time>2017-03-15T10:49:27Z</time>
      </trkpt>
      <trkpt lat="45.97214" lon="4.93334">
        <ele>301</ele>
        <time>2017-03-15T10:49:28Z</time>
      </trkpt>
      <trkpt lat="45.9721" lon="4.9334">
        <ele>301</ele>
        <time>2017-03-15T10:49:29Z</time>
      </trkpt>
      <trkpt lat="45.97205" lon="4.93346">
        <ele>301</ele>
        <time>2017-03-15T10:49:30Z</time>
      </trkpt>
      <trkpt lat="45.97201" lon="4.93351">
        <ele>301</ele>
        <time>2017-03-15T10:49:31Z</time>
      </trkpt>
      <trkpt lat="45.97196" lon="4.93357">
        <ele>301</ele>
        <time>2017-03-15T10:49:32Z</time>
      </trkpt>
      <trkpt lat="45.97191" lon="4.93362">
        <ele>301</ele>
        <time>2017-03-15T10:49:33Z</time>
      </trkpt>
      <trkpt lat="45.97187" lon="4.93368">
        <ele>301</ele>
        <time>2017-03-15T10:49:34Z</time>
      </trkpt>
      <trkpt lat="45.97182" lon="4.93374">
        <ele>301</ele>
        <time>2017-03-15T10:49:35Z</time>
      </trkpt>
      <trkpt lat="45.97177" lon="4.93381">
        <ele>301</ele>
        <time>2017-03-15T10:49:36Z</time>
      </trkpt>
      <trkpt lat="45.97172" lon="4.93387">
        <ele>301</ele>
        <time>2017-03-15T10:49:37Z</time>
      </trkpt>
      <trkpt lat="45.97167" lon="4.93393">
        <ele>301</ele>
        <time>2017-03-15T10:49:38Z</time>
      </trkpt>
      <trkpt lat="45.97162" lon="4.93398">
        <ele>301</ele>
        <time>2017-03-15T10:49:39Z</time>
      </trkpt>
      <trkpt lat="45.97157" lon="4.93404">
        <ele>301</ele>
        <time>2017-03-15T10:49:40Z</time>
      </trkpt>
      <trkpt lat="45.97153" lon="4.9341">
        <ele>301</ele>
        <time>2017-03-15T10:49:41Z</time>
      </trkpt>
      <trkpt lat="45.97149" lon="4.93416">
        <ele>301</ele>
        <time>2017-03-15T10:49:42Z</time>
      </trkpt>
      <trkpt lat="45.97145" lon="4.93421">
        <ele>302</ele>
        <time>2017-03-15T10:49:43Z</time>
      </trkpt>
      <trkpt lat="45.97141" lon="4.93425">
        <ele>301</ele>
        <time>2017-03-15T10:49:44Z</time>
      </trkpt>
      <trkpt lat="45.97137" lon="4.9343">
        <ele>301</ele>
        <time>2017-03-15T10:49:45Z</time>
      </trkpt>
      <trkpt lat="45.97134" lon="4.93435">
        <ele>301</ele>
        <time>2017-03-15T10:49:46Z</time>
      </trkpt>
      <trkpt lat="45.9713" lon="4.93439">
        <ele>301</ele>
        <time>2017-03-15T10:49:47Z</time>
      </trkpt>
      <trkpt lat="45.97126" lon="4.93444">
        <ele>301</ele>
        <time>2017-03-15T10:49:48Z</time>
      </trkpt>
      <trkpt lat="45.97122" lon="4.9345">
        <ele>301</ele>
        <time>2017-03-15T10:49:49Z</time>
      </trkpt>
      <trkpt lat="45.97118" lon="4.93455">
        <ele>301</ele>
        <time>2017-03-15T10:49:50Z</time>
      </trkpt>
      <trkpt lat="45.97114" lon="4.9346">
        <ele>301</ele>
        <time>2017-03-15T10:49:51Z</time>
      </trkpt>
      <trkpt lat="45.9711" lon="4.93466">
        <ele>301</ele>
        <time>2017-03-15T10:49:52Z</time>
      </trkpt>
      <trkpt lat="45.97106" lon="4.93471">
        <ele>301</ele>
        <time>2017-03-15T10:49:53Z</time>
      </trkpt>
      <trkpt lat="45.97101" lon="4.93476">
        <ele>301</ele>
        <time>2017-03-15T10:49:54Z</time>
      </trkpt>
      <trkpt lat="45.97097" lon="4.93481">
        <ele>301</ele>
        <time>2017-03-15T10:49:55Z</time>
      </trkpt>
      <trkpt lat="45.97093" lon="4.93486">
        <ele>301</ele>
        <time>2017-03-15T10:49:56Z</time>
      </trkpt>
      <trkpt lat="45.97088" lon="4.93491">
        <ele>300</ele>
        <time>2017-03-15T10:49:57Z</time>
      </trkpt>
      <trkpt lat="45.97084" lon="4.93496">
        <ele>300</ele>
        <time>2017-03-15T10:49:58Z</time>
      </trkpt>
      <trkpt lat="45.9708" lon="4.93502">
        <ele>300</ele>
        <time>2017-03-15T10:49:59Z</time>
      </trkpt>
      <trkpt lat="45.97076" lon="4.93508">
        <ele>300</ele>
        <time>2017-03-15T10:50:00Z</time>
      </trkpt>
      <trkpt lat="45.97071" lon="4.93513">
        <ele>299</ele>
        <time>2017-03-15T10:50:01Z</time>
      </trkpt>
      <trkpt lat="45.97067" lon="4.93519">
        <ele>299</ele>
        <time>2017-03-15T10:50:02Z</time>
      </trkpt>
      <trkpt lat="45.97063" lon="4.93524">
        <ele>299</ele>
        <time>2017-03-15T10:50:03Z</time>
      </trkpt>
      <trkpt lat="45.97058" lon="4.93529">
        <ele>299</ele>
        <time>2017-03-15T10:50:04Z</time>
      </trkpt>
      <trkpt lat="45.97054" lon="4.93535">
        <ele>299</ele>
        <time>2017-03-15T10:50:05Z</time>
      </trkpt>
      <trkpt lat="45.9705" lon="4.9354">
        <ele>299</ele>
        <time>2017-03-15T10:50:06Z</time>
      </trkpt>
      <trkpt lat="45.97046" lon="4.93545">
        <ele>299</ele>
        <time>2017-03-15T10:50:07Z</time>
      </trkpt>
      <trkpt lat="45.97041" lon="4.9355">
        <ele>299</ele>
        <time>2017-03-15T10:50:08Z</time>
      </trkpt>
      <trkpt lat="45.97038" lon="4.93556">
        <ele>299</ele>
        <time>2017-03-15T10:50:09Z</time>
      </trkpt>
      <trkpt lat="45.97033" lon="4.93561">
        <ele>299</ele>
        <time>2017-03-15T10:50:10Z</time>
      </trkpt>
      <trkpt lat="45.97029" lon="4.93566">
        <ele>299</ele>
        <time>2017-03-15T10:50:11Z</time>
      </trkpt>
      <trkpt lat="45.97025" lon="4.93572">
        <ele>299</ele>
        <time>2017-03-15T10:50:12Z</time>
      </trkpt>
      <trkpt lat="45.97021" lon="4.93576">
        <ele>299</ele>
        <time>2017-03-15T10:50:13Z</time>
      </trkpt>
      <trkpt lat="45.97017" lon="4.93581">
        <ele>299</ele>
        <time>2017-03-15T10:50:14Z</time>
      </trkpt>
      <trkpt lat="45.97013" lon="4.93586">
        <ele>299</ele>
        <time>2017-03-15T10:50:15Z</time>
      </trkpt>
      <trkpt lat="45.9701" lon="4.9359">
        <ele>299</ele>
        <time>2017-03-15T10:50:16Z</time>
      </trkpt>
      <trkpt lat="45.97006" lon="4.93595">
        <ele>299</ele>
        <time>2017-03-15T10:50:17Z</time>
      </trkpt>
      <trkpt lat="45.97002" lon="4.936">
        <ele>299</ele>
        <time>2017-03-15T10:50:18Z</time>
      </trkpt>
      <trkpt lat="45.96998" lon="4.93605">
        <ele>299</ele>
        <time>2017-03-15T10:50:19Z</time>
      </trkpt>
      <trkpt lat="45.96994" lon="4.93609">
        <ele>299</ele>
        <time>2017-03-15T10:50:20Z</time>
      </trkpt>
      <trkpt lat="45.96991" lon="4.93614">
        <ele>299</ele>
        <time>2017-03-15T10:50:21Z</time>
      </trkpt>
      <trkpt lat="45.96987" lon="4.93619">
        <ele>299</ele>
        <time>2017-03-15T10:50:22Z</time>
      </trkpt>
      <trkpt lat="45.96983" lon="4.93623">
        <ele>299</ele>
        <time>2017-03-15T10:50:23Z</time>
      </trkpt>
      <trkpt lat="45.96979" lon="4.93628">
        <ele>299</ele>
        <time>2017-03-15T10:50:24Z</time>
      </trkpt>
      <trkpt lat="45.96975" lon="4.93633">
        <ele>299</ele>
        <time>2017-03-15T10:50:25Z</time>
      </trkpt>
      <trkpt lat="45.9697" lon="4.93638">
        <ele>299</ele>
        <time>2017-03-15T10:50:26Z</time>
      </trkpt>
      <trkpt lat="45.96966" lon="4.93643">
        <ele>299</ele>
        <time>2017-03-15T10:50:27Z</time>
      </trkpt>
      <trkpt lat="45.96961" lon="4.93648">
        <ele>299</ele>
        <time>2017-03-15T10:50:28Z</time>
      </trkpt>
      <trkpt lat="45.96957" lon="4.93654">
        <ele>299</ele>
        <time>2017-03-15T10:50:29Z</time>
      </trkpt>
      <trkpt lat="45.96952" lon="4.9366">
        <ele>299</ele>
        <time>2017-03-15T10:50:30Z</time>
      </trkpt>
      <trkpt lat="45.96947" lon="4.93666">
        <ele>298</ele>
        <time>2017-03-15T10:50:31Z</time>
      </trkpt>
      <trkpt lat="45.96942" lon="4.93672">
        <ele>298</ele>
        <time>2017-03-15T10:50:32Z</time>
      </trkpt>
      <trkpt lat="45.96937" lon="4.93678">
        <ele>298</ele>
        <time>2017-03-15T10:50:33Z</time>
      </trkpt>
      <trkpt lat="45.96932" lon="4.93683">
        <ele>298</ele>
        <time>2017-03-15T10:50:34Z</time>
      </trkpt>
      <trkpt lat="45.96927" lon="4.93689">
        <ele>298</ele>
        <time>2017-03-15T10:50:35Z</time>
      </trkpt>
      <trkpt lat="45.96921" lon="4.93695">
        <ele>298</ele>
        <time>2017-03-15T10:50:36Z</time>
      </trkpt>
      <trkpt lat="45.96916" lon="4.937">
        <ele>297</ele>
        <time>2017-03-15T10:50:37Z</time>
      </trkpt>
      <trkpt lat="45.96911" lon="4.93705">
        <ele>297</ele>
        <time>2017-03-15T10:50:38Z</time>
      </trkpt>
      <trkpt lat="45.96905" lon="4.93711">
        <ele>297</ele>
        <time>2017-03-15T10:50:39Z</time>
      </trkpt>
      <trkpt lat="45.96898" lon="4.93716">
        <ele>297</ele>
        <time>2017-03-15T10:50:40Z</time>
      </trkpt>
      <trkpt lat="45.96892" lon="4.9372">
        <ele>297</ele>
        <time>2017-03-15T10:50:41Z</time>
      </trkpt>
      <trkpt lat="45.96885" lon="4.93724">
        <ele>297</ele>
        <time>2017-03-15T10:50:42Z</time>
      </trkpt>
      <trkpt lat="45.96879" lon="4.93728">
        <ele>297</ele>
        <time>2017-03-15T10:50:43Z</time>
      </trkpt>
      <trkpt lat="45.96872" lon="4.93732">
        <ele>297</ele>
        <time>2017-03-15T10:50:44Z</time>
      </trkpt>
      <trkpt lat="45.96865" lon="4.93735">
        <ele>297</ele>
        <time>2017-03-15T10:50:45Z</time>
      </trkpt>
      <trkpt lat="45.96858" lon="4.93738">
        <ele>297</ele>
        <time>2017-03-15T10:50:46Z</time>
      </trkpt>
      <trkpt lat="45.96851" lon="4.9374">
        <ele>297</ele>
        <time>2017-03-15T10:50:47Z</time>
      </trkpt>
      <trkpt lat="45.96844" lon="4.93742">
        <ele>296</ele>
        <time>2017-03-15T10:50:48Z</time>
      </trkpt>
      <trkpt lat="45.96837" lon="4.93744">
        <ele>296</ele>
        <time>2017-03-15T10:50:49Z</time>
      </trkpt>
      <trkpt lat="45.9683" lon="4.93746">
        <ele>296</ele>
        <time>2017-03-15T10:50:50Z</time>
      </trkpt>
      <trkpt lat="45.96823" lon="4.93749">
        <ele>296</ele>
        <time>2017-03-15T10:50:51Z</time>
      </trkpt>
      <trkpt lat="45.96816" lon="4.93752">
        <ele>296</ele>
        <time>2017-03-15T10:50:52Z</time>
      </trkpt>
      <trkpt lat="45.96808" lon="4.93755">
        <ele>295</ele>
        <time>2017-03-15T10:50:53Z</time>
      </trkpt>
      <trkpt lat="45.96801" lon="4.93757">
        <ele>295</ele>
        <time>2017-03-15T10:50:54Z</time>
      </trkpt>
      <trkpt lat="45.96794" lon="4.9376">
        <ele>295</ele>
        <time>2017-03-15T10:50:55Z</time>
      </trkpt>
      <trkpt lat="45.96786" lon="4.93763">
        <ele>295</ele>
        <time>2017-03-15T10:50:56Z</time>
      </trkpt>
      <trkpt lat="45.96779" lon="4.93765">
        <ele>295</ele>
        <time>2017-03-15T10:50:57Z</time>
      </trkpt>
      <trkpt lat="45.96771" lon="4.93768">
        <ele>295</ele>
        <time>2017-03-15T10:50:58Z</time>
      </trkpt>
      <trkpt lat="45.96764" lon="4.93771">
        <ele>295</ele>
        <time>2017-03-15T10:50:59Z</time>
      </trkpt>
      <trkpt lat="45.96757" lon="4.93774">
        <ele>295</ele>
        <time>2017-03-15T10:51:00Z</time>
      </trkpt>
      <trkpt lat="45.9675" lon="4.93776">
        <ele>295</ele>
        <time>2017-03-15T10:51:01Z</time>
      </trkpt>
      <trkpt lat="45.96742" lon="4.93779">
        <ele>295</ele>
        <time>2017-03-15T10:51:02Z</time>
      </trkpt>
      <trkpt lat="45.96735" lon="4.93782">
        <ele>296</ele>
        <time>2017-03-15T10:51:03Z</time>
      </trkpt>
      <trkpt lat="45.96728" lon="4.93784">
        <ele>296</ele>
        <time>2017-03-15T10:51:04Z</time>
      </trkpt>
      <trkpt lat="45.96721" lon="4.93787">
        <ele>296</ele>
        <time>2017-03-15T10:51:05Z</time>
      </trkpt>
      <trkpt lat="45.96715" lon="4.93789">
        <ele>296</ele>
        <time>2017-03-15T10:51:06Z</time>
      </trkpt>
      <trkpt lat="45.96708" lon="4.93791">
        <ele>296</ele>
        <time>2017-03-15T10:51:07Z</time>
      </trkpt>
      <trkpt lat="45.96701" lon="4.93794">
        <ele>296</ele>
        <time>2017-03-15T10:51:08Z</time>
      </trkpt>
      <trkpt lat="45.96695" lon="4.93796">
        <ele>297</ele>
        <time>2017-03-15T10:51:09Z</time>
      </trkpt>
      <trkpt lat="45.96688" lon="4.93798">
        <ele>297</ele>
        <time>2017-03-15T10:51:10Z</time>
      </trkpt>
      <trkpt lat="45.96682" lon="4.938">
        <ele>297</ele>
        <time>2017-03-15T10:51:11Z</time>
      </trkpt>
      <trkpt lat="45.96676" lon="4.93802">
        <ele>297</ele>
        <time>2017-03-15T10:51:12Z</time>
      </trkpt>
      <trkpt lat="45.9667" lon="4.93804">
        <ele>297</ele>
        <time>2017-03-15T10:51:13Z</time>
      </trkpt>
      <trkpt lat="45.96663" lon="4.93807">
        <ele>297</ele>
        <time>2017-03-15T10:51:14Z</time>
      </trkpt>
      <trkpt lat="45.96657" lon="4.93809">
        <ele>297</ele>
        <time>2017-03-15T10:51:15Z</time>
      </trkpt>
      <trkpt lat="45.9665" lon="4.93811">
        <ele>297</ele>
        <time>2017-03-15T10:51:16Z</time>
      </trkpt>
      <trkpt lat="45.96644" lon="4.93814">
        <ele>297</ele>
        <time>2017-03-15T10:51:17Z</time>
      </trkpt>
      <trkpt lat="45.96637" lon="4.93816">
        <ele>297</ele>
        <time>2017-03-15T10:51:18Z</time>
      </trkpt>
      <trkpt lat="45.9663" lon="4.93819">
        <ele>297</ele>
        <time>2017-03-15T10:51:19Z</time>
      </trkpt>
      <trkpt lat="45.96624" lon="4.9382">
        <ele>297</ele>
        <time>2017-03-15T10:51:20Z</time>
      </trkpt>
      <trkpt lat="45.96617" lon="4.93823">
        <ele>297</ele>
        <time>2017-03-15T10:51:21Z</time>
      </trkpt>
      <trkpt lat="45.9661" lon="4.93825">
        <ele>297</ele>
        <time>2017-03-15T10:51:22Z</time>
      </trkpt>
      <trkpt lat="45.96603" lon="4.93828">
        <ele>297</ele>
        <time>2017-03-15T10:51:23Z</time>
      </trkpt>
      <trkpt lat="45.96597" lon="4.9383">
        <ele>296</ele>
        <time>2017-03-15T10:51:24Z</time>
      </trkpt>
      <trkpt lat="45.9659" lon="4.93833">
        <ele>296</ele>
        <time>2017-03-15T10:51:25Z</time>
      </trkpt>
      <trkpt lat="45.96583" lon="4.93835">
        <ele>296</ele>
        <time>2017-03-15T10:51:26Z</time>
      </trkpt>
      <trkpt lat="45.96577" lon="4.93837">
        <ele>296</ele>
        <time>2017-03-15T10:51:27Z</time>
      </trkpt>
      <trkpt lat="45.9657" lon="4.9384">
        <ele>296</ele>
        <time>2017-03-15T10:51:28Z</time>
      </trkpt>
      <trkpt lat="45.96564" lon="4.93842">
        <ele>296</ele>
        <time>2017-03-15T10:51:29Z</time>
      </trkpt>
      <trkpt lat="45.96558" lon="4.93844">
        <ele>296</ele>
        <time>2017-03-15T10:51:30Z</time>
      </trkpt>
      <trkpt lat="45.96551" lon="4.93847">
        <ele>296</ele>
        <time>2017-03-15T10:51:31Z</time>
      </trkpt>
      <trkpt lat="45.96545" lon="4.93849">
        <ele>296</ele>
        <time>2017-03-15T10:51:32Z</time>
      </trkpt>
      <trkpt lat="45.96539" lon="4.93851">
        <ele>296</ele>
        <time>2017-03-15T10:51:33Z</time>
      </trkpt>
      <trkpt lat="45.96533" lon="4.93853">
        <ele>296</ele>
        <time>2017-03-15T10:51:34Z</time>
      </trkpt>
      <trkpt lat="45.96527" lon="4.93855">
        <ele>296</ele>
        <time>2017-03-15T10:51:35Z</time>
      </trkpt>
      <trkpt lat="45.9652" lon="4.93858">
        <ele>296</ele>
        <time>2017-03-15T10:51:36Z</time>
      </trkpt>
      <trkpt lat="45.96514" lon="4.9386">
        <ele>296</ele>
        <time>2017-03-15T10:51:37Z</time>
      </trkpt>
      <trkpt lat="45.96507" lon="4.93862">
        <ele>296</ele>
        <time>2017-03-15T10:51:38Z</time>
      </trkpt>
      <trkpt lat="45.96501" lon="4.93864">
        <ele>296</ele>
        <time>2017-03-15T10:51:39Z</time>
      </trkpt>
      <trkpt lat="45.96495" lon="4.93867">
        <ele>296</ele>
        <time>2017-03-15T10:51:40Z</time>
      </trkpt>
      <trkpt lat="45.96489" lon="4.93869">
        <ele>296</ele>
        <time>2017-03-15T10:51:41Z</time>
      </trkpt>
      <trkpt lat="45.96483" lon="4.93871">
        <ele>296</ele>
        <time>2017-03-15T10:51:42Z</time>
      </trkpt>
      <trkpt lat="45.96477" lon="4.93874">
        <ele>296</ele>
        <time>2017-03-15T10:51:43Z</time>
      </trkpt>
      <trkpt lat="45.9647" lon="4.93876">
        <ele>295</ele>
        <time>2017-03-15T10:51:44Z</time>
      </trkpt>
      <trkpt lat="45.96464" lon="4.93878">
        <ele>295</ele>
        <time>2017-03-15T10:51:45Z</time>
      </trkpt>
      <trkpt lat="45.96458" lon="4.93881">
        <ele>296</ele>
        <time>2017-03-15T10:51:46Z</time>
      </trkpt>
      <trkpt lat="45.96452" lon="4.93883">
        <ele>296</ele>
        <time>2017-03-15T10:51:47Z</time>
      </trkpt>
      <trkpt lat="45.96445" lon="4.93885">
        <ele>296</ele>
        <time>2017-03-15T10:51:48Z</time>
      </trkpt>
      <trkpt lat="45.96439" lon="4.93887">
        <ele>296</ele>
        <time>2017-03-15T10:51:49Z</time>
      </trkpt>
      <trkpt lat="45.96433" lon="4.93889">
        <ele>296</ele>
        <time>2017-03-15T10:51:50Z</time>
      </trkpt>
      <trkpt lat="45.96427" lon="4.93891">
        <ele>296</ele>
        <time>2017-03-15T10:51:51Z</time>
      </trkpt>
      <trkpt lat="45.96421" lon="4.93893">
        <ele>296</ele>
        <time>2017-03-15T10:51:52Z</time>
      </trkpt>
      <trkpt lat="45.96415" lon="4.93895">
        <ele>295</ele>
        <time>2017-03-15T10:51:53Z</time>
      </trkpt>
      <trkpt lat="45.96409" lon="4.93897">
        <ele>295</ele>
        <time>2017-03-15T10:51:54Z</time>
      </trkpt>
      <trkpt lat="45.96402" lon="4.93899">
        <ele>295</ele>
        <time>2017-03-15T10:51:55Z</time>
      </trkpt>
      <trkpt lat="45.96395" lon="4.93901">
        <ele>295</ele>
        <time>2017-03-15T10:51:56Z</time>
      </trkpt>
      <trkpt lat="45.96389" lon="4.93903">
        <ele>294</ele>
        <time>2017-03-15T10:51:57Z</time>
      </trkpt>
      <trkpt lat="45.96382" lon="4.93906">
        <ele>294</ele>
        <time>2017-03-15T10:51:58Z</time>
      </trkpt>
      <trkpt lat="45.96375" lon="4.93908">
        <ele>294</ele>
        <time>2017-03-15T10:51:59Z</time>
      </trkpt>
      <trkpt lat="45.96368" lon="4.93911">
        <ele>294</ele>
        <time>2017-03-15T10:52:00Z</time>
      </trkpt>
      <trkpt lat="45.96361" lon="4.93914">
        <ele>294</ele>
        <time>2017-03-15T10:52:01Z</time>
      </trkpt>
      <trkpt lat="45.96354" lon="4.93916">
        <ele>294</ele>
        <time>2017-03-15T10:52:02Z</time>
      </trkpt>
      <trkpt lat="45.96347" lon="4.93918">
        <ele>293</ele>
        <time>2017-03-15T10:52:03Z</time>
      </trkpt>
      <trkpt lat="45.9634" lon="4.93921">
        <ele>293</ele>
        <time>2017-03-15T10:52:04Z</time>
      </trkpt>
      <trkpt lat="45.96334" lon="4.93923">
        <ele>293</ele>
        <time>2017-03-15T10:52:05Z</time>
      </trkpt>
      <trkpt lat="45.96327" lon="4.93926">
        <ele>292</ele>
        <time>2017-03-15T10:52:06Z</time>
      </trkpt>
      <trkpt lat="45.9632" lon="4.93928">
        <ele>292</ele>
        <time>2017-03-15T10:52:07Z</time>
      </trkpt>
      <trkpt lat="45.96313" lon="4.9393">
        <ele>292</ele>
        <time>2017-03-15T10:52:08Z</time>
      </trkpt>
      <trkpt lat="45.96306" lon="4.93932">
        <ele>292</ele>
        <time>2017-03-15T10:52:09Z</time>
      </trkpt>
      <trkpt lat="45.96299" lon="4.93934">
        <ele>292</ele>
        <time>2017-03-15T10:52:10Z</time>
      </trkpt>
      <trkpt lat="45.96292" lon="4.93936">
        <ele>292</ele>
        <time>2017-03-15T10:52:11Z</time>
      </trkpt>
      <trkpt lat="45.96285" lon="4.93939">
        <ele>292</ele>
        <time>2017-03-15T10:52:12Z</time>
      </trkpt>
      <trkpt lat="45.96278" lon="4.93941">
        <ele>291</ele>
        <time>2017-03-15T10:52:13Z</time>
      </trkpt>
      <trkpt lat="45.96271" lon="4.93944">
        <ele>291</ele>
        <time>2017-03-15T10:52:14Z</time>
      </trkpt>
      <trkpt lat="45.96263" lon="4.93946">
        <ele>291</ele>
        <time>2017-03-15T10:52:15Z</time>
      </trkpt>
      <trkpt lat="45.96256" lon="4.9395">
        <ele>291</ele>
        <time>2017-03-15T10:52:16Z</time>
      </trkpt>
      <trkpt lat="45.96249" lon="4.93954">
        <ele>290</ele>
        <time>2017-03-15T10:52:17Z</time>
      </trkpt>
      <trkpt lat="45.96242" lon="4.93958">
        <ele>290</ele>
        <time>2017-03-15T10:52:18Z</time>
      </trkpt>
      <trkpt lat="45.96235" lon="4.93962">
        <ele>290</ele>
        <time>2017-03-15T10:52:19Z</time>
      </trkpt>
      <trkpt lat="45.96228" lon="4.93967">
        <ele>290</ele>
        <time>2017-03-15T10:52:20Z</time>
      </trkpt>
      <trkpt lat="45.96222" lon="4.93972">
        <ele>290</ele>
        <time>2017-03-15T10:52:21Z</time>
      </trkpt>
      <trkpt lat="45.96215" lon="4.93977">
        <ele>290</ele>
        <time>2017-03-15T10:52:22Z</time>
      </trkpt>
      <trkpt lat="45.96208" lon="4.93983">
        <ele>290</ele>
        <time>2017-03-15T10:52:23Z</time>
      </trkpt>
      <trkpt lat="45.96202" lon="4.93988">
        <ele>290</ele>
        <time>2017-03-15T10:52:24Z</time>
      </trkpt>
      <trkpt lat="45.96196" lon="4.93994">
        <ele>290</ele>
        <time>2017-03-15T10:52:25Z</time>
      </trkpt>
      <trkpt lat="45.9619" lon="4.93999">
        <ele>290</ele>
        <time>2017-03-15T10:52:26Z</time>
      </trkpt>
      <trkpt lat="45.96184" lon="4.94005">
        <ele>290</ele>
        <time>2017-03-15T10:52:27Z</time>
      </trkpt>
      <trkpt lat="45.96178" lon="4.9401">
        <ele>290</ele>
        <time>2017-03-15T10:52:28Z</time>
      </trkpt>
      <trkpt lat="45.96173" lon="4.94015">
        <ele>290</ele>
        <time>2017-03-15T10:52:29Z</time>
      </trkpt>
      <trkpt lat="45.96167" lon="4.9402">
        <ele>290</ele>
        <time>2017-03-15T10:52:30Z</time>
      </trkpt>
      <trkpt lat="45.96162" lon="4.94025">
        <ele>290</ele>
        <time>2017-03-15T10:52:31Z</time>
      </trkpt>
      <trkpt lat="45.96156" lon="4.94029">
        <ele>290</ele>
        <time>2017-03-15T10:52:32Z</time>
      </trkpt>
      <trkpt lat="45.96151" lon="4.94034">
        <ele>290</ele>
        <time>2017-03-15T10:52:33Z</time>
      </trkpt>
      <trkpt lat="45.96146" lon="4.94039">
        <ele>290</ele>
        <time>2017-03-15T10:52:34Z</time>
      </trkpt>
      <trkpt lat="45.9614" lon="4.94044">
        <ele>290</ele>
        <time>2017-03-15T10:52:35Z</time>
      </trkpt>
      <trkpt lat="45.96134" lon="4.94049">
        <ele>290</ele>
        <time>2017-03-15T10:52:36Z</time>
      </trkpt>
      <trkpt lat="45.96129" lon="4.94053">
        <ele>290</ele>
        <time>2017-03-15T10:52:37Z</time>
      </trkpt>
      <trkpt lat="45.96123" lon="4.94058">
        <ele>290</ele>
        <time>2017-03-15T10:52:38Z</time>
      </trkpt>
      <trkpt lat="45.96118" lon="4.94063">
        <ele>290</ele>
        <time>2017-03-15T10:52:39Z</time>
      </trkpt>
      <trkpt lat="45.96112" lon="4.94068">
        <ele>290</ele>
        <time>2017-03-15T10:52:40Z</time>
      </trkpt>
      <trkpt lat="45.96106" lon="4.94073">
        <ele>291</ele>
        <time>2017-03-15T10:52:41Z</time>
      </trkpt>
      <trkpt lat="45.961" lon="4.94077">
        <ele>291</ele>
        <time>2017-03-15T10:52:42Z</time>
      </trkpt>
      <trkpt lat="45.96093" lon="4.94082">
        <ele>291</ele>
        <time>2017-03-15T10:52:43Z</time>
      </trkpt>
      <trkpt lat="45.96088" lon="4.94088">
        <ele>291</ele>
        <time>2017-03-15T10:52:44Z</time>
      </trkpt>
      <trkpt lat="45.96082" lon="4.94093">
        <ele>291</ele>
        <time>2017-03-15T10:52:45Z</time>
      </trkpt>
      <trkpt lat="45.96075" lon="4.94098">
        <ele>291</ele>
        <time>2017-03-15T10:52:46Z</time>
      </trkpt>
      <trkpt lat="45.96069" lon="4.94104">
        <ele>291</ele>
        <time>2017-03-15T10:52:47Z</time>
      </trkpt>
      <trkpt lat="45.96063" lon="4.94109">
        <ele>291</ele>
        <time>2017-03-15T10:52:48Z</time>
      </trkpt>
      <trkpt lat="45.96056" lon="4.94114">
        <ele>291</ele>
        <time>2017-03-15T10:52:49Z</time>
      </trkpt>
      <trkpt lat="45.9605" lon="4.94118">
        <ele>291</ele>
        <time>2017-03-15T10:52:50Z</time>
      </trkpt>
      <trkpt lat="45.96044" lon="4.94122">
        <ele>291</ele>
        <time>2017-03-15T10:52:51Z</time>
      </trkpt>
      <trkpt lat="45.96037" lon="4.94124">
        <ele>291</ele>
        <time>2017-03-15T10:52:52Z</time>
      </trkpt>
      <trkpt lat="45.96031" lon="4.94125">
        <ele>291</ele>
        <time>2017-03-15T10:52:53Z</time>
      </trkpt>
      <trkpt lat="45.96024" lon="4.94125">
        <ele>291</ele>
        <time>2017-03-15T10:52:54Z</time>
      </trkpt>
      <trkpt lat="45.96018" lon="4.94125">
        <ele>291</ele>
        <time>2017-03-15T10:52:55Z</time>
      </trkpt>
      <trkpt lat="45.96012" lon="4.94124">
        <ele>291</ele>
        <time>2017-03-15T10:52:56Z</time>
      </trkpt>
      <trkpt lat="45.96006" lon="4.94122">
        <ele>291</ele>
        <time>2017-03-15T10:52:57Z</time>
      </trkpt>
      <trkpt lat="45.96" lon="4.9412">
        <ele>291</ele>
        <time>2017-03-15T10:52:58Z</time>
      </trkpt>
      <trkpt lat="45.95995" lon="4.94118">
        <ele>291</ele>
        <time>2017-03-15T10:52:59Z</time>
      </trkpt>
      <trkpt lat="45.95989" lon="4.94117">
        <ele>292</ele>
        <time>2017-03-15T10:53:00Z</time>
      </trkpt>
      <trkpt lat="45.95983" lon="4.94115">
        <ele>292</ele>
        <time>2017-03-15T10:53:01Z</time>
      </trkpt>
      <trkpt lat="45.95977" lon="4.94113">
        <ele>292</ele>
        <time>2017-03-15T10:53:02Z</time>
      </trkpt>
      <trkpt lat="45.95972" lon="4.94112">
        <ele>292</ele>
        <time>2017-03-15T10:53:03Z</time>
      </trkpt>
      <trkpt lat="45.95966" lon="4.9411">
        <ele>292</ele>
        <time>2017-03-15T10:53:04Z</time>
      </trkpt>
      <trkpt lat="45.95961" lon="4.94109">
        <ele>292</ele>
        <time>2017-03-15T10:53:05Z</time>
      </trkpt>
      <trkpt lat="45.95955" lon="4.94108">
        <ele>292</ele>
        <time>2017-03-15T10:53:06Z</time>
      </trkpt>
      <trkpt lat="45.9595" lon="4.94107">
        <ele>292</ele>
        <time>2017-03-15T10:53:07Z</time>
      </trkpt>
      <trkpt lat="45.95945" lon="4.94106">
        <ele>292</ele>
        <time>2017-03-15T10:53:08Z</time>
      </trkpt>
      <trkpt lat="45.95939" lon="4.94104">
        <ele>292</ele>
        <time>2017-03-15T10:53:09Z</time>
      </trkpt>
      <trkpt lat="45.95934" lon="4.94103">
        <ele>292</ele>
        <time>2017-03-15T10:53:10Z</time>
      </trkpt>
      <trkpt lat="45.95929" lon="4.94101">
        <ele>292</ele>
        <time>2017-03-15T10:53:11Z</time>
      </trkpt>
      <trkpt lat="45.95923" lon="4.941">
        <ele>292</ele>
        <time>2017-03-15T10:53:12Z</time>
      </trkpt>
      <trkpt lat="45.95918" lon="4.94099">
        <ele>292</ele>
        <time>2017-03-15T10:53:13Z</time>
      </trkpt>
      <trkpt lat="45.95912" lon="4.94097">
        <ele>293</ele>
        <time>2017-03-15T10:53:14Z</time>
      </trkpt>
      <trkpt lat="45.95906" lon="4.94094">
        <ele>293</ele>
        <time>2017-03-15T10:53:15Z</time>
      </trkpt>
      <trkpt lat="45.95901" lon="4.94092">
        <ele>293</ele>
        <time>2017-03-15T10:53:16Z</time>
      </trkpt>
      <trkpt lat="45.95896" lon="4.9409">
        <ele>293</ele>
        <time>2017-03-15T10:53:17Z</time>
      </trkpt>
      <trkpt lat="45.95891" lon="4.94089">
        <ele>293</ele>
        <time>2017-03-15T10:53:18Z</time>
      </trkpt>
      <trkpt lat="45.95887" lon="4.94088">
        <ele>293</ele>
        <time>2017-03-15T10:53:19Z</time>
      </trkpt>
      <trkpt lat="45.95882" lon="4.94086">
        <ele>293</ele>
        <time>2017-03-15T10:53:20Z</time>
      </trkpt>
      <trkpt lat="45.95877" lon="4.94085">
        <ele>293</ele>
        <time>2017-03-15T10:53:21Z</time>
      </trkpt>
      <trkpt lat="45.95872" lon="4.94083">
        <ele>293</ele>
        <time>2017-03-15T10:53:22Z</time>
      </trkpt>
      <trkpt lat="45.95867" lon="4.94081">
        <ele>293</ele>
        <time>2017-03-15T10:53:23Z</time>
      </trkpt>
      <trkpt lat="45.95862" lon="4.9408">
        <ele>293</ele>
        <time>2017-03-15T10:53:24Z</time>
      </trkpt>
      <trkpt lat="45.95856" lon="4.94079">
        <ele>293</ele>
        <time>2017-03-15T10:53:25Z</time>
      </trkpt>
      <trkpt lat="45.95851" lon="4.94077">
        <ele>293</ele>
        <time>2017-03-15T10:53:26Z</time>
      </trkpt>
      <trkpt lat="45.95845" lon="4.94077">
        <ele>293</ele>
        <time>2017-03-15T10:53:27Z</time>
      </trkpt>
      <trkpt lat="45.9584" lon="4.94075">
        <ele>294</ele>
        <time>2017-03-15T10:53:28Z</time>
      </trkpt>
      <trkpt lat="45.95835" lon="4.94074">
        <ele>294</ele>
        <time>2017-03-15T10:53:29Z</time>
      </trkpt>
      <trkpt lat="45.95829" lon="4.94072">
        <ele>294</ele>
        <time>2017-03-15T10:53:30Z</time>
      </trkpt>
      <trkpt lat="45.95824" lon="4.94071">
        <ele>294</ele>
        <time>2017-03-15T10:53:31Z</time>
      </trkpt>
      <trkpt lat="45.95818" lon="4.9407">
        <ele>294</ele>
        <time>2017-03-15T10:53:32Z</time>
      </trkpt>
      <trkpt lat="45.95813" lon="4.94069">
        <ele>294</ele>
        <time>2017-03-15T10:53:33Z</time>
      </trkpt>
      <trkpt lat="45.95808" lon="4.94069">
        <ele>294</ele>
        <time>2017-03-15T10:53:34Z</time>
      </trkpt>
      <trkpt lat="45.95803" lon="4.94068">
        <ele>294</ele>
        <time>2017-03-15T10:53:35Z</time>
      </trkpt>
      <trkpt lat="45.95797" lon="4.94066">
        <ele>294</ele>
        <time>2017-03-15T10:53:36Z</time>
      </trkpt>
      <trkpt lat="45.95791" lon="4.94065">
        <ele>294</ele>
        <time>2017-03-15T10:53:37Z</time>
      </trkpt>
      <trkpt lat="45.95786" lon="4.94064">
        <ele>294</ele>
        <time>2017-03-15T10:53:38Z</time>
      </trkpt>
      <trkpt lat="45.9578" lon="4.94062">
        <ele>294</ele>
        <time>2017-03-15T10:53:39Z</time>
      </trkpt>
      <trkpt lat="45.95773" lon="4.9406">
        <ele>294</ele>
        <time>2017-03-15T10:53:40Z</time>
      </trkpt>
      <trkpt lat="45.95767" lon="4.94058">
        <ele>294</ele>
        <time>2017-03-15T10:53:41Z</time>
      </trkpt>
      <trkpt lat="45.95761" lon="4.94056">
        <ele>294</ele>
        <time>2017-03-15T10:53:42Z</time>
      </trkpt>
      <trkpt lat="45.95755" lon="4.94054">
        <ele>294</ele>
        <time>2017-03-15T10:53:43Z</time>
      </trkpt>
      <trkpt lat="45.9575" lon="4.94053">
        <ele>295</ele>
        <time>2017-03-15T10:53:44Z</time>
      </trkpt>
      <trkpt lat="45.95743" lon="4.94052">
        <ele>295</ele>
        <time>2017-03-15T10:53:45Z</time>
      </trkpt>
      <trkpt lat="45.95737" lon="4.94051">
        <ele>295</ele>
        <time>2017-03-15T10:53:46Z</time>
      </trkpt>
      <trkpt lat="45.95732" lon="4.9405">
        <ele>295</ele>
        <time>2017-03-15T10:53:47Z</time>
      </trkpt>
      <trkpt lat="45.95726" lon="4.94048">
        <ele>295</ele>
        <time>2017-03-15T10:53:48Z</time>
      </trkpt>
      <trkpt lat="45.9572" lon="4.94046">
        <ele>295</ele>
        <time>2017-03-15T10:53:49Z</time>
      </trkpt>
      <trkpt lat="45.95714" lon="4.94044">
        <ele>295</ele>
        <time>2017-03-15T10:53:50Z</time>
      </trkpt>
      <trkpt lat="45.95709" lon="4.94042">
        <ele>295</ele>
        <time>2017-03-15T10:53:51Z</time>
      </trkpt>
      <trkpt lat="45.95703" lon="4.94041">
        <ele>295</ele>
        <time>2017-03-15T10:53:52Z</time>
      </trkpt>
      <trkpt lat="45.95698" lon="4.94039">
        <ele>295</ele>
        <time>2017-03-15T10:53:53Z</time>
      </trkpt>
      <trkpt lat="45.95693" lon="4.94037">
        <ele>295</ele>
        <time>2017-03-15T10:53:54Z</time>
      </trkpt>
      <trkpt lat="45.95688" lon="4.94035">
        <ele>295</ele>
        <time>2017-03-15T10:53:55Z</time>
      </trkpt>
      <trkpt lat="45.95683" lon="4.94034">
        <ele>295</ele>
        <time>2017-03-15T10:53:56Z</time>
      </trkpt>
      <trkpt lat="45.95678" lon="4.94034">
        <ele>295</ele>
        <time>2017-03-15T10:53:57Z</time>
      </trkpt>
      <trkpt lat="45.95669" lon="4.94033">
        <ele>295</ele>
        <time>2017-03-15T10:53:59Z</time>
      </trkpt>
      <trkpt lat="45.95665" lon="4.9403">
        <ele>294</ele>
        <time>2017-03-15T10:54:00Z</time>
      </trkpt>
      <trkpt lat="45.95662" lon="4.94021">
        <ele>294</ele>
        <time>2017-03-15T10:54:02Z</time>
      </trkpt>
      <trkpt lat="45.95663" lon="4.94016">
        <ele>295</ele>
        <time>2017-03-15T10:54:03Z</time>
      </trkpt>
      <trkpt lat="45.95664" lon="4.94006">
        <ele>295</ele>
        <time>2017-03-15T10:54:05Z</time>
      </trkpt>
      <trkpt lat="45.95663" lon="4.94001">
        <ele>296</ele>
        <time>2017-03-15T10:54:06Z</time>
      </trkpt>
      <trkpt lat="45.95662" lon="4.9399">
        <ele>295</ele>
        <time>2017-03-15T10:54:08Z</time>
      </trkpt>
      <trkpt lat="45.95659" lon="4.93986">
        <ele>295</ele>
        <time>2017-03-15T10:54:09Z</time>
      </trkpt>
      <trkpt lat="45.95653" lon="4.93981">
        <ele>294</ele>
        <time>2017-03-15T10:54:11Z</time>
      </trkpt>
      <trkpt lat="45.9565" lon="4.93979">
        <ele>294</ele>
        <time>2017-03-15T10:54:12Z</time>
      </trkpt>
      <trkpt lat="45.95644" lon="4.93975">
        <ele>294</ele>
        <time>2017-03-15T10:54:14Z</time>
      </trkpt>
      <trkpt lat="45.9564" lon="4.93971">
        <ele>294</ele>
        <time>2017-03-15T10:54:15Z</time>
      </trkpt>
      <trkpt lat="45.9564" lon="4.93966">
        <ele>294</ele>
        <time>2017-03-15T10:54:16Z</time>
      </trkpt>
      <trkpt lat="45.9564" lon="4.93958">
        <ele>294</ele>
        <time>2017-03-15T10:54:17Z</time>
      </trkpt>
      <trkpt lat="45.95641" lon="4.93948">
        <ele>294</ele>
        <time>2017-03-15T10:54:18Z</time>
      </trkpt>
      <trkpt lat="45.95643" lon="4.93938">
        <ele>294</ele>
        <time>2017-03-15T10:54:19Z</time>
      </trkpt>
      <trkpt lat="45.95645" lon="4.93927">
        <ele>294</ele>
        <time>2017-03-15T10:54:20Z</time>
      </trkpt>
      <trkpt lat="45.95648" lon="4.93916">
        <ele>292</ele>
        <time>2017-03-15T10:54:21Z</time>
      </trkpt>
      <trkpt lat="45.9565" lon="4.93905">
        <ele>292</ele>
        <time>2017-03-15T10:54:22Z</time>
      </trkpt>
      <trkpt lat="45.95652" lon="4.93895">
        <ele>292</ele>
        <time>2017-03-15T10:54:23Z</time>
      </trkpt>
      <trkpt lat="45.95653" lon="4.93885">
        <ele>291</ele>
        <time>2017-03-15T10:54:24Z</time>
      </trkpt>
      <trkpt lat="45.95654" lon="4.93876">
        <ele>291</ele>
        <time>2017-03-15T10:54:25Z</time>
      </trkpt>
      <trkpt lat="45.95653" lon="4.93868">
        <ele>291</ele>
        <time>2017-03-15T10:54:26Z</time>
      </trkpt>
      <trkpt lat="45.9565" lon="4.93861">
        <ele>290</ele>
        <time>2017-03-15T10:54:27Z</time>
      </trkpt>
      <trkpt lat="45.95645" lon="4.93857">
        <ele>290</ele>
        <time>2017-03-15T10:54:28Z</time>
      </trkpt>
      <trkpt lat="45.9564" lon="4.93854">
        <ele>290</ele>
        <time>2017-03-15T10:54:29Z</time>
      </trkpt>
      <trkpt lat="45.95634" lon="4.9385">
        <ele>290</ele>
        <time>2017-03-15T10:54:30Z</time>
      </trkpt>
      <trkpt lat="45.95629" lon="4.93846">
        <ele>290</ele>
        <time>2017-03-15T10:54:31Z</time>
      </trkpt>
      <trkpt lat="45.95623" lon="4.93842">
        <ele>290</ele>
        <time>2017-03-15T10:54:32Z</time>
      </trkpt>
      <trkpt lat="45.95618" lon="4.93839">
        <ele>290</ele>
        <time>2017-03-15T10:54:33Z</time>
      </trkpt>
      <trkpt lat="45.95613" lon="4.93835">
        <ele>290</ele>
        <time>2017-03-15T10:54:34Z</time>
      </trkpt>
      <trkpt lat="45.95607" lon="4.9383">
        <ele>289</ele>
        <time>2017-03-15T10:54:35Z</time>
      </trkpt>
      <trkpt lat="45.95602" lon="4.93826">
        <ele>289</ele>
        <time>2017-03-15T10:54:36Z</time>
      </trkpt>
      <trkpt lat="45.95597" lon="4.93821">
        <ele>289</ele>
        <time>2017-03-15T10:54:37Z</time>
      </trkpt>
      <trkpt lat="45.95592" lon="4.93816">
        <ele>289</ele>
        <time>2017-03-15T10:54:38Z</time>
      </trkpt>
      <trkpt lat="45.95587" lon="4.93812">
        <ele>289</ele>
        <time>2017-03-15T10:54:39Z</time>
      </trkpt>
      <trkpt lat="45.95582" lon="4.93807">
        <ele>290</ele>
        <time>2017-03-15T10:54:40Z</time>
      </trkpt>
      <trkpt lat="45.95577" lon="4.93803">
        <ele>290</ele>
        <time>2017-03-15T10:54:41Z</time>
      </trkpt>
      <trkpt lat="45.95573" lon="4.93798">
        <ele>290</ele>
        <time>2017-03-15T10:54:42Z</time>
      </trkpt>
      <trkpt lat="45.95569" lon="4.93792">
        <ele>290</ele>
        <time>2017-03-15T10:54:43Z</time>
      </trkpt>
      <trkpt lat="45.95567" lon="4.93784">
        <ele>290</ele>
        <time>2017-03-15T10:54:44Z</time>
      </trkpt>
      <trkpt lat="45.95566" lon="4.93776">
        <ele>290</ele>
        <time>2017-03-15T10:54:45Z</time>
      </trkpt>
      <trkpt lat="45.95565" lon="4.93767">
        <ele>290</ele>
        <time>2017-03-15T10:54:46Z</time>
      </trkpt>
      <trkpt lat="45.95566" lon="4.93759">
        <ele>290</ele>
        <time>2017-03-15T10:54:47Z</time>
      </trkpt>
      <trkpt lat="45.95566" lon="4.9375">
        <ele>290</ele>
        <time>2017-03-15T10:54:48Z</time>
      </trkpt>
      <trkpt lat="45.95566" lon="4.93742">
        <ele>290</ele>
        <time>2017-03-15T10:54:49Z</time>
      </trkpt>
      <trkpt lat="45.95565" lon="4.93732">
        <ele>290</ele>
        <time>2017-03-15T10:54:50Z</time>
      </trkpt>
      <trkpt lat="45.95565" lon="4.93723">
        <ele>290</ele>
        <time>2017-03-15T10:54:51Z</time>
      </trkpt>
      <trkpt lat="45.95566" lon="4.93714">
        <ele>290</ele>
        <time>2017-03-15T10:54:52Z</time>
      </trkpt>
      <trkpt lat="45.95566" lon="4.93705">
        <ele>290</ele>
        <time>2017-03-15T10:54:53Z</time>
      </trkpt>
      <trkpt lat="45.95567" lon="4.93697">
        <ele>290</ele>
        <time>2017-03-15T10:54:54Z</time>
      </trkpt>
      <trkpt lat="45.95566" lon="4.93689">
        <ele>290</ele>
        <time>2017-03-15T10:54:55Z</time>
      </trkpt>
      <trkpt lat="45.95568" lon="4.9368">
        <ele>289</ele>
        <time>2017-03-15T10:54:56Z</time>
      </trkpt>
      <trkpt lat="45.95568" lon="4.93672">
        <ele>289</ele>
        <time>2017-03-15T10:54:57Z</time>
      </trkpt>
      <trkpt lat="45.95568" lon="4.93664">
        <ele>289</ele>
        <time>2017-03-15T10:54:58Z</time>
      </trkpt>
      <trkpt lat="45.95569" lon="4.93656">
        <ele>289</ele>
        <time>2017-03-15T10:54:59Z</time>
      </trkpt>
      <trkpt lat="45.95569" lon="4.93647">
        <ele>289</ele>
        <time>2017-03-15T10:55:00Z</time>
      </trkpt>
      <trkpt lat="45.95569" lon="4.93639">
        <ele>289</ele>
        <time>2017-03-15T10:55:01Z</time>
      </trkpt>
      <trkpt lat="45.95569" lon="4.93631">
        <ele>289</ele>
        <time>2017-03-15T10:55:02Z</time>
      </trkpt>
      <trkpt lat="45.95569" lon="4.93622">
        <ele>289</ele>
        <time>2017-03-15T10:55:03Z</time>
      </trkpt>
      <trkpt lat="45.9557" lon="4.93614">
        <ele>289</ele>
        <time>2017-03-15T10:55:04Z</time>
      </trkpt>
      <trkpt lat="45.95569" lon="4.93607">
        <ele>289</ele>
        <time>2017-03-15T10:55:05Z</time>
      </trkpt>
      <trkpt lat="45.95569" lon="4.936">
        <ele>289</ele>
        <time>2017-03-15T10:55:06Z</time>
      </trkpt>
      <trkpt lat="45.9557" lon="4.93593">
        <ele>289</ele>
        <time>2017-03-15T10:55:07Z</time>
      </trkpt>
      <trkpt lat="45.9557" lon="4.93585">
        <ele>289</ele>
        <time>2017-03-15T10:55:08Z</time>
      </trkpt>
      <trkpt lat="45.95572" lon="4.93578">
        <ele>289</ele>
        <time>2017-03-15T10:55:09Z</time>
      </trkpt>
      <trkpt lat="45.95573" lon="4.9357">
        <ele>289</ele>
        <time>2017-03-15T10:55:10Z</time>
      </trkpt>
      <trkpt lat="45.95573" lon="4.93563">
        <ele>289</ele>
        <time>2017-03-15T10:55:11Z</time>
      </trkpt>
      <trkpt lat="45.95574" lon="4.93556">
        <ele>289</ele>
        <time>2017-03-15T10:55:12Z</time>
      </trkpt>
      <trkpt lat="45.95574" lon="4.93549">
        <ele>289</ele>
        <time>2017-03-15T10:55:13Z</time>
      </trkpt>
      <trkpt lat="45.95575" lon="4.93543">
        <ele>289</ele>
        <time>2017-03-15T10:55:14Z</time>
      </trkpt>
      <trkpt lat="45.95574" lon="4.93535">
        <ele>290</ele>
        <time>2017-03-15T10:55:15Z</time>
      </trkpt>
      <trkpt lat="45.95574" lon="4.93527">
        <ele>290</ele>
        <time>2017-03-15T10:55:16Z</time>
      </trkpt>
      <trkpt lat="45.95573" lon="4.93518">
        <ele>290</ele>
        <time>2017-03-15T10:55:17Z</time>
      </trkpt>
      <trkpt lat="45.95571" lon="4.93511">
        <ele>290</ele>
        <time>2017-03-15T10:55:18Z</time>
      </trkpt>
      <trkpt lat="45.95569" lon="4.93504">
        <ele>290</ele>
        <time>2017-03-15T10:55:19Z</time>
      </trkpt>
      <trkpt lat="45.95566" lon="4.93497">
        <ele>290</ele>
        <time>2017-03-15T10:55:20Z</time>
      </trkpt>
      <trkpt lat="45.95564" lon="4.9349">
        <ele>290</ele>
        <time>2017-03-15T10:55:21Z</time>
      </trkpt>
      <trkpt lat="45.95561" lon="4.93484">
        <ele>289</ele>
        <time>2017-03-15T10:55:22Z</time>
      </trkpt>
      <trkpt lat="45.95557" lon="4.93478">
        <ele>289</ele>
        <time>2017-03-15T10:55:23Z</time>
      </trkpt>
      <trkpt lat="45.95554" lon="4.93472">
        <ele>289</ele>
        <time>2017-03-15T10:55:24Z</time>
      </trkpt>
      <trkpt lat="45.95552" lon="4.93466">
        <ele>289</ele>
        <time>2017-03-15T10:55:25Z</time>
      </trkpt>
      <trkpt lat="45.95549" lon="4.9346">
        <ele>289</ele>
        <time>2017-03-15T10:55:26Z</time>
      </trkpt>
      <trkpt lat="45.95546" lon="4.93455">
        <ele>289</ele>
        <time>2017-03-15T10:55:27Z</time>
      </trkpt>
      <trkpt lat="45.95543" lon="4.93449">
        <ele>289</ele>
        <time>2017-03-15T10:55:28Z</time>
      </trkpt>
      <trkpt lat="45.9554" lon="4.93442">
        <ele>289</ele>
        <time>2017-03-15T10:55:29Z</time>
      </trkpt>
      <trkpt lat="45.95537" lon="4.93435">
        <ele>289</ele>
        <time>2017-03-15T10:55:30Z</time>
      </trkpt>
      <trkpt lat="45.95535" lon="4.93429">
        <ele>289</ele>
        <time>2017-03-15T10:55:31Z</time>
      </trkpt>
      <trkpt lat="45.95532" lon="4.93423">
        <ele>289</ele>
        <time>2017-03-15T10:55:32Z</time>
      </trkpt>
      <trkpt lat="45.95529" lon="4.93416">
        <ele>289</ele>
        <time>2017-03-15T10:55:33Z</time>
      </trkpt>
      <trkpt lat="45.95526" lon="4.93409">
        <ele>289</ele>
        <time>2017-03-15T10:55:34Z</time>
      </trkpt>
      <trkpt lat="45.95524" lon="4.93402">
        <ele>289</ele>
        <time>2017-03-15T10:55:35Z</time>
      </trkpt>
      <trkpt lat="45.95522" lon="4.93395">
        <ele>289</ele>
        <time>2017-03-15T10:55:36Z</time>
      </trkpt>
      <trkpt lat="45.95519" lon="4.93388">
        <ele>289</ele>
        <time>2017-03-15T10:55:37Z</time>
      </trkpt>
      <trkpt lat="45.95516" lon="4.93382">
        <ele>289</ele>
        <time>2017-03-15T10:55:38Z</time>
      </trkpt>
      <trkpt lat="45.95513" lon="4.93375">
        <ele>289</ele>
        <time>2017-03-15T10:55:39Z</time>
      </trkpt>
      <trkpt lat="45.9551" lon="4.93369">
        <ele>289</ele>
        <time>2017-03-15T10:55:40Z</time>
      </trkpt>
      <trkpt lat="45.95507" lon="4.93362">
        <ele>289</ele>
        <time>2017-03-15T10:55:41Z</time>
      </trkpt>
      <trkpt lat="45.95505" lon="4.93355">
        <ele>289</ele>
        <time>2017-03-15T10:55:42Z</time>
      </trkpt>
      <trkpt lat="45.95502" lon="4.93349">
        <ele>289</ele>
        <time>2017-03-15T10:55:43Z</time>
      </trkpt>
      <trkpt lat="45.95499" lon="4.93343">
        <ele>289</ele>
        <time>2017-03-15T10:55:44Z</time>
      </trkpt>
      <trkpt lat="45.95496" lon="4.93337">
        <ele>289</ele>
        <time>2017-03-15T10:55:45Z</time>
      </trkpt>
      <trkpt lat="45.95494" lon="4.9333">
        <ele>289</ele>
        <time>2017-03-15T10:55:46Z</time>
      </trkpt>
      <trkpt lat="45.95492" lon="4.93323">
        <ele>289</ele>
        <time>2017-03-15T10:55:47Z</time>
      </trkpt>
      <trkpt lat="45.95491" lon="4.93316">
        <ele>290</ele>
        <time>2017-03-15T10:55:48Z</time>
      </trkpt>
      <trkpt lat="45.95488" lon="4.9331">
        <ele>290</ele>
        <time>2017-03-15T10:55:49Z</time>
      </trkpt>
      <trkpt lat="45.95485" lon="4.93304">
        <ele>290</ele>
        <time>2017-03-15T10:55:50Z</time>
      </trkpt>
      <trkpt lat="45.95482" lon="4.93298">
        <ele>290</ele>
        <time>2017-03-15T10:55:51Z</time>
      </trkpt>
      <trkpt lat="45.9548" lon="4.93292">
        <ele>290</ele>
        <time>2017-03-15T10:55:52Z</time>
      </trkpt>
      <trkpt lat="45.95477" lon="4.93286">
        <ele>290</ele>
        <time>2017-03-15T10:55:53Z</time>
      </trkpt>
      <trkpt lat="45.95474" lon="4.9328">
        <ele>290</ele>
        <time>2017-03-15T10:55:54Z</time>
      </trkpt>
      <trkpt lat="45.95472" lon="4.93274">
        <ele>290</ele>
        <time>2017-03-15T10:55:55Z</time>
      </trkpt>
      <trkpt lat="45.9547" lon="4.93268">
        <ele>290</ele>
        <time>2017-03-15T10:55:56Z</time>
      </trkpt>
      <trkpt lat="45.95468" lon="4.93261">
        <ele>290</ele>
        <time>2017-03-15T10:55:57Z</time>
      </trkpt>
      <trkpt lat="45.95467" lon="4.93255">
        <ele>290</ele>
        <time>2017-03-15T10:55:58Z</time>
      </trkpt>
      <trkpt lat="45.95465" lon="4.93249">
        <ele>290</ele>
        <time>2017-03-15T10:55:59Z</time>
      </trkpt>
      <trkpt lat="45.95462" lon="4.93243">
        <ele>290</ele>
        <time>2017-03-15T10:56:00Z</time>
      </trkpt>
      <trkpt lat="45.9546" lon="4.93237">
        <ele>290</ele>
        <time>2017-03-15T10:56:01Z</time>
      </trkpt>
      <trkpt lat="45.95458" lon="4.93231">
        <ele>291</ele>
        <time>2017-03-15T10:56:02Z</time>
      </trkpt>
      <trkpt lat="45.95455" lon="4.93225">
        <ele>291</ele>
        <time>2017-03-15T10:56:03Z</time>
      </trkpt>
      <trkpt lat="45.95453" lon="4.93219">
        <ele>291</ele>
        <time>2017-03-15T10:56:04Z</time>
      </trkpt>
      <trkpt lat="45.95451" lon="4.93212">
        <ele>291</ele>
        <time>2017-03-15T10:56:05Z</time>
      </trkpt>
      <trkpt lat="45.95448" lon="4.93205">
        <ele>291</ele>
        <time>2017-03-15T10:56:06Z</time>
      </trkpt>
      <trkpt lat="45.95448" lon="4.93198">
        <ele>291</ele>
        <time>2017-03-15T10:56:07Z</time>
      </trkpt>
      <trkpt lat="45.95449" lon="4.93191">
        <ele>291</ele>
        <time>2017-03-15T10:56:08Z</time>
      </trkpt>
      <trkpt lat="45.95451" lon="4.93184">
        <ele>291</ele>
        <time>2017-03-15T10:56:09Z</time>
      </trkpt>
      <trkpt lat="45.95453" lon="4.93179">
        <ele>291</ele>
        <time>2017-03-15T10:56:10Z</time>
      </trkpt>
      <trkpt lat="45.95456" lon="4.93174">
        <ele>291</ele>
        <time>2017-03-15T10:56:11Z</time>
      </trkpt>
      <trkpt lat="45.95463" lon="4.93166">
        <ele>290</ele>
        <time>2017-03-15T10:56:13Z</time>
      </trkpt>
      <trkpt lat="45.95467" lon="4.93164">
        <ele>290</ele>
        <time>2017-03-15T10:56:14Z</time>
      </trkpt>
      <trkpt lat="45.95474" lon="4.93159">
        <ele>290</ele>
        <time>2017-03-15T10:56:16Z</time>
      </trkpt>
      <trkpt lat="45.95478" lon="4.93157">
        <ele>290</ele>
        <time>2017-03-15T10:56:17Z</time>
      </trkpt>
      <trkpt lat="45.95483" lon="4.93154">
        <ele>290</ele>
        <time>2017-03-15T10:56:18Z</time>
      </trkpt>
      <trkpt lat="45.95489" lon="4.93152">
        <ele>290</ele>
        <time>2017-03-15T10:56:19Z</time>
      </trkpt>
      <trkpt lat="45.95494" lon="4.93149">
        <ele>290</ele>
        <time>2017-03-15T10:56:20Z</time>
      </trkpt>
      <trkpt lat="45.955" lon="4.93144">
        <ele>290</ele>
        <time>2017-03-15T10:56:21Z</time>
      </trkpt>
      <trkpt lat="45.95505" lon="4.93139">
        <ele>289</ele>
        <time>2017-03-15T10:56:22Z</time>
      </trkpt>
      <trkpt lat="45.95509" lon="4.93136">
        <ele>289</ele>
        <time>2017-03-15T10:56:23Z</time>
      </trkpt>
      <trkpt lat="45.95513" lon="4.93132">
        <ele>289</ele>
        <time>2017-03-15T10:56:24Z</time>
      </trkpt>
      <trkpt lat="45.95517" lon="4.93128">
        <ele>289</ele>
        <time>2017-03-15T10:56:25Z</time>
      </trkpt>
      <trkpt lat="45.9552" lon="4.93124">
        <ele>289</ele>
        <time>2017-03-15T10:56:26Z</time>
      </trkpt>
      <trkpt lat="45.95525" lon="4.9312">
        <ele>289</ele>
        <time>2017-03-15T10:56:27Z</time>
      </trkpt>
      <trkpt lat="45.95528" lon="4.93115">
        <ele>289</ele>
        <time>2017-03-15T10:56:28Z</time>
      </trkpt>
      <trkpt lat="45.95532" lon="4.93111">
        <ele>289</ele>
        <time>2017-03-15T10:56:29Z</time>
      </trkpt>
      <trkpt lat="45.95535" lon="4.93107">
        <ele>289</ele>
        <time>2017-03-15T10:56:30Z</time>
      </trkpt>
      <trkpt lat="45.95539" lon="4.93102">
        <ele>289</ele>
        <time>2017-03-15T10:56:31Z</time>
      </trkpt>
      <trkpt lat="45.95542" lon="4.93097">
        <ele>289</ele>
        <time>2017-03-15T10:56:32Z</time>
      </trkpt>
      <trkpt lat="45.95544" lon="4.93092">
        <ele>290</ele>
        <time>2017-03-15T10:56:33Z</time>
      </trkpt>
      <trkpt lat="45.95546" lon="4.93086">
        <ele>290</ele>
        <time>2017-03-15T10:56:34Z</time>
      </trkpt>
      <trkpt lat="45.95548" lon="4.93079">
        <ele>290</ele>
        <time>2017-03-15T10:56:35Z</time>
      </trkpt>
      <trkpt lat="45.95549" lon="4.93071">
        <ele>290</ele>
        <time>2017-03-15T10:56:36Z</time>
      </trkpt>
      <trkpt lat="45.9555" lon="4.93063">
        <ele>290</ele>
        <time>2017-03-15T10:56:37Z</time>
      </trkpt>
      <trkpt lat="45.95551" lon="4.93056">
        <ele>290</ele>
        <time>2017-03-15T10:56:38Z</time>
      </trkpt>
      <trkpt lat="45.95551" lon="4.93048">
        <ele>291</ele>
        <time>2017-03-15T10:56:39Z</time>
      </trkpt>
      <trkpt lat="45.95551" lon="4.93041">
        <ele>291</ele>
        <time>2017-03-15T10:56:40Z</time>
      </trkpt>
      <trkpt lat="45.95551" lon="4.93034">
        <ele>291</ele>
        <time>2017-03-15T10:56:41Z</time>
      </trkpt>
      <trkpt lat="45.95552" lon="4.93027">
        <ele>291</ele>
        <time>2017-03-15T10:56:42Z</time>
      </trkpt>
      <trkpt lat="45.95553" lon="4.9302">
        <ele>291</ele>
        <time>2017-03-15T10:56:43Z</time>
      </trkpt>
      <trkpt lat="45.95553" lon="4.93013">
        <ele>291</ele>
        <time>2017-03-15T10:56:44Z</time>
      </trkpt>
      <trkpt lat="45.95554" lon="4.93006">
        <ele>291</ele>
        <time>2017-03-15T10:56:45Z</time>
      </trkpt>
      <trkpt lat="45.95554" lon="4.92999">
        <ele>292</ele>
        <time>2017-03-15T10:56:46Z</time>
      </trkpt>
      <trkpt lat="45.95555" lon="4.92992">
        <ele>292</ele>
        <time>2017-03-15T10:56:47Z</time>
      </trkpt>
      <trkpt lat="45.95556" lon="4.92984">
        <ele>292</ele>
        <time>2017-03-15T10:56:48Z</time>
      </trkpt>
      <trkpt lat="45.95557" lon="4.92976">
        <ele>292</ele>
        <time>2017-03-15T10:56:49Z</time>
      </trkpt>
      <trkpt lat="45.95557" lon="4.92967">
        <ele>292</ele>
        <time>2017-03-15T10:56:50Z</time>
      </trkpt>
      <trkpt lat="45.95559" lon="4.92958">
        <ele>292</ele>
        <time>2017-03-15T10:56:51Z</time>
      </trkpt>
      <trkpt lat="45.9556" lon="4.9295">
        <ele>292</ele>
        <time>2017-03-15T10:56:52Z</time>
      </trkpt>
      <trkpt lat="45.95561" lon="4.92943">
        <ele>292</ele>
        <time>2017-03-15T10:56:53Z</time>
      </trkpt>
      <trkpt lat="45.95562" lon="4.92936">
        <ele>292</ele>
        <time>2017-03-15T10:56:54Z</time>
      </trkpt>
      <trkpt lat="45.95563" lon="4.92929">
        <ele>293</ele>
        <time>2017-03-15T10:56:55Z</time>
      </trkpt>
      <trkpt lat="45.95564" lon="4.92921">
        <ele>293</ele>
        <time>2017-03-15T10:56:56Z</time>
      </trkpt>
      <trkpt lat="45.95566" lon="4.92914">
        <ele>294</ele>
        <time>2017-03-15T10:56:57Z</time>
      </trkpt>
      <trkpt lat="45.95567" lon="4.92907">
        <ele>294</ele>
        <time>2017-03-15T10:56:58Z</time>
      </trkpt>
      <trkpt lat="45.95568" lon="4.929">
        <ele>294</ele>
        <time>2017-03-15T10:56:59Z</time>
      </trkpt>
      <trkpt lat="45.95571" lon="4.92893">
        <ele>294</ele>
        <time>2017-03-15T10:57:00Z</time>
      </trkpt>
      <trkpt lat="45.95572" lon="4.92886">
        <ele>294</ele>
        <time>2017-03-15T10:57:01Z</time>
      </trkpt>
      <trkpt lat="45.95574" lon="4.92879">
        <ele>294</ele>
        <time>2017-03-15T10:57:02Z</time>
      </trkpt>
      <trkpt lat="45.95574" lon="4.92872">
        <ele>294</ele>
        <time>2017-03-15T10:57:03Z</time>
      </trkpt>
      <trkpt lat="45.95575" lon="4.92865">
        <ele>294</ele>
        <time>2017-03-15T10:57:04Z</time>
      </trkpt>
      <trkpt lat="45.95576" lon="4.92858">
        <ele>294</ele>
        <time>2017-03-15T10:57:05Z</time>
      </trkpt>
      <trkpt lat="45.95577" lon="4.92851">
        <ele>294</ele>
        <time>2017-03-15T10:57:06Z</time>
      </trkpt>
      <trkpt lat="45.95578" lon="4.92845">
        <ele>294</ele>
        <time>2017-03-15T10:57:07Z</time>
      </trkpt>
      <trkpt lat="45.95579" lon="4.92832">
        <ele>295</ele>
        <time>2017-03-15T10:57:09Z</time>
      </trkpt>
      <trkpt lat="45.9558" lon="4.92826">
        <ele>295</ele>
        <time>2017-03-15T10:57:10Z</time>
      </trkpt>
      <trkpt lat="45.95581" lon="4.92819">
        <ele>295</ele>
        <time>2017-03-15T10:57:11Z</time>
      </trkpt>
      <trkpt lat="45.95582" lon="4.92812">
        <ele>294</ele>
        <time>2017-03-15T10:57:12Z</time>
      </trkpt>
      <trkpt lat="45.95583" lon="4.92806">
        <ele>294</ele>
        <time>2017-03-15T10:57:13Z</time>
      </trkpt>
      <trkpt lat="45.95584" lon="4.92799">
        <ele>295</ele>
        <time>2017-03-15T10:57:14Z</time>
      </trkpt>
      <trkpt lat="45.95585" lon="4.92792">
        <ele>295</ele>
        <time>2017-03-15T10:57:15Z</time>
      </trkpt>
      <trkpt lat="45.95586" lon="4.92785">
        <ele>295</ele>
        <time>2017-03-15T10:57:16Z</time>
      </trkpt>
      <trkpt lat="45.95587" lon="4.92778">
        <ele>295</ele>
        <time>2017-03-15T10:57:17Z</time>
      </trkpt>
      <trkpt lat="45.95589" lon="4.9277">
        <ele>295</ele>
        <time>2017-03-15T10:57:18Z</time>
      </trkpt>
      <trkpt lat="45.9559" lon="4.92763">
        <ele>295</ele>
        <time>2017-03-15T10:57:19Z</time>
      </trkpt>
      <trkpt lat="45.95591" lon="4.92755">
        <ele>295</ele>
        <time>2017-03-15T10:57:20Z</time>
      </trkpt>
      <trkpt lat="45.95592" lon="4.92746">
        <ele>295</ele>
        <time>2017-03-15T10:57:21Z</time>
      </trkpt>
      <trkpt lat="45.95593" lon="4.92737">
        <ele>295</ele>
        <time>2017-03-15T10:57:22Z</time>
      </trkpt>
      <trkpt lat="45.95595" lon="4.92729">
        <ele>295</ele>
        <time>2017-03-15T10:57:23Z</time>
      </trkpt>
      <trkpt lat="45.95596" lon="4.92721">
        <ele>295</ele>
        <time>2017-03-15T10:57:24Z</time>
      </trkpt>
      <trkpt lat="45.95597" lon="4.92712">
        <ele>295</ele>
        <time>2017-03-15T10:57:25Z</time>
      </trkpt>
      <trkpt lat="45.95599" lon="4.92704">
        <ele>295</ele>
        <time>2017-03-15T10:57:26Z</time>
      </trkpt>
      <trkpt lat="45.956" lon="4.92696">
        <ele>295</ele>
        <time>2017-03-15T10:57:27Z</time>
      </trkpt>
      <trkpt lat="45.95602" lon="4.92688">
        <ele>295</ele>
        <time>2017-03-15T10:57:28Z</time>
      </trkpt>
      <trkpt lat="45.95604" lon="4.9268">
        <ele>294</ele>
        <time>2017-03-15T10:57:29Z</time>
      </trkpt>
      <trkpt lat="45.95606" lon="4.92673">
        <ele>294</ele>
        <time>2017-03-15T10:57:30Z</time>
      </trkpt>
      <trkpt lat="45.95608" lon="4.92666">
        <ele>294</ele>
        <time>2017-03-15T10:57:31Z</time>
      </trkpt>
      <trkpt lat="45.95609" lon="4.92658">
        <ele>294</ele>
        <time>2017-03-15T10:57:32Z</time>
      </trkpt>
      <trkpt lat="45.9561" lon="4.92651">
        <ele>294</ele>
        <time>2017-03-15T10:57:33Z</time>
      </trkpt>
      <trkpt lat="45.95612" lon="4.92643">
        <ele>294</ele>
        <time>2017-03-15T10:57:34Z</time>
      </trkpt>
      <trkpt lat="45.95613" lon="4.92636">
        <ele>294</ele>
        <time>2017-03-15T10:57:35Z</time>
      </trkpt>
      <trkpt lat="45.95615" lon="4.92628">
        <ele>294</ele>
        <time>2017-03-15T10:57:36Z</time>
      </trkpt>
      <trkpt lat="45.95616" lon="4.9262">
        <ele>294</ele>
        <time>2017-03-15T10:57:37Z</time>
      </trkpt>
      <trkpt lat="45.95616" lon="4.92613">
        <ele>294</ele>
        <time>2017-03-15T10:57:38Z</time>
      </trkpt>
      <trkpt lat="45.95617" lon="4.92605">
        <ele>294</ele>
        <time>2017-03-15T10:57:39Z</time>
      </trkpt>
      <trkpt lat="45.95618" lon="4.92597">
        <ele>294</ele>
        <time>2017-03-15T10:57:40Z</time>
      </trkpt>
      <trkpt lat="45.9562" lon="4.92588">
        <ele>294</ele>
        <time>2017-03-15T10:57:41Z</time>
      </trkpt>
      <trkpt lat="45.95621" lon="4.9258">
        <ele>294</ele>
        <time>2017-03-15T10:57:42Z</time>
      </trkpt>
      <trkpt lat="45.95624" lon="4.92572">
        <ele>294</ele>
        <time>2017-03-15T10:57:43Z</time>
      </trkpt>
      <trkpt lat="45.95625" lon="4.92564">
        <ele>294</ele>
        <time>2017-03-15T10:57:44Z</time>
      </trkpt>
      <trkpt lat="45.95627" lon="4.92556">
        <ele>294</ele>
        <time>2017-03-15T10:57:45Z</time>
      </trkpt>
      <trkpt lat="45.95628" lon="4.92549">
        <ele>294</ele>
        <time>2017-03-15T10:57:46Z</time>
      </trkpt>
      <trkpt lat="45.9563" lon="4.92541">
        <ele>294</ele>
        <time>2017-03-15T10:57:47Z</time>
      </trkpt>
      <trkpt lat="45.95632" lon="4.92534">
        <ele>294</ele>
        <time>2017-03-15T10:57:48Z</time>
      </trkpt>
      <trkpt lat="45.95633" lon="4.92526">
        <ele>294</ele>
        <time>2017-03-15T10:57:49Z</time>
      </trkpt>
      <trkpt lat="45.95634" lon="4.92519">
        <ele>294</ele>
        <time>2017-03-15T10:57:50Z</time>
      </trkpt>
      <trkpt lat="45.95635" lon="4.92511">
        <ele>294</ele>
        <time>2017-03-15T10:57:51Z</time>
      </trkpt>
      <trkpt lat="45.95635" lon="4.92503">
        <ele>294</ele>
        <time>2017-03-15T10:57:52Z</time>
      </trkpt>
      <trkpt lat="45.95637" lon="4.92495">
        <ele>293</ele>
        <time>2017-03-15T10:57:53Z</time>
      </trkpt>
      <trkpt lat="45.95638" lon="4.92487">
        <ele>293</ele>
        <time>2017-03-15T10:57:54Z</time>
      </trkpt>
      <trkpt lat="45.9564" lon="4.92479">
        <ele>293</ele>
        <time>2017-03-15T10:57:55Z</time>
      </trkpt>
      <trkpt lat="45.95641" lon="4.92472">
        <ele>293</ele>
        <time>2017-03-15T10:57:56Z</time>
      </trkpt>
      <trkpt lat="45.95643" lon="4.92464">
        <ele>293</ele>
        <time>2017-03-15T10:57:57Z</time>
      </trkpt>
      <trkpt lat="45.95644" lon="4.92457">
        <ele>293</ele>
        <time>2017-03-15T10:57:58Z</time>
      </trkpt>
      <trkpt lat="45.95645" lon="4.9245">
        <ele>293</ele>
        <time>2017-03-15T10:57:59Z</time>
      </trkpt>
      <trkpt lat="45.95645" lon="4.92443">
        <ele>293</ele>
        <time>2017-03-15T10:58:00Z</time>
      </trkpt>
      <trkpt lat="45.95646" lon="4.92437">
        <ele>293</ele>
        <time>2017-03-15T10:58:01Z</time>
      </trkpt>
      <trkpt lat="45.95648" lon="4.9243">
        <ele>293</ele>
        <time>2017-03-15T10:58:02Z</time>
      </trkpt>
      <trkpt lat="45.95648" lon="4.92423">
        <ele>293</ele>
        <time>2017-03-15T10:58:03Z</time>
      </trkpt>
      <trkpt lat="45.95649" lon="4.92415">
        <ele>293</ele>
        <time>2017-03-15T10:58:04Z</time>
      </trkpt>
      <trkpt lat="45.9565" lon="4.92407">
        <ele>293</ele>
        <time>2017-03-15T10:58:05Z</time>
      </trkpt>
      <trkpt lat="45.95651" lon="4.92399">
        <ele>293</ele>
        <time>2017-03-15T10:58:06Z</time>
      </trkpt>
      <trkpt lat="45.95652" lon="4.92392">
        <ele>293</ele>
        <time>2017-03-15T10:58:07Z</time>
      </trkpt>
      <trkpt lat="45.95653" lon="4.92384">
        <ele>293</ele>
        <time>2017-03-15T10:58:08Z</time>
      </trkpt>
      <trkpt lat="45.95653" lon="4.92377">
        <ele>293</ele>
        <time>2017-03-15T10:58:09Z</time>
      </trkpt>
      <trkpt lat="45.95653" lon="4.9237">
        <ele>293</ele>
        <time>2017-03-15T10:58:10Z</time>
      </trkpt>
      <trkpt lat="45.95654" lon="4.92363">
        <ele>293</ele>
        <time>2017-03-15T10:58:11Z</time>
      </trkpt>
      <trkpt lat="45.95655" lon="4.92356">
        <ele>293</ele>
        <time>2017-03-15T10:58:12Z</time>
      </trkpt>
      <trkpt lat="45.95655" lon="4.92349">
        <ele>293</ele>
        <time>2017-03-15T10:58:13Z</time>
      </trkpt>
      <trkpt lat="45.95654" lon="4.92342">
        <ele>293</ele>
        <time>2017-03-15T10:58:14Z</time>
      </trkpt>
      <trkpt lat="45.95654" lon="4.92334">
        <ele>293</ele>
        <time>2017-03-15T10:58:15Z</time>
      </trkpt>
      <trkpt lat="45.95654" lon="4.92327">
        <ele>293</ele>
        <time>2017-03-15T10:58:16Z</time>
      </trkpt>
      <trkpt lat="45.95654" lon="4.92319">
        <ele>293</ele>
        <time>2017-03-15T10:58:17Z</time>
      </trkpt>
      <trkpt lat="45.95654" lon="4.92312">
        <ele>293</ele>
        <time>2017-03-15T10:58:18Z</time>
      </trkpt>
      <trkpt lat="45.95655" lon="4.92304">
        <ele>293</ele>
        <time>2017-03-15T10:58:19Z</time>
      </trkpt>
      <trkpt lat="45.95655" lon="4.92296">
        <ele>293</ele>
        <time>2017-03-15T10:58:20Z</time>
      </trkpt>
      <trkpt lat="45.95655" lon="4.92288">
        <ele>293</ele>
        <time>2017-03-15T10:58:21Z</time>
      </trkpt>
      <trkpt lat="45.95655" lon="4.92279">
        <ele>293</ele>
        <time>2017-03-15T10:58:22Z</time>
      </trkpt>
      <trkpt lat="45.95657" lon="4.92272">
        <ele>294</ele>
        <time>2017-03-15T10:58:23Z</time>
      </trkpt>
      <trkpt lat="45.95658" lon="4.92263">
        <ele>294</ele>
        <time>2017-03-15T10:58:24Z</time>
      </trkpt>
      <trkpt lat="45.95659" lon="4.92255">
        <ele>294</ele>
        <time>2017-03-15T10:58:25Z</time>
      </trkpt>
      <trkpt lat="45.95659" lon="4.92248">
        <ele>294</ele>
        <time>2017-03-15T10:58:26Z</time>
      </trkpt>
      <trkpt lat="45.95659" lon="4.9224">
        <ele>294</ele>
        <time>2017-03-15T10:58:27Z</time>
      </trkpt>
      <trkpt lat="45.95659" lon="4.92233">
        <ele>294</ele>
        <time>2017-03-15T10:58:28Z</time>
      </trkpt>
      <trkpt lat="45.95659" lon="4.92226">
        <ele>294</ele>
        <time>2017-03-15T10:58:29Z</time>
      </trkpt>
      <trkpt lat="45.95659" lon="4.92219">
        <ele>294</ele>
        <time>2017-03-15T10:58:30Z</time>
      </trkpt>
      <trkpt lat="45.95659" lon="4.92212">
        <ele>294</ele>
        <time>2017-03-15T10:58:31Z</time>
      </trkpt>
      <trkpt lat="45.9566" lon="4.92205">
        <ele>294</ele>
        <time>2017-03-15T10:58:32Z</time>
      </trkpt>
      <trkpt lat="45.9566" lon="4.92198">
        <ele>295</ele>
        <time>2017-03-15T10:58:33Z</time>
      </trkpt>
      <trkpt lat="45.9566" lon="4.92191">
        <ele>295</ele>
        <time>2017-03-15T10:58:34Z</time>
      </trkpt>
      <trkpt lat="45.95661" lon="4.92183">
        <ele>295</ele>
        <time>2017-03-15T10:58:35Z</time>
      </trkpt>
      <trkpt lat="45.95661" lon="4.92175">
        <ele>296</ele>
        <time>2017-03-15T10:58:36Z</time>
      </trkpt>
      <trkpt lat="45.95661" lon="4.92168">
        <ele>296</ele>
        <time>2017-03-15T10:58:37Z</time>
      </trkpt>
      <trkpt lat="45.95661" lon="4.9216">
        <ele>296</ele>
        <time>2017-03-15T10:58:38Z</time>
      </trkpt>
      <trkpt lat="45.95661" lon="4.92153">
        <ele>296</ele>
        <time>2017-03-15T10:58:39Z</time>
      </trkpt>
      <trkpt lat="45.95661" lon="4.92146">
        <ele>296</ele>
        <time>2017-03-15T10:58:40Z</time>
      </trkpt>
      <trkpt lat="45.95661" lon="4.92139">
        <ele>296</ele>
        <time>2017-03-15T10:58:41Z</time>
      </trkpt>
      <trkpt lat="45.9566" lon="4.92132">
        <ele>296</ele>
        <time>2017-03-15T10:58:42Z</time>
      </trkpt>
      <trkpt lat="45.95661" lon="4.92125">
        <ele>296</ele>
        <time>2017-03-15T10:58:43Z</time>
      </trkpt>
      <trkpt lat="45.95661" lon="4.92118">
        <ele>296</ele>
        <time>2017-03-15T10:58:44Z</time>
      </trkpt>
      <trkpt lat="45.95662" lon="4.92111">
        <ele>296</ele>
        <time>2017-03-15T10:58:45Z</time>
      </trkpt>
      <trkpt lat="45.95663" lon="4.92103">
        <ele>297</ele>
        <time>2017-03-15T10:58:46Z</time>
      </trkpt>
      <trkpt lat="45.95664" lon="4.92095">
        <ele>297</ele>
        <time>2017-03-15T10:58:47Z</time>
      </trkpt>
      <trkpt lat="45.95665" lon="4.92086">
        <ele>298</ele>
        <time>2017-03-15T10:58:48Z</time>
      </trkpt>
      <trkpt lat="45.95666" lon="4.92078">
        <ele>298</ele>
        <time>2017-03-15T10:58:49Z</time>
      </trkpt>
      <trkpt lat="45.95667" lon="4.92071">
        <ele>300</ele>
        <time>2017-03-15T10:58:50Z</time>
      </trkpt>
      <trkpt lat="45.95668" lon="4.92063">
        <ele>300</ele>
        <time>2017-03-15T10:58:51Z</time>
      </trkpt>
      <trkpt lat="45.95669" lon="4.92055">
        <ele>300</ele>
        <time>2017-03-15T10:58:52Z</time>
      </trkpt>
      <trkpt lat="45.9567" lon="4.92048">
        <ele>300</ele>
        <time>2017-03-15T10:58:53Z</time>
      </trkpt>
      <trkpt lat="45.9567" lon="4.9204">
        <ele>300</ele>
        <time>2017-03-15T10:58:54Z</time>
      </trkpt>
      <trkpt lat="45.95669" lon="4.92032">
        <ele>300</ele>
        <time>2017-03-15T10:58:55Z</time>
      </trkpt>
      <trkpt lat="45.95667" lon="4.92025">
        <ele>300</ele>
        <time>2017-03-15T10:58:56Z</time>
      </trkpt>
      <trkpt lat="45.95665" lon="4.92019">
        <ele>297</ele>
        <time>2017-03-15T10:58:57Z</time>
      </trkpt>
      <trkpt lat="45.95663" lon="4.92013">
        <ele>297</ele>
        <time>2017-03-15T10:58:58Z</time>
      </trkpt>
      <trkpt lat="45.9566" lon="4.92007">
        <ele>297</ele>
        <time>2017-03-15T10:58:59Z</time>
      </trkpt>
      <trkpt lat="45.95657" lon="4.92001">
        <ele>297</ele>
        <time>2017-03-15T10:59:00Z</time>
      </trkpt>
      <trkpt lat="45.95654" lon="4.91996">
        <ele>297</ele>
        <time>2017-03-15T10:59:01Z</time>
      </trkpt>
      <trkpt lat="45.9565" lon="4.91991">
        <ele>296</ele>
        <time>2017-03-15T10:59:02Z</time>
      </trkpt>
      <trkpt lat="45.95646" lon="4.91987">
        <ele>296</ele>
        <time>2017-03-15T10:59:03Z</time>
      </trkpt>
      <trkpt lat="45.95643" lon="4.91983">
        <ele>296</ele>
        <time>2017-03-15T10:59:04Z</time>
      </trkpt>
      <trkpt lat="45.95636" lon="4.91977">
        <ele>295</ele>
        <time>2017-03-15T10:59:06Z</time>
      </trkpt>
      <trkpt lat="45.95632" lon="4.91973">
        <ele>295</ele>
        <time>2017-03-15T10:59:07Z</time>
      </trkpt>
      <trkpt lat="45.95627" lon="4.91968">
        <ele>295</ele>
        <time>2017-03-15T10:59:08Z</time>
      </trkpt>
      <trkpt lat="45.95624" lon="4.91963">
        <ele>295</ele>
        <time>2017-03-15T10:59:09Z</time>
      </trkpt>
      <trkpt lat="45.95621" lon="4.91957">
        <ele>295</ele>
        <time>2017-03-15T10:59:10Z</time>
      </trkpt>
      <trkpt lat="45.95616" lon="4.91951">
        <ele>295</ele>
        <time>2017-03-15T10:59:11Z</time>
      </trkpt>
      <trkpt lat="45.95611" lon="4.91946">
        <ele>294</ele>
        <time>2017-03-15T10:59:12Z</time>
      </trkpt>
      <trkpt lat="45.95606" lon="4.91941">
        <ele>294</ele>
        <time>2017-03-15T10:59:13Z</time>
      </trkpt>
      <trkpt lat="45.95602" lon="4.91937">
        <ele>294</ele>
        <time>2017-03-15T10:59:14Z</time>
      </trkpt>
      <trkpt lat="45.95596" lon="4.91932">
        <ele>294</ele>
        <time>2017-03-15T10:59:15Z</time>
      </trkpt>
      <trkpt lat="45.95592" lon="4.91927">
        <ele>294</ele>
        <time>2017-03-15T10:59:16Z</time>
      </trkpt>
      <trkpt lat="45.95587" lon="4.91924">
        <ele>293</ele>
        <time>2017-03-15T10:59:17Z</time>
      </trkpt>
      <trkpt lat="45.95583" lon="4.9192">
        <ele>293</ele>
        <time>2017-03-15T10:59:18Z</time>
      </trkpt>
      <trkpt lat="45.95578" lon="4.91917">
        <ele>293</ele>
        <time>2017-03-15T10:59:19Z</time>
      </trkpt>
      <trkpt lat="45.95573" lon="4.91914">
        <ele>293</ele>
        <time>2017-03-15T10:59:20Z</time>
      </trkpt>
      <trkpt lat="45.95568" lon="4.91912">
        <ele>294</ele>
        <time>2017-03-15T10:59:21Z</time>
      </trkpt>
      <trkpt lat="45.95564" lon="4.91909">
        <ele>294</ele>
        <time>2017-03-15T10:59:22Z</time>
      </trkpt>
      <trkpt lat="45.95559" lon="4.91907">
        <ele>294</ele>
        <time>2017-03-15T10:59:23Z</time>
      </trkpt>
      <trkpt lat="45.95554" lon="4.91904">
        <ele>294</ele>
        <time>2017-03-15T10:59:24Z</time>
      </trkpt>
      <trkpt lat="45.95548" lon="4.91899">
        <ele>294</ele>
        <time>2017-03-15T10:59:25Z</time>
      </trkpt>
      <trkpt lat="45.95544" lon="4.91895">
        <ele>294</ele>
        <time>2017-03-15T10:59:26Z</time>
      </trkpt>
      <trkpt lat="45.9554" lon="4.91892">
        <ele>294</ele>
        <time>2017-03-15T10:59:27Z</time>
      </trkpt>
      <trkpt lat="45.95535" lon="4.91888">
        <ele>294</ele>
        <time>2017-03-15T10:59:28Z</time>
      </trkpt>
      <trkpt lat="45.9553" lon="4.91884">
        <ele>294</ele>
        <time>2017-03-15T10:59:29Z</time>
      </trkpt>
      <trkpt lat="45.95524" lon="4.91881">
        <ele>294</ele>
        <time>2017-03-15T10:59:30Z</time>
      </trkpt>
      <trkpt lat="45.95519" lon="4.91878">
        <ele>294</ele>
        <time>2017-03-15T10:59:31Z</time>
      </trkpt>
      <trkpt lat="45.95514" lon="4.91873">
        <ele>295</ele>
        <time>2017-03-15T10:59:32Z</time>
      </trkpt>
      <trkpt lat="45.95509" lon="4.91869">
        <ele>295</ele>
        <time>2017-03-15T10:59:33Z</time>
      </trkpt>
      <trkpt lat="45.95504" lon="4.91866">
        <ele>295</ele>
        <time>2017-03-15T10:59:34Z</time>
      </trkpt>
      <trkpt lat="45.955" lon="4.91862">
        <ele>295</ele>
        <time>2017-03-15T10:59:35Z</time>
      </trkpt>
      <trkpt lat="45.95495" lon="4.91857">
        <ele>295</ele>
        <time>2017-03-15T10:59:36Z</time>
      </trkpt>
      <trkpt lat="45.95491" lon="4.91852">
        <ele>295</ele>
        <time>2017-03-15T10:59:37Z</time>
      </trkpt>
      <trkpt lat="45.95486" lon="4.91849">
        <ele>295</ele>
        <time>2017-03-15T10:59:38Z</time>
      </trkpt>
      <trkpt lat="45.95482" lon="4.91845">
        <ele>295</ele>
        <time>2017-03-15T10:59:39Z</time>
      </trkpt>
      <trkpt lat="45.95478" lon="4.91841">
        <ele>295</ele>
        <time>2017-03-15T10:59:40Z</time>
      </trkpt>
      <trkpt lat="45.95473" lon="4.91837">
        <ele>295</ele>
        <time>2017-03-15T10:59:41Z</time>
      </trkpt>
      <trkpt lat="45.95469" lon="4.91833">
        <ele>297</ele>
        <time>2017-03-15T10:59:42Z</time>
      </trkpt>
      <trkpt lat="45.95465" lon="4.91828">
        <ele>297</ele>
        <time>2017-03-15T10:59:43Z</time>
      </trkpt>
      <trkpt lat="45.95461" lon="4.91823">
        <ele>297</ele>
        <time>2017-03-15T10:59:44Z</time>
      </trkpt>
      <trkpt lat="45.95457" lon="4.91818">
        <ele>297</ele>
        <time>2017-03-15T10:59:45Z</time>
      </trkpt>
      <trkpt lat="45.95453" lon="4.91812">
        <ele>297</ele>
        <time>2017-03-15T10:59:46Z</time>
      </trkpt>
      <trkpt lat="45.95449" lon="4.91807">
        <ele>297</ele>
        <time>2017-03-15T10:59:47Z</time>
      </trkpt>
      <trkpt lat="45.95446" lon="4.91801">
        <ele>298</ele>
        <time>2017-03-15T10:59:48Z</time>
      </trkpt>
      <trkpt lat="45.95443" lon="4.91796">
        <ele>298</ele>
        <time>2017-03-15T10:59:49Z</time>
      </trkpt>
      <trkpt lat="45.9544" lon="4.91789">
        <ele>298</ele>
        <time>2017-03-15T10:59:50Z</time>
      </trkpt>
      <trkpt lat="45.95437" lon="4.91783">
        <ele>298</ele>
        <time>2017-03-15T10:59:51Z</time>
      </trkpt>
      <trkpt lat="45.95434" lon="4.91776">
        <ele>298</ele>
        <time>2017-03-15T10:59:52Z</time>
      </trkpt>
      <trkpt lat="45.95431" lon="4.91769">
        <ele>298</ele>
        <time>2017-03-15T10:59:53Z</time>
      </trkpt>
      <trkpt lat="45.95428" lon="4.91763">
        <ele>298</ele>
        <time>2017-03-15T10:59:54Z</time>
      </trkpt>
      <trkpt lat="45.95426" lon="4.91757">
        <ele>298</ele>
        <time>2017-03-15T10:59:55Z</time>
      </trkpt>
      <trkpt lat="45.95423" lon="4.9175">
        <ele>298</ele>
        <time>2017-03-15T10:59:56Z</time>
      </trkpt>
      <trkpt lat="45.95422" lon="4.91744">
        <ele>299</ele>
        <time>2017-03-15T10:59:57Z</time>
      </trkpt>
      <trkpt lat="45.95419" lon="4.91732">
        <ele>300</ele>
        <time>2017-03-15T10:59:59Z</time>
      </trkpt>
      <trkpt lat="45.95417" lon="4.91727">
        <ele>300</ele>
        <time>2017-03-15T11:00:00Z</time>
      </trkpt>
      <trkpt lat="45.95414" lon="4.91718">
        <ele>299</ele>
        <time>2017-03-15T11:00:02Z</time>
      </trkpt>
      <trkpt lat="45.95413" lon="4.91714">
        <ele>299</ele>
        <time>2017-03-15T11:00:03Z</time>
      </trkpt>
      <trkpt lat="45.9541" lon="4.91703">
        <ele>299</ele>
        <time>2017-03-15T11:00:06Z</time>
      </trkpt>
      <trkpt lat="45.95409" lon="4.91699">
        <ele>299</ele>
        <time>2017-03-15T11:00:07Z</time>
      </trkpt>
      <trkpt lat="45.95406" lon="4.91687">
        <ele>300</ele>
        <time>2017-03-15T11:00:10Z</time>
      </trkpt>
      <trkpt lat="45.95404" lon="4.91683">
        <ele>300</ele>
        <time>2017-03-15T11:00:11Z</time>
      </trkpt>
      <trkpt lat="45.95401" lon="4.91674">
        <ele>300</ele>
        <time>2017-03-15T11:00:14Z</time>
      </trkpt>
      <trkpt lat="45.95399" lon="4.91671">
        <ele>300</ele>
        <time>2017-03-15T11:00:15Z</time>
      </trkpt>
      <trkpt lat="45.95393" lon="4.91661">
        <ele>301</ele>
        <time>2017-03-15T11:00:18Z</time>
      </trkpt>
      <trkpt lat="45.95392" lon="4.91659">
        <ele>301</ele>
        <time>2017-03-15T11:00:19Z</time>
      </trkpt>
      <trkpt lat="45.95388" lon="4.91649">
        <ele>301</ele>
        <time>2017-03-15T11:00:22Z</time>
      </trkpt>
      <trkpt lat="45.95387" lon="4.91646">
        <ele>301</ele>
        <time>2017-03-15T11:00:23Z</time>
      </trkpt>
      <trkpt lat="45.95385" lon="4.91638">
        <ele>301</ele>
        <time>2017-03-15T11:00:25Z</time>
      </trkpt>
      <trkpt lat="45.95384" lon="4.91633">
        <ele>301</ele>
        <time>2017-03-15T11:00:26Z</time>
      </trkpt>
      <trkpt lat="45.95379" lon="4.91624">
        <ele>301</ele>
        <time>2017-03-15T11:00:28Z</time>
      </trkpt>
      <trkpt lat="45.95376" lon="4.9162">
        <ele>301</ele>
        <time>2017-03-15T11:00:29Z</time>
      </trkpt>
      <trkpt lat="45.95373" lon="4.91609">
        <ele>300</ele>
        <time>2017-03-15T11:00:32Z</time>
      </trkpt>
      <trkpt lat="45.95373" lon="4.91605">
        <ele>300</ele>
        <time>2017-03-15T11:00:33Z</time>
      </trkpt>
      <trkpt lat="45.95371" lon="4.91594">
        <ele>300</ele>
        <time>2017-03-15T11:00:36Z</time>
      </trkpt>
      <trkpt lat="45.9537" lon="4.9159">
        <ele>300</ele>
        <time>2017-03-15T11:00:37Z</time>
      </trkpt>
      <trkpt lat="45.95368" lon="4.91582">
        <ele>300</ele>
        <time>2017-03-15T11:00:39Z</time>
      </trkpt>
      <trkpt lat="45.95367" lon="4.91577">
        <ele>300</ele>
        <time>2017-03-15T11:00:40Z</time>
      </trkpt>
      <trkpt lat="45.95367" lon="4.91567">
        <ele>300</ele>
        <time>2017-03-15T11:00:42Z</time>
      </trkpt>
      <trkpt lat="45.95366" lon="4.91562">
        <ele>300</ele>
        <time>2017-03-15T11:00:43Z</time>
      </trkpt>
      <trkpt lat="45.95365" lon="4.91553">
        <ele>300</ele>
        <time>2017-03-15T11:00:45Z</time>
      </trkpt>
      <trkpt lat="45.95364" lon="4.91549">
        <ele>300</ele>
        <time>2017-03-15T11:00:46Z</time>
      </trkpt>
      <trkpt lat="45.95362" lon="4.91541">
        <ele>300</ele>
        <time>2017-03-15T11:00:48Z</time>
      </trkpt>
      <trkpt lat="45.95361" lon="4.91536">
        <ele>300</ele>
        <time>2017-03-15T11:00:49Z</time>
      </trkpt>
      <trkpt lat="45.9536" lon="4.91527">
        <ele>299</ele>
        <time>2017-03-15T11:00:51Z</time>
      </trkpt>
      <trkpt lat="45.95359" lon="4.91522">
        <ele>299</ele>
        <time>2017-03-15T11:00:52Z</time>
      </trkpt>
      <trkpt lat="45.95355" lon="4.91512">
        <ele>299</ele>
        <time>2017-03-15T11:00:54Z</time>
      </trkpt>
      <trkpt lat="45.95354" lon="4.91507">
        <ele>299</ele>
        <time>2017-03-15T11:00:55Z</time>
      </trkpt>
      <trkpt lat="45.95352" lon="4.91498">
        <ele>298</ele>
        <time>2017-03-15T11:00:57Z</time>
      </trkpt>
      <trkpt lat="45.95353" lon="4.91493">
        <ele>298</ele>
        <time>2017-03-15T11:00:58Z</time>
      </trkpt>
      <trkpt lat="45.95352" lon="4.91483">
        <ele>299</ele>
        <time>2017-03-15T11:01:00Z</time>
      </trkpt>
      <trkpt lat="45.95352" lon="4.91478">
        <ele>299</ele>
        <time>2017-03-15T11:01:01Z</time>
      </trkpt>
      <trkpt lat="45.95351" lon="4.91466">
        <ele>299</ele>
        <time>2017-03-15T11:01:04Z</time>
      </trkpt>
      <trkpt lat="45.9535" lon="4.91462">
        <ele>299</ele>
        <time>2017-03-15T11:01:05Z</time>
      </trkpt>
      <trkpt lat="45.95348" lon="4.91453">
        <ele>299</ele>
        <time>2017-03-15T11:01:07Z</time>
      </trkpt>
      <trkpt lat="45.95347" lon="4.91448">
        <ele>298</ele>
        <time>2017-03-15T11:01:08Z</time>
      </trkpt>
      <trkpt lat="45.95344" lon="4.91438">
        <ele>298</ele>
        <time>2017-03-15T11:01:10Z</time>
      </trkpt>
      <trkpt lat="45.95343" lon="4.91434">
        <ele>298</ele>
        <time>2017-03-15T11:01:11Z</time>
      </trkpt>
      <trkpt lat="45.95341" lon="4.91423">
        <ele>298</ele>
        <time>2017-03-15T11:01:14Z</time>
      </trkpt>
      <trkpt lat="45.9534" lon="4.91419">
        <ele>298</ele>
        <time>2017-03-15T11:01:15Z</time>
      </trkpt>
      <trkpt lat="45.95337" lon="4.91408">
        <ele>298</ele>
        <time>2017-03-15T11:01:18Z</time>
      </trkpt>
      <trkpt lat="45.95336" lon="4.91404">
        <ele>298</ele>
        <time>2017-03-15T11:01:19Z</time>
      </trkpt>
      <trkpt lat="45.95335" lon="4.91392">
        <ele>298</ele>
        <time>2017-03-15T11:01:23Z</time>
      </trkpt>
      <trkpt lat="45.95336" lon="4.91389">
        <ele>298</ele>
        <time>2017-03-15T11:01:24Z</time>
      </trkpt>
      <trkpt lat="45.95333" lon="4.91379">
        <ele>298</ele>
        <time>2017-03-15T11:01:27Z</time>
      </trkpt>
      <trkpt lat="45.95332" lon="4.91376">
        <ele>298</ele>
        <time>2017-03-15T11:01:28Z</time>
      </trkpt>
      <trkpt lat="45.95329" lon="4.91368">
        <ele>298</ele>
        <time>2017-03-15T11:01:29Z</time>
      </trkpt>
      <trkpt lat="45.95327" lon="4.91363">
        <ele>298</ele>
        <time>2017-03-15T11:01:30Z</time>
      </trkpt>
      <trkpt lat="45.95322" lon="4.91352">
        <ele>297</ele>
        <time>2017-03-15T11:01:32Z</time>
      </trkpt>
      <trkpt lat="45.9532" lon="4.91348">
        <ele>297</ele>
        <time>2017-03-15T11:01:33Z</time>
      </trkpt>
      <trkpt lat="45.95317" lon="4.91337">
        <ele>297</ele>
        <time>2017-03-15T11:01:36Z</time>
      </trkpt>
      <trkpt lat="45.95315" lon="4.91332">
        <ele>298</ele>
        <time>2017-03-15T11:01:37Z</time>
      </trkpt>
      <trkpt lat="45.95314" lon="4.91323">
        <ele>298</ele>
        <time>2017-03-15T11:01:39Z</time>
      </trkpt>
      <trkpt lat="45.95315" lon="4.91319">
        <ele>298</ele>
        <time>2017-03-15T11:01:40Z</time>
      </trkpt>
      <trkpt lat="45.95314" lon="4.91307">
        <ele>298</ele>
        <time>2017-03-15T11:01:43Z</time>
      </trkpt>
      <trkpt lat="45.95314" lon="4.91302">
        <ele>298</ele>
        <time>2017-03-15T11:01:44Z</time>
      </trkpt>
      <trkpt lat="45.95313" lon="4.91292">
        <ele>298</ele>
        <time>2017-03-15T11:01:46Z</time>
      </trkpt>
      <trkpt lat="45.95313" lon="4.91288">
        <ele>298</ele>
        <time>2017-03-15T11:01:47Z</time>
      </trkpt>
      <trkpt lat="45.95313" lon="4.91277">
        <ele>298</ele>
        <time>2017-03-15T11:01:50Z</time>
      </trkpt>
      <trkpt lat="45.95312" lon="4.91273">
        <ele>298</ele>
        <time>2017-03-15T11:01:51Z</time>
      </trkpt>
      <trkpt lat="45.95311" lon="4.91261">
        <ele>298</ele>
        <time>2017-03-15T11:01:54Z</time>
      </trkpt>
      <trkpt lat="45.9531" lon="4.91256">
        <ele>298</ele>
        <time>2017-03-15T11:01:55Z</time>
      </trkpt>
      <trkpt lat="45.95307" lon="4.91247">
        <ele>299</ele>
        <time>2017-03-15T11:01:57Z</time>
      </trkpt>
      <trkpt lat="45.95306" lon="4.91243">
        <ele>299</ele>
        <time>2017-03-15T11:01:58Z</time>
      </trkpt>
      <trkpt lat="45.95301" lon="4.91233">
        <ele>299</ele>
        <time>2017-03-15T11:02:00Z</time>
      </trkpt>
      <trkpt lat="45.953" lon="4.91229">
        <ele>299</ele>
        <time>2017-03-15T11:02:01Z</time>
      </trkpt>
      <trkpt lat="45.95296" lon="4.9122">
        <ele>299</ele>
        <time>2017-03-15T11:02:04Z</time>
      </trkpt>
      <trkpt lat="45.95294" lon="4.91216">
        <ele>299</ele>
        <time>2017-03-15T11:02:05Z</time>
      </trkpt>
      <trkpt lat="45.95289" lon="4.91206">
        <ele>299</ele>
        <time>2017-03-15T11:02:08Z</time>
      </trkpt>
      <trkpt lat="45.95287" lon="4.91203">
        <ele>299</ele>
        <time>2017-03-15T11:02:09Z</time>
      </trkpt>
      <trkpt lat="45.95284" lon="4.91193">
        <ele>299</ele>
        <time>2017-03-15T11:02:12Z</time>
      </trkpt>
      <trkpt lat="45.95283" lon="4.91189">
        <ele>299</ele>
        <time>2017-03-15T11:02:13Z</time>
      </trkpt>
      <trkpt lat="45.95279" lon="4.91178">
        <ele>299</ele>
        <time>2017-03-15T11:02:16Z</time>
      </trkpt>
      <trkpt lat="45.95277" lon="4.91174">
        <ele>299</ele>
        <time>2017-03-15T11:02:17Z</time>
      </trkpt>
      <trkpt lat="45.95272" lon="4.91165">
        <ele>299</ele>
        <time>2017-03-15T11:02:19Z</time>
      </trkpt>
      <trkpt lat="45.95269" lon="4.91162">
        <ele>299</ele>
        <time>2017-03-15T11:02:20Z</time>
      </trkpt>
      <trkpt lat="45.95265" lon="4.91154">
        <ele>299</ele>
        <time>2017-03-15T11:02:22Z</time>
      </trkpt>
      <trkpt lat="45.95264" lon="4.9115">
        <ele>299</ele>
        <time>2017-03-15T11:02:23Z</time>
      </trkpt>
      <trkpt lat="45.95261" lon="4.91143">
        <ele>299</ele>
        <time>2017-03-15T11:02:25Z</time>
      </trkpt>
      <trkpt lat="45.95258" lon="4.91139">
        <ele>299</ele>
        <time>2017-03-15T11:02:26Z</time>
      </trkpt>
      <trkpt lat="45.95255" lon="4.91133">
        <ele>299</ele>
        <time>2017-03-15T11:02:28Z</time>
      </trkpt>
      <trkpt lat="45.95252" lon="4.9113">
        <ele>299</ele>
        <time>2017-03-15T11:02:29Z</time>
      </trkpt>
      <trkpt lat="45.95244" lon="4.91124">
        <ele>298</ele>
        <time>2017-03-15T11:02:31Z</time>
      </trkpt>
      <trkpt lat="45.95241" lon="4.9112">
        <ele>298</ele>
        <time>2017-03-15T11:02:32Z</time>
      </trkpt>
      <trkpt lat="45.95236" lon="4.91113">
        <ele>298</ele>
        <time>2017-03-15T11:02:34Z</time>
      </trkpt>
      <trkpt lat="45.95234" lon="4.9111">
        <ele>298</ele>
        <time>2017-03-15T11:02:35Z</time>
      </trkpt>
      <trkpt lat="45.95229" lon="4.91102">
        <ele>298</ele>
        <time>2017-03-15T11:02:38Z</time>
      </trkpt>
      <trkpt lat="45.95227" lon="4.91099">
        <ele>298</ele>
        <time>2017-03-15T11:02:39Z</time>
      </trkpt>
      <trkpt lat="45.95222" lon="4.91092">
        <ele>298</ele>
        <time>2017-03-15T11:02:41Z</time>
      </trkpt>
      <trkpt lat="45.95219" lon="4.91089">
        <ele>298</ele>
        <time>2017-03-15T11:02:42Z</time>
      </trkpt>
      <trkpt lat="45.95213" lon="4.91081">
        <ele>297</ele>
        <time>2017-03-15T11:02:46Z</time>
      </trkpt>
      <trkpt lat="45.95211" lon="4.9108">
        <ele>297</ele>
        <time>2017-03-15T11:02:47Z</time>
      </trkpt>
      <trkpt lat="45.95203" lon="4.9108">
        <ele>297</ele>
        <time>2017-03-15T11:02:50Z</time>
      </trkpt>
      <trkpt lat="45.952" lon="4.91078">
        <ele>297</ele>
        <time>2017-03-15T11:02:51Z</time>
      </trkpt>
      <trkpt lat="45.95191" lon="4.91075">
        <ele>297</ele>
        <time>2017-03-15T11:02:54Z</time>
      </trkpt>
      <trkpt lat="45.95189" lon="4.91072">
        <ele>297</ele>
        <time>2017-03-15T11:02:55Z</time>
      </trkpt>
      <trkpt lat="45.95183" lon="4.91066">
        <ele>297</ele>
        <time>2017-03-15T11:02:58Z</time>
      </trkpt>
      <trkpt lat="45.95181" lon="4.91063">
        <ele>297</ele>
        <time>2017-03-15T11:02:59Z</time>
      </trkpt>
      <trkpt lat="45.95177" lon="4.91053">
        <ele>297</ele>
        <time>2017-03-15T11:03:02Z</time>
      </trkpt>
      <trkpt lat="45.95176" lon="4.91049">
        <ele>297</ele>
        <time>2017-03-15T11:03:03Z</time>
      </trkpt>
      <trkpt lat="45.95173" lon="4.9104">
        <ele>297</ele>
        <time>2017-03-15T11:03:06Z</time>
      </trkpt>
      <trkpt lat="45.95172" lon="4.91037">
        <ele>297</ele>
        <time>2017-03-15T11:03:07Z</time>
      </trkpt>
      <trkpt lat="45.95168" lon="4.91029">
        <ele>297</ele>
        <time>2017-03-15T11:03:10Z</time>
      </trkpt>
      <trkpt lat="45.95168" lon="4.91026">
        <ele>297</ele>
        <time>2017-03-15T11:03:11Z</time>
      </trkpt>
      <trkpt lat="45.95166" lon="4.91016">
        <ele>297</ele>
        <time>2017-03-15T11:03:14Z</time>
      </trkpt>
      <trkpt lat="45.95165" lon="4.91013">
        <ele>297</ele>
        <time>2017-03-15T11:03:15Z</time>
      </trkpt>
      <trkpt lat="45.95163" lon="4.91002">
        <ele>298</ele>
        <time>2017-03-15T11:03:18Z</time>
      </trkpt>
      <trkpt lat="45.95163" lon="4.91">
        <ele>298</ele>
        <time>2017-03-15T11:03:19Z</time>
      </trkpt>
      <trkpt lat="45.95162" lon="4.90998">
        <ele>298</ele>
        <time>2017-03-15T11:03:20Z</time>
      </trkpt>
      <trkpt lat="45.95162" lon="4.90997">
        <ele>298</ele>
        <time>2017-03-15T11:03:21Z</time>
      </trkpt>
      <trkpt lat="45.95162" lon="4.90996">
        <ele>298</ele>
        <time>2017-03-15T11:03:35Z</time>
      </trkpt>
      <trkpt lat="45.95162" lon="4.90997">
        <ele>298</ele>
        <time>2017-03-15T11:03:36Z</time>
      </trkpt>
      <trkpt lat="45.95161" lon="4.90998">
        <ele>298</ele>
        <time>2017-03-15T11:03:40Z</time>
      </trkpt>
      <trkpt lat="45.9516" lon="4.90999">
        <ele>298</ele>
        <time>2017-03-15T11:03:41Z</time>
      </trkpt>
      <trkpt lat="45.95158" lon="4.91002">
        <ele>298</ele>
        <time>2017-03-15T11:03:46Z</time>
      </trkpt>
      <trkpt lat="45.95157" lon="4.91003">
        <ele>298</ele>
        <time>2017-03-15T11:03:47Z</time>
      </trkpt>
      <trkpt lat="45.95155" lon="4.91005">
        <ele>297</ele>
        <time>2017-03-15T11:08:05Z</time>
      </trkpt>
      <trkpt lat="45.95147" lon="4.91006">
        <ele>297</ele>
        <time>2017-03-15T11:08:06Z</time>
      </trkpt>
      <trkpt lat="45.95156" lon="4.91007">
        <ele>297</ele>
        <time>2017-03-15T11:08:43Z</time>
      </trkpt>
      <trkpt lat="45.95156" lon="4.91008">
        <ele>297</ele>
        <time>2017-03-15T11:08:44Z</time>
      </trkpt>
      <trkpt lat="45.95164" lon="4.91004">
        <ele>298</ele>
        <time>2017-03-15T11:08:53Z</time>
      </trkpt>
      <trkpt lat="45.95165" lon="4.91004">
        <ele>298</ele>
        <time>2017-03-15T11:08:54Z</time>
      </trkpt>
      <trkpt lat="45.95172" lon="4.90998">
        <ele>298</ele>
        <time>2017-03-15T11:09:01Z</time>
      </trkpt>
      <trkpt lat="45.95172" lon="4.90997">
        <ele>298</ele>
        <time>2017-03-15T11:09:02Z</time>
      </trkpt>
      <trkpt lat="45.95173" lon="4.90986">
        <ele>298</ele>
        <time>2017-03-15T11:09:13Z</time>
      </trkpt>
      <trkpt lat="45.95174" lon="4.90984">
        <ele>298</ele>
        <time>2017-03-15T11:09:14Z</time>
      </trkpt>
      <trkpt lat="45.95173" lon="4.90973">
        <ele>298</ele>
        <time>2017-03-15T11:09:17Z</time>
      </trkpt>
      <trkpt lat="45.95173" lon="4.90969">
        <ele>298</ele>
        <time>2017-03-15T11:09:18Z</time>
      </trkpt>
      <trkpt lat="45.95174" lon="4.90958">
        <ele>297</ele>
        <time>2017-03-15T11:09:20Z</time>
      </trkpt>
      <trkpt lat="45.95175" lon="4.90953">
        <ele>297</ele>
        <time>2017-03-15T11:09:21Z</time>
      </trkpt>
      <trkpt lat="45.95177" lon="4.90941">
        <ele>297</ele>
        <time>2017-03-15T11:09:23Z</time>
      </trkpt>
      <trkpt lat="45.95177" lon="4.90935">
        <ele>297</ele>
        <time>2017-03-15T11:09:24Z</time>
      </trkpt>
      <trkpt lat="45.95178" lon="4.90924">
        <ele>297</ele>
        <time>2017-03-15T11:09:26Z</time>
      </trkpt>
      <trkpt lat="45.9518" lon="4.90918">
        <ele>297</ele>
        <time>2017-03-15T11:09:27Z</time>
      </trkpt>
      <trkpt lat="45.95181" lon="4.90906">
        <ele>298</ele>
        <time>2017-03-15T11:09:29Z</time>
      </trkpt>
      <trkpt lat="45.95182" lon="4.90899">
        <ele>298</ele>
        <time>2017-03-15T11:09:30Z</time>
      </trkpt>
      <trkpt lat="45.95183" lon="4.90893">
        <ele>298</ele>
        <time>2017-03-15T11:09:31Z</time>
      </trkpt>
      <trkpt lat="45.95184" lon="4.90886">
        <ele>298</ele>
        <time>2017-03-15T11:09:32Z</time>
      </trkpt>
      <trkpt lat="45.95186" lon="4.90875">
        <ele>298</ele>
        <time>2017-03-15T11:09:34Z</time>
      </trkpt>
      <trkpt lat="45.95186" lon="4.90868">
        <ele>298</ele>
        <time>2017-03-15T11:09:35Z</time>
      </trkpt>
      <trkpt lat="45.95188" lon="4.90861">
        <ele>298</ele>
        <time>2017-03-15T11:09:36Z</time>
      </trkpt>
      <trkpt lat="45.95188" lon="4.90854">
        <ele>298</ele>
        <time>2017-03-15T11:09:37Z</time>
      </trkpt>
      <trkpt lat="45.95189" lon="4.90848">
        <ele>298</ele>
        <time>2017-03-15T11:09:38Z</time>
      </trkpt>
      <trkpt lat="45.9519" lon="4.9084">
        <ele>298</ele>
        <time>2017-03-15T11:09:39Z</time>
      </trkpt>
      <trkpt lat="45.9519" lon="4.90833">
        <ele>299</ele>
        <time>2017-03-15T11:09:40Z</time>
      </trkpt>
      <trkpt lat="45.9519" lon="4.90826">
        <ele>299</ele>
        <time>2017-03-15T11:09:41Z</time>
      </trkpt>
      <trkpt lat="45.95191" lon="4.90819">
        <ele>299</ele>
        <time>2017-03-15T11:09:42Z</time>
      </trkpt>
      <trkpt lat="45.9519" lon="4.90812">
        <ele>299</ele>
        <time>2017-03-15T11:09:43Z</time>
      </trkpt>
      <trkpt lat="45.95189" lon="4.90804">
        <ele>299</ele>
        <time>2017-03-15T11:09:44Z</time>
      </trkpt>
      <trkpt lat="45.95187" lon="4.90796">
        <ele>298</ele>
        <time>2017-03-15T11:09:45Z</time>
      </trkpt>
      <trkpt lat="45.95186" lon="4.90789">
        <ele>298</ele>
        <time>2017-03-15T11:09:46Z</time>
      </trkpt>
      <trkpt lat="45.95184" lon="4.90782">
        <ele>298</ele>
        <time>2017-03-15T11:09:47Z</time>
      </trkpt>
      <trkpt lat="45.95183" lon="4.90774">
        <ele>298</ele>
        <time>2017-03-15T11:09:48Z</time>
      </trkpt>
      <trkpt lat="45.95181" lon="4.90766">
        <ele>298</ele>
        <time>2017-03-15T11:09:49Z</time>
      </trkpt>
      <trkpt lat="45.95181" lon="4.90759">
        <ele>298</ele>
        <time>2017-03-15T11:09:50Z</time>
      </trkpt>
      <trkpt lat="45.95181" lon="4.90751">
        <ele>298</ele>
        <time>2017-03-15T11:09:51Z</time>
      </trkpt>
      <trkpt lat="45.95182" lon="4.90743">
        <ele>297</ele>
        <time>2017-03-15T11:09:52Z</time>
      </trkpt>
      <trkpt lat="45.95182" lon="4.90735">
        <ele>297</ele>
        <time>2017-03-15T11:09:53Z</time>
      </trkpt>
      <trkpt lat="45.95183" lon="4.90727">
        <ele>297</ele>
        <time>2017-03-15T11:09:54Z</time>
      </trkpt>
      <trkpt lat="45.95185" lon="4.90719">
        <ele>297</ele>
        <time>2017-03-15T11:09:55Z</time>
      </trkpt>
      <trkpt lat="45.95185" lon="4.90711">
        <ele>297</ele>
        <time>2017-03-15T11:09:56Z</time>
      </trkpt>
      <trkpt lat="45.95186" lon="4.90703">
        <ele>297</ele>
        <time>2017-03-15T11:09:57Z</time>
      </trkpt>
      <trkpt lat="45.95186" lon="4.90696">
        <ele>297</ele>
        <time>2017-03-15T11:09:58Z</time>
      </trkpt>
      <trkpt lat="45.95186" lon="4.90688">
        <ele>297</ele>
        <time>2017-03-15T11:09:59Z</time>
      </trkpt>
      <trkpt lat="45.95186" lon="4.90681">
        <ele>297</ele>
        <time>2017-03-15T11:10:00Z</time>
      </trkpt>
      <trkpt lat="45.95186" lon="4.90674">
        <ele>297</ele>
        <time>2017-03-15T11:10:01Z</time>
      </trkpt>
      <trkpt lat="45.95186" lon="4.90666">
        <ele>296</ele>
        <time>2017-03-15T11:10:02Z</time>
      </trkpt>
      <trkpt lat="45.95187" lon="4.90658">
        <ele>296</ele>
        <time>2017-03-15T11:10:03Z</time>
      </trkpt>
      <trkpt lat="45.95188" lon="4.9065">
        <ele>296</ele>
        <time>2017-03-15T11:10:04Z</time>
      </trkpt>
      <trkpt lat="45.95189" lon="4.90641">
        <ele>296</ele>
        <time>2017-03-15T11:10:05Z</time>
      </trkpt>
      <trkpt lat="45.95189" lon="4.90633">
        <ele>295</ele>
        <time>2017-03-15T11:10:06Z</time>
      </trkpt>
      <trkpt lat="45.95189" lon="4.90625">
        <ele>295</ele>
        <time>2017-03-15T11:10:07Z</time>
      </trkpt>
      <trkpt lat="45.9519" lon="4.90616">
        <ele>295</ele>
        <time>2017-03-15T11:10:08Z</time>
      </trkpt>
      <trkpt lat="45.95191" lon="4.90607">
        <ele>295</ele>
        <time>2017-03-15T11:10:09Z</time>
      </trkpt>
      <trkpt lat="45.95191" lon="4.90598">
        <ele>295</ele>
        <time>2017-03-15T11:10:10Z</time>
      </trkpt>
      <trkpt lat="45.95191" lon="4.90589">
        <ele>295</ele>
        <time>2017-03-15T11:10:11Z</time>
      </trkpt>
      <trkpt lat="45.95191" lon="4.9058">
        <ele>293</ele>
        <time>2017-03-15T11:10:12Z</time>
      </trkpt>
      <trkpt lat="45.95191" lon="4.90572">
        <ele>293</ele>
        <time>2017-03-15T11:10:13Z</time>
      </trkpt>
      <trkpt lat="45.95191" lon="4.90564">
        <ele>293</ele>
        <time>2017-03-15T11:10:14Z</time>
      </trkpt>
      <trkpt lat="45.95192" lon="4.90556">
        <ele>293</ele>
        <time>2017-03-15T11:10:15Z</time>
      </trkpt>
      <trkpt lat="45.95192" lon="4.90547">
        <ele>293</ele>
        <time>2017-03-15T11:10:16Z</time>
      </trkpt>
      <trkpt lat="45.95194" lon="4.90538">
        <ele>293</ele>
        <time>2017-03-15T11:10:17Z</time>
      </trkpt>
      <trkpt lat="45.95194" lon="4.9053">
        <ele>293</ele>
        <time>2017-03-15T11:10:18Z</time>
      </trkpt>
      <trkpt lat="45.95195" lon="4.90522">
        <ele>292</ele>
        <time>2017-03-15T11:10:19Z</time>
      </trkpt>
      <trkpt lat="45.95196" lon="4.90514">
        <ele>292</ele>
        <time>2017-03-15T11:10:20Z</time>
      </trkpt>
      <trkpt lat="45.95197" lon="4.90506">
        <ele>292</ele>
        <time>2017-03-15T11:10:21Z</time>
      </trkpt>
      <trkpt lat="45.95197" lon="4.90499">
        <ele>290</ele>
        <time>2017-03-15T11:10:22Z</time>
      </trkpt>
      <trkpt lat="45.95197" lon="4.90491">
        <ele>290</ele>
        <time>2017-03-15T11:10:23Z</time>
      </trkpt>
      <trkpt lat="45.95196" lon="4.90483">
        <ele>290</ele>
        <time>2017-03-15T11:10:24Z</time>
      </trkpt>
      <trkpt lat="45.95196" lon="4.90475">
        <ele>290</ele>
        <time>2017-03-15T11:10:25Z</time>
      </trkpt>
      <trkpt lat="45.95197" lon="4.90466">
        <ele>290</ele>
        <time>2017-03-15T11:10:26Z</time>
      </trkpt>
      <trkpt lat="45.95197" lon="4.90457">
        <ele>290</ele>
        <time>2017-03-15T11:10:27Z</time>
      </trkpt>
      <trkpt lat="45.95197" lon="4.90449">
        <ele>290</ele>
        <time>2017-03-15T11:10:28Z</time>
      </trkpt>
      <trkpt lat="45.95197" lon="4.9044">
        <ele>290</ele>
        <time>2017-03-15T11:10:29Z</time>
      </trkpt>
      <trkpt lat="45.95197" lon="4.90431">
        <ele>289</ele>
        <time>2017-03-15T11:10:30Z</time>
      </trkpt>
      <trkpt lat="45.95198" lon="4.90423">
        <ele>289</ele>
        <time>2017-03-15T11:10:31Z</time>
      </trkpt>
      <trkpt lat="45.95198" lon="4.90414">
        <ele>288</ele>
        <time>2017-03-15T11:10:32Z</time>
      </trkpt>
      <trkpt lat="45.95198" lon="4.90406">
        <ele>288</ele>
        <time>2017-03-15T11:10:33Z</time>
      </trkpt>
      <trkpt lat="45.95198" lon="4.90398">
        <ele>288</ele>
        <time>2017-03-15T11:10:34Z</time>
      </trkpt>
      <trkpt lat="45.95199" lon="4.9039">
        <ele>288</ele>
        <time>2017-03-15T11:10:35Z</time>
      </trkpt>
      <trkpt lat="45.952" lon="4.90381">
        <ele>288</ele>
        <time>2017-03-15T11:10:36Z</time>
      </trkpt>
      <trkpt lat="45.95202" lon="4.90373">
        <ele>288</ele>
        <time>2017-03-15T11:10:37Z</time>
      </trkpt>
      <trkpt lat="45.95204" lon="4.90366">
        <ele>288</ele>
        <time>2017-03-15T11:10:38Z</time>
      </trkpt>
      <trkpt lat="45.95205" lon="4.90359">
        <ele>288</ele>
        <time>2017-03-15T11:10:39Z</time>
      </trkpt>
      <trkpt lat="45.95207" lon="4.90351">
        <ele>288</ele>
        <time>2017-03-15T11:10:40Z</time>
      </trkpt>
      <trkpt lat="45.95208" lon="4.90344">
        <ele>288</ele>
        <time>2017-03-15T11:10:41Z</time>
      </trkpt>
      <trkpt lat="45.95208" lon="4.90337">
        <ele>288</ele>
        <time>2017-03-15T11:10:42Z</time>
      </trkpt>
      <trkpt lat="45.9521" lon="4.90329">
        <ele>287</ele>
        <time>2017-03-15T11:10:43Z</time>
      </trkpt>
      <trkpt lat="45.95212" lon="4.90321">
        <ele>287</ele>
        <time>2017-03-15T11:10:44Z</time>
      </trkpt>
      <trkpt lat="45.95213" lon="4.90313">
        <ele>287</ele>
        <time>2017-03-15T11:10:45Z</time>
      </trkpt>
      <trkpt lat="45.95214" lon="4.90305">
        <ele>287</ele>
        <time>2017-03-15T11:10:46Z</time>
      </trkpt>
      <trkpt lat="45.95216" lon="4.90297">
        <ele>287</ele>
        <time>2017-03-15T11:10:47Z</time>
      </trkpt>
      <trkpt lat="45.95217" lon="4.9029">
        <ele>287</ele>
        <time>2017-03-15T11:10:48Z</time>
      </trkpt>
      <trkpt lat="45.95218" lon="4.90282">
        <ele>287</ele>
        <time>2017-03-15T11:10:49Z</time>
      </trkpt>
      <trkpt lat="45.95219" lon="4.90274">
        <ele>287</ele>
        <time>2017-03-15T11:10:50Z</time>
      </trkpt>
      <trkpt lat="45.95219" lon="4.90267">
        <ele>287</ele>
        <time>2017-03-15T11:10:51Z</time>
      </trkpt>
      <trkpt lat="45.95219" lon="4.90259">
        <ele>287</ele>
        <time>2017-03-15T11:10:52Z</time>
      </trkpt>
      <trkpt lat="45.95219" lon="4.90251">
        <ele>287</ele>
        <time>2017-03-15T11:10:53Z</time>
      </trkpt>
      <trkpt lat="45.95219" lon="4.90243">
        <ele>286</ele>
        <time>2017-03-15T11:10:54Z</time>
      </trkpt>
      <trkpt lat="45.95218" lon="4.90235">
        <ele>286</ele>
        <time>2017-03-15T11:10:55Z</time>
      </trkpt>
      <trkpt lat="45.95217" lon="4.90227">
        <ele>286</ele>
        <time>2017-03-15T11:10:56Z</time>
      </trkpt>
      <trkpt lat="45.95216" lon="4.90219">
        <ele>286</ele>
        <time>2017-03-15T11:10:57Z</time>
      </trkpt>
      <trkpt lat="45.95215" lon="4.90211">
        <ele>286</ele>
        <time>2017-03-15T11:10:58Z</time>
      </trkpt>
      <trkpt lat="45.95214" lon="4.90204">
        <ele>286</ele>
        <time>2017-03-15T11:10:59Z</time>
      </trkpt>
      <trkpt lat="45.95213" lon="4.90196">
        <ele>286</ele>
        <time>2017-03-15T11:11:00Z</time>
      </trkpt>
      <trkpt lat="45.95211" lon="4.90188">
        <ele>286</ele>
        <time>2017-03-15T11:11:01Z</time>
      </trkpt>
      <trkpt lat="45.95209" lon="4.9018">
        <ele>286</ele>
        <time>2017-03-15T11:11:02Z</time>
      </trkpt>
      <trkpt lat="45.95206" lon="4.90173">
        <ele>287</ele>
        <time>2017-03-15T11:11:03Z</time>
      </trkpt>
      <trkpt lat="45.952" lon="4.90169">
        <ele>287</ele>
        <time>2017-03-15T11:11:04Z</time>
      </trkpt>
      <trkpt lat="45.95194" lon="4.90166">
        <ele>287</ele>
        <time>2017-03-15T11:11:05Z</time>
      </trkpt>
      <trkpt lat="45.95188" lon="4.90165">
        <ele>287</ele>
        <time>2017-03-15T11:11:06Z</time>
      </trkpt>
      <trkpt lat="45.95182" lon="4.90166">
        <ele>287</ele>
        <time>2017-03-15T11:11:07Z</time>
      </trkpt>
      <trkpt lat="45.95175" lon="4.90166">
        <ele>287</ele>
        <time>2017-03-15T11:11:08Z</time>
      </trkpt>
      <trkpt lat="45.95169" lon="4.90167">
        <ele>287</ele>
        <time>2017-03-15T11:11:09Z</time>
      </trkpt>
      <trkpt lat="45.95162" lon="4.90168">
        <ele>287</ele>
        <time>2017-03-15T11:11:10Z</time>
      </trkpt>
      <trkpt lat="45.95156" lon="4.90168">
        <ele>287</ele>
        <time>2017-03-15T11:11:11Z</time>
      </trkpt>
      <trkpt lat="45.9515" lon="4.90168">
        <ele>287</ele>
        <time>2017-03-15T11:11:12Z</time>
      </trkpt>
      <trkpt lat="45.95143" lon="4.90167">
        <ele>287</ele>
        <time>2017-03-15T11:11:13Z</time>
      </trkpt>
      <trkpt lat="45.95137" lon="4.90165">
        <ele>286</ele>
        <time>2017-03-15T11:11:14Z</time>
      </trkpt>
      <trkpt lat="45.9513" lon="4.90161">
        <ele>286</ele>
        <time>2017-03-15T11:11:15Z</time>
      </trkpt>
      <trkpt lat="45.95123" lon="4.90157">
        <ele>286</ele>
        <time>2017-03-15T11:11:16Z</time>
      </trkpt>
      <trkpt lat="45.95117" lon="4.90152">
        <ele>286</ele>
        <time>2017-03-15T11:11:17Z</time>
      </trkpt>
      <trkpt lat="45.95111" lon="4.90147">
        <ele>286</ele>
        <time>2017-03-15T11:11:18Z</time>
      </trkpt>
      <trkpt lat="45.95105" lon="4.90141">
        <ele>286</ele>
        <time>2017-03-15T11:11:19Z</time>
      </trkpt>
      <trkpt lat="45.95099" lon="4.90135">
        <ele>286</ele>
        <time>2017-03-15T11:11:20Z</time>
      </trkpt>
      <trkpt lat="45.95093" lon="4.90129">
        <ele>286</ele>
        <time>2017-03-15T11:11:21Z</time>
      </trkpt>
      <trkpt lat="45.95087" lon="4.90122">
        <ele>286</ele>
        <time>2017-03-15T11:11:22Z</time>
      </trkpt>
      <trkpt lat="45.95081" lon="4.90115">
        <ele>285</ele>
        <time>2017-03-15T11:11:23Z</time>
      </trkpt>
      <trkpt lat="45.95076" lon="4.90108">
        <ele>285</ele>
        <time>2017-03-15T11:11:24Z</time>
      </trkpt>
      <trkpt lat="45.95071" lon="4.90101">
        <ele>285</ele>
        <time>2017-03-15T11:11:25Z</time>
      </trkpt>
      <trkpt lat="45.95065" lon="4.90094">
        <ele>285</ele>
        <time>2017-03-15T11:11:26Z</time>
      </trkpt>
      <trkpt lat="45.9506" lon="4.90087">
        <ele>285</ele>
        <time>2017-03-15T11:11:27Z</time>
      </trkpt>
      <trkpt lat="45.95054" lon="4.90081">
        <ele>285</ele>
        <time>2017-03-15T11:11:28Z</time>
      </trkpt>
      <trkpt lat="45.95049" lon="4.90074">
        <ele>285</ele>
        <time>2017-03-15T11:11:29Z</time>
      </trkpt>
      <trkpt lat="45.95043" lon="4.90067">
        <ele>285</ele>
        <time>2017-03-15T11:11:30Z</time>
      </trkpt>
      <trkpt lat="45.95038" lon="4.90059">
        <ele>285</ele>
        <time>2017-03-15T11:11:31Z</time>
      </trkpt>
      <trkpt lat="45.95033" lon="4.90052">
        <ele>285</ele>
        <time>2017-03-15T11:11:32Z</time>
      </trkpt>
      <trkpt lat="45.95028" lon="4.90044">
        <ele>284</ele>
        <time>2017-03-15T11:11:33Z</time>
      </trkpt>
      <trkpt lat="45.95023" lon="4.90037">
        <ele>284</ele>
        <time>2017-03-15T11:11:34Z</time>
      </trkpt>
      <trkpt lat="45.95019" lon="4.90029">
        <ele>284</ele>
        <time>2017-03-15T11:11:35Z</time>
      </trkpt>
      <trkpt lat="45.95015" lon="4.90022">
        <ele>284</ele>
        <time>2017-03-15T11:11:36Z</time>
      </trkpt>
      <trkpt lat="45.9501" lon="4.90014">
        <ele>284</ele>
        <time>2017-03-15T11:11:37Z</time>
      </trkpt>
      <trkpt lat="45.95006" lon="4.90006">
        <ele>283</ele>
        <time>2017-03-15T11:11:38Z</time>
      </trkpt>
      <trkpt lat="45.95001" lon="4.89998">
        <ele>283</ele>
        <time>2017-03-15T11:11:39Z</time>
      </trkpt>
      <trkpt lat="45.94996" lon="4.8999">
        <ele>283</ele>
        <time>2017-03-15T11:11:40Z</time>
      </trkpt>
      <trkpt lat="45.94992" lon="4.89982">
        <ele>284</ele>
        <time>2017-03-15T11:11:41Z</time>
      </trkpt>
      <trkpt lat="45.94988" lon="4.89974">
        <ele>284</ele>
        <time>2017-03-15T11:11:42Z</time>
      </trkpt>
      <trkpt lat="45.94983" lon="4.89967">
        <ele>284</ele>
        <time>2017-03-15T11:11:43Z</time>
      </trkpt>
      <trkpt lat="45.94979" lon="4.8996">
        <ele>284</ele>
        <time>2017-03-15T11:11:44Z</time>
      </trkpt>
      <trkpt lat="45.94974" lon="4.89952">
        <ele>284</ele>
        <time>2017-03-15T11:11:45Z</time>
      </trkpt>
      <trkpt lat="45.9497" lon="4.89945">
        <ele>284</ele>
        <time>2017-03-15T11:11:46Z</time>
      </trkpt>
      <trkpt lat="45.94965" lon="4.89938">
        <ele>284</ele>
        <time>2017-03-15T11:11:47Z</time>
      </trkpt>
      <trkpt lat="45.9496" lon="4.89932">
        <ele>284</ele>
        <time>2017-03-15T11:11:48Z</time>
      </trkpt>
      <trkpt lat="45.94955" lon="4.89926">
        <ele>284</ele>
        <time>2017-03-15T11:11:49Z</time>
      </trkpt>
      <trkpt lat="45.9495" lon="4.8992">
        <ele>284</ele>
        <time>2017-03-15T11:11:50Z</time>
      </trkpt>
      <trkpt lat="45.94945" lon="4.89914">
        <ele>284</ele>
        <time>2017-03-15T11:11:51Z</time>
      </trkpt>
      <trkpt lat="45.9494" lon="4.89907">
        <ele>284</ele>
        <time>2017-03-15T11:11:52Z</time>
      </trkpt>
      <trkpt lat="45.94935" lon="4.89901">
        <ele>284</ele>
        <time>2017-03-15T11:11:53Z</time>
      </trkpt>
      <trkpt lat="45.94931" lon="4.89894">
        <ele>284</ele>
        <time>2017-03-15T11:11:54Z</time>
      </trkpt>
      <trkpt lat="45.94927" lon="4.89887">
        <ele>284</ele>
        <time>2017-03-15T11:11:55Z</time>
      </trkpt>
      <trkpt lat="45.94924" lon="4.8988">
        <ele>284</ele>
        <time>2017-03-15T11:11:56Z</time>
      </trkpt>
      <trkpt lat="45.94922" lon="4.89872">
        <ele>284</ele>
        <time>2017-03-15T11:11:57Z</time>
      </trkpt>
      <trkpt lat="45.9492" lon="4.89864">
        <ele>284</ele>
        <time>2017-03-15T11:11:58Z</time>
      </trkpt>
      <trkpt lat="45.94918" lon="4.89856">
        <ele>284</ele>
        <time>2017-03-15T11:11:59Z</time>
      </trkpt>
      <trkpt lat="45.94916" lon="4.89848">
        <ele>285</ele>
        <time>2017-03-15T11:12:00Z</time>
      </trkpt>
      <trkpt lat="45.94916" lon="4.89839">
        <ele>284</ele>
        <time>2017-03-15T11:12:01Z</time>
      </trkpt>
      <trkpt lat="45.94916" lon="4.8983">
        <ele>284</ele>
        <time>2017-03-15T11:12:02Z</time>
      </trkpt>
      <trkpt lat="45.94917" lon="4.89821">
        <ele>284</ele>
        <time>2017-03-15T11:12:03Z</time>
      </trkpt>
      <trkpt lat="45.94918" lon="4.89812">
        <ele>284</ele>
        <time>2017-03-15T11:12:04Z</time>
      </trkpt>
      <trkpt lat="45.94919" lon="4.89803">
        <ele>284</ele>
        <time>2017-03-15T11:12:05Z</time>
      </trkpt>
      <trkpt lat="45.94924" lon="4.89795">
        <ele>284</ele>
        <time>2017-03-15T11:12:06Z</time>
      </trkpt>
      <trkpt lat="45.94927" lon="4.89786">
        <ele>284</ele>
        <time>2017-03-15T11:12:07Z</time>
      </trkpt>
      <trkpt lat="45.94929" lon="4.89777">
        <ele>284</ele>
        <time>2017-03-15T11:12:08Z</time>
      </trkpt>
      <trkpt lat="45.94931" lon="4.89768">
        <ele>284</ele>
        <time>2017-03-15T11:12:09Z</time>
      </trkpt>
      <trkpt lat="45.94933" lon="4.8976">
        <ele>284</ele>
        <time>2017-03-15T11:12:10Z</time>
      </trkpt>
      <trkpt lat="45.94935" lon="4.89752">
        <ele>284</ele>
        <time>2017-03-15T11:12:11Z</time>
      </trkpt>
      <trkpt lat="45.94937" lon="4.89745">
        <ele>285</ele>
        <time>2017-03-15T11:12:12Z</time>
      </trkpt>
      <trkpt lat="45.94938" lon="4.89738">
        <ele>284</ele>
        <time>2017-03-15T11:12:13Z</time>
      </trkpt>
      <trkpt lat="45.94941" lon="4.8973">
        <ele>284</ele>
        <time>2017-03-15T11:12:14Z</time>
      </trkpt>
      <trkpt lat="45.94943" lon="4.89722">
        <ele>284</ele>
        <time>2017-03-15T11:12:15Z</time>
      </trkpt>
      <trkpt lat="45.94945" lon="4.89714">
        <ele>284</ele>
        <time>2017-03-15T11:12:16Z</time>
      </trkpt>
      <trkpt lat="45.94948" lon="4.89707">
        <ele>284</ele>
        <time>2017-03-15T11:12:17Z</time>
      </trkpt>
      <trkpt lat="45.9495" lon="4.89699">
        <ele>284</ele>
        <time>2017-03-15T11:12:18Z</time>
      </trkpt>
      <trkpt lat="45.94953" lon="4.89691">
        <ele>284</ele>
        <time>2017-03-15T11:12:19Z</time>
      </trkpt>
      <trkpt lat="45.94955" lon="4.89684">
        <ele>284</ele>
        <time>2017-03-15T11:12:20Z</time>
      </trkpt>
      <trkpt lat="45.94958" lon="4.89676">
        <ele>284</ele>
        <time>2017-03-15T11:12:21Z</time>
      </trkpt>
      <trkpt lat="45.9496" lon="4.89668">
        <ele>284</ele>
        <time>2017-03-15T11:12:22Z</time>
      </trkpt>
      <trkpt lat="45.94963" lon="4.89661">
        <ele>285</ele>
        <time>2017-03-15T11:12:23Z</time>
      </trkpt>
      <trkpt lat="45.94965" lon="4.89653">
        <ele>285</ele>
        <time>2017-03-15T11:12:24Z</time>
      </trkpt>
      <trkpt lat="45.94967" lon="4.89646">
        <ele>285</ele>
        <time>2017-03-15T11:12:25Z</time>
      </trkpt>
      <trkpt lat="45.94969" lon="4.89638">
        <ele>285</ele>
        <time>2017-03-15T11:12:26Z</time>
      </trkpt>
      <trkpt lat="45.94971" lon="4.8963">
        <ele>285</ele>
        <time>2017-03-15T11:12:27Z</time>
      </trkpt>
      <trkpt lat="45.94973" lon="4.89623">
        <ele>285</ele>
        <time>2017-03-15T11:12:28Z</time>
      </trkpt>
      <trkpt lat="45.94975" lon="4.89615">
        <ele>285</ele>
        <time>2017-03-15T11:12:29Z</time>
      </trkpt>
      <trkpt lat="45.94977" lon="4.89608">
        <ele>285</ele>
        <time>2017-03-15T11:12:30Z</time>
      </trkpt>
      <trkpt lat="45.94979" lon="4.89601">
        <ele>285</ele>
        <time>2017-03-15T11:12:31Z</time>
      </trkpt>
      <trkpt lat="45.9498" lon="4.89593">
        <ele>284</ele>
        <time>2017-03-15T11:12:32Z</time>
      </trkpt>
      <trkpt lat="45.94983" lon="4.89586">
        <ele>284</ele>
        <time>2017-03-15T11:12:33Z</time>
      </trkpt>
      <trkpt lat="45.94985" lon="4.89578">
        <ele>284</ele>
        <time>2017-03-15T11:12:34Z</time>
      </trkpt>
      <trkpt lat="45.94987" lon="4.8957">
        <ele>284</ele>
        <time>2017-03-15T11:12:35Z</time>
      </trkpt>
      <trkpt lat="45.94989" lon="4.89562">
        <ele>285</ele>
        <time>2017-03-15T11:12:36Z</time>
      </trkpt>
      <trkpt lat="45.94993" lon="4.89554">
        <ele>285</ele>
        <time>2017-03-15T11:12:37Z</time>
      </trkpt>
      <trkpt lat="45.94996" lon="4.89545">
        <ele>284</ele>
        <time>2017-03-15T11:12:38Z</time>
      </trkpt>
      <trkpt lat="45.94999" lon="4.89537">
        <ele>284</ele>
        <time>2017-03-15T11:12:39Z</time>
      </trkpt>
      <trkpt lat="45.95003" lon="4.89529">
        <ele>283</ele>
        <time>2017-03-15T11:12:40Z</time>
      </trkpt>
      <trkpt lat="45.95007" lon="4.89523">
        <ele>283</ele>
        <time>2017-03-15T11:12:41Z</time>
      </trkpt>
      <trkpt lat="45.95012" lon="4.89518">
        <ele>283</ele>
        <time>2017-03-15T11:12:42Z</time>
      </trkpt>
      <trkpt lat="45.95018" lon="4.89515">
        <ele>283</ele>
        <time>2017-03-15T11:12:43Z</time>
      </trkpt>
      <trkpt lat="45.95024" lon="4.89513">
        <ele>283</ele>
        <time>2017-03-15T11:12:44Z</time>
      </trkpt>
      <trkpt lat="45.9503" lon="4.89512">
        <ele>283</ele>
        <time>2017-03-15T11:12:45Z</time>
      </trkpt>
      <trkpt lat="45.95035" lon="4.8951">
        <ele>283</ele>
        <time>2017-03-15T11:12:46Z</time>
      </trkpt>
      <trkpt lat="45.95041" lon="4.89509">
        <ele>283</ele>
        <time>2017-03-15T11:12:47Z</time>
      </trkpt>
      <trkpt lat="45.95047" lon="4.89508">
        <ele>283</ele>
        <time>2017-03-15T11:12:48Z</time>
      </trkpt>
      <trkpt lat="45.95052" lon="4.89507">
        <ele>283</ele>
        <time>2017-03-15T11:12:49Z</time>
      </trkpt>
      <trkpt lat="45.95058" lon="4.89505">
        <ele>282</ele>
        <time>2017-03-15T11:12:50Z</time>
      </trkpt>
      <trkpt lat="45.95063" lon="4.89502">
        <ele>282</ele>
        <time>2017-03-15T11:12:51Z</time>
      </trkpt>
      <trkpt lat="45.95069" lon="4.895">
        <ele>282</ele>
        <time>2017-03-15T11:12:52Z</time>
      </trkpt>
      <trkpt lat="45.95074" lon="4.89497">
        <ele>282</ele>
        <time>2017-03-15T11:12:53Z</time>
      </trkpt>
      <trkpt lat="45.95078" lon="4.89491">
        <ele>282</ele>
        <time>2017-03-15T11:12:54Z</time>
      </trkpt>
      <trkpt lat="45.95082" lon="4.89485">
        <ele>282</ele>
        <time>2017-03-15T11:12:55Z</time>
      </trkpt>
      <trkpt lat="45.95084" lon="4.89477">
        <ele>282</ele>
        <time>2017-03-15T11:12:56Z</time>
      </trkpt>
      <trkpt lat="45.95085" lon="4.89469">
        <ele>282</ele>
        <time>2017-03-15T11:12:57Z</time>
      </trkpt>
      <trkpt lat="45.95083" lon="4.89461">
        <ele>282</ele>
        <time>2017-03-15T11:12:58Z</time>
      </trkpt>
      <trkpt lat="45.95081" lon="4.89453">
        <ele>282</ele>
        <time>2017-03-15T11:12:59Z</time>
      </trkpt>
      <trkpt lat="45.95079" lon="4.89445">
        <ele>282</ele>
        <time>2017-03-15T11:13:00Z</time>
      </trkpt>
      <trkpt lat="45.95078" lon="4.89437">
        <ele>282</ele>
        <time>2017-03-15T11:13:01Z</time>
      </trkpt>
      <trkpt lat="45.95076" lon="4.89429">
        <ele>282</ele>
        <time>2017-03-15T11:13:02Z</time>
      </trkpt>
      <trkpt lat="45.95075" lon="4.8942">
        <ele>282</ele>
        <time>2017-03-15T11:13:03Z</time>
      </trkpt>
      <trkpt lat="45.95074" lon="4.89411">
        <ele>282</ele>
        <time>2017-03-15T11:13:04Z</time>
      </trkpt>
      <trkpt lat="45.95073" lon="4.89403">
        <ele>283</ele>
        <time>2017-03-15T11:13:05Z</time>
      </trkpt>
      <trkpt lat="45.95072" lon="4.89395">
        <ele>283</ele>
        <time>2017-03-15T11:13:06Z</time>
      </trkpt>
      <trkpt lat="45.95071" lon="4.89387">
        <ele>283</ele>
        <time>2017-03-15T11:13:07Z</time>
      </trkpt>
      <trkpt lat="45.9507" lon="4.8938">
        <ele>283</ele>
        <time>2017-03-15T11:13:08Z</time>
      </trkpt>
      <trkpt lat="45.95069" lon="4.89373">
        <ele>283</ele>
        <time>2017-03-15T11:13:09Z</time>
      </trkpt>
      <trkpt lat="45.95068" lon="4.89366">
        <ele>283</ele>
        <time>2017-03-15T11:13:10Z</time>
      </trkpt>
      <trkpt lat="45.95068" lon="4.89358">
        <ele>283</ele>
        <time>2017-03-15T11:13:11Z</time>
      </trkpt>
      <trkpt lat="45.95068" lon="4.89351">
        <ele>283</ele>
        <time>2017-03-15T11:13:12Z</time>
      </trkpt>
      <trkpt lat="45.95068" lon="4.89343">
        <ele>283</ele>
        <time>2017-03-15T11:13:13Z</time>
      </trkpt>
      <trkpt lat="45.95069" lon="4.89334">
        <ele>283</ele>
        <time>2017-03-15T11:13:14Z</time>
      </trkpt>
      <trkpt lat="45.95069" lon="4.89326">
        <ele>283</ele>
        <time>2017-03-15T11:13:15Z</time>
      </trkpt>
      <trkpt lat="45.95069" lon="4.89318">
        <ele>283</ele>
        <time>2017-03-15T11:13:16Z</time>
      </trkpt>
      <trkpt lat="45.95069" lon="4.8931">
        <ele>283</ele>
        <time>2017-03-15T11:13:17Z</time>
      </trkpt>
      <trkpt lat="45.9507" lon="4.89302">
        <ele>283</ele>
        <time>2017-03-15T11:13:18Z</time>
      </trkpt>
      <trkpt lat="45.9507" lon="4.89293">
        <ele>283</ele>
        <time>2017-03-15T11:13:19Z</time>
      </trkpt>
      <trkpt lat="45.95071" lon="4.89285">
        <ele>283</ele>
        <time>2017-03-15T11:13:20Z</time>
      </trkpt>
      <trkpt lat="45.95072" lon="4.89276">
        <ele>283</ele>
        <time>2017-03-15T11:13:21Z</time>
      </trkpt>
      <trkpt lat="45.95073" lon="4.89268">
        <ele>283</ele>
        <time>2017-03-15T11:13:22Z</time>
      </trkpt>
      <trkpt lat="45.95073" lon="4.89259">
        <ele>283</ele>
        <time>2017-03-15T11:13:23Z</time>
      </trkpt>
      <trkpt lat="45.95074" lon="4.89251">
        <ele>283</ele>
        <time>2017-03-15T11:13:24Z</time>
      </trkpt>
      <trkpt lat="45.95074" lon="4.89243">
        <ele>283</ele>
        <time>2017-03-15T11:13:25Z</time>
      </trkpt>
      <trkpt lat="45.95075" lon="4.89235">
        <ele>284</ele>
        <time>2017-03-15T11:13:26Z</time>
      </trkpt>
      <trkpt lat="45.95076" lon="4.89227">
        <ele>284</ele>
        <time>2017-03-15T11:13:27Z</time>
      </trkpt>
      <trkpt lat="45.95076" lon="4.89219">
        <ele>284</ele>
        <time>2017-03-15T11:13:28Z</time>
      </trkpt>
      <trkpt lat="45.95076" lon="4.89212">
        <ele>284</ele>
        <time>2017-03-15T11:13:29Z</time>
      </trkpt>
      <trkpt lat="45.95076" lon="4.89204">
        <ele>284</ele>
        <time>2017-03-15T11:13:30Z</time>
      </trkpt>
      <trkpt lat="45.95077" lon="4.89197">
        <ele>284</ele>
        <time>2017-03-15T11:13:31Z</time>
      </trkpt>
      <trkpt lat="45.95077" lon="4.89191">
        <ele>284</ele>
        <time>2017-03-15T11:13:32Z</time>
      </trkpt>
      <trkpt lat="45.95078" lon="4.89183">
        <ele>284</ele>
        <time>2017-03-15T11:13:33Z</time>
      </trkpt>
      <trkpt lat="45.95078" lon="4.89176">
        <ele>284</ele>
        <time>2017-03-15T11:13:34Z</time>
      </trkpt>
      <trkpt lat="45.95078" lon="4.89168">
        <ele>284</ele>
        <time>2017-03-15T11:13:35Z</time>
      </trkpt>
      <trkpt lat="45.9508" lon="4.8916">
        <ele>284</ele>
        <time>2017-03-15T11:13:36Z</time>
      </trkpt>
      <trkpt lat="45.95081" lon="4.89153">
        <ele>284</ele>
        <time>2017-03-15T11:13:37Z</time>
      </trkpt>
      <trkpt lat="45.95081" lon="4.89146">
        <ele>285</ele>
        <time>2017-03-15T11:13:38Z</time>
      </trkpt>
      <trkpt lat="45.95081" lon="4.89138">
        <ele>285</ele>
        <time>2017-03-15T11:13:39Z</time>
      </trkpt>
      <trkpt lat="45.95081" lon="4.8913">
        <ele>285</ele>
        <time>2017-03-15T11:13:40Z</time>
      </trkpt>
      <trkpt lat="45.95082" lon="4.89123">
        <ele>285</ele>
        <time>2017-03-15T11:13:41Z</time>
      </trkpt>
      <trkpt lat="45.95083" lon="4.89116">
        <ele>285</ele>
        <time>2017-03-15T11:13:42Z</time>
      </trkpt>
      <trkpt lat="45.95083" lon="4.89109">
        <ele>285</ele>
        <time>2017-03-15T11:13:43Z</time>
      </trkpt>
      <trkpt lat="45.95084" lon="4.89102">
        <ele>283</ele>
        <time>2017-03-15T11:13:44Z</time>
      </trkpt>
      <trkpt lat="45.95084" lon="4.89094">
        <ele>284</ele>
        <time>2017-03-15T11:13:45Z</time>
      </trkpt>
      <trkpt lat="45.95086" lon="4.89086">
        <ele>284</ele>
        <time>2017-03-15T11:13:46Z</time>
      </trkpt>
      <trkpt lat="45.95088" lon="4.89079">
        <ele>284</ele>
        <time>2017-03-15T11:13:47Z</time>
      </trkpt>
      <trkpt lat="45.95089" lon="4.89072">
        <ele>284</ele>
        <time>2017-03-15T11:13:48Z</time>
      </trkpt>
      <trkpt lat="45.95089" lon="4.89064">
        <ele>284</ele>
        <time>2017-03-15T11:13:49Z</time>
      </trkpt>
      <trkpt lat="45.9509" lon="4.89057">
        <ele>284</ele>
        <time>2017-03-15T11:13:50Z</time>
      </trkpt>
      <trkpt lat="45.95091" lon="4.8905">
        <ele>284</ele>
        <time>2017-03-15T11:13:51Z</time>
      </trkpt>
      <trkpt lat="45.95091" lon="4.89042">
        <ele>284</ele>
        <time>2017-03-15T11:13:52Z</time>
      </trkpt>
      <trkpt lat="45.95092" lon="4.89035">
        <ele>284</ele>
        <time>2017-03-15T11:13:53Z</time>
      </trkpt>
      <trkpt lat="45.95093" lon="4.89029">
        <ele>284</ele>
        <time>2017-03-15T11:13:54Z</time>
      </trkpt>
      <trkpt lat="45.95094" lon="4.89022">
        <ele>284</ele>
        <time>2017-03-15T11:13:55Z</time>
      </trkpt>
      <trkpt lat="45.95094" lon="4.89015">
        <ele>284</ele>
        <time>2017-03-15T11:13:56Z</time>
      </trkpt>
      <trkpt lat="45.95095" lon="4.89008">
        <ele>284</ele>
        <time>2017-03-15T11:13:57Z</time>
      </trkpt>
      <trkpt lat="45.95095" lon="4.89001">
        <ele>284</ele>
        <time>2017-03-15T11:13:58Z</time>
      </trkpt>
      <trkpt lat="45.95096" lon="4.88994">
        <ele>285</ele>
        <time>2017-03-15T11:13:59Z</time>
      </trkpt>
      <trkpt lat="45.95096" lon="4.88987">
        <ele>285</ele>
        <time>2017-03-15T11:14:00Z</time>
      </trkpt>
      <trkpt lat="45.95097" lon="4.88981">
        <ele>284</ele>
        <time>2017-03-15T11:14:01Z</time>
      </trkpt>
      <trkpt lat="45.95097" lon="4.88974">
        <ele>284</ele>
        <time>2017-03-15T11:14:02Z</time>
      </trkpt>
      <trkpt lat="45.95098" lon="4.88967">
        <ele>284</ele>
        <time>2017-03-15T11:14:03Z</time>
      </trkpt>
      <trkpt lat="45.95099" lon="4.8896">
        <ele>284</ele>
        <time>2017-03-15T11:14:04Z</time>
      </trkpt>
      <trkpt lat="45.951" lon="4.88953">
        <ele>284</ele>
        <time>2017-03-15T11:14:05Z</time>
      </trkpt>
      <trkpt lat="45.951" lon="4.88946">
        <ele>285</ele>
        <time>2017-03-15T11:14:06Z</time>
      </trkpt>
      <trkpt lat="45.951" lon="4.88938">
        <ele>285</ele>
        <time>2017-03-15T11:14:07Z</time>
      </trkpt>
      <trkpt lat="45.95101" lon="4.88931">
        <ele>285</ele>
        <time>2017-03-15T11:14:08Z</time>
      </trkpt>
      <trkpt lat="45.95101" lon="4.88924">
        <ele>285</ele>
        <time>2017-03-15T11:14:09Z</time>
      </trkpt>
      <trkpt lat="45.95102" lon="4.88917">
        <ele>285</ele>
        <time>2017-03-15T11:14:10Z</time>
      </trkpt>
      <trkpt lat="45.95102" lon="4.8891">
        <ele>285</ele>
        <time>2017-03-15T11:14:11Z</time>
      </trkpt>
      <trkpt lat="45.95102" lon="4.88903">
        <ele>285</ele>
        <time>2017-03-15T11:14:12Z</time>
      </trkpt>
      <trkpt lat="45.95103" lon="4.88895">
        <ele>285</ele>
        <time>2017-03-15T11:14:13Z</time>
      </trkpt>
      <trkpt lat="45.95102" lon="4.88888">
        <ele>285</ele>
        <time>2017-03-15T11:14:14Z</time>
      </trkpt>
      <trkpt lat="45.95103" lon="4.8888">
        <ele>285</ele>
        <time>2017-03-15T11:14:15Z</time>
      </trkpt>
      <trkpt lat="45.95103" lon="4.88873">
        <ele>285</ele>
        <time>2017-03-15T11:14:16Z</time>
      </trkpt>
      <trkpt lat="45.95104" lon="4.88865">
        <ele>285</ele>
        <time>2017-03-15T11:14:17Z</time>
      </trkpt>
      <trkpt lat="45.95104" lon="4.88857">
        <ele>285</ele>
        <time>2017-03-15T11:14:18Z</time>
      </trkpt>
      <trkpt lat="45.95105" lon="4.8885">
        <ele>285</ele>
        <time>2017-03-15T11:14:19Z</time>
      </trkpt>
      <trkpt lat="45.95106" lon="4.88837">
        <ele>285</ele>
        <time>2017-03-15T11:14:21Z</time>
      </trkpt>
      <trkpt lat="45.95106" lon="4.88831">
        <ele>286</ele>
        <time>2017-03-15T11:14:22Z</time>
      </trkpt>
      <trkpt lat="45.95107" lon="4.88818">
        <ele>286</ele>
        <time>2017-03-15T11:14:24Z</time>
      </trkpt>
      <trkpt lat="45.95108" lon="4.88812">
        <ele>286</ele>
        <time>2017-03-15T11:14:25Z</time>
      </trkpt>
      <trkpt lat="45.95109" lon="4.88805">
        <ele>286</ele>
        <time>2017-03-15T11:14:26Z</time>
      </trkpt>
      <trkpt lat="45.95109" lon="4.88798">
        <ele>286</ele>
        <time>2017-03-15T11:14:27Z</time>
      </trkpt>
      <trkpt lat="45.95109" lon="4.88786">
        <ele>287</ele>
        <time>2017-03-15T11:14:29Z</time>
      </trkpt>
      <trkpt lat="45.95109" lon="4.88779">
        <ele>287</ele>
        <time>2017-03-15T11:14:30Z</time>
      </trkpt>
      <trkpt lat="45.95109" lon="4.88767">
        <ele>287</ele>
        <time>2017-03-15T11:14:32Z</time>
      </trkpt>
      <trkpt lat="45.95108" lon="4.88761">
        <ele>287</ele>
        <time>2017-03-15T11:14:33Z</time>
      </trkpt>
      <trkpt lat="45.95109" lon="4.88748">
        <ele>288</ele>
        <time>2017-03-15T11:14:35Z</time>
      </trkpt>
      <trkpt lat="45.95109" lon="4.88742">
        <ele>288</ele>
        <time>2017-03-15T11:14:36Z</time>
      </trkpt>
      <trkpt lat="45.95111" lon="4.88736">
        <ele>288</ele>
        <time>2017-03-15T11:14:37Z</time>
      </trkpt>
      <trkpt lat="45.95112" lon="4.8873">
        <ele>288</ele>
        <time>2017-03-15T11:14:38Z</time>
      </trkpt>
      <trkpt lat="45.95113" lon="4.88718">
        <ele>289</ele>
        <time>2017-03-15T11:14:40Z</time>
      </trkpt>
      <trkpt lat="45.95113" lon="4.88712">
        <ele>289</ele>
        <time>2017-03-15T11:14:41Z</time>
      </trkpt>
      <trkpt lat="45.95112" lon="4.887">
        <ele>289</ele>
        <time>2017-03-15T11:14:43Z</time>
      </trkpt>
      <trkpt lat="45.95112" lon="4.88694">
        <ele>289</ele>
        <time>2017-03-15T11:14:44Z</time>
      </trkpt>
      <trkpt lat="45.95112" lon="4.88682">
        <ele>289</ele>
        <time>2017-03-15T11:14:46Z</time>
      </trkpt>
      <trkpt lat="45.95112" lon="4.88677">
        <ele>289</ele>
        <time>2017-03-15T11:14:47Z</time>
      </trkpt>
      <trkpt lat="45.95112" lon="4.88665">
        <ele>290</ele>
        <time>2017-03-15T11:14:49Z</time>
      </trkpt>
      <trkpt lat="45.95113" lon="4.88659">
        <ele>290</ele>
        <time>2017-03-15T11:14:50Z</time>
      </trkpt>
      <trkpt lat="45.95113" lon="4.88647">
        <ele>290</ele>
        <time>2017-03-15T11:14:52Z</time>
      </trkpt>
      <trkpt lat="45.95113" lon="4.88642">
        <ele>290</ele>
        <time>2017-03-15T11:14:53Z</time>
      </trkpt>
      <trkpt lat="45.95113" lon="4.8863">
        <ele>290</ele>
        <time>2017-03-15T11:14:55Z</time>
      </trkpt>
      <trkpt lat="45.95114" lon="4.88624">
        <ele>290</ele>
        <time>2017-03-15T11:14:56Z</time>
      </trkpt>
      <trkpt lat="45.95115" lon="4.88612">
        <ele>290</ele>
        <time>2017-03-15T11:14:58Z</time>
      </trkpt>
      <trkpt lat="45.95115" lon="4.88607">
        <ele>290</ele>
        <time>2017-03-15T11:14:59Z</time>
      </trkpt>
      <trkpt lat="45.95116" lon="4.88601">
        <ele>290</ele>
        <time>2017-03-15T11:15:00Z</time>
      </trkpt>
      <trkpt lat="45.95117" lon="4.88594">
        <ele>290</ele>
        <time>2017-03-15T11:15:01Z</time>
      </trkpt>
      <trkpt lat="45.95117" lon="4.88588">
        <ele>290</ele>
        <time>2017-03-15T11:15:02Z</time>
      </trkpt>
      <trkpt lat="45.95118" lon="4.88581">
        <ele>291</ele>
        <time>2017-03-15T11:15:03Z</time>
      </trkpt>
      <trkpt lat="45.95119" lon="4.88568">
        <ele>291</ele>
        <time>2017-03-15T11:15:05Z</time>
      </trkpt>
      <trkpt lat="45.95119" lon="4.88562">
        <ele>291</ele>
        <time>2017-03-15T11:15:06Z</time>
      </trkpt>
      <trkpt lat="45.95119" lon="4.8855">
        <ele>291</ele>
        <time>2017-03-15T11:15:08Z</time>
      </trkpt>
      <trkpt lat="45.95118" lon="4.88544">
        <ele>291</ele>
        <time>2017-03-15T11:15:09Z</time>
      </trkpt>
      <trkpt lat="45.95117" lon="4.88537">
        <ele>291</ele>
        <time>2017-03-15T11:15:10Z</time>
      </trkpt>
      <trkpt lat="45.95115" lon="4.88531">
        <ele>291</ele>
        <time>2017-03-15T11:15:11Z</time>
      </trkpt>
      <trkpt lat="45.95113" lon="4.88525">
        <ele>291</ele>
        <time>2017-03-15T11:15:12Z</time>
      </trkpt>
      <trkpt lat="45.95111" lon="4.88519">
        <ele>291</ele>
        <time>2017-03-15T11:15:13Z</time>
      </trkpt>
      <trkpt lat="45.95109" lon="4.88513">
        <ele>291</ele>
        <time>2017-03-15T11:15:14Z</time>
      </trkpt>
      <trkpt lat="45.95107" lon="4.88506">
        <ele>291</ele>
        <time>2017-03-15T11:15:15Z</time>
      </trkpt>
      <trkpt lat="45.95106" lon="4.88499">
        <ele>291</ele>
        <time>2017-03-15T11:15:16Z</time>
      </trkpt>
      <trkpt lat="45.95105" lon="4.88493">
        <ele>291</ele>
        <time>2017-03-15T11:15:17Z</time>
      </trkpt>
      <trkpt lat="45.95102" lon="4.88481">
        <ele>291</ele>
        <time>2017-03-15T11:15:19Z</time>
      </trkpt>
      <trkpt lat="45.951" lon="4.88474">
        <ele>291</ele>
        <time>2017-03-15T11:15:20Z</time>
      </trkpt>
      <trkpt lat="45.95099" lon="4.88468">
        <ele>291</ele>
        <time>2017-03-15T11:15:21Z</time>
      </trkpt>
      <trkpt lat="45.95097" lon="4.88462">
        <ele>291</ele>
        <time>2017-03-15T11:15:22Z</time>
      </trkpt>
      <trkpt lat="45.95097" lon="4.88455">
        <ele>291</ele>
        <time>2017-03-15T11:15:23Z</time>
      </trkpt>
      <trkpt lat="45.95097" lon="4.88448">
        <ele>291</ele>
        <time>2017-03-15T11:15:24Z</time>
      </trkpt>
      <trkpt lat="45.95097" lon="4.88441">
        <ele>291</ele>
        <time>2017-03-15T11:15:25Z</time>
      </trkpt>
      <trkpt lat="45.95099" lon="4.88434">
        <ele>291</ele>
        <time>2017-03-15T11:15:26Z</time>
      </trkpt>
      <trkpt lat="45.95102" lon="4.88427">
        <ele>291</ele>
        <time>2017-03-15T11:15:27Z</time>
      </trkpt>
      <trkpt lat="45.95103" lon="4.88421">
        <ele>291</ele>
        <time>2017-03-15T11:15:28Z</time>
      </trkpt>
      <trkpt lat="45.95105" lon="4.88408">
        <ele>291</ele>
        <time>2017-03-15T11:15:30Z</time>
      </trkpt>
      <trkpt lat="45.95106" lon="4.88402">
        <ele>291</ele>
        <time>2017-03-15T11:15:31Z</time>
      </trkpt>
      <trkpt lat="45.95106" lon="4.88396">
        <ele>291</ele>
        <time>2017-03-15T11:15:32Z</time>
      </trkpt>
      <trkpt lat="45.95107" lon="4.88389">
        <ele>291</ele>
        <time>2017-03-15T11:15:33Z</time>
      </trkpt>
      <trkpt lat="45.95109" lon="4.88382">
        <ele>291</ele>
        <time>2017-03-15T11:15:34Z</time>
      </trkpt>
      <trkpt lat="45.95112" lon="4.88376">
        <ele>290</ele>
        <time>2017-03-15T11:15:35Z</time>
      </trkpt>
      <trkpt lat="45.95113" lon="4.88369">
        <ele>290</ele>
        <time>2017-03-15T11:15:36Z</time>
      </trkpt>
      <trkpt lat="45.95113" lon="4.88362">
        <ele>290</ele>
        <time>2017-03-15T11:15:37Z</time>
      </trkpt>
      <trkpt lat="45.95115" lon="4.88355">
        <ele>290</ele>
        <time>2017-03-15T11:15:38Z</time>
      </trkpt>
      <trkpt lat="45.95116" lon="4.88348">
        <ele>290</ele>
        <time>2017-03-15T11:15:39Z</time>
      </trkpt>
      <trkpt lat="45.95117" lon="4.88341">
        <ele>290</ele>
        <time>2017-03-15T11:15:40Z</time>
      </trkpt>
      <trkpt lat="45.95118" lon="4.88334">
        <ele>290</ele>
        <time>2017-03-15T11:15:41Z</time>
      </trkpt>
      <trkpt lat="45.9512" lon="4.88326">
        <ele>289</ele>
        <time>2017-03-15T11:15:42Z</time>
      </trkpt>
      <trkpt lat="45.95122" lon="4.88318">
        <ele>289</ele>
        <time>2017-03-15T11:15:43Z</time>
      </trkpt>
      <trkpt lat="45.95122" lon="4.8831">
        <ele>289</ele>
        <time>2017-03-15T11:15:44Z</time>
      </trkpt>
      <trkpt lat="45.95123" lon="4.88302">
        <ele>289</ele>
        <time>2017-03-15T11:15:45Z</time>
      </trkpt>
      <trkpt lat="45.95125" lon="4.88294">
        <ele>289</ele>
        <time>2017-03-15T11:15:46Z</time>
      </trkpt>
      <trkpt lat="45.95127" lon="4.88285">
        <ele>289</ele>
        <time>2017-03-15T11:15:47Z</time>
      </trkpt>
      <trkpt lat="45.95128" lon="4.88277">
        <ele>289</ele>
        <time>2017-03-15T11:15:48Z</time>
      </trkpt>
      <trkpt lat="45.95128" lon="4.88269">
        <ele>289</ele>
        <time>2017-03-15T11:15:49Z</time>
      </trkpt>
      <trkpt lat="45.95128" lon="4.8826">
        <ele>289</ele>
        <time>2017-03-15T11:15:50Z</time>
      </trkpt>
      <trkpt lat="45.95128" lon="4.88253">
        <ele>289</ele>
        <time>2017-03-15T11:15:51Z</time>
      </trkpt>
      <trkpt lat="45.95128" lon="4.88242">
        <ele>287</ele>
        <time>2017-03-15T11:15:53Z</time>
      </trkpt>
      <trkpt lat="45.95129" lon="4.88238">
        <ele>287</ele>
        <time>2017-03-15T11:15:54Z</time>
      </trkpt>
      <trkpt lat="45.95129" lon="4.88229">
        <ele>287</ele>
        <time>2017-03-15T11:15:56Z</time>
      </trkpt>
      <trkpt lat="45.95128" lon="4.88224">
        <ele>287</ele>
        <time>2017-03-15T11:15:57Z</time>
      </trkpt>
      <trkpt lat="45.95128" lon="4.88217">
        <ele>287</ele>
        <time>2017-03-15T11:15:58Z</time>
      </trkpt>
      <trkpt lat="45.95129" lon="4.88211">
        <ele>287</ele>
        <time>2017-03-15T11:15:59Z</time>
      </trkpt>
      <trkpt lat="45.95131" lon="4.88204">
        <ele>287</ele>
        <time>2017-03-15T11:16:00Z</time>
      </trkpt>
      <trkpt lat="45.95133" lon="4.88198">
        <ele>287</ele>
        <time>2017-03-15T11:16:01Z</time>
      </trkpt>
      <trkpt lat="45.95136" lon="4.88192">
        <ele>286</ele>
        <time>2017-03-15T11:16:02Z</time>
      </trkpt>
      <trkpt lat="45.9514" lon="4.88187">
        <ele>286</ele>
        <time>2017-03-15T11:16:03Z</time>
      </trkpt>
      <trkpt lat="45.95143" lon="4.88182">
        <ele>286</ele>
        <time>2017-03-15T11:16:04Z</time>
      </trkpt>
      <trkpt lat="45.95148" lon="4.88178">
        <ele>286</ele>
        <time>2017-03-15T11:16:05Z</time>
      </trkpt>
      <trkpt lat="45.95153" lon="4.88177">
        <ele>286</ele>
        <time>2017-03-15T11:16:06Z</time>
      </trkpt>
      <trkpt lat="45.95158" lon="4.88175">
        <ele>286</ele>
        <time>2017-03-15T11:16:07Z</time>
      </trkpt>
      <trkpt lat="45.95163" lon="4.88172">
        <ele>285</ele>
        <time>2017-03-15T11:16:08Z</time>
      </trkpt>
      <trkpt lat="45.95166" lon="4.88166">
        <ele>285</ele>
        <time>2017-03-15T11:16:09Z</time>
      </trkpt>
      <trkpt lat="45.95169" lon="4.88159">
        <ele>284</ele>
        <time>2017-03-15T11:16:10Z</time>
      </trkpt>
      <trkpt lat="45.95173" lon="4.88151">
        <ele>283</ele>
        <time>2017-03-15T11:16:11Z</time>
      </trkpt>
      <trkpt lat="45.95174" lon="4.88143">
        <ele>283</ele>
        <time>2017-03-15T11:16:12Z</time>
      </trkpt>
      <trkpt lat="45.95175" lon="4.88135">
        <ele>283</ele>
        <time>2017-03-15T11:16:13Z</time>
      </trkpt>
      <trkpt lat="45.95177" lon="4.88126">
        <ele>282</ele>
        <time>2017-03-15T11:16:14Z</time>
      </trkpt>
      <trkpt lat="45.95178" lon="4.88118">
        <ele>282</ele>
        <time>2017-03-15T11:16:15Z</time>
      </trkpt>
      <trkpt lat="45.9518" lon="4.8811">
        <ele>282</ele>
        <time>2017-03-15T11:16:16Z</time>
      </trkpt>
      <trkpt lat="45.95181" lon="4.88102">
        <ele>282</ele>
        <time>2017-03-15T11:16:17Z</time>
      </trkpt>
      <trkpt lat="45.95183" lon="4.88095">
        <ele>282</ele>
        <time>2017-03-15T11:16:18Z</time>
      </trkpt>
      <trkpt lat="45.95185" lon="4.88087">
        <ele>282</ele>
        <time>2017-03-15T11:16:19Z</time>
      </trkpt>
      <trkpt lat="45.95187" lon="4.8808">
        <ele>281</ele>
        <time>2017-03-15T11:16:20Z</time>
      </trkpt>
      <trkpt lat="45.95189" lon="4.88072">
        <ele>281</ele>
        <time>2017-03-15T11:16:21Z</time>
      </trkpt>
      <trkpt lat="45.95191" lon="4.88063">
        <ele>281</ele>
        <time>2017-03-15T11:16:22Z</time>
      </trkpt>
      <trkpt lat="45.95194" lon="4.88055">
        <ele>281</ele>
        <time>2017-03-15T11:16:23Z</time>
      </trkpt>
      <trkpt lat="45.95196" lon="4.88047">
        <ele>281</ele>
        <time>2017-03-15T11:16:24Z</time>
      </trkpt>
      <trkpt lat="45.95199" lon="4.88039">
        <ele>281</ele>
        <time>2017-03-15T11:16:25Z</time>
      </trkpt>
      <trkpt lat="45.95202" lon="4.88032">
        <ele>281</ele>
        <time>2017-03-15T11:16:26Z</time>
      </trkpt>
      <trkpt lat="45.95206" lon="4.88026">
        <ele>281</ele>
        <time>2017-03-15T11:16:27Z</time>
      </trkpt>
      <trkpt lat="45.9521" lon="4.88021">
        <ele>281</ele>
        <time>2017-03-15T11:16:28Z</time>
      </trkpt>
      <trkpt lat="45.95213" lon="4.88016">
        <ele>281</ele>
        <time>2017-03-15T11:16:29Z</time>
      </trkpt>
      <trkpt lat="45.95217" lon="4.88011">
        <ele>281</ele>
        <time>2017-03-15T11:16:30Z</time>
      </trkpt>
      <trkpt lat="45.95221" lon="4.88005">
        <ele>281</ele>
        <time>2017-03-15T11:16:31Z</time>
      </trkpt>
      <trkpt lat="45.95225" lon="4.88">
        <ele>282</ele>
        <time>2017-03-15T11:16:32Z</time>
      </trkpt>
      <trkpt lat="45.95229" lon="4.87995">
        <ele>281</ele>
        <time>2017-03-15T11:16:33Z</time>
      </trkpt>
      <trkpt lat="45.95233" lon="4.87989">
        <ele>281</ele>
        <time>2017-03-15T11:16:34Z</time>
      </trkpt>
      <trkpt lat="45.95238" lon="4.87983">
        <ele>281</ele>
        <time>2017-03-15T11:16:35Z</time>
      </trkpt>
      <trkpt lat="45.95243" lon="4.87978">
        <ele>282</ele>
        <time>2017-03-15T11:16:36Z</time>
      </trkpt>
      <trkpt lat="45.95247" lon="4.87972">
        <ele>282</ele>
        <time>2017-03-15T11:16:37Z</time>
      </trkpt>
      <trkpt lat="45.95251" lon="4.87966">
        <ele>280</ele>
        <time>2017-03-15T11:16:38Z</time>
      </trkpt>
      <trkpt lat="45.95255" lon="4.87959">
        <ele>280</ele>
        <time>2017-03-15T11:16:39Z</time>
      </trkpt>
      <trkpt lat="45.95258" lon="4.87952">
        <ele>280</ele>
        <time>2017-03-15T11:16:40Z</time>
      </trkpt>
      <trkpt lat="45.95261" lon="4.87945">
        <ele>280</ele>
        <time>2017-03-15T11:16:41Z</time>
      </trkpt>
      <trkpt lat="45.95263" lon="4.87937">
        <ele>280</ele>
        <time>2017-03-15T11:16:42Z</time>
      </trkpt>
      <trkpt lat="45.95265" lon="4.87929">
        <ele>281</ele>
        <time>2017-03-15T11:16:43Z</time>
      </trkpt>
      <trkpt lat="45.95266" lon="4.87922">
        <ele>281</ele>
        <time>2017-03-15T11:16:44Z</time>
      </trkpt>
      <trkpt lat="45.95267" lon="4.87915">
        <ele>281</ele>
        <time>2017-03-15T11:16:45Z</time>
      </trkpt>
      <trkpt lat="45.95266" lon="4.87907">
        <ele>281</ele>
        <time>2017-03-15T11:16:46Z</time>
      </trkpt>
      <trkpt lat="45.95265" lon="4.879">
        <ele>281</ele>
        <time>2017-03-15T11:16:47Z</time>
      </trkpt>
      <trkpt lat="45.95263" lon="4.87891">
        <ele>281</ele>
        <time>2017-03-15T11:16:48Z</time>
      </trkpt>
      <trkpt lat="45.95261" lon="4.87884">
        <ele>281</ele>
        <time>2017-03-15T11:16:49Z</time>
      </trkpt>
      <trkpt lat="45.95259" lon="4.87876">
        <ele>281</ele>
        <time>2017-03-15T11:16:50Z</time>
      </trkpt>
      <trkpt lat="45.95257" lon="4.87869">
        <ele>281</ele>
        <time>2017-03-15T11:16:51Z</time>
      </trkpt>
      <trkpt lat="45.95256" lon="4.87862">
        <ele>281</ele>
        <time>2017-03-15T11:16:52Z</time>
      </trkpt>
      <trkpt lat="45.95254" lon="4.87854">
        <ele>281</ele>
        <time>2017-03-15T11:16:53Z</time>
      </trkpt>
      <trkpt lat="45.95252" lon="4.87846">
        <ele>281</ele>
        <time>2017-03-15T11:16:54Z</time>
      </trkpt>
      <trkpt lat="45.95252" lon="4.87838">
        <ele>282</ele>
        <time>2017-03-15T11:16:55Z</time>
      </trkpt>
      <trkpt lat="45.95251" lon="4.87829">
        <ele>282</ele>
        <time>2017-03-15T11:16:56Z</time>
      </trkpt>
      <trkpt lat="45.9525" lon="4.87821">
        <ele>282</ele>
        <time>2017-03-15T11:16:57Z</time>
      </trkpt>
      <trkpt lat="45.95249" lon="4.87812">
        <ele>282</ele>
        <time>2017-03-15T11:16:58Z</time>
      </trkpt>
      <trkpt lat="45.95247" lon="4.87803">
        <ele>282</ele>
        <time>2017-03-15T11:16:59Z</time>
      </trkpt>
      <trkpt lat="45.95246" lon="4.87794">
        <ele>282</ele>
        <time>2017-03-15T11:17:00Z</time>
      </trkpt>
      <trkpt lat="45.95244" lon="4.87786">
        <ele>282</ele>
        <time>2017-03-15T11:17:01Z</time>
      </trkpt>
      <trkpt lat="45.95243" lon="4.87777">
        <ele>282</ele>
        <time>2017-03-15T11:17:02Z</time>
      </trkpt>
      <trkpt lat="45.95241" lon="4.87768">
        <ele>281</ele>
        <time>2017-03-15T11:17:03Z</time>
      </trkpt>
      <trkpt lat="45.9524" lon="4.87759">
        <ele>281</ele>
        <time>2017-03-15T11:17:04Z</time>
      </trkpt>
      <trkpt lat="45.95239" lon="4.8775">
        <ele>281</ele>
        <time>2017-03-15T11:17:05Z</time>
      </trkpt>
      <trkpt lat="45.95237" lon="4.87741">
        <ele>280</ele>
        <time>2017-03-15T11:17:06Z</time>
      </trkpt>
      <trkpt lat="45.95235" lon="4.87733">
        <ele>280</ele>
        <time>2017-03-15T11:17:07Z</time>
      </trkpt>
      <trkpt lat="45.95234" lon="4.87724">
        <ele>280</ele>
        <time>2017-03-15T11:17:08Z</time>
      </trkpt>
      <trkpt lat="45.95234" lon="4.87715">
        <ele>279</ele>
        <time>2017-03-15T11:17:09Z</time>
      </trkpt>
      <trkpt lat="45.95232" lon="4.87706">
        <ele>279</ele>
        <time>2017-03-15T11:17:10Z</time>
      </trkpt>
      <trkpt lat="45.95231" lon="4.87697">
        <ele>279</ele>
        <time>2017-03-15T11:17:11Z</time>
      </trkpt>
      <trkpt lat="45.95231" lon="4.87688">
        <ele>278</ele>
        <time>2017-03-15T11:17:12Z</time>
      </trkpt>
      <trkpt lat="45.95229" lon="4.87678">
        <ele>278</ele>
        <time>2017-03-15T11:17:13Z</time>
      </trkpt>
      <trkpt lat="45.95227" lon="4.87668">
        <ele>278</ele>
        <time>2017-03-15T11:17:14Z</time>
      </trkpt>
      <trkpt lat="45.95226" lon="4.87658">
        <ele>276</ele>
        <time>2017-03-15T11:17:15Z</time>
      </trkpt>
      <trkpt lat="45.95224" lon="4.87647">
        <ele>276</ele>
        <time>2017-03-15T11:17:16Z</time>
      </trkpt>
      <trkpt lat="45.95222" lon="4.87636">
        <ele>276</ele>
        <time>2017-03-15T11:17:17Z</time>
      </trkpt>
      <trkpt lat="45.9522" lon="4.87625">
        <ele>276</ele>
        <time>2017-03-15T11:17:18Z</time>
      </trkpt>
      <trkpt lat="45.95219" lon="4.87614">
        <ele>276</ele>
        <time>2017-03-15T11:17:19Z</time>
      </trkpt>
      <trkpt lat="45.95218" lon="4.87602">
        <ele>276</ele>
        <time>2017-03-15T11:17:20Z</time>
      </trkpt>
      <trkpt lat="45.95217" lon="4.8759">
        <ele>276</ele>
        <time>2017-03-15T11:17:21Z</time>
      </trkpt>
      <trkpt lat="45.95216" lon="4.87578">
        <ele>274</ele>
        <time>2017-03-15T11:17:22Z</time>
      </trkpt>
      <trkpt lat="45.95215" lon="4.87566">
        <ele>274</ele>
        <time>2017-03-15T11:17:23Z</time>
      </trkpt>
      <trkpt lat="45.95214" lon="4.87553">
        <ele>274</ele>
        <time>2017-03-15T11:17:24Z</time>
      </trkpt>
      <trkpt lat="45.95213" lon="4.87541">
        <ele>274</ele>
        <time>2017-03-15T11:17:25Z</time>
      </trkpt>
      <trkpt lat="45.95212" lon="4.87529">
        <ele>274</ele>
        <time>2017-03-15T11:17:26Z</time>
      </trkpt>
      <trkpt lat="45.9521" lon="4.87518">
        <ele>273</ele>
        <time>2017-03-15T11:17:27Z</time>
      </trkpt>
      <trkpt lat="45.95208" lon="4.87507">
        <ele>273</ele>
        <time>2017-03-15T11:17:28Z</time>
      </trkpt>
      <trkpt lat="45.95205" lon="4.87496">
        <ele>272</ele>
        <time>2017-03-15T11:17:29Z</time>
      </trkpt>
      <trkpt lat="45.95203" lon="4.87485">
        <ele>272</ele>
        <time>2017-03-15T11:17:30Z</time>
      </trkpt>
      <trkpt lat="45.952" lon="4.87474">
        <ele>272</ele>
        <time>2017-03-15T11:17:31Z</time>
      </trkpt>
      <trkpt lat="45.95198" lon="4.87464">
        <ele>272</ele>
        <time>2017-03-15T11:17:32Z</time>
      </trkpt>
      <trkpt lat="45.95195" lon="4.87454">
        <ele>272</ele>
        <time>2017-03-15T11:17:33Z</time>
      </trkpt>
      <trkpt lat="45.95192" lon="4.87444">
        <ele>272</ele>
        <time>2017-03-15T11:17:34Z</time>
      </trkpt>
      <trkpt lat="45.95189" lon="4.87434">
        <ele>272</ele>
        <time>2017-03-15T11:17:35Z</time>
      </trkpt>
      <trkpt lat="45.95186" lon="4.87424">
        <ele>271</ele>
        <time>2017-03-15T11:17:36Z</time>
      </trkpt>
      <trkpt lat="45.95183" lon="4.87415">
        <ele>271</ele>
        <time>2017-03-15T11:17:37Z</time>
      </trkpt>
      <trkpt lat="45.9518" lon="4.87406">
        <ele>271</ele>
        <time>2017-03-15T11:17:38Z</time>
      </trkpt>
      <trkpt lat="45.95178" lon="4.87398">
        <ele>271</ele>
        <time>2017-03-15T11:17:39Z</time>
      </trkpt>
      <trkpt lat="45.95176" lon="4.8739">
        <ele>271</ele>
        <time>2017-03-15T11:17:40Z</time>
      </trkpt>
      <trkpt lat="45.95174" lon="4.87382">
        <ele>271</ele>
        <time>2017-03-15T11:17:41Z</time>
      </trkpt>
      <trkpt lat="45.95171" lon="4.87374">
        <ele>271</ele>
        <time>2017-03-15T11:17:42Z</time>
      </trkpt>
      <trkpt lat="45.95169" lon="4.87366">
        <ele>271</ele>
        <time>2017-03-15T11:17:43Z</time>
      </trkpt>
      <trkpt lat="45.95167" lon="4.87357">
        <ele>271</ele>
        <time>2017-03-15T11:17:44Z</time>
      </trkpt>
      <trkpt lat="45.95165" lon="4.87349">
        <ele>272</ele>
        <time>2017-03-15T11:17:45Z</time>
      </trkpt>
      <trkpt lat="45.95163" lon="4.87341">
        <ele>272</ele>
        <time>2017-03-15T11:17:46Z</time>
      </trkpt>
      <trkpt lat="45.95162" lon="4.87333">
        <ele>272</ele>
        <time>2017-03-15T11:17:47Z</time>
      </trkpt>
      <trkpt lat="45.95159" lon="4.87324">
        <ele>272</ele>
        <time>2017-03-15T11:17:48Z</time>
      </trkpt>
      <trkpt lat="45.95157" lon="4.87316">
        <ele>273</ele>
        <time>2017-03-15T11:17:49Z</time>
      </trkpt>
      <trkpt lat="45.95156" lon="4.87307">
        <ele>273</ele>
        <time>2017-03-15T11:17:50Z</time>
      </trkpt>
      <trkpt lat="45.95154" lon="4.87299">
        <ele>274</ele>
        <time>2017-03-15T11:17:51Z</time>
      </trkpt>
      <trkpt lat="45.95153" lon="4.87291">
        <ele>274</ele>
        <time>2017-03-15T11:17:52Z</time>
      </trkpt>
      <trkpt lat="45.95152" lon="4.87284">
        <ele>274</ele>
        <time>2017-03-15T11:17:53Z</time>
      </trkpt>
      <trkpt lat="45.9515" lon="4.87276">
        <ele>274</ele>
        <time>2017-03-15T11:17:54Z</time>
      </trkpt>
      <trkpt lat="45.95149" lon="4.87268">
        <ele>274</ele>
        <time>2017-03-15T11:17:55Z</time>
      </trkpt>
      <trkpt lat="45.95148" lon="4.8726">
        <ele>274</ele>
        <time>2017-03-15T11:17:56Z</time>
      </trkpt>
      <trkpt lat="45.95146" lon="4.87252">
        <ele>274</ele>
        <time>2017-03-15T11:17:57Z</time>
      </trkpt>
      <trkpt lat="45.95145" lon="4.87245">
        <ele>275</ele>
        <time>2017-03-15T11:17:58Z</time>
      </trkpt>
      <trkpt lat="45.95144" lon="4.87237">
        <ele>275</ele>
        <time>2017-03-15T11:17:59Z</time>
      </trkpt>
      <trkpt lat="45.95142" lon="4.87229">
        <ele>275</ele>
        <time>2017-03-15T11:18:00Z</time>
      </trkpt>
      <trkpt lat="45.95141" lon="4.8722">
        <ele>276</ele>
        <time>2017-03-15T11:18:01Z</time>
      </trkpt>
      <trkpt lat="45.95139" lon="4.87212">
        <ele>276</ele>
        <time>2017-03-15T11:18:02Z</time>
      </trkpt>
      <trkpt lat="45.95138" lon="4.87204">
        <ele>276</ele>
        <time>2017-03-15T11:18:03Z</time>
      </trkpt>
      <trkpt lat="45.95137" lon="4.87196">
        <ele>276</ele>
        <time>2017-03-15T11:18:04Z</time>
      </trkpt>
      <trkpt lat="45.95135" lon="4.87188">
        <ele>276</ele>
        <time>2017-03-15T11:18:05Z</time>
      </trkpt>
      <trkpt lat="45.95134" lon="4.8718">
        <ele>276</ele>
        <time>2017-03-15T11:18:06Z</time>
      </trkpt>
      <trkpt lat="45.95133" lon="4.87172">
        <ele>276</ele>
        <time>2017-03-15T11:18:07Z</time>
      </trkpt>
      <trkpt lat="45.95131" lon="4.87164">
        <ele>276</ele>
        <time>2017-03-15T11:18:08Z</time>
      </trkpt>
      <trkpt lat="45.95129" lon="4.87156">
        <ele>276</ele>
        <time>2017-03-15T11:18:09Z</time>
      </trkpt>
      <trkpt lat="45.95128" lon="4.87149">
        <ele>276</ele>
        <time>2017-03-15T11:18:10Z</time>
      </trkpt>
      <trkpt lat="45.95126" lon="4.87141">
        <ele>276</ele>
        <time>2017-03-15T11:18:11Z</time>
      </trkpt>
      <trkpt lat="45.95124" lon="4.87133">
        <ele>276</ele>
        <time>2017-03-15T11:18:12Z</time>
      </trkpt>
      <trkpt lat="45.95123" lon="4.87125">
        <ele>276</ele>
        <time>2017-03-15T11:18:13Z</time>
      </trkpt>
      <trkpt lat="45.95121" lon="4.87117">
        <ele>276</ele>
        <time>2017-03-15T11:18:14Z</time>
      </trkpt>
      <trkpt lat="45.9512" lon="4.87109">
        <ele>276</ele>
        <time>2017-03-15T11:18:15Z</time>
      </trkpt>
      <trkpt lat="45.95119" lon="4.87101">
        <ele>276</ele>
        <time>2017-03-15T11:18:16Z</time>
      </trkpt>
      <trkpt lat="45.95117" lon="4.87093">
        <ele>276</ele>
        <time>2017-03-15T11:18:17Z</time>
      </trkpt>
      <trkpt lat="45.95115" lon="4.87086">
        <ele>277</ele>
        <time>2017-03-15T11:18:18Z</time>
      </trkpt>
      <trkpt lat="45.95113" lon="4.87078">
        <ele>276</ele>
        <time>2017-03-15T11:18:19Z</time>
      </trkpt>
      <trkpt lat="45.95111" lon="4.87071">
        <ele>276</ele>
        <time>2017-03-15T11:18:20Z</time>
      </trkpt>
      <trkpt lat="45.95108" lon="4.87063">
        <ele>276</ele>
        <time>2017-03-15T11:18:21Z</time>
      </trkpt>
      <trkpt lat="45.95105" lon="4.87057">
        <ele>276</ele>
        <time>2017-03-15T11:18:22Z</time>
      </trkpt>
      <trkpt lat="45.95101" lon="4.8705">
        <ele>276</ele>
        <time>2017-03-15T11:18:23Z</time>
      </trkpt>
      <trkpt lat="45.95097" lon="4.87043">
        <ele>276</ele>
        <time>2017-03-15T11:18:24Z</time>
      </trkpt>
      <trkpt lat="45.95094" lon="4.87036">
        <ele>276</ele>
        <time>2017-03-15T11:18:25Z</time>
      </trkpt>
      <trkpt lat="45.95091" lon="4.87029">
        <ele>276</ele>
        <time>2017-03-15T11:18:26Z</time>
      </trkpt>
      <trkpt lat="45.95088" lon="4.87022">
        <ele>277</ele>
        <time>2017-03-15T11:18:27Z</time>
      </trkpt>
      <trkpt lat="45.95084" lon="4.87015">
        <ele>277</ele>
        <time>2017-03-15T11:18:28Z</time>
      </trkpt>
      <trkpt lat="45.95081" lon="4.87007">
        <ele>277</ele>
        <time>2017-03-15T11:18:29Z</time>
      </trkpt>
      <trkpt lat="45.95077" lon="4.86999">
        <ele>277</ele>
        <time>2017-03-15T11:18:30Z</time>
      </trkpt>
      <trkpt lat="45.95073" lon="4.86991">
        <ele>277</ele>
        <time>2017-03-15T11:18:31Z</time>
      </trkpt>
      <trkpt lat="45.95069" lon="4.86984">
        <ele>276</ele>
        <time>2017-03-15T11:18:32Z</time>
      </trkpt>
      <trkpt lat="45.95065" lon="4.86976">
        <ele>276</ele>
        <time>2017-03-15T11:18:33Z</time>
      </trkpt>
      <trkpt lat="45.95062" lon="4.86967">
        <ele>276</ele>
        <time>2017-03-15T11:18:34Z</time>
      </trkpt>
      <trkpt lat="45.95059" lon="4.86958">
        <ele>276</ele>
        <time>2017-03-15T11:18:35Z</time>
      </trkpt>
      <trkpt lat="45.95057" lon="4.86949">
        <ele>276</ele>
        <time>2017-03-15T11:18:36Z</time>
      </trkpt>
      <trkpt lat="45.95054" lon="4.86941">
        <ele>276</ele>
        <time>2017-03-15T11:18:37Z</time>
      </trkpt>
      <trkpt lat="45.95051" lon="4.86932">
        <ele>276</ele>
        <time>2017-03-15T11:18:38Z</time>
      </trkpt>
      <trkpt lat="45.95048" lon="4.86923">
        <ele>276</ele>
        <time>2017-03-15T11:18:39Z</time>
      </trkpt>
      <trkpt lat="45.95045" lon="4.86914">
        <ele>275</ele>
        <time>2017-03-15T11:18:40Z</time>
      </trkpt>
      <trkpt lat="45.95041" lon="4.86906">
        <ele>275</ele>
        <time>2017-03-15T11:18:41Z</time>
      </trkpt>
      <trkpt lat="45.95038" lon="4.86897">
        <ele>275</ele>
        <time>2017-03-15T11:18:42Z</time>
      </trkpt>
      <trkpt lat="45.95035" lon="4.86889">
        <ele>275</ele>
        <time>2017-03-15T11:18:43Z</time>
      </trkpt>
      <trkpt lat="45.95032" lon="4.86881">
        <ele>275</ele>
        <time>2017-03-15T11:18:44Z</time>
      </trkpt>
      <trkpt lat="45.95029" lon="4.86873">
        <ele>275</ele>
        <time>2017-03-15T11:18:45Z</time>
      </trkpt>
      <trkpt lat="45.95025" lon="4.86865">
        <ele>275</ele>
        <time>2017-03-15T11:18:46Z</time>
      </trkpt>
      <trkpt lat="45.95022" lon="4.86857">
        <ele>275</ele>
        <time>2017-03-15T11:18:47Z</time>
      </trkpt>
      <trkpt lat="45.95019" lon="4.8685">
        <ele>275</ele>
        <time>2017-03-15T11:18:48Z</time>
      </trkpt>
      <trkpt lat="45.95015" lon="4.86842">
        <ele>275</ele>
        <time>2017-03-15T11:18:49Z</time>
      </trkpt>
      <trkpt lat="45.95012" lon="4.86835">
        <ele>276</ele>
        <time>2017-03-15T11:18:50Z</time>
      </trkpt>
      <trkpt lat="45.95009" lon="4.86828">
        <ele>275</ele>
        <time>2017-03-15T11:18:51Z</time>
      </trkpt>
      <trkpt lat="45.95006" lon="4.86821">
        <ele>275</ele>
        <time>2017-03-15T11:18:52Z</time>
      </trkpt>
      <trkpt lat="45.95003" lon="4.86813">
        <ele>275</ele>
        <time>2017-03-15T11:18:53Z</time>
      </trkpt>
      <trkpt lat="45.94999" lon="4.86806">
        <ele>276</ele>
        <time>2017-03-15T11:18:54Z</time>
      </trkpt>
      <trkpt lat="45.94996" lon="4.86799">
        <ele>276</ele>
        <time>2017-03-15T11:18:55Z</time>
      </trkpt>
      <trkpt lat="45.94992" lon="4.86792">
        <ele>276</ele>
        <time>2017-03-15T11:18:56Z</time>
      </trkpt>
      <trkpt lat="45.94988" lon="4.86786">
        <ele>275</ele>
        <time>2017-03-15T11:18:57Z</time>
      </trkpt>
      <trkpt lat="45.94985" lon="4.86779">
        <ele>275</ele>
        <time>2017-03-15T11:18:58Z</time>
      </trkpt>
      <trkpt lat="45.94981" lon="4.86773">
        <ele>275</ele>
        <time>2017-03-15T11:18:59Z</time>
      </trkpt>
      <trkpt lat="45.94977" lon="4.86766">
        <ele>275</ele>
        <time>2017-03-15T11:19:00Z</time>
      </trkpt>
      <trkpt lat="45.94973" lon="4.86758">
        <ele>275</ele>
        <time>2017-03-15T11:19:01Z</time>
      </trkpt>
      <trkpt lat="45.94969" lon="4.86751">
        <ele>275</ele>
        <time>2017-03-15T11:19:02Z</time>
      </trkpt>
      <trkpt lat="45.94965" lon="4.86744">
        <ele>275</ele>
        <time>2017-03-15T11:19:03Z</time>
      </trkpt>
      <trkpt lat="45.94961" lon="4.86736">
        <ele>275</ele>
        <time>2017-03-15T11:19:04Z</time>
      </trkpt>
      <trkpt lat="45.94958" lon="4.86729">
        <ele>275</ele>
        <time>2017-03-15T11:19:05Z</time>
      </trkpt>
      <trkpt lat="45.94955" lon="4.86721">
        <ele>275</ele>
        <time>2017-03-15T11:19:06Z</time>
      </trkpt>
      <trkpt lat="45.94952" lon="4.86713">
        <ele>275</ele>
        <time>2017-03-15T11:19:07Z</time>
      </trkpt>
      <trkpt lat="45.94949" lon="4.86705">
        <ele>275</ele>
        <time>2017-03-15T11:19:08Z</time>
      </trkpt>
      <trkpt lat="45.94947" lon="4.86697">
        <ele>275</ele>
        <time>2017-03-15T11:19:09Z</time>
      </trkpt>
      <trkpt lat="45.94946" lon="4.86689">
        <ele>276</ele>
        <time>2017-03-15T11:19:10Z</time>
      </trkpt>
      <trkpt lat="45.94945" lon="4.86682">
        <ele>276</ele>
        <time>2017-03-15T11:19:11Z</time>
      </trkpt>
      <trkpt lat="45.94945" lon="4.86674">
        <ele>276</ele>
        <time>2017-03-15T11:19:12Z</time>
      </trkpt>
      <trkpt lat="45.94945" lon="4.86666">
        <ele>276</ele>
        <time>2017-03-15T11:19:13Z</time>
      </trkpt>
      <trkpt lat="45.94946" lon="4.86658">
        <ele>276</ele>
        <time>2017-03-15T11:19:14Z</time>
      </trkpt>
      <trkpt lat="45.94947" lon="4.8665">
        <ele>276</ele>
        <time>2017-03-15T11:19:15Z</time>
      </trkpt>
      <trkpt lat="45.94949" lon="4.86642">
        <ele>276</ele>
        <time>2017-03-15T11:19:16Z</time>
      </trkpt>
      <trkpt lat="45.94952" lon="4.86635">
        <ele>276</ele>
        <time>2017-03-15T11:19:17Z</time>
      </trkpt>
      <trkpt lat="45.94957" lon="4.86629">
        <ele>276</ele>
        <time>2017-03-15T11:19:18Z</time>
      </trkpt>
      <trkpt lat="45.94962" lon="4.86624">
        <ele>275</ele>
        <time>2017-03-15T11:19:19Z</time>
      </trkpt>
      <trkpt lat="45.94968" lon="4.8662">
        <ele>275</ele>
        <time>2017-03-15T11:19:20Z</time>
      </trkpt>
      <trkpt lat="45.94974" lon="4.86616">
        <ele>275</ele>
        <time>2017-03-15T11:19:21Z</time>
      </trkpt>
      <trkpt lat="45.94981" lon="4.86614">
        <ele>275</ele>
        <time>2017-03-15T11:19:22Z</time>
      </trkpt>
      <trkpt lat="45.94987" lon="4.86613">
        <ele>275</ele>
        <time>2017-03-15T11:19:23Z</time>
      </trkpt>
      <trkpt lat="45.94993" lon="4.86612">
        <ele>275</ele>
        <time>2017-03-15T11:19:24Z</time>
      </trkpt>
      <trkpt lat="45.94999" lon="4.86612">
        <ele>275</ele>
        <time>2017-03-15T11:19:25Z</time>
      </trkpt>
      <trkpt lat="45.95005" lon="4.86611">
        <ele>273</ele>
        <time>2017-03-15T11:19:26Z</time>
      </trkpt>
      <trkpt lat="45.95011" lon="4.8661">
        <ele>273</ele>
        <time>2017-03-15T11:19:27Z</time>
      </trkpt>
      <trkpt lat="45.95017" lon="4.86608">
        <ele>273</ele>
        <time>2017-03-15T11:19:28Z</time>
      </trkpt>
      <trkpt lat="45.95023" lon="4.86607">
        <ele>273</ele>
        <time>2017-03-15T11:19:29Z</time>
      </trkpt>
      <trkpt lat="45.95028" lon="4.86606">
        <ele>273</ele>
        <time>2017-03-15T11:19:30Z</time>
      </trkpt>
      <trkpt lat="45.95034" lon="4.86605">
        <ele>273</ele>
        <time>2017-03-15T11:19:31Z</time>
      </trkpt>
      <trkpt lat="45.9504" lon="4.86604">
        <ele>273</ele>
        <time>2017-03-15T11:19:32Z</time>
      </trkpt>
      <trkpt lat="45.95046" lon="4.86603">
        <ele>272</ele>
        <time>2017-03-15T11:19:33Z</time>
      </trkpt>
      <trkpt lat="45.95051" lon="4.86602">
        <ele>272</ele>
        <time>2017-03-15T11:19:34Z</time>
      </trkpt>
      <trkpt lat="45.95057" lon="4.866">
        <ele>272</ele>
        <time>2017-03-15T11:19:35Z</time>
      </trkpt>
      <trkpt lat="45.95063" lon="4.86598">
        <ele>272</ele>
        <time>2017-03-15T11:19:36Z</time>
      </trkpt>
      <trkpt lat="45.95068" lon="4.86596">
        <ele>272</ele>
        <time>2017-03-15T11:19:37Z</time>
      </trkpt>
      <trkpt lat="45.95073" lon="4.86594">
        <ele>272</ele>
        <time>2017-03-15T11:19:38Z</time>
      </trkpt>
      <trkpt lat="45.95078" lon="4.86592">
        <ele>271</ele>
        <time>2017-03-15T11:19:39Z</time>
      </trkpt>
      <trkpt lat="45.95084" lon="4.86591">
        <ele>271</ele>
        <time>2017-03-15T11:19:40Z</time>
      </trkpt>
      <trkpt lat="45.95089" lon="4.8659">
        <ele>271</ele>
        <time>2017-03-15T11:19:41Z</time>
      </trkpt>
      <trkpt lat="45.95094" lon="4.86589">
        <ele>271</ele>
        <time>2017-03-15T11:19:42Z</time>
      </trkpt>
      <trkpt lat="45.95099" lon="4.86588">
        <ele>271</ele>
        <time>2017-03-15T11:19:43Z</time>
      </trkpt>
      <trkpt lat="45.95105" lon="4.86588">
        <ele>271</ele>
        <time>2017-03-15T11:19:44Z</time>
      </trkpt>
      <trkpt lat="45.9511" lon="4.86587">
        <ele>271</ele>
        <time>2017-03-15T11:19:45Z</time>
      </trkpt>
      <trkpt lat="45.95115" lon="4.86586">
        <ele>270</ele>
        <time>2017-03-15T11:19:46Z</time>
      </trkpt>
      <trkpt lat="45.9512" lon="4.86586">
        <ele>270</ele>
        <time>2017-03-15T11:19:47Z</time>
      </trkpt>
      <trkpt lat="45.95125" lon="4.86585">
        <ele>270</ele>
        <time>2017-03-15T11:19:48Z</time>
      </trkpt>
      <trkpt lat="45.95131" lon="4.86584">
        <ele>270</ele>
        <time>2017-03-15T11:19:49Z</time>
      </trkpt>
      <trkpt lat="45.95136" lon="4.86584">
        <ele>270</ele>
        <time>2017-03-15T11:19:50Z</time>
      </trkpt>
      <trkpt lat="45.95142" lon="4.86583">
        <ele>270</ele>
        <time>2017-03-15T11:19:51Z</time>
      </trkpt>
      <trkpt lat="45.95148" lon="4.86583">
        <ele>270</ele>
        <time>2017-03-15T11:19:52Z</time>
      </trkpt>
      <trkpt lat="45.95153" lon="4.86582">
        <ele>269</ele>
        <time>2017-03-15T11:19:53Z</time>
      </trkpt>
      <trkpt lat="45.95159" lon="4.86582">
        <ele>269</ele>
        <time>2017-03-15T11:19:54Z</time>
      </trkpt>
      <trkpt lat="45.95165" lon="4.86581">
        <ele>269</ele>
        <time>2017-03-15T11:19:55Z</time>
      </trkpt>
      <trkpt lat="45.9517" lon="4.86581">
        <ele>269</ele>
        <time>2017-03-15T11:19:56Z</time>
      </trkpt>
      <trkpt lat="45.95175" lon="4.8658">
        <ele>269</ele>
        <time>2017-03-15T11:19:57Z</time>
      </trkpt>
      <trkpt lat="45.9518" lon="4.8658">
        <ele>269</ele>
        <time>2017-03-15T11:19:58Z</time>
      </trkpt>
      <trkpt lat="45.95186" lon="4.8658">
        <ele>269</ele>
        <time>2017-03-15T11:19:59Z</time>
      </trkpt>
      <trkpt lat="45.95191" lon="4.8658">
        <ele>269</ele>
        <time>2017-03-15T11:20:00Z</time>
      </trkpt>
      <trkpt lat="45.95197" lon="4.86579">
        <ele>268</ele>
        <time>2017-03-15T11:20:01Z</time>
      </trkpt>
      <trkpt lat="45.95202" lon="4.86579">
        <ele>268</ele>
        <time>2017-03-15T11:20:02Z</time>
      </trkpt>
      <trkpt lat="45.95208" lon="4.86579">
        <ele>268</ele>
        <time>2017-03-15T11:20:03Z</time>
      </trkpt>
      <trkpt lat="45.95213" lon="4.8658">
        <ele>268</ele>
        <time>2017-03-15T11:20:04Z</time>
      </trkpt>
      <trkpt lat="45.95219" lon="4.86582">
        <ele>268</ele>
        <time>2017-03-15T11:20:05Z</time>
      </trkpt>
      <trkpt lat="45.95225" lon="4.86583">
        <ele>268</ele>
        <time>2017-03-15T11:20:06Z</time>
      </trkpt>
      <trkpt lat="45.95231" lon="4.86584">
        <ele>269</ele>
        <time>2017-03-15T11:20:07Z</time>
      </trkpt>
      <trkpt lat="45.95237" lon="4.86584">
        <ele>268</ele>
        <time>2017-03-15T11:20:08Z</time>
      </trkpt>
      <trkpt lat="45.95242" lon="4.86584">
        <ele>268</ele>
        <time>2017-03-15T11:20:09Z</time>
      </trkpt>
      <trkpt lat="45.95247" lon="4.86584">
        <ele>268</ele>
        <time>2017-03-15T11:20:10Z</time>
      </trkpt>
      <trkpt lat="45.95252" lon="4.86583">
        <ele>268</ele>
        <time>2017-03-15T11:20:11Z</time>
      </trkpt>
      <trkpt lat="45.95259" lon="4.86579">
        <ele>268</ele>
        <time>2017-03-15T11:20:13Z</time>
      </trkpt>
      <trkpt lat="45.95261" lon="4.86576">
        <ele>267</ele>
        <time>2017-03-15T11:20:14Z</time>
      </trkpt>
      <trkpt lat="45.95264" lon="4.86569">
        <ele>267</ele>
        <time>2017-03-15T11:20:16Z</time>
      </trkpt>
      <trkpt lat="45.95264" lon="4.86564">
        <ele>267</ele>
        <time>2017-03-15T11:20:17Z</time>
      </trkpt>
      <trkpt lat="45.9526" lon="4.86555">
        <ele>267</ele>
        <time>2017-03-15T11:20:19Z</time>
      </trkpt>
      <trkpt lat="45.95256" lon="4.8655">
        <ele>267</ele>
        <time>2017-03-15T11:20:20Z</time>
      </trkpt>
      <trkpt lat="45.95253" lon="4.86545">
        <ele>267</ele>
        <time>2017-03-15T11:20:21Z</time>
      </trkpt>
      <trkpt lat="45.95249" lon="4.8654">
        <ele>268</ele>
        <time>2017-03-15T11:20:22Z</time>
      </trkpt>
      <trkpt lat="45.95245" lon="4.86535">
        <ele>268</ele>
        <time>2017-03-15T11:20:23Z</time>
      </trkpt>
      <trkpt lat="45.95242" lon="4.86525">
        <ele>268</ele>
        <time>2017-03-15T11:20:24Z</time>
      </trkpt>
      <trkpt lat="45.95236" lon="4.8652">
        <ele>268</ele>
        <time>2017-03-15T11:20:25Z</time>
      </trkpt>
      <trkpt lat="45.95231" lon="4.86514">
        <ele>268</ele>
        <time>2017-03-15T11:20:26Z</time>
      </trkpt>
      <trkpt lat="45.95226" lon="4.86508">
        <ele>268</ele>
        <time>2017-03-15T11:20:27Z</time>
      </trkpt>
      <trkpt lat="45.95222" lon="4.86503">
        <ele>268</ele>
        <time>2017-03-15T11:20:28Z</time>
      </trkpt>
      <trkpt lat="45.95217" lon="4.86497">
        <ele>268</ele>
        <time>2017-03-15T11:20:29Z</time>
      </trkpt>
      <trkpt lat="45.95212" lon="4.86492">
        <ele>268</ele>
        <time>2017-03-15T11:20:30Z</time>
      </trkpt>
      <trkpt lat="45.95207" lon="4.86487">
        <ele>268</ele>
        <time>2017-03-15T11:20:31Z</time>
      </trkpt>
      <trkpt lat="45.95202" lon="4.86482">
        <ele>268</ele>
        <time>2017-03-15T11:20:32Z</time>
      </trkpt>
      <trkpt lat="45.95197" lon="4.86476">
        <ele>268</ele>
        <time>2017-03-15T11:20:33Z</time>
      </trkpt>
      <trkpt lat="45.95192" lon="4.86471">
        <ele>268</ele>
        <time>2017-03-15T11:20:34Z</time>
      </trkpt>
      <trkpt lat="45.95188" lon="4.86465">
        <ele>268</ele>
        <time>2017-03-15T11:20:35Z</time>
      </trkpt>
      <trkpt lat="45.95183" lon="4.8646">
        <ele>268</ele>
        <time>2017-03-15T11:20:36Z</time>
      </trkpt>
      <trkpt lat="45.95178" lon="4.86455">
        <ele>268</ele>
        <time>2017-03-15T11:20:37Z</time>
      </trkpt>
      <trkpt lat="45.95174" lon="4.86449">
        <ele>268</ele>
        <time>2017-03-15T11:20:38Z</time>
      </trkpt>
      <trkpt lat="45.95169" lon="4.86444">
        <ele>267</ele>
        <time>2017-03-15T11:20:39Z</time>
      </trkpt>
      <trkpt lat="45.95165" lon="4.86439">
        <ele>268</ele>
        <time>2017-03-15T11:20:40Z</time>
      </trkpt>
      <trkpt lat="45.95161" lon="4.86434">
        <ele>268</ele>
        <time>2017-03-15T11:20:41Z</time>
      </trkpt>
      <trkpt lat="45.95157" lon="4.86428">
        <ele>268</ele>
        <time>2017-03-15T11:20:42Z</time>
      </trkpt>
      <trkpt lat="45.95152" lon="4.86423">
        <ele>268</ele>
        <time>2017-03-15T11:20:43Z</time>
      </trkpt>
      <trkpt lat="45.95148" lon="4.86418">
        <ele>268</ele>
        <time>2017-03-15T11:20:44Z</time>
      </trkpt>
      <trkpt lat="45.95143" lon="4.86413">
        <ele>268</ele>
        <time>2017-03-15T11:20:45Z</time>
      </trkpt>
      <trkpt lat="45.9514" lon="4.86408">
        <ele>268</ele>
        <time>2017-03-15T11:20:46Z</time>
      </trkpt>
      <trkpt lat="45.95136" lon="4.86402">
        <ele>268</ele>
        <time>2017-03-15T11:20:47Z</time>
      </trkpt>
      <trkpt lat="45.95131" lon="4.86397">
        <ele>268</ele>
        <time>2017-03-15T11:20:48Z</time>
      </trkpt>
      <trkpt lat="45.95127" lon="4.86392">
        <ele>268</ele>
        <time>2017-03-15T11:20:49Z</time>
      </trkpt>
      <trkpt lat="45.95123" lon="4.86388">
        <ele>269</ele>
        <time>2017-03-15T11:20:50Z</time>
      </trkpt>
      <trkpt lat="45.95119" lon="4.86383">
        <ele>269</ele>
        <time>2017-03-15T11:20:51Z</time>
      </trkpt>
      <trkpt lat="45.95116" lon="4.86378">
        <ele>269</ele>
        <time>2017-03-15T11:20:52Z</time>
      </trkpt>
      <trkpt lat="45.95113" lon="4.86373">
        <ele>269</ele>
        <time>2017-03-15T11:20:53Z</time>
      </trkpt>
      <trkpt lat="45.95109" lon="4.86369">
        <ele>269</ele>
        <time>2017-03-15T11:20:54Z</time>
      </trkpt>
      <trkpt lat="45.95104" lon="4.86364">
        <ele>269</ele>
        <time>2017-03-15T11:20:55Z</time>
      </trkpt>
      <trkpt lat="45.95101" lon="4.86359">
        <ele>269</ele>
        <time>2017-03-15T11:20:56Z</time>
      </trkpt>
      <trkpt lat="45.95097" lon="4.86353">
        <ele>269</ele>
        <time>2017-03-15T11:20:57Z</time>
      </trkpt>
      <trkpt lat="45.95093" lon="4.86348">
        <ele>269</ele>
        <time>2017-03-15T11:20:58Z</time>
      </trkpt>
      <trkpt lat="45.95089" lon="4.86343">
        <ele>269</ele>
        <time>2017-03-15T11:20:59Z</time>
      </trkpt>
      <trkpt lat="45.95084" lon="4.86338">
        <ele>269</ele>
        <time>2017-03-15T11:21:00Z</time>
      </trkpt>
      <trkpt lat="45.9508" lon="4.86333">
        <ele>269</ele>
        <time>2017-03-15T11:21:01Z</time>
      </trkpt>
      <trkpt lat="45.95076" lon="4.86328">
        <ele>270</ele>
        <time>2017-03-15T11:21:02Z</time>
      </trkpt>
      <trkpt lat="45.95072" lon="4.86323">
        <ele>270</ele>
        <time>2017-03-15T11:21:03Z</time>
      </trkpt>
      <trkpt lat="45.95068" lon="4.86318">
        <ele>270</ele>
        <time>2017-03-15T11:21:04Z</time>
      </trkpt>
      <trkpt lat="45.95064" lon="4.86313">
        <ele>270</ele>
        <time>2017-03-15T11:21:05Z</time>
      </trkpt>
      <trkpt lat="45.9506" lon="4.86309">
        <ele>271</ele>
        <time>2017-03-15T11:21:06Z</time>
      </trkpt>
      <trkpt lat="45.95056" lon="4.86304">
        <ele>271</ele>
        <time>2017-03-15T11:21:07Z</time>
      </trkpt>
      <trkpt lat="45.95052" lon="4.86299">
        <ele>271</ele>
        <time>2017-03-15T11:21:08Z</time>
      </trkpt>
      <trkpt lat="45.95048" lon="4.86294">
        <ele>271</ele>
        <time>2017-03-15T11:21:09Z</time>
      </trkpt>
      <trkpt lat="45.95044" lon="4.86289">
        <ele>271</ele>
        <time>2017-03-15T11:21:10Z</time>
      </trkpt>
      <trkpt lat="45.9504" lon="4.86284">
        <ele>271</ele>
        <time>2017-03-15T11:21:11Z</time>
      </trkpt>
      <trkpt lat="45.95035" lon="4.86279">
        <ele>271</ele>
        <time>2017-03-15T11:21:12Z</time>
      </trkpt>
      <trkpt lat="45.95031" lon="4.86273">
        <ele>271</ele>
        <time>2017-03-15T11:21:13Z</time>
      </trkpt>
      <trkpt lat="45.95027" lon="4.86269">
        <ele>271</ele>
        <time>2017-03-15T11:21:14Z</time>
      </trkpt>
      <trkpt lat="45.95023" lon="4.86264">
        <ele>271</ele>
        <time>2017-03-15T11:21:15Z</time>
      </trkpt>
      <trkpt lat="45.95019" lon="4.86259">
        <ele>271</ele>
        <time>2017-03-15T11:21:16Z</time>
      </trkpt>
      <trkpt lat="45.95014" lon="4.86253">
        <ele>272</ele>
        <time>2017-03-15T11:21:17Z</time>
      </trkpt>
      <trkpt lat="45.9501" lon="4.86249">
        <ele>272</ele>
        <time>2017-03-15T11:21:18Z</time>
      </trkpt>
      <trkpt lat="45.95006" lon="4.86244">
        <ele>272</ele>
        <time>2017-03-15T11:21:19Z</time>
      </trkpt>
      <trkpt lat="45.95002" lon="4.86239">
        <ele>272</ele>
        <time>2017-03-15T11:21:20Z</time>
      </trkpt>
      <trkpt lat="45.94998" lon="4.86234">
        <ele>272</ele>
        <time>2017-03-15T11:21:21Z</time>
      </trkpt>
      <trkpt lat="45.94994" lon="4.86229">
        <ele>272</ele>
        <time>2017-03-15T11:21:22Z</time>
      </trkpt>
      <trkpt lat="45.9499" lon="4.86225">
        <ele>272</ele>
        <time>2017-03-15T11:21:23Z</time>
      </trkpt>
      <trkpt lat="45.94985" lon="4.86219">
        <ele>272</ele>
        <time>2017-03-15T11:21:24Z</time>
      </trkpt>
      <trkpt lat="45.94982" lon="4.86215">
        <ele>272</ele>
        <time>2017-03-15T11:21:25Z</time>
      </trkpt>
      <trkpt lat="45.94978" lon="4.86211">
        <ele>272</ele>
        <time>2017-03-15T11:21:26Z</time>
      </trkpt>
      <trkpt lat="45.94975" lon="4.86207">
        <ele>272</ele>
        <time>2017-03-15T11:21:27Z</time>
      </trkpt>
      <trkpt lat="45.94971" lon="4.86202">
        <ele>272</ele>
        <time>2017-03-15T11:21:28Z</time>
      </trkpt>
      <trkpt lat="45.94968" lon="4.86198">
        <ele>272</ele>
        <time>2017-03-15T11:21:29Z</time>
      </trkpt>
      <trkpt lat="45.94965" lon="4.86193">
        <ele>272</ele>
        <time>2017-03-15T11:21:30Z</time>
      </trkpt>
      <trkpt lat="45.94961" lon="4.86188">
        <ele>272</ele>
        <time>2017-03-15T11:21:31Z</time>
      </trkpt>
      <trkpt lat="45.94958" lon="4.86184">
        <ele>273</ele>
        <time>2017-03-15T11:21:32Z</time>
      </trkpt>
      <trkpt lat="45.94954" lon="4.86179">
        <ele>273</ele>
        <time>2017-03-15T11:21:33Z</time>
      </trkpt>
      <trkpt lat="45.94951" lon="4.86175">
        <ele>273</ele>
        <time>2017-03-15T11:21:34Z</time>
      </trkpt>
      <trkpt lat="45.94947" lon="4.8617">
        <ele>273</ele>
        <time>2017-03-15T11:21:35Z</time>
      </trkpt>
      <trkpt lat="45.94943" lon="4.86166">
        <ele>273</ele>
        <time>2017-03-15T11:21:36Z</time>
      </trkpt>
      <trkpt lat="45.94937" lon="4.86158">
        <ele>273</ele>
        <time>2017-03-15T11:21:38Z</time>
      </trkpt>
      <trkpt lat="45.94933" lon="4.86154">
        <ele>273</ele>
        <time>2017-03-15T11:21:39Z</time>
      </trkpt>
      <trkpt lat="45.9493" lon="4.86149">
        <ele>273</ele>
        <time>2017-03-15T11:21:40Z</time>
      </trkpt>
      <trkpt lat="45.94926" lon="4.86144">
        <ele>273</ele>
        <time>2017-03-15T11:21:41Z</time>
      </trkpt>
      <trkpt lat="45.94922" lon="4.86139">
        <ele>273</ele>
        <time>2017-03-15T11:21:42Z</time>
      </trkpt>
      <trkpt lat="45.94919" lon="4.86133">
        <ele>273</ele>
        <time>2017-03-15T11:21:43Z</time>
      </trkpt>
      <trkpt lat="45.94916" lon="4.86127">
        <ele>274</ele>
        <time>2017-03-15T11:21:44Z</time>
      </trkpt>
      <trkpt lat="45.94913" lon="4.86121">
        <ele>274</ele>
        <time>2017-03-15T11:21:45Z</time>
      </trkpt>
      <trkpt lat="45.9491" lon="4.86114">
        <ele>274</ele>
        <time>2017-03-15T11:21:46Z</time>
      </trkpt>
      <trkpt lat="45.94907" lon="4.86108">
        <ele>274</ele>
        <time>2017-03-15T11:21:47Z</time>
      </trkpt>
      <trkpt lat="45.94904" lon="4.86102">
        <ele>274</ele>
        <time>2017-03-15T11:21:48Z</time>
      </trkpt>
      <trkpt lat="45.94902" lon="4.86095">
        <ele>274</ele>
        <time>2017-03-15T11:21:49Z</time>
      </trkpt>
      <trkpt lat="45.94899" lon="4.86089">
        <ele>274</ele>
        <time>2017-03-15T11:21:50Z</time>
      </trkpt>
      <trkpt lat="45.94897" lon="4.86083">
        <ele>274</ele>
        <time>2017-03-15T11:21:51Z</time>
      </trkpt>
      <trkpt lat="45.94895" lon="4.86076">
        <ele>274</ele>
        <time>2017-03-15T11:21:52Z</time>
      </trkpt>
      <trkpt lat="45.94893" lon="4.86069">
        <ele>274</ele>
        <time>2017-03-15T11:21:53Z</time>
      </trkpt>
      <trkpt lat="45.94891" lon="4.86063">
        <ele>274</ele>
        <time>2017-03-15T11:21:54Z</time>
      </trkpt>
      <trkpt lat="45.94889" lon="4.86056">
        <ele>274</ele>
        <time>2017-03-15T11:21:55Z</time>
      </trkpt>
      <trkpt lat="45.94887" lon="4.86049">
        <ele>274</ele>
        <time>2017-03-15T11:21:56Z</time>
      </trkpt>
      <trkpt lat="45.94885" lon="4.86042">
        <ele>274</ele>
        <time>2017-03-15T11:21:57Z</time>
      </trkpt>
      <trkpt lat="45.94884" lon="4.86035">
        <ele>274</ele>
        <time>2017-03-15T11:21:58Z</time>
      </trkpt>
      <trkpt lat="45.94882" lon="4.86028">
        <ele>274</ele>
        <time>2017-03-15T11:21:59Z</time>
      </trkpt>
      <trkpt lat="45.9488" lon="4.86021">
        <ele>274</ele>
        <time>2017-03-15T11:22:00Z</time>
      </trkpt>
      <trkpt lat="45.94878" lon="4.86014">
        <ele>274</ele>
        <time>2017-03-15T11:22:01Z</time>
      </trkpt>
      <trkpt lat="45.94876" lon="4.86007">
        <ele>274</ele>
        <time>2017-03-15T11:22:02Z</time>
      </trkpt>
      <trkpt lat="45.94874" lon="4.86">
        <ele>275</ele>
        <time>2017-03-15T11:22:03Z</time>
      </trkpt>
      <trkpt lat="45.94872" lon="4.85993">
        <ele>275</ele>
        <time>2017-03-15T11:22:04Z</time>
      </trkpt>
      <trkpt lat="45.94871" lon="4.85986">
        <ele>275</ele>
        <time>2017-03-15T11:22:05Z</time>
      </trkpt>
      <trkpt lat="45.94869" lon="4.85979">
        <ele>275</ele>
        <time>2017-03-15T11:22:06Z</time>
      </trkpt>
      <trkpt lat="45.94867" lon="4.85972">
        <ele>275</ele>
        <time>2017-03-15T11:22:07Z</time>
      </trkpt>
      <trkpt lat="45.94865" lon="4.85965">
        <ele>275</ele>
        <time>2017-03-15T11:22:08Z</time>
      </trkpt>
      <trkpt lat="45.94864" lon="4.85958">
        <ele>275</ele>
        <time>2017-03-15T11:22:09Z</time>
      </trkpt>
      <trkpt lat="45.94862" lon="4.85951">
        <ele>275</ele>
        <time>2017-03-15T11:22:10Z</time>
      </trkpt>
      <trkpt lat="45.9486" lon="4.85945">
        <ele>275</ele>
        <time>2017-03-15T11:22:11Z</time>
      </trkpt>
      <trkpt lat="45.94858" lon="4.85938">
        <ele>275</ele>
        <time>2017-03-15T11:22:12Z</time>
      </trkpt>
      <trkpt lat="45.94857" lon="4.85931">
        <ele>275</ele>
        <time>2017-03-15T11:22:13Z</time>
      </trkpt>
      <trkpt lat="45.94855" lon="4.85925">
        <ele>275</ele>
        <time>2017-03-15T11:22:14Z</time>
      </trkpt>
      <trkpt lat="45.94853" lon="4.85919">
        <ele>275</ele>
        <time>2017-03-15T11:22:15Z</time>
      </trkpt>
      <trkpt lat="45.94851" lon="4.85913">
        <ele>275</ele>
        <time>2017-03-15T11:22:16Z</time>
      </trkpt>
      <trkpt lat="45.9485" lon="4.85906">
        <ele>276</ele>
        <time>2017-03-15T11:22:17Z</time>
      </trkpt>
      <trkpt lat="45.94848" lon="4.859">
        <ele>276</ele>
        <time>2017-03-15T11:22:18Z</time>
      </trkpt>
      <trkpt lat="45.94846" lon="4.85894">
        <ele>276</ele>
        <time>2017-03-15T11:22:19Z</time>
      </trkpt>
      <trkpt lat="45.94844" lon="4.85888">
        <ele>276</ele>
        <time>2017-03-15T11:22:20Z</time>
      </trkpt>
      <trkpt lat="45.94842" lon="4.85881">
        <ele>276</ele>
        <time>2017-03-15T11:22:21Z</time>
      </trkpt>
      <trkpt lat="45.9484" lon="4.85874">
        <ele>276</ele>
        <time>2017-03-15T11:22:22Z</time>
      </trkpt>
      <trkpt lat="45.94838" lon="4.85867">
        <ele>276</ele>
        <time>2017-03-15T11:22:23Z</time>
      </trkpt>
      <trkpt lat="45.94836" lon="4.8586">
        <ele>276</ele>
        <time>2017-03-15T11:22:24Z</time>
      </trkpt>
      <trkpt lat="45.94834" lon="4.85852">
        <ele>276</ele>
        <time>2017-03-15T11:22:25Z</time>
      </trkpt>
      <trkpt lat="45.94833" lon="4.85845">
        <ele>277</ele>
        <time>2017-03-15T11:22:26Z</time>
      </trkpt>
      <trkpt lat="45.94831" lon="4.85837">
        <ele>277</ele>
        <time>2017-03-15T11:22:27Z</time>
      </trkpt>
      <trkpt lat="45.9483" lon="4.8583">
        <ele>277</ele>
        <time>2017-03-15T11:22:28Z</time>
      </trkpt>
      <trkpt lat="45.94828" lon="4.85823">
        <ele>277</ele>
        <time>2017-03-15T11:22:29Z</time>
      </trkpt>
      <trkpt lat="45.94826" lon="4.85816">
        <ele>278</ele>
        <time>2017-03-15T11:22:30Z</time>
      </trkpt>
      <trkpt lat="45.94825" lon="4.85809">
        <ele>278</ele>
        <time>2017-03-15T11:22:31Z</time>
      </trkpt>
      <trkpt lat="45.94823" lon="4.85802">
        <ele>278</ele>
        <time>2017-03-15T11:22:32Z</time>
      </trkpt>
      <trkpt lat="45.94821" lon="4.85795">
        <ele>278</ele>
        <time>2017-03-15T11:22:33Z</time>
      </trkpt>
      <trkpt lat="45.94819" lon="4.85787">
        <ele>278</ele>
        <time>2017-03-15T11:22:34Z</time>
      </trkpt>
      <trkpt lat="45.94818" lon="4.8578">
        <ele>278</ele>
        <time>2017-03-15T11:22:35Z</time>
      </trkpt>
      <trkpt lat="45.94816" lon="4.85773">
        <ele>278</ele>
        <time>2017-03-15T11:22:36Z</time>
      </trkpt>
      <trkpt lat="45.94815" lon="4.85767">
        <ele>278</ele>
        <time>2017-03-15T11:22:37Z</time>
      </trkpt>
      <trkpt lat="45.94813" lon="4.8576">
        <ele>278</ele>
        <time>2017-03-15T11:22:38Z</time>
      </trkpt>
      <trkpt lat="45.94811" lon="4.85754">
        <ele>278</ele>
        <time>2017-03-15T11:22:39Z</time>
      </trkpt>
      <trkpt lat="45.94809" lon="4.85748">
        <ele>279</ele>
        <time>2017-03-15T11:22:40Z</time>
      </trkpt>
      <trkpt lat="45.94808" lon="4.85742">
        <ele>279</ele>
        <time>2017-03-15T11:22:41Z</time>
      </trkpt>
      <trkpt lat="45.94806" lon="4.85735">
        <ele>279</ele>
        <time>2017-03-15T11:22:42Z</time>
      </trkpt>
      <trkpt lat="45.94805" lon="4.85728">
        <ele>280</ele>
        <time>2017-03-15T11:22:43Z</time>
      </trkpt>
      <trkpt lat="45.94803" lon="4.85721">
        <ele>280</ele>
        <time>2017-03-15T11:22:44Z</time>
      </trkpt>
      <trkpt lat="45.94801" lon="4.85714">
        <ele>280</ele>
        <time>2017-03-15T11:22:45Z</time>
      </trkpt>
      <trkpt lat="45.948" lon="4.85708">
        <ele>280</ele>
        <time>2017-03-15T11:22:46Z</time>
      </trkpt>
      <trkpt lat="45.94798" lon="4.85701">
        <ele>280</ele>
        <time>2017-03-15T11:22:47Z</time>
      </trkpt>
      <trkpt lat="45.94796" lon="4.85694">
        <ele>280</ele>
        <time>2017-03-15T11:22:48Z</time>
      </trkpt>
      <trkpt lat="45.94794" lon="4.85687">
        <ele>280</ele>
        <time>2017-03-15T11:22:49Z</time>
      </trkpt>
      <trkpt lat="45.94793" lon="4.85681">
        <ele>280</ele>
        <time>2017-03-15T11:22:50Z</time>
      </trkpt>
      <trkpt lat="45.94791" lon="4.85674">
        <ele>280</ele>
        <time>2017-03-15T11:22:51Z</time>
      </trkpt>
      <trkpt lat="45.94789" lon="4.85668">
        <ele>280</ele>
        <time>2017-03-15T11:22:52Z</time>
      </trkpt>
      <trkpt lat="45.94787" lon="4.85661">
        <ele>281</ele>
        <time>2017-03-15T11:22:53Z</time>
      </trkpt>
      <trkpt lat="45.94785" lon="4.85654">
        <ele>281</ele>
        <time>2017-03-15T11:22:54Z</time>
      </trkpt>
      <trkpt lat="45.94783" lon="4.85647">
        <ele>281</ele>
        <time>2017-03-15T11:22:55Z</time>
      </trkpt>
      <trkpt lat="45.94781" lon="4.8564">
        <ele>281</ele>
        <time>2017-03-15T11:22:56Z</time>
      </trkpt>
      <trkpt lat="45.94779" lon="4.85633">
        <ele>280</ele>
        <time>2017-03-15T11:22:57Z</time>
      </trkpt>
      <trkpt lat="45.94777" lon="4.85626">
        <ele>280</ele>
        <time>2017-03-15T11:22:58Z</time>
      </trkpt>
      <trkpt lat="45.94776" lon="4.85618">
        <ele>280</ele>
        <time>2017-03-15T11:22:59Z</time>
      </trkpt>
      <trkpt lat="45.94774" lon="4.85611">
        <ele>280</ele>
        <time>2017-03-15T11:23:00Z</time>
      </trkpt>
      <trkpt lat="45.94772" lon="4.85603">
        <ele>280</ele>
        <time>2017-03-15T11:23:01Z</time>
      </trkpt>
      <trkpt lat="45.9477" lon="4.85594">
        <ele>280</ele>
        <time>2017-03-15T11:23:02Z</time>
      </trkpt>
      <trkpt lat="45.94769" lon="4.85586">
        <ele>280</ele>
        <time>2017-03-15T11:23:03Z</time>
      </trkpt>
      <trkpt lat="45.94767" lon="4.85577">
        <ele>279</ele>
        <time>2017-03-15T11:23:04Z</time>
      </trkpt>
      <trkpt lat="45.94766" lon="4.85568">
        <ele>279</ele>
        <time>2017-03-15T11:23:05Z</time>
      </trkpt>
      <trkpt lat="45.94764" lon="4.85558">
        <ele>278</ele>
        <time>2017-03-15T11:23:06Z</time>
      </trkpt>
      <trkpt lat="45.94762" lon="4.85548">
        <ele>278</ele>
        <time>2017-03-15T11:23:07Z</time>
      </trkpt>
      <trkpt lat="45.94761" lon="4.85538">
        <ele>278</ele>
        <time>2017-03-15T11:23:08Z</time>
      </trkpt>
      <trkpt lat="45.94759" lon="4.85527">
        <ele>278</ele>
        <time>2017-03-15T11:23:09Z</time>
      </trkpt>
      <trkpt lat="45.94757" lon="4.85516">
        <ele>277</ele>
        <time>2017-03-15T11:23:10Z</time>
      </trkpt>
      <trkpt lat="45.94756" lon="4.85505">
        <ele>277</ele>
        <time>2017-03-15T11:23:11Z</time>
      </trkpt>
      <trkpt lat="45.94754" lon="4.85494">
        <ele>276</ele>
        <time>2017-03-15T11:23:12Z</time>
      </trkpt>
      <trkpt lat="45.94752" lon="4.85482">
        <ele>275</ele>
        <time>2017-03-15T11:23:13Z</time>
      </trkpt>
      <trkpt lat="45.94751" lon="4.8547">
        <ele>275</ele>
        <time>2017-03-15T11:23:14Z</time>
      </trkpt>
      <trkpt lat="45.94749" lon="4.85458">
        <ele>274</ele>
        <time>2017-03-15T11:23:15Z</time>
      </trkpt>
      <trkpt lat="45.94748" lon="4.85445">
        <ele>274</ele>
        <time>2017-03-15T11:23:16Z</time>
      </trkpt>
      <trkpt lat="45.94747" lon="4.85433">
        <ele>273</ele>
        <time>2017-03-15T11:23:17Z</time>
      </trkpt>
      <trkpt lat="45.94745" lon="4.85421">
        <ele>273</ele>
        <time>2017-03-15T11:23:18Z</time>
      </trkpt>
      <trkpt lat="45.94743" lon="4.85409">
        <ele>272</ele>
        <time>2017-03-15T11:23:19Z</time>
      </trkpt>
      <trkpt lat="45.94741" lon="4.85396">
        <ele>272</ele>
        <time>2017-03-15T11:23:20Z</time>
      </trkpt>
      <trkpt lat="45.9474" lon="4.85384">
        <ele>272</ele>
        <time>2017-03-15T11:23:21Z</time>
      </trkpt>
      <trkpt lat="45.94739" lon="4.85372">
        <ele>271</ele>
        <time>2017-03-15T11:23:22Z</time>
      </trkpt>
      <trkpt lat="45.94738" lon="4.85361">
        <ele>271</ele>
        <time>2017-03-15T11:23:23Z</time>
      </trkpt>
      <trkpt lat="45.94737" lon="4.85349">
        <ele>271</ele>
        <time>2017-03-15T11:23:24Z</time>
      </trkpt>
      <trkpt lat="45.94735" lon="4.85338">
        <ele>271</ele>
        <time>2017-03-15T11:23:25Z</time>
      </trkpt>
      <trkpt lat="45.94734" lon="4.85327">
        <ele>270</ele>
        <time>2017-03-15T11:23:26Z</time>
      </trkpt>
      <trkpt lat="45.94733" lon="4.85317">
        <ele>270</ele>
        <time>2017-03-15T11:23:27Z</time>
      </trkpt>
      <trkpt lat="45.94733" lon="4.85306">
        <ele>270</ele>
        <time>2017-03-15T11:23:28Z</time>
      </trkpt>
      <trkpt lat="45.94732" lon="4.85296">
        <ele>270</ele>
        <time>2017-03-15T11:23:29Z</time>
      </trkpt>
      <trkpt lat="45.94731" lon="4.85286">
        <ele>269</ele>
        <time>2017-03-15T11:23:30Z</time>
      </trkpt>
      <trkpt lat="45.94731" lon="4.85276">
        <ele>269</ele>
        <time>2017-03-15T11:23:31Z</time>
      </trkpt>
      <trkpt lat="45.9473" lon="4.85267">
        <ele>269</ele>
        <time>2017-03-15T11:23:32Z</time>
      </trkpt>
      <trkpt lat="45.94729" lon="4.85258">
        <ele>269</ele>
        <time>2017-03-15T11:23:33Z</time>
      </trkpt>
      <trkpt lat="45.94729" lon="4.85249">
        <ele>269</ele>
        <time>2017-03-15T11:23:34Z</time>
      </trkpt>
      <trkpt lat="45.94728" lon="4.8524">
        <ele>269</ele>
        <time>2017-03-15T11:23:35Z</time>
      </trkpt>
      <trkpt lat="45.94728" lon="4.85231">
        <ele>269</ele>
        <time>2017-03-15T11:23:36Z</time>
      </trkpt>
      <trkpt lat="45.94727" lon="4.85222">
        <ele>269</ele>
        <time>2017-03-15T11:23:37Z</time>
      </trkpt>
      <trkpt lat="45.94726" lon="4.85213">
        <ele>269</ele>
        <time>2017-03-15T11:23:38Z</time>
      </trkpt>
      <trkpt lat="45.94725" lon="4.85204">
        <ele>269</ele>
        <time>2017-03-15T11:23:39Z</time>
      </trkpt>
      <trkpt lat="45.94724" lon="4.85195">
        <ele>269</ele>
        <time>2017-03-15T11:23:40Z</time>
      </trkpt>
      <trkpt lat="45.94723" lon="4.85186">
        <ele>269</ele>
        <time>2017-03-15T11:23:41Z</time>
      </trkpt>
      <trkpt lat="45.94722" lon="4.85177">
        <ele>269</ele>
        <time>2017-03-15T11:23:42Z</time>
      </trkpt>
      <trkpt lat="45.94721" lon="4.85168">
        <ele>269</ele>
        <time>2017-03-15T11:23:43Z</time>
      </trkpt>
      <trkpt lat="45.9472" lon="4.85159">
        <ele>269</ele>
        <time>2017-03-15T11:23:44Z</time>
      </trkpt>
      <trkpt lat="45.9472" lon="4.85149">
        <ele>269</ele>
        <time>2017-03-15T11:23:45Z</time>
      </trkpt>
      <trkpt lat="45.94719" lon="4.8514">
        <ele>269</ele>
        <time>2017-03-15T11:23:46Z</time>
      </trkpt>
      <trkpt lat="45.94718" lon="4.85131">
        <ele>269</ele>
        <time>2017-03-15T11:23:47Z</time>
      </trkpt>
      <trkpt lat="45.94717" lon="4.85122">
        <ele>269</ele>
        <time>2017-03-15T11:23:48Z</time>
      </trkpt>
      <trkpt lat="45.94716" lon="4.85112">
        <ele>269</ele>
        <time>2017-03-15T11:23:49Z</time>
      </trkpt>
      <trkpt lat="45.94715" lon="4.85103">
        <ele>269</ele>
        <time>2017-03-15T11:23:50Z</time>
      </trkpt>
      <trkpt lat="45.94713" lon="4.85093">
        <ele>269</ele>
        <time>2017-03-15T11:23:51Z</time>
      </trkpt>
      <trkpt lat="45.94712" lon="4.85084">
        <ele>269</ele>
        <time>2017-03-15T11:23:52Z</time>
      </trkpt>
      <trkpt lat="45.9471" lon="4.85074">
        <ele>269</ele>
        <time>2017-03-15T11:23:53Z</time>
      </trkpt>
      <trkpt lat="45.94707" lon="4.85065">
        <ele>269</ele>
        <time>2017-03-15T11:23:54Z</time>
      </trkpt>
      <trkpt lat="45.94706" lon="4.85055">
        <ele>269</ele>
        <time>2017-03-15T11:23:55Z</time>
      </trkpt>
      <trkpt lat="45.94705" lon="4.85045">
        <ele>269</ele>
        <time>2017-03-15T11:23:56Z</time>
      </trkpt>
      <trkpt lat="45.94704" lon="4.85036">
        <ele>269</ele>
        <time>2017-03-15T11:23:57Z</time>
      </trkpt>
      <trkpt lat="45.94703" lon="4.85027">
        <ele>269</ele>
        <time>2017-03-15T11:23:58Z</time>
      </trkpt>
      <trkpt lat="45.94703" lon="4.85019">
        <ele>269</ele>
        <time>2017-03-15T11:23:59Z</time>
      </trkpt>
      <trkpt lat="45.94703" lon="4.8501">
        <ele>269</ele>
        <time>2017-03-15T11:24:00Z</time>
      </trkpt>
      <trkpt lat="45.94702" lon="4.85002">
        <ele>269</ele>
        <time>2017-03-15T11:24:01Z</time>
      </trkpt>
      <trkpt lat="45.94701" lon="4.84993">
        <ele>269</ele>
        <time>2017-03-15T11:24:02Z</time>
      </trkpt>
      <trkpt lat="45.94701" lon="4.84984">
        <ele>269</ele>
        <time>2017-03-15T11:24:03Z</time>
      </trkpt>
      <trkpt lat="45.947" lon="4.84976">
        <ele>269</ele>
        <time>2017-03-15T11:24:04Z</time>
      </trkpt>
      <trkpt lat="45.94698" lon="4.84967">
        <ele>269</ele>
        <time>2017-03-15T11:24:05Z</time>
      </trkpt>
      <trkpt lat="45.94698" lon="4.84958">
        <ele>269</ele>
        <time>2017-03-15T11:24:06Z</time>
      </trkpt>
      <trkpt lat="45.94697" lon="4.8495">
        <ele>269</ele>
        <time>2017-03-15T11:24:07Z</time>
      </trkpt>
      <trkpt lat="45.94696" lon="4.84941">
        <ele>269</ele>
        <time>2017-03-15T11:24:08Z</time>
      </trkpt>
      <trkpt lat="45.94694" lon="4.84932">
        <ele>269</ele>
        <time>2017-03-15T11:24:09Z</time>
      </trkpt>
      <trkpt lat="45.94692" lon="4.84923">
        <ele>269</ele>
        <time>2017-03-15T11:24:10Z</time>
      </trkpt>
      <trkpt lat="45.94691" lon="4.84914">
        <ele>269</ele>
        <time>2017-03-15T11:24:11Z</time>
      </trkpt>
      <trkpt lat="45.94691" lon="4.84905">
        <ele>268</ele>
        <time>2017-03-15T11:24:12Z</time>
      </trkpt>
      <trkpt lat="45.9469" lon="4.84896">
        <ele>268</ele>
        <time>2017-03-15T11:24:13Z</time>
      </trkpt>
      <trkpt lat="45.94689" lon="4.84887">
        <ele>268</ele>
        <time>2017-03-15T11:24:14Z</time>
      </trkpt>
      <trkpt lat="45.94688" lon="4.84878">
        <ele>268</ele>
        <time>2017-03-15T11:24:15Z</time>
      </trkpt>
      <trkpt lat="45.94687" lon="4.84868">
        <ele>268</ele>
        <time>2017-03-15T11:24:16Z</time>
      </trkpt>
      <trkpt lat="45.94686" lon="4.84859">
        <ele>268</ele>
        <time>2017-03-15T11:24:17Z</time>
      </trkpt>
      <trkpt lat="45.94685" lon="4.8485">
        <ele>268</ele>
        <time>2017-03-15T11:24:18Z</time>
      </trkpt>
      <trkpt lat="45.94684" lon="4.84841">
        <ele>268</ele>
        <time>2017-03-15T11:24:19Z</time>
      </trkpt>
      <trkpt lat="45.94684" lon="4.84832">
        <ele>268</ele>
        <time>2017-03-15T11:24:20Z</time>
      </trkpt>
      <trkpt lat="45.94683" lon="4.84823">
        <ele>268</ele>
        <time>2017-03-15T11:24:21Z</time>
      </trkpt>
      <trkpt lat="45.94683" lon="4.84814">
        <ele>268</ele>
        <time>2017-03-15T11:24:22Z</time>
      </trkpt>
      <trkpt lat="45.94682" lon="4.84806">
        <ele>268</ele>
        <time>2017-03-15T11:24:23Z</time>
      </trkpt>
      <trkpt lat="45.94682" lon="4.84797">
        <ele>268</ele>
        <time>2017-03-15T11:24:24Z</time>
      </trkpt>
      <trkpt lat="45.9468" lon="4.84788">
        <ele>269</ele>
        <time>2017-03-15T11:24:25Z</time>
      </trkpt>
      <trkpt lat="45.94679" lon="4.84779">
        <ele>269</ele>
        <time>2017-03-15T11:24:26Z</time>
      </trkpt>
      <trkpt lat="45.94679" lon="4.8477">
        <ele>269</ele>
        <time>2017-03-15T11:24:27Z</time>
      </trkpt>
      <trkpt lat="45.94678" lon="4.84761">
        <ele>269</ele>
        <time>2017-03-15T11:24:28Z</time>
      </trkpt>
      <trkpt lat="45.94678" lon="4.84751">
        <ele>269</ele>
        <time>2017-03-15T11:24:29Z</time>
      </trkpt>
      <trkpt lat="45.94677" lon="4.84743">
        <ele>269</ele>
        <time>2017-03-15T11:24:30Z</time>
      </trkpt>
      <trkpt lat="45.94676" lon="4.84734">
        <ele>269</ele>
        <time>2017-03-15T11:24:31Z</time>
      </trkpt>
      <trkpt lat="45.94676" lon="4.84725">
        <ele>269</ele>
        <time>2017-03-15T11:24:32Z</time>
      </trkpt>
      <trkpt lat="45.94675" lon="4.84716">
        <ele>269</ele>
        <time>2017-03-15T11:24:33Z</time>
      </trkpt>
      <trkpt lat="45.94675" lon="4.84707">
        <ele>269</ele>
        <time>2017-03-15T11:24:34Z</time>
      </trkpt>
      <trkpt lat="45.94674" lon="4.84698">
        <ele>269</ele>
        <time>2017-03-15T11:24:35Z</time>
      </trkpt>
      <trkpt lat="45.94674" lon="4.84689">
        <ele>269</ele>
        <time>2017-03-15T11:24:36Z</time>
      </trkpt>
      <trkpt lat="45.94674" lon="4.8468">
        <ele>269</ele>
        <time>2017-03-15T11:24:37Z</time>
      </trkpt>
      <trkpt lat="45.94674" lon="4.84671">
        <ele>269</ele>
        <time>2017-03-15T11:24:38Z</time>
      </trkpt>
      <trkpt lat="45.94674" lon="4.84662">
        <ele>269</ele>
        <time>2017-03-15T11:24:39Z</time>
      </trkpt>
      <trkpt lat="45.94674" lon="4.84653">
        <ele>268</ele>
        <time>2017-03-15T11:24:40Z</time>
      </trkpt>
      <trkpt lat="45.94674" lon="4.84644">
        <ele>268</ele>
        <time>2017-03-15T11:24:41Z</time>
      </trkpt>
      <trkpt lat="45.94674" lon="4.84635">
        <ele>268</ele>
        <time>2017-03-15T11:24:42Z</time>
      </trkpt>
      <trkpt lat="45.94674" lon="4.84627">
        <ele>268</ele>
        <time>2017-03-15T11:24:43Z</time>
      </trkpt>
      <trkpt lat="45.94673" lon="4.84618">
        <ele>268</ele>
        <time>2017-03-15T11:24:44Z</time>
      </trkpt>
      <trkpt lat="45.94673" lon="4.84609">
        <ele>268</ele>
        <time>2017-03-15T11:24:45Z</time>
      </trkpt>
      <trkpt lat="45.94673" lon="4.846">
        <ele>268</ele>
        <time>2017-03-15T11:24:46Z</time>
      </trkpt>
      <trkpt lat="45.94673" lon="4.84592">
        <ele>268</ele>
        <time>2017-03-15T11:24:47Z</time>
      </trkpt>
      <trkpt lat="45.94672" lon="4.84583">
        <ele>268</ele>
        <time>2017-03-15T11:24:48Z</time>
      </trkpt>
      <trkpt lat="45.94672" lon="4.84575">
        <ele>268</ele>
        <time>2017-03-15T11:24:49Z</time>
      </trkpt>
      <trkpt lat="45.94671" lon="4.84566">
        <ele>268</ele>
        <time>2017-03-15T11:24:50Z</time>
      </trkpt>
      <trkpt lat="45.9467" lon="4.84557">
        <ele>268</ele>
        <time>2017-03-15T11:24:51Z</time>
      </trkpt>
      <trkpt lat="45.9467" lon="4.84548">
        <ele>268</ele>
        <time>2017-03-15T11:24:52Z</time>
      </trkpt>
      <trkpt lat="45.94669" lon="4.84539">
        <ele>268</ele>
        <time>2017-03-15T11:24:53Z</time>
      </trkpt>
      <trkpt lat="45.94668" lon="4.84529">
        <ele>268</ele>
        <time>2017-03-15T11:24:54Z</time>
      </trkpt>
      <trkpt lat="45.94667" lon="4.8452">
        <ele>268</ele>
        <time>2017-03-15T11:24:55Z</time>
      </trkpt>
      <trkpt lat="45.94665" lon="4.84511">
        <ele>268</ele>
        <time>2017-03-15T11:24:56Z</time>
      </trkpt>
      <trkpt lat="45.94663" lon="4.84502">
        <ele>268</ele>
        <time>2017-03-15T11:24:57Z</time>
      </trkpt>
      <trkpt lat="45.94662" lon="4.84494">
        <ele>268</ele>
        <time>2017-03-15T11:24:58Z</time>
      </trkpt>
      <trkpt lat="45.94662" lon="4.84485">
        <ele>268</ele>
        <time>2017-03-15T11:24:59Z</time>
      </trkpt>
      <trkpt lat="45.94661" lon="4.84478">
        <ele>268</ele>
        <time>2017-03-15T11:25:00Z</time>
      </trkpt>
      <trkpt lat="45.94661" lon="4.8447">
        <ele>268</ele>
        <time>2017-03-15T11:25:01Z</time>
      </trkpt>
      <trkpt lat="45.9466" lon="4.84462">
        <ele>268</ele>
        <time>2017-03-15T11:25:02Z</time>
      </trkpt>
      <trkpt lat="45.9466" lon="4.84453">
        <ele>268</ele>
        <time>2017-03-15T11:25:03Z</time>
      </trkpt>
      <trkpt lat="45.94659" lon="4.84445">
        <ele>268</ele>
        <time>2017-03-15T11:25:04Z</time>
      </trkpt>
      <trkpt lat="45.94658" lon="4.84438">
        <ele>268</ele>
        <time>2017-03-15T11:25:05Z</time>
      </trkpt>
      <trkpt lat="45.94657" lon="4.8443">
        <ele>268</ele>
        <time>2017-03-15T11:25:06Z</time>
      </trkpt>
      <trkpt lat="45.94656" lon="4.84422">
        <ele>268</ele>
        <time>2017-03-15T11:25:07Z</time>
      </trkpt>
      <trkpt lat="45.94655" lon="4.84414">
        <ele>268</ele>
        <time>2017-03-15T11:25:08Z</time>
      </trkpt>
      <trkpt lat="45.94654" lon="4.84406">
        <ele>268</ele>
        <time>2017-03-15T11:25:09Z</time>
      </trkpt>
      <trkpt lat="45.94654" lon="4.84398">
        <ele>268</ele>
        <time>2017-03-15T11:25:10Z</time>
      </trkpt>
      <trkpt lat="45.94652" lon="4.8439">
        <ele>268</ele>
        <time>2017-03-15T11:25:11Z</time>
      </trkpt>
      <trkpt lat="45.94652" lon="4.84382">
        <ele>268</ele>
        <time>2017-03-15T11:25:12Z</time>
      </trkpt>
      <trkpt lat="45.94651" lon="4.84374">
        <ele>268</ele>
        <time>2017-03-15T11:25:13Z</time>
      </trkpt>
      <trkpt lat="45.94649" lon="4.84366">
        <ele>268</ele>
        <time>2017-03-15T11:25:14Z</time>
      </trkpt>
      <trkpt lat="45.94648" lon="4.84358">
        <ele>268</ele>
        <time>2017-03-15T11:25:15Z</time>
      </trkpt>
      <trkpt lat="45.94646" lon="4.8435">
        <ele>268</ele>
        <time>2017-03-15T11:25:16Z</time>
      </trkpt>
      <trkpt lat="45.94645" lon="4.84341">
        <ele>268</ele>
        <time>2017-03-15T11:25:17Z</time>
      </trkpt>
      <trkpt lat="45.94644" lon="4.84333">
        <ele>268</ele>
        <time>2017-03-15T11:25:18Z</time>
      </trkpt>
      <trkpt lat="45.94643" lon="4.84324">
        <ele>268</ele>
        <time>2017-03-15T11:25:19Z</time>
      </trkpt>
      <trkpt lat="45.94642" lon="4.84316">
        <ele>269</ele>
        <time>2017-03-15T11:25:20Z</time>
      </trkpt>
      <trkpt lat="45.94641" lon="4.84307">
        <ele>269</ele>
        <time>2017-03-15T11:25:21Z</time>
      </trkpt>
      <trkpt lat="45.9464" lon="4.84298">
        <ele>269</ele>
        <time>2017-03-15T11:25:22Z</time>
      </trkpt>
      <trkpt lat="45.94639" lon="4.8429">
        <ele>269</ele>
        <time>2017-03-15T11:25:23Z</time>
      </trkpt>
      <trkpt lat="45.94637" lon="4.84282">
        <ele>269</ele>
        <time>2017-03-15T11:25:24Z</time>
      </trkpt>
      <trkpt lat="45.94636" lon="4.84274">
        <ele>269</ele>
        <time>2017-03-15T11:25:25Z</time>
      </trkpt>
      <trkpt lat="45.94636" lon="4.84266">
        <ele>269</ele>
        <time>2017-03-15T11:25:26Z</time>
      </trkpt>
      <trkpt lat="45.94635" lon="4.84258">
        <ele>269</ele>
        <time>2017-03-15T11:25:27Z</time>
      </trkpt>
      <trkpt lat="45.94634" lon="4.8425">
        <ele>269</ele>
        <time>2017-03-15T11:25:28Z</time>
      </trkpt>
      <trkpt lat="45.94633" lon="4.84241">
        <ele>269</ele>
        <time>2017-03-15T11:25:29Z</time>
      </trkpt>
      <trkpt lat="45.94632" lon="4.84233">
        <ele>269</ele>
        <time>2017-03-15T11:25:30Z</time>
      </trkpt>
      <trkpt lat="45.9463" lon="4.84224">
        <ele>269</ele>
        <time>2017-03-15T11:25:31Z</time>
      </trkpt>
      <trkpt lat="45.9463" lon="4.84216">
        <ele>269</ele>
        <time>2017-03-15T11:25:32Z</time>
      </trkpt>
      <trkpt lat="45.94629" lon="4.84208">
        <ele>269</ele>
        <time>2017-03-15T11:25:33Z</time>
      </trkpt>
      <trkpt lat="45.94627" lon="4.84199">
        <ele>269</ele>
        <time>2017-03-15T11:25:34Z</time>
      </trkpt>
      <trkpt lat="45.94626" lon="4.8419">
        <ele>269</ele>
        <time>2017-03-15T11:25:35Z</time>
      </trkpt>
      <trkpt lat="45.94624" lon="4.84181">
        <ele>269</ele>
        <time>2017-03-15T11:25:36Z</time>
      </trkpt>
      <trkpt lat="45.94622" lon="4.84172">
        <ele>269</ele>
        <time>2017-03-15T11:25:37Z</time>
      </trkpt>
      <trkpt lat="45.94621" lon="4.84163">
        <ele>269</ele>
        <time>2017-03-15T11:25:38Z</time>
      </trkpt>
      <trkpt lat="45.94619" lon="4.84155">
        <ele>269</ele>
        <time>2017-03-15T11:25:39Z</time>
      </trkpt>
      <trkpt lat="45.94618" lon="4.84147">
        <ele>269</ele>
        <time>2017-03-15T11:25:40Z</time>
      </trkpt>
      <trkpt lat="45.94617" lon="4.84139">
        <ele>269</ele>
        <time>2017-03-15T11:25:41Z</time>
      </trkpt>
      <trkpt lat="45.94616" lon="4.84131">
        <ele>269</ele>
        <time>2017-03-15T11:25:42Z</time>
      </trkpt>
      <trkpt lat="45.94615" lon="4.84124">
        <ele>269</ele>
        <time>2017-03-15T11:25:43Z</time>
      </trkpt>
      <trkpt lat="45.94613" lon="4.84116">
        <ele>269</ele>
        <time>2017-03-15T11:25:44Z</time>
      </trkpt>
      <trkpt lat="45.94612" lon="4.84109">
        <ele>269</ele>
        <time>2017-03-15T11:25:45Z</time>
      </trkpt>
      <trkpt lat="45.94611" lon="4.84101">
        <ele>269</ele>
        <time>2017-03-15T11:25:46Z</time>
      </trkpt>
      <trkpt lat="45.94609" lon="4.84093">
        <ele>269</ele>
        <time>2017-03-15T11:25:47Z</time>
      </trkpt>
      <trkpt lat="45.94608" lon="4.84085">
        <ele>269</ele>
        <time>2017-03-15T11:25:48Z</time>
      </trkpt>
      <trkpt lat="45.94607" lon="4.84077">
        <ele>269</ele>
        <time>2017-03-15T11:25:49Z</time>
      </trkpt>
      <trkpt lat="45.94606" lon="4.84069">
        <ele>269</ele>
        <time>2017-03-15T11:25:50Z</time>
      </trkpt>
      <trkpt lat="45.94605" lon="4.84061">
        <ele>269</ele>
        <time>2017-03-15T11:25:51Z</time>
      </trkpt>
      <trkpt lat="45.94603" lon="4.84052">
        <ele>269</ele>
        <time>2017-03-15T11:25:52Z</time>
      </trkpt>
      <trkpt lat="45.94602" lon="4.84044">
        <ele>269</ele>
        <time>2017-03-15T11:25:53Z</time>
      </trkpt>
      <trkpt lat="45.94601" lon="4.84036">
        <ele>269</ele>
        <time>2017-03-15T11:25:54Z</time>
      </trkpt>
      <trkpt lat="45.94599" lon="4.84027">
        <ele>269</ele>
        <time>2017-03-15T11:25:55Z</time>
      </trkpt>
      <trkpt lat="45.94598" lon="4.84018">
        <ele>269</ele>
        <time>2017-03-15T11:25:56Z</time>
      </trkpt>
      <trkpt lat="45.94596" lon="4.84009">
        <ele>269</ele>
        <time>2017-03-15T11:25:57Z</time>
      </trkpt>
      <trkpt lat="45.94595" lon="4.84001">
        <ele>269</ele>
        <time>2017-03-15T11:25:58Z</time>
      </trkpt>
      <trkpt lat="45.94594" lon="4.83992">
        <ele>269</ele>
        <time>2017-03-15T11:25:59Z</time>
      </trkpt>
      <trkpt lat="45.94593" lon="4.83984">
        <ele>268</ele>
        <time>2017-03-15T11:26:00Z</time>
      </trkpt>
      <trkpt lat="45.94592" lon="4.83975">
        <ele>268</ele>
        <time>2017-03-15T11:26:01Z</time>
      </trkpt>
      <trkpt lat="45.94591" lon="4.83966">
        <ele>268</ele>
        <time>2017-03-15T11:26:02Z</time>
      </trkpt>
      <trkpt lat="45.9459" lon="4.83958">
        <ele>268</ele>
        <time>2017-03-15T11:26:03Z</time>
      </trkpt>
      <trkpt lat="45.94589" lon="4.83949">
        <ele>268</ele>
        <time>2017-03-15T11:26:04Z</time>
      </trkpt>
      <trkpt lat="45.94588" lon="4.8394">
        <ele>268</ele>
        <time>2017-03-15T11:26:05Z</time>
      </trkpt>
      <trkpt lat="45.94586" lon="4.83931">
        <ele>268</ele>
        <time>2017-03-15T11:26:06Z</time>
      </trkpt>
      <trkpt lat="45.94585" lon="4.83922">
        <ele>268</ele>
        <time>2017-03-15T11:26:07Z</time>
      </trkpt>
      <trkpt lat="45.94584" lon="4.83912">
        <ele>268</ele>
        <time>2017-03-15T11:26:08Z</time>
      </trkpt>
      <trkpt lat="45.94582" lon="4.83902">
        <ele>268</ele>
        <time>2017-03-15T11:26:09Z</time>
      </trkpt>
      <trkpt lat="45.94581" lon="4.83892">
        <ele>267</ele>
        <time>2017-03-15T11:26:10Z</time>
      </trkpt>
      <trkpt lat="45.94579" lon="4.83882">
        <ele>267</ele>
        <time>2017-03-15T11:26:11Z</time>
      </trkpt>
      <trkpt lat="45.94578" lon="4.83872">
        <ele>267</ele>
        <time>2017-03-15T11:26:12Z</time>
      </trkpt>
      <trkpt lat="45.94578" lon="4.83861">
        <ele>267</ele>
        <time>2017-03-15T11:26:13Z</time>
      </trkpt>
      <trkpt lat="45.94577" lon="4.83851">
        <ele>266</ele>
        <time>2017-03-15T11:26:14Z</time>
      </trkpt>
      <trkpt lat="45.94576" lon="4.8384">
        <ele>266</ele>
        <time>2017-03-15T11:26:15Z</time>
      </trkpt>
      <trkpt lat="45.94575" lon="4.83829">
        <ele>265</ele>
        <time>2017-03-15T11:26:16Z</time>
      </trkpt>
      <trkpt lat="45.94573" lon="4.83818">
        <ele>264</ele>
        <time>2017-03-15T11:26:17Z</time>
      </trkpt>
      <trkpt lat="45.9457" lon="4.83807">
        <ele>264</ele>
        <time>2017-03-15T11:26:18Z</time>
      </trkpt>
      <trkpt lat="45.94568" lon="4.83796">
        <ele>264</ele>
        <time>2017-03-15T11:26:19Z</time>
      </trkpt>
      <trkpt lat="45.94567" lon="4.83785">
        <ele>264</ele>
        <time>2017-03-15T11:26:20Z</time>
      </trkpt>
      <trkpt lat="45.94565" lon="4.83775">
        <ele>263</ele>
        <time>2017-03-15T11:26:21Z</time>
      </trkpt>
      <trkpt lat="45.94563" lon="4.83764">
        <ele>263</ele>
        <time>2017-03-15T11:26:22Z</time>
      </trkpt>
      <trkpt lat="45.94562" lon="4.83754">
        <ele>263</ele>
        <time>2017-03-15T11:26:23Z</time>
      </trkpt>
      <trkpt lat="45.9456" lon="4.83744">
        <ele>262</ele>
        <time>2017-03-15T11:26:24Z</time>
      </trkpt>
      <trkpt lat="45.94558" lon="4.83735">
        <ele>262</ele>
        <time>2017-03-15T11:26:25Z</time>
      </trkpt>
      <trkpt lat="45.94557" lon="4.83726">
        <ele>262</ele>
        <time>2017-03-15T11:26:26Z</time>
      </trkpt>
      <trkpt lat="45.94555" lon="4.83717">
        <ele>262</ele>
        <time>2017-03-15T11:26:27Z</time>
      </trkpt>
      <trkpt lat="45.94553" lon="4.83708">
        <ele>262</ele>
        <time>2017-03-15T11:26:28Z</time>
      </trkpt>
      <trkpt lat="45.94551" lon="4.83699">
        <ele>262</ele>
        <time>2017-03-15T11:26:29Z</time>
      </trkpt>
      <trkpt lat="45.9455" lon="4.8369">
        <ele>262</ele>
        <time>2017-03-15T11:26:30Z</time>
      </trkpt>
      <trkpt lat="45.94549" lon="4.83681">
        <ele>262</ele>
        <time>2017-03-15T11:26:31Z</time>
      </trkpt>
      <trkpt lat="45.94548" lon="4.83673">
        <ele>262</ele>
        <time>2017-03-15T11:26:32Z</time>
      </trkpt>
      <trkpt lat="45.94546" lon="4.83663">
        <ele>261</ele>
        <time>2017-03-15T11:26:33Z</time>
      </trkpt>
      <trkpt lat="45.94543" lon="4.83654">
        <ele>261</ele>
        <time>2017-03-15T11:26:34Z</time>
      </trkpt>
      <trkpt lat="45.94541" lon="4.83644">
        <ele>261</ele>
        <time>2017-03-15T11:26:35Z</time>
      </trkpt>
      <trkpt lat="45.94539" lon="4.83635">
        <ele>261</ele>
        <time>2017-03-15T11:26:36Z</time>
      </trkpt>
      <trkpt lat="45.94538" lon="4.83625">
        <ele>261</ele>
        <time>2017-03-15T11:26:37Z</time>
      </trkpt>
      <trkpt lat="45.94536" lon="4.83616">
        <ele>261</ele>
        <time>2017-03-15T11:26:38Z</time>
      </trkpt>
      <trkpt lat="45.94534" lon="4.83607">
        <ele>261</ele>
        <time>2017-03-15T11:26:39Z</time>
      </trkpt>
      <trkpt lat="45.94533" lon="4.83599">
        <ele>261</ele>
        <time>2017-03-15T11:26:40Z</time>
      </trkpt>
      <trkpt lat="45.94531" lon="4.8359">
        <ele>261</ele>
        <time>2017-03-15T11:26:41Z</time>
      </trkpt>
      <trkpt lat="45.94528" lon="4.83582">
        <ele>261</ele>
        <time>2017-03-15T11:26:42Z</time>
      </trkpt>
      <trkpt lat="45.94526" lon="4.83573">
        <ele>261</ele>
        <time>2017-03-15T11:26:43Z</time>
      </trkpt>
      <trkpt lat="45.94524" lon="4.83565">
        <ele>261</ele>
        <time>2017-03-15T11:26:44Z</time>
      </trkpt>
      <trkpt lat="45.9452" lon="4.83557">
        <ele>261</ele>
        <time>2017-03-15T11:26:45Z</time>
      </trkpt>
      <trkpt lat="45.94517" lon="4.8355">
        <ele>261</ele>
        <time>2017-03-15T11:26:46Z</time>
      </trkpt>
      <trkpt lat="45.94513" lon="4.83543">
        <ele>261</ele>
        <time>2017-03-15T11:26:47Z</time>
      </trkpt>
      <trkpt lat="45.94509" lon="4.83536">
        <ele>262</ele>
        <time>2017-03-15T11:26:48Z</time>
      </trkpt>
      <trkpt lat="45.94505" lon="4.83529">
        <ele>262</ele>
        <time>2017-03-15T11:26:49Z</time>
      </trkpt>
      <trkpt lat="45.94501" lon="4.83522">
        <ele>262</ele>
        <time>2017-03-15T11:26:50Z</time>
      </trkpt>
      <trkpt lat="45.94497" lon="4.83515">
        <ele>262</ele>
        <time>2017-03-15T11:26:51Z</time>
      </trkpt>
      <trkpt lat="45.94493" lon="4.83508">
        <ele>262</ele>
        <time>2017-03-15T11:26:52Z</time>
      </trkpt>
      <trkpt lat="45.94489" lon="4.83501">
        <ele>262</ele>
        <time>2017-03-15T11:26:53Z</time>
      </trkpt>
      <trkpt lat="45.94485" lon="4.83495">
        <ele>263</ele>
        <time>2017-03-15T11:26:54Z</time>
      </trkpt>
      <trkpt lat="45.94481" lon="4.83489">
        <ele>263</ele>
        <time>2017-03-15T11:26:55Z</time>
      </trkpt>
      <trkpt lat="45.94477" lon="4.83483">
        <ele>263</ele>
        <time>2017-03-15T11:26:56Z</time>
      </trkpt>
      <trkpt lat="45.94473" lon="4.83476">
        <ele>263</ele>
        <time>2017-03-15T11:26:57Z</time>
      </trkpt>
      <trkpt lat="45.94469" lon="4.8347">
        <ele>263</ele>
        <time>2017-03-15T11:26:58Z</time>
      </trkpt>
      <trkpt lat="45.94465" lon="4.83463">
        <ele>263</ele>
        <time>2017-03-15T11:26:59Z</time>
      </trkpt>
      <trkpt lat="45.94462" lon="4.83457">
        <ele>263</ele>
        <time>2017-03-15T11:27:00Z</time>
      </trkpt>
      <trkpt lat="45.94459" lon="4.8345">
        <ele>263</ele>
        <time>2017-03-15T11:27:01Z</time>
      </trkpt>
      <trkpt lat="45.94455" lon="4.83444">
        <ele>263</ele>
        <time>2017-03-15T11:27:02Z</time>
      </trkpt>
      <trkpt lat="45.94452" lon="4.83437">
        <ele>263</ele>
        <time>2017-03-15T11:27:03Z</time>
      </trkpt>
      <trkpt lat="45.94449" lon="4.83431">
        <ele>263</ele>
        <time>2017-03-15T11:27:04Z</time>
      </trkpt>
      <trkpt lat="45.94446" lon="4.83425">
        <ele>264</ele>
        <time>2017-03-15T11:27:05Z</time>
      </trkpt>
      <trkpt lat="45.94443" lon="4.83419">
        <ele>264</ele>
        <time>2017-03-15T11:27:06Z</time>
      </trkpt>
      <trkpt lat="45.94441" lon="4.83412">
        <ele>264</ele>
        <time>2017-03-15T11:27:07Z</time>
      </trkpt>
      <trkpt lat="45.94438" lon="4.83406">
        <ele>264</ele>
        <time>2017-03-15T11:27:08Z</time>
      </trkpt>
      <trkpt lat="45.94435" lon="4.834">
        <ele>264</ele>
        <time>2017-03-15T11:27:09Z</time>
      </trkpt>
      <trkpt lat="45.94432" lon="4.83393">
        <ele>264</ele>
        <time>2017-03-15T11:27:10Z</time>
      </trkpt>
      <trkpt lat="45.94429" lon="4.83386">
        <ele>264</ele>
        <time>2017-03-15T11:27:11Z</time>
      </trkpt>
      <trkpt lat="45.94425" lon="4.83378">
        <ele>264</ele>
        <time>2017-03-15T11:27:12Z</time>
      </trkpt>
      <trkpt lat="45.94422" lon="4.83371">
        <ele>264</ele>
        <time>2017-03-15T11:27:13Z</time>
      </trkpt>
      <trkpt lat="45.94419" lon="4.83364">
        <ele>264</ele>
        <time>2017-03-15T11:27:14Z</time>
      </trkpt>
      <trkpt lat="45.94416" lon="4.83357">
        <ele>263</ele>
        <time>2017-03-15T11:27:15Z</time>
      </trkpt>
      <trkpt lat="45.94413" lon="4.8335">
        <ele>263</ele>
        <time>2017-03-15T11:27:16Z</time>
      </trkpt>
      <trkpt lat="45.9441" lon="4.83343">
        <ele>263</ele>
        <time>2017-03-15T11:27:17Z</time>
      </trkpt>
      <trkpt lat="45.94407" lon="4.83336">
        <ele>263</ele>
        <time>2017-03-15T11:27:18Z</time>
      </trkpt>
      <trkpt lat="45.94404" lon="4.8333">
        <ele>264</ele>
        <time>2017-03-15T11:27:19Z</time>
      </trkpt>
      <trkpt lat="45.94402" lon="4.83323">
        <ele>264</ele>
        <time>2017-03-15T11:27:20Z</time>
      </trkpt>
      <trkpt lat="45.94399" lon="4.83316">
        <ele>264</ele>
        <time>2017-03-15T11:27:21Z</time>
      </trkpt>
      <trkpt lat="45.94397" lon="4.83309">
        <ele>264</ele>
        <time>2017-03-15T11:27:22Z</time>
      </trkpt>
      <trkpt lat="45.94394" lon="4.83302">
        <ele>264</ele>
        <time>2017-03-15T11:27:23Z</time>
      </trkpt>
      <trkpt lat="45.94392" lon="4.83295">
        <ele>264</ele>
        <time>2017-03-15T11:27:24Z</time>
      </trkpt>
      <trkpt lat="45.94389" lon="4.83288">
        <ele>264</ele>
        <time>2017-03-15T11:27:25Z</time>
      </trkpt>
      <trkpt lat="45.94386" lon="4.8328">
        <ele>264</ele>
        <time>2017-03-15T11:27:26Z</time>
      </trkpt>
      <trkpt lat="45.94384" lon="4.83272">
        <ele>264</ele>
        <time>2017-03-15T11:27:27Z</time>
      </trkpt>
      <trkpt lat="45.94381" lon="4.83265">
        <ele>264</ele>
        <time>2017-03-15T11:27:28Z</time>
      </trkpt>
      <trkpt lat="45.94378" lon="4.83258">
        <ele>265</ele>
        <time>2017-03-15T11:27:29Z</time>
      </trkpt>
      <trkpt lat="45.94376" lon="4.8325">
        <ele>265</ele>
        <time>2017-03-15T11:27:30Z</time>
      </trkpt>
      <trkpt lat="45.94372" lon="4.83243">
        <ele>265</ele>
        <time>2017-03-15T11:27:31Z</time>
      </trkpt>
      <trkpt lat="45.94369" lon="4.83235">
        <ele>266</ele>
        <time>2017-03-15T11:27:32Z</time>
      </trkpt>
      <trkpt lat="45.94365" lon="4.83228">
        <ele>266</ele>
        <time>2017-03-15T11:27:33Z</time>
      </trkpt>
      <trkpt lat="45.94362" lon="4.83221">
        <ele>266</ele>
        <time>2017-03-15T11:27:34Z</time>
      </trkpt>
      <trkpt lat="45.94359" lon="4.83215">
        <ele>266</ele>
        <time>2017-03-15T11:27:35Z</time>
      </trkpt>
      <trkpt lat="45.94357" lon="4.83209">
        <ele>266</ele>
        <time>2017-03-15T11:27:36Z</time>
      </trkpt>
      <trkpt lat="45.94355" lon="4.83203">
        <ele>266</ele>
        <time>2017-03-15T11:27:37Z</time>
      </trkpt>
      <trkpt lat="45.94353" lon="4.83197">
        <ele>266</ele>
        <time>2017-03-15T11:27:38Z</time>
      </trkpt>
      <trkpt lat="45.94351" lon="4.83191">
        <ele>266</ele>
        <time>2017-03-15T11:27:39Z</time>
      </trkpt>
      <trkpt lat="45.94348" lon="4.83185">
        <ele>266</ele>
        <time>2017-03-15T11:27:40Z</time>
      </trkpt>
      <trkpt lat="45.94345" lon="4.83179">
        <ele>266</ele>
        <time>2017-03-15T11:27:41Z</time>
      </trkpt>
      <trkpt lat="45.94343" lon="4.83173">
        <ele>266</ele>
        <time>2017-03-15T11:27:42Z</time>
      </trkpt>
      <trkpt lat="45.94342" lon="4.83167">
        <ele>266</ele>
        <time>2017-03-15T11:27:43Z</time>
      </trkpt>
      <trkpt lat="45.9434" lon="4.83161">
        <ele>266</ele>
        <time>2017-03-15T11:27:44Z</time>
      </trkpt>
      <trkpt lat="45.94338" lon="4.83155">
        <ele>266</ele>
        <time>2017-03-15T11:27:45Z</time>
      </trkpt>
      <trkpt lat="45.94335" lon="4.83148">
        <ele>266</ele>
        <time>2017-03-15T11:27:46Z</time>
      </trkpt>
      <trkpt lat="45.94333" lon="4.83142">
        <ele>266</ele>
        <time>2017-03-15T11:27:47Z</time>
      </trkpt>
      <trkpt lat="45.94331" lon="4.83136">
        <ele>266</ele>
        <time>2017-03-15T11:27:48Z</time>
      </trkpt>
      <trkpt lat="45.94328" lon="4.83129">
        <ele>266</ele>
        <time>2017-03-15T11:27:49Z</time>
      </trkpt>
      <trkpt lat="45.94326" lon="4.83123">
        <ele>266</ele>
        <time>2017-03-15T11:27:50Z</time>
      </trkpt>
      <trkpt lat="45.94323" lon="4.83116">
        <ele>266</ele>
        <time>2017-03-15T11:27:51Z</time>
      </trkpt>
      <trkpt lat="45.94321" lon="4.83109">
        <ele>266</ele>
        <time>2017-03-15T11:27:52Z</time>
      </trkpt>
      <trkpt lat="45.94319" lon="4.83102">
        <ele>266</ele>
        <time>2017-03-15T11:27:53Z</time>
      </trkpt>
      <trkpt lat="45.94316" lon="4.83095">
        <ele>266</ele>
        <time>2017-03-15T11:27:54Z</time>
      </trkpt>
      <trkpt lat="45.94314" lon="4.83088">
        <ele>266</ele>
        <time>2017-03-15T11:27:55Z</time>
      </trkpt>
      <trkpt lat="45.94312" lon="4.83081">
        <ele>266</ele>
        <time>2017-03-15T11:27:56Z</time>
      </trkpt>
      <trkpt lat="45.94311" lon="4.83074">
        <ele>266</ele>
        <time>2017-03-15T11:27:57Z</time>
      </trkpt>
      <trkpt lat="45.94309" lon="4.83067">
        <ele>266</ele>
        <time>2017-03-15T11:27:58Z</time>
      </trkpt>
      <trkpt lat="45.94307" lon="4.8306">
        <ele>266</ele>
        <time>2017-03-15T11:27:59Z</time>
      </trkpt>
      <trkpt lat="45.94305" lon="4.83053">
        <ele>266</ele>
        <time>2017-03-15T11:28:00Z</time>
      </trkpt>
      <trkpt lat="45.94303" lon="4.83046">
        <ele>266</ele>
        <time>2017-03-15T11:28:01Z</time>
      </trkpt>
      <trkpt lat="45.94302" lon="4.83038">
        <ele>266</ele>
        <time>2017-03-15T11:28:02Z</time>
      </trkpt>
      <trkpt lat="45.943" lon="4.8303">
        <ele>266</ele>
        <time>2017-03-15T11:28:03Z</time>
      </trkpt>
      <trkpt lat="45.94298" lon="4.83022">
        <ele>266</ele>
        <time>2017-03-15T11:28:04Z</time>
      </trkpt>
      <trkpt lat="45.94297" lon="4.83014">
        <ele>266</ele>
        <time>2017-03-15T11:28:05Z</time>
      </trkpt>
      <trkpt lat="45.94295" lon="4.83006">
        <ele>266</ele>
        <time>2017-03-15T11:28:06Z</time>
      </trkpt>
      <trkpt lat="45.94293" lon="4.82998">
        <ele>265</ele>
        <time>2017-03-15T11:28:07Z</time>
      </trkpt>
      <trkpt lat="45.94291" lon="4.8299">
        <ele>265</ele>
        <time>2017-03-15T11:28:08Z</time>
      </trkpt>
      <trkpt lat="45.9429" lon="4.82982">
        <ele>265</ele>
        <time>2017-03-15T11:28:09Z</time>
      </trkpt>
      <trkpt lat="45.94288" lon="4.82975">
        <ele>265</ele>
        <time>2017-03-15T11:28:10Z</time>
      </trkpt>
      <trkpt lat="45.94286" lon="4.82969">
        <ele>265</ele>
        <time>2017-03-15T11:28:11Z</time>
      </trkpt>
      <trkpt lat="45.94284" lon="4.82963">
        <ele>265</ele>
        <time>2017-03-15T11:28:12Z</time>
      </trkpt>
      <trkpt lat="45.94282" lon="4.82956">
        <ele>265</ele>
        <time>2017-03-15T11:28:13Z</time>
      </trkpt>
      <trkpt lat="45.94281" lon="4.8295">
        <ele>265</ele>
        <time>2017-03-15T11:28:14Z</time>
      </trkpt>
      <trkpt lat="45.9428" lon="4.82943">
        <ele>265</ele>
        <time>2017-03-15T11:28:15Z</time>
      </trkpt>
      <trkpt lat="45.94281" lon="4.82936">
        <ele>265</ele>
        <time>2017-03-15T11:28:16Z</time>
      </trkpt>
      <trkpt lat="45.94282" lon="4.82928">
        <ele>265</ele>
        <time>2017-03-15T11:28:17Z</time>
      </trkpt>
      <trkpt lat="45.94284" lon="4.82921">
        <ele>265</ele>
        <time>2017-03-15T11:28:18Z</time>
      </trkpt>
      <trkpt lat="45.94285" lon="4.82914">
        <ele>265</ele>
        <time>2017-03-15T11:28:19Z</time>
      </trkpt>
      <trkpt lat="45.94286" lon="4.82907">
        <ele>265</ele>
        <time>2017-03-15T11:28:20Z</time>
      </trkpt>
      <trkpt lat="45.94287" lon="4.82899">
        <ele>265</ele>
        <time>2017-03-15T11:28:21Z</time>
      </trkpt>
      <trkpt lat="45.94288" lon="4.82892">
        <ele>265</ele>
        <time>2017-03-15T11:28:22Z</time>
      </trkpt>
      <trkpt lat="45.94289" lon="4.82884">
        <ele>265</ele>
        <time>2017-03-15T11:28:23Z</time>
      </trkpt>
      <trkpt lat="45.94289" lon="4.82876">
        <ele>265</ele>
        <time>2017-03-15T11:28:24Z</time>
      </trkpt>
      <trkpt lat="45.9429" lon="4.82869">
        <ele>265</ele>
        <time>2017-03-15T11:28:25Z</time>
      </trkpt>
      <trkpt lat="45.9429" lon="4.82862">
        <ele>265</ele>
        <time>2017-03-15T11:28:26Z</time>
      </trkpt>
      <trkpt lat="45.94291" lon="4.82855">
        <ele>265</ele>
        <time>2017-03-15T11:28:27Z</time>
      </trkpt>
      <trkpt lat="45.94291" lon="4.82847">
        <ele>265</ele>
        <time>2017-03-15T11:28:28Z</time>
      </trkpt>
      <trkpt lat="45.94292" lon="4.82839">
        <ele>265</ele>
        <time>2017-03-15T11:28:29Z</time>
      </trkpt>
      <trkpt lat="45.94292" lon="4.82831">
        <ele>265</ele>
        <time>2017-03-15T11:28:30Z</time>
      </trkpt>
      <trkpt lat="45.94292" lon="4.82823">
        <ele>265</ele>
        <time>2017-03-15T11:28:31Z</time>
      </trkpt>
      <trkpt lat="45.94292" lon="4.82816">
        <ele>265</ele>
        <time>2017-03-15T11:28:32Z</time>
      </trkpt>
      <trkpt lat="45.94292" lon="4.82807">
        <ele>265</ele>
        <time>2017-03-15T11:28:33Z</time>
      </trkpt>
      <trkpt lat="45.94293" lon="4.82799">
        <ele>265</ele>
        <time>2017-03-15T11:28:34Z</time>
      </trkpt>
      <trkpt lat="45.94293" lon="4.82792">
        <ele>265</ele>
        <time>2017-03-15T11:28:35Z</time>
      </trkpt>
      <trkpt lat="45.94293" lon="4.82784">
        <ele>265</ele>
        <time>2017-03-15T11:28:36Z</time>
      </trkpt>
      <trkpt lat="45.94293" lon="4.82776">
        <ele>265</ele>
        <time>2017-03-15T11:28:37Z</time>
      </trkpt>
      <trkpt lat="45.94292" lon="4.82768">
        <ele>265</ele>
        <time>2017-03-15T11:28:38Z</time>
      </trkpt>
      <trkpt lat="45.94292" lon="4.82759">
        <ele>265</ele>
        <time>2017-03-15T11:28:39Z</time>
      </trkpt>
      <trkpt lat="45.94293" lon="4.82751">
        <ele>265</ele>
        <time>2017-03-15T11:28:40Z</time>
      </trkpt>
      <trkpt lat="45.94293" lon="4.82743">
        <ele>265</ele>
        <time>2017-03-15T11:28:41Z</time>
      </trkpt>
      <trkpt lat="45.94294" lon="4.82735">
        <ele>265</ele>
        <time>2017-03-15T11:28:42Z</time>
      </trkpt>
      <trkpt lat="45.94294" lon="4.82727">
        <ele>265</ele>
        <time>2017-03-15T11:28:43Z</time>
      </trkpt>
      <trkpt lat="45.94295" lon="4.82719">
        <ele>265</ele>
        <time>2017-03-15T11:28:44Z</time>
      </trkpt>
      <trkpt lat="45.94294" lon="4.82711">
        <ele>265</ele>
        <time>2017-03-15T11:28:45Z</time>
      </trkpt>
      <trkpt lat="45.94295" lon="4.82703">
        <ele>265</ele>
        <time>2017-03-15T11:28:46Z</time>
      </trkpt>
      <trkpt lat="45.94295" lon="4.82694">
        <ele>265</ele>
        <time>2017-03-15T11:28:47Z</time>
      </trkpt>
      <trkpt lat="45.94295" lon="4.82685">
        <ele>265</ele>
        <time>2017-03-15T11:28:48Z</time>
      </trkpt>
      <trkpt lat="45.94295" lon="4.82676">
        <ele>265</ele>
        <time>2017-03-15T11:28:49Z</time>
      </trkpt>
      <trkpt lat="45.94295" lon="4.82667">
        <ele>265</ele>
        <time>2017-03-15T11:28:50Z</time>
      </trkpt>
      <trkpt lat="45.94295" lon="4.82658">
        <ele>265</ele>
        <time>2017-03-15T11:28:51Z</time>
      </trkpt>
      <trkpt lat="45.94295" lon="4.82648">
        <ele>265</ele>
        <time>2017-03-15T11:28:52Z</time>
      </trkpt>
      <trkpt lat="45.94295" lon="4.82639">
        <ele>265</ele>
        <time>2017-03-15T11:28:53Z</time>
      </trkpt>
      <trkpt lat="45.94295" lon="4.82629">
        <ele>265</ele>
        <time>2017-03-15T11:28:54Z</time>
      </trkpt>
      <trkpt lat="45.94295" lon="4.82619">
        <ele>265</ele>
        <time>2017-03-15T11:28:55Z</time>
      </trkpt>
      <trkpt lat="45.94295" lon="4.82609">
        <ele>265</ele>
        <time>2017-03-15T11:28:56Z</time>
      </trkpt>
      <trkpt lat="45.94295" lon="4.826">
        <ele>265</ele>
        <time>2017-03-15T11:28:57Z</time>
      </trkpt>
      <trkpt lat="45.94295" lon="4.82591">
        <ele>265</ele>
        <time>2017-03-15T11:28:58Z</time>
      </trkpt>
      <trkpt lat="45.94296" lon="4.82582">
        <ele>264</ele>
        <time>2017-03-15T11:28:59Z</time>
      </trkpt>
      <trkpt lat="45.94296" lon="4.82573">
        <ele>264</ele>
        <time>2017-03-15T11:29:00Z</time>
      </trkpt>
      <trkpt lat="45.94296" lon="4.82564">
        <ele>264</ele>
        <time>2017-03-15T11:29:01Z</time>
      </trkpt>
      <trkpt lat="45.94296" lon="4.82556">
        <ele>264</ele>
        <time>2017-03-15T11:29:02Z</time>
      </trkpt>
      <trkpt lat="45.94296" lon="4.82547">
        <ele>264</ele>
        <time>2017-03-15T11:29:03Z</time>
      </trkpt>
      <trkpt lat="45.94296" lon="4.82539">
        <ele>264</ele>
        <time>2017-03-15T11:29:04Z</time>
      </trkpt>
      <trkpt lat="45.94296" lon="4.82531">
        <ele>264</ele>
        <time>2017-03-15T11:29:05Z</time>
      </trkpt>
      <trkpt lat="45.94296" lon="4.82523">
        <ele>264</ele>
        <time>2017-03-15T11:29:06Z</time>
      </trkpt>
      <trkpt lat="45.94296" lon="4.82515">
        <ele>264</ele>
        <time>2017-03-15T11:29:07Z</time>
      </trkpt>
      <trkpt lat="45.94296" lon="4.82508">
        <ele>264</ele>
        <time>2017-03-15T11:29:08Z</time>
      </trkpt>
      <trkpt lat="45.94297" lon="4.825">
        <ele>264</ele>
        <time>2017-03-15T11:29:09Z</time>
      </trkpt>
      <trkpt lat="45.94297" lon="4.82491">
        <ele>264</ele>
        <time>2017-03-15T11:29:10Z</time>
      </trkpt>
      <trkpt lat="45.94297" lon="4.82483">
        <ele>264</ele>
        <time>2017-03-15T11:29:11Z</time>
      </trkpt>
      <trkpt lat="45.94296" lon="4.82475">
        <ele>264</ele>
        <time>2017-03-15T11:29:12Z</time>
      </trkpt>
      <trkpt lat="45.94295" lon="4.82466">
        <ele>264</ele>
        <time>2017-03-15T11:29:13Z</time>
      </trkpt>
      <trkpt lat="45.94295" lon="4.82457">
        <ele>264</ele>
        <time>2017-03-15T11:29:14Z</time>
      </trkpt>
      <trkpt lat="45.94295" lon="4.82448">
        <ele>264</ele>
        <time>2017-03-15T11:29:15Z</time>
      </trkpt>
      <trkpt lat="45.94295" lon="4.82439">
        <ele>264</ele>
        <time>2017-03-15T11:29:16Z</time>
      </trkpt>
      <trkpt lat="45.94294" lon="4.82431">
        <ele>264</ele>
        <time>2017-03-15T11:29:17Z</time>
      </trkpt>
      <trkpt lat="45.94293" lon="4.82422">
        <ele>264</ele>
        <time>2017-03-15T11:29:18Z</time>
      </trkpt>
      <trkpt lat="45.94293" lon="4.82413">
        <ele>264</ele>
        <time>2017-03-15T11:29:19Z</time>
      </trkpt>
      <trkpt lat="45.94293" lon="4.82405">
        <ele>264</ele>
        <time>2017-03-15T11:29:20Z</time>
      </trkpt>
      <trkpt lat="45.94292" lon="4.82396">
        <ele>264</ele>
        <time>2017-03-15T11:29:21Z</time>
      </trkpt>
      <trkpt lat="45.94292" lon="4.82387">
        <ele>264</ele>
        <time>2017-03-15T11:29:22Z</time>
      </trkpt>
      <trkpt lat="45.94291" lon="4.82378">
        <ele>264</ele>
        <time>2017-03-15T11:29:23Z</time>
      </trkpt>
      <trkpt lat="45.94291" lon="4.82369">
        <ele>264</ele>
        <time>2017-03-15T11:29:24Z</time>
      </trkpt>
      <trkpt lat="45.9429" lon="4.8236">
        <ele>264</ele>
        <time>2017-03-15T11:29:25Z</time>
      </trkpt>
      <trkpt lat="45.9429" lon="4.8235">
        <ele>264</ele>
        <time>2017-03-15T11:29:26Z</time>
      </trkpt>
      <trkpt lat="45.94289" lon="4.82341">
        <ele>264</ele>
        <time>2017-03-15T11:29:27Z</time>
      </trkpt>
      <trkpt lat="45.94288" lon="4.82331">
        <ele>265</ele>
        <time>2017-03-15T11:29:28Z</time>
      </trkpt>
      <trkpt lat="45.94288" lon="4.82322">
        <ele>265</ele>
        <time>2017-03-15T11:29:29Z</time>
      </trkpt>
      <trkpt lat="45.94287" lon="4.82312">
        <ele>265</ele>
        <time>2017-03-15T11:29:30Z</time>
      </trkpt>
      <trkpt lat="45.94287" lon="4.82303">
        <ele>265</ele>
        <time>2017-03-15T11:29:31Z</time>
      </trkpt>
      <trkpt lat="45.94286" lon="4.82293">
        <ele>265</ele>
        <time>2017-03-15T11:29:32Z</time>
      </trkpt>
      <trkpt lat="45.94286" lon="4.82284">
        <ele>265</ele>
        <time>2017-03-15T11:29:33Z</time>
      </trkpt>
      <trkpt lat="45.94285" lon="4.82275">
        <ele>265</ele>
        <time>2017-03-15T11:29:34Z</time>
      </trkpt>
      <trkpt lat="45.94285" lon="4.82267">
        <ele>265</ele>
        <time>2017-03-15T11:29:35Z</time>
      </trkpt>
      <trkpt lat="45.94285" lon="4.82258">
        <ele>265</ele>
        <time>2017-03-15T11:29:36Z</time>
      </trkpt>
      <trkpt lat="45.94284" lon="4.82249">
        <ele>264</ele>
        <time>2017-03-15T11:29:37Z</time>
      </trkpt>
      <trkpt lat="45.94284" lon="4.8224">
        <ele>264</ele>
        <time>2017-03-15T11:29:38Z</time>
      </trkpt>
      <trkpt lat="45.94283" lon="4.8223">
        <ele>264</ele>
        <time>2017-03-15T11:29:39Z</time>
      </trkpt>
      <trkpt lat="45.94283" lon="4.8222">
        <ele>264</ele>
        <time>2017-03-15T11:29:40Z</time>
      </trkpt>
      <trkpt lat="45.94281" lon="4.82209">
        <ele>264</ele>
        <time>2017-03-15T11:29:41Z</time>
      </trkpt>
      <trkpt lat="45.9428" lon="4.82199">
        <ele>264</ele>
        <time>2017-03-15T11:29:42Z</time>
      </trkpt>
      <trkpt lat="45.94279" lon="4.82189">
        <ele>264</ele>
        <time>2017-03-15T11:29:43Z</time>
      </trkpt>
      <trkpt lat="45.94276" lon="4.82179">
        <ele>264</ele>
        <time>2017-03-15T11:29:44Z</time>
      </trkpt>
      <trkpt lat="45.94274" lon="4.82169">
        <ele>264</ele>
        <time>2017-03-15T11:29:45Z</time>
      </trkpt>
      <trkpt lat="45.94272" lon="4.82159">
        <ele>263</ele>
        <time>2017-03-15T11:29:46Z</time>
      </trkpt>
      <trkpt lat="45.94271" lon="4.8215">
        <ele>263</ele>
        <time>2017-03-15T11:29:47Z</time>
      </trkpt>
      <trkpt lat="45.94268" lon="4.82141">
        <ele>263</ele>
        <time>2017-03-15T11:29:48Z</time>
      </trkpt>
      <trkpt lat="45.94266" lon="4.82132">
        <ele>263</ele>
        <time>2017-03-15T11:29:49Z</time>
      </trkpt>
      <trkpt lat="45.94264" lon="4.82123">
        <ele>263</ele>
        <time>2017-03-15T11:29:50Z</time>
      </trkpt>
      <trkpt lat="45.94262" lon="4.82114">
        <ele>263</ele>
        <time>2017-03-15T11:29:51Z</time>
      </trkpt>
      <trkpt lat="45.94261" lon="4.82106">
        <ele>262</ele>
        <time>2017-03-15T11:29:52Z</time>
      </trkpt>
      <trkpt lat="45.9426" lon="4.82097">
        <ele>262</ele>
        <time>2017-03-15T11:29:53Z</time>
      </trkpt>
      <trkpt lat="45.94258" lon="4.82089">
        <ele>262</ele>
        <time>2017-03-15T11:29:54Z</time>
      </trkpt>
      <trkpt lat="45.94257" lon="4.82081">
        <ele>262</ele>
        <time>2017-03-15T11:29:55Z</time>
      </trkpt>
      <trkpt lat="45.94256" lon="4.82073">
        <ele>262</ele>
        <time>2017-03-15T11:29:56Z</time>
      </trkpt>
      <trkpt lat="45.94254" lon="4.82065">
        <ele>262</ele>
        <time>2017-03-15T11:29:57Z</time>
      </trkpt>
      <trkpt lat="45.94253" lon="4.82056">
        <ele>262</ele>
        <time>2017-03-15T11:29:58Z</time>
      </trkpt>
      <trkpt lat="45.94251" lon="4.82048">
        <ele>262</ele>
        <time>2017-03-15T11:29:59Z</time>
      </trkpt>
      <trkpt lat="45.94249" lon="4.82039">
        <ele>263</ele>
        <time>2017-03-15T11:30:00Z</time>
      </trkpt>
      <trkpt lat="45.94247" lon="4.8203">
        <ele>263</ele>
        <time>2017-03-15T11:30:01Z</time>
      </trkpt>
      <trkpt lat="45.94246" lon="4.8202">
        <ele>263</ele>
        <time>2017-03-15T11:30:02Z</time>
      </trkpt>
      <trkpt lat="45.94244" lon="4.82011">
        <ele>263</ele>
        <time>2017-03-15T11:30:03Z</time>
      </trkpt>
      <trkpt lat="45.94242" lon="4.82001">
        <ele>263</ele>
        <time>2017-03-15T11:30:04Z</time>
      </trkpt>
      <trkpt lat="45.94241" lon="4.81992">
        <ele>263</ele>
        <time>2017-03-15T11:30:05Z</time>
      </trkpt>
      <trkpt lat="45.9424" lon="4.81982">
        <ele>263</ele>
        <time>2017-03-15T11:30:06Z</time>
      </trkpt>
      <trkpt lat="45.94238" lon="4.81972">
        <ele>263</ele>
        <time>2017-03-15T11:30:07Z</time>
      </trkpt>
      <trkpt lat="45.94236" lon="4.81963">
        <ele>264</ele>
        <time>2017-03-15T11:30:08Z</time>
      </trkpt>
      <trkpt lat="45.94234" lon="4.81954">
        <ele>264</ele>
        <time>2017-03-15T11:30:09Z</time>
      </trkpt>
      <trkpt lat="45.94232" lon="4.81946">
        <ele>264</ele>
        <time>2017-03-15T11:30:10Z</time>
      </trkpt>
      <trkpt lat="45.94231" lon="4.81938">
        <ele>264</ele>
        <time>2017-03-15T11:30:11Z</time>
      </trkpt>
      <trkpt lat="45.9423" lon="4.8193">
        <ele>263</ele>
        <time>2017-03-15T11:30:12Z</time>
      </trkpt>
      <trkpt lat="45.94228" lon="4.81922">
        <ele>263</ele>
        <time>2017-03-15T11:30:13Z</time>
      </trkpt>
      <trkpt lat="45.94227" lon="4.81914">
        <ele>264</ele>
        <time>2017-03-15T11:30:14Z</time>
      </trkpt>
      <trkpt lat="45.94226" lon="4.81906">
        <ele>264</ele>
        <time>2017-03-15T11:30:15Z</time>
      </trkpt>
      <trkpt lat="45.94224" lon="4.81898">
        <ele>264</ele>
        <time>2017-03-15T11:30:16Z</time>
      </trkpt>
      <trkpt lat="45.94222" lon="4.8189">
        <ele>265</ele>
        <time>2017-03-15T11:30:17Z</time>
      </trkpt>
      <trkpt lat="45.94221" lon="4.81882">
        <ele>265</ele>
        <time>2017-03-15T11:30:18Z</time>
      </trkpt>
      <trkpt lat="45.94219" lon="4.81873">
        <ele>265</ele>
        <time>2017-03-15T11:30:19Z</time>
      </trkpt>
      <trkpt lat="45.94217" lon="4.81865">
        <ele>265</ele>
        <time>2017-03-15T11:30:20Z</time>
      </trkpt>
      <trkpt lat="45.94216" lon="4.81857">
        <ele>265</ele>
        <time>2017-03-15T11:30:21Z</time>
      </trkpt>
      <trkpt lat="45.94213" lon="4.81849">
        <ele>265</ele>
        <time>2017-03-15T11:30:22Z</time>
      </trkpt>
      <trkpt lat="45.94212" lon="4.81841">
        <ele>265</ele>
        <time>2017-03-15T11:30:23Z</time>
      </trkpt>
      <trkpt lat="45.9421" lon="4.81833">
        <ele>266</ele>
        <time>2017-03-15T11:30:24Z</time>
      </trkpt>
      <trkpt lat="45.94208" lon="4.81825">
        <ele>266</ele>
        <time>2017-03-15T11:30:25Z</time>
      </trkpt>
      <trkpt lat="45.94207" lon="4.81817">
        <ele>266</ele>
        <time>2017-03-15T11:30:26Z</time>
      </trkpt>
      <trkpt lat="45.94206" lon="4.81809">
        <ele>266</ele>
        <time>2017-03-15T11:30:27Z</time>
      </trkpt>
      <trkpt lat="45.94206" lon="4.818">
        <ele>266</ele>
        <time>2017-03-15T11:30:28Z</time>
      </trkpt>
      <trkpt lat="45.94206" lon="4.81792">
        <ele>266</ele>
        <time>2017-03-15T11:30:29Z</time>
      </trkpt>
      <trkpt lat="45.94207" lon="4.81784">
        <ele>266</ele>
        <time>2017-03-15T11:30:30Z</time>
      </trkpt>
      <trkpt lat="45.94208" lon="4.81776">
        <ele>265</ele>
        <time>2017-03-15T11:30:31Z</time>
      </trkpt>
      <trkpt lat="45.9421" lon="4.81769">
        <ele>265</ele>
        <time>2017-03-15T11:30:32Z</time>
      </trkpt>
      <trkpt lat="45.94212" lon="4.81762">
        <ele>265</ele>
        <time>2017-03-15T11:30:33Z</time>
      </trkpt>
      <trkpt lat="45.94215" lon="4.81755">
        <ele>265</ele>
        <time>2017-03-15T11:30:34Z</time>
      </trkpt>
      <trkpt lat="45.94218" lon="4.81748">
        <ele>265</ele>
        <time>2017-03-15T11:30:35Z</time>
      </trkpt>
      <trkpt lat="45.94221" lon="4.81741">
        <ele>265</ele>
        <time>2017-03-15T11:30:36Z</time>
      </trkpt>
      <trkpt lat="45.94223" lon="4.81733">
        <ele>265</ele>
        <time>2017-03-15T11:30:37Z</time>
      </trkpt>
      <trkpt lat="45.94223" lon="4.81725">
        <ele>265</ele>
        <time>2017-03-15T11:30:38Z</time>
      </trkpt>
      <trkpt lat="45.94221" lon="4.81717">
        <ele>266</ele>
        <time>2017-03-15T11:30:39Z</time>
      </trkpt>
      <trkpt lat="45.94218" lon="4.8171">
        <ele>266</ele>
        <time>2017-03-15T11:30:40Z</time>
      </trkpt>
      <trkpt lat="45.94213" lon="4.81705">
        <ele>266</ele>
        <time>2017-03-15T11:30:41Z</time>
      </trkpt>
      <trkpt lat="45.94207" lon="4.81702">
        <ele>266</ele>
        <time>2017-03-15T11:30:42Z</time>
      </trkpt>
      <trkpt lat="45.942" lon="4.817">
        <ele>267</ele>
        <time>2017-03-15T11:30:43Z</time>
      </trkpt>
      <trkpt lat="45.94195" lon="4.81696">
        <ele>267</ele>
        <time>2017-03-15T11:30:44Z</time>
      </trkpt>
      <trkpt lat="45.94189" lon="4.8169">
        <ele>267</ele>
        <time>2017-03-15T11:30:45Z</time>
      </trkpt>
      <trkpt lat="45.94185" lon="4.81683">
        <ele>267</ele>
        <time>2017-03-15T11:30:46Z</time>
      </trkpt>
      <trkpt lat="45.94181" lon="4.81674">
        <ele>268</ele>
        <time>2017-03-15T11:30:47Z</time>
      </trkpt>
      <trkpt lat="45.94178" lon="4.81664">
        <ele>268</ele>
        <time>2017-03-15T11:30:48Z</time>
      </trkpt>
      <trkpt lat="45.94175" lon="4.81652">
        <ele>268</ele>
        <time>2017-03-15T11:30:49Z</time>
      </trkpt>
      <trkpt lat="45.94173" lon="4.8164">
        <ele>268</ele>
        <time>2017-03-15T11:30:50Z</time>
      </trkpt>
      <trkpt lat="45.94171" lon="4.81627">
        <ele>267</ele>
        <time>2017-03-15T11:30:51Z</time>
      </trkpt>
      <trkpt lat="45.94169" lon="4.81613">
        <ele>267</ele>
        <time>2017-03-15T11:30:52Z</time>
      </trkpt>
      <trkpt lat="45.94167" lon="4.816">
        <ele>267</ele>
        <time>2017-03-15T11:30:53Z</time>
      </trkpt>
      <trkpt lat="45.94165" lon="4.81587">
        <ele>267</ele>
        <time>2017-03-15T11:30:54Z</time>
      </trkpt>
      <trkpt lat="45.94163" lon="4.81573">
        <ele>266</ele>
        <time>2017-03-15T11:30:55Z</time>
      </trkpt>
      <trkpt lat="45.94161" lon="4.8156">
        <ele>265</ele>
        <time>2017-03-15T11:30:56Z</time>
      </trkpt>
      <trkpt lat="45.94159" lon="4.81546">
        <ele>264</ele>
        <time>2017-03-15T11:30:57Z</time>
      </trkpt>
      <trkpt lat="45.94158" lon="4.81532">
        <ele>264</ele>
        <time>2017-03-15T11:30:58Z</time>
      </trkpt>
      <trkpt lat="45.94157" lon="4.81518">
        <ele>263</ele>
        <time>2017-03-15T11:30:59Z</time>
      </trkpt>
      <trkpt lat="45.94157" lon="4.81503">
        <ele>263</ele>
        <time>2017-03-15T11:31:00Z</time>
      </trkpt>
      <trkpt lat="45.94158" lon="4.81488">
        <ele>260</ele>
        <time>2017-03-15T11:31:01Z</time>
      </trkpt>
      <trkpt lat="45.94159" lon="4.81473">
        <ele>258</ele>
        <time>2017-03-15T11:31:02Z</time>
      </trkpt>
      <trkpt lat="45.9416" lon="4.81457">
        <ele>257</ele>
        <time>2017-03-15T11:31:03Z</time>
      </trkpt>
      <trkpt lat="45.94162" lon="4.81442">
        <ele>256</ele>
        <time>2017-03-15T11:31:04Z</time>
      </trkpt>
      <trkpt lat="45.94163" lon="4.81427">
        <ele>256</ele>
        <time>2017-03-15T11:31:05Z</time>
      </trkpt>
      <trkpt lat="45.94165" lon="4.81411">
        <ele>254</ele>
        <time>2017-03-15T11:31:06Z</time>
      </trkpt>
      <trkpt lat="45.94166" lon="4.81395">
        <ele>252</ele>
        <time>2017-03-15T11:31:07Z</time>
      </trkpt>
      <trkpt lat="45.94168" lon="4.81379">
        <ele>258</ele>
        <time>2017-03-15T11:31:08Z</time>
      </trkpt>
      <trkpt lat="45.94169" lon="4.81364">
        <ele>257</ele>
        <time>2017-03-15T11:31:09Z</time>
      </trkpt>
      <trkpt lat="45.9417" lon="4.81348">
        <ele>255</ele>
        <time>2017-03-15T11:31:10Z</time>
      </trkpt>
      <trkpt lat="45.94172" lon="4.81332">
        <ele>253</ele>
        <time>2017-03-15T11:31:11Z</time>
      </trkpt>
      <trkpt lat="45.94173" lon="4.81316">
        <ele>255</ele>
        <time>2017-03-15T11:31:12Z</time>
      </trkpt>
      <trkpt lat="45.94173" lon="4.81299">
        <ele>256</ele>
        <time>2017-03-15T11:31:13Z</time>
      </trkpt>
      <trkpt lat="45.94172" lon="4.81283">
        <ele>255</ele>
        <time>2017-03-15T11:31:14Z</time>
      </trkpt>
      <trkpt lat="45.94171" lon="4.81266">
        <ele>254</ele>
        <time>2017-03-15T11:31:15Z</time>
      </trkpt>
      <trkpt lat="45.94169" lon="4.8125">
        <ele>250</ele>
        <time>2017-03-15T11:31:16Z</time>
      </trkpt>
      <trkpt lat="45.94167" lon="4.81234">
        <ele>252</ele>
        <time>2017-03-15T11:31:17Z</time>
      </trkpt>
      <trkpt lat="45.94164" lon="4.81218">
        <ele>245</ele>
        <time>2017-03-15T11:31:18Z</time>
      </trkpt>
      <trkpt lat="45.9416" lon="4.81203">
        <ele>245</ele>
        <time>2017-03-15T11:31:19Z</time>
      </trkpt>
      <trkpt lat="45.94155" lon="4.81188">
        <ele>245</ele>
        <time>2017-03-15T11:31:20Z</time>
      </trkpt>
      <trkpt lat="45.9415" lon="4.81173">
        <ele>245</ele>
        <time>2017-03-15T11:31:21Z</time>
      </trkpt>
      <trkpt lat="45.94145" lon="4.81158">
        <ele>245</ele>
        <time>2017-03-15T11:31:22Z</time>
      </trkpt>
      <trkpt lat="45.94139" lon="4.81144">
        <ele>244</ele>
        <time>2017-03-15T11:31:23Z</time>
      </trkpt>
      <trkpt lat="45.94133" lon="4.8113">
        <ele>244</ele>
        <time>2017-03-15T11:31:24Z</time>
      </trkpt>
      <trkpt lat="45.94125" lon="4.81116">
        <ele>243</ele>
        <time>2017-03-15T11:31:25Z</time>
      </trkpt>
      <trkpt lat="45.94118" lon="4.81104">
        <ele>243</ele>
        <time>2017-03-15T11:31:26Z</time>
      </trkpt>
      <trkpt lat="45.9411" lon="4.81091">
        <ele>242</ele>
        <time>2017-03-15T11:31:27Z</time>
      </trkpt>
      <trkpt lat="45.94103" lon="4.81078">
        <ele>242</ele>
        <time>2017-03-15T11:31:28Z</time>
      </trkpt>
      <trkpt lat="45.94095" lon="4.81065">
        <ele>242</ele>
        <time>2017-03-15T11:31:29Z</time>
      </trkpt>
      <trkpt lat="45.9409" lon="4.81052">
        <ele>243</ele>
        <time>2017-03-15T11:31:30Z</time>
      </trkpt>
      <trkpt lat="45.94084" lon="4.81037">
        <ele>244</ele>
        <time>2017-03-15T11:31:31Z</time>
      </trkpt>
      <trkpt lat="45.94079" lon="4.81022">
        <ele>235</ele>
        <time>2017-03-15T11:31:32Z</time>
      </trkpt>
      <trkpt lat="45.94076" lon="4.81007">
        <ele>237</ele>
        <time>2017-03-15T11:31:33Z</time>
      </trkpt>
      <trkpt lat="45.94073" lon="4.80992">
        <ele>236</ele>
        <time>2017-03-15T11:31:34Z</time>
      </trkpt>
      <trkpt lat="45.9407" lon="4.80977">
        <ele>233</ele>
        <time>2017-03-15T11:31:35Z</time>
      </trkpt>
      <trkpt lat="45.94068" lon="4.80962">
        <ele>232</ele>
        <time>2017-03-15T11:31:36Z</time>
      </trkpt>
      <trkpt lat="45.94067" lon="4.80947">
        <ele>232</ele>
        <time>2017-03-15T11:31:37Z</time>
      </trkpt>
      <trkpt lat="45.94065" lon="4.80932">
        <ele>233</ele>
        <time>2017-03-15T11:31:38Z</time>
      </trkpt>
      <trkpt lat="45.94063" lon="4.80917">
        <ele>233</ele>
        <time>2017-03-15T11:31:39Z</time>
      </trkpt>
      <trkpt lat="45.94061" lon="4.80901">
        <ele>232</ele>
        <time>2017-03-15T11:31:40Z</time>
      </trkpt>
      <trkpt lat="45.94059" lon="4.80886">
        <ele>231</ele>
        <time>2017-03-15T11:31:41Z</time>
      </trkpt>
      <trkpt lat="45.94058" lon="4.80871">
        <ele>231</ele>
        <time>2017-03-15T11:31:42Z</time>
      </trkpt>
      <trkpt lat="45.94056" lon="4.80856">
        <ele>231</ele>
        <time>2017-03-15T11:31:43Z</time>
      </trkpt>
      <trkpt lat="45.94054" lon="4.8084">
        <ele>231</ele>
        <time>2017-03-15T11:31:44Z</time>
      </trkpt>
      <trkpt lat="45.94052" lon="4.80825">
        <ele>230</ele>
        <time>2017-03-15T11:31:45Z</time>
      </trkpt>
      <trkpt lat="45.9405" lon="4.8081">
        <ele>229</ele>
        <time>2017-03-15T11:31:46Z</time>
      </trkpt>
      <trkpt lat="45.94048" lon="4.80795">
        <ele>229</ele>
        <time>2017-03-15T11:31:47Z</time>
      </trkpt>
      <trkpt lat="45.94047" lon="4.80781">
        <ele>229</ele>
        <time>2017-03-15T11:31:48Z</time>
      </trkpt>
      <trkpt lat="45.94044" lon="4.80766">
        <ele>228</ele>
        <time>2017-03-15T11:31:49Z</time>
      </trkpt>
      <trkpt lat="45.94043" lon="4.80751">
        <ele>228</ele>
        <time>2017-03-15T11:31:50Z</time>
      </trkpt>
      <trkpt lat="45.94041" lon="4.80738">
        <ele>227</ele>
        <time>2017-03-15T11:31:51Z</time>
      </trkpt>
      <trkpt lat="45.94039" lon="4.80723">
        <ele>227</ele>
        <time>2017-03-15T11:31:52Z</time>
      </trkpt>
      <trkpt lat="45.94038" lon="4.80709">
        <ele>226</ele>
        <time>2017-03-15T11:31:53Z</time>
      </trkpt>
      <trkpt lat="45.94036" lon="4.80694">
        <ele>226</ele>
        <time>2017-03-15T11:31:54Z</time>
      </trkpt>
      <trkpt lat="45.94034" lon="4.80679">
        <ele>225</ele>
        <time>2017-03-15T11:31:55Z</time>
      </trkpt>
      <trkpt lat="45.94033" lon="4.80663">
        <ele>225</ele>
        <time>2017-03-15T11:31:56Z</time>
      </trkpt>
      <trkpt lat="45.94031" lon="4.80648">
        <ele>225</ele>
        <time>2017-03-15T11:31:57Z</time>
      </trkpt>
      <trkpt lat="45.9403" lon="4.80632">
        <ele>225</ele>
        <time>2017-03-15T11:31:58Z</time>
      </trkpt>
      <trkpt lat="45.94028" lon="4.80616">
        <ele>225</ele>
        <time>2017-03-15T11:31:59Z</time>
      </trkpt>
      <trkpt lat="45.94026" lon="4.806">
        <ele>224</ele>
        <time>2017-03-15T11:32:00Z</time>
      </trkpt>
      <trkpt lat="45.94025" lon="4.80584">
        <ele>224</ele>
        <time>2017-03-15T11:32:01Z</time>
      </trkpt>
      <trkpt lat="45.94024" lon="4.80568">
        <ele>224</ele>
        <time>2017-03-15T11:32:02Z</time>
      </trkpt>
      <trkpt lat="45.94023" lon="4.80552">
        <ele>225</ele>
        <time>2017-03-15T11:32:03Z</time>
      </trkpt>
      <trkpt lat="45.94022" lon="4.80536">
        <ele>225</ele>
        <time>2017-03-15T11:32:04Z</time>
      </trkpt>
      <trkpt lat="45.94022" lon="4.80521">
        <ele>224</ele>
        <time>2017-03-15T11:32:05Z</time>
      </trkpt>
      <trkpt lat="45.94021" lon="4.80505">
        <ele>223</ele>
        <time>2017-03-15T11:32:06Z</time>
      </trkpt>
      <trkpt lat="45.94022" lon="4.80489">
        <ele>223</ele>
        <time>2017-03-15T11:32:07Z</time>
      </trkpt>
      <trkpt lat="45.94021" lon="4.80473">
        <ele>223</ele>
        <time>2017-03-15T11:32:08Z</time>
      </trkpt>
      <trkpt lat="45.94021" lon="4.80457">
        <ele>223</ele>
        <time>2017-03-15T11:32:09Z</time>
      </trkpt>
      <trkpt lat="45.9402" lon="4.80441">
        <ele>222</ele>
        <time>2017-03-15T11:32:10Z</time>
      </trkpt>
      <trkpt lat="45.94018" lon="4.80424">
        <ele>221</ele>
        <time>2017-03-15T11:32:11Z</time>
      </trkpt>
      <trkpt lat="45.94016" lon="4.80408">
        <ele>218</ele>
        <time>2017-03-15T11:32:12Z</time>
      </trkpt>
      <trkpt lat="45.94012" lon="4.80393">
        <ele>217</ele>
        <time>2017-03-15T11:32:13Z</time>
      </trkpt>
      <trkpt lat="45.94007" lon="4.80377">
        <ele>216</ele>
        <time>2017-03-15T11:32:14Z</time>
      </trkpt>
      <trkpt lat="45.94003" lon="4.80362">
        <ele>214</ele>
        <time>2017-03-15T11:32:15Z</time>
      </trkpt>
      <trkpt lat="45.93999" lon="4.80346">
        <ele>206</ele>
        <time>2017-03-15T11:32:16Z</time>
      </trkpt>
      <trkpt lat="45.93993" lon="4.80331">
        <ele>205</ele>
        <time>2017-03-15T11:32:17Z</time>
      </trkpt>
      <trkpt lat="45.93988" lon="4.80316">
        <ele>204</ele>
        <time>2017-03-15T11:32:18Z</time>
      </trkpt>
      <trkpt lat="45.93984" lon="4.80301">
        <ele>203</ele>
        <time>2017-03-15T11:32:19Z</time>
      </trkpt>
      <trkpt lat="45.93979" lon="4.80286">
        <ele>203</ele>
        <time>2017-03-15T11:32:20Z</time>
      </trkpt>
      <trkpt lat="45.93974" lon="4.80271">
        <ele>203</ele>
        <time>2017-03-15T11:32:21Z</time>
      </trkpt>
      <trkpt lat="45.9397" lon="4.80255">
        <ele>202</ele>
        <time>2017-03-15T11:32:22Z</time>
      </trkpt>
      <trkpt lat="45.93966" lon="4.8024">
        <ele>204</ele>
        <time>2017-03-15T11:32:23Z</time>
      </trkpt>
      <trkpt lat="45.93963" lon="4.80225">
        <ele>205</ele>
        <time>2017-03-15T11:32:24Z</time>
      </trkpt>
      <trkpt lat="45.93959" lon="4.8021">
        <ele>205</ele>
        <time>2017-03-15T11:32:25Z</time>
      </trkpt>
      <trkpt lat="45.93956" lon="4.80196">
        <ele>206</ele>
        <time>2017-03-15T11:32:26Z</time>
      </trkpt>
      <trkpt lat="45.93953" lon="4.80182">
        <ele>206</ele>
        <time>2017-03-15T11:32:27Z</time>
      </trkpt>
      <trkpt lat="45.9395" lon="4.80169">
        <ele>206</ele>
        <time>2017-03-15T11:32:28Z</time>
      </trkpt>
      <trkpt lat="45.93948" lon="4.80155">
        <ele>208</ele>
        <time>2017-03-15T11:32:29Z</time>
      </trkpt>
      <trkpt lat="45.93947" lon="4.80142">
        <ele>209</ele>
        <time>2017-03-15T11:32:30Z</time>
      </trkpt>
      <trkpt lat="45.93945" lon="4.8013">
        <ele>209</ele>
        <time>2017-03-15T11:32:31Z</time>
      </trkpt>
      <trkpt lat="45.93944" lon="4.80118">
        <ele>209</ele>
        <time>2017-03-15T11:32:32Z</time>
      </trkpt>
      <trkpt lat="45.93944" lon="4.80106">
        <ele>209</ele>
        <time>2017-03-15T11:32:33Z</time>
      </trkpt>
      <trkpt lat="45.93943" lon="4.80094">
        <ele>208</ele>
        <time>2017-03-15T11:32:34Z</time>
      </trkpt>
      <trkpt lat="45.93942" lon="4.80083">
        <ele>208</ele>
        <time>2017-03-15T11:32:35Z</time>
      </trkpt>
      <trkpt lat="45.93942" lon="4.80072">
        <ele>208</ele>
        <time>2017-03-15T11:32:36Z</time>
      </trkpt>
      <trkpt lat="45.93943" lon="4.80062">
        <ele>208</ele>
        <time>2017-03-15T11:32:37Z</time>
      </trkpt>
      <trkpt lat="45.93943" lon="4.80052">
        <ele>208</ele>
        <time>2017-03-15T11:32:38Z</time>
      </trkpt>
      <trkpt lat="45.93944" lon="4.80041">
        <ele>207</ele>
        <time>2017-03-15T11:32:39Z</time>
      </trkpt>
      <trkpt lat="45.93944" lon="4.80031">
        <ele>207</ele>
        <time>2017-03-15T11:32:40Z</time>
      </trkpt>
      <trkpt lat="45.93945" lon="4.80021">
        <ele>207</ele>
        <time>2017-03-15T11:32:41Z</time>
      </trkpt>
      <trkpt lat="45.93946" lon="4.8001">
        <ele>206</ele>
        <time>2017-03-15T11:32:42Z</time>
      </trkpt>
      <trkpt lat="45.93948" lon="4.8">
        <ele>205</ele>
        <time>2017-03-15T11:32:43Z</time>
      </trkpt>
      <trkpt lat="45.93949" lon="4.79989">
        <ele>205</ele>
        <time>2017-03-15T11:32:44Z</time>
      </trkpt>
      <trkpt lat="45.93951" lon="4.79979">
        <ele>205</ele>
        <time>2017-03-15T11:32:45Z</time>
      </trkpt>
      <trkpt lat="45.93952" lon="4.79969">
        <ele>205</ele>
        <time>2017-03-15T11:32:46Z</time>
      </trkpt>
      <trkpt lat="45.93954" lon="4.79959">
        <ele>205</ele>
        <time>2017-03-15T11:32:47Z</time>
      </trkpt>
      <trkpt lat="45.93956" lon="4.79949">
        <ele>205</ele>
        <time>2017-03-15T11:32:48Z</time>
      </trkpt>
      <trkpt lat="45.93957" lon="4.79939">
        <ele>205</ele>
        <time>2017-03-15T11:32:49Z</time>
      </trkpt>
      <trkpt lat="45.93958" lon="4.79929">
        <ele>205</ele>
        <time>2017-03-15T11:32:50Z</time>
      </trkpt>
      <trkpt lat="45.9396" lon="4.79919">
        <ele>205</ele>
        <time>2017-03-15T11:32:51Z</time>
      </trkpt>
      <trkpt lat="45.93961" lon="4.7991">
        <ele>206</ele>
        <time>2017-03-15T11:32:52Z</time>
      </trkpt>
      <trkpt lat="45.93962" lon="4.79901">
        <ele>206</ele>
        <time>2017-03-15T11:32:53Z</time>
      </trkpt>
      <trkpt lat="45.93964" lon="4.79891">
        <ele>206</ele>
        <time>2017-03-15T11:32:54Z</time>
      </trkpt>
      <trkpt lat="45.93965" lon="4.79883">
        <ele>206</ele>
        <time>2017-03-15T11:32:55Z</time>
      </trkpt>
      <trkpt lat="45.93966" lon="4.79874">
        <ele>206</ele>
        <time>2017-03-15T11:32:56Z</time>
      </trkpt>
      <trkpt lat="45.93968" lon="4.79865">
        <ele>206</ele>
        <time>2017-03-15T11:32:57Z</time>
      </trkpt>
      <trkpt lat="45.93969" lon="4.79857">
        <ele>206</ele>
        <time>2017-03-15T11:32:58Z</time>
      </trkpt>
      <trkpt lat="45.9397" lon="4.79848">
        <ele>206</ele>
        <time>2017-03-15T11:32:59Z</time>
      </trkpt>
      <trkpt lat="45.93972" lon="4.79839">
        <ele>207</ele>
        <time>2017-03-15T11:33:00Z</time>
      </trkpt>
      <trkpt lat="45.93974" lon="4.7983">
        <ele>207</ele>
        <time>2017-03-15T11:33:01Z</time>
      </trkpt>
      <trkpt lat="45.93975" lon="4.79822">
        <ele>207</ele>
        <time>2017-03-15T11:33:02Z</time>
      </trkpt>
      <trkpt lat="45.93976" lon="4.79813">
        <ele>207</ele>
        <time>2017-03-15T11:33:03Z</time>
      </trkpt>
      <trkpt lat="45.93978" lon="4.79804">
        <ele>207</ele>
        <time>2017-03-15T11:33:04Z</time>
      </trkpt>
      <trkpt lat="45.93979" lon="4.79795">
        <ele>207</ele>
        <time>2017-03-15T11:33:05Z</time>
      </trkpt>
      <trkpt lat="45.93979" lon="4.79785">
        <ele>207</ele>
        <time>2017-03-15T11:33:06Z</time>
      </trkpt>
      <trkpt lat="45.9398" lon="4.79776">
        <ele>207</ele>
        <time>2017-03-15T11:33:07Z</time>
      </trkpt>
      <trkpt lat="45.93979" lon="4.79767">
        <ele>207</ele>
        <time>2017-03-15T11:33:08Z</time>
      </trkpt>
      <trkpt lat="45.93978" lon="4.79757">
        <ele>207</ele>
        <time>2017-03-15T11:33:09Z</time>
      </trkpt>
      <trkpt lat="45.93977" lon="4.79748">
        <ele>207</ele>
        <time>2017-03-15T11:33:10Z</time>
      </trkpt>
      <trkpt lat="45.93976" lon="4.79738">
        <ele>207</ele>
        <time>2017-03-15T11:33:11Z</time>
      </trkpt>
      <trkpt lat="45.93975" lon="4.79729">
        <ele>207</ele>
        <time>2017-03-15T11:33:12Z</time>
      </trkpt>
      <trkpt lat="45.93974" lon="4.79719">
        <ele>207</ele>
        <time>2017-03-15T11:33:13Z</time>
      </trkpt>
      <trkpt lat="45.93973" lon="4.79709">
        <ele>207</ele>
        <time>2017-03-15T11:33:14Z</time>
      </trkpt>
      <trkpt lat="45.93972" lon="4.79699">
        <ele>207</ele>
        <time>2017-03-15T11:33:15Z</time>
      </trkpt>
      <trkpt lat="45.93971" lon="4.79689">
        <ele>207</ele>
        <time>2017-03-15T11:33:16Z</time>
      </trkpt>
      <trkpt lat="45.9397" lon="4.79679">
        <ele>207</ele>
        <time>2017-03-15T11:33:17Z</time>
      </trkpt>
      <trkpt lat="45.93969" lon="4.79669">
        <ele>208</ele>
        <time>2017-03-15T11:33:18Z</time>
      </trkpt>
      <trkpt lat="45.93969" lon="4.79659">
        <ele>208</ele>
        <time>2017-03-15T11:33:19Z</time>
      </trkpt>
      <trkpt lat="45.93969" lon="4.79649">
        <ele>208</ele>
        <time>2017-03-15T11:33:20Z</time>
      </trkpt>
      <trkpt lat="45.93969" lon="4.79639">
        <ele>207</ele>
        <time>2017-03-15T11:33:21Z</time>
      </trkpt>
      <trkpt lat="45.93969" lon="4.79629">
        <ele>207</ele>
        <time>2017-03-15T11:33:22Z</time>
      </trkpt>
      <trkpt lat="45.93968" lon="4.7962">
        <ele>207</ele>
        <time>2017-03-15T11:33:23Z</time>
      </trkpt>
      <trkpt lat="45.93967" lon="4.7961">
        <ele>207</ele>
        <time>2017-03-15T11:33:24Z</time>
      </trkpt>
      <trkpt lat="45.93966" lon="4.79601">
        <ele>207</ele>
        <time>2017-03-15T11:33:25Z</time>
      </trkpt>
      <trkpt lat="45.93965" lon="4.79591">
        <ele>207</ele>
        <time>2017-03-15T11:33:26Z</time>
      </trkpt>
      <trkpt lat="45.93965" lon="4.79582">
        <ele>206</ele>
        <time>2017-03-15T11:33:27Z</time>
      </trkpt>
      <trkpt lat="45.93963" lon="4.79572">
        <ele>206</ele>
        <time>2017-03-15T11:33:28Z</time>
      </trkpt>
      <trkpt lat="45.93962" lon="4.79562">
        <ele>206</ele>
        <time>2017-03-15T11:33:29Z</time>
      </trkpt>
      <trkpt lat="45.93961" lon="4.79551">
        <ele>205</ele>
        <time>2017-03-15T11:33:30Z</time>
      </trkpt>
      <trkpt lat="45.93961" lon="4.79541">
        <ele>205</ele>
        <time>2017-03-15T11:33:31Z</time>
      </trkpt>
      <trkpt lat="45.9396" lon="4.7953">
        <ele>205</ele>
        <time>2017-03-15T11:33:32Z</time>
      </trkpt>
      <trkpt lat="45.93959" lon="4.79519">
        <ele>205</ele>
        <time>2017-03-15T11:33:33Z</time>
      </trkpt>
      <trkpt lat="45.93959" lon="4.79508">
        <ele>205</ele>
        <time>2017-03-15T11:33:34Z</time>
      </trkpt>
      <trkpt lat="45.93959" lon="4.79497">
        <ele>203</ele>
        <time>2017-03-15T11:33:35Z</time>
      </trkpt>
      <trkpt lat="45.93959" lon="4.79486">
        <ele>203</ele>
        <time>2017-03-15T11:33:36Z</time>
      </trkpt>
      <trkpt lat="45.93959" lon="4.79476">
        <ele>203</ele>
        <time>2017-03-15T11:33:37Z</time>
      </trkpt>
      <trkpt lat="45.93959" lon="4.79465">
        <ele>203</ele>
        <time>2017-03-15T11:33:38Z</time>
      </trkpt>
      <trkpt lat="45.93958" lon="4.79454">
        <ele>203</ele>
        <time>2017-03-15T11:33:39Z</time>
      </trkpt>
      <trkpt lat="45.93957" lon="4.79444">
        <ele>203</ele>
        <time>2017-03-15T11:33:40Z</time>
      </trkpt>
      <trkpt lat="45.93957" lon="4.79433">
        <ele>203</ele>
        <time>2017-03-15T11:33:41Z</time>
      </trkpt>
      <trkpt lat="45.93958" lon="4.79422">
        <ele>203</ele>
        <time>2017-03-15T11:33:42Z</time>
      </trkpt>
      <trkpt lat="45.93958" lon="4.79412">
        <ele>202</ele>
        <time>2017-03-15T11:33:43Z</time>
      </trkpt>
      <trkpt lat="45.93959" lon="4.794">
        <ele>202</ele>
        <time>2017-03-15T11:33:44Z</time>
      </trkpt>
      <trkpt lat="45.93958" lon="4.7939">
        <ele>201</ele>
        <time>2017-03-15T11:33:45Z</time>
      </trkpt>
      <trkpt lat="45.93959" lon="4.79379">
        <ele>201</ele>
        <time>2017-03-15T11:33:46Z</time>
      </trkpt>
      <trkpt lat="45.93959" lon="4.79368">
        <ele>201</ele>
        <time>2017-03-15T11:33:47Z</time>
      </trkpt>
      <trkpt lat="45.93959" lon="4.79358">
        <ele>201</ele>
        <time>2017-03-15T11:33:48Z</time>
      </trkpt>
      <trkpt lat="45.93959" lon="4.79347">
        <ele>201</ele>
        <time>2017-03-15T11:33:49Z</time>
      </trkpt>
      <trkpt lat="45.9396" lon="4.79337">
        <ele>201</ele>
        <time>2017-03-15T11:33:50Z</time>
      </trkpt>
      <trkpt lat="45.9396" lon="4.79326">
        <ele>199</ele>
        <time>2017-03-15T11:33:51Z</time>
      </trkpt>
      <trkpt lat="45.93959" lon="4.79316">
        <ele>199</ele>
        <time>2017-03-15T11:33:52Z</time>
      </trkpt>
      <trkpt lat="45.93958" lon="4.79305">
        <ele>199</ele>
        <time>2017-03-15T11:33:53Z</time>
      </trkpt>
      <trkpt lat="45.93958" lon="4.79295">
        <ele>199</ele>
        <time>2017-03-15T11:33:54Z</time>
      </trkpt>
      <trkpt lat="45.93958" lon="4.79285">
        <ele>199</ele>
        <time>2017-03-15T11:33:55Z</time>
      </trkpt>
      <trkpt lat="45.93959" lon="4.79275">
        <ele>199</ele>
        <time>2017-03-15T11:33:56Z</time>
      </trkpt>
      <trkpt lat="45.93959" lon="4.79265">
        <ele>198</ele>
        <time>2017-03-15T11:33:57Z</time>
      </trkpt>
      <trkpt lat="45.93959" lon="4.79255">
        <ele>198</ele>
        <time>2017-03-15T11:33:58Z</time>
      </trkpt>
      <trkpt lat="45.93959" lon="4.79244">
        <ele>198</ele>
        <time>2017-03-15T11:33:59Z</time>
      </trkpt>
      <trkpt lat="45.93959" lon="4.79234">
        <ele>198</ele>
        <time>2017-03-15T11:34:00Z</time>
      </trkpt>
      <trkpt lat="45.93958" lon="4.79223">
        <ele>197</ele>
        <time>2017-03-15T11:34:01Z</time>
      </trkpt>
      <trkpt lat="45.93957" lon="4.79213">
        <ele>197</ele>
        <time>2017-03-15T11:34:02Z</time>
      </trkpt>
      <trkpt lat="45.93956" lon="4.79204">
        <ele>197</ele>
        <time>2017-03-15T11:34:03Z</time>
      </trkpt>
      <trkpt lat="45.93956" lon="4.79194">
        <ele>197</ele>
        <time>2017-03-15T11:34:04Z</time>
      </trkpt>
      <trkpt lat="45.93956" lon="4.79184">
        <ele>197</ele>
        <time>2017-03-15T11:34:05Z</time>
      </trkpt>
      <trkpt lat="45.93956" lon="4.79174">
        <ele>197</ele>
        <time>2017-03-15T11:34:06Z</time>
      </trkpt>
      <trkpt lat="45.93955" lon="4.79164">
        <ele>197</ele>
        <time>2017-03-15T11:34:07Z</time>
      </trkpt>
      <trkpt lat="45.93955" lon="4.79154">
        <ele>197</ele>
        <time>2017-03-15T11:34:08Z</time>
      </trkpt>
      <trkpt lat="45.93955" lon="4.79144">
        <ele>197</ele>
        <time>2017-03-15T11:34:09Z</time>
      </trkpt>
      <trkpt lat="45.93953" lon="4.79134">
        <ele>197</ele>
        <time>2017-03-15T11:34:10Z</time>
      </trkpt>
      <trkpt lat="45.93952" lon="4.79124">
        <ele>197</ele>
        <time>2017-03-15T11:34:11Z</time>
      </trkpt>
      <trkpt lat="45.93951" lon="4.79115">
        <ele>197</ele>
        <time>2017-03-15T11:34:12Z</time>
      </trkpt>
      <trkpt lat="45.9395" lon="4.79105">
        <ele>197</ele>
        <time>2017-03-15T11:34:13Z</time>
      </trkpt>
      <trkpt lat="45.9395" lon="4.79095">
        <ele>196</ele>
        <time>2017-03-15T11:34:14Z</time>
      </trkpt>
      <trkpt lat="45.93949" lon="4.79085">
        <ele>196</ele>
        <time>2017-03-15T11:34:15Z</time>
      </trkpt>
      <trkpt lat="45.93949" lon="4.79075">
        <ele>196</ele>
        <time>2017-03-15T11:34:16Z</time>
      </trkpt>
      <trkpt lat="45.93949" lon="4.79066">
        <ele>196</ele>
        <time>2017-03-15T11:34:17Z</time>
      </trkpt>
      <trkpt lat="45.93949" lon="4.79057">
        <ele>196</ele>
        <time>2017-03-15T11:34:18Z</time>
      </trkpt>
      <trkpt lat="45.93949" lon="4.79047">
        <ele>196</ele>
        <time>2017-03-15T11:34:19Z</time>
      </trkpt>
      <trkpt lat="45.93948" lon="4.79038">
        <ele>196</ele>
        <time>2017-03-15T11:34:20Z</time>
      </trkpt>
      <trkpt lat="45.93948" lon="4.79028">
        <ele>195</ele>
        <time>2017-03-15T11:34:21Z</time>
      </trkpt>
      <trkpt lat="45.93947" lon="4.79018">
        <ele>195</ele>
        <time>2017-03-15T11:34:22Z</time>
      </trkpt>
      <trkpt lat="45.93947" lon="4.79007">
        <ele>195</ele>
        <time>2017-03-15T11:34:23Z</time>
      </trkpt>
      <trkpt lat="45.93947" lon="4.78997">
        <ele>194</ele>
        <time>2017-03-15T11:34:24Z</time>
      </trkpt>
      <trkpt lat="45.93946" lon="4.78986">
        <ele>194</ele>
        <time>2017-03-15T11:34:25Z</time>
      </trkpt>
      <trkpt lat="45.93946" lon="4.78976">
        <ele>194</ele>
        <time>2017-03-15T11:34:26Z</time>
      </trkpt>
      <trkpt lat="45.93945" lon="4.78965">
        <ele>194</ele>
        <time>2017-03-15T11:34:27Z</time>
      </trkpt>
      <trkpt lat="45.93946" lon="4.78954">
        <ele>194</ele>
        <time>2017-03-15T11:34:28Z</time>
      </trkpt>
      <trkpt lat="45.93945" lon="4.78944">
        <ele>194</ele>
        <time>2017-03-15T11:34:29Z</time>
      </trkpt>
      <trkpt lat="45.93945" lon="4.78933">
        <ele>194</ele>
        <time>2017-03-15T11:34:30Z</time>
      </trkpt>
      <trkpt lat="45.93944" lon="4.78923">
        <ele>193</ele>
        <time>2017-03-15T11:34:31Z</time>
      </trkpt>
      <trkpt lat="45.93944" lon="4.78913">
        <ele>193</ele>
        <time>2017-03-15T11:34:32Z</time>
      </trkpt>
      <trkpt lat="45.93945" lon="4.78902">
        <ele>193</ele>
        <time>2017-03-15T11:34:33Z</time>
      </trkpt>
      <trkpt lat="45.93945" lon="4.78892">
        <ele>194</ele>
        <time>2017-03-15T11:34:34Z</time>
      </trkpt>
      <trkpt lat="45.93944" lon="4.78882">
        <ele>194</ele>
        <time>2017-03-15T11:34:35Z</time>
      </trkpt>
      <trkpt lat="45.93943" lon="4.78872">
        <ele>194</ele>
        <time>2017-03-15T11:34:36Z</time>
      </trkpt>
      <trkpt lat="45.93943" lon="4.78862">
        <ele>194</ele>
        <time>2017-03-15T11:34:37Z</time>
      </trkpt>
      <trkpt lat="45.93942" lon="4.78853">
        <ele>194</ele>
        <time>2017-03-15T11:34:38Z</time>
      </trkpt>
      <trkpt lat="45.93942" lon="4.78843">
        <ele>194</ele>
        <time>2017-03-15T11:34:39Z</time>
      </trkpt>
      <trkpt lat="45.93942" lon="4.78833">
        <ele>194</ele>
        <time>2017-03-15T11:34:40Z</time>
      </trkpt>
      <trkpt lat="45.93942" lon="4.78823">
        <ele>194</ele>
        <time>2017-03-15T11:34:41Z</time>
      </trkpt>
      <trkpt lat="45.93942" lon="4.78814">
        <ele>194</ele>
        <time>2017-03-15T11:34:42Z</time>
      </trkpt>
      <trkpt lat="45.93943" lon="4.78805">
        <ele>194</ele>
        <time>2017-03-15T11:34:43Z</time>
      </trkpt>
      <trkpt lat="45.93943" lon="4.78796">
        <ele>194</ele>
        <time>2017-03-15T11:34:44Z</time>
      </trkpt>
      <trkpt lat="45.93944" lon="4.78787">
        <ele>194</ele>
        <time>2017-03-15T11:34:45Z</time>
      </trkpt>
      <trkpt lat="45.93944" lon="4.78778">
        <ele>194</ele>
        <time>2017-03-15T11:34:46Z</time>
      </trkpt>
      <trkpt lat="45.93943" lon="4.78769">
        <ele>194</ele>
        <time>2017-03-15T11:34:47Z</time>
      </trkpt>
      <trkpt lat="45.93943" lon="4.78761">
        <ele>194</ele>
        <time>2017-03-15T11:34:48Z</time>
      </trkpt>
      <trkpt lat="45.93943" lon="4.78753">
        <ele>194</ele>
        <time>2017-03-15T11:34:49Z</time>
      </trkpt>
      <trkpt lat="45.93942" lon="4.78744">
        <ele>194</ele>
        <time>2017-03-15T11:34:50Z</time>
      </trkpt>
      <trkpt lat="45.93943" lon="4.78736">
        <ele>194</ele>
        <time>2017-03-15T11:34:51Z</time>
      </trkpt>
      <trkpt lat="45.93943" lon="4.78727">
        <ele>194</ele>
        <time>2017-03-15T11:34:52Z</time>
      </trkpt>
      <trkpt lat="45.93944" lon="4.78717">
        <ele>194</ele>
        <time>2017-03-15T11:34:53Z</time>
      </trkpt>
      <trkpt lat="45.93944" lon="4.78709">
        <ele>194</ele>
        <time>2017-03-15T11:34:54Z</time>
      </trkpt>
      <trkpt lat="45.93944" lon="4.787">
        <ele>194</ele>
        <time>2017-03-15T11:34:55Z</time>
      </trkpt>
      <trkpt lat="45.93944" lon="4.78693">
        <ele>194</ele>
        <time>2017-03-15T11:34:56Z</time>
      </trkpt>
      <trkpt lat="45.93944" lon="4.78685">
        <ele>194</ele>
        <time>2017-03-15T11:34:57Z</time>
      </trkpt>
      <trkpt lat="45.93945" lon="4.78678">
        <ele>194</ele>
        <time>2017-03-15T11:34:58Z</time>
      </trkpt>
      <trkpt lat="45.93946" lon="4.7867">
        <ele>194</ele>
        <time>2017-03-15T11:34:59Z</time>
      </trkpt>
      <trkpt lat="45.93945" lon="4.78662">
        <ele>195</ele>
        <time>2017-03-15T11:35:00Z</time>
      </trkpt>
      <trkpt lat="45.93946" lon="4.78654">
        <ele>195</ele>
        <time>2017-03-15T11:35:01Z</time>
      </trkpt>
      <trkpt lat="45.93945" lon="4.78645">
        <ele>195</ele>
        <time>2017-03-15T11:35:02Z</time>
      </trkpt>
      <trkpt lat="45.93945" lon="4.78637">
        <ele>196</ele>
        <time>2017-03-15T11:35:03Z</time>
      </trkpt>
      <trkpt lat="45.93945" lon="4.7863">
        <ele>196</ele>
        <time>2017-03-15T11:35:04Z</time>
      </trkpt>
      <trkpt lat="45.93945" lon="4.78623">
        <ele>196</ele>
        <time>2017-03-15T11:35:05Z</time>
      </trkpt>
      <trkpt lat="45.93944" lon="4.78617">
        <ele>196</ele>
        <time>2017-03-15T11:35:06Z</time>
      </trkpt>
      <trkpt lat="45.93943" lon="4.78609">
        <ele>196</ele>
        <time>2017-03-15T11:35:07Z</time>
      </trkpt>
      <trkpt lat="45.93942" lon="4.78602">
        <ele>196</ele>
        <time>2017-03-15T11:35:08Z</time>
      </trkpt>
      <trkpt lat="45.93942" lon="4.78591">
        <ele>196</ele>
        <time>2017-03-15T11:35:10Z</time>
      </trkpt>
      <trkpt lat="45.93942" lon="4.78585">
        <ele>196</ele>
        <time>2017-03-15T11:35:11Z</time>
      </trkpt>
      <trkpt lat="45.93941" lon="4.78574">
        <ele>197</ele>
        <time>2017-03-15T11:35:13Z</time>
      </trkpt>
      <trkpt lat="45.9394" lon="4.78568">
        <ele>197</ele>
        <time>2017-03-15T11:35:14Z</time>
      </trkpt>
      <trkpt lat="45.93939" lon="4.78556">
        <ele>197</ele>
        <time>2017-03-15T11:35:16Z</time>
      </trkpt>
      <trkpt lat="45.93938" lon="4.7855">
        <ele>197</ele>
        <time>2017-03-15T11:35:17Z</time>
      </trkpt>
      <trkpt lat="45.93938" lon="4.78538">
        <ele>197</ele>
        <time>2017-03-15T11:35:19Z</time>
      </trkpt>
      <trkpt lat="45.93938" lon="4.78531">
        <ele>197</ele>
        <time>2017-03-15T11:35:20Z</time>
      </trkpt>
      <trkpt lat="45.93938" lon="4.78524">
        <ele>197</ele>
        <time>2017-03-15T11:35:21Z</time>
      </trkpt>
      <trkpt lat="45.93938" lon="4.78518">
        <ele>197</ele>
        <time>2017-03-15T11:35:22Z</time>
      </trkpt>
      <trkpt lat="45.93938" lon="4.78511">
        <ele>197</ele>
        <time>2017-03-15T11:35:23Z</time>
      </trkpt>
      <trkpt lat="45.93938" lon="4.78504">
        <ele>197</ele>
        <time>2017-03-15T11:35:24Z</time>
      </trkpt>
      <trkpt lat="45.9394" lon="4.78497">
        <ele>197</ele>
        <time>2017-03-15T11:35:25Z</time>
      </trkpt>
      <trkpt lat="45.93941" lon="4.78491">
        <ele>197</ele>
        <time>2017-03-15T11:35:26Z</time>
      </trkpt>
      <trkpt lat="45.93942" lon="4.78484">
        <ele>197</ele>
        <time>2017-03-15T11:35:27Z</time>
      </trkpt>
      <trkpt lat="45.93943" lon="4.78477">
        <ele>197</ele>
        <time>2017-03-15T11:35:28Z</time>
      </trkpt>
      <trkpt lat="45.93944" lon="4.7847">
        <ele>197</ele>
        <time>2017-03-15T11:35:29Z</time>
      </trkpt>
      <trkpt lat="45.93945" lon="4.78464">
        <ele>197</ele>
        <time>2017-03-15T11:35:30Z</time>
      </trkpt>
      <trkpt lat="45.93946" lon="4.78457">
        <ele>197</ele>
        <time>2017-03-15T11:35:31Z</time>
      </trkpt>
      <trkpt lat="45.93947" lon="4.7845">
        <ele>197</ele>
        <time>2017-03-15T11:35:32Z</time>
      </trkpt>
      <trkpt lat="45.93949" lon="4.78443">
        <ele>197</ele>
        <time>2017-03-15T11:35:33Z</time>
      </trkpt>
      <trkpt lat="45.9395" lon="4.78436">
        <ele>197</ele>
        <time>2017-03-15T11:35:34Z</time>
      </trkpt>
      <trkpt lat="45.93951" lon="4.78429">
        <ele>197</ele>
        <time>2017-03-15T11:35:35Z</time>
      </trkpt>
      <trkpt lat="45.93951" lon="4.78422">
        <ele>197</ele>
        <time>2017-03-15T11:35:36Z</time>
      </trkpt>
      <trkpt lat="45.93953" lon="4.78415">
        <ele>196</ele>
        <time>2017-03-15T11:35:37Z</time>
      </trkpt>
      <trkpt lat="45.93955" lon="4.78408">
        <ele>196</ele>
        <time>2017-03-15T11:35:38Z</time>
      </trkpt>
      <trkpt lat="45.93956" lon="4.78402">
        <ele>197</ele>
        <time>2017-03-15T11:35:39Z</time>
      </trkpt>
      <trkpt lat="45.93958" lon="4.78395">
        <ele>197</ele>
        <time>2017-03-15T11:35:40Z</time>
      </trkpt>
      <trkpt lat="45.93958" lon="4.78388">
        <ele>197</ele>
        <time>2017-03-15T11:35:41Z</time>
      </trkpt>
      <trkpt lat="45.93959" lon="4.78381">
        <ele>197</ele>
        <time>2017-03-15T11:35:42Z</time>
      </trkpt>
      <trkpt lat="45.93959" lon="4.78374">
        <ele>197</ele>
        <time>2017-03-15T11:35:43Z</time>
      </trkpt>
      <trkpt lat="45.9396" lon="4.78367">
        <ele>197</ele>
        <time>2017-03-15T11:35:44Z</time>
      </trkpt>
      <trkpt lat="45.93962" lon="4.78354">
        <ele>197</ele>
        <time>2017-03-15T11:35:46Z</time>
      </trkpt>
      <trkpt lat="45.93962" lon="4.78348">
        <ele>197</ele>
        <time>2017-03-15T11:35:47Z</time>
      </trkpt>
      <trkpt lat="45.93964" lon="4.78337">
        <ele>197</ele>
        <time>2017-03-15T11:35:49Z</time>
      </trkpt>
      <trkpt lat="45.93964" lon="4.78331">
        <ele>196</ele>
        <time>2017-03-15T11:35:50Z</time>
      </trkpt>
      <trkpt lat="45.93966" lon="4.78319">
        <ele>196</ele>
        <time>2017-03-15T11:35:52Z</time>
      </trkpt>
      <trkpt lat="45.93967" lon="4.78313">
        <ele>196</ele>
        <time>2017-03-15T11:35:53Z</time>
      </trkpt>
      <trkpt lat="45.93968" lon="4.78307">
        <ele>196</ele>
        <time>2017-03-15T11:35:54Z</time>
      </trkpt>
      <trkpt lat="45.93969" lon="4.78301">
        <ele>196</ele>
        <time>2017-03-15T11:35:55Z</time>
      </trkpt>
      <trkpt lat="45.9397" lon="4.78294">
        <ele>196</ele>
        <time>2017-03-15T11:35:56Z</time>
      </trkpt>
      <trkpt lat="45.9397" lon="4.78286">
        <ele>196</ele>
        <time>2017-03-15T11:35:57Z</time>
      </trkpt>
      <trkpt lat="45.93971" lon="4.78279">
        <ele>196</ele>
        <time>2017-03-15T11:35:58Z</time>
      </trkpt>
      <trkpt lat="45.93972" lon="4.78272">
        <ele>196</ele>
        <time>2017-03-15T11:35:59Z</time>
      </trkpt>
      <trkpt lat="45.93973" lon="4.78265">
        <ele>196</ele>
        <time>2017-03-15T11:36:00Z</time>
      </trkpt>
      <trkpt lat="45.93975" lon="4.78257">
        <ele>196</ele>
        <time>2017-03-15T11:36:01Z</time>
      </trkpt>
      <trkpt lat="45.93976" lon="4.7825">
        <ele>197</ele>
        <time>2017-03-15T11:36:02Z</time>
      </trkpt>
      <trkpt lat="45.93976" lon="4.78242">
        <ele>197</ele>
        <time>2017-03-15T11:36:03Z</time>
      </trkpt>
      <trkpt lat="45.93978" lon="4.78235">
        <ele>197</ele>
        <time>2017-03-15T11:36:04Z</time>
      </trkpt>
      <trkpt lat="45.93979" lon="4.78228">
        <ele>197</ele>
        <time>2017-03-15T11:36:05Z</time>
      </trkpt>
      <trkpt lat="45.9398" lon="4.78221">
        <ele>197</ele>
        <time>2017-03-15T11:36:06Z</time>
      </trkpt>
      <trkpt lat="45.93981" lon="4.78213">
        <ele>197</ele>
        <time>2017-03-15T11:36:07Z</time>
      </trkpt>
      <trkpt lat="45.93983" lon="4.78207">
        <ele>197</ele>
        <time>2017-03-15T11:36:08Z</time>
      </trkpt>
      <trkpt lat="45.93984" lon="4.782">
        <ele>197</ele>
        <time>2017-03-15T11:36:09Z</time>
      </trkpt>
      <trkpt lat="45.93985" lon="4.78193">
        <ele>197</ele>
        <time>2017-03-15T11:36:10Z</time>
      </trkpt>
      <trkpt lat="45.93987" lon="4.78187">
        <ele>198</ele>
        <time>2017-03-15T11:36:11Z</time>
      </trkpt>
      <trkpt lat="45.93991" lon="4.78175">
        <ele>199</ele>
        <time>2017-03-15T11:36:13Z</time>
      </trkpt>
      <trkpt lat="45.93993" lon="4.7817">
        <ele>200</ele>
        <time>2017-03-15T11:36:14Z</time>
      </trkpt>
      <trkpt lat="45.93998" lon="4.78163">
        <ele>200</ele>
        <time>2017-03-15T11:36:16Z</time>
      </trkpt>
      <trkpt lat="45.93998" lon="4.78157">
        <ele>199</ele>
        <time>2017-03-15T11:36:17Z</time>
      </trkpt>
      <trkpt lat="45.93997" lon="4.7815">
        <ele>199</ele>
        <time>2017-03-15T11:36:18Z</time>
      </trkpt>
      <trkpt lat="45.93997" lon="4.78144">
        <ele>198</ele>
        <time>2017-03-15T11:36:19Z</time>
      </trkpt>
      <trkpt lat="45.93999" lon="4.78131">
        <ele>198</ele>
        <time>2017-03-15T11:36:21Z</time>
      </trkpt>
      <trkpt lat="45.94" lon="4.78125">
        <ele>197</ele>
        <time>2017-03-15T11:36:22Z</time>
      </trkpt>
      <trkpt lat="45.94001" lon="4.78113">
        <ele>203</ele>
        <time>2017-03-15T11:36:24Z</time>
      </trkpt>
      <trkpt lat="45.94002" lon="4.78106">
        <ele>202</ele>
        <time>2017-03-15T11:36:25Z</time>
      </trkpt>
      <trkpt lat="45.94004" lon="4.781">
        <ele>202</ele>
        <time>2017-03-15T11:36:26Z</time>
      </trkpt>
      <trkpt lat="45.94005" lon="4.78093">
        <ele>201</ele>
        <time>2017-03-15T11:36:27Z</time>
      </trkpt>
      <trkpt lat="45.94006" lon="4.78087">
        <ele>200</ele>
        <time>2017-03-15T11:36:28Z</time>
      </trkpt>
      <trkpt lat="45.94006" lon="4.7808">
        <ele>200</ele>
        <time>2017-03-15T11:36:29Z</time>
      </trkpt>
      <trkpt lat="45.94006" lon="4.78074">
        <ele>200</ele>
        <time>2017-03-15T11:36:30Z</time>
      </trkpt>
      <trkpt lat="45.94006" lon="4.78067">
        <ele>201</ele>
        <time>2017-03-15T11:36:31Z</time>
      </trkpt>
      <trkpt lat="45.94007" lon="4.7806">
        <ele>201</ele>
        <time>2017-03-15T11:36:32Z</time>
      </trkpt>
      <trkpt lat="45.94009" lon="4.78054">
        <ele>201</ele>
        <time>2017-03-15T11:36:33Z</time>
      </trkpt>
      <trkpt lat="45.94012" lon="4.78043">
        <ele>201</ele>
        <time>2017-03-15T11:36:35Z</time>
      </trkpt>
      <trkpt lat="45.94012" lon="4.78037">
        <ele>201</ele>
        <time>2017-03-15T11:36:36Z</time>
      </trkpt>
      <trkpt lat="45.94013" lon="4.78026">
        <ele>201</ele>
        <time>2017-03-15T11:36:38Z</time>
      </trkpt>
      <trkpt lat="45.94014" lon="4.7802">
        <ele>200</ele>
        <time>2017-03-15T11:36:39Z</time>
      </trkpt>
      <trkpt lat="45.94016" lon="4.78008">
        <ele>200</ele>
        <time>2017-03-15T11:36:41Z</time>
      </trkpt>
      <trkpt lat="45.94016" lon="4.78002">
        <ele>199</ele>
        <time>2017-03-15T11:36:42Z</time>
      </trkpt>
      <trkpt lat="45.94016" lon="4.77995">
        <ele>199</ele>
        <time>2017-03-15T11:36:43Z</time>
      </trkpt>
      <trkpt lat="45.94017" lon="4.77988">
        <ele>199</ele>
        <time>2017-03-15T11:36:44Z</time>
      </trkpt>
      <trkpt lat="45.94017" lon="4.77981">
        <ele>199</ele>
        <time>2017-03-15T11:36:45Z</time>
      </trkpt>
      <trkpt lat="45.94018" lon="4.77974">
        <ele>200</ele>
        <time>2017-03-15T11:36:46Z</time>
      </trkpt>
      <trkpt lat="45.94021" lon="4.77968">
        <ele>200</ele>
        <time>2017-03-15T11:36:47Z</time>
      </trkpt>
      <trkpt lat="45.94024" lon="4.77961">
        <ele>200</ele>
        <time>2017-03-15T11:36:48Z</time>
      </trkpt>
      <trkpt lat="45.94026" lon="4.7795">
        <ele>200</ele>
        <time>2017-03-15T11:36:50Z</time>
      </trkpt>
      <trkpt lat="45.94028" lon="4.77945">
        <ele>200</ele>
        <time>2017-03-15T11:36:51Z</time>
      </trkpt>
      <trkpt lat="45.9403" lon="4.77933">
        <ele>200</ele>
        <time>2017-03-15T11:36:53Z</time>
      </trkpt>
      <trkpt lat="45.94029" lon="4.77926">
        <ele>200</ele>
        <time>2017-03-15T11:36:54Z</time>
      </trkpt>
      <trkpt lat="45.94028" lon="4.7792">
        <ele>199</ele>
        <time>2017-03-15T11:36:55Z</time>
      </trkpt>
      <trkpt lat="45.94022" lon="4.77918">
        <ele>199</ele>
        <time>2017-03-15T11:36:56Z</time>
      </trkpt>
      <trkpt lat="45.94017" lon="4.77916">
        <ele>197</ele>
        <time>2017-03-15T11:36:57Z</time>
      </trkpt>
      <trkpt lat="45.94011" lon="4.77917">
        <ele>196</ele>
        <time>2017-03-15T11:36:58Z</time>
      </trkpt>
      <trkpt lat="45.94003" lon="4.77919">
        <ele>195</ele>
        <time>2017-03-15T11:36:59Z</time>
      </trkpt>
      <trkpt lat="45.93995" lon="4.77923">
        <ele>193</ele>
        <time>2017-03-15T11:37:00Z</time>
      </trkpt>
      <trkpt lat="45.93987" lon="4.77927">
        <ele>192</ele>
        <time>2017-03-15T11:37:01Z</time>
      </trkpt>
      <trkpt lat="45.93978" lon="4.77931">
        <ele>191</ele>
        <time>2017-03-15T11:37:02Z</time>
      </trkpt>
      <trkpt lat="45.9397" lon="4.77936">
        <ele>191</ele>
        <time>2017-03-15T11:37:03Z</time>
      </trkpt>
      <trkpt lat="45.93963" lon="4.77941">
        <ele>190</ele>
        <time>2017-03-15T11:37:04Z</time>
      </trkpt>
      <trkpt lat="45.93956" lon="4.77947">
        <ele>190</ele>
        <time>2017-03-15T11:37:05Z</time>
      </trkpt>
      <trkpt lat="45.93948" lon="4.77953">
        <ele>189</ele>
        <time>2017-03-15T11:37:06Z</time>
      </trkpt>
      <trkpt lat="45.93941" lon="4.77958">
        <ele>189</ele>
        <time>2017-03-15T11:37:07Z</time>
      </trkpt>
      <trkpt lat="45.93934" lon="4.77963">
        <ele>189</ele>
        <time>2017-03-15T11:37:08Z</time>
      </trkpt>
      <trkpt lat="45.93928" lon="4.77969">
        <ele>188</ele>
        <time>2017-03-15T11:37:09Z</time>
      </trkpt>
      <trkpt lat="45.93921" lon="4.77974">
        <ele>188</ele>
        <time>2017-03-15T11:37:10Z</time>
      </trkpt>
      <trkpt lat="45.93914" lon="4.77979">
        <ele>182</ele>
        <time>2017-03-15T11:37:11Z</time>
      </trkpt>
      <trkpt lat="45.93907" lon="4.77984">
        <ele>182</ele>
        <time>2017-03-15T11:37:12Z</time>
      </trkpt>
      <trkpt lat="45.93901" lon="4.7799">
        <ele>182</ele>
        <time>2017-03-15T11:37:13Z</time>
      </trkpt>
      <trkpt lat="45.93895" lon="4.77995">
        <ele>182</ele>
        <time>2017-03-15T11:37:14Z</time>
      </trkpt>
      <trkpt lat="45.9389" lon="4.78">
        <ele>184</ele>
        <time>2017-03-15T11:37:15Z</time>
      </trkpt>
      <trkpt lat="45.93883" lon="4.78005">
        <ele>184</ele>
        <time>2017-03-15T11:37:16Z</time>
      </trkpt>
      <trkpt lat="45.93875" lon="4.78009">
        <ele>183</ele>
        <time>2017-03-15T11:37:18Z</time>
      </trkpt>
      <trkpt lat="45.93872" lon="4.78009">
        <ele>183</ele>
        <time>2017-03-15T11:37:19Z</time>
      </trkpt>
      <trkpt lat="45.93865" lon="4.78003">
        <ele>183</ele>
        <time>2017-03-15T11:37:22Z</time>
      </trkpt>
      <trkpt lat="45.93864" lon="4.78">
        <ele>179</ele>
        <time>2017-03-15T11:37:23Z</time>
      </trkpt>
      <trkpt lat="45.9386" lon="4.77994">
        <ele>179</ele>
        <time>2017-03-15T11:37:25Z</time>
      </trkpt>
      <trkpt lat="45.93857" lon="4.7799">
        <ele>179</ele>
        <time>2017-03-15T11:37:26Z</time>
      </trkpt>
      <trkpt lat="45.93852" lon="4.77988">
        <ele>179</ele>
        <time>2017-03-15T11:37:27Z</time>
      </trkpt>
      <trkpt lat="45.93847" lon="4.77986">
        <ele>179</ele>
        <time>2017-03-15T11:37:28Z</time>
      </trkpt>
      <trkpt lat="45.93841" lon="4.77977">
        <ele>178</ele>
        <time>2017-03-15T11:37:30Z</time>
      </trkpt>
      <trkpt lat="45.93838" lon="4.77971">
        <ele>178</ele>
        <time>2017-03-15T11:37:31Z</time>
      </trkpt>
      <trkpt lat="45.93834" lon="4.77966">
        <ele>177</ele>
        <time>2017-03-15T11:37:32Z</time>
      </trkpt>
      <trkpt lat="45.93831" lon="4.77961">
        <ele>171</ele>
        <time>2017-03-15T11:37:33Z</time>
      </trkpt>
      <trkpt lat="45.93827" lon="4.77955">
        <ele>170</ele>
        <time>2017-03-15T11:37:34Z</time>
      </trkpt>
      <trkpt lat="45.93823" lon="4.77951">
        <ele>170</ele>
        <time>2017-03-15T11:37:35Z</time>
      </trkpt>
      <trkpt lat="45.93818" lon="4.77946">
        <ele>169</ele>
        <time>2017-03-15T11:37:36Z</time>
      </trkpt>
      <trkpt lat="45.93813" lon="4.77941">
        <ele>169</ele>
        <time>2017-03-15T11:37:37Z</time>
      </trkpt>
      <trkpt lat="45.93809" lon="4.77936">
        <ele>169</ele>
        <time>2017-03-15T11:37:38Z</time>
      </trkpt>
      <trkpt lat="45.93806" lon="4.77931">
        <ele>168</ele>
        <time>2017-03-15T11:37:39Z</time>
      </trkpt>
      <trkpt lat="45.93801" lon="4.77926">
        <ele>168</ele>
        <time>2017-03-15T11:37:40Z</time>
      </trkpt>
      <trkpt lat="45.93797" lon="4.77921">
        <ele>168</ele>
        <time>2017-03-15T11:37:41Z</time>
      </trkpt>
      <trkpt lat="45.93793" lon="4.77915">
        <ele>166</ele>
        <time>2017-03-15T11:37:42Z</time>
      </trkpt>
      <trkpt lat="45.93788" lon="4.7791">
        <ele>166</ele>
        <time>2017-03-15T11:37:43Z</time>
      </trkpt>
      <trkpt lat="45.93784" lon="4.77905">
        <ele>166</ele>
        <time>2017-03-15T11:37:44Z</time>
      </trkpt>
      <trkpt lat="45.9378" lon="4.779">
        <ele>166</ele>
        <time>2017-03-15T11:37:45Z</time>
      </trkpt>
      <trkpt lat="45.93776" lon="4.77895">
        <ele>166</ele>
        <time>2017-03-15T11:37:46Z</time>
      </trkpt>
      <trkpt lat="45.93772" lon="4.77889">
        <ele>166</ele>
        <time>2017-03-15T11:37:47Z</time>
      </trkpt>
      <trkpt lat="45.93768" lon="4.77885">
        <ele>166</ele>
        <time>2017-03-15T11:37:48Z</time>
      </trkpt>
      <trkpt lat="45.93764" lon="4.7788">
        <ele>166</ele>
        <time>2017-03-15T11:37:49Z</time>
      </trkpt>
      <trkpt lat="45.9376" lon="4.77875">
        <ele>166</ele>
        <time>2017-03-15T11:37:50Z</time>
      </trkpt>
      <trkpt lat="45.93757" lon="4.7787">
        <ele>166</ele>
        <time>2017-03-15T11:37:51Z</time>
      </trkpt>
      <trkpt lat="45.93753" lon="4.77865">
        <ele>166</ele>
        <time>2017-03-15T11:37:52Z</time>
      </trkpt>
      <trkpt lat="45.93749" lon="4.7786">
        <ele>167</ele>
        <time>2017-03-15T11:37:53Z</time>
      </trkpt>
      <trkpt lat="45.93745" lon="4.77854">
        <ele>167</ele>
        <time>2017-03-15T11:37:54Z</time>
      </trkpt>
      <trkpt lat="45.9374" lon="4.77848">
        <ele>167</ele>
        <time>2017-03-15T11:37:55Z</time>
      </trkpt>
      <trkpt lat="45.93736" lon="4.77843">
        <ele>167</ele>
        <time>2017-03-15T11:37:56Z</time>
      </trkpt>
      <trkpt lat="45.93731" lon="4.77837">
        <ele>167</ele>
        <time>2017-03-15T11:37:57Z</time>
      </trkpt>
      <trkpt lat="45.93727" lon="4.77832">
        <ele>168</ele>
        <time>2017-03-15T11:37:58Z</time>
      </trkpt>
      <trkpt lat="45.93723" lon="4.77826">
        <ele>168</ele>
        <time>2017-03-15T11:37:59Z</time>
      </trkpt>
      <trkpt lat="45.93718" lon="4.7782">
        <ele>169</ele>
        <time>2017-03-15T11:38:00Z</time>
      </trkpt>
      <trkpt lat="45.93714" lon="4.77814">
        <ele>169</ele>
        <time>2017-03-15T11:38:01Z</time>
      </trkpt>
      <trkpt lat="45.93709" lon="4.77807">
        <ele>169</ele>
        <time>2017-03-15T11:38:02Z</time>
      </trkpt>
      <trkpt lat="45.93704" lon="4.77801">
        <ele>169</ele>
        <time>2017-03-15T11:38:03Z</time>
      </trkpt>
      <trkpt lat="45.93699" lon="4.77794">
        <ele>169</ele>
        <time>2017-03-15T11:38:04Z</time>
      </trkpt>
      <trkpt lat="45.93694" lon="4.77787">
        <ele>170</ele>
        <time>2017-03-15T11:38:05Z</time>
      </trkpt>
      <trkpt lat="45.93689" lon="4.7778">
        <ele>170</ele>
        <time>2017-03-15T11:38:06Z</time>
      </trkpt>
      <trkpt lat="45.93684" lon="4.77772">
        <ele>170</ele>
        <time>2017-03-15T11:38:07Z</time>
      </trkpt>
      <trkpt lat="45.93679" lon="4.77765">
        <ele>170</ele>
        <time>2017-03-15T11:38:08Z</time>
      </trkpt>
      <trkpt lat="45.93674" lon="4.77757">
        <ele>170</ele>
        <time>2017-03-15T11:38:09Z</time>
      </trkpt>
      <trkpt lat="45.93668" lon="4.77749">
        <ele>171</ele>
        <time>2017-03-15T11:38:10Z</time>
      </trkpt>
      <trkpt lat="45.93662" lon="4.7774">
        <ele>170</ele>
        <time>2017-03-15T11:38:11Z</time>
      </trkpt>
      <trkpt lat="45.93657" lon="4.77731">
        <ele>170</ele>
        <time>2017-03-15T11:38:12Z</time>
      </trkpt>
      <trkpt lat="45.93651" lon="4.77722">
        <ele>170</ele>
        <time>2017-03-15T11:38:13Z</time>
      </trkpt>
      <trkpt lat="45.93645" lon="4.77712">
        <ele>170</ele>
        <time>2017-03-15T11:38:14Z</time>
      </trkpt>
      <trkpt lat="45.9364" lon="4.77702">
        <ele>170</ele>
        <time>2017-03-15T11:38:15Z</time>
      </trkpt>
      <trkpt lat="45.93634" lon="4.77691">
        <ele>169</ele>
        <time>2017-03-15T11:38:16Z</time>
      </trkpt>
      <trkpt lat="45.93629" lon="4.7768">
        <ele>169</ele>
        <time>2017-03-15T11:38:17Z</time>
      </trkpt>
      <trkpt lat="45.93624" lon="4.7767">
        <ele>169</ele>
        <time>2017-03-15T11:38:18Z</time>
      </trkpt>
      <trkpt lat="45.93619" lon="4.77659">
        <ele>169</ele>
        <time>2017-03-15T11:38:19Z</time>
      </trkpt>
      <trkpt lat="45.93614" lon="4.77648">
        <ele>169</ele>
        <time>2017-03-15T11:38:20Z</time>
      </trkpt>
      <trkpt lat="45.9361" lon="4.77638">
        <ele>169</ele>
        <time>2017-03-15T11:38:21Z</time>
      </trkpt>
      <trkpt lat="45.93606" lon="4.77627">
        <ele>169</ele>
        <time>2017-03-15T11:38:22Z</time>
      </trkpt>
      <trkpt lat="45.93602" lon="4.77617">
        <ele>170</ele>
        <time>2017-03-15T11:38:23Z</time>
      </trkpt>
      <trkpt lat="45.93599" lon="4.77607">
        <ele>170</ele>
        <time>2017-03-15T11:38:24Z</time>
      </trkpt>
      <trkpt lat="45.93596" lon="4.77597">
        <ele>170</ele>
        <time>2017-03-15T11:38:25Z</time>
      </trkpt>
      <trkpt lat="45.93592" lon="4.77587">
        <ele>170</ele>
        <time>2017-03-15T11:38:26Z</time>
      </trkpt>
      <trkpt lat="45.93589" lon="4.77578">
        <ele>170</ele>
        <time>2017-03-15T11:38:27Z</time>
      </trkpt>
      <trkpt lat="45.93585" lon="4.77569">
        <ele>170</ele>
        <time>2017-03-15T11:38:28Z</time>
      </trkpt>
      <trkpt lat="45.93583" lon="4.7756">
        <ele>169</ele>
        <time>2017-03-15T11:38:29Z</time>
      </trkpt>
      <trkpt lat="45.9358" lon="4.77551">
        <ele>169</ele>
        <time>2017-03-15T11:38:30Z</time>
      </trkpt>
      <trkpt lat="45.93579" lon="4.77542">
        <ele>169</ele>
        <time>2017-03-15T11:38:31Z</time>
      </trkpt>
      <trkpt lat="45.93576" lon="4.77533">
        <ele>169</ele>
        <time>2017-03-15T11:38:32Z</time>
      </trkpt>
      <trkpt lat="45.93574" lon="4.77525">
        <ele>169</ele>
        <time>2017-03-15T11:38:33Z</time>
      </trkpt>
      <trkpt lat="45.93572" lon="4.77516">
        <ele>169</ele>
        <time>2017-03-15T11:38:34Z</time>
      </trkpt>
      <trkpt lat="45.9357" lon="4.77508">
        <ele>169</ele>
        <time>2017-03-15T11:38:35Z</time>
      </trkpt>
      <trkpt lat="45.93568" lon="4.77499">
        <ele>169</ele>
        <time>2017-03-15T11:38:36Z</time>
      </trkpt>
      <trkpt lat="45.93566" lon="4.77491">
        <ele>169</ele>
        <time>2017-03-15T11:38:37Z</time>
      </trkpt>
      <trkpt lat="45.93565" lon="4.77483">
        <ele>169</ele>
        <time>2017-03-15T11:38:38Z</time>
      </trkpt>
      <trkpt lat="45.93563" lon="4.77474">
        <ele>169</ele>
        <time>2017-03-15T11:38:39Z</time>
      </trkpt>
      <trkpt lat="45.93561" lon="4.77466">
        <ele>169</ele>
        <time>2017-03-15T11:38:40Z</time>
      </trkpt>
      <trkpt lat="45.93559" lon="4.77458">
        <ele>169</ele>
        <time>2017-03-15T11:38:41Z</time>
      </trkpt>
      <trkpt lat="45.93558" lon="4.7745">
        <ele>169</ele>
        <time>2017-03-15T11:38:42Z</time>
      </trkpt>
      <trkpt lat="45.93556" lon="4.77442">
        <ele>169</ele>
        <time>2017-03-15T11:38:43Z</time>
      </trkpt>
      <trkpt lat="45.93554" lon="4.77433">
        <ele>169</ele>
        <time>2017-03-15T11:38:44Z</time>
      </trkpt>
      <trkpt lat="45.93552" lon="4.77425">
        <ele>170</ele>
        <time>2017-03-15T11:38:45Z</time>
      </trkpt>
      <trkpt lat="45.9355" lon="4.77417">
        <ele>170</ele>
        <time>2017-03-15T11:38:46Z</time>
      </trkpt>
      <trkpt lat="45.93548" lon="4.7741">
        <ele>170</ele>
        <time>2017-03-15T11:38:47Z</time>
      </trkpt>
      <trkpt lat="45.93547" lon="4.77402">
        <ele>170</ele>
        <time>2017-03-15T11:38:48Z</time>
      </trkpt>
      <trkpt lat="45.93545" lon="4.77395">
        <ele>170</ele>
        <time>2017-03-15T11:38:49Z</time>
      </trkpt>
      <trkpt lat="45.93545" lon="4.77388">
        <ele>170</ele>
        <time>2017-03-15T11:38:50Z</time>
      </trkpt>
      <trkpt lat="45.93544" lon="4.77381">
        <ele>170</ele>
        <time>2017-03-15T11:38:51Z</time>
      </trkpt>
      <trkpt lat="45.93542" lon="4.77374">
        <ele>170</ele>
        <time>2017-03-15T11:38:52Z</time>
      </trkpt>
      <trkpt lat="45.9354" lon="4.77366">
        <ele>170</ele>
        <time>2017-03-15T11:38:53Z</time>
      </trkpt>
      <trkpt lat="45.93539" lon="4.77359">
        <ele>170</ele>
        <time>2017-03-15T11:38:54Z</time>
      </trkpt>
      <trkpt lat="45.93537" lon="4.77352">
        <ele>170</ele>
        <time>2017-03-15T11:38:55Z</time>
      </trkpt>
      <trkpt lat="45.93535" lon="4.77345">
        <ele>170</ele>
        <time>2017-03-15T11:38:56Z</time>
      </trkpt>
      <trkpt lat="45.93534" lon="4.77338">
        <ele>170</ele>
        <time>2017-03-15T11:38:57Z</time>
      </trkpt>
      <trkpt lat="45.93532" lon="4.7733">
        <ele>170</ele>
        <time>2017-03-15T11:38:58Z</time>
      </trkpt>
      <trkpt lat="45.93531" lon="4.77323">
        <ele>170</ele>
        <time>2017-03-15T11:38:59Z</time>
      </trkpt>
      <trkpt lat="45.93529" lon="4.77315">
        <ele>170</ele>
        <time>2017-03-15T11:39:00Z</time>
      </trkpt>
      <trkpt lat="45.93528" lon="4.77308">
        <ele>170</ele>
        <time>2017-03-15T11:39:01Z</time>
      </trkpt>
      <trkpt lat="45.93527" lon="4.77302">
        <ele>170</ele>
        <time>2017-03-15T11:39:02Z</time>
      </trkpt>
      <trkpt lat="45.93525" lon="4.77295">
        <ele>170</ele>
        <time>2017-03-15T11:39:03Z</time>
      </trkpt>
      <trkpt lat="45.93523" lon="4.77288">
        <ele>170</ele>
        <time>2017-03-15T11:39:04Z</time>
      </trkpt>
      <trkpt lat="45.93521" lon="4.77281">
        <ele>170</ele>
        <time>2017-03-15T11:39:05Z</time>
      </trkpt>
      <trkpt lat="45.93519" lon="4.77273">
        <ele>170</ele>
        <time>2017-03-15T11:39:06Z</time>
      </trkpt>
      <trkpt lat="45.93518" lon="4.77266">
        <ele>170</ele>
        <time>2017-03-15T11:39:07Z</time>
      </trkpt>
      <trkpt lat="45.93516" lon="4.77259">
        <ele>170</ele>
        <time>2017-03-15T11:39:08Z</time>
      </trkpt>
      <trkpt lat="45.93516" lon="4.77252">
        <ele>170</ele>
        <time>2017-03-15T11:39:09Z</time>
      </trkpt>
      <trkpt lat="45.93515" lon="4.77244">
        <ele>169</ele>
        <time>2017-03-15T11:39:10Z</time>
      </trkpt>
      <trkpt lat="45.93514" lon="4.77237">
        <ele>169</ele>
        <time>2017-03-15T11:39:11Z</time>
      </trkpt>
      <trkpt lat="45.93511" lon="4.7723">
        <ele>169</ele>
        <time>2017-03-15T11:39:12Z</time>
      </trkpt>
      <trkpt lat="45.93509" lon="4.77223">
        <ele>169</ele>
        <time>2017-03-15T11:39:13Z</time>
      </trkpt>
      <trkpt lat="45.93507" lon="4.77216">
        <ele>169</ele>
        <time>2017-03-15T11:39:14Z</time>
      </trkpt>
      <trkpt lat="45.93506" lon="4.77209">
        <ele>169</ele>
        <time>2017-03-15T11:39:15Z</time>
      </trkpt>
      <trkpt lat="45.93504" lon="4.77202">
        <ele>169</ele>
        <time>2017-03-15T11:39:16Z</time>
      </trkpt>
      <trkpt lat="45.93503" lon="4.77195">
        <ele>169</ele>
        <time>2017-03-15T11:39:17Z</time>
      </trkpt>
      <trkpt lat="45.93501" lon="4.77187">
        <ele>169</ele>
        <time>2017-03-15T11:39:18Z</time>
      </trkpt>
      <trkpt lat="45.935" lon="4.7718">
        <ele>169</ele>
        <time>2017-03-15T11:39:19Z</time>
      </trkpt>
      <trkpt lat="45.93498" lon="4.77172">
        <ele>169</ele>
        <time>2017-03-15T11:39:20Z</time>
      </trkpt>
      <trkpt lat="45.93496" lon="4.77164">
        <ele>169</ele>
        <time>2017-03-15T11:39:21Z</time>
      </trkpt>
      <trkpt lat="45.93494" lon="4.77157">
        <ele>169</ele>
        <time>2017-03-15T11:39:22Z</time>
      </trkpt>
      <trkpt lat="45.93493" lon="4.77149">
        <ele>169</ele>
        <time>2017-03-15T11:39:23Z</time>
      </trkpt>
      <trkpt lat="45.93491" lon="4.77141">
        <ele>169</ele>
        <time>2017-03-15T11:39:24Z</time>
      </trkpt>
      <trkpt lat="45.93489" lon="4.77134">
        <ele>169</ele>
        <time>2017-03-15T11:39:25Z</time>
      </trkpt>
      <trkpt lat="45.93487" lon="4.77126">
        <ele>169</ele>
        <time>2017-03-15T11:39:26Z</time>
      </trkpt>
      <trkpt lat="45.93486" lon="4.77118">
        <ele>169</ele>
        <time>2017-03-15T11:39:27Z</time>
      </trkpt>
      <trkpt lat="45.93484" lon="4.7711">
        <ele>169</ele>
        <time>2017-03-15T11:39:28Z</time>
      </trkpt>
      <trkpt lat="45.93483" lon="4.77102">
        <ele>169</ele>
        <time>2017-03-15T11:39:29Z</time>
      </trkpt>
      <trkpt lat="45.93482" lon="4.77094">
        <ele>169</ele>
        <time>2017-03-15T11:39:30Z</time>
      </trkpt>
      <trkpt lat="45.93481" lon="4.77087">
        <ele>169</ele>
        <time>2017-03-15T11:39:31Z</time>
      </trkpt>
      <trkpt lat="45.93479" lon="4.7708">
        <ele>170</ele>
        <time>2017-03-15T11:39:32Z</time>
      </trkpt>
      <trkpt lat="45.93478" lon="4.77072">
        <ele>170</ele>
        <time>2017-03-15T11:39:33Z</time>
      </trkpt>
      <trkpt lat="45.93476" lon="4.77065">
        <ele>170</ele>
        <time>2017-03-15T11:39:34Z</time>
      </trkpt>
      <trkpt lat="45.93475" lon="4.77057">
        <ele>170</ele>
        <time>2017-03-15T11:39:35Z</time>
      </trkpt>
      <trkpt lat="45.93473" lon="4.77049">
        <ele>170</ele>
        <time>2017-03-15T11:39:36Z</time>
      </trkpt>
      <trkpt lat="45.93472" lon="4.77041">
        <ele>170</ele>
        <time>2017-03-15T11:39:37Z</time>
      </trkpt>
      <trkpt lat="45.9347" lon="4.77033">
        <ele>170</ele>
        <time>2017-03-15T11:39:38Z</time>
      </trkpt>
      <trkpt lat="45.93468" lon="4.77025">
        <ele>170</ele>
        <time>2017-03-15T11:39:39Z</time>
      </trkpt>
      <trkpt lat="45.93467" lon="4.77018">
        <ele>170</ele>
        <time>2017-03-15T11:39:40Z</time>
      </trkpt>
      <trkpt lat="45.93466" lon="4.7701">
        <ele>170</ele>
        <time>2017-03-15T11:39:41Z</time>
      </trkpt>
      <trkpt lat="45.93465" lon="4.77003">
        <ele>170</ele>
        <time>2017-03-15T11:39:42Z</time>
      </trkpt>
      <trkpt lat="45.93465" lon="4.76996">
        <ele>170</ele>
        <time>2017-03-15T11:39:43Z</time>
      </trkpt>
      <trkpt lat="45.93464" lon="4.76989">
        <ele>170</ele>
        <time>2017-03-15T11:39:44Z</time>
      </trkpt>
      <trkpt lat="45.93463" lon="4.76982">
        <ele>170</ele>
        <time>2017-03-15T11:39:45Z</time>
      </trkpt>
      <trkpt lat="45.93462" lon="4.76975">
        <ele>170</ele>
        <time>2017-03-15T11:39:46Z</time>
      </trkpt>
      <trkpt lat="45.93461" lon="4.76968">
        <ele>170</ele>
        <time>2017-03-15T11:39:47Z</time>
      </trkpt>
      <trkpt lat="45.9346" lon="4.7696">
        <ele>170</ele>
        <time>2017-03-15T11:39:48Z</time>
      </trkpt>
      <trkpt lat="45.93459" lon="4.76953">
        <ele>170</ele>
        <time>2017-03-15T11:39:49Z</time>
      </trkpt>
      <trkpt lat="45.93457" lon="4.76945">
        <ele>170</ele>
        <time>2017-03-15T11:39:50Z</time>
      </trkpt>
      <trkpt lat="45.93456" lon="4.76938">
        <ele>170</ele>
        <time>2017-03-15T11:39:51Z</time>
      </trkpt>
      <trkpt lat="45.93454" lon="4.7693">
        <ele>170</ele>
        <time>2017-03-15T11:39:52Z</time>
      </trkpt>
      <trkpt lat="45.93452" lon="4.76922">
        <ele>170</ele>
        <time>2017-03-15T11:39:53Z</time>
      </trkpt>
      <trkpt lat="45.9345" lon="4.76913">
        <ele>170</ele>
        <time>2017-03-15T11:39:54Z</time>
      </trkpt>
      <trkpt lat="45.93448" lon="4.76905">
        <ele>170</ele>
        <time>2017-03-15T11:39:55Z</time>
      </trkpt>
      <trkpt lat="45.93446" lon="4.76897">
        <ele>170</ele>
        <time>2017-03-15T11:39:56Z</time>
      </trkpt>
      <trkpt lat="45.93444" lon="4.76889">
        <ele>170</ele>
        <time>2017-03-15T11:39:57Z</time>
      </trkpt>
      <trkpt lat="45.93441" lon="4.76882">
        <ele>170</ele>
        <time>2017-03-15T11:39:58Z</time>
      </trkpt>
      <trkpt lat="45.93439" lon="4.76875">
        <ele>171</ele>
        <time>2017-03-15T11:39:59Z</time>
      </trkpt>
      <trkpt lat="45.93436" lon="4.76868">
        <ele>171</ele>
        <time>2017-03-15T11:40:00Z</time>
      </trkpt>
      <trkpt lat="45.93434" lon="4.76861">
        <ele>171</ele>
        <time>2017-03-15T11:40:01Z</time>
      </trkpt>
      <trkpt lat="45.93431" lon="4.76855">
        <ele>171</ele>
        <time>2017-03-15T11:40:02Z</time>
      </trkpt>
      <trkpt lat="45.93428" lon="4.76849">
        <ele>171</ele>
        <time>2017-03-15T11:40:03Z</time>
      </trkpt>
      <trkpt lat="45.93425" lon="4.76843">
        <ele>171</ele>
        <time>2017-03-15T11:40:04Z</time>
      </trkpt>
      <trkpt lat="45.93422" lon="4.76837">
        <ele>172</ele>
        <time>2017-03-15T11:40:05Z</time>
      </trkpt>
      <trkpt lat="45.93419" lon="4.7683">
        <ele>172</ele>
        <time>2017-03-15T11:40:06Z</time>
      </trkpt>
      <trkpt lat="45.93415" lon="4.76824">
        <ele>172</ele>
        <time>2017-03-15T11:40:07Z</time>
      </trkpt>
      <trkpt lat="45.93411" lon="4.76819">
        <ele>172</ele>
        <time>2017-03-15T11:40:08Z</time>
      </trkpt>
      <trkpt lat="45.93407" lon="4.76813">
        <ele>172</ele>
        <time>2017-03-15T11:40:09Z</time>
      </trkpt>
      <trkpt lat="45.93403" lon="4.76807">
        <ele>172</ele>
        <time>2017-03-15T11:40:10Z</time>
      </trkpt>
      <trkpt lat="45.93399" lon="4.76802">
        <ele>172</ele>
        <time>2017-03-15T11:40:11Z</time>
      </trkpt>
      <trkpt lat="45.93395" lon="4.76796">
        <ele>172</ele>
        <time>2017-03-15T11:40:12Z</time>
      </trkpt>
      <trkpt lat="45.9339" lon="4.76791">
        <ele>172</ele>
        <time>2017-03-15T11:40:13Z</time>
      </trkpt>
      <trkpt lat="45.93386" lon="4.76786">
        <ele>172</ele>
        <time>2017-03-15T11:40:14Z</time>
      </trkpt>
      <trkpt lat="45.93381" lon="4.76781">
        <ele>172</ele>
        <time>2017-03-15T11:40:15Z</time>
      </trkpt>
      <trkpt lat="45.93376" lon="4.76777">
        <ele>172</ele>
        <time>2017-03-15T11:40:16Z</time>
      </trkpt>
      <trkpt lat="45.93372" lon="4.76772">
        <ele>172</ele>
        <time>2017-03-15T11:40:17Z</time>
      </trkpt>
      <trkpt lat="45.93368" lon="4.76767">
        <ele>172</ele>
        <time>2017-03-15T11:40:18Z</time>
      </trkpt>
      <trkpt lat="45.93364" lon="4.76762">
        <ele>172</ele>
        <time>2017-03-15T11:40:19Z</time>
      </trkpt>
      <trkpt lat="45.9336" lon="4.76758">
        <ele>172</ele>
        <time>2017-03-15T11:40:20Z</time>
      </trkpt>
      <trkpt lat="45.93355" lon="4.76753">
        <ele>172</ele>
        <time>2017-03-15T11:40:21Z</time>
      </trkpt>
      <trkpt lat="45.93351" lon="4.76748">
        <ele>172</ele>
        <time>2017-03-15T11:40:22Z</time>
      </trkpt>
      <trkpt lat="45.93346" lon="4.76744">
        <ele>172</ele>
        <time>2017-03-15T11:40:23Z</time>
      </trkpt>
      <trkpt lat="45.93341" lon="4.76739">
        <ele>172</ele>
        <time>2017-03-15T11:40:24Z</time>
      </trkpt>
      <trkpt lat="45.93336" lon="4.76734">
        <ele>172</ele>
        <time>2017-03-15T11:40:25Z</time>
      </trkpt>
      <trkpt lat="45.93331" lon="4.76729">
        <ele>172</ele>
        <time>2017-03-15T11:40:26Z</time>
      </trkpt>
      <trkpt lat="45.93326" lon="4.76724">
        <ele>172</ele>
        <time>2017-03-15T11:40:27Z</time>
      </trkpt>
      <trkpt lat="45.93322" lon="4.76719">
        <ele>172</ele>
        <time>2017-03-15T11:40:28Z</time>
      </trkpt>
      <trkpt lat="45.93317" lon="4.76713">
        <ele>172</ele>
        <time>2017-03-15T11:40:29Z</time>
      </trkpt>
      <trkpt lat="45.93312" lon="4.76708">
        <ele>172</ele>
        <time>2017-03-15T11:40:30Z</time>
      </trkpt>
      <trkpt lat="45.93307" lon="4.76703">
        <ele>172</ele>
        <time>2017-03-15T11:40:31Z</time>
      </trkpt>
      <trkpt lat="45.93302" lon="4.76699">
        <ele>172</ele>
        <time>2017-03-15T11:40:32Z</time>
      </trkpt>
      <trkpt lat="45.93298" lon="4.76695">
        <ele>172</ele>
        <time>2017-03-15T11:40:33Z</time>
      </trkpt>
      <trkpt lat="45.93294" lon="4.7669">
        <ele>172</ele>
        <time>2017-03-15T11:40:34Z</time>
      </trkpt>
      <trkpt lat="45.93289" lon="4.76685">
        <ele>172</ele>
        <time>2017-03-15T11:40:35Z</time>
      </trkpt>
      <trkpt lat="45.93285" lon="4.76681">
        <ele>172</ele>
        <time>2017-03-15T11:40:36Z</time>
      </trkpt>
      <trkpt lat="45.93281" lon="4.76676">
        <ele>172</ele>
        <time>2017-03-15T11:40:37Z</time>
      </trkpt>
      <trkpt lat="45.93277" lon="4.76671">
        <ele>172</ele>
        <time>2017-03-15T11:40:38Z</time>
      </trkpt>
      <trkpt lat="45.93272" lon="4.76666">
        <ele>171</ele>
        <time>2017-03-15T11:40:39Z</time>
      </trkpt>
      <trkpt lat="45.93268" lon="4.7666">
        <ele>171</ele>
        <time>2017-03-15T11:40:40Z</time>
      </trkpt>
      <trkpt lat="45.93263" lon="4.76655">
        <ele>171</ele>
        <time>2017-03-15T11:40:41Z</time>
      </trkpt>
      <trkpt lat="45.93258" lon="4.7665">
        <ele>171</ele>
        <time>2017-03-15T11:40:42Z</time>
      </trkpt>
      <trkpt lat="45.93254" lon="4.76646">
        <ele>170</ele>
        <time>2017-03-15T11:40:43Z</time>
      </trkpt>
      <trkpt lat="45.93249" lon="4.76641">
        <ele>171</ele>
        <time>2017-03-15T11:40:44Z</time>
      </trkpt>
      <trkpt lat="45.93245" lon="4.76636">
        <ele>171</ele>
        <time>2017-03-15T11:40:45Z</time>
      </trkpt>
      <trkpt lat="45.93241" lon="4.76631">
        <ele>170</ele>
        <time>2017-03-15T11:40:46Z</time>
      </trkpt>
      <trkpt lat="45.93236" lon="4.76626">
        <ele>170</ele>
        <time>2017-03-15T11:40:47Z</time>
      </trkpt>
      <trkpt lat="45.93232" lon="4.76622">
        <ele>170</ele>
        <time>2017-03-15T11:40:48Z</time>
      </trkpt>
      <trkpt lat="45.93227" lon="4.76617">
        <ele>170</ele>
        <time>2017-03-15T11:40:49Z</time>
      </trkpt>
      <trkpt lat="45.93224" lon="4.76613">
        <ele>170</ele>
        <time>2017-03-15T11:40:50Z</time>
      </trkpt>
      <trkpt lat="45.93219" lon="4.76608">
        <ele>170</ele>
        <time>2017-03-15T11:40:51Z</time>
      </trkpt>
      <trkpt lat="45.93214" lon="4.76603">
        <ele>170</ele>
        <time>2017-03-15T11:40:52Z</time>
      </trkpt>
      <trkpt lat="45.93209" lon="4.76597">
        <ele>170</ele>
        <time>2017-03-15T11:40:53Z</time>
      </trkpt>
      <trkpt lat="45.93204" lon="4.76592">
        <ele>170</ele>
        <time>2017-03-15T11:40:54Z</time>
      </trkpt>
      <trkpt lat="45.93199" lon="4.76587">
        <ele>170</ele>
        <time>2017-03-15T11:40:55Z</time>
      </trkpt>
      <trkpt lat="45.93194" lon="4.76582">
        <ele>170</ele>
        <time>2017-03-15T11:40:56Z</time>
      </trkpt>
      <trkpt lat="45.93189" lon="4.76577">
        <ele>170</ele>
        <time>2017-03-15T11:40:57Z</time>
      </trkpt>
      <trkpt lat="45.93184" lon="4.76571">
        <ele>170</ele>
        <time>2017-03-15T11:40:58Z</time>
      </trkpt>
      <trkpt lat="45.93179" lon="4.76566">
        <ele>170</ele>
        <time>2017-03-15T11:40:59Z</time>
      </trkpt>
      <trkpt lat="45.93174" lon="4.7656">
        <ele>170</ele>
        <time>2017-03-15T11:41:00Z</time>
      </trkpt>
      <trkpt lat="45.93168" lon="4.76555">
        <ele>170</ele>
        <time>2017-03-15T11:41:01Z</time>
      </trkpt>
      <trkpt lat="45.93163" lon="4.7655">
        <ele>170</ele>
        <time>2017-03-15T11:41:02Z</time>
      </trkpt>
      <trkpt lat="45.93157" lon="4.76544">
        <ele>170</ele>
        <time>2017-03-15T11:41:03Z</time>
      </trkpt>
      <trkpt lat="45.93152" lon="4.76539">
        <ele>170</ele>
        <time>2017-03-15T11:41:04Z</time>
      </trkpt>
      <trkpt lat="45.93146" lon="4.76533">
        <ele>170</ele>
        <time>2017-03-15T11:41:05Z</time>
      </trkpt>
      <trkpt lat="45.93141" lon="4.76527">
        <ele>170</ele>
        <time>2017-03-15T11:41:06Z</time>
      </trkpt>
      <trkpt lat="45.93135" lon="4.76521">
        <ele>170</ele>
        <time>2017-03-15T11:41:07Z</time>
      </trkpt>
      <trkpt lat="45.9313" lon="4.76516">
        <ele>170</ele>
        <time>2017-03-15T11:41:08Z</time>
      </trkpt>
      <trkpt lat="45.93124" lon="4.76512">
        <ele>170</ele>
        <time>2017-03-15T11:41:09Z</time>
      </trkpt>
      <trkpt lat="45.93119" lon="4.76508">
        <ele>170</ele>
        <time>2017-03-15T11:41:10Z</time>
      </trkpt>
      <trkpt lat="45.93113" lon="4.76504">
        <ele>170</ele>
        <time>2017-03-15T11:41:11Z</time>
      </trkpt>
      <trkpt lat="45.93108" lon="4.765">
        <ele>169</ele>
        <time>2017-03-15T11:41:12Z</time>
      </trkpt>
      <trkpt lat="45.93104" lon="4.76496">
        <ele>169</ele>
        <time>2017-03-15T11:41:13Z</time>
      </trkpt>
      <trkpt lat="45.931" lon="4.76491">
        <ele>169</ele>
        <time>2017-03-15T11:41:14Z</time>
      </trkpt>
      <trkpt lat="45.93095" lon="4.76487">
        <ele>169</ele>
        <time>2017-03-15T11:41:15Z</time>
      </trkpt>
      <trkpt lat="45.9309" lon="4.76482">
        <ele>169</ele>
        <time>2017-03-15T11:41:16Z</time>
      </trkpt>
      <trkpt lat="45.93085" lon="4.76477">
        <ele>169</ele>
        <time>2017-03-15T11:41:17Z</time>
      </trkpt>
      <trkpt lat="45.9308" lon="4.76473">
        <ele>169</ele>
        <time>2017-03-15T11:41:18Z</time>
      </trkpt>
      <trkpt lat="45.93075" lon="4.76468">
        <ele>169</ele>
        <time>2017-03-15T11:41:19Z</time>
      </trkpt>
      <trkpt lat="45.9307" lon="4.76463">
        <ele>169</ele>
        <time>2017-03-15T11:41:20Z</time>
      </trkpt>
      <trkpt lat="45.93066" lon="4.76459">
        <ele>169</ele>
        <time>2017-03-15T11:41:21Z</time>
      </trkpt>
      <trkpt lat="45.93061" lon="4.76454">
        <ele>169</ele>
        <time>2017-03-15T11:41:22Z</time>
      </trkpt>
      <trkpt lat="45.93057" lon="4.7645">
        <ele>169</ele>
        <time>2017-03-15T11:41:23Z</time>
      </trkpt>
      <trkpt lat="45.93053" lon="4.76446">
        <ele>169</ele>
        <time>2017-03-15T11:41:24Z</time>
      </trkpt>
      <trkpt lat="45.93048" lon="4.76442">
        <ele>169</ele>
        <time>2017-03-15T11:41:25Z</time>
      </trkpt>
      <trkpt lat="45.93044" lon="4.76438">
        <ele>169</ele>
        <time>2017-03-15T11:41:26Z</time>
      </trkpt>
      <trkpt lat="45.9304" lon="4.76434">
        <ele>169</ele>
        <time>2017-03-15T11:41:27Z</time>
      </trkpt>
      <trkpt lat="45.93036" lon="4.7643">
        <ele>169</ele>
        <time>2017-03-15T11:41:28Z</time>
      </trkpt>
      <trkpt lat="45.93032" lon="4.76426">
        <ele>169</ele>
        <time>2017-03-15T11:41:29Z</time>
      </trkpt>
      <trkpt lat="45.93027" lon="4.76422">
        <ele>169</ele>
        <time>2017-03-15T11:41:30Z</time>
      </trkpt>
      <trkpt lat="45.93022" lon="4.76418">
        <ele>169</ele>
        <time>2017-03-15T11:41:31Z</time>
      </trkpt>
      <trkpt lat="45.93016" lon="4.76414">
        <ele>169</ele>
        <time>2017-03-15T11:41:32Z</time>
      </trkpt>
      <trkpt lat="45.93011" lon="4.7641">
        <ele>169</ele>
        <time>2017-03-15T11:41:33Z</time>
      </trkpt>
      <trkpt lat="45.93007" lon="4.76404">
        <ele>169</ele>
        <time>2017-03-15T11:41:34Z</time>
      </trkpt>
      <trkpt lat="45.93002" lon="4.76399">
        <ele>169</ele>
        <time>2017-03-15T11:41:35Z</time>
      </trkpt>
      <trkpt lat="45.92997" lon="4.76394">
        <ele>169</ele>
        <time>2017-03-15T11:41:36Z</time>
      </trkpt>
      <trkpt lat="45.92992" lon="4.7639">
        <ele>169</ele>
        <time>2017-03-15T11:41:37Z</time>
      </trkpt>
      <trkpt lat="45.92988" lon="4.76385">
        <ele>169</ele>
        <time>2017-03-15T11:41:38Z</time>
      </trkpt>
      <trkpt lat="45.92983" lon="4.76381">
        <ele>169</ele>
        <time>2017-03-15T11:41:39Z</time>
      </trkpt>
      <trkpt lat="45.92979" lon="4.76376">
        <ele>169</ele>
        <time>2017-03-15T11:41:40Z</time>
      </trkpt>
      <trkpt lat="45.92974" lon="4.76371">
        <ele>169</ele>
        <time>2017-03-15T11:41:41Z</time>
      </trkpt>
      <trkpt lat="45.92969" lon="4.76367">
        <ele>169</ele>
        <time>2017-03-15T11:41:42Z</time>
      </trkpt>
      <trkpt lat="45.92963" lon="4.76362">
        <ele>169</ele>
        <time>2017-03-15T11:41:43Z</time>
      </trkpt>
      <trkpt lat="45.92959" lon="4.76357">
        <ele>169</ele>
        <time>2017-03-15T11:41:44Z</time>
      </trkpt>
      <trkpt lat="45.92954" lon="4.76352">
        <ele>169</ele>
        <time>2017-03-15T11:41:45Z</time>
      </trkpt>
      <trkpt lat="45.9295" lon="4.76348">
        <ele>169</ele>
        <time>2017-03-15T11:41:46Z</time>
      </trkpt>
      <trkpt lat="45.92945" lon="4.76343">
        <ele>169</ele>
        <time>2017-03-15T11:41:47Z</time>
      </trkpt>
      <trkpt lat="45.92941" lon="4.76339">
        <ele>169</ele>
        <time>2017-03-15T11:41:48Z</time>
      </trkpt>
      <trkpt lat="45.92936" lon="4.76334">
        <ele>169</ele>
        <time>2017-03-15T11:41:49Z</time>
      </trkpt>
      <trkpt lat="45.92932" lon="4.7633">
        <ele>169</ele>
        <time>2017-03-15T11:41:50Z</time>
      </trkpt>
      <trkpt lat="45.92927" lon="4.76325">
        <ele>169</ele>
        <time>2017-03-15T11:41:51Z</time>
      </trkpt>
      <trkpt lat="45.92923" lon="4.76321">
        <ele>169</ele>
        <time>2017-03-15T11:41:52Z</time>
      </trkpt>
      <trkpt lat="45.92919" lon="4.76317">
        <ele>169</ele>
        <time>2017-03-15T11:41:53Z</time>
      </trkpt>
      <trkpt lat="45.92914" lon="4.76312">
        <ele>169</ele>
        <time>2017-03-15T11:41:54Z</time>
      </trkpt>
      <trkpt lat="45.9291" lon="4.76307">
        <ele>169</ele>
        <time>2017-03-15T11:41:55Z</time>
      </trkpt>
      <trkpt lat="45.92906" lon="4.76303">
        <ele>169</ele>
        <time>2017-03-15T11:41:56Z</time>
      </trkpt>
      <trkpt lat="45.92902" lon="4.76299">
        <ele>169</ele>
        <time>2017-03-15T11:41:57Z</time>
      </trkpt>
      <trkpt lat="45.92898" lon="4.76294">
        <ele>169</ele>
        <time>2017-03-15T11:41:58Z</time>
      </trkpt>
      <trkpt lat="45.92893" lon="4.76289">
        <ele>169</ele>
        <time>2017-03-15T11:41:59Z</time>
      </trkpt>
      <trkpt lat="45.92889" lon="4.76284">
        <ele>169</ele>
        <time>2017-03-15T11:42:00Z</time>
      </trkpt>
      <trkpt lat="45.92884" lon="4.7628">
        <ele>169</ele>
        <time>2017-03-15T11:42:01Z</time>
      </trkpt>
      <trkpt lat="45.9288" lon="4.76276">
        <ele>169</ele>
        <time>2017-03-15T11:42:02Z</time>
      </trkpt>
      <trkpt lat="45.92877" lon="4.76272">
        <ele>169</ele>
        <time>2017-03-15T11:42:03Z</time>
      </trkpt>
      <trkpt lat="45.92873" lon="4.76267">
        <ele>169</ele>
        <time>2017-03-15T11:42:04Z</time>
      </trkpt>
      <trkpt lat="45.92869" lon="4.76263">
        <ele>169</ele>
        <time>2017-03-15T11:42:05Z</time>
      </trkpt>
      <trkpt lat="45.92864" lon="4.76258">
        <ele>169</ele>
        <time>2017-03-15T11:42:06Z</time>
      </trkpt>
      <trkpt lat="45.9286" lon="4.76254">
        <ele>169</ele>
        <time>2017-03-15T11:42:07Z</time>
      </trkpt>
      <trkpt lat="45.92856" lon="4.76249">
        <ele>169</ele>
        <time>2017-03-15T11:42:08Z</time>
      </trkpt>
      <trkpt lat="45.92851" lon="4.76244">
        <ele>169</ele>
        <time>2017-03-15T11:42:09Z</time>
      </trkpt>
      <trkpt lat="45.92846" lon="4.76239">
        <ele>169</ele>
        <time>2017-03-15T11:42:10Z</time>
      </trkpt>
      <trkpt lat="45.92841" lon="4.76233">
        <ele>169</ele>
        <time>2017-03-15T11:42:11Z</time>
      </trkpt>
      <trkpt lat="45.92836" lon="4.76228">
        <ele>168</ele>
        <time>2017-03-15T11:42:12Z</time>
      </trkpt>
      <trkpt lat="45.9283" lon="4.76223">
        <ele>168</ele>
        <time>2017-03-15T11:42:13Z</time>
      </trkpt>
      <trkpt lat="45.92825" lon="4.76219">
        <ele>168</ele>
        <time>2017-03-15T11:42:14Z</time>
      </trkpt>
      <trkpt lat="45.9282" lon="4.76214">
        <ele>168</ele>
        <time>2017-03-15T11:42:15Z</time>
      </trkpt>
      <trkpt lat="45.92816" lon="4.7621">
        <ele>168</ele>
        <time>2017-03-15T11:42:16Z</time>
      </trkpt>
      <trkpt lat="45.92811" lon="4.76205">
        <ele>168</ele>
        <time>2017-03-15T11:42:17Z</time>
      </trkpt>
      <trkpt lat="45.92806" lon="4.76201">
        <ele>168</ele>
        <time>2017-03-15T11:42:18Z</time>
      </trkpt>
      <trkpt lat="45.92801" lon="4.76197">
        <ele>168</ele>
        <time>2017-03-15T11:42:19Z</time>
      </trkpt>
      <trkpt lat="45.92796" lon="4.76192">
        <ele>168</ele>
        <time>2017-03-15T11:42:20Z</time>
      </trkpt>
      <trkpt lat="45.92791" lon="4.76189">
        <ele>168</ele>
        <time>2017-03-15T11:42:21Z</time>
      </trkpt>
      <trkpt lat="45.92787" lon="4.76185">
        <ele>168</ele>
        <time>2017-03-15T11:42:22Z</time>
      </trkpt>
      <trkpt lat="45.92782" lon="4.7618">
        <ele>168</ele>
        <time>2017-03-15T11:42:23Z</time>
      </trkpt>
      <trkpt lat="45.92777" lon="4.76176">
        <ele>167</ele>
        <time>2017-03-15T11:42:24Z</time>
      </trkpt>
      <trkpt lat="45.92773" lon="4.76172">
        <ele>167</ele>
        <time>2017-03-15T11:42:25Z</time>
      </trkpt>
      <trkpt lat="45.92768" lon="4.76167">
        <ele>167</ele>
        <time>2017-03-15T11:42:26Z</time>
      </trkpt>
      <trkpt lat="45.92764" lon="4.76163">
        <ele>167</ele>
        <time>2017-03-15T11:42:27Z</time>
      </trkpt>
      <trkpt lat="45.92759" lon="4.76159">
        <ele>167</ele>
        <time>2017-03-15T11:42:28Z</time>
      </trkpt>
      <trkpt lat="45.92754" lon="4.76155">
        <ele>167</ele>
        <time>2017-03-15T11:42:29Z</time>
      </trkpt>
      <trkpt lat="45.9275" lon="4.7615">
        <ele>168</ele>
        <time>2017-03-15T11:42:30Z</time>
      </trkpt>
      <trkpt lat="45.92745" lon="4.76146">
        <ele>168</ele>
        <time>2017-03-15T11:42:31Z</time>
      </trkpt>
      <trkpt lat="45.9274" lon="4.76142">
        <ele>168</ele>
        <time>2017-03-15T11:42:32Z</time>
      </trkpt>
      <trkpt lat="45.92734" lon="4.76137">
        <ele>168</ele>
        <time>2017-03-15T11:42:33Z</time>
      </trkpt>
      <trkpt lat="45.92729" lon="4.76133">
        <ele>168</ele>
        <time>2017-03-15T11:42:34Z</time>
      </trkpt>
      <trkpt lat="45.92724" lon="4.76129">
        <ele>168</ele>
        <time>2017-03-15T11:42:35Z</time>
      </trkpt>
      <trkpt lat="45.92719" lon="4.76125">
        <ele>168</ele>
        <time>2017-03-15T11:42:36Z</time>
      </trkpt>
      <trkpt lat="45.92715" lon="4.76121">
        <ele>168</ele>
        <time>2017-03-15T11:42:37Z</time>
      </trkpt>
      <trkpt lat="45.92709" lon="4.76118">
        <ele>168</ele>
        <time>2017-03-15T11:42:38Z</time>
      </trkpt>
      <trkpt lat="45.92705" lon="4.76114">
        <ele>169</ele>
        <time>2017-03-15T11:42:39Z</time>
      </trkpt>
      <trkpt lat="45.927" lon="4.76111">
        <ele>169</ele>
        <time>2017-03-15T11:42:40Z</time>
      </trkpt>
      <trkpt lat="45.92695" lon="4.76109">
        <ele>169</ele>
        <time>2017-03-15T11:42:41Z</time>
      </trkpt>
      <trkpt lat="45.92691" lon="4.76106">
        <ele>169</ele>
        <time>2017-03-15T11:42:42Z</time>
      </trkpt>
      <trkpt lat="45.92686" lon="4.76102">
        <ele>169</ele>
        <time>2017-03-15T11:42:43Z</time>
      </trkpt>
      <trkpt lat="45.92682" lon="4.76099">
        <ele>169</ele>
        <time>2017-03-15T11:42:44Z</time>
      </trkpt>
      <trkpt lat="45.92678" lon="4.76095">
        <ele>169</ele>
        <time>2017-03-15T11:42:45Z</time>
      </trkpt>
      <trkpt lat="45.92674" lon="4.76092">
        <ele>169</ele>
        <time>2017-03-15T11:42:46Z</time>
      </trkpt>
      <trkpt lat="45.92669" lon="4.76088">
        <ele>170</ele>
        <time>2017-03-15T11:42:47Z</time>
      </trkpt>
      <trkpt lat="45.92665" lon="4.76085">
        <ele>170</ele>
        <time>2017-03-15T11:42:48Z</time>
      </trkpt>
      <trkpt lat="45.9266" lon="4.76082">
        <ele>170</ele>
        <time>2017-03-15T11:42:49Z</time>
      </trkpt>
      <trkpt lat="45.92656" lon="4.76078">
        <ele>170</ele>
        <time>2017-03-15T11:42:50Z</time>
      </trkpt>
      <trkpt lat="45.92651" lon="4.76075">
        <ele>170</ele>
        <time>2017-03-15T11:42:51Z</time>
      </trkpt>
      <trkpt lat="45.92647" lon="4.76072">
        <ele>170</ele>
        <time>2017-03-15T11:42:52Z</time>
      </trkpt>
      <trkpt lat="45.92642" lon="4.76068">
        <ele>170</ele>
        <time>2017-03-15T11:42:53Z</time>
      </trkpt>
      <trkpt lat="45.92638" lon="4.76064">
        <ele>170</ele>
        <time>2017-03-15T11:42:54Z</time>
      </trkpt>
      <trkpt lat="45.92633" lon="4.7606">
        <ele>170</ele>
        <time>2017-03-15T11:42:55Z</time>
      </trkpt>
      <trkpt lat="45.92629" lon="4.76057">
        <ele>170</ele>
        <time>2017-03-15T11:42:56Z</time>
      </trkpt>
      <trkpt lat="45.92624" lon="4.76054">
        <ele>171</ele>
        <time>2017-03-15T11:42:57Z</time>
      </trkpt>
      <trkpt lat="45.92619" lon="4.7605">
        <ele>171</ele>
        <time>2017-03-15T11:42:58Z</time>
      </trkpt>
      <trkpt lat="45.92614" lon="4.76047">
        <ele>171</ele>
        <time>2017-03-15T11:42:59Z</time>
      </trkpt>
      <trkpt lat="45.9261" lon="4.76043">
        <ele>171</ele>
        <time>2017-03-15T11:43:00Z</time>
      </trkpt>
      <trkpt lat="45.92605" lon="4.7604">
        <ele>171</ele>
        <time>2017-03-15T11:43:01Z</time>
      </trkpt>
      <trkpt lat="45.926" lon="4.76037">
        <ele>171</ele>
        <time>2017-03-15T11:43:02Z</time>
      </trkpt>
      <trkpt lat="45.92596" lon="4.76034">
        <ele>171</ele>
        <time>2017-03-15T11:43:03Z</time>
      </trkpt>
      <trkpt lat="45.92591" lon="4.76031">
        <ele>171</ele>
        <time>2017-03-15T11:43:04Z</time>
      </trkpt>
      <trkpt lat="45.92586" lon="4.76027">
        <ele>171</ele>
        <time>2017-03-15T11:43:05Z</time>
      </trkpt>
      <trkpt lat="45.92581" lon="4.76024">
        <ele>172</ele>
        <time>2017-03-15T11:43:06Z</time>
      </trkpt>
      <trkpt lat="45.92577" lon="4.76022">
        <ele>172</ele>
        <time>2017-03-15T11:43:07Z</time>
      </trkpt>
      <trkpt lat="45.92572" lon="4.7602">
        <ele>172</ele>
        <time>2017-03-15T11:43:08Z</time>
      </trkpt>
      <trkpt lat="45.92567" lon="4.76017">
        <ele>172</ele>
        <time>2017-03-15T11:43:09Z</time>
      </trkpt>
      <trkpt lat="45.92563" lon="4.76014">
        <ele>172</ele>
        <time>2017-03-15T11:43:10Z</time>
      </trkpt>
      <trkpt lat="45.92558" lon="4.76012">
        <ele>172</ele>
        <time>2017-03-15T11:43:11Z</time>
      </trkpt>
      <trkpt lat="45.92554" lon="4.76009">
        <ele>172</ele>
        <time>2017-03-15T11:43:12Z</time>
      </trkpt>
      <trkpt lat="45.92549" lon="4.76006">
        <ele>172</ele>
        <time>2017-03-15T11:43:13Z</time>
      </trkpt>
      <trkpt lat="45.92545" lon="4.76003">
        <ele>172</ele>
        <time>2017-03-15T11:43:14Z</time>
      </trkpt>
      <trkpt lat="45.92541" lon="4.76">
        <ele>172</ele>
        <time>2017-03-15T11:43:15Z</time>
      </trkpt>
      <trkpt lat="45.92537" lon="4.75998">
        <ele>172</ele>
        <time>2017-03-15T11:43:16Z</time>
      </trkpt>
      <trkpt lat="45.92533" lon="4.75995">
        <ele>172</ele>
        <time>2017-03-15T11:43:17Z</time>
      </trkpt>
      <trkpt lat="45.92528" lon="4.75992">
        <ele>172</ele>
        <time>2017-03-15T11:43:18Z</time>
      </trkpt>
      <trkpt lat="45.92524" lon="4.75989">
        <ele>172</ele>
        <time>2017-03-15T11:43:19Z</time>
      </trkpt>
      <trkpt lat="45.92516" lon="4.75984">
        <ele>172</ele>
        <time>2017-03-15T11:43:21Z</time>
      </trkpt>
      <trkpt lat="45.92512" lon="4.75982">
        <ele>172</ele>
        <time>2017-03-15T11:43:22Z</time>
      </trkpt>
      <trkpt lat="45.92504" lon="4.75976">
        <ele>172</ele>
        <time>2017-03-15T11:43:24Z</time>
      </trkpt>
      <trkpt lat="45.925" lon="4.75973">
        <ele>172</ele>
        <time>2017-03-15T11:43:25Z</time>
      </trkpt>
      <trkpt lat="45.92496" lon="4.7597">
        <ele>172</ele>
        <time>2017-03-15T11:43:26Z</time>
      </trkpt>
      <trkpt lat="45.92492" lon="4.75967">
        <ele>172</ele>
        <time>2017-03-15T11:43:27Z</time>
      </trkpt>
      <trkpt lat="45.92488" lon="4.75964">
        <ele>172</ele>
        <time>2017-03-15T11:43:28Z</time>
      </trkpt>
      <trkpt lat="45.92483" lon="4.75961">
        <ele>172</ele>
        <time>2017-03-15T11:43:29Z</time>
      </trkpt>
      <trkpt lat="45.92479" lon="4.75958">
        <ele>172</ele>
        <time>2017-03-15T11:43:30Z</time>
      </trkpt>
      <trkpt lat="45.92474" lon="4.75955">
        <ele>172</ele>
        <time>2017-03-15T11:43:31Z</time>
      </trkpt>
      <trkpt lat="45.92469" lon="4.75952">
        <ele>172</ele>
        <time>2017-03-15T11:43:32Z</time>
      </trkpt>
      <trkpt lat="45.92464" lon="4.75949">
        <ele>172</ele>
        <time>2017-03-15T11:43:33Z</time>
      </trkpt>
      <trkpt lat="45.92459" lon="4.75945">
        <ele>172</ele>
        <time>2017-03-15T11:43:34Z</time>
      </trkpt>
      <trkpt lat="45.92454" lon="4.75941">
        <ele>172</ele>
        <time>2017-03-15T11:43:35Z</time>
      </trkpt>
      <trkpt lat="45.92449" lon="4.75937">
        <ele>172</ele>
        <time>2017-03-15T11:43:36Z</time>
      </trkpt>
      <trkpt lat="45.92444" lon="4.75933">
        <ele>172</ele>
        <time>2017-03-15T11:43:37Z</time>
      </trkpt>
      <trkpt lat="45.92438" lon="4.75929">
        <ele>172</ele>
        <time>2017-03-15T11:43:38Z</time>
      </trkpt>
      <trkpt lat="45.92433" lon="4.75925">
        <ele>172</ele>
        <time>2017-03-15T11:43:39Z</time>
      </trkpt>
      <trkpt lat="45.92427" lon="4.75921">
        <ele>172</ele>
        <time>2017-03-15T11:43:40Z</time>
      </trkpt>
      <trkpt lat="45.92421" lon="4.75917">
        <ele>172</ele>
        <time>2017-03-15T11:43:41Z</time>
      </trkpt>
      <trkpt lat="45.92415" lon="4.75913">
        <ele>172</ele>
        <time>2017-03-15T11:43:42Z</time>
      </trkpt>
      <trkpt lat="45.92409" lon="4.75909">
        <ele>172</ele>
        <time>2017-03-15T11:43:43Z</time>
      </trkpt>
      <trkpt lat="45.92403" lon="4.75904">
        <ele>173</ele>
        <time>2017-03-15T11:43:44Z</time>
      </trkpt>
      <trkpt lat="45.92396" lon="4.759">
        <ele>173</ele>
        <time>2017-03-15T11:43:45Z</time>
      </trkpt>
      <trkpt lat="45.9239" lon="4.75896">
        <ele>173</ele>
        <time>2017-03-15T11:43:46Z</time>
      </trkpt>
      <trkpt lat="45.92384" lon="4.75892">
        <ele>173</ele>
        <time>2017-03-15T11:43:47Z</time>
      </trkpt>
      <trkpt lat="45.92378" lon="4.75888">
        <ele>173</ele>
        <time>2017-03-15T11:43:48Z</time>
      </trkpt>
      <trkpt lat="45.92372" lon="4.75884">
        <ele>173</ele>
        <time>2017-03-15T11:43:49Z</time>
      </trkpt>
      <trkpt lat="45.92366" lon="4.75879">
        <ele>173</ele>
        <time>2017-03-15T11:43:50Z</time>
      </trkpt>
      <trkpt lat="45.9236" lon="4.75876">
        <ele>173</ele>
        <time>2017-03-15T11:43:51Z</time>
      </trkpt>
      <trkpt lat="45.92354" lon="4.75872">
        <ele>173</ele>
        <time>2017-03-15T11:43:52Z</time>
      </trkpt>
      <trkpt lat="45.92348" lon="4.75869">
        <ele>173</ele>
        <time>2017-03-15T11:43:53Z</time>
      </trkpt>
      <trkpt lat="45.92342" lon="4.75866">
        <ele>173</ele>
        <time>2017-03-15T11:43:54Z</time>
      </trkpt>
      <trkpt lat="45.92337" lon="4.75862">
        <ele>173</ele>
        <time>2017-03-15T11:43:55Z</time>
      </trkpt>
      <trkpt lat="45.92331" lon="4.75859">
        <ele>173</ele>
        <time>2017-03-15T11:43:56Z</time>
      </trkpt>
      <trkpt lat="45.92326" lon="4.75856">
        <ele>174</ele>
        <time>2017-03-15T11:43:57Z</time>
      </trkpt>
      <trkpt lat="45.92321" lon="4.75853">
        <ele>174</ele>
        <time>2017-03-15T11:43:58Z</time>
      </trkpt>
      <trkpt lat="45.92315" lon="4.7585">
        <ele>174</ele>
        <time>2017-03-15T11:43:59Z</time>
      </trkpt>
      <trkpt lat="45.9231" lon="4.75845">
        <ele>173</ele>
        <time>2017-03-15T11:44:00Z</time>
      </trkpt>
      <trkpt lat="45.92304" lon="4.75842">
        <ele>173</ele>
        <time>2017-03-15T11:44:01Z</time>
      </trkpt>
      <trkpt lat="45.92299" lon="4.75839">
        <ele>173</ele>
        <time>2017-03-15T11:44:02Z</time>
      </trkpt>
      <trkpt lat="45.92293" lon="4.75835">
        <ele>173</ele>
        <time>2017-03-15T11:44:03Z</time>
      </trkpt>
      <trkpt lat="45.92287" lon="4.75831">
        <ele>174</ele>
        <time>2017-03-15T11:44:04Z</time>
      </trkpt>
      <trkpt lat="45.92282" lon="4.75827">
        <ele>174</ele>
        <time>2017-03-15T11:44:05Z</time>
      </trkpt>
      <trkpt lat="45.92277" lon="4.75823">
        <ele>174</ele>
        <time>2017-03-15T11:44:06Z</time>
      </trkpt>
      <trkpt lat="45.92272" lon="4.75817">
        <ele>174</ele>
        <time>2017-03-15T11:44:07Z</time>
      </trkpt>
      <trkpt lat="45.92268" lon="4.7581">
        <ele>174</ele>
        <time>2017-03-15T11:44:08Z</time>
      </trkpt>
      <trkpt lat="45.92264" lon="4.75803">
        <ele>174</ele>
        <time>2017-03-15T11:44:09Z</time>
      </trkpt>
      <trkpt lat="45.92261" lon="4.75796">
        <ele>174</ele>
        <time>2017-03-15T11:44:10Z</time>
      </trkpt>
      <trkpt lat="45.92259" lon="4.75788">
        <ele>174</ele>
        <time>2017-03-15T11:44:11Z</time>
      </trkpt>
      <trkpt lat="45.92257" lon="4.75779">
        <ele>174</ele>
        <time>2017-03-15T11:44:12Z</time>
      </trkpt>
      <trkpt lat="45.92255" lon="4.75772">
        <ele>174</ele>
        <time>2017-03-15T11:44:13Z</time>
      </trkpt>
      <trkpt lat="45.92253" lon="4.75763">
        <ele>174</ele>
        <time>2017-03-15T11:44:14Z</time>
      </trkpt>
      <trkpt lat="45.92251" lon="4.75755">
        <ele>174</ele>
        <time>2017-03-15T11:44:15Z</time>
      </trkpt>
      <trkpt lat="45.92249" lon="4.75747">
        <ele>174</ele>
        <time>2017-03-15T11:44:16Z</time>
      </trkpt>
      <trkpt lat="45.92248" lon="4.75739">
        <ele>174</ele>
        <time>2017-03-15T11:44:17Z</time>
      </trkpt>
      <trkpt lat="45.92246" lon="4.75731">
        <ele>174</ele>
        <time>2017-03-15T11:44:18Z</time>
      </trkpt>
      <trkpt lat="45.92244" lon="4.75724">
        <ele>174</ele>
        <time>2017-03-15T11:44:19Z</time>
      </trkpt>
      <trkpt lat="45.92241" lon="4.75717">
        <ele>174</ele>
        <time>2017-03-15T11:44:20Z</time>
      </trkpt>
      <trkpt lat="45.92238" lon="4.75711">
        <ele>174</ele>
        <time>2017-03-15T11:44:21Z</time>
      </trkpt>
      <trkpt lat="45.92234" lon="4.75704">
        <ele>174</ele>
        <time>2017-03-15T11:44:22Z</time>
      </trkpt>
      <trkpt lat="45.92231" lon="4.75699">
        <ele>174</ele>
        <time>2017-03-15T11:44:23Z</time>
      </trkpt>
      <trkpt lat="45.92226" lon="4.75694">
        <ele>174</ele>
        <time>2017-03-15T11:44:24Z</time>
      </trkpt>
      <trkpt lat="45.92222" lon="4.75689">
        <ele>174</ele>
        <time>2017-03-15T11:44:25Z</time>
      </trkpt>
      <trkpt lat="45.92218" lon="4.75684">
        <ele>174</ele>
        <time>2017-03-15T11:44:26Z</time>
      </trkpt>
      <trkpt lat="45.92213" lon="4.7568">
        <ele>174</ele>
        <time>2017-03-15T11:44:27Z</time>
      </trkpt>
      <trkpt lat="45.92209" lon="4.75675">
        <ele>174</ele>
        <time>2017-03-15T11:44:28Z</time>
      </trkpt>
      <trkpt lat="45.92204" lon="4.75671">
        <ele>174</ele>
        <time>2017-03-15T11:44:29Z</time>
      </trkpt>
      <trkpt lat="45.922" lon="4.75667">
        <ele>174</ele>
        <time>2017-03-15T11:44:30Z</time>
      </trkpt>
      <trkpt lat="45.92196" lon="4.75662">
        <ele>174</ele>
        <time>2017-03-15T11:44:31Z</time>
      </trkpt>
      <trkpt lat="45.92192" lon="4.75658">
        <ele>174</ele>
        <time>2017-03-15T11:44:32Z</time>
      </trkpt>
      <trkpt lat="45.92187" lon="4.75654">
        <ele>174</ele>
        <time>2017-03-15T11:44:33Z</time>
      </trkpt>
      <trkpt lat="45.92183" lon="4.75649">
        <ele>174</ele>
        <time>2017-03-15T11:44:34Z</time>
      </trkpt>
      <trkpt lat="45.92179" lon="4.75645">
        <ele>174</ele>
        <time>2017-03-15T11:44:35Z</time>
      </trkpt>
      <trkpt lat="45.92175" lon="4.75641">
        <ele>174</ele>
        <time>2017-03-15T11:44:36Z</time>
      </trkpt>
      <trkpt lat="45.92171" lon="4.75636">
        <ele>174</ele>
        <time>2017-03-15T11:44:37Z</time>
      </trkpt>
      <trkpt lat="45.92166" lon="4.75631">
        <ele>174</ele>
        <time>2017-03-15T11:44:38Z</time>
      </trkpt>
      <trkpt lat="45.92161" lon="4.75627">
        <ele>174</ele>
        <time>2017-03-15T11:44:39Z</time>
      </trkpt>
      <trkpt lat="45.92156" lon="4.75622">
        <ele>174</ele>
        <time>2017-03-15T11:44:40Z</time>
      </trkpt>
      <trkpt lat="45.92151" lon="4.75617">
        <ele>174</ele>
        <time>2017-03-15T11:44:41Z</time>
      </trkpt>
      <trkpt lat="45.92146" lon="4.75613">
        <ele>174</ele>
        <time>2017-03-15T11:44:42Z</time>
      </trkpt>
      <trkpt lat="45.92141" lon="4.75608">
        <ele>174</ele>
        <time>2017-03-15T11:44:43Z</time>
      </trkpt>
      <trkpt lat="45.92137" lon="4.75604">
        <ele>174</ele>
        <time>2017-03-15T11:44:44Z</time>
      </trkpt>
      <trkpt lat="45.92132" lon="4.75599">
        <ele>174</ele>
        <time>2017-03-15T11:44:45Z</time>
      </trkpt>
      <trkpt lat="45.92128" lon="4.75595">
        <ele>174</ele>
        <time>2017-03-15T11:44:46Z</time>
      </trkpt>
      <trkpt lat="45.92124" lon="4.75591">
        <ele>174</ele>
        <time>2017-03-15T11:44:47Z</time>
      </trkpt>
      <trkpt lat="45.92121" lon="4.75586">
        <ele>174</ele>
        <time>2017-03-15T11:44:48Z</time>
      </trkpt>
      <trkpt lat="45.92118" lon="4.7558">
        <ele>174</ele>
        <time>2017-03-15T11:44:49Z</time>
      </trkpt>
      <trkpt lat="45.92114" lon="4.75569">
        <ele>174</ele>
        <time>2017-03-15T11:44:51Z</time>
      </trkpt>
      <trkpt lat="45.92115" lon="4.75563">
        <ele>174</ele>
        <time>2017-03-15T11:44:52Z</time>
      </trkpt>
      <trkpt lat="45.92117" lon="4.75557">
        <ele>174</ele>
        <time>2017-03-15T11:44:53Z</time>
      </trkpt>
      <trkpt lat="45.92121" lon="4.75552">
        <ele>174</ele>
        <time>2017-03-15T11:44:54Z</time>
      </trkpt>
      <trkpt lat="45.92124" lon="4.75547">
        <ele>174</ele>
        <time>2017-03-15T11:44:55Z</time>
      </trkpt>
      <trkpt lat="45.92127" lon="4.75541">
        <ele>174</ele>
        <time>2017-03-15T11:44:56Z</time>
      </trkpt>
      <trkpt lat="45.9213" lon="4.75535">
        <ele>174</ele>
        <time>2017-03-15T11:44:57Z</time>
      </trkpt>
      <trkpt lat="45.92133" lon="4.7553">
        <ele>174</ele>
        <time>2017-03-15T11:44:58Z</time>
      </trkpt>
      <trkpt lat="45.92136" lon="4.75523">
        <ele>174</ele>
        <time>2017-03-15T11:44:59Z</time>
      </trkpt>
      <trkpt lat="45.92143" lon="4.75511">
        <ele>174</ele>
        <time>2017-03-15T11:45:01Z</time>
      </trkpt>
      <trkpt lat="45.92146" lon="4.75504">
        <ele>175</ele>
        <time>2017-03-15T11:45:02Z</time>
      </trkpt>
      <trkpt lat="45.92149" lon="4.75497">
        <ele>175</ele>
        <time>2017-03-15T11:45:03Z</time>
      </trkpt>
      <trkpt lat="45.92151" lon="4.7549">
        <ele>176</ele>
        <time>2017-03-15T11:45:04Z</time>
      </trkpt>
      <trkpt lat="45.92154" lon="4.75483">
        <ele>176</ele>
        <time>2017-03-15T11:45:05Z</time>
      </trkpt>
      <trkpt lat="45.92157" lon="4.75475">
        <ele>176</ele>
        <time>2017-03-15T11:45:06Z</time>
      </trkpt>
      <trkpt lat="45.9216" lon="4.75468">
        <ele>176</ele>
        <time>2017-03-15T11:45:07Z</time>
      </trkpt>
      <trkpt lat="45.92162" lon="4.75461">
        <ele>176</ele>
        <time>2017-03-15T11:45:08Z</time>
      </trkpt>
      <trkpt lat="45.92165" lon="4.75453">
        <ele>176</ele>
        <time>2017-03-15T11:45:09Z</time>
      </trkpt>
      <trkpt lat="45.92167" lon="4.75446">
        <ele>176</ele>
        <time>2017-03-15T11:45:10Z</time>
      </trkpt>
      <trkpt lat="45.9217" lon="4.7544">
        <ele>177</ele>
        <time>2017-03-15T11:45:11Z</time>
      </trkpt>
      <trkpt lat="45.92171" lon="4.75432">
        <ele>177</ele>
        <time>2017-03-15T11:45:12Z</time>
      </trkpt>
      <trkpt lat="45.92174" lon="4.75425">
        <ele>177</ele>
        <time>2017-03-15T11:45:13Z</time>
      </trkpt>
      <trkpt lat="45.92176" lon="4.75418">
        <ele>177</ele>
        <time>2017-03-15T11:45:14Z</time>
      </trkpt>
      <trkpt lat="45.92179" lon="4.75412">
        <ele>177</ele>
        <time>2017-03-15T11:45:15Z</time>
      </trkpt>
      <trkpt lat="45.92181" lon="4.75406">
        <ele>177</ele>
        <time>2017-03-15T11:45:16Z</time>
      </trkpt>
      <trkpt lat="45.92183" lon="4.754">
        <ele>177</ele>
        <time>2017-03-15T11:45:17Z</time>
      </trkpt>
      <trkpt lat="45.92187" lon="4.75395">
        <ele>177</ele>
        <time>2017-03-15T11:45:18Z</time>
      </trkpt>
      <trkpt lat="45.9219" lon="4.75389">
        <ele>177</ele>
        <time>2017-03-15T11:45:19Z</time>
      </trkpt>
      <trkpt lat="45.92193" lon="4.75382">
        <ele>177</ele>
        <time>2017-03-15T11:45:20Z</time>
      </trkpt>
      <trkpt lat="45.92195" lon="4.75376">
        <ele>177</ele>
        <time>2017-03-15T11:45:21Z</time>
      </trkpt>
      <trkpt lat="45.92197" lon="4.7537">
        <ele>177</ele>
        <time>2017-03-15T11:45:22Z</time>
      </trkpt>
      <trkpt lat="45.922" lon="4.75364">
        <ele>177</ele>
        <time>2017-03-15T11:45:23Z</time>
      </trkpt>
      <trkpt lat="45.92202" lon="4.75357">
        <ele>177</ele>
        <time>2017-03-15T11:45:24Z</time>
      </trkpt>
      <trkpt lat="45.92204" lon="4.7535">
        <ele>177</ele>
        <time>2017-03-15T11:45:25Z</time>
      </trkpt>
      <trkpt lat="45.92206" lon="4.75343">
        <ele>177</ele>
        <time>2017-03-15T11:45:26Z</time>
      </trkpt>
      <trkpt lat="45.92207" lon="4.75336">
        <ele>177</ele>
        <time>2017-03-15T11:45:27Z</time>
      </trkpt>
      <trkpt lat="45.92209" lon="4.75329">
        <ele>176</ele>
        <time>2017-03-15T11:45:28Z</time>
      </trkpt>
      <trkpt lat="45.9221" lon="4.75321">
        <ele>176</ele>
        <time>2017-03-15T11:45:29Z</time>
      </trkpt>
      <trkpt lat="45.92211" lon="4.75313">
        <ele>176</ele>
        <time>2017-03-15T11:45:30Z</time>
      </trkpt>
      <trkpt lat="45.92212" lon="4.75304">
        <ele>176</ele>
        <time>2017-03-15T11:45:31Z</time>
      </trkpt>
      <trkpt lat="45.92212" lon="4.75296">
        <ele>176</ele>
        <time>2017-03-15T11:45:32Z</time>
      </trkpt>
      <trkpt lat="45.92213" lon="4.75288">
        <ele>176</ele>
        <time>2017-03-15T11:45:33Z</time>
      </trkpt>
      <trkpt lat="45.92213" lon="4.75279">
        <ele>176</ele>
        <time>2017-03-15T11:45:34Z</time>
      </trkpt>
      <trkpt lat="45.92213" lon="4.7527">
        <ele>176</ele>
        <time>2017-03-15T11:45:35Z</time>
      </trkpt>
      <trkpt lat="45.92214" lon="4.75262">
        <ele>176</ele>
        <time>2017-03-15T11:45:36Z</time>
      </trkpt>
      <trkpt lat="45.92214" lon="4.75253">
        <ele>175</ele>
        <time>2017-03-15T11:45:37Z</time>
      </trkpt>
      <trkpt lat="45.92215" lon="4.75245">
        <ele>175</ele>
        <time>2017-03-15T11:45:38Z</time>
      </trkpt>
      <trkpt lat="45.92215" lon="4.75237">
        <ele>175</ele>
        <time>2017-03-15T11:45:39Z</time>
      </trkpt>
      <trkpt lat="45.92215" lon="4.75228">
        <ele>175</ele>
        <time>2017-03-15T11:45:40Z</time>
      </trkpt>
      <trkpt lat="45.92216" lon="4.7522">
        <ele>175</ele>
        <time>2017-03-15T11:45:41Z</time>
      </trkpt>
      <trkpt lat="45.92217" lon="4.75211">
        <ele>175</ele>
        <time>2017-03-15T11:45:42Z</time>
      </trkpt>
      <trkpt lat="45.92218" lon="4.75202">
        <ele>175</ele>
        <time>2017-03-15T11:45:43Z</time>
      </trkpt>
      <trkpt lat="45.9222" lon="4.75194">
        <ele>175</ele>
        <time>2017-03-15T11:45:44Z</time>
      </trkpt>
      <trkpt lat="45.92221" lon="4.75186">
        <ele>175</ele>
        <time>2017-03-15T11:45:45Z</time>
      </trkpt>
      <trkpt lat="45.92224" lon="4.75178">
        <ele>175</ele>
        <time>2017-03-15T11:45:46Z</time>
      </trkpt>
      <trkpt lat="45.92226" lon="4.7517">
        <ele>175</ele>
        <time>2017-03-15T11:45:47Z</time>
      </trkpt>
      <trkpt lat="45.92229" lon="4.75162">
        <ele>174</ele>
        <time>2017-03-15T11:45:48Z</time>
      </trkpt>
      <trkpt lat="45.92233" lon="4.75155">
        <ele>174</ele>
        <time>2017-03-15T11:45:49Z</time>
      </trkpt>
      <trkpt lat="45.92236" lon="4.75148">
        <ele>174</ele>
        <time>2017-03-15T11:45:50Z</time>
      </trkpt>
      <trkpt lat="45.9224" lon="4.75141">
        <ele>174</ele>
        <time>2017-03-15T11:45:51Z</time>
      </trkpt>
      <trkpt lat="45.92244" lon="4.75135">
        <ele>174</ele>
        <time>2017-03-15T11:45:52Z</time>
      </trkpt>
      <trkpt lat="45.92248" lon="4.75129">
        <ele>174</ele>
        <time>2017-03-15T11:45:53Z</time>
      </trkpt>
      <trkpt lat="45.92253" lon="4.75123">
        <ele>174</ele>
        <time>2017-03-15T11:45:54Z</time>
      </trkpt>
      <trkpt lat="45.92258" lon="4.75118">
        <ele>174</ele>
        <time>2017-03-15T11:45:55Z</time>
      </trkpt>
      <trkpt lat="45.92262" lon="4.75113">
        <ele>174</ele>
        <time>2017-03-15T11:45:56Z</time>
      </trkpt>
      <trkpt lat="45.92267" lon="4.75108">
        <ele>174</ele>
        <time>2017-03-15T11:45:57Z</time>
      </trkpt>
      <trkpt lat="45.92271" lon="4.75104">
        <ele>173</ele>
        <time>2017-03-15T11:45:58Z</time>
      </trkpt>
      <trkpt lat="45.92275" lon="4.75099">
        <ele>173</ele>
        <time>2017-03-15T11:45:59Z</time>
      </trkpt>
      <trkpt lat="45.9228" lon="4.75094">
        <ele>173</ele>
        <time>2017-03-15T11:46:00Z</time>
      </trkpt>
      <trkpt lat="45.92285" lon="4.7509">
        <ele>173</ele>
        <time>2017-03-15T11:46:01Z</time>
      </trkpt>
      <trkpt lat="45.9229" lon="4.75085">
        <ele>173</ele>
        <time>2017-03-15T11:46:02Z</time>
      </trkpt>
      <trkpt lat="45.92295" lon="4.75079">
        <ele>172</ele>
        <time>2017-03-15T11:46:03Z</time>
      </trkpt>
      <trkpt lat="45.92299" lon="4.75074">
        <ele>172</ele>
        <time>2017-03-15T11:46:04Z</time>
      </trkpt>
      <trkpt lat="45.92304" lon="4.75068">
        <ele>172</ele>
        <time>2017-03-15T11:46:05Z</time>
      </trkpt>
      <trkpt lat="45.92309" lon="4.75062">
        <ele>172</ele>
        <time>2017-03-15T11:46:06Z</time>
      </trkpt>
      <trkpt lat="45.92313" lon="4.75056">
        <ele>172</ele>
        <time>2017-03-15T11:46:07Z</time>
      </trkpt>
      <trkpt lat="45.92317" lon="4.75049">
        <ele>172</ele>
        <time>2017-03-15T11:46:08Z</time>
      </trkpt>
      <trkpt lat="45.92322" lon="4.75042">
        <ele>172</ele>
        <time>2017-03-15T11:46:09Z</time>
      </trkpt>
      <trkpt lat="45.92326" lon="4.75035">
        <ele>171</ele>
        <time>2017-03-15T11:46:10Z</time>
      </trkpt>
      <trkpt lat="45.92329" lon="4.75028">
        <ele>171</ele>
        <time>2017-03-15T11:46:11Z</time>
      </trkpt>
      <trkpt lat="45.92333" lon="4.75021">
        <ele>171</ele>
        <time>2017-03-15T11:46:12Z</time>
      </trkpt>
      <trkpt lat="45.92336" lon="4.75014">
        <ele>170</ele>
        <time>2017-03-15T11:46:13Z</time>
      </trkpt>
      <trkpt lat="45.9234" lon="4.75008">
        <ele>170</ele>
        <time>2017-03-15T11:46:14Z</time>
      </trkpt>
      <trkpt lat="45.92343" lon="4.75001">
        <ele>170</ele>
        <time>2017-03-15T11:46:15Z</time>
      </trkpt>
      <trkpt lat="45.92345" lon="4.74994">
        <ele>170</ele>
        <time>2017-03-15T11:46:16Z</time>
      </trkpt>
      <trkpt lat="45.92348" lon="4.74987">
        <ele>170</ele>
        <time>2017-03-15T11:46:17Z</time>
      </trkpt>
      <trkpt lat="45.92351" lon="4.7498">
        <ele>170</ele>
        <time>2017-03-15T11:46:18Z</time>
      </trkpt>
      <trkpt lat="45.92353" lon="4.74974">
        <ele>170</ele>
        <time>2017-03-15T11:46:19Z</time>
      </trkpt>
      <trkpt lat="45.92356" lon="4.74967">
        <ele>170</ele>
        <time>2017-03-15T11:46:20Z</time>
      </trkpt>
      <trkpt lat="45.92358" lon="4.7496">
        <ele>170</ele>
        <time>2017-03-15T11:46:21Z</time>
      </trkpt>
      <trkpt lat="45.92361" lon="4.74954">
        <ele>170</ele>
        <time>2017-03-15T11:46:22Z</time>
      </trkpt>
      <trkpt lat="45.92364" lon="4.74946">
        <ele>170</ele>
        <time>2017-03-15T11:46:23Z</time>
      </trkpt>
      <trkpt lat="45.92367" lon="4.74939">
        <ele>170</ele>
        <time>2017-03-15T11:46:24Z</time>
      </trkpt>
      <trkpt lat="45.9237" lon="4.74932">
        <ele>170</ele>
        <time>2017-03-15T11:46:25Z</time>
      </trkpt>
      <trkpt lat="45.92373" lon="4.74924">
        <ele>170</ele>
        <time>2017-03-15T11:46:26Z</time>
      </trkpt>
      <trkpt lat="45.92375" lon="4.74917">
        <ele>171</ele>
        <time>2017-03-15T11:46:27Z</time>
      </trkpt>
      <trkpt lat="45.92378" lon="4.74909">
        <ele>171</ele>
        <time>2017-03-15T11:46:28Z</time>
      </trkpt>
      <trkpt lat="45.92381" lon="4.74901">
        <ele>171</ele>
        <time>2017-03-15T11:46:29Z</time>
      </trkpt>
      <trkpt lat="45.92384" lon="4.74893">
        <ele>171</ele>
        <time>2017-03-15T11:46:30Z</time>
      </trkpt>
      <trkpt lat="45.92387" lon="4.74886">
        <ele>171</ele>
        <time>2017-03-15T11:46:31Z</time>
      </trkpt>
      <trkpt lat="45.9239" lon="4.74879">
        <ele>171</ele>
        <time>2017-03-15T11:46:32Z</time>
      </trkpt>
      <trkpt lat="45.92392" lon="4.74872">
        <ele>171</ele>
        <time>2017-03-15T11:46:33Z</time>
      </trkpt>
      <trkpt lat="45.92395" lon="4.74865">
        <ele>171</ele>
        <time>2017-03-15T11:46:34Z</time>
      </trkpt>
      <trkpt lat="45.92397" lon="4.74858">
        <ele>171</ele>
        <time>2017-03-15T11:46:35Z</time>
      </trkpt>
      <trkpt lat="45.92399" lon="4.74851">
        <ele>171</ele>
        <time>2017-03-15T11:46:36Z</time>
      </trkpt>
      <trkpt lat="45.92401" lon="4.74844">
        <ele>171</ele>
        <time>2017-03-15T11:46:37Z</time>
      </trkpt>
      <trkpt lat="45.92403" lon="4.74836">
        <ele>171</ele>
        <time>2017-03-15T11:46:38Z</time>
      </trkpt>
      <trkpt lat="45.92405" lon="4.74829">
        <ele>171</ele>
        <time>2017-03-15T11:46:39Z</time>
      </trkpt>
      <trkpt lat="45.92407" lon="4.74822">
        <ele>171</ele>
        <time>2017-03-15T11:46:40Z</time>
      </trkpt>
      <trkpt lat="45.92409" lon="4.74814">
        <ele>171</ele>
        <time>2017-03-15T11:46:41Z</time>
      </trkpt>
      <trkpt lat="45.92411" lon="4.74805">
        <ele>171</ele>
        <time>2017-03-15T11:46:42Z</time>
      </trkpt>
      <trkpt lat="45.92413" lon="4.74797">
        <ele>171</ele>
        <time>2017-03-15T11:46:43Z</time>
      </trkpt>
      <trkpt lat="45.92414" lon="4.74789">
        <ele>171</ele>
        <time>2017-03-15T11:46:44Z</time>
      </trkpt>
      <trkpt lat="45.92416" lon="4.74781">
        <ele>171</ele>
        <time>2017-03-15T11:46:45Z</time>
      </trkpt>
      <trkpt lat="45.92418" lon="4.74773">
        <ele>171</ele>
        <time>2017-03-15T11:46:46Z</time>
      </trkpt>
      <trkpt lat="45.9242" lon="4.74766">
        <ele>171</ele>
        <time>2017-03-15T11:46:47Z</time>
      </trkpt>
      <trkpt lat="45.92422" lon="4.74758">
        <ele>172</ele>
        <time>2017-03-15T11:46:48Z</time>
      </trkpt>
      <trkpt lat="45.92424" lon="4.7475">
        <ele>172</ele>
        <time>2017-03-15T11:46:49Z</time>
      </trkpt>
      <trkpt lat="45.92426" lon="4.74743">
        <ele>172</ele>
        <time>2017-03-15T11:46:50Z</time>
      </trkpt>
      <trkpt lat="45.92428" lon="4.74736">
        <ele>171</ele>
        <time>2017-03-15T11:46:51Z</time>
      </trkpt>
      <trkpt lat="45.92431" lon="4.74729">
        <ele>171</ele>
        <time>2017-03-15T11:46:52Z</time>
      </trkpt>
      <trkpt lat="45.92433" lon="4.74722">
        <ele>171</ele>
        <time>2017-03-15T11:46:53Z</time>
      </trkpt>
      <trkpt lat="45.92435" lon="4.74714">
        <ele>171</ele>
        <time>2017-03-15T11:46:54Z</time>
      </trkpt>
      <trkpt lat="45.92438" lon="4.74707">
        <ele>171</ele>
        <time>2017-03-15T11:46:55Z</time>
      </trkpt>
      <trkpt lat="45.92441" lon="4.74701">
        <ele>171</ele>
        <time>2017-03-15T11:46:56Z</time>
      </trkpt>
      <trkpt lat="45.92444" lon="4.74694">
        <ele>171</ele>
        <time>2017-03-15T11:46:57Z</time>
      </trkpt>
      <trkpt lat="45.92447" lon="4.74687">
        <ele>171</ele>
        <time>2017-03-15T11:46:58Z</time>
      </trkpt>
      <trkpt lat="45.9245" lon="4.74681">
        <ele>171</ele>
        <time>2017-03-15T11:46:59Z</time>
      </trkpt>
      <trkpt lat="45.92453" lon="4.74675">
        <ele>171</ele>
        <time>2017-03-15T11:47:00Z</time>
      </trkpt>
      <trkpt lat="45.92456" lon="4.74669">
        <ele>171</ele>
        <time>2017-03-15T11:47:01Z</time>
      </trkpt>
      <trkpt lat="45.9246" lon="4.74662">
        <ele>171</ele>
        <time>2017-03-15T11:47:02Z</time>
      </trkpt>
      <trkpt lat="45.92463" lon="4.74655">
        <ele>171</ele>
        <time>2017-03-15T11:47:03Z</time>
      </trkpt>
      <trkpt lat="45.92467" lon="4.74649">
        <ele>171</ele>
        <time>2017-03-15T11:47:04Z</time>
      </trkpt>
      <trkpt lat="45.9247" lon="4.74644">
        <ele>171</ele>
        <time>2017-03-15T11:47:05Z</time>
      </trkpt>
      <trkpt lat="45.92473" lon="4.74637">
        <ele>171</ele>
        <time>2017-03-15T11:47:06Z</time>
      </trkpt>
      <trkpt lat="45.92477" lon="4.74632">
        <ele>171</ele>
        <time>2017-03-15T11:47:07Z</time>
      </trkpt>
      <trkpt lat="45.92481" lon="4.74627">
        <ele>171</ele>
        <time>2017-03-15T11:47:08Z</time>
      </trkpt>
      <trkpt lat="45.92485" lon="4.74621">
        <ele>171</ele>
        <time>2017-03-15T11:47:09Z</time>
      </trkpt>
      <trkpt lat="45.92489" lon="4.74616">
        <ele>171</ele>
        <time>2017-03-15T11:47:10Z</time>
      </trkpt>
      <trkpt lat="45.92493" lon="4.74611">
        <ele>171</ele>
        <time>2017-03-15T11:47:11Z</time>
      </trkpt>
      <trkpt lat="45.92497" lon="4.74604">
        <ele>171</ele>
        <time>2017-03-15T11:47:12Z</time>
      </trkpt>
      <trkpt lat="45.92502" lon="4.74599">
        <ele>171</ele>
        <time>2017-03-15T11:47:13Z</time>
      </trkpt>
      <trkpt lat="45.92507" lon="4.74594">
        <ele>171</ele>
        <time>2017-03-15T11:47:14Z</time>
      </trkpt>
      <trkpt lat="45.92511" lon="4.74589">
        <ele>171</ele>
        <time>2017-03-15T11:47:15Z</time>
      </trkpt>
      <trkpt lat="45.92515" lon="4.74584">
        <ele>171</ele>
        <time>2017-03-15T11:47:16Z</time>
      </trkpt>
      <trkpt lat="45.9252" lon="4.74578">
        <ele>171</ele>
        <time>2017-03-15T11:47:17Z</time>
      </trkpt>
      <trkpt lat="45.92524" lon="4.74573">
        <ele>171</ele>
        <time>2017-03-15T11:47:18Z</time>
      </trkpt>
      <trkpt lat="45.92528" lon="4.74567">
        <ele>171</ele>
        <time>2017-03-15T11:47:19Z</time>
      </trkpt>
      <trkpt lat="45.92532" lon="4.74561">
        <ele>171</ele>
        <time>2017-03-15T11:47:20Z</time>
      </trkpt>
      <trkpt lat="45.92536" lon="4.74556">
        <ele>171</ele>
        <time>2017-03-15T11:47:21Z</time>
      </trkpt>
      <trkpt lat="45.92541" lon="4.7455">
        <ele>171</ele>
        <time>2017-03-15T11:47:22Z</time>
      </trkpt>
      <trkpt lat="45.92544" lon="4.74544">
        <ele>170</ele>
        <time>2017-03-15T11:47:23Z</time>
      </trkpt>
      <trkpt lat="45.92548" lon="4.74538">
        <ele>170</ele>
        <time>2017-03-15T11:47:24Z</time>
      </trkpt>
      <trkpt lat="45.92551" lon="4.74532">
        <ele>170</ele>
        <time>2017-03-15T11:47:25Z</time>
      </trkpt>
      <trkpt lat="45.92555" lon="4.74526">
        <ele>170</ele>
        <time>2017-03-15T11:47:26Z</time>
      </trkpt>
      <trkpt lat="45.92558" lon="4.7452">
        <ele>170</ele>
        <time>2017-03-15T11:47:27Z</time>
      </trkpt>
      <trkpt lat="45.92561" lon="4.74515">
        <ele>170</ele>
        <time>2017-03-15T11:47:28Z</time>
      </trkpt>
      <trkpt lat="45.92564" lon="4.74509">
        <ele>170</ele>
        <time>2017-03-15T11:47:29Z</time>
      </trkpt>
      <trkpt lat="45.92568" lon="4.74504">
        <ele>170</ele>
        <time>2017-03-15T11:47:30Z</time>
      </trkpt>
      <trkpt lat="45.92571" lon="4.74498">
        <ele>170</ele>
        <time>2017-03-15T11:47:31Z</time>
      </trkpt>
      <trkpt lat="45.92574" lon="4.74493">
        <ele>170</ele>
        <time>2017-03-15T11:47:32Z</time>
      </trkpt>
      <trkpt lat="45.92577" lon="4.74487">
        <ele>170</ele>
        <time>2017-03-15T11:47:33Z</time>
      </trkpt>
      <trkpt lat="45.9258" lon="4.74481">
        <ele>170</ele>
        <time>2017-03-15T11:47:34Z</time>
      </trkpt>
      <trkpt lat="45.92583" lon="4.74476">
        <ele>170</ele>
        <time>2017-03-15T11:47:35Z</time>
      </trkpt>
      <trkpt lat="45.92586" lon="4.7447">
        <ele>170</ele>
        <time>2017-03-15T11:47:36Z</time>
      </trkpt>
      <trkpt lat="45.92589" lon="4.74464">
        <ele>170</ele>
        <time>2017-03-15T11:47:37Z</time>
      </trkpt>
      <trkpt lat="45.92591" lon="4.74459">
        <ele>170</ele>
        <time>2017-03-15T11:47:38Z</time>
      </trkpt>
      <trkpt lat="45.92594" lon="4.74453">
        <ele>170</ele>
        <time>2017-03-15T11:47:39Z</time>
      </trkpt>
      <trkpt lat="45.92598" lon="4.74448">
        <ele>170</ele>
        <time>2017-03-15T11:47:40Z</time>
      </trkpt>
      <trkpt lat="45.92601" lon="4.74442">
        <ele>170</ele>
        <time>2017-03-15T11:47:41Z</time>
      </trkpt>
      <trkpt lat="45.92604" lon="4.74436">
        <ele>170</ele>
        <time>2017-03-15T11:47:42Z</time>
      </trkpt>
      <trkpt lat="45.92607" lon="4.7443">
        <ele>170</ele>
        <time>2017-03-15T11:47:43Z</time>
      </trkpt>
      <trkpt lat="45.9261" lon="4.74424">
        <ele>170</ele>
        <time>2017-03-15T11:47:44Z</time>
      </trkpt>
      <trkpt lat="45.92613" lon="4.74419">
        <ele>170</ele>
        <time>2017-03-15T11:47:45Z</time>
      </trkpt>
      <trkpt lat="45.92617" lon="4.74413">
        <ele>170</ele>
        <time>2017-03-15T11:47:46Z</time>
      </trkpt>
      <trkpt lat="45.9262" lon="4.74408">
        <ele>170</ele>
        <time>2017-03-15T11:47:47Z</time>
      </trkpt>
      <trkpt lat="45.92623" lon="4.74402">
        <ele>170</ele>
        <time>2017-03-15T11:47:48Z</time>
      </trkpt>
      <trkpt lat="45.92626" lon="4.74396">
        <ele>170</ele>
        <time>2017-03-15T11:47:49Z</time>
      </trkpt>
      <trkpt lat="45.92629" lon="4.74391">
        <ele>170</ele>
        <time>2017-03-15T11:47:50Z</time>
      </trkpt>
      <trkpt lat="45.92632" lon="4.74385">
        <ele>170</ele>
        <time>2017-03-15T11:47:51Z</time>
      </trkpt>
      <trkpt lat="45.92635" lon="4.7438">
        <ele>170</ele>
        <time>2017-03-15T11:47:52Z</time>
      </trkpt>
      <trkpt lat="45.92638" lon="4.74374">
        <ele>171</ele>
        <time>2017-03-15T11:47:53Z</time>
      </trkpt>
      <trkpt lat="45.92641" lon="4.74368">
        <ele>171</ele>
        <time>2017-03-15T11:47:54Z</time>
      </trkpt>
      <trkpt lat="45.92644" lon="4.74362">
        <ele>171</ele>
        <time>2017-03-15T11:47:55Z</time>
      </trkpt>
      <trkpt lat="45.92647" lon="4.74356">
        <ele>171</ele>
        <time>2017-03-15T11:47:56Z</time>
      </trkpt>
      <trkpt lat="45.9265" lon="4.7435">
        <ele>171</ele>
        <time>2017-03-15T11:47:57Z</time>
      </trkpt>
      <trkpt lat="45.92654" lon="4.74344">
        <ele>171</ele>
        <time>2017-03-15T11:47:58Z</time>
      </trkpt>
      <trkpt lat="45.92657" lon="4.74338">
        <ele>171</ele>
        <time>2017-03-15T11:47:59Z</time>
      </trkpt>
      <trkpt lat="45.9266" lon="4.74332">
        <ele>171</ele>
        <time>2017-03-15T11:48:00Z</time>
      </trkpt>
      <trkpt lat="45.92663" lon="4.74326">
        <ele>171</ele>
        <time>2017-03-15T11:48:01Z</time>
      </trkpt>
      <trkpt lat="45.92666" lon="4.74321">
        <ele>171</ele>
        <time>2017-03-15T11:48:02Z</time>
      </trkpt>
      <trkpt lat="45.92669" lon="4.74315">
        <ele>171</ele>
        <time>2017-03-15T11:48:03Z</time>
      </trkpt>
      <trkpt lat="45.92672" lon="4.7431">
        <ele>171</ele>
        <time>2017-03-15T11:48:04Z</time>
      </trkpt>
      <trkpt lat="45.92675" lon="4.74304">
        <ele>171</ele>
        <time>2017-03-15T11:48:05Z</time>
      </trkpt>
      <trkpt lat="45.92678" lon="4.74299">
        <ele>171</ele>
        <time>2017-03-15T11:48:06Z</time>
      </trkpt>
      <trkpt lat="45.92681" lon="4.74293">
        <ele>171</ele>
        <time>2017-03-15T11:48:07Z</time>
      </trkpt>
      <trkpt lat="45.92684" lon="4.74288">
        <ele>171</ele>
        <time>2017-03-15T11:48:08Z</time>
      </trkpt>
      <trkpt lat="45.92687" lon="4.74283">
        <ele>171</ele>
        <time>2017-03-15T11:48:09Z</time>
      </trkpt>
      <trkpt lat="45.92692" lon="4.74273">
        <ele>171</ele>
        <time>2017-03-15T11:48:11Z</time>
      </trkpt>
      <trkpt lat="45.92695" lon="4.74268">
        <ele>171</ele>
        <time>2017-03-15T11:48:12Z</time>
      </trkpt>
      <trkpt lat="45.92699" lon="4.74263">
        <ele>171</ele>
        <time>2017-03-15T11:48:13Z</time>
      </trkpt>
      <trkpt lat="45.92702" lon="4.74257">
        <ele>171</ele>
        <time>2017-03-15T11:48:14Z</time>
      </trkpt>
      <trkpt lat="45.92705" lon="4.74252">
        <ele>171</ele>
        <time>2017-03-15T11:48:15Z</time>
      </trkpt>
      <trkpt lat="45.92709" lon="4.74246">
        <ele>171</ele>
        <time>2017-03-15T11:48:16Z</time>
      </trkpt>
      <trkpt lat="45.92712" lon="4.74241">
        <ele>171</ele>
        <time>2017-03-15T11:48:17Z</time>
      </trkpt>
      <trkpt lat="45.92716" lon="4.74235">
        <ele>171</ele>
        <time>2017-03-15T11:48:18Z</time>
      </trkpt>
      <trkpt lat="45.92719" lon="4.7423">
        <ele>171</ele>
        <time>2017-03-15T11:48:19Z</time>
      </trkpt>
      <trkpt lat="45.92723" lon="4.74225">
        <ele>171</ele>
        <time>2017-03-15T11:48:20Z</time>
      </trkpt>
      <trkpt lat="45.92726" lon="4.7422">
        <ele>171</ele>
        <time>2017-03-15T11:48:21Z</time>
      </trkpt>
      <trkpt lat="45.92729" lon="4.74215">
        <ele>171</ele>
        <time>2017-03-15T11:48:22Z</time>
      </trkpt>
      <trkpt lat="45.92732" lon="4.7421">
        <ele>171</ele>
        <time>2017-03-15T11:48:23Z</time>
      </trkpt>
      <trkpt lat="45.92736" lon="4.74205">
        <ele>171</ele>
        <time>2017-03-15T11:48:24Z</time>
      </trkpt>
      <trkpt lat="45.92739" lon="4.74201">
        <ele>171</ele>
        <time>2017-03-15T11:48:25Z</time>
      </trkpt>
      <trkpt lat="45.92743" lon="4.74196">
        <ele>171</ele>
        <time>2017-03-15T11:48:26Z</time>
      </trkpt>
      <trkpt lat="45.92747" lon="4.74191">
        <ele>172</ele>
        <time>2017-03-15T11:48:27Z</time>
      </trkpt>
      <trkpt lat="45.92751" lon="4.74186">
        <ele>172</ele>
        <time>2017-03-15T11:48:28Z</time>
      </trkpt>
      <trkpt lat="45.92755" lon="4.74181">
        <ele>172</ele>
        <time>2017-03-15T11:48:29Z</time>
      </trkpt>
      <trkpt lat="45.9276" lon="4.74176">
        <ele>172</ele>
        <time>2017-03-15T11:48:30Z</time>
      </trkpt>
      <trkpt lat="45.92764" lon="4.74172">
        <ele>172</ele>
        <time>2017-03-15T11:48:31Z</time>
      </trkpt>
      <trkpt lat="45.92769" lon="4.74167">
        <ele>172</ele>
        <time>2017-03-15T11:48:32Z</time>
      </trkpt>
      <trkpt lat="45.92773" lon="4.74162">
        <ele>172</ele>
        <time>2017-03-15T11:48:33Z</time>
      </trkpt>
      <trkpt lat="45.92777" lon="4.74158">
        <ele>172</ele>
        <time>2017-03-15T11:48:34Z</time>
      </trkpt>
      <trkpt lat="45.92781" lon="4.74154">
        <ele>172</ele>
        <time>2017-03-15T11:48:35Z</time>
      </trkpt>
      <trkpt lat="45.92785" lon="4.7415">
        <ele>172</ele>
        <time>2017-03-15T11:48:36Z</time>
      </trkpt>
      <trkpt lat="45.92789" lon="4.74146">
        <ele>172</ele>
        <time>2017-03-15T11:48:37Z</time>
      </trkpt>
      <trkpt lat="45.92792" lon="4.74142">
        <ele>172</ele>
        <time>2017-03-15T11:48:38Z</time>
      </trkpt>
      <trkpt lat="45.92796" lon="4.74138">
        <ele>172</ele>
        <time>2017-03-15T11:48:39Z</time>
      </trkpt>
      <trkpt lat="45.92799" lon="4.74133">
        <ele>172</ele>
        <time>2017-03-15T11:48:40Z</time>
      </trkpt>
      <trkpt lat="45.92803" lon="4.74129">
        <ele>172</ele>
        <time>2017-03-15T11:48:41Z</time>
      </trkpt>
      <trkpt lat="45.92807" lon="4.74125">
        <ele>172</ele>
        <time>2017-03-15T11:48:42Z</time>
      </trkpt>
      <trkpt lat="45.92811" lon="4.74121">
        <ele>172</ele>
        <time>2017-03-15T11:48:43Z</time>
      </trkpt>
      <trkpt lat="45.92815" lon="4.74117">
        <ele>172</ele>
        <time>2017-03-15T11:48:44Z</time>
      </trkpt>
      <trkpt lat="45.92819" lon="4.74113">
        <ele>172</ele>
        <time>2017-03-15T11:48:45Z</time>
      </trkpt>
      <trkpt lat="45.92823" lon="4.74109">
        <ele>171</ele>
        <time>2017-03-15T11:48:46Z</time>
      </trkpt>
      <trkpt lat="45.92826" lon="4.74105">
        <ele>171</ele>
        <time>2017-03-15T11:48:47Z</time>
      </trkpt>
      <trkpt lat="45.9283" lon="4.741">
        <ele>171</ele>
        <time>2017-03-15T11:48:48Z</time>
      </trkpt>
      <trkpt lat="45.92834" lon="4.74096">
        <ele>171</ele>
        <time>2017-03-15T11:48:49Z</time>
      </trkpt>
      <trkpt lat="45.92838" lon="4.74092">
        <ele>171</ele>
        <time>2017-03-15T11:48:50Z</time>
      </trkpt>
      <trkpt lat="45.92842" lon="4.74087">
        <ele>171</ele>
        <time>2017-03-15T11:48:51Z</time>
      </trkpt>
      <trkpt lat="45.92845" lon="4.74083">
        <ele>172</ele>
        <time>2017-03-15T11:48:52Z</time>
      </trkpt>
      <trkpt lat="45.92849" lon="4.74078">
        <ele>172</ele>
        <time>2017-03-15T11:48:53Z</time>
      </trkpt>
      <trkpt lat="45.92853" lon="4.74073">
        <ele>172</ele>
        <time>2017-03-15T11:48:54Z</time>
      </trkpt>
      <trkpt lat="45.92856" lon="4.74068">
        <ele>172</ele>
        <time>2017-03-15T11:48:55Z</time>
      </trkpt>
      <trkpt lat="45.9286" lon="4.74063">
        <ele>172</ele>
        <time>2017-03-15T11:48:56Z</time>
      </trkpt>
      <trkpt lat="45.92864" lon="4.74059">
        <ele>172</ele>
        <time>2017-03-15T11:48:57Z</time>
      </trkpt>
      <trkpt lat="45.92868" lon="4.74055">
        <ele>172</ele>
        <time>2017-03-15T11:48:58Z</time>
      </trkpt>
      <trkpt lat="45.92872" lon="4.74053">
        <ele>172</ele>
        <time>2017-03-15T11:48:59Z</time>
      </trkpt>
      <trkpt lat="45.92877" lon="4.7405">
        <ele>172</ele>
        <time>2017-03-15T11:49:00Z</time>
      </trkpt>
      <trkpt lat="45.92882" lon="4.74048">
        <ele>172</ele>
        <time>2017-03-15T11:49:01Z</time>
      </trkpt>
      <trkpt lat="45.92887" lon="4.74048">
        <ele>172</ele>
        <time>2017-03-15T11:49:02Z</time>
      </trkpt>
      <trkpt lat="45.92892" lon="4.74048">
        <ele>172</ele>
        <time>2017-03-15T11:49:03Z</time>
      </trkpt>
      <trkpt lat="45.92898" lon="4.74048">
        <ele>172</ele>
        <time>2017-03-15T11:49:04Z</time>
      </trkpt>
      <trkpt lat="45.92903" lon="4.74046">
        <ele>172</ele>
        <time>2017-03-15T11:49:05Z</time>
      </trkpt>
      <trkpt lat="45.92907" lon="4.74042">
        <ele>172</ele>
        <time>2017-03-15T11:49:06Z</time>
      </trkpt>
      <trkpt lat="45.92911" lon="4.74037">
        <ele>172</ele>
        <time>2017-03-15T11:49:07Z</time>
      </trkpt>
      <trkpt lat="45.92914" lon="4.7403">
        <ele>172</ele>
        <time>2017-03-15T11:49:08Z</time>
      </trkpt>
      <trkpt lat="45.92916" lon="4.74022">
        <ele>172</ele>
        <time>2017-03-15T11:49:09Z</time>
      </trkpt>
      <trkpt lat="45.92917" lon="4.74013">
        <ele>172</ele>
        <time>2017-03-15T11:49:10Z</time>
      </trkpt>
      <trkpt lat="45.92916" lon="4.74005">
        <ele>172</ele>
        <time>2017-03-15T11:49:11Z</time>
      </trkpt>
      <trkpt lat="45.92914" lon="4.73998">
        <ele>172</ele>
        <time>2017-03-15T11:49:12Z</time>
      </trkpt>
      <trkpt lat="45.92911" lon="4.73992">
        <ele>172</ele>
        <time>2017-03-15T11:49:13Z</time>
      </trkpt>
      <trkpt lat="45.92908" lon="4.73987">
        <ele>172</ele>
        <time>2017-03-15T11:49:14Z</time>
      </trkpt>
      <trkpt lat="45.92903" lon="4.73983">
        <ele>172</ele>
        <time>2017-03-15T11:49:15Z</time>
      </trkpt>
      <trkpt lat="45.92899" lon="4.7398">
        <ele>172</ele>
        <time>2017-03-15T11:49:16Z</time>
      </trkpt>
      <trkpt lat="45.92895" lon="4.73976">
        <ele>172</ele>
        <time>2017-03-15T11:49:17Z</time>
      </trkpt>
      <trkpt lat="45.92892" lon="4.7397">
        <ele>172</ele>
        <time>2017-03-15T11:49:18Z</time>
      </trkpt>
      <trkpt lat="45.9289" lon="4.73963">
        <ele>172</ele>
        <time>2017-03-15T11:49:19Z</time>
      </trkpt>
      <trkpt lat="45.92888" lon="4.73956">
        <ele>172</ele>
        <time>2017-03-15T11:49:20Z</time>
      </trkpt>
      <trkpt lat="45.92887" lon="4.73948">
        <ele>172</ele>
        <time>2017-03-15T11:49:21Z</time>
      </trkpt>
      <trkpt lat="45.92887" lon="4.73939">
        <ele>172</ele>
        <time>2017-03-15T11:49:22Z</time>
      </trkpt>
      <trkpt lat="45.92886" lon="4.7393">
        <ele>172</ele>
        <time>2017-03-15T11:49:23Z</time>
      </trkpt>
      <trkpt lat="45.92885" lon="4.73921">
        <ele>172</ele>
        <time>2017-03-15T11:49:24Z</time>
      </trkpt>
      <trkpt lat="45.92884" lon="4.73912">
        <ele>173</ele>
        <time>2017-03-15T11:49:25Z</time>
      </trkpt>
      <trkpt lat="45.92882" lon="4.73903">
        <ele>173</ele>
        <time>2017-03-15T11:49:26Z</time>
      </trkpt>
      <trkpt lat="45.92881" lon="4.73894">
        <ele>173</ele>
        <time>2017-03-15T11:49:27Z</time>
      </trkpt>
      <trkpt lat="45.92879" lon="4.73885">
        <ele>173</ele>
        <time>2017-03-15T11:49:28Z</time>
      </trkpt>
      <trkpt lat="45.92877" lon="4.73876">
        <ele>173</ele>
        <time>2017-03-15T11:49:29Z</time>
      </trkpt>
      <trkpt lat="45.92875" lon="4.73868">
        <ele>173</ele>
        <time>2017-03-15T11:49:30Z</time>
      </trkpt>
      <trkpt lat="45.92874" lon="4.73859">
        <ele>173</ele>
        <time>2017-03-15T11:49:31Z</time>
      </trkpt>
      <trkpt lat="45.92872" lon="4.73851">
        <ele>173</ele>
        <time>2017-03-15T11:49:32Z</time>
      </trkpt>
      <trkpt lat="45.92871" lon="4.73843">
        <ele>173</ele>
        <time>2017-03-15T11:49:33Z</time>
      </trkpt>
      <trkpt lat="45.92868" lon="4.73837">
        <ele>173</ele>
        <time>2017-03-15T11:49:34Z</time>
      </trkpt>
      <trkpt lat="45.92867" lon="4.73829">
        <ele>173</ele>
        <time>2017-03-15T11:49:35Z</time>
      </trkpt>
      <trkpt lat="45.92865" lon="4.73822">
        <ele>173</ele>
        <time>2017-03-15T11:49:36Z</time>
      </trkpt>
      <trkpt lat="45.92863" lon="4.73814">
        <ele>173</ele>
        <time>2017-03-15T11:49:37Z</time>
      </trkpt>
      <trkpt lat="45.92861" lon="4.73808">
        <ele>173</ele>
        <time>2017-03-15T11:49:38Z</time>
      </trkpt>
      <trkpt lat="45.9286" lon="4.73801">
        <ele>173</ele>
        <time>2017-03-15T11:49:39Z</time>
      </trkpt>
      <trkpt lat="45.92858" lon="4.73795">
        <ele>173</ele>
        <time>2017-03-15T11:49:40Z</time>
      </trkpt>
      <trkpt lat="45.92853" lon="4.73785">
        <ele>173</ele>
        <time>2017-03-15T11:49:42Z</time>
      </trkpt>
      <trkpt lat="45.92848" lon="4.73783">
        <ele>173</ele>
        <time>2017-03-15T11:49:43Z</time>
      </trkpt>
      <trkpt lat="45.92843" lon="4.73781">
        <ele>173</ele>
        <time>2017-03-15T11:49:44Z</time>
      </trkpt>
      <trkpt lat="45.92838" lon="4.73779">
        <ele>172</ele>
        <time>2017-03-15T11:49:45Z</time>
      </trkpt>
      <trkpt lat="45.92833" lon="4.73776">
        <ele>173</ele>
        <time>2017-03-15T11:49:46Z</time>
      </trkpt>
      <trkpt lat="45.92828" lon="4.73773">
        <ele>173</ele>
        <time>2017-03-15T11:49:47Z</time>
      </trkpt>
      <trkpt lat="45.92823" lon="4.7377">
        <ele>173</ele>
        <time>2017-03-15T11:49:48Z</time>
      </trkpt>
      <trkpt lat="45.92817" lon="4.73768">
        <ele>173</ele>
        <time>2017-03-15T11:49:49Z</time>
      </trkpt>
      <trkpt lat="45.92812" lon="4.73764">
        <ele>173</ele>
        <time>2017-03-15T11:49:50Z</time>
      </trkpt>
      <trkpt lat="45.92808" lon="4.7376">
        <ele>173</ele>
        <time>2017-03-15T11:49:51Z</time>
      </trkpt>
      <trkpt lat="45.92803" lon="4.73757">
        <ele>173</ele>
        <time>2017-03-15T11:49:52Z</time>
      </trkpt>
      <trkpt lat="45.92797" lon="4.73754">
        <ele>173</ele>
        <time>2017-03-15T11:49:53Z</time>
      </trkpt>
      <trkpt lat="45.92792" lon="4.73752">
        <ele>173</ele>
        <time>2017-03-15T11:49:54Z</time>
      </trkpt>
      <trkpt lat="45.92787" lon="4.73748">
        <ele>172</ele>
        <time>2017-03-15T11:49:55Z</time>
      </trkpt>
      <trkpt lat="45.92784" lon="4.73743">
        <ele>172</ele>
        <time>2017-03-15T11:49:56Z</time>
      </trkpt>
      <trkpt lat="45.9278" lon="4.73738">
        <ele>172</ele>
        <time>2017-03-15T11:49:57Z</time>
      </trkpt>
      <trkpt lat="45.92777" lon="4.73734">
        <ele>172</ele>
        <time>2017-03-15T11:49:58Z</time>
      </trkpt>
      <trkpt lat="45.92772" lon="4.73731">
        <ele>172</ele>
        <time>2017-03-15T11:49:59Z</time>
      </trkpt>
      <trkpt lat="45.92767" lon="4.73729">
        <ele>172</ele>
        <time>2017-03-15T11:50:00Z</time>
      </trkpt>
      <trkpt lat="45.92762" lon="4.73727">
        <ele>172</ele>
        <time>2017-03-15T11:50:01Z</time>
      </trkpt>
      <trkpt lat="45.92757" lon="4.73725">
        <ele>172</ele>
        <time>2017-03-15T11:50:02Z</time>
      </trkpt>
      <trkpt lat="45.92752" lon="4.73724">
        <ele>172</ele>
        <time>2017-03-15T11:50:03Z</time>
      </trkpt>
      <trkpt lat="45.92746" lon="4.73722">
        <ele>173</ele>
        <time>2017-03-15T11:50:04Z</time>
      </trkpt>
      <trkpt lat="45.92741" lon="4.73721">
        <ele>173</ele>
        <time>2017-03-15T11:50:05Z</time>
      </trkpt>
      <trkpt lat="45.92735" lon="4.7372">
        <ele>173</ele>
        <time>2017-03-15T11:50:06Z</time>
      </trkpt>
      <trkpt lat="45.9273" lon="4.73719">
        <ele>173</ele>
        <time>2017-03-15T11:50:07Z</time>
      </trkpt>
      <trkpt lat="45.92725" lon="4.73718">
        <ele>173</ele>
        <time>2017-03-15T11:50:08Z</time>
      </trkpt>
      <trkpt lat="45.92719" lon="4.73716">
        <ele>173</ele>
        <time>2017-03-15T11:50:09Z</time>
      </trkpt>
      <trkpt lat="45.92714" lon="4.73713">
        <ele>173</ele>
        <time>2017-03-15T11:50:10Z</time>
      </trkpt>
      <trkpt lat="45.92709" lon="4.73712">
        <ele>173</ele>
        <time>2017-03-15T11:50:11Z</time>
      </trkpt>
      <trkpt lat="45.92704" lon="4.73711">
        <ele>173</ele>
        <time>2017-03-15T11:50:12Z</time>
      </trkpt>
      <trkpt lat="45.92699" lon="4.7371">
        <ele>173</ele>
        <time>2017-03-15T11:50:13Z</time>
      </trkpt>
      <trkpt lat="45.92694" lon="4.73708">
        <ele>173</ele>
        <time>2017-03-15T11:50:14Z</time>
      </trkpt>
      <trkpt lat="45.92689" lon="4.73707">
        <ele>173</ele>
        <time>2017-03-15T11:50:15Z</time>
      </trkpt>
      <trkpt lat="45.92685" lon="4.73705">
        <ele>173</ele>
        <time>2017-03-15T11:50:16Z</time>
      </trkpt>
      <trkpt lat="45.9268" lon="4.73704">
        <ele>173</ele>
        <time>2017-03-15T11:50:17Z</time>
      </trkpt>
      <trkpt lat="45.92675" lon="4.73702">
        <ele>174</ele>
        <time>2017-03-15T11:50:18Z</time>
      </trkpt>
      <trkpt lat="45.9267" lon="4.73699">
        <ele>174</ele>
        <time>2017-03-15T11:50:19Z</time>
      </trkpt>
      <trkpt lat="45.92665" lon="4.73695">
        <ele>173</ele>
        <time>2017-03-15T11:50:20Z</time>
      </trkpt>
      <trkpt lat="45.9266" lon="4.73691">
        <ele>173</ele>
        <time>2017-03-15T11:50:21Z</time>
      </trkpt>
      <trkpt lat="45.92655" lon="4.73686">
        <ele>173</ele>
        <time>2017-03-15T11:50:22Z</time>
      </trkpt>
      <trkpt lat="45.92649" lon="4.73681">
        <ele>173</ele>
        <time>2017-03-15T11:50:23Z</time>
      </trkpt>
      <trkpt lat="45.92645" lon="4.73676">
        <ele>173</ele>
        <time>2017-03-15T11:50:24Z</time>
      </trkpt>
      <trkpt lat="45.92642" lon="4.7367">
        <ele>173</ele>
        <time>2017-03-15T11:50:25Z</time>
      </trkpt>
      <trkpt lat="45.92639" lon="4.73664">
        <ele>173</ele>
        <time>2017-03-15T11:50:26Z</time>
      </trkpt>
      <trkpt lat="45.92637" lon="4.73657">
        <ele>173</ele>
        <time>2017-03-15T11:50:27Z</time>
      </trkpt>
      <trkpt lat="45.92634" lon="4.73651">
        <ele>173</ele>
        <time>2017-03-15T11:50:28Z</time>
      </trkpt>
      <trkpt lat="45.92631" lon="4.73645">
        <ele>173</ele>
        <time>2017-03-15T11:50:29Z</time>
      </trkpt>
      <trkpt lat="45.92627" lon="4.73639">
        <ele>173</ele>
        <time>2017-03-15T11:50:30Z</time>
      </trkpt>
      <trkpt lat="45.92625" lon="4.73632">
        <ele>173</ele>
        <time>2017-03-15T11:50:31Z</time>
      </trkpt>
      <trkpt lat="45.92622" lon="4.73626">
        <ele>173</ele>
        <time>2017-03-15T11:50:32Z</time>
      </trkpt>
      <trkpt lat="45.92618" lon="4.73622">
        <ele>173</ele>
        <time>2017-03-15T11:50:33Z</time>
      </trkpt>
      <trkpt lat="45.92612" lon="4.7362">
        <ele>173</ele>
        <time>2017-03-15T11:50:34Z</time>
      </trkpt>
      <trkpt lat="45.92606" lon="4.73619">
        <ele>173</ele>
        <time>2017-03-15T11:50:35Z</time>
      </trkpt>
      <trkpt lat="45.92601" lon="4.73618">
        <ele>173</ele>
        <time>2017-03-15T11:50:36Z</time>
      </trkpt>
      <trkpt lat="45.92595" lon="4.73619">
        <ele>173</ele>
        <time>2017-03-15T11:50:37Z</time>
      </trkpt>
      <trkpt lat="45.92589" lon="4.73619">
        <ele>173</ele>
        <time>2017-03-15T11:50:38Z</time>
      </trkpt>
      <trkpt lat="45.92584" lon="4.7362">
        <ele>173</ele>
        <time>2017-03-15T11:50:39Z</time>
      </trkpt>
      <trkpt lat="45.92578" lon="4.73621">
        <ele>173</ele>
        <time>2017-03-15T11:50:40Z</time>
      </trkpt>
      <trkpt lat="45.92572" lon="4.73622">
        <ele>173</ele>
        <time>2017-03-15T11:50:41Z</time>
      </trkpt>
      <trkpt lat="45.92567" lon="4.73623">
        <ele>173</ele>
        <time>2017-03-15T11:50:42Z</time>
      </trkpt>
      <trkpt lat="45.92562" lon="4.73624">
        <ele>173</ele>
        <time>2017-03-15T11:50:43Z</time>
      </trkpt>
      <trkpt lat="45.92554" lon="4.73625">
        <ele>173</ele>
        <time>2017-03-15T11:50:44Z</time>
      </trkpt>
      <trkpt lat="45.92547" lon="4.73627">
        <ele>173</ele>
        <time>2017-03-15T11:50:45Z</time>
      </trkpt>
      <trkpt lat="45.9254" lon="4.73628">
        <ele>173</ele>
        <time>2017-03-15T11:50:46Z</time>
      </trkpt>
      <trkpt lat="45.92534" lon="4.73629">
        <ele>173</ele>
        <time>2017-03-15T11:50:47Z</time>
      </trkpt>
      <trkpt lat="45.92528" lon="4.7363">
        <ele>173</ele>
        <time>2017-03-15T11:50:48Z</time>
      </trkpt>
      <trkpt lat="45.92522" lon="4.73631">
        <ele>173</ele>
        <time>2017-03-15T11:50:49Z</time>
      </trkpt>
      <trkpt lat="45.92516" lon="4.73633">
        <ele>173</ele>
        <time>2017-03-15T11:50:50Z</time>
      </trkpt>
      <trkpt lat="45.92511" lon="4.73634">
        <ele>173</ele>
        <time>2017-03-15T11:50:51Z</time>
      </trkpt>
      <trkpt lat="45.92505" lon="4.73634">
        <ele>174</ele>
        <time>2017-03-15T11:50:52Z</time>
      </trkpt>
      <trkpt lat="45.92499" lon="4.73635">
        <ele>174</ele>
        <time>2017-03-15T11:50:53Z</time>
      </trkpt>
      <trkpt lat="45.92494" lon="4.73634">
        <ele>174</ele>
        <time>2017-03-15T11:50:54Z</time>
      </trkpt>
      <trkpt lat="45.92489" lon="4.73634">
        <ele>174</ele>
        <time>2017-03-15T11:50:55Z</time>
      </trkpt>
      <trkpt lat="45.9248" lon="4.73634">
        <ele>174</ele>
        <time>2017-03-15T11:50:57Z</time>
      </trkpt>
      <trkpt lat="45.92476" lon="4.73636">
        <ele>174</ele>
        <time>2017-03-15T11:50:58Z</time>
      </trkpt>
      <trkpt lat="45.9247" lon="4.73645">
        <ele>174</ele>
        <time>2017-03-15T11:51:00Z</time>
      </trkpt>
      <trkpt lat="45.92469" lon="4.73651">
        <ele>174</ele>
        <time>2017-03-15T11:51:01Z</time>
      </trkpt>
      <trkpt lat="45.92468" lon="4.73662">
        <ele>174</ele>
        <time>2017-03-15T11:51:03Z</time>
      </trkpt>
      <trkpt lat="45.92467" lon="4.73667">
        <ele>174</ele>
        <time>2017-03-15T11:51:04Z</time>
      </trkpt>
      <trkpt lat="45.92465" lon="4.73678">
        <ele>174</ele>
        <time>2017-03-15T11:51:06Z</time>
      </trkpt>
      <trkpt lat="45.92464" lon="4.73683">
        <ele>174</ele>
        <time>2017-03-15T11:51:07Z</time>
      </trkpt>
      <trkpt lat="45.92462" lon="4.73693">
        <ele>174</ele>
        <time>2017-03-15T11:51:09Z</time>
      </trkpt>
      <trkpt lat="45.92462" lon="4.73697">
        <ele>174</ele>
        <time>2017-03-15T11:51:10Z</time>
      </trkpt>
      <trkpt lat="45.92461" lon="4.73708">
        <ele>174</ele>
        <time>2017-03-15T11:51:13Z</time>
      </trkpt>
      <trkpt lat="45.92461" lon="4.73711">
        <ele>174</ele>
        <time>2017-03-15T11:51:14Z</time>
      </trkpt>
      <trkpt lat="45.92461" lon="4.73724">
        <ele>174</ele>
        <time>2017-03-15T11:51:21Z</time>
      </trkpt>
      <trkpt lat="45.92461" lon="4.73726">
        <ele>174</ele>
        <time>2017-03-15T11:51:22Z</time>
      </trkpt>
      <trkpt lat="45.92464" lon="4.73737">
        <ele>174</ele>
        <time>2017-03-15T11:51:27Z</time>
      </trkpt>
      <trkpt lat="45.92463" lon="4.7374">
        <ele>174</ele>
        <time>2017-03-15T11:51:28Z</time>
      </trkpt>
      <trkpt lat="45.92464" lon="4.73752">
        <ele>173</ele>
        <time>2017-03-15T11:51:34Z</time>
      </trkpt>
      <trkpt lat="45.92464" lon="4.73755">
        <ele>173</ele>
        <time>2017-03-15T11:51:35Z</time>
      </trkpt>
      <trkpt lat="45.92469" lon="4.73745">
        <ele>174</ele>
        <time>2017-03-15T11:52:00Z</time>
      </trkpt>
      <trkpt lat="45.92469" lon="4.73744">
        <ele>174</ele>
        <time>2017-03-15T11:52:01Z</time>
      </trkpt>
      <trkpt lat="45.92469" lon="4.73731">
        <ele>174</ele>
        <time>2017-03-15T11:52:11Z</time>
      </trkpt>
      <trkpt lat="45.92469" lon="4.73729">
        <ele>174</ele>
        <time>2017-03-15T11:52:12Z</time>
      </trkpt>
      <trkpt lat="45.92466" lon="4.73717">
        <ele>174</ele>
        <time>2017-03-15T11:52:22Z</time>
      </trkpt>
      <trkpt lat="45.92466" lon="4.73716">
        <ele>174</ele>
        <time>2017-03-15T11:52:23Z</time>
      </trkpt>
      <trkpt lat="45.92464" lon="4.73713">
        <ele>174</ele>
        <time>2017-03-15T11:52:56.928Z</time>
      </trkpt>
    </trkseg>
  </trk>
</gpx>